<?xml version="1.0" encoding="UTF-8" standalone="no" ?>
<gpx xmlns="http://www.topografix.com/GPX/1/1" xmlns:xsi="http://www.w3.org/2001/XMLSchema-instance" xsi:schemaLocation="http://www.topografix.com/GPX/1/1 http://www.topografix.com/GPX/1/1/gpx.xsd" version="1.1" creator="VisuGPX - https://www.visugpx.com">
  <metadata>
    <name>de saint Geoire à attignat oncin</name>
    <desc><![CDATA[Belle sortie malgré une météo peu engageante
À refaire par temps sec et du soleil 👍]]></desc>
  </metadata>
  <trk>
    <name><![CDATA[de saint Geoire à attignat oncin_1]]></name>
    <trkseg>
      <trkpt lat="45.46811" lon="5.63148">
        <ele>496.070256</ele>
        <time>2023-12-12T08:01:15.000Z</time>
      </trkpt>
      <trkpt lat="45.46805" lon="5.63144">
        <ele>496.070256</ele>
        <time>2023-12-12T08:01:27.000Z</time>
      </trkpt>
      <trkpt lat="45.46786" lon="5.63129">
        <ele>496.070256</ele>
        <time>2023-12-12T08:01:32.000Z</time>
      </trkpt>
      <trkpt lat="45.46766" lon="5.63118">
        <ele>496.070256</ele>
        <time>2023-12-12T08:01:36.000Z</time>
      </trkpt>
      <trkpt lat="45.46757" lon="5.63114">
        <ele>496.070256</ele>
        <time>2023-12-12T08:01:38.000Z</time>
      </trkpt>
      <trkpt lat="45.46751" lon="5.63112">
        <ele>496.070256</ele>
        <time>2023-12-12T08:01:39.000Z</time>
      </trkpt>
      <trkpt lat="45.46729" lon="5.63108">
        <ele>496.070256</ele>
        <time>2023-12-12T08:01:43.000Z</time>
      </trkpt>
      <trkpt lat="45.46713" lon="5.63105">
        <ele>495.529753</ele>
        <time>2023-12-12T08:01:46.000Z</time>
      </trkpt>
      <trkpt lat="45.46708" lon="5.63104">
        <ele>495.3174</ele>
        <time>2023-12-12T08:01:47.000Z</time>
      </trkpt>
      <trkpt lat="45.4666" lon="5.631">
        <ele>493.477393</ele>
        <time>2023-12-12T08:01:55.000Z</time>
      </trkpt>
      <trkpt lat="45.46654" lon="5.63099">
        <ele>493.250373</ele>
        <time>2023-12-12T08:01:56.000Z</time>
      </trkpt>
      <trkpt lat="45.46637" lon="5.63097">
        <ele>492.587523</ele>
        <time>2023-12-12T08:01:59.000Z</time>
      </trkpt>
      <trkpt lat="45.46622" lon="5.63095">
        <ele>492.010941</ele>
        <time>2023-12-12T08:02:02.000Z</time>
      </trkpt>
      <trkpt lat="45.46617" lon="5.63097">
        <ele>491.816585</ele>
        <time>2023-12-12T08:02:03.000Z</time>
      </trkpt>
      <trkpt lat="45.46612" lon="5.631">
        <ele>491.624357</ele>
        <time>2023-12-12T08:02:04.000Z</time>
      </trkpt>
      <trkpt lat="45.46605" lon="5.63111">
        <ele>491.224234</ele>
        <time>2023-12-12T08:02:06.000Z</time>
      </trkpt>
      <trkpt lat="45.46599" lon="5.63124">
        <ele>490.798429</ele>
        <time>2023-12-12T08:02:08.000Z</time>
      </trkpt>
      <trkpt lat="45.46586" lon="5.63151">
        <ele>489.90957</ele>
        <time>2023-12-12T08:02:13.000Z</time>
      </trkpt>
      <trkpt lat="45.46583" lon="5.63156">
        <ele>489.741879</ele>
        <time>2023-12-12T08:02:14.000Z</time>
      </trkpt>
      <trkpt lat="45.46574" lon="5.63179">
        <ele>489.099844</ele>
        <time>2023-12-12T08:02:18.000Z</time>
      </trkpt>
      <trkpt lat="45.4657" lon="5.63192">
        <ele>488.918535</ele>
        <time>2023-12-12T08:02:20.000Z</time>
      </trkpt>
      <trkpt lat="45.46568" lon="5.63206">
        <ele>488.735414</ele>
        <time>2023-12-12T08:02:22.000Z</time>
      </trkpt>
      <trkpt lat="45.46565" lon="5.63227">
        <ele>488.460774</ele>
        <time>2023-12-12T08:02:25.000Z</time>
      </trkpt>
      <trkpt lat="45.46565" lon="5.63234">
        <ele>488.368196</ele>
        <time>2023-12-12T08:02:26.000Z</time>
      </trkpt>
      <trkpt lat="45.46563" lon="5.63282">
        <ele>487.743645</ele>
        <time>2023-12-12T08:02:33.000Z</time>
      </trkpt>
      <trkpt lat="45.4656" lon="5.63293">
        <ele>487.599962</ele>
        <time>2023-12-12T08:02:35.000Z</time>
      </trkpt>
      <trkpt lat="45.46555" lon="5.63301">
        <ele>487.461696</ele>
        <time>2023-12-12T08:02:37.000Z</time>
      </trkpt>
      <trkpt lat="45.46547" lon="5.63306">
        <ele>487.308822</ele>
        <time>2023-12-12T08:02:39.000Z</time>
      </trkpt>
      <trkpt lat="45.46539" lon="5.63311">
        <ele>487.147395</ele>
        <time>2023-12-12T08:02:41.000Z</time>
      </trkpt>
      <trkpt lat="45.46535" lon="5.63313">
        <ele>487.067756</ele>
        <time>2023-12-12T08:02:42.000Z</time>
      </trkpt>
      <trkpt lat="45.46518" lon="5.63318">
        <ele>486.743674</ele>
        <time>2023-12-12T08:02:46.000Z</time>
      </trkpt>
      <trkpt lat="45.46508" lon="5.63322">
        <ele>486.552316</ele>
        <time>2023-12-12T08:02:48.000Z</time>
      </trkpt>
      <trkpt lat="45.46502" lon="5.63324">
        <ele>486.45177</ele>
        <time>2023-12-12T08:02:49.000Z</time>
      </trkpt>
      <trkpt lat="45.46491" lon="5.63327">
        <ele>486.243232</ele>
        <time>2023-12-12T08:02:51.000Z</time>
      </trkpt>
      <trkpt lat="45.46474" lon="5.63331">
        <ele>485.92738</ele>
        <time>2023-12-12T08:02:54.000Z</time>
      </trkpt>
      <trkpt lat="45.46464" lon="5.63334">
        <ele>485.917632</ele>
        <time>2023-12-12T08:02:56.000Z</time>
      </trkpt>
      <trkpt lat="45.46461" lon="5.63336">
        <ele>485.948055</ele>
        <time>2023-12-12T08:02:57.000Z</time>
      </trkpt>
      <trkpt lat="45.46457" lon="5.63344">
        <ele>485.998767</ele>
        <time>2023-12-12T08:02:59.000Z</time>
      </trkpt>
      <trkpt lat="45.46458" lon="5.63366">
        <ele>486.116587</ele>
        <time>2023-12-12T08:03:03.000Z</time>
      </trkpt>
      <trkpt lat="45.46458" lon="5.63372">
        <ele>486.144658</ele>
        <time>2023-12-12T08:03:04.000Z</time>
      </trkpt>
      <trkpt lat="45.46463" lon="5.63399">
        <ele>486.293274</ele>
        <time>2023-12-12T08:03:09.000Z</time>
      </trkpt>
      <trkpt lat="45.46465" lon="5.6341">
        <ele>486.35413</ele>
        <time>2023-12-12T08:03:11.000Z</time>
      </trkpt>
      <trkpt lat="45.46468" lon="5.63422">
        <ele>486.418526</ele>
        <time>2023-12-12T08:03:13.000Z</time>
      </trkpt>
      <trkpt lat="45.4647" lon="5.63427">
        <ele>486.449781</ele>
        <time>2023-12-12T08:03:14.000Z</time>
      </trkpt>
      <trkpt lat="45.46471" lon="5.63433">
        <ele>486.480518</ele>
        <time>2023-12-12T08:03:15.000Z</time>
      </trkpt>
      <trkpt lat="45.46473" lon="5.63445">
        <ele>486.543795</ele>
        <time>2023-12-12T08:03:17.000Z</time>
      </trkpt>
      <trkpt lat="45.46483" lon="5.63473">
        <ele>486.71396</ele>
        <time>2023-12-12T08:03:22.000Z</time>
      </trkpt>
      <trkpt lat="45.46493" lon="5.63497">
        <ele>486.858533</ele>
        <time>2023-12-12T08:03:26.000Z</time>
      </trkpt>
      <trkpt lat="45.46503" lon="5.63521">
        <ele>487.003025</ele>
        <time>2023-12-12T08:03:30.000Z</time>
      </trkpt>
      <trkpt lat="45.46522" lon="5.63563">
        <ele>487.270396</ele>
        <time>2023-12-12T08:03:37.000Z</time>
      </trkpt>
      <trkpt lat="45.46528" lon="5.63573">
        <ele>487.346755</ele>
        <time>2023-12-12T08:03:39.000Z</time>
      </trkpt>
      <trkpt lat="45.46531" lon="5.63579">
        <ele>487.384393</ele>
        <time>2023-12-12T08:03:40.000Z</time>
      </trkpt>
      <trkpt lat="45.46534" lon="5.63584">
        <ele>487.422961</ele>
        <time>2023-12-12T08:03:41.000Z</time>
      </trkpt>
      <trkpt lat="45.46539" lon="5.63595">
        <ele>487.500112</ele>
        <time>2023-12-12T08:03:43.000Z</time>
      </trkpt>
      <trkpt lat="45.46558" lon="5.63625">
        <ele>487.727005</ele>
        <time>2023-12-12T08:03:49.000Z</time>
      </trkpt>
      <trkpt lat="45.46569" lon="5.6364">
        <ele>487.849197</ele>
        <time>2023-12-12T08:03:52.000Z</time>
      </trkpt>
      <trkpt lat="45.46589" lon="5.63678">
        <ele>488.117893</ele>
        <time>2023-12-12T08:03:58.000Z</time>
      </trkpt>
      <trkpt lat="45.46598" lon="5.63719">
        <ele>488.361171</ele>
        <time>2023-12-12T08:04:03.000Z</time>
      </trkpt>
      <trkpt lat="45.46609" lon="5.63785">
        <ele>488.814209</ele>
        <time>2023-12-12T08:04:11.000Z</time>
      </trkpt>
      <trkpt lat="45.46614" lon="5.63809">
        <ele>489.079814</ele>
        <time>2023-12-12T08:04:14.000Z</time>
      </trkpt>
      <trkpt lat="45.46625" lon="5.63839">
        <ele>489.428557</ele>
        <time>2023-12-12T08:04:18.000Z</time>
      </trkpt>
      <trkpt lat="45.46631" lon="5.63853">
        <ele>489.605488</ele>
        <time>2023-12-12T08:04:20.000Z</time>
      </trkpt>
      <trkpt lat="45.46644" lon="5.6388">
        <ele>489.945668</ele>
        <time>2023-12-12T08:04:24.000Z</time>
      </trkpt>
      <trkpt lat="45.46663" lon="5.6392">
        <ele>490.448988</ele>
        <time>2023-12-12T08:04:30.000Z</time>
      </trkpt>
      <trkpt lat="45.4668" lon="5.63953">
        <ele>490.871118</ele>
        <time>2023-12-12T08:04:35.000Z</time>
      </trkpt>
      <trkpt lat="45.46697" lon="5.63985">
        <ele>491.290255</ele>
        <time>2023-12-12T08:04:40.000Z</time>
      </trkpt>
      <trkpt lat="45.46704" lon="5.63996">
        <ele>491.764148</ele>
        <time>2023-12-12T08:04:42.000Z</time>
      </trkpt>
      <trkpt lat="45.4672" lon="5.64017">
        <ele>493.006079</ele>
        <time>2023-12-12T08:04:46.000Z</time>
      </trkpt>
      <trkpt lat="45.46727" lon="5.64027">
        <ele>493.588786</ele>
        <time>2023-12-12T08:04:48.000Z</time>
      </trkpt>
      <trkpt lat="45.46734" lon="5.64036">
        <ele>494.148198</ele>
        <time>2023-12-12T08:04:50.000Z</time>
      </trkpt>
      <trkpt lat="45.46749" lon="5.64054">
        <ele>495.238998</ele>
        <time>2023-12-12T08:04:54.000Z</time>
      </trkpt>
      <trkpt lat="45.46765" lon="5.64077">
        <ele>496.572898</ele>
        <time>2023-12-12T08:04:59.000Z</time>
      </trkpt>
      <trkpt lat="45.46769" lon="5.64081">
        <ele>496.840532</ele>
        <time>2023-12-12T08:05:00.000Z</time>
      </trkpt>
      <trkpt lat="45.46775" lon="5.64091">
        <ele>497.373025</ele>
        <time>2023-12-12T08:05:02.000Z</time>
      </trkpt>
      <trkpt lat="45.46785" lon="5.64104">
        <ele>498.159481</ele>
        <time>2023-12-12T08:05:05.000Z</time>
      </trkpt>
      <trkpt lat="45.46794" lon="5.64118">
        <ele>498.930932</ele>
        <time>2023-12-12T08:05:08.000Z</time>
      </trkpt>
      <trkpt lat="45.46807" lon="5.64137">
        <ele>499.963417</ele>
        <time>2023-12-12T08:05:12.000Z</time>
      </trkpt>
      <trkpt lat="45.46816" lon="5.6415">
        <ele>500.745418</ele>
        <time>2023-12-12T08:05:15.000Z</time>
      </trkpt>
      <trkpt lat="45.46826" lon="5.64164">
        <ele>501.522064</ele>
        <time>2023-12-12T08:05:18.000Z</time>
      </trkpt>
      <trkpt lat="45.46835" lon="5.64176">
        <ele>502.182453</ele>
        <time>2023-12-12T08:05:21.000Z</time>
      </trkpt>
      <trkpt lat="45.46845" lon="5.64193">
        <ele>503.004216</ele>
        <time>2023-12-12T08:05:25.000Z</time>
      </trkpt>
      <trkpt lat="45.46847" lon="5.64197">
        <ele>503.178631</ele>
        <time>2023-12-12T08:05:26.000Z</time>
      </trkpt>
      <trkpt lat="45.46849" lon="5.64201">
        <ele>503.349857</ele>
        <time>2023-12-12T08:05:27.000Z</time>
      </trkpt>
      <trkpt lat="45.46853" lon="5.64208">
        <ele>503.651099</ele>
        <time>2023-12-12T08:05:30.000Z</time>
      </trkpt>
      <trkpt lat="45.46853" lon="5.64208">
        <ele>503.659956</ele>
        <time>2023-12-12T08:05:31.000Z</time>
      </trkpt>
      <trkpt lat="45.46853" lon="5.64208">
        <ele>503.674881</ele>
        <time>2023-12-12T08:05:42.000Z</time>
      </trkpt>
      <trkpt lat="45.46853" lon="5.64208">
        <ele>503.674881</ele>
        <time>2023-12-12T08:05:48.000Z</time>
      </trkpt>
      <trkpt lat="45.46853" lon="5.64208">
        <ele>503.680022</ele>
        <time>2023-12-12T08:05:53.000Z</time>
      </trkpt>
      <trkpt lat="45.46853" lon="5.64208">
        <ele>503.680022</ele>
        <time>2023-12-12T08:06:08.000Z</time>
      </trkpt>
      <trkpt lat="45.46853" lon="5.64208">
        <ele>503.691999</ele>
        <time>2023-12-12T08:06:17.000Z</time>
      </trkpt>
      <trkpt lat="45.46853" lon="5.64209">
        <ele>503.703976</ele>
        <time>2023-12-12T08:06:21.000Z</time>
      </trkpt>
      <trkpt lat="45.46853" lon="5.64209">
        <ele>503.703976</ele>
        <time>2023-12-12T08:06:22.000Z</time>
      </trkpt>
      <trkpt lat="45.46853" lon="5.64209">
        <ele>503.707582</ele>
        <time>2023-12-12T08:06:26.000Z</time>
      </trkpt>
      <trkpt lat="45.46853" lon="5.64209">
        <ele>503.707582</ele>
        <time>2023-12-12T08:06:31.000Z</time>
      </trkpt>
      <trkpt lat="45.46853" lon="5.64209">
        <ele>503.713862</ele>
        <time>2023-12-12T08:06:42.000Z</time>
      </trkpt>
      <trkpt lat="45.46853" lon="5.64209">
        <ele>503.717468</ele>
        <time>2023-12-12T08:06:47.000Z</time>
      </trkpt>
      <trkpt lat="45.46853" lon="5.64209">
        <ele>503.722609</ele>
        <time>2023-12-12T08:06:49.000Z</time>
      </trkpt>
      <trkpt lat="45.46858" lon="5.64215">
        <ele>504.060486</ele>
        <time>2023-12-12T08:07:10.000Z</time>
      </trkpt>
      <trkpt lat="45.46862" lon="5.64223">
        <ele>504.417809</ele>
        <time>2023-12-12T08:07:12.000Z</time>
      </trkpt>
      <trkpt lat="45.46867" lon="5.64232">
        <ele>504.828993</ele>
        <time>2023-12-12T08:07:14.000Z</time>
      </trkpt>
      <trkpt lat="45.46875" lon="5.64246">
        <ele>505.474114</ele>
        <time>2023-12-12T08:07:17.000Z</time>
      </trkpt>
      <trkpt lat="45.46878" lon="5.6425">
        <ele>505.684926</ele>
        <time>2023-12-12T08:07:18.000Z</time>
      </trkpt>
      <trkpt lat="45.46884" lon="5.64259">
        <ele>506.130276</ele>
        <time>2023-12-12T08:07:20.000Z</time>
      </trkpt>
      <trkpt lat="45.46895" lon="5.64278">
        <ele>507.019725</ele>
        <time>2023-12-12T08:07:24.000Z</time>
      </trkpt>
      <trkpt lat="45.469" lon="5.64287">
        <ele>507.45967</ele>
        <time>2023-12-12T08:07:26.000Z</time>
      </trkpt>
      <trkpt lat="45.46903" lon="5.64292">
        <ele>507.675961</ele>
        <time>2023-12-12T08:07:27.000Z</time>
      </trkpt>
      <trkpt lat="45.46922" lon="5.64325">
        <ele>509.213427</ele>
        <time>2023-12-12T08:07:34.000Z</time>
      </trkpt>
      <trkpt lat="45.4693" lon="5.64354">
        <ele>510.317508</ele>
        <time>2023-12-12T08:07:39.000Z</time>
      </trkpt>
      <trkpt lat="45.46931" lon="5.64359">
        <ele>510.537634</ele>
        <time>2023-12-12T08:07:40.000Z</time>
      </trkpt>
      <trkpt lat="45.46932" lon="5.64371">
        <ele>510.96868</ele>
        <time>2023-12-12T08:07:42.000Z</time>
      </trkpt>
      <trkpt lat="45.46933" lon="5.64389">
        <ele>511.669398</ele>
        <time>2023-12-12T08:07:45.000Z</time>
      </trkpt>
      <trkpt lat="45.46934" lon="5.64394">
        <ele>511.90089</ele>
        <time>2023-12-12T08:07:46.000Z</time>
      </trkpt>
      <trkpt lat="45.46935" lon="5.64418">
        <ele>512.868125</ele>
        <time>2023-12-12T08:07:50.000Z</time>
      </trkpt>
      <trkpt lat="45.46938" lon="5.64443">
        <ele>513.872099</ele>
        <time>2023-12-12T08:07:54.000Z</time>
      </trkpt>
      <trkpt lat="45.46938" lon="5.64456">
        <ele>514.380767</ele>
        <time>2023-12-12T08:07:56.000Z</time>
      </trkpt>
      <trkpt lat="45.4694" lon="5.64475">
        <ele>515.141366</ele>
        <time>2023-12-12T08:07:59.000Z</time>
      </trkpt>
      <trkpt lat="45.46942" lon="5.645">
        <ele>516.153308</ele>
        <time>2023-12-12T08:08:03.000Z</time>
      </trkpt>
      <trkpt lat="45.46945" lon="5.6453">
        <ele>517.377346</ele>
        <time>2023-12-12T08:08:08.000Z</time>
      </trkpt>
      <trkpt lat="45.46948" lon="5.64567">
        <ele>518.872086</ele>
        <time>2023-12-12T08:08:14.000Z</time>
      </trkpt>
      <trkpt lat="45.46949" lon="5.64585">
        <ele>519.624035</ele>
        <time>2023-12-12T08:08:17.000Z</time>
      </trkpt>
      <trkpt lat="45.46951" lon="5.64598">
        <ele>520.130005</ele>
        <time>2023-12-12T08:08:19.000Z</time>
      </trkpt>
      <trkpt lat="45.46951" lon="5.64604">
        <ele>520.385352</ele>
        <time>2023-12-12T08:08:20.000Z</time>
      </trkpt>
      <trkpt lat="45.46951" lon="5.64611">
        <ele>520.642967</ele>
        <time>2023-12-12T08:08:21.000Z</time>
      </trkpt>
      <trkpt lat="45.46952" lon="5.64617">
        <ele>520.901026</ele>
        <time>2023-12-12T08:08:22.000Z</time>
      </trkpt>
      <trkpt lat="45.46953" lon="5.6463">
        <ele>521.388921</ele>
        <time>2023-12-12T08:08:24.000Z</time>
      </trkpt>
      <trkpt lat="45.46954" lon="5.64636">
        <ele>521.601572</ele>
        <time>2023-12-12T08:08:25.000Z</time>
      </trkpt>
      <trkpt lat="45.46957" lon="5.64655">
        <ele>522.226619</ele>
        <time>2023-12-12T08:08:28.000Z</time>
      </trkpt>
      <trkpt lat="45.46959" lon="5.64661">
        <ele>522.428095</ele>
        <time>2023-12-12T08:08:29.000Z</time>
      </trkpt>
      <trkpt lat="45.4696" lon="5.64666">
        <ele>522.632548</ele>
        <time>2023-12-12T08:08:30.000Z</time>
      </trkpt>
      <trkpt lat="45.46967" lon="5.6469">
        <ele>523.445165</ele>
        <time>2023-12-12T08:08:34.000Z</time>
      </trkpt>
      <trkpt lat="45.46975" lon="5.64718">
        <ele>524.451822</ele>
        <time>2023-12-12T08:08:39.000Z</time>
      </trkpt>
      <trkpt lat="45.46985" lon="5.64739">
        <ele>525.247736</ele>
        <time>2023-12-12T08:08:43.000Z</time>
      </trkpt>
      <trkpt lat="45.46994" lon="5.64752">
        <ele>525.858662</ele>
        <time>2023-12-12T08:08:46.000Z</time>
      </trkpt>
      <trkpt lat="45.47005" lon="5.64763">
        <ele>526.471565</ele>
        <time>2023-12-12T08:08:49.000Z</time>
      </trkpt>
      <trkpt lat="45.47017" lon="5.64771">
        <ele>527.12478</ele>
        <time>2023-12-12T08:08:52.000Z</time>
      </trkpt>
      <trkpt lat="45.47035" lon="5.64781">
        <ele>528.00377</ele>
        <time>2023-12-12T08:08:56.000Z</time>
      </trkpt>
      <trkpt lat="45.47062" lon="5.64797">
        <ele>529.364504</ele>
        <time>2023-12-12T08:09:02.000Z</time>
      </trkpt>
      <trkpt lat="45.47071" lon="5.64802">
        <ele>529.75786</ele>
        <time>2023-12-12T08:09:04.000Z</time>
      </trkpt>
      <trkpt lat="45.47076" lon="5.64805">
        <ele>529.918851</ele>
        <time>2023-12-12T08:09:05.000Z</time>
      </trkpt>
      <trkpt lat="45.47104" lon="5.64831">
        <ele>530.992207</ele>
        <time>2023-12-12T08:09:12.000Z</time>
      </trkpt>
      <trkpt lat="45.47107" lon="5.64836">
        <ele>531.145754</ele>
        <time>2023-12-12T08:09:13.000Z</time>
      </trkpt>
      <trkpt lat="45.47119" lon="5.64857">
        <ele>531.760423</ele>
        <time>2023-12-12T08:09:17.000Z</time>
      </trkpt>
      <trkpt lat="45.47121" lon="5.64863">
        <ele>531.91393</ele>
        <time>2023-12-12T08:09:18.000Z</time>
      </trkpt>
      <trkpt lat="45.47124" lon="5.64869">
        <ele>532.071787</ele>
        <time>2023-12-12T08:09:19.000Z</time>
      </trkpt>
      <trkpt lat="45.47125" lon="5.64876">
        <ele>532.224704</ele>
        <time>2023-12-12T08:09:20.000Z</time>
      </trkpt>
      <trkpt lat="45.47127" lon="5.64889">
        <ele>532.533721</ele>
        <time>2023-12-12T08:09:22.000Z</time>
      </trkpt>
      <trkpt lat="45.47128" lon="5.64903">
        <ele>532.848538</ele>
        <time>2023-12-12T08:09:24.000Z</time>
      </trkpt>
      <trkpt lat="45.47127" lon="5.64946">
        <ele>533.818012</ele>
        <time>2023-12-12T08:09:30.000Z</time>
      </trkpt>
      <trkpt lat="45.47125" lon="5.64953">
        <ele>533.974467</ele>
        <time>2023-12-12T08:09:31.000Z</time>
      </trkpt>
      <trkpt lat="45.47124" lon="5.6496">
        <ele>534.136127</ele>
        <time>2023-12-12T08:09:32.000Z</time>
      </trkpt>
      <trkpt lat="45.47117" lon="5.65">
        <ele>535.080812</ele>
        <time>2023-12-12T08:09:38.000Z</time>
      </trkpt>
      <trkpt lat="45.47116" lon="5.65026">
        <ele>535.615167</ele>
        <time>2023-12-12T08:09:42.000Z</time>
      </trkpt>
      <trkpt lat="45.47115" lon="5.65033">
        <ele>535.737987</ele>
        <time>2023-12-12T08:09:43.000Z</time>
      </trkpt>
      <trkpt lat="45.4712" lon="5.65073">
        <ele>536.469251</ele>
        <time>2023-12-12T08:09:49.000Z</time>
      </trkpt>
      <trkpt lat="45.47126" lon="5.65092">
        <ele>536.853135</ele>
        <time>2023-12-12T08:09:52.000Z</time>
      </trkpt>
      <trkpt lat="45.47138" lon="5.65124">
        <ele>537.506579</ele>
        <time>2023-12-12T08:09:57.000Z</time>
      </trkpt>
      <trkpt lat="45.47151" lon="5.65159">
        <ele>538.24005</ele>
        <time>2023-12-12T08:10:03.000Z</time>
      </trkpt>
      <trkpt lat="45.47159" lon="5.65178">
        <ele>538.644176</ele>
        <time>2023-12-12T08:10:07.000Z</time>
      </trkpt>
      <trkpt lat="45.47161" lon="5.65183">
        <ele>538.754606</ele>
        <time>2023-12-12T08:10:09.000Z</time>
      </trkpt>
      <trkpt lat="45.47163" lon="5.65187">
        <ele>538.829857</ele>
        <time>2023-12-12T08:10:11.000Z</time>
      </trkpt>
      <trkpt lat="45.47164" lon="5.6519">
        <ele>538.887523</ele>
        <time>2023-12-12T08:10:16.000Z</time>
      </trkpt>
      <trkpt lat="45.47164" lon="5.6519">
        <ele>538.889341</ele>
        <time>2023-12-12T08:10:31.000Z</time>
      </trkpt>
      <trkpt lat="45.47164" lon="5.6519">
        <ele>538.889341</ele>
        <time>2023-12-12T08:10:35.000Z</time>
      </trkpt>
      <trkpt lat="45.47164" lon="5.6519">
        <ele>538.889341</ele>
        <time>2023-12-12T08:10:37.000Z</time>
      </trkpt>
      <trkpt lat="45.47164" lon="5.6519">
        <ele>538.889341</ele>
        <time>2023-12-12T08:10:40.000Z</time>
      </trkpt>
      <trkpt lat="45.4717" lon="5.65195">
        <ele>539.079987</ele>
        <time>2023-12-12T08:10:50.000Z</time>
      </trkpt>
      <trkpt lat="45.47195" lon="5.65207">
        <ele>539.768887</ele>
        <time>2023-12-12T08:10:56.000Z</time>
      </trkpt>
      <trkpt lat="45.47215" lon="5.6521">
        <ele>540.222033</ele>
        <time>2023-12-12T08:11:01.000Z</time>
      </trkpt>
      <trkpt lat="45.47228" lon="5.65211">
        <ele>540.441286</ele>
        <time>2023-12-12T08:11:04.000Z</time>
      </trkpt>
      <trkpt lat="45.47248" lon="5.65215">
        <ele>540.817585</ele>
        <time>2023-12-12T08:11:09.000Z</time>
      </trkpt>
      <trkpt lat="45.47262" lon="5.65219">
        <ele>541.058536</ele>
        <time>2023-12-12T08:11:12.000Z</time>
      </trkpt>
      <trkpt lat="45.47283" lon="5.65231">
        <ele>541.473247</ele>
        <time>2023-12-12T08:11:17.000Z</time>
      </trkpt>
      <trkpt lat="45.47288" lon="5.65235">
        <ele>541.570504</ele>
        <time>2023-12-12T08:11:18.000Z</time>
      </trkpt>
      <trkpt lat="45.47292" lon="5.65239">
        <ele>541.653001</ele>
        <time>2023-12-12T08:11:19.000Z</time>
      </trkpt>
      <trkpt lat="45.47328" lon="5.6528">
        <ele>542.481382</ele>
        <time>2023-12-12T08:11:29.000Z</time>
      </trkpt>
      <trkpt lat="45.47331" lon="5.65283">
        <ele>542.552273</ele>
        <time>2023-12-12T08:11:30.000Z</time>
      </trkpt>
      <trkpt lat="45.47336" lon="5.65288">
        <ele>542.658954</ele>
        <time>2023-12-12T08:11:31.000Z</time>
      </trkpt>
      <trkpt lat="45.47357" lon="5.65306">
        <ele>543.105685</ele>
        <time>2023-12-12T08:11:36.000Z</time>
      </trkpt>
      <trkpt lat="45.47383" lon="5.6532">
        <ele>544.104827</ele>
        <time>2023-12-12T08:11:42.000Z</time>
      </trkpt>
      <trkpt lat="45.47385" lon="5.65322">
        <ele>544.256621</ele>
        <time>2023-12-12T08:11:43.000Z</time>
      </trkpt>
      <trkpt lat="45.47387" lon="5.65325">
        <ele>544.386961</ele>
        <time>2023-12-12T08:11:44.000Z</time>
      </trkpt>
      <trkpt lat="45.47388" lon="5.65328">
        <ele>544.512956</ele>
        <time>2023-12-12T08:11:45.000Z</time>
      </trkpt>
      <trkpt lat="45.4738" lon="5.65343">
        <ele>545.150117</ele>
        <time>2023-12-12T08:11:49.000Z</time>
      </trkpt>
      <trkpt lat="45.47364" lon="5.65373">
        <ele>546.390404</ele>
        <time>2023-12-12T08:11:55.000Z</time>
      </trkpt>
      <trkpt lat="45.47353" lon="5.65392">
        <ele>547.230048</ele>
        <time>2023-12-12T08:11:59.000Z</time>
      </trkpt>
      <trkpt lat="45.4735" lon="5.65396">
        <ele>547.425562</ele>
        <time>2023-12-12T08:12:00.000Z</time>
      </trkpt>
      <trkpt lat="45.47346" lon="5.65398">
        <ele>547.60617</ele>
        <time>2023-12-12T08:12:01.000Z</time>
      </trkpt>
      <trkpt lat="45.47333" lon="5.65405">
        <ele>548.302414</ele>
        <time>2023-12-12T08:12:05.000Z</time>
      </trkpt>
      <trkpt lat="45.4733" lon="5.65407">
        <ele>548.468601</ele>
        <time>2023-12-12T08:12:06.000Z</time>
      </trkpt>
      <trkpt lat="45.47327" lon="5.6541">
        <ele>548.635364</ele>
        <time>2023-12-12T08:12:07.000Z</time>
      </trkpt>
      <trkpt lat="45.47324" lon="5.65412">
        <ele>548.813813</ele>
        <time>2023-12-12T08:12:08.000Z</time>
      </trkpt>
      <trkpt lat="45.47317" lon="5.65417">
        <ele>549.15505</ele>
        <time>2023-12-12T08:12:10.000Z</time>
      </trkpt>
      <trkpt lat="45.47308" lon="5.65424">
        <ele>549.659309</ele>
        <time>2023-12-12T08:12:13.000Z</time>
      </trkpt>
      <trkpt lat="45.47297" lon="5.65427">
        <ele>550.187726</ele>
        <time>2023-12-12T08:12:16.000Z</time>
      </trkpt>
      <trkpt lat="45.4729" lon="5.65428">
        <ele>550.535633</ele>
        <time>2023-12-12T08:12:18.000Z</time>
      </trkpt>
      <trkpt lat="45.47283" lon="5.6543">
        <ele>550.880618</ele>
        <time>2023-12-12T08:12:20.000Z</time>
      </trkpt>
      <trkpt lat="45.47273" lon="5.65434">
        <ele>551.373718</ele>
        <time>2023-12-12T08:12:23.000Z</time>
      </trkpt>
      <trkpt lat="45.4727" lon="5.65437">
        <ele>551.534111</ele>
        <time>2023-12-12T08:12:24.000Z</time>
      </trkpt>
      <trkpt lat="45.47261" lon="5.65445">
        <ele>551.999873</ele>
        <time>2023-12-12T08:12:27.000Z</time>
      </trkpt>
      <trkpt lat="45.47245" lon="5.65459">
        <ele>552.585831</ele>
        <time>2023-12-12T08:12:32.000Z</time>
      </trkpt>
      <trkpt lat="45.47234" lon="5.65474">
        <ele>553.068453</ele>
        <time>2023-12-12T08:12:36.000Z</time>
      </trkpt>
      <trkpt lat="45.47231" lon="5.65483">
        <ele>553.28964</ele>
        <time>2023-12-12T08:12:38.000Z</time>
      </trkpt>
      <trkpt lat="45.47231" lon="5.65488">
        <ele>553.405822</ele>
        <time>2023-12-12T08:12:39.000Z</time>
      </trkpt>
      <trkpt lat="45.47232" lon="5.6551">
        <ele>553.86975</ele>
        <time>2023-12-12T08:12:43.000Z</time>
      </trkpt>
      <trkpt lat="45.47234" lon="5.6552">
        <ele>554.10431</ele>
        <time>2023-12-12T08:12:45.000Z</time>
      </trkpt>
      <trkpt lat="45.47234" lon="5.6553">
        <ele>554.31903</ele>
        <time>2023-12-12T08:12:47.000Z</time>
      </trkpt>
      <trkpt lat="45.47231" lon="5.65538">
        <ele>554.523287</ele>
        <time>2023-12-12T08:12:49.000Z</time>
      </trkpt>
      <trkpt lat="45.47213" lon="5.65568">
        <ele>555.383842</ele>
        <time>2023-12-12T08:12:56.000Z</time>
      </trkpt>
      <trkpt lat="45.47205" lon="5.65575">
        <ele>555.666553</ele>
        <time>2023-12-12T08:12:58.000Z</time>
      </trkpt>
      <trkpt lat="45.47193" lon="5.6558">
        <ele>556.067638</ele>
        <time>2023-12-12T08:13:01.000Z</time>
      </trkpt>
      <trkpt lat="45.47185" lon="5.6558">
        <ele>556.326756</ele>
        <time>2023-12-12T08:13:03.000Z</time>
      </trkpt>
      <trkpt lat="45.47177" lon="5.65578">
        <ele>556.574531</ele>
        <time>2023-12-12T08:13:05.000Z</time>
      </trkpt>
      <trkpt lat="45.47148" lon="5.65572">
        <ele>557.493286</ele>
        <time>2023-12-12T08:13:12.000Z</time>
      </trkpt>
      <trkpt lat="45.47139" lon="5.65572">
        <ele>557.821509</ele>
        <time>2023-12-12T08:13:14.000Z</time>
      </trkpt>
      <trkpt lat="45.47132" lon="5.6557">
        <ele>558.124056</ele>
        <time>2023-12-12T08:13:16.000Z</time>
      </trkpt>
      <trkpt lat="45.47119" lon="5.65568">
        <ele>558.636605</ele>
        <time>2023-12-12T08:13:20.000Z</time>
      </trkpt>
      <trkpt lat="45.47116" lon="5.65567">
        <ele>558.746234</ele>
        <time>2023-12-12T08:13:21.000Z</time>
      </trkpt>
      <trkpt lat="45.47102" lon="5.65564">
        <ele>559.337316</ele>
        <time>2023-12-12T08:13:26.000Z</time>
      </trkpt>
      <trkpt lat="45.47096" lon="5.65563">
        <ele>559.558812</ele>
        <time>2023-12-12T08:13:28.000Z</time>
      </trkpt>
      <trkpt lat="45.47093" lon="5.65563">
        <ele>559.678952</ele>
        <time>2023-12-12T08:13:29.000Z</time>
      </trkpt>
      <trkpt lat="45.47085" lon="5.65562">
        <ele>560.020773</ele>
        <time>2023-12-12T08:13:32.000Z</time>
      </trkpt>
      <trkpt lat="45.47072" lon="5.6556">
        <ele>560.543426</ele>
        <time>2023-12-12T08:13:37.000Z</time>
      </trkpt>
      <trkpt lat="45.47065" lon="5.65561">
        <ele>560.81285</ele>
        <time>2023-12-12T08:13:40.000Z</time>
      </trkpt>
      <trkpt lat="45.47058" lon="5.65574">
        <ele>561.276929</ele>
        <time>2023-12-12T08:13:45.000Z</time>
      </trkpt>
      <trkpt lat="45.47055" lon="5.656">
        <ele>562.019211</ele>
        <time>2023-12-12T08:13:51.000Z</time>
      </trkpt>
      <trkpt lat="45.47051" lon="5.65625">
        <ele>562.731885</ele>
        <time>2023-12-12T08:13:55.000Z</time>
      </trkpt>
      <trkpt lat="45.4705" lon="5.65633">
        <ele>562.963878</ele>
        <time>2023-12-12T08:13:56.000Z</time>
      </trkpt>
      <trkpt lat="45.47048" lon="5.65641">
        <ele>563.208477</ele>
        <time>2023-12-12T08:13:57.000Z</time>
      </trkpt>
      <trkpt lat="45.47043" lon="5.65663">
        <ele>563.85162</ele>
        <time>2023-12-12T08:14:00.000Z</time>
      </trkpt>
      <trkpt lat="45.47042" lon="5.65669">
        <ele>564.016877</ele>
        <time>2023-12-12T08:14:01.000Z</time>
      </trkpt>
      <trkpt lat="45.47037" lon="5.65693">
        <ele>564.76756</ele>
        <time>2023-12-12T08:14:07.000Z</time>
      </trkpt>
      <trkpt lat="45.47036" lon="5.65696">
        <ele>564.956114</ele>
        <time>2023-12-12T08:14:08.000Z</time>
      </trkpt>
      <trkpt lat="45.47035" lon="5.65706">
        <ele>565.623675</ele>
        <time>2023-12-12T08:14:12.000Z</time>
      </trkpt>
      <trkpt lat="45.47033" lon="5.65712">
        <ele>566.075074</ele>
        <time>2023-12-12T08:14:15.000Z</time>
      </trkpt>
      <trkpt lat="45.47032" lon="5.65714">
        <ele>566.207359</ele>
        <time>2023-12-12T08:14:16.000Z</time>
      </trkpt>
      <trkpt lat="45.47031" lon="5.65722">
        <ele>566.820583</ele>
        <time>2023-12-12T08:14:20.000Z</time>
      </trkpt>
      <trkpt lat="45.47029" lon="5.65729">
        <ele>567.305575</ele>
        <time>2023-12-12T08:14:23.000Z</time>
      </trkpt>
      <trkpt lat="45.47026" lon="5.65735">
        <ele>567.788326</ele>
        <time>2023-12-12T08:14:26.000Z</time>
      </trkpt>
      <trkpt lat="45.47025" lon="5.65738">
        <ele>568.013601</ele>
        <time>2023-12-12T08:14:28.000Z</time>
      </trkpt>
      <trkpt lat="45.47025" lon="5.65742">
        <ele>568.286909</ele>
        <time>2023-12-12T08:14:30.000Z</time>
      </trkpt>
      <trkpt lat="45.47026" lon="5.65746">
        <ele>568.58698</ele>
        <time>2023-12-12T08:14:32.000Z</time>
      </trkpt>
      <trkpt lat="45.47028" lon="5.65748">
        <ele>568.831797</ele>
        <time>2023-12-12T08:14:34.000Z</time>
      </trkpt>
      <trkpt lat="45.47029" lon="5.65749">
        <ele>568.955694</ele>
        <time>2023-12-12T08:14:36.000Z</time>
      </trkpt>
      <trkpt lat="45.47029" lon="5.65749">
        <ele>568.955694</ele>
        <time>2023-12-12T08:14:39.000Z</time>
      </trkpt>
      <trkpt lat="45.4703" lon="5.6575">
        <ele>569.076004</ele>
        <time>2023-12-12T08:14:46.000Z</time>
      </trkpt>
      <trkpt lat="45.4703" lon="5.6575">
        <ele>569.096653</ele>
        <time>2023-12-12T08:14:47.000Z</time>
      </trkpt>
      <trkpt lat="45.47032" lon="5.6575">
        <ele>569.254922</ele>
        <time>2023-12-12T08:14:52.000Z</time>
      </trkpt>
      <trkpt lat="45.47036" lon="5.65751">
        <ele>569.675269</ele>
        <time>2023-12-12T08:14:58.000Z</time>
      </trkpt>
      <trkpt lat="45.47037" lon="5.65752">
        <ele>569.77047</ele>
        <time>2023-12-12T08:14:59.000Z</time>
      </trkpt>
      <trkpt lat="45.4704" lon="5.65756">
        <ele>570.199929</ele>
        <time>2023-12-12T08:15:04.000Z</time>
      </trkpt>
      <trkpt lat="45.47041" lon="5.65759">
        <ele>570.426887</ele>
        <time>2023-12-12T08:15:07.000Z</time>
      </trkpt>
      <trkpt lat="45.47042" lon="5.6576">
        <ele>570.520397</ele>
        <time>2023-12-12T08:15:08.000Z</time>
      </trkpt>
      <trkpt lat="45.47042" lon="5.65761">
        <ele>570.609754</ele>
        <time>2023-12-12T08:15:09.000Z</time>
      </trkpt>
      <trkpt lat="45.47043" lon="5.65765">
        <ele>570.887075</ele>
        <time>2023-12-12T08:15:12.000Z</time>
      </trkpt>
      <trkpt lat="45.47045" lon="5.65772">
        <ele>571.419879</ele>
        <time>2023-12-12T08:15:17.000Z</time>
      </trkpt>
      <trkpt lat="45.47045" lon="5.65773">
        <ele>571.46484</ele>
        <time>2023-12-12T08:15:19.000Z</time>
      </trkpt>
      <trkpt lat="45.47046" lon="5.65782">
        <ele>572.133384</ele>
        <time>2023-12-12T08:15:26.000Z</time>
      </trkpt>
      <trkpt lat="45.47046" lon="5.65784">
        <ele>572.266454</ele>
        <time>2023-12-12T08:15:27.000Z</time>
      </trkpt>
      <trkpt lat="45.47048" lon="5.65797">
        <ele>573.153729</ele>
        <time>2023-12-12T08:15:33.000Z</time>
      </trkpt>
      <trkpt lat="45.47049" lon="5.65799">
        <ele>573.320297</ele>
        <time>2023-12-12T08:15:34.000Z</time>
      </trkpt>
      <trkpt lat="45.47051" lon="5.65808">
        <ele>573.96838</ele>
        <time>2023-12-12T08:15:38.000Z</time>
      </trkpt>
      <trkpt lat="45.47057" lon="5.65823">
        <ele>575.142348</ele>
        <time>2023-12-12T08:15:44.000Z</time>
      </trkpt>
      <trkpt lat="45.47062" lon="5.65833">
        <ele>575.998798</ele>
        <time>2023-12-12T08:15:48.000Z</time>
      </trkpt>
      <trkpt lat="45.47074" lon="5.65859">
        <ele>578.110688</ele>
        <time>2023-12-12T08:15:57.000Z</time>
      </trkpt>
      <trkpt lat="45.47077" lon="5.6587">
        <ele>578.892716</ele>
        <time>2023-12-12T08:16:00.000Z</time>
      </trkpt>
      <trkpt lat="45.4708" lon="5.65877">
        <ele>579.418972</ele>
        <time>2023-12-12T08:16:02.000Z</time>
      </trkpt>
      <trkpt lat="45.47093" lon="5.65906">
        <ele>581.835985</ele>
        <time>2023-12-12T08:16:11.000Z</time>
      </trkpt>
      <trkpt lat="45.47095" lon="5.65909">
        <ele>582.116249</ele>
        <time>2023-12-12T08:16:12.000Z</time>
      </trkpt>
      <trkpt lat="45.47103" lon="5.65931">
        <ele>582.162595</ele>
        <time>2023-12-12T08:16:18.000Z</time>
      </trkpt>
      <trkpt lat="45.47124" lon="5.65971">
        <ele>581.984983</ele>
        <time>2023-12-12T08:16:30.000Z</time>
      </trkpt>
      <trkpt lat="45.47136" lon="5.65986">
        <ele>581.9037</ele>
        <time>2023-12-12T08:16:35.000Z</time>
      </trkpt>
      <trkpt lat="45.47148" lon="5.65996">
        <ele>581.832671</ele>
        <time>2023-12-12T08:16:39.000Z</time>
      </trkpt>
      <trkpt lat="45.47171" lon="5.66004">
        <ele>581.715065</ele>
        <time>2023-12-12T08:16:45.000Z</time>
      </trkpt>
      <trkpt lat="45.47199" lon="5.66013">
        <ele>581.567495</ele>
        <time>2023-12-12T08:16:52.000Z</time>
      </trkpt>
      <trkpt lat="45.47203" lon="5.66016">
        <ele>581.545209</ele>
        <time>2023-12-12T08:16:53.000Z</time>
      </trkpt>
      <trkpt lat="45.47218" lon="5.66033">
        <ele>581.44819</ele>
        <time>2023-12-12T08:16:58.000Z</time>
      </trkpt>
      <trkpt lat="45.47228" lon="5.66042">
        <ele>581.388734</ele>
        <time>2023-12-12T08:17:02.000Z</time>
      </trkpt>
      <trkpt lat="45.47231" lon="5.66041">
        <ele>581.37547</ele>
        <time>2023-12-12T08:17:03.000Z</time>
      </trkpt>
      <trkpt lat="45.47233" lon="5.66038">
        <ele>581.360146</ele>
        <time>2023-12-12T08:17:04.000Z</time>
      </trkpt>
      <trkpt lat="45.47239" lon="5.66023">
        <ele>581.132093</ele>
        <time>2023-12-12T08:17:07.000Z</time>
      </trkpt>
      <trkpt lat="45.47241" lon="5.66018">
        <ele>580.986322</ele>
        <time>2023-12-12T08:17:08.000Z</time>
      </trkpt>
      <trkpt lat="45.4725" lon="5.65992">
        <ele>580.305396</ele>
        <time>2023-12-12T08:17:13.000Z</time>
      </trkpt>
      <trkpt lat="45.47253" lon="5.65987">
        <ele>580.151815</ele>
        <time>2023-12-12T08:17:14.000Z</time>
      </trkpt>
      <trkpt lat="45.47259" lon="5.65976">
        <ele>579.825648</ele>
        <time>2023-12-12T08:17:16.000Z</time>
      </trkpt>
      <trkpt lat="45.47262" lon="5.6597">
        <ele>579.657333</ele>
        <time>2023-12-12T08:17:17.000Z</time>
      </trkpt>
      <trkpt lat="45.4727" lon="5.65963">
        <ele>579.329851</ele>
        <time>2023-12-12T08:17:19.000Z</time>
      </trkpt>
      <trkpt lat="45.47275" lon="5.65962">
        <ele>579.163723</ele>
        <time>2023-12-12T08:17:20.000Z</time>
      </trkpt>
      <trkpt lat="45.4728" lon="5.65962">
        <ele>578.996635</ele>
        <time>2023-12-12T08:17:21.000Z</time>
      </trkpt>
      <trkpt lat="45.47291" lon="5.65963">
        <ele>578.65182</ele>
        <time>2023-12-12T08:17:23.000Z</time>
      </trkpt>
      <trkpt lat="45.47306" lon="5.65965">
        <ele>578.134174</ele>
        <time>2023-12-12T08:17:26.000Z</time>
      </trkpt>
      <trkpt lat="45.47328" lon="5.6597">
        <ele>577.402975</ele>
        <time>2023-12-12T08:17:30.000Z</time>
      </trkpt>
      <trkpt lat="45.47355" lon="5.65977">
        <ele>576.486413</ele>
        <time>2023-12-12T08:17:35.000Z</time>
      </trkpt>
      <trkpt lat="45.47386" lon="5.65992">
        <ele>575.375756</ele>
        <time>2023-12-12T08:17:41.000Z</time>
      </trkpt>
      <trkpt lat="45.47397" lon="5.65999">
        <ele>575.303725</ele>
        <time>2023-12-12T08:17:43.000Z</time>
      </trkpt>
      <trkpt lat="45.47402" lon="5.66002">
        <ele>575.29429</ele>
        <time>2023-12-12T08:17:44.000Z</time>
      </trkpt>
      <trkpt lat="45.47421" lon="5.66012">
        <ele>575.257747</ele>
        <time>2023-12-12T08:17:48.000Z</time>
      </trkpt>
      <trkpt lat="45.47434" lon="5.66015">
        <ele>575.234534</ele>
        <time>2023-12-12T08:17:51.000Z</time>
      </trkpt>
      <trkpt lat="45.47443" lon="5.66015">
        <ele>575.219658</ele>
        <time>2023-12-12T08:17:53.000Z</time>
      </trkpt>
      <trkpt lat="45.47461" lon="5.66016">
        <ele>575.187807</ele>
        <time>2023-12-12T08:17:57.000Z</time>
      </trkpt>
      <trkpt lat="45.4747" lon="5.66017">
        <ele>575.170499</ele>
        <time>2023-12-12T08:17:59.000Z</time>
      </trkpt>
      <trkpt lat="45.47496" lon="5.66026">
        <ele>575.123875</ele>
        <time>2023-12-12T08:18:04.000Z</time>
      </trkpt>
      <trkpt lat="45.47543" lon="5.66045">
        <ele>575.037529</ele>
        <time>2023-12-12T08:18:13.000Z</time>
      </trkpt>
      <trkpt lat="45.47548" lon="5.66046">
        <ele>575.028488</ele>
        <time>2023-12-12T08:18:14.000Z</time>
      </trkpt>
      <trkpt lat="45.47553" lon="5.66048">
        <ele>575.019938</ele>
        <time>2023-12-12T08:18:15.000Z</time>
      </trkpt>
      <trkpt lat="45.47561" lon="5.66049">
        <ele>575.005134</ele>
        <time>2023-12-12T08:18:17.000Z</time>
      </trkpt>
      <trkpt lat="45.47568" lon="5.66048">
        <ele>574.865589</ele>
        <time>2023-12-12T08:18:19.000Z</time>
      </trkpt>
      <trkpt lat="45.47585" lon="5.6605">
        <ele>574.481947</ele>
        <time>2023-12-12T08:18:24.000Z</time>
      </trkpt>
      <trkpt lat="45.47589" lon="5.66051">
        <ele>574.398235</ele>
        <time>2023-12-12T08:18:25.000Z</time>
      </trkpt>
      <trkpt lat="45.476" lon="5.66051">
        <ele>574.135803</ele>
        <time>2023-12-12T08:18:28.000Z</time>
      </trkpt>
      <trkpt lat="45.47618" lon="5.66049">
        <ele>573.73061</ele>
        <time>2023-12-12T08:18:32.000Z</time>
      </trkpt>
      <trkpt lat="45.47637" lon="5.66043">
        <ele>573.307965</ele>
        <time>2023-12-12T08:18:36.000Z</time>
      </trkpt>
      <trkpt lat="45.47646" lon="5.66039">
        <ele>573.093922</ele>
        <time>2023-12-12T08:18:38.000Z</time>
      </trkpt>
      <trkpt lat="45.4765" lon="5.66037">
        <ele>572.990812</ele>
        <time>2023-12-12T08:18:39.000Z</time>
      </trkpt>
      <trkpt lat="45.47672" lon="5.66032">
        <ele>572.493123</ele>
        <time>2023-12-12T08:18:45.000Z</time>
      </trkpt>
      <trkpt lat="45.47673" lon="5.66032">
        <ele>572.472937</ele>
        <time>2023-12-12T08:18:48.000Z</time>
      </trkpt>
      <trkpt lat="45.47673" lon="5.66032">
        <ele>572.468451</ele>
        <time>2023-12-12T08:18:51.000Z</time>
      </trkpt>
      <trkpt lat="45.47673" lon="5.66032">
        <ele>572.460725</ele>
        <time>2023-12-12T08:19:09.000Z</time>
      </trkpt>
      <trkpt lat="45.47673" lon="5.66032">
        <ele>572.458482</ele>
        <time>2023-12-12T08:19:16.000Z</time>
      </trkpt>
      <trkpt lat="45.47673" lon="5.66032">
        <ele>572.455337</ele>
        <time>2023-12-12T08:19:37.000Z</time>
      </trkpt>
      <trkpt lat="45.47679" lon="5.66033">
        <ele>572.319449</ele>
        <time>2023-12-12T08:19:52.000Z</time>
      </trkpt>
      <trkpt lat="45.47695" lon="5.66036">
        <ele>571.967719</ele>
        <time>2023-12-12T08:19:56.000Z</time>
      </trkpt>
      <trkpt lat="45.47699" lon="5.66038">
        <ele>571.87103</ele>
        <time>2023-12-12T08:19:57.000Z</time>
      </trkpt>
      <trkpt lat="45.47727" lon="5.66049">
        <ele>571.228189</ele>
        <time>2023-12-12T08:20:04.000Z</time>
      </trkpt>
      <trkpt lat="45.47731" lon="5.6605">
        <ele>571.122356</ele>
        <time>2023-12-12T08:20:05.000Z</time>
      </trkpt>
      <trkpt lat="45.4775" lon="5.66058">
        <ele>570.732165</ele>
        <time>2023-12-12T08:20:09.000Z</time>
      </trkpt>
      <trkpt lat="45.47764" lon="5.66066">
        <ele>570.471537</ele>
        <time>2023-12-12T08:20:12.000Z</time>
      </trkpt>
      <trkpt lat="45.47782" lon="5.66076">
        <ele>570.115428</ele>
        <time>2023-12-12T08:20:16.000Z</time>
      </trkpt>
      <trkpt lat="45.47828" lon="5.66098">
        <ele>569.254592</ele>
        <time>2023-12-12T08:20:26.000Z</time>
      </trkpt>
      <trkpt lat="45.47833" lon="5.661">
        <ele>569.168784</ele>
        <time>2023-12-12T08:20:27.000Z</time>
      </trkpt>
      <trkpt lat="45.47851" lon="5.66103">
        <ele>568.834235</ele>
        <time>2023-12-12T08:20:31.000Z</time>
      </trkpt>
      <trkpt lat="45.4786" lon="5.66102">
        <ele>568.675283</ele>
        <time>2023-12-12T08:20:33.000Z</time>
      </trkpt>
      <trkpt lat="45.47877" lon="5.66095">
        <ele>568.354449</ele>
        <time>2023-12-12T08:20:37.000Z</time>
      </trkpt>
      <trkpt lat="45.4789" lon="5.66086">
        <ele>568.100906</ele>
        <time>2023-12-12T08:20:40.000Z</time>
      </trkpt>
      <trkpt lat="45.47919" lon="5.66069">
        <ele>567.855929</ele>
        <time>2023-12-12T08:20:46.000Z</time>
      </trkpt>
      <trkpt lat="45.47934" lon="5.66065">
        <ele>567.998328</ele>
        <time>2023-12-12T08:20:49.000Z</time>
      </trkpt>
      <trkpt lat="45.47938" lon="5.66066">
        <ele>568.041637</ele>
        <time>2023-12-12T08:20:50.000Z</time>
      </trkpt>
      <trkpt lat="45.47982" lon="5.66081">
        <ele>568.469754</ele>
        <time>2023-12-12T08:20:58.000Z</time>
      </trkpt>
      <trkpt lat="45.47989" lon="5.66083">
        <ele>568.535116</ele>
        <time>2023-12-12T08:20:59.000Z</time>
      </trkpt>
      <trkpt lat="45.47995" lon="5.66085">
        <ele>568.594934</ele>
        <time>2023-12-12T08:21:00.000Z</time>
      </trkpt>
      <trkpt lat="45.48006" lon="5.6609">
        <ele>568.699779</ele>
        <time>2023-12-12T08:21:02.000Z</time>
      </trkpt>
      <trkpt lat="45.48012" lon="5.66101">
        <ele>568.788773</ele>
        <time>2023-12-12T08:21:04.000Z</time>
      </trkpt>
      <trkpt lat="45.48013" lon="5.66112">
        <ele>568.86279</ele>
        <time>2023-12-12T08:21:06.000Z</time>
      </trkpt>
      <trkpt lat="45.48012" lon="5.66117">
        <ele>568.89476</ele>
        <time>2023-12-12T08:21:07.000Z</time>
      </trkpt>
      <trkpt lat="45.48012" lon="5.66121">
        <ele>568.921814</ele>
        <time>2023-12-12T08:21:08.000Z</time>
      </trkpt>
      <trkpt lat="45.48008" lon="5.66129">
        <ele>568.985802</ele>
        <time>2023-12-12T08:21:11.000Z</time>
      </trkpt>
      <trkpt lat="45.48006" lon="5.66132">
        <ele>569.010926</ele>
        <time>2023-12-12T08:21:12.000Z</time>
      </trkpt>
      <trkpt lat="45.48001" lon="5.66146">
        <ele>569.115008</ele>
        <time>2023-12-12T08:21:16.000Z</time>
      </trkpt>
      <trkpt lat="45.47999" lon="5.66153">
        <ele>569.166844</ele>
        <time>2023-12-12T08:21:18.000Z</time>
      </trkpt>
      <trkpt lat="45.47996" lon="5.66164">
        <ele>569.247377</ele>
        <time>2023-12-12T08:21:21.000Z</time>
      </trkpt>
      <trkpt lat="45.47992" lon="5.66176">
        <ele>569.33255</ele>
        <time>2023-12-12T08:21:24.000Z</time>
      </trkpt>
      <trkpt lat="45.47989" lon="5.66183">
        <ele>569.389413</ele>
        <time>2023-12-12T08:21:26.000Z</time>
      </trkpt>
      <trkpt lat="45.47987" lon="5.66186">
        <ele>569.41759</ele>
        <time>2023-12-12T08:21:27.000Z</time>
      </trkpt>
      <trkpt lat="45.47979" lon="5.66199">
        <ele>570.000522</ele>
        <time>2023-12-12T08:21:31.000Z</time>
      </trkpt>
      <trkpt lat="45.47968" lon="5.66219">
        <ele>571.039704</ele>
        <time>2023-12-12T08:21:36.000Z</time>
      </trkpt>
      <trkpt lat="45.47965" lon="5.66223">
        <ele>571.246756</ele>
        <time>2023-12-12T08:21:37.000Z</time>
      </trkpt>
      <trkpt lat="45.47948" lon="5.66242">
        <ele>572.53815</ele>
        <time>2023-12-12T08:21:43.000Z</time>
      </trkpt>
      <trkpt lat="45.47922" lon="5.6626">
        <ele>574.245668</ele>
        <time>2023-12-12T08:21:51.000Z</time>
      </trkpt>
      <trkpt lat="45.47909" lon="5.6627">
        <ele>575.058048</ele>
        <time>2023-12-12T08:21:55.000Z</time>
      </trkpt>
      <trkpt lat="45.47895" lon="5.66284">
        <ele>576.086471</ele>
        <time>2023-12-12T08:22:00.000Z</time>
      </trkpt>
      <trkpt lat="45.47892" lon="5.66287">
        <ele>576.290379</ele>
        <time>2023-12-12T08:22:01.000Z</time>
      </trkpt>
      <trkpt lat="45.4788" lon="5.66304">
        <ele>577.30091</ele>
        <time>2023-12-12T08:22:06.000Z</time>
      </trkpt>
      <trkpt lat="45.47877" lon="5.66307">
        <ele>577.508577</ele>
        <time>2023-12-12T08:22:07.000Z</time>
      </trkpt>
      <trkpt lat="45.47874" lon="5.6631">
        <ele>577.716079</ele>
        <time>2023-12-12T08:22:08.000Z</time>
      </trkpt>
      <trkpt lat="45.47871" lon="5.66313">
        <ele>577.921751</ele>
        <time>2023-12-12T08:22:09.000Z</time>
      </trkpt>
      <trkpt lat="45.4786" lon="5.66324">
        <ele>578.720972</ele>
        <time>2023-12-12T08:22:13.000Z</time>
      </trkpt>
      <trkpt lat="45.47851" lon="5.6633">
        <ele>579.301278</ele>
        <time>2023-12-12T08:22:16.000Z</time>
      </trkpt>
      <trkpt lat="45.47834" lon="5.6634">
        <ele>580.185462</ele>
        <time>2023-12-12T08:22:22.000Z</time>
      </trkpt>
      <trkpt lat="45.47825" lon="5.66347">
        <ele>580.46499</ele>
        <time>2023-12-12T08:22:25.000Z</time>
      </trkpt>
      <trkpt lat="45.4782" lon="5.66352">
        <ele>580.649885</ele>
        <time>2023-12-12T08:22:27.000Z</time>
      </trkpt>
      <trkpt lat="45.47802" lon="5.66376">
        <ele>581.326479</ele>
        <time>2023-12-12T08:22:34.000Z</time>
      </trkpt>
      <trkpt lat="45.47801" lon="5.6638">
        <ele>581.422729</ele>
        <time>2023-12-12T08:22:35.000Z</time>
      </trkpt>
      <trkpt lat="45.47797" lon="5.66394">
        <ele>581.721289</ele>
        <time>2023-12-12T08:22:38.000Z</time>
      </trkpt>
      <trkpt lat="45.47797" lon="5.66404">
        <ele>581.914814</ele>
        <time>2023-12-12T08:22:40.000Z</time>
      </trkpt>
      <trkpt lat="45.47798" lon="5.66418">
        <ele>582.210944</ele>
        <time>2023-12-12T08:22:43.000Z</time>
      </trkpt>
      <trkpt lat="45.478" lon="5.66433">
        <ele>582.502244</ele>
        <time>2023-12-12T08:22:46.000Z</time>
      </trkpt>
      <trkpt lat="45.47801" lon="5.66441">
        <ele>582.66952</ele>
        <time>2023-12-12T08:22:48.000Z</time>
      </trkpt>
      <trkpt lat="45.478" lon="5.6647">
        <ele>583.255848</ele>
        <time>2023-12-12T08:22:54.000Z</time>
      </trkpt>
      <trkpt lat="45.47788" lon="5.66499">
        <ele>583.903526</ele>
        <time>2023-12-12T08:23:00.000Z</time>
      </trkpt>
      <trkpt lat="45.47766" lon="5.66532">
        <ele>584.832451</ele>
        <time>2023-12-12T08:23:09.000Z</time>
      </trkpt>
      <trkpt lat="45.47752" lon="5.66568">
        <ele>583.976597</ele>
        <time>2023-12-12T08:23:16.000Z</time>
      </trkpt>
      <trkpt lat="45.47746" lon="5.66604">
        <ele>582.495768</ele>
        <time>2023-12-12T08:23:22.000Z</time>
      </trkpt>
      <trkpt lat="45.47742" lon="5.66612">
        <ele>582.150054</ele>
        <time>2023-12-12T08:23:23.000Z</time>
      </trkpt>
      <trkpt lat="45.47738" lon="5.66619">
        <ele>581.77523</ele>
        <time>2023-12-12T08:23:24.000Z</time>
      </trkpt>
      <trkpt lat="45.47735" lon="5.66628">
        <ele>581.387372</ele>
        <time>2023-12-12T08:23:25.000Z</time>
      </trkpt>
      <trkpt lat="45.47731" lon="5.66636">
        <ele>580.976188</ele>
        <time>2023-12-12T08:23:26.000Z</time>
      </trkpt>
      <trkpt lat="45.47724" lon="5.66655">
        <ele>580.141256</ele>
        <time>2023-12-12T08:23:28.000Z</time>
      </trkpt>
      <trkpt lat="45.47717" lon="5.66673">
        <ele>579.322178</ele>
        <time>2023-12-12T08:23:30.000Z</time>
      </trkpt>
      <trkpt lat="45.47709" lon="5.66697">
        <ele>578.278339</ele>
        <time>2023-12-12T08:23:33.000Z</time>
      </trkpt>
      <trkpt lat="45.47709" lon="5.66711">
        <ele>577.733781</ele>
        <time>2023-12-12T08:23:35.000Z</time>
      </trkpt>
      <trkpt lat="45.47711" lon="5.66718">
        <ele>577.441841</ele>
        <time>2023-12-12T08:23:36.000Z</time>
      </trkpt>
      <trkpt lat="45.47715" lon="5.66725">
        <ele>577.125083</ele>
        <time>2023-12-12T08:23:37.000Z</time>
      </trkpt>
      <trkpt lat="45.47726" lon="5.66745">
        <ele>576.111546</ele>
        <time>2023-12-12T08:23:40.000Z</time>
      </trkpt>
      <trkpt lat="45.4773" lon="5.66751">
        <ele>575.787263</ele>
        <time>2023-12-12T08:23:41.000Z</time>
      </trkpt>
      <trkpt lat="45.47749" lon="5.66788">
        <ele>574.321208</ele>
        <time>2023-12-12T08:23:47.000Z</time>
      </trkpt>
      <trkpt lat="45.47751" lon="5.66794">
        <ele>574.123051</ele>
        <time>2023-12-12T08:23:48.000Z</time>
      </trkpt>
      <trkpt lat="45.47753" lon="5.66802">
        <ele>573.919047</ele>
        <time>2023-12-12T08:23:49.000Z</time>
      </trkpt>
      <trkpt lat="45.47755" lon="5.66809">
        <ele>573.710244</ele>
        <time>2023-12-12T08:23:50.000Z</time>
      </trkpt>
      <trkpt lat="45.47762" lon="5.66837">
        <ele>572.939988</ele>
        <time>2023-12-12T08:23:54.000Z</time>
      </trkpt>
      <trkpt lat="45.47775" lon="5.66863">
        <ele>572.104492</ele>
        <time>2023-12-12T08:23:58.000Z</time>
      </trkpt>
      <trkpt lat="45.47782" lon="5.66878">
        <ele>571.639812</ele>
        <time>2023-12-12T08:24:00.000Z</time>
      </trkpt>
      <trkpt lat="45.47789" lon="5.66892">
        <ele>571.18999</ele>
        <time>2023-12-12T08:24:02.000Z</time>
      </trkpt>
      <trkpt lat="45.47797" lon="5.66905">
        <ele>570.754443</ele>
        <time>2023-12-12T08:24:04.000Z</time>
      </trkpt>
      <trkpt lat="45.47805" lon="5.66917">
        <ele>570.306342</ele>
        <time>2023-12-12T08:24:06.000Z</time>
      </trkpt>
      <trkpt lat="45.47809" lon="5.66923">
        <ele>570.076729</ele>
        <time>2023-12-12T08:24:07.000Z</time>
      </trkpt>
      <trkpt lat="45.47814" lon="5.6693">
        <ele>569.842645</ele>
        <time>2023-12-12T08:24:08.000Z</time>
      </trkpt>
      <trkpt lat="45.47818" lon="5.66936">
        <ele>569.607478</ele>
        <time>2023-12-12T08:24:09.000Z</time>
      </trkpt>
      <trkpt lat="45.47845" lon="5.66974">
        <ele>568.24043</ele>
        <time>2023-12-12T08:24:15.000Z</time>
      </trkpt>
      <trkpt lat="45.47849" lon="5.66981">
        <ele>568.0846</ele>
        <time>2023-12-12T08:24:16.000Z</time>
      </trkpt>
      <trkpt lat="45.47862" lon="5.67004">
        <ele>567.590663</ele>
        <time>2023-12-12T08:24:19.000Z</time>
      </trkpt>
      <trkpt lat="45.47866" lon="5.67011">
        <ele>567.43387</ele>
        <time>2023-12-12T08:24:20.000Z</time>
      </trkpt>
      <trkpt lat="45.47874" lon="5.67033">
        <ele>567.003561</ele>
        <time>2023-12-12T08:24:23.000Z</time>
      </trkpt>
      <trkpt lat="45.47895" lon="5.67077">
        <ele>566.11113</ele>
        <time>2023-12-12T08:24:30.000Z</time>
      </trkpt>
      <trkpt lat="45.47911" lon="5.67112">
        <ele>565.395196</ele>
        <time>2023-12-12T08:24:35.000Z</time>
      </trkpt>
      <trkpt lat="45.47915" lon="5.6712">
        <ele>565.232582</ele>
        <time>2023-12-12T08:24:36.000Z</time>
      </trkpt>
      <trkpt lat="45.47922" lon="5.67136">
        <ele>564.920099</ele>
        <time>2023-12-12T08:24:38.000Z</time>
      </trkpt>
      <trkpt lat="45.47924" lon="5.67143">
        <ele>564.783333</ele>
        <time>2023-12-12T08:24:39.000Z</time>
      </trkpt>
      <trkpt lat="45.47925" lon="5.67151">
        <ele>564.651082</ele>
        <time>2023-12-12T08:24:40.000Z</time>
      </trkpt>
      <trkpt lat="45.47924" lon="5.67164">
        <ele>564.428934</ele>
        <time>2023-12-12T08:24:42.000Z</time>
      </trkpt>
      <trkpt lat="45.47923" lon="5.6717">
        <ele>564.331032</ele>
        <time>2023-12-12T08:24:43.000Z</time>
      </trkpt>
      <trkpt lat="45.4792" lon="5.67204">
        <ele>563.934904</ele>
        <time>2023-12-12T08:24:49.000Z</time>
      </trkpt>
      <trkpt lat="45.47923" lon="5.67218">
        <ele>563.928595</ele>
        <time>2023-12-12T08:24:51.000Z</time>
      </trkpt>
      <trkpt lat="45.47929" lon="5.67232">
        <ele>563.921537</ele>
        <time>2023-12-12T08:24:53.000Z</time>
      </trkpt>
      <trkpt lat="45.47941" lon="5.67248">
        <ele>563.911477</ele>
        <time>2023-12-12T08:24:56.000Z</time>
      </trkpt>
      <trkpt lat="45.47949" lon="5.67256">
        <ele>563.905399</ele>
        <time>2023-12-12T08:24:58.000Z</time>
      </trkpt>
      <trkpt lat="45.47954" lon="5.67259">
        <ele>563.902518</ele>
        <time>2023-12-12T08:24:59.000Z</time>
      </trkpt>
      <trkpt lat="45.4796" lon="5.6726">
        <ele>563.898416</ele>
        <time>2023-12-12T08:25:01.000Z</time>
      </trkpt>
      <trkpt lat="45.47963" lon="5.67261">
        <ele>563.896455</ele>
        <time>2023-12-12T08:25:02.000Z</time>
      </trkpt>
      <trkpt lat="45.4797" lon="5.67261">
        <ele>563.892357</ele>
        <time>2023-12-12T08:25:04.000Z</time>
      </trkpt>
      <trkpt lat="45.47983" lon="5.67263">
        <ele>563.884334</ele>
        <time>2023-12-12T08:25:08.000Z</time>
      </trkpt>
      <trkpt lat="45.47992" lon="5.67267">
        <ele>563.878473</ele>
        <time>2023-12-12T08:25:11.000Z</time>
      </trkpt>
      <trkpt lat="45.47995" lon="5.67268">
        <ele>563.876457</ele>
        <time>2023-12-12T08:25:12.000Z</time>
      </trkpt>
      <trkpt lat="45.48002" lon="5.67272">
        <ele>563.87228</ele>
        <time>2023-12-12T08:25:14.000Z</time>
      </trkpt>
      <trkpt lat="45.48034" lon="5.67281">
        <ele>563.852419</ele>
        <time>2023-12-12T08:25:23.000Z</time>
      </trkpt>
      <trkpt lat="45.48042" lon="5.67284">
        <ele>563.847134</ele>
        <time>2023-12-12T08:25:25.000Z</time>
      </trkpt>
      <trkpt lat="45.48052" lon="5.67287">
        <ele>563.841045</ele>
        <time>2023-12-12T08:25:27.000Z</time>
      </trkpt>
      <trkpt lat="45.48057" lon="5.67289">
        <ele>563.838009</ele>
        <time>2023-12-12T08:25:28.000Z</time>
      </trkpt>
      <trkpt lat="45.48062" lon="5.67291">
        <ele>563.83468</ele>
        <time>2023-12-12T08:25:29.000Z</time>
      </trkpt>
      <trkpt lat="45.4807" lon="5.67296">
        <ele>563.627552</ele>
        <time>2023-12-12T08:25:31.000Z</time>
      </trkpt>
      <trkpt lat="45.48077" lon="5.673">
        <ele>562.543017</ele>
        <time>2023-12-12T08:25:33.000Z</time>
      </trkpt>
      <trkpt lat="45.48079" lon="5.67301">
        <ele>562.241401</ele>
        <time>2023-12-12T08:25:34.000Z</time>
      </trkpt>
      <trkpt lat="45.4808" lon="5.67302">
        <ele>562.051222</ele>
        <time>2023-12-12T08:25:36.000Z</time>
      </trkpt>
      <trkpt lat="45.4808" lon="5.67301">
        <ele>562.01858</ele>
        <time>2023-12-12T08:25:42.000Z</time>
      </trkpt>
      <trkpt lat="45.4808" lon="5.67302">
        <ele>561.996981</ele>
        <time>2023-12-12T08:25:50.000Z</time>
      </trkpt>
      <trkpt lat="45.48084" lon="5.67302">
        <ele>561.435815</ele>
        <time>2023-12-12T08:25:58.000Z</time>
      </trkpt>
      <trkpt lat="45.48095" lon="5.67305">
        <ele>559.628886</ele>
        <time>2023-12-12T08:26:01.000Z</time>
      </trkpt>
      <trkpt lat="45.48105" lon="5.67305">
        <ele>558.134724</ele>
        <time>2023-12-12T08:26:03.000Z</time>
      </trkpt>
      <trkpt lat="45.4811" lon="5.67304">
        <ele>557.373787</ele>
        <time>2023-12-12T08:26:04.000Z</time>
      </trkpt>
      <trkpt lat="45.48121" lon="5.67302">
        <ele>555.668439</ele>
        <time>2023-12-12T08:26:06.000Z</time>
      </trkpt>
      <trkpt lat="45.48133" lon="5.67303">
        <ele>553.881663</ele>
        <time>2023-12-12T08:26:08.000Z</time>
      </trkpt>
      <trkpt lat="45.48138" lon="5.67303">
        <ele>553.034546</ele>
        <time>2023-12-12T08:26:09.000Z</time>
      </trkpt>
      <trkpt lat="45.48144" lon="5.67303">
        <ele>552.187154</ele>
        <time>2023-12-12T08:26:10.000Z</time>
      </trkpt>
      <trkpt lat="45.48149" lon="5.67304">
        <ele>551.319177</ele>
        <time>2023-12-12T08:26:11.000Z</time>
      </trkpt>
      <trkpt lat="45.48162" lon="5.67308">
        <ele>549.336143</ele>
        <time>2023-12-12T08:26:13.000Z</time>
      </trkpt>
      <trkpt lat="45.48169" lon="5.67311">
        <ele>548.213432</ele>
        <time>2023-12-12T08:26:14.000Z</time>
      </trkpt>
      <trkpt lat="45.48176" lon="5.67314">
        <ele>547.02244</ele>
        <time>2023-12-12T08:26:15.000Z</time>
      </trkpt>
      <trkpt lat="45.48183" lon="5.67317">
        <ele>545.881097</ele>
        <time>2023-12-12T08:26:16.000Z</time>
      </trkpt>
      <trkpt lat="45.48189" lon="5.67317">
        <ele>544.923179</ele>
        <time>2023-12-12T08:26:17.000Z</time>
      </trkpt>
      <trkpt lat="45.48195" lon="5.67316">
        <ele>544.028416</ele>
        <time>2023-12-12T08:26:18.000Z</time>
      </trkpt>
      <trkpt lat="45.48201" lon="5.67313">
        <ele>543.125265</ele>
        <time>2023-12-12T08:26:19.000Z</time>
      </trkpt>
      <trkpt lat="45.48206" lon="5.67309">
        <ele>542.216412</ele>
        <time>2023-12-12T08:26:20.000Z</time>
      </trkpt>
      <trkpt lat="45.48211" lon="5.67306">
        <ele>541.321367</ele>
        <time>2023-12-12T08:26:21.000Z</time>
      </trkpt>
      <trkpt lat="45.48216" lon="5.67303">
        <ele>540.479566</ele>
        <time>2023-12-12T08:26:22.000Z</time>
      </trkpt>
      <trkpt lat="45.48222" lon="5.67303">
        <ele>539.568534</ele>
        <time>2023-12-12T08:26:23.000Z</time>
      </trkpt>
      <trkpt lat="45.48229" lon="5.67304">
        <ele>538.563816</ele>
        <time>2023-12-12T08:26:24.000Z</time>
      </trkpt>
      <trkpt lat="45.48242" lon="5.67314">
        <ele>536.290435</ele>
        <time>2023-12-12T08:26:26.000Z</time>
      </trkpt>
      <trkpt lat="45.48248" lon="5.67322">
        <ele>536.042558</ele>
        <time>2023-12-12T08:26:27.000Z</time>
      </trkpt>
      <trkpt lat="45.48253" lon="5.67328">
        <ele>535.951829</ele>
        <time>2023-12-12T08:26:28.000Z</time>
      </trkpt>
      <trkpt lat="45.48259" lon="5.67333">
        <ele>535.86882</ele>
        <time>2023-12-12T08:26:29.000Z</time>
      </trkpt>
      <trkpt lat="45.48265" lon="5.67336">
        <ele>535.790107</ele>
        <time>2023-12-12T08:26:30.000Z</time>
      </trkpt>
      <trkpt lat="45.48272" lon="5.67337">
        <ele>535.703158</ele>
        <time>2023-12-12T08:26:31.000Z</time>
      </trkpt>
      <trkpt lat="45.48279" lon="5.67338">
        <ele>535.61584</ele>
        <time>2023-12-12T08:26:32.000Z</time>
      </trkpt>
      <trkpt lat="45.48291" lon="5.67338">
        <ele>535.475786</ele>
        <time>2023-12-12T08:26:34.000Z</time>
      </trkpt>
      <trkpt lat="45.48297" lon="5.67337">
        <ele>535.400541</ele>
        <time>2023-12-12T08:26:36.000Z</time>
      </trkpt>
      <trkpt lat="45.48298" lon="5.67337">
        <ele>535.383003</ele>
        <time>2023-12-12T08:26:37.000Z</time>
      </trkpt>
      <trkpt lat="45.48299" lon="5.67338">
        <ele>535.372838</ele>
        <time>2023-12-12T08:26:38.000Z</time>
      </trkpt>
      <trkpt lat="45.48297" lon="5.67341">
        <ele>535.342465</ele>
        <time>2023-12-12T08:26:40.000Z</time>
      </trkpt>
      <trkpt lat="45.48293" lon="5.6734">
        <ele>535.290296</ele>
        <time>2023-12-12T08:26:42.000Z</time>
      </trkpt>
      <trkpt lat="45.48287" lon="5.67339">
        <ele>535.215989</ele>
        <time>2023-12-12T08:26:44.000Z</time>
      </trkpt>
      <trkpt lat="45.48269" lon="5.6734">
        <ele>534.994782</ele>
        <time>2023-12-12T08:26:49.000Z</time>
      </trkpt>
      <trkpt lat="45.48266" lon="5.6734">
        <ele>534.951712</ele>
        <time>2023-12-12T08:26:50.000Z</time>
      </trkpt>
      <trkpt lat="45.48256" lon="5.67338">
        <ele>534.837128</ele>
        <time>2023-12-12T08:26:53.000Z</time>
      </trkpt>
      <trkpt lat="45.48251" lon="5.67337">
        <ele>534.775326</ele>
        <time>2023-12-12T08:26:56.000Z</time>
      </trkpt>
      <trkpt lat="45.48251" lon="5.67336">
        <ele>534.763797</ele>
        <time>2023-12-12T08:26:57.000Z</time>
      </trkpt>
      <trkpt lat="45.48247" lon="5.6733">
        <ele>534.691236</ele>
        <time>2023-12-12T08:27:01.000Z</time>
      </trkpt>
      <trkpt lat="45.48237" lon="5.67315">
        <ele>534.519253</ele>
        <time>2023-12-12T08:27:06.000Z</time>
      </trkpt>
      <trkpt lat="45.48235" lon="5.67312">
        <ele>534.478174</ele>
        <time>2023-12-12T08:27:07.000Z</time>
      </trkpt>
      <trkpt lat="45.48229" lon="5.67307">
        <ele>534.395167</ele>
        <time>2023-12-12T08:27:09.000Z</time>
      </trkpt>
      <trkpt lat="45.48224" lon="5.67302">
        <ele>534.318124</ele>
        <time>2023-12-12T08:27:11.000Z</time>
      </trkpt>
      <trkpt lat="45.48218" lon="5.67301">
        <ele>534.243444</ele>
        <time>2023-12-12T08:27:13.000Z</time>
      </trkpt>
      <trkpt lat="45.48211" lon="5.67302">
        <ele>534.15771</ele>
        <time>2023-12-12T08:27:16.000Z</time>
      </trkpt>
      <trkpt lat="45.48208" lon="5.67305">
        <ele>534.116194</ele>
        <time>2023-12-12T08:27:18.000Z</time>
      </trkpt>
      <trkpt lat="45.48207" lon="5.67307">
        <ele>534.102373</ele>
        <time>2023-12-12T08:27:19.000Z</time>
      </trkpt>
      <trkpt lat="45.48209" lon="5.67307">
        <ele>534.080246</ele>
        <time>2023-12-12T08:27:22.000Z</time>
      </trkpt>
      <trkpt lat="45.48219" lon="5.67301">
        <ele>533.945682</ele>
        <time>2023-12-12T08:27:26.000Z</time>
      </trkpt>
      <trkpt lat="45.48233" lon="5.67309">
        <ele>533.448159</ele>
        <time>2023-12-12T08:27:29.000Z</time>
      </trkpt>
      <trkpt lat="45.48237" lon="5.67313">
        <ele>533.253774</ele>
        <time>2023-12-12T08:27:30.000Z</time>
      </trkpt>
      <trkpt lat="45.48241" lon="5.67317">
        <ele>533.056948</ele>
        <time>2023-12-12T08:27:31.000Z</time>
      </trkpt>
      <trkpt lat="45.48247" lon="5.67326">
        <ele>532.69679</ele>
        <time>2023-12-12T08:27:33.000Z</time>
      </trkpt>
      <trkpt lat="45.48249" lon="5.6733">
        <ele>532.572909</ele>
        <time>2023-12-12T08:27:34.000Z</time>
      </trkpt>
      <trkpt lat="45.48251" lon="5.67335">
        <ele>532.413549</ele>
        <time>2023-12-12T08:27:35.000Z</time>
      </trkpt>
      <trkpt lat="45.48251" lon="5.6734">
        <ele>532.292765</ele>
        <time>2023-12-12T08:27:36.000Z</time>
      </trkpt>
      <trkpt lat="45.48247" lon="5.67351">
        <ele>531.941478</ele>
        <time>2023-12-12T08:27:39.000Z</time>
      </trkpt>
      <trkpt lat="45.48236" lon="5.67372">
        <ele>531.238271</ele>
        <time>2023-12-12T08:27:45.000Z</time>
      </trkpt>
      <trkpt lat="45.48234" lon="5.67376">
        <ele>531.098368</ele>
        <time>2023-12-12T08:27:47.000Z</time>
      </trkpt>
      <trkpt lat="45.48233" lon="5.67377">
        <ele>531.061912</ele>
        <time>2023-12-12T08:27:48.000Z</time>
      </trkpt>
      <trkpt lat="45.48232" lon="5.67379">
        <ele>530.975677</ele>
        <time>2023-12-12T08:27:50.000Z</time>
      </trkpt>
      <trkpt lat="45.4823" lon="5.67379">
        <ele>530.928003</ele>
        <time>2023-12-12T08:27:51.000Z</time>
      </trkpt>
      <trkpt lat="45.48231" lon="5.67373">
        <ele>530.771419</ele>
        <time>2023-12-12T08:27:54.000Z</time>
      </trkpt>
      <trkpt lat="45.4824" lon="5.67359">
        <ele>530.236352</ele>
        <time>2023-12-12T08:27:58.000Z</time>
      </trkpt>
      <trkpt lat="45.48252" lon="5.6734">
        <ele>529.534264</ele>
        <time>2023-12-12T08:28:02.000Z</time>
      </trkpt>
      <trkpt lat="45.48257" lon="5.67338">
        <ele>529.33858</ele>
        <time>2023-12-12T08:28:03.000Z</time>
      </trkpt>
      <trkpt lat="45.48262" lon="5.67338">
        <ele>529.12725</ele>
        <time>2023-12-12T08:28:04.000Z</time>
      </trkpt>
      <trkpt lat="45.48283" lon="5.67339">
        <ele>528.320667</ele>
        <time>2023-12-12T08:28:07.000Z</time>
      </trkpt>
      <trkpt lat="45.48291" lon="5.67339">
        <ele>528.01133</ele>
        <time>2023-12-12T08:28:08.000Z</time>
      </trkpt>
      <trkpt lat="45.48306" lon="5.6734">
        <ele>527.424192</ele>
        <time>2023-12-12T08:28:10.000Z</time>
      </trkpt>
      <trkpt lat="45.4832" lon="5.67341">
        <ele>526.879567</ele>
        <time>2023-12-12T08:28:12.000Z</time>
      </trkpt>
      <trkpt lat="45.48331" lon="5.67342">
        <ele>526.872276</ele>
        <time>2023-12-12T08:28:14.000Z</time>
      </trkpt>
      <trkpt lat="45.48337" lon="5.67345">
        <ele>526.868585</ele>
        <time>2023-12-12T08:28:16.000Z</time>
      </trkpt>
      <trkpt lat="45.48339" lon="5.67347">
        <ele>526.867444</ele>
        <time>2023-12-12T08:28:17.000Z</time>
      </trkpt>
      <trkpt lat="45.48339" lon="5.67349">
        <ele>526.866447</ele>
        <time>2023-12-12T08:28:18.000Z</time>
      </trkpt>
      <trkpt lat="45.48338" lon="5.67352">
        <ele>526.865225</ele>
        <time>2023-12-12T08:28:19.000Z</time>
      </trkpt>
      <trkpt lat="45.48328" lon="5.67361">
        <ele>526.858283</ele>
        <time>2023-12-12T08:28:23.000Z</time>
      </trkpt>
      <trkpt lat="45.48316" lon="5.67372">
        <ele>526.850218</ele>
        <time>2023-12-12T08:28:27.000Z</time>
      </trkpt>
      <trkpt lat="45.48306" lon="5.67389">
        <ele>526.841067</ele>
        <time>2023-12-12T08:28:31.000Z</time>
      </trkpt>
      <trkpt lat="45.48299" lon="5.67422">
        <ele>526.826814</ele>
        <time>2023-12-12T08:28:37.000Z</time>
      </trkpt>
      <trkpt lat="45.48292" lon="5.67454">
        <ele>526.813193</ele>
        <time>2023-12-12T08:28:42.000Z</time>
      </trkpt>
      <trkpt lat="45.48289" lon="5.67459">
        <ele>526.810654</ele>
        <time>2023-12-12T08:28:43.000Z</time>
      </trkpt>
      <trkpt lat="45.48282" lon="5.67464">
        <ele>526.805593</ele>
        <time>2023-12-12T08:28:45.000Z</time>
      </trkpt>
      <trkpt lat="45.48263" lon="5.67474">
        <ele>526.79382</ele>
        <time>2023-12-12T08:28:50.000Z</time>
      </trkpt>
      <trkpt lat="45.48257" lon="5.67478">
        <ele>526.790237</ele>
        <time>2023-12-12T08:28:52.000Z</time>
      </trkpt>
      <trkpt lat="45.48247" lon="5.67489">
        <ele>526.782659</ele>
        <time>2023-12-12T08:28:56.000Z</time>
      </trkpt>
      <trkpt lat="45.48241" lon="5.67495">
        <ele>526.778652</ele>
        <time>2023-12-12T08:28:58.000Z</time>
      </trkpt>
      <trkpt lat="45.48238" lon="5.67503">
        <ele>526.774935</ele>
        <time>2023-12-12T08:29:00.000Z</time>
      </trkpt>
      <trkpt lat="45.48234" lon="5.67519">
        <ele>526.756337</ele>
        <time>2023-12-12T08:29:04.000Z</time>
      </trkpt>
      <trkpt lat="45.48236" lon="5.67541">
        <ele>526.73141</ele>
        <time>2023-12-12T08:29:09.000Z</time>
      </trkpt>
      <trkpt lat="45.48239" lon="5.67555">
        <ele>526.714814</ele>
        <time>2023-12-12T08:29:12.000Z</time>
      </trkpt>
      <trkpt lat="45.48245" lon="5.67589">
        <ele>526.674886</ele>
        <time>2023-12-12T08:29:19.000Z</time>
      </trkpt>
      <trkpt lat="45.48247" lon="5.67598">
        <ele>526.664523</ele>
        <time>2023-12-12T08:29:21.000Z</time>
      </trkpt>
      <trkpt lat="45.48251" lon="5.67636">
        <ele>526.62029</ele>
        <time>2023-12-12T08:29:28.000Z</time>
      </trkpt>
      <trkpt lat="45.4826" lon="5.67674">
        <ele>526.574824</ele>
        <time>2023-12-12T08:29:34.000Z</time>
      </trkpt>
      <trkpt lat="45.48266" lon="5.67693">
        <ele>526.551722</ele>
        <time>2023-12-12T08:29:37.000Z</time>
      </trkpt>
      <trkpt lat="45.48278" lon="5.67731">
        <ele>526.503995</ele>
        <time>2023-12-12T08:29:43.000Z</time>
      </trkpt>
      <trkpt lat="45.48284" lon="5.67758">
        <ele>526.480805</ele>
        <time>2023-12-12T08:29:47.000Z</time>
      </trkpt>
      <trkpt lat="45.48294" lon="5.67788">
        <ele>526.473666</ele>
        <time>2023-12-12T08:29:52.000Z</time>
      </trkpt>
      <trkpt lat="45.48308" lon="5.67835">
        <ele>526.462901</ele>
        <time>2023-12-12T08:29:59.000Z</time>
      </trkpt>
      <trkpt lat="45.48326" lon="5.6789">
        <ele>526.45005</ele>
        <time>2023-12-12T08:30:06.000Z</time>
      </trkpt>
      <trkpt lat="45.48348" lon="5.6795">
        <ele>526.435717</ele>
        <time>2023-12-12T08:30:14.000Z</time>
      </trkpt>
      <trkpt lat="45.48356" lon="5.67974">
        <ele>526.430069</ele>
        <time>2023-12-12T08:30:17.000Z</time>
      </trkpt>
      <trkpt lat="45.48363" lon="5.68013">
        <ele>525.976954</ele>
        <time>2023-12-12T08:30:22.000Z</time>
      </trkpt>
      <trkpt lat="45.48363" lon="5.68021">
        <ele>525.8629</ele>
        <time>2023-12-12T08:30:23.000Z</time>
      </trkpt>
      <trkpt lat="45.48363" lon="5.68029">
        <ele>525.749131</ele>
        <time>2023-12-12T08:30:24.000Z</time>
      </trkpt>
      <trkpt lat="45.48359" lon="5.68051">
        <ele>525.433351</ele>
        <time>2023-12-12T08:30:27.000Z</time>
      </trkpt>
      <trkpt lat="45.48358" lon="5.68058">
        <ele>525.323244</ele>
        <time>2023-12-12T08:30:28.000Z</time>
      </trkpt>
      <trkpt lat="45.48359" lon="5.68083">
        <ele>524.974922</ele>
        <time>2023-12-12T08:30:31.000Z</time>
      </trkpt>
      <trkpt lat="45.48361" lon="5.68096">
        <ele>524.794764</ele>
        <time>2023-12-12T08:30:33.000Z</time>
      </trkpt>
      <trkpt lat="45.48362" lon="5.68103">
        <ele>524.692446</ele>
        <time>2023-12-12T08:30:34.000Z</time>
      </trkpt>
      <trkpt lat="45.48366" lon="5.68116">
        <ele>524.479838</ele>
        <time>2023-12-12T08:30:36.000Z</time>
      </trkpt>
      <trkpt lat="45.48369" lon="5.68124">
        <ele>524.364154</ele>
        <time>2023-12-12T08:30:37.000Z</time>
      </trkpt>
      <trkpt lat="45.48385" lon="5.68156">
        <ele>523.803911</ele>
        <time>2023-12-12T08:30:41.000Z</time>
      </trkpt>
      <trkpt lat="45.48389" lon="5.68165">
        <ele>523.659786</ele>
        <time>2023-12-12T08:30:42.000Z</time>
      </trkpt>
      <trkpt lat="45.48399" lon="5.68193">
        <ele>523.213384</ele>
        <time>2023-12-12T08:30:45.000Z</time>
      </trkpt>
      <trkpt lat="45.48401" lon="5.68202">
        <ele>523.091154</ele>
        <time>2023-12-12T08:30:46.000Z</time>
      </trkpt>
      <trkpt lat="45.48406" lon="5.68222">
        <ele>522.791772</ele>
        <time>2023-12-12T08:30:48.000Z</time>
      </trkpt>
      <trkpt lat="45.48417" lon="5.68264">
        <ele>522.287669</ele>
        <time>2023-12-12T08:30:52.000Z</time>
      </trkpt>
      <trkpt lat="45.48419" lon="5.68273">
        <ele>522.173938</ele>
        <time>2023-12-12T08:30:53.000Z</time>
      </trkpt>
      <trkpt lat="45.48429" lon="5.68316">
        <ele>521.670209</ele>
        <time>2023-12-12T08:30:58.000Z</time>
      </trkpt>
      <trkpt lat="45.48436" lon="5.68358">
        <ele>521.182851</ele>
        <time>2023-12-12T08:31:04.000Z</time>
      </trkpt>
      <trkpt lat="45.48451" lon="5.68423">
        <ele>520.411628</ele>
        <time>2023-12-12T08:31:13.000Z</time>
      </trkpt>
      <trkpt lat="45.48455" lon="5.68437">
        <ele>520.246311</ele>
        <time>2023-12-12T08:31:15.000Z</time>
      </trkpt>
      <trkpt lat="45.48473" lon="5.68484">
        <ele>520.10498</ele>
        <time>2023-12-12T08:31:22.000Z</time>
      </trkpt>
      <trkpt lat="45.48477" lon="5.68497">
        <ele>520.20645</ele>
        <time>2023-12-12T08:31:24.000Z</time>
      </trkpt>
      <trkpt lat="45.48496" lon="5.68539">
        <ele>520.552212</ele>
        <time>2023-12-12T08:31:31.000Z</time>
      </trkpt>
      <trkpt lat="45.48497" lon="5.68544">
        <ele>520.595008</ele>
        <time>2023-12-12T08:31:32.000Z</time>
      </trkpt>
      <trkpt lat="45.48496" lon="5.68556">
        <ele>520.675334</ele>
        <time>2023-12-12T08:31:34.000Z</time>
      </trkpt>
      <trkpt lat="45.48493" lon="5.68561">
        <ele>520.719071</ele>
        <time>2023-12-12T08:31:35.000Z</time>
      </trkpt>
      <trkpt lat="45.4849" lon="5.68565">
        <ele>520.764838</ele>
        <time>2023-12-12T08:31:36.000Z</time>
      </trkpt>
      <trkpt lat="45.48482" lon="5.68573">
        <ele>520.859932</ele>
        <time>2023-12-12T08:31:38.000Z</time>
      </trkpt>
      <trkpt lat="45.48465" lon="5.68587">
        <ele>521.060378</ele>
        <time>2023-12-12T08:31:42.000Z</time>
      </trkpt>
      <trkpt lat="45.4845" lon="5.68604">
        <ele>521.244765</ele>
        <time>2023-12-12T08:31:46.000Z</time>
      </trkpt>
      <trkpt lat="45.48446" lon="5.68612">
        <ele>521.319026</ele>
        <time>2023-12-12T08:31:48.000Z</time>
      </trkpt>
      <trkpt lat="45.48445" lon="5.68616">
        <ele>521.350902</ele>
        <time>2023-12-12T08:31:49.000Z</time>
      </trkpt>
      <trkpt lat="45.48446" lon="5.68631">
        <ele>521.452606</ele>
        <time>2023-12-12T08:31:52.000Z</time>
      </trkpt>
      <trkpt lat="45.48458" lon="5.68671">
        <ele>521.412624</ele>
        <time>2023-12-12T08:31:59.000Z</time>
      </trkpt>
      <trkpt lat="45.4846" lon="5.68684">
        <ele>520.520898</ele>
        <time>2023-12-12T08:32:01.000Z</time>
      </trkpt>
      <trkpt lat="45.48464" lon="5.68708">
        <ele>518.805697</ele>
        <time>2023-12-12T08:32:05.000Z</time>
      </trkpt>
      <trkpt lat="45.48468" lon="5.68718">
        <ele>518.017031</ele>
        <time>2023-12-12T08:32:07.000Z</time>
      </trkpt>
      <trkpt lat="45.48473" lon="5.68728">
        <ele>517.143095</ele>
        <time>2023-12-12T08:32:09.000Z</time>
      </trkpt>
      <trkpt lat="45.48477" lon="5.68733">
        <ele>516.718729</ele>
        <time>2023-12-12T08:32:10.000Z</time>
      </trkpt>
      <trkpt lat="45.48483" lon="5.68741">
        <ele>515.860519</ele>
        <time>2023-12-12T08:32:12.000Z</time>
      </trkpt>
      <trkpt lat="45.48487" lon="5.68753">
        <ele>514.963773</ele>
        <time>2023-12-12T08:32:14.000Z</time>
      </trkpt>
      <trkpt lat="45.48489" lon="5.68759">
        <ele>514.509052</ele>
        <time>2023-12-12T08:32:15.000Z</time>
      </trkpt>
      <trkpt lat="45.48492" lon="5.68773">
        <ele>513.485762</ele>
        <time>2023-12-12T08:32:17.000Z</time>
      </trkpt>
      <trkpt lat="45.48495" lon="5.68789">
        <ele>512.356888</ele>
        <time>2023-12-12T08:32:19.000Z</time>
      </trkpt>
      <trkpt lat="45.48496" lon="5.68796">
        <ele>511.840996</ele>
        <time>2023-12-12T08:32:20.000Z</time>
      </trkpt>
      <trkpt lat="45.48496" lon="5.68803">
        <ele>511.379068</ele>
        <time>2023-12-12T08:32:21.000Z</time>
      </trkpt>
      <trkpt lat="45.48496" lon="5.68811">
        <ele>510.856064</ele>
        <time>2023-12-12T08:32:22.000Z</time>
      </trkpt>
      <trkpt lat="45.48497" lon="5.68826">
        <ele>509.822323</ele>
        <time>2023-12-12T08:32:24.000Z</time>
      </trkpt>
      <trkpt lat="45.48498" lon="5.68833">
        <ele>509.272881</ele>
        <time>2023-12-12T08:32:25.000Z</time>
      </trkpt>
      <trkpt lat="45.485" lon="5.6884">
        <ele>508.76577</ele>
        <time>2023-12-12T08:32:26.000Z</time>
      </trkpt>
      <trkpt lat="45.48503" lon="5.68845">
        <ele>508.315006</ele>
        <time>2023-12-12T08:32:27.000Z</time>
      </trkpt>
      <trkpt lat="45.48506" lon="5.6885">
        <ele>507.844098</ele>
        <time>2023-12-12T08:32:28.000Z</time>
      </trkpt>
      <trkpt lat="45.48508" lon="5.68856">
        <ele>507.420315</ele>
        <time>2023-12-12T08:32:29.000Z</time>
      </trkpt>
      <trkpt lat="45.48519" lon="5.68876">
        <ele>505.683871</ele>
        <time>2023-12-12T08:32:32.000Z</time>
      </trkpt>
      <trkpt lat="45.48524" lon="5.68885">
        <ele>504.872586</ele>
        <time>2023-12-12T08:32:33.000Z</time>
      </trkpt>
      <trkpt lat="45.48532" lon="5.689">
        <ele>503.207681</ele>
        <time>2023-12-12T08:32:35.000Z</time>
      </trkpt>
      <trkpt lat="45.48535" lon="5.68908">
        <ele>502.054935</ele>
        <time>2023-12-12T08:32:36.000Z</time>
      </trkpt>
      <trkpt lat="45.48543" lon="5.68934">
        <ele>498.287805</ele>
        <time>2023-12-12T08:32:40.000Z</time>
      </trkpt>
      <trkpt lat="45.48547" lon="5.6894">
        <ele>497.16959</ele>
        <time>2023-12-12T08:32:41.000Z</time>
      </trkpt>
      <trkpt lat="45.48552" lon="5.68947">
        <ele>495.957356</ele>
        <time>2023-12-12T08:32:42.000Z</time>
      </trkpt>
      <trkpt lat="45.48556" lon="5.68955">
        <ele>494.729219</ele>
        <time>2023-12-12T08:32:43.000Z</time>
      </trkpt>
      <trkpt lat="45.4856" lon="5.68962">
        <ele>493.450766</ele>
        <time>2023-12-12T08:32:44.000Z</time>
      </trkpt>
      <trkpt lat="45.48565" lon="5.68972">
        <ele>492.02179</ele>
        <time>2023-12-12T08:32:45.000Z</time>
      </trkpt>
      <trkpt lat="45.4857" lon="5.6898">
        <ele>490.620942</ele>
        <time>2023-12-12T08:32:46.000Z</time>
      </trkpt>
      <trkpt lat="45.48573" lon="5.68987">
        <ele>489.444778</ele>
        <time>2023-12-12T08:32:47.000Z</time>
      </trkpt>
      <trkpt lat="45.48578" lon="5.68994">
        <ele>488.254676</ele>
        <time>2023-12-12T08:32:48.000Z</time>
      </trkpt>
      <trkpt lat="45.48583" lon="5.69001">
        <ele>486.962882</ele>
        <time>2023-12-12T08:32:49.000Z</time>
      </trkpt>
      <trkpt lat="45.48591" lon="5.69011">
        <ele>484.996077</ele>
        <time>2023-12-12T08:32:51.000Z</time>
      </trkpt>
      <trkpt lat="45.48602" lon="5.69026">
        <ele>482.167849</ele>
        <time>2023-12-12T08:32:55.000Z</time>
      </trkpt>
      <trkpt lat="45.48605" lon="5.69032">
        <ele>481.183446</ele>
        <time>2023-12-12T08:32:56.000Z</time>
      </trkpt>
      <trkpt lat="45.48608" lon="5.69038">
        <ele>480.208261</ele>
        <time>2023-12-12T08:32:57.000Z</time>
      </trkpt>
      <trkpt lat="45.48609" lon="5.69048">
        <ele>478.998591</ele>
        <time>2023-12-12T08:32:58.000Z</time>
      </trkpt>
      <trkpt lat="45.48611" lon="5.69055">
        <ele>477.930354</ele>
        <time>2023-12-12T08:32:59.000Z</time>
      </trkpt>
      <trkpt lat="45.48611" lon="5.69064">
        <ele>476.805575</ele>
        <time>2023-12-12T08:33:00.000Z</time>
      </trkpt>
      <trkpt lat="45.48607" lon="5.69078">
        <ele>474.883601</ele>
        <time>2023-12-12T08:33:01.000Z</time>
      </trkpt>
      <trkpt lat="45.48607" lon="5.69089">
        <ele>473.52629</ele>
        <time>2023-12-12T08:33:02.000Z</time>
      </trkpt>
      <trkpt lat="45.48606" lon="5.69099">
        <ele>472.211577</ele>
        <time>2023-12-12T08:33:03.000Z</time>
      </trkpt>
      <trkpt lat="45.48604" lon="5.69106">
        <ele>471.184431</ele>
        <time>2023-12-12T08:33:04.000Z</time>
      </trkpt>
      <trkpt lat="45.48601" lon="5.69112">
        <ele>470.294903</ele>
        <time>2023-12-12T08:33:05.000Z</time>
      </trkpt>
      <trkpt lat="45.48596" lon="5.69119">
        <ele>469.366729</ele>
        <time>2023-12-12T08:33:07.000Z</time>
      </trkpt>
      <trkpt lat="45.48595" lon="5.69122">
        <ele>469.016238</ele>
        <time>2023-12-12T08:33:08.000Z</time>
      </trkpt>
      <trkpt lat="45.48592" lon="5.69136">
        <ele>467.464964</ele>
        <time>2023-12-12T08:33:12.000Z</time>
      </trkpt>
      <trkpt lat="45.48591" lon="5.69143">
        <ele>466.744669</ele>
        <time>2023-12-12T08:33:13.000Z</time>
      </trkpt>
      <trkpt lat="45.48592" lon="5.6915">
        <ele>465.947986</ele>
        <time>2023-12-12T08:33:14.000Z</time>
      </trkpt>
      <trkpt lat="45.48595" lon="5.69167">
        <ele>464.157209</ele>
        <time>2023-12-12T08:33:16.000Z</time>
      </trkpt>
      <trkpt lat="45.48597" lon="5.69176">
        <ele>463.13282</ele>
        <time>2023-12-12T08:33:17.000Z</time>
      </trkpt>
      <trkpt lat="45.48602" lon="5.69192">
        <ele>461.312644</ele>
        <time>2023-12-12T08:33:19.000Z</time>
      </trkpt>
      <trkpt lat="45.48607" lon="5.69211">
        <ele>459.21849</ele>
        <time>2023-12-12T08:33:21.000Z</time>
      </trkpt>
      <trkpt lat="45.4861" lon="5.69221">
        <ele>458.13988</ele>
        <time>2023-12-12T08:33:22.000Z</time>
      </trkpt>
      <trkpt lat="45.48612" lon="5.69231">
        <ele>457.011733</ele>
        <time>2023-12-12T08:33:23.000Z</time>
      </trkpt>
      <trkpt lat="45.48617" lon="5.69249">
        <ele>455.016826</ele>
        <time>2023-12-12T08:33:25.000Z</time>
      </trkpt>
      <trkpt lat="45.48623" lon="5.69272">
        <ele>452.426375</ele>
        <time>2023-12-12T08:33:28.000Z</time>
      </trkpt>
      <trkpt lat="45.48626" lon="5.69285">
        <ele>450.939075</ele>
        <time>2023-12-12T08:33:30.000Z</time>
      </trkpt>
      <trkpt lat="45.48633" lon="5.69302">
        <ele>448.998359</ele>
        <time>2023-12-12T08:33:32.000Z</time>
      </trkpt>
      <trkpt lat="45.48636" lon="5.6931">
        <ele>447.946219</ele>
        <time>2023-12-12T08:33:33.000Z</time>
      </trkpt>
      <trkpt lat="45.4864" lon="5.69317">
        <ele>447.022236</ele>
        <time>2023-12-12T08:33:34.000Z</time>
      </trkpt>
      <trkpt lat="45.48645" lon="5.69324">
        <ele>445.985286</ele>
        <time>2023-12-12T08:33:35.000Z</time>
      </trkpt>
      <trkpt lat="45.48655" lon="5.69339">
        <ele>443.874027</ele>
        <time>2023-12-12T08:33:37.000Z</time>
      </trkpt>
      <trkpt lat="45.48665" lon="5.69353">
        <ele>441.773429</ele>
        <time>2023-12-12T08:33:39.000Z</time>
      </trkpt>
      <trkpt lat="45.48669" lon="5.69363">
        <ele>440.632968</ele>
        <time>2023-12-12T08:33:40.000Z</time>
      </trkpt>
      <trkpt lat="45.48677" lon="5.69382">
        <ele>438.302892</ele>
        <time>2023-12-12T08:33:42.000Z</time>
      </trkpt>
      <trkpt lat="45.48682" lon="5.69392">
        <ele>437.026211</ele>
        <time>2023-12-12T08:33:43.000Z</time>
      </trkpt>
      <trkpt lat="45.48686" lon="5.69402">
        <ele>435.844134</ele>
        <time>2023-12-12T08:33:44.000Z</time>
      </trkpt>
      <trkpt lat="45.48695" lon="5.6943">
        <ele>432.579759</ele>
        <time>2023-12-12T08:33:47.000Z</time>
      </trkpt>
      <trkpt lat="45.48701" lon="5.69448">
        <ele>430.499074</ele>
        <time>2023-12-12T08:33:49.000Z</time>
      </trkpt>
      <trkpt lat="45.48703" lon="5.69458">
        <ele>429.510329</ele>
        <time>2023-12-12T08:33:50.000Z</time>
      </trkpt>
      <trkpt lat="45.48704" lon="5.69466">
        <ele>428.578666</ele>
        <time>2023-12-12T08:33:51.000Z</time>
      </trkpt>
      <trkpt lat="45.48705" lon="5.69474">
        <ele>427.751142</ele>
        <time>2023-12-12T08:33:52.000Z</time>
      </trkpt>
      <trkpt lat="45.48704" lon="5.69482">
        <ele>426.923618</ele>
        <time>2023-12-12T08:33:53.000Z</time>
      </trkpt>
      <trkpt lat="45.48705" lon="5.69489">
        <ele>426.233733</ele>
        <time>2023-12-12T08:33:54.000Z</time>
      </trkpt>
      <trkpt lat="45.48706" lon="5.69495">
        <ele>425.602922</ele>
        <time>2023-12-12T08:33:55.000Z</time>
      </trkpt>
      <trkpt lat="45.48707" lon="5.69499">
        <ele>425.072224</ele>
        <time>2023-12-12T08:33:56.000Z</time>
      </trkpt>
      <trkpt lat="45.48709" lon="5.69502">
        <ele>424.674661</ele>
        <time>2023-12-12T08:33:57.000Z</time>
      </trkpt>
      <trkpt lat="45.48711" lon="5.69505">
        <ele>424.291484</ele>
        <time>2023-12-12T08:33:58.000Z</time>
      </trkpt>
      <trkpt lat="45.48713" lon="5.69506">
        <ele>423.969576</ele>
        <time>2023-12-12T08:33:59.000Z</time>
      </trkpt>
      <trkpt lat="45.48713" lon="5.69507">
        <ele>423.807345</ele>
        <time>2023-12-12T08:34:00.000Z</time>
      </trkpt>
      <trkpt lat="45.48714" lon="5.69508">
        <ele>423.746471</ele>
        <time>2023-12-12T08:34:01.000Z</time>
      </trkpt>
      <trkpt lat="45.48715" lon="5.69508">
        <ele>423.626076</ele>
        <time>2023-12-12T08:34:03.000Z</time>
      </trkpt>
      <trkpt lat="45.48723" lon="5.69508">
        <ele>422.33639</ele>
        <time>2023-12-12T08:34:07.000Z</time>
      </trkpt>
      <trkpt lat="45.48728" lon="5.69509">
        <ele>421.661287</ele>
        <time>2023-12-12T08:34:08.000Z</time>
      </trkpt>
      <trkpt lat="45.48745" lon="5.69511">
        <ele>419.14751</ele>
        <time>2023-12-12T08:34:11.000Z</time>
      </trkpt>
      <trkpt lat="45.48751" lon="5.69512">
        <ele>418.136891</ele>
        <time>2023-12-12T08:34:12.000Z</time>
      </trkpt>
      <trkpt lat="45.48766" lon="5.69512">
        <ele>416.314569</ele>
        <time>2023-12-12T08:34:14.000Z</time>
      </trkpt>
      <trkpt lat="45.48778" lon="5.69513">
        <ele>414.891638</ele>
        <time>2023-12-12T08:34:16.000Z</time>
      </trkpt>
      <trkpt lat="45.48785" lon="5.69524">
        <ele>413.698808</ele>
        <time>2023-12-12T08:34:18.000Z</time>
      </trkpt>
      <trkpt lat="45.48785" lon="5.69532">
        <ele>413.031979</ele>
        <time>2023-12-12T08:34:19.000Z</time>
      </trkpt>
      <trkpt lat="45.48782" lon="5.69541">
        <ele>412.236664</ele>
        <time>2023-12-12T08:34:20.000Z</time>
      </trkpt>
      <trkpt lat="45.48778" lon="5.6955">
        <ele>411.355663</ele>
        <time>2023-12-12T08:34:21.000Z</time>
      </trkpt>
      <trkpt lat="45.48773" lon="5.69559">
        <ele>410.427323</ele>
        <time>2023-12-12T08:34:22.000Z</time>
      </trkpt>
      <trkpt lat="45.48768" lon="5.69569">
        <ele>409.500279</ele>
        <time>2023-12-12T08:34:23.000Z</time>
      </trkpt>
      <trkpt lat="45.48758" lon="5.69589">
        <ele>407.467429</ele>
        <time>2023-12-12T08:34:25.000Z</time>
      </trkpt>
      <trkpt lat="45.48751" lon="5.69598">
        <ele>406.465885</ele>
        <time>2023-12-12T08:34:26.000Z</time>
      </trkpt>
      <trkpt lat="45.48744" lon="5.69605">
        <ele>405.416413</ele>
        <time>2023-12-12T08:34:27.000Z</time>
      </trkpt>
      <trkpt lat="45.48736" lon="5.69612">
        <ele>404.353904</ele>
        <time>2023-12-12T08:34:28.000Z</time>
      </trkpt>
      <trkpt lat="45.48728" lon="5.69617">
        <ele>403.321994</ele>
        <time>2023-12-12T08:34:29.000Z</time>
      </trkpt>
      <trkpt lat="45.4872" lon="5.69621">
        <ele>402.347882</ele>
        <time>2023-12-12T08:34:30.000Z</time>
      </trkpt>
      <trkpt lat="45.48712" lon="5.69624">
        <ele>401.424689</ele>
        <time>2023-12-12T08:34:31.000Z</time>
      </trkpt>
      <trkpt lat="45.487" lon="5.69629">
        <ele>399.997296</ele>
        <time>2023-12-12T08:34:33.000Z</time>
      </trkpt>
      <trkpt lat="45.48695" lon="5.69631">
        <ele>399.433506</ele>
        <time>2023-12-12T08:34:34.000Z</time>
      </trkpt>
      <trkpt lat="45.48688" lon="5.69635">
        <ele>398.570485</ele>
        <time>2023-12-12T08:34:36.000Z</time>
      </trkpt>
      <trkpt lat="45.48687" lon="5.69635">
        <ele>398.430953</ele>
        <time>2023-12-12T08:34:37.000Z</time>
      </trkpt>
      <trkpt lat="45.48686" lon="5.69635">
        <ele>398.373687</ele>
        <time>2023-12-12T08:34:38.000Z</time>
      </trkpt>
      <trkpt lat="45.48686" lon="5.69635">
        <ele>398.373687</ele>
        <time>2023-12-12T08:34:42.000Z</time>
      </trkpt>
      <trkpt lat="45.48686" lon="5.69635">
        <ele>398.3597</ele>
        <time>2023-12-12T08:34:46.000Z</time>
      </trkpt>
      <trkpt lat="45.48686" lon="5.69635">
        <ele>398.35167</ele>
        <time>2023-12-12T08:34:50.000Z</time>
      </trkpt>
      <trkpt lat="45.48686" lon="5.69635">
        <ele>398.35167</ele>
        <time>2023-12-12T08:34:57.000Z</time>
      </trkpt>
      <trkpt lat="45.48686" lon="5.69635">
        <ele>398.343641</ele>
        <time>2023-12-12T08:35:02.000Z</time>
      </trkpt>
      <trkpt lat="45.48686" lon="5.69635">
        <ele>398.327582</ele>
        <time>2023-12-12T08:35:13.000Z</time>
      </trkpt>
      <trkpt lat="45.48691" lon="5.69639">
        <ele>397.758671</ele>
        <time>2023-12-12T08:35:17.000Z</time>
      </trkpt>
      <trkpt lat="45.48704" lon="5.69644">
        <ele>396.482383</ele>
        <time>2023-12-12T08:35:21.000Z</time>
      </trkpt>
      <trkpt lat="45.48713" lon="5.69644">
        <ele>395.952206</ele>
        <time>2023-12-12T08:35:23.000Z</time>
      </trkpt>
      <trkpt lat="45.48716" lon="5.69646">
        <ele>395.735554</ele>
        <time>2023-12-12T08:35:24.000Z</time>
      </trkpt>
      <trkpt lat="45.48727" lon="5.69647">
        <ele>395.062337</ele>
        <time>2023-12-12T08:35:26.000Z</time>
      </trkpt>
      <trkpt lat="45.48734" lon="5.69648">
        <ele>394.627285</ele>
        <time>2023-12-12T08:35:27.000Z</time>
      </trkpt>
      <trkpt lat="45.48759" lon="5.69655">
        <ele>393.081387</ele>
        <time>2023-12-12T08:35:30.000Z</time>
      </trkpt>
      <trkpt lat="45.48768" lon="5.69658">
        <ele>392.50749</ele>
        <time>2023-12-12T08:35:31.000Z</time>
      </trkpt>
      <trkpt lat="45.48796" lon="5.69667">
        <ele>390.723083</ele>
        <time>2023-12-12T08:35:34.000Z</time>
      </trkpt>
      <trkpt lat="45.48804" lon="5.6967">
        <ele>390.201842</ele>
        <time>2023-12-12T08:35:35.000Z</time>
      </trkpt>
      <trkpt lat="45.48812" lon="5.69671">
        <ele>389.722918</ele>
        <time>2023-12-12T08:35:36.000Z</time>
      </trkpt>
      <trkpt lat="45.48831" lon="5.69676">
        <ele>388.54211</ele>
        <time>2023-12-12T08:35:39.000Z</time>
      </trkpt>
      <trkpt lat="45.48842" lon="5.69678">
        <ele>387.892621</ele>
        <time>2023-12-12T08:35:41.000Z</time>
      </trkpt>
      <trkpt lat="45.48855" lon="5.69675">
        <ele>387.069029</ele>
        <time>2023-12-12T08:35:44.000Z</time>
      </trkpt>
      <trkpt lat="45.48859" lon="5.69675">
        <ele>386.797667</ele>
        <time>2023-12-12T08:35:46.000Z</time>
      </trkpt>
      <trkpt lat="45.48859" lon="5.69676">
        <ele>386.76927</ele>
        <time>2023-12-12T08:35:47.000Z</time>
      </trkpt>
      <trkpt lat="45.48852" lon="5.69675">
        <ele>386.350653</ele>
        <time>2023-12-12T08:35:50.000Z</time>
      </trkpt>
      <trkpt lat="45.48839" lon="5.69682">
        <ele>385.49795</ele>
        <time>2023-12-12T08:35:54.000Z</time>
      </trkpt>
      <trkpt lat="45.48836" lon="5.69692">
        <ele>385.0667</ele>
        <time>2023-12-12T08:35:56.000Z</time>
      </trkpt>
      <trkpt lat="45.48836" lon="5.69708">
        <ele>384.430096</ele>
        <time>2023-12-12T08:35:58.000Z</time>
      </trkpt>
      <trkpt lat="45.48836" lon="5.69716">
        <ele>384.103915</ele>
        <time>2023-12-12T08:35:59.000Z</time>
      </trkpt>
      <trkpt lat="45.48838" lon="5.6973">
        <ele>383.52736</ele>
        <time>2023-12-12T08:36:01.000Z</time>
      </trkpt>
      <trkpt lat="45.48838" lon="5.69739">
        <ele>383.156806</ele>
        <time>2023-12-12T08:36:03.000Z</time>
      </trkpt>
      <trkpt lat="45.48838" lon="5.69743">
        <ele>383.006358</ele>
        <time>2023-12-12T08:36:04.000Z</time>
      </trkpt>
      <trkpt lat="45.48842" lon="5.69766">
        <ele>382.04702</ele>
        <time>2023-12-12T08:36:09.000Z</time>
      </trkpt>
      <trkpt lat="45.48844" lon="5.6977">
        <ele>381.857173</ele>
        <time>2023-12-12T08:36:10.000Z</time>
      </trkpt>
      <trkpt lat="45.48851" lon="5.69797">
        <ele>380.701506</ele>
        <time>2023-12-12T08:36:15.000Z</time>
      </trkpt>
      <trkpt lat="45.48853" lon="5.69809">
        <ele>380.190569</ele>
        <time>2023-12-12T08:36:17.000Z</time>
      </trkpt>
      <trkpt lat="45.48862" lon="5.69846">
        <ele>378.608421</ele>
        <time>2023-12-12T08:36:23.000Z</time>
      </trkpt>
      <trkpt lat="45.48867" lon="5.69864">
        <ele>377.822104</ele>
        <time>2023-12-12T08:36:26.000Z</time>
      </trkpt>
      <trkpt lat="45.48869" lon="5.69871">
        <ele>377.490227</ele>
        <time>2023-12-12T08:36:27.000Z</time>
      </trkpt>
      <trkpt lat="45.48875" lon="5.69889">
        <ele>376.677164</ele>
        <time>2023-12-12T08:36:29.000Z</time>
      </trkpt>
      <trkpt lat="45.48878" lon="5.69899">
        <ele>376.260803</ele>
        <time>2023-12-12T08:36:30.000Z</time>
      </trkpt>
      <trkpt lat="45.48884" lon="5.69917">
        <ele>375.460071</ele>
        <time>2023-12-12T08:36:32.000Z</time>
      </trkpt>
      <trkpt lat="45.48889" lon="5.69933">
        <ele>374.531765</ele>
        <time>2023-12-12T08:36:34.000Z</time>
      </trkpt>
      <trkpt lat="45.48892" lon="5.69941">
        <ele>374.015641</ele>
        <time>2023-12-12T08:36:35.000Z</time>
      </trkpt>
      <trkpt lat="45.489" lon="5.69953">
        <ele>373.085941</ele>
        <time>2023-12-12T08:36:37.000Z</time>
      </trkpt>
      <trkpt lat="45.48906" lon="5.69958">
        <ele>372.523859</ele>
        <time>2023-12-12T08:36:38.000Z</time>
      </trkpt>
      <trkpt lat="45.48913" lon="5.69962">
        <ele>371.942889</ele>
        <time>2023-12-12T08:36:39.000Z</time>
      </trkpt>
      <trkpt lat="45.48929" lon="5.69968">
        <ele>370.633677</ele>
        <time>2023-12-12T08:36:41.000Z</time>
      </trkpt>
      <trkpt lat="45.48936" lon="5.69969">
        <ele>370.056004</ele>
        <time>2023-12-12T08:36:42.000Z</time>
      </trkpt>
      <trkpt lat="45.48951" lon="5.69971">
        <ele>368.910115</ele>
        <time>2023-12-12T08:36:44.000Z</time>
      </trkpt>
      <trkpt lat="45.4898" lon="5.69972">
        <ele>366.65101</ele>
        <time>2023-12-12T08:36:48.000Z</time>
      </trkpt>
      <trkpt lat="45.48985" lon="5.69975">
        <ele>366.165496</ele>
        <time>2023-12-12T08:36:49.000Z</time>
      </trkpt>
      <trkpt lat="45.4899" lon="5.6998">
        <ele>365.707289</ele>
        <time>2023-12-12T08:36:50.000Z</time>
      </trkpt>
      <trkpt lat="45.48992" lon="5.69987">
        <ele>365.281696</ele>
        <time>2023-12-12T08:36:51.000Z</time>
      </trkpt>
      <trkpt lat="45.48995" lon="5.69994">
        <ele>364.873532</ele>
        <time>2023-12-12T08:36:52.000Z</time>
      </trkpt>
      <trkpt lat="45.48999" lon="5.70008">
        <ele>363.990468</ele>
        <time>2023-12-12T08:36:54.000Z</time>
      </trkpt>
      <trkpt lat="45.49003" lon="5.70023">
        <ele>363.117668</ele>
        <time>2023-12-12T08:36:56.000Z</time>
      </trkpt>
      <trkpt lat="45.49005" lon="5.70031">
        <ele>362.664016</ele>
        <time>2023-12-12T08:36:57.000Z</time>
      </trkpt>
      <trkpt lat="45.49006" lon="5.70039">
        <ele>362.208847</ele>
        <time>2023-12-12T08:36:58.000Z</time>
      </trkpt>
      <trkpt lat="45.4901" lon="5.70062">
        <ele>360.675633</ele>
        <time>2023-12-12T08:37:01.000Z</time>
      </trkpt>
      <trkpt lat="45.49015" lon="5.70081">
        <ele>358.79014</ele>
        <time>2023-12-12T08:37:03.000Z</time>
      </trkpt>
      <trkpt lat="45.49021" lon="5.70097">
        <ele>357.11925</ele>
        <time>2023-12-12T08:37:05.000Z</time>
      </trkpt>
      <trkpt lat="45.49023" lon="5.70103">
        <ele>356.47912</ele>
        <time>2023-12-12T08:37:06.000Z</time>
      </trkpt>
      <trkpt lat="45.4903" lon="5.70111">
        <ele>355.364122</ele>
        <time>2023-12-12T08:37:08.000Z</time>
      </trkpt>
      <trkpt lat="45.49034" lon="5.70114">
        <ele>354.748662</ele>
        <time>2023-12-12T08:37:09.000Z</time>
      </trkpt>
      <trkpt lat="45.49039" lon="5.70117">
        <ele>354.075568</ele>
        <time>2023-12-12T08:37:10.000Z</time>
      </trkpt>
      <trkpt lat="45.4905" lon="5.70119">
        <ele>352.54846</ele>
        <time>2023-12-12T08:37:12.000Z</time>
      </trkpt>
      <trkpt lat="45.49058" lon="5.7012">
        <ele>351.547526</ele>
        <time>2023-12-12T08:37:14.000Z</time>
      </trkpt>
      <trkpt lat="45.49061" lon="5.70121">
        <ele>351.17881</ele>
        <time>2023-12-12T08:37:15.000Z</time>
      </trkpt>
      <trkpt lat="45.49063" lon="5.70122">
        <ele>350.815501</ele>
        <time>2023-12-12T08:37:16.000Z</time>
      </trkpt>
      <trkpt lat="45.49072" lon="5.70128">
        <ele>349.529566</ele>
        <time>2023-12-12T08:37:19.000Z</time>
      </trkpt>
      <trkpt lat="45.49076" lon="5.70134">
        <ele>348.743685</ele>
        <time>2023-12-12T08:37:21.000Z</time>
      </trkpt>
      <trkpt lat="45.49077" lon="5.70139">
        <ele>348.291463</ele>
        <time>2023-12-12T08:37:22.000Z</time>
      </trkpt>
      <trkpt lat="45.49079" lon="5.70158">
        <ele>346.515439</ele>
        <time>2023-12-12T08:37:25.000Z</time>
      </trkpt>
      <trkpt lat="45.49079" lon="5.70165">
        <ele>345.859989</ele>
        <time>2023-12-12T08:37:26.000Z</time>
      </trkpt>
      <trkpt lat="45.49078" lon="5.70172">
        <ele>345.233183</ele>
        <time>2023-12-12T08:37:27.000Z</time>
      </trkpt>
      <trkpt lat="45.49076" lon="5.70189">
        <ele>343.618165</ele>
        <time>2023-12-12T08:37:30.000Z</time>
      </trkpt>
      <trkpt lat="45.49075" lon="5.70194">
        <ele>343.163335</ele>
        <time>2023-12-12T08:37:31.000Z</time>
      </trkpt>
      <trkpt lat="45.49074" lon="5.70205">
        <ele>342.082146</ele>
        <time>2023-12-12T08:37:33.000Z</time>
      </trkpt>
      <trkpt lat="45.49072" lon="5.70224">
        <ele>340.360836</ele>
        <time>2023-12-12T08:37:36.000Z</time>
      </trkpt>
      <trkpt lat="45.49073" lon="5.70229">
        <ele>339.898703</ele>
        <time>2023-12-12T08:37:37.000Z</time>
      </trkpt>
      <trkpt lat="45.49074" lon="5.70234">
        <ele>339.424532</ele>
        <time>2023-12-12T08:37:38.000Z</time>
      </trkpt>
      <trkpt lat="45.49076" lon="5.70245">
        <ele>338.382646</ele>
        <time>2023-12-12T08:37:40.000Z</time>
      </trkpt>
      <trkpt lat="45.49078" lon="5.70256">
        <ele>337.264921</ele>
        <time>2023-12-12T08:37:42.000Z</time>
      </trkpt>
      <trkpt lat="45.49081" lon="5.7027">
        <ele>335.622776</ele>
        <time>2023-12-12T08:37:44.000Z</time>
      </trkpt>
      <trkpt lat="45.49082" lon="5.70278">
        <ele>334.717328</ele>
        <time>2023-12-12T08:37:45.000Z</time>
      </trkpt>
      <trkpt lat="45.49083" lon="5.70285">
        <ele>333.872687</ele>
        <time>2023-12-12T08:37:46.000Z</time>
      </trkpt>
      <trkpt lat="45.49084" lon="5.70297">
        <ele>332.512929</ele>
        <time>2023-12-12T08:37:48.000Z</time>
      </trkpt>
      <trkpt lat="45.49086" lon="5.70308">
        <ele>331.200659</ele>
        <time>2023-12-12T08:37:50.000Z</time>
      </trkpt>
      <trkpt lat="45.49085" lon="5.70319">
        <ele>329.989998</ele>
        <time>2023-12-12T08:37:52.000Z</time>
      </trkpt>
      <trkpt lat="45.49082" lon="5.70323">
        <ele>329.305233</ele>
        <time>2023-12-12T08:37:53.000Z</time>
      </trkpt>
      <trkpt lat="45.49079" lon="5.70327">
        <ele>328.646069</ele>
        <time>2023-12-12T08:37:54.000Z</time>
      </trkpt>
      <trkpt lat="45.49076" lon="5.70329">
        <ele>328.098018</ele>
        <time>2023-12-12T08:37:55.000Z</time>
      </trkpt>
      <trkpt lat="45.49073" lon="5.7033">
        <ele>327.683615</ele>
        <time>2023-12-12T08:37:56.000Z</time>
      </trkpt>
      <trkpt lat="45.49068" lon="5.7033">
        <ele>326.810136</ele>
        <time>2023-12-12T08:37:58.000Z</time>
      </trkpt>
      <trkpt lat="45.49066" lon="5.70331">
        <ele>326.495386</ele>
        <time>2023-12-12T08:37:59.000Z</time>
      </trkpt>
      <trkpt lat="45.49064" lon="5.70332">
        <ele>326.110316</ele>
        <time>2023-12-12T08:38:00.000Z</time>
      </trkpt>
      <trkpt lat="45.49063" lon="5.70334">
        <ele>325.792658</ele>
        <time>2023-12-12T08:38:01.000Z</time>
      </trkpt>
      <trkpt lat="45.49063" lon="5.70337">
        <ele>325.531872</ele>
        <time>2023-12-12T08:38:02.000Z</time>
      </trkpt>
      <trkpt lat="45.49064" lon="5.70339">
        <ele>325.213217</ele>
        <time>2023-12-12T08:38:03.000Z</time>
      </trkpt>
      <trkpt lat="45.49066" lon="5.70345">
        <ele>324.376982</ele>
        <time>2023-12-12T08:38:05.000Z</time>
      </trkpt>
      <trkpt lat="45.49073" lon="5.70355">
        <ele>322.854792</ele>
        <time>2023-12-12T08:38:07.000Z</time>
      </trkpt>
      <trkpt lat="45.49081" lon="5.70366">
        <ele>321.07544</ele>
        <time>2023-12-12T08:38:09.000Z</time>
      </trkpt>
      <trkpt lat="45.49085" lon="5.70372">
        <ele>320.169374</ele>
        <time>2023-12-12T08:38:10.000Z</time>
      </trkpt>
      <trkpt lat="45.49092" lon="5.70384">
        <ele>318.365741</ele>
        <time>2023-12-12T08:38:12.000Z</time>
      </trkpt>
      <trkpt lat="45.49096" lon="5.70396">
        <ele>316.752267</ele>
        <time>2023-12-12T08:38:14.000Z</time>
      </trkpt>
      <trkpt lat="45.49096" lon="5.7041">
        <ele>315.237244</ele>
        <time>2023-12-12T08:38:16.000Z</time>
      </trkpt>
      <trkpt lat="45.49095" lon="5.70416">
        <ele>314.538823</ele>
        <time>2023-12-12T08:38:17.000Z</time>
      </trkpt>
      <trkpt lat="45.49094" lon="5.70421">
        <ele>313.9165</ele>
        <time>2023-12-12T08:38:18.000Z</time>
      </trkpt>
      <trkpt lat="45.49094" lon="5.70426">
        <ele>313.37968</ele>
        <time>2023-12-12T08:38:19.000Z</time>
      </trkpt>
      <trkpt lat="45.49093" lon="5.70432">
        <ele>312.609063</ele>
        <time>2023-12-12T08:38:21.000Z</time>
      </trkpt>
      <trkpt lat="45.49092" lon="5.70435">
        <ele>312.287911</ele>
        <time>2023-12-12T08:38:22.000Z</time>
      </trkpt>
      <trkpt lat="45.49093" lon="5.70443">
        <ele>311.400907</ele>
        <time>2023-12-12T08:38:24.000Z</time>
      </trkpt>
      <trkpt lat="45.49098" lon="5.70449">
        <ele>310.385069</ele>
        <time>2023-12-12T08:38:26.000Z</time>
      </trkpt>
      <trkpt lat="45.49106" lon="5.70457">
        <ele>308.745113</ele>
        <time>2023-12-12T08:38:29.000Z</time>
      </trkpt>
      <trkpt lat="45.49118" lon="5.70469">
        <ele>308.182254</ele>
        <time>2023-12-12T08:38:33.000Z</time>
      </trkpt>
      <trkpt lat="45.49137" lon="5.70486">
        <ele>307.522137</ele>
        <time>2023-12-12T08:38:38.000Z</time>
      </trkpt>
      <trkpt lat="45.49141" lon="5.7049">
        <ele>307.379081</ele>
        <time>2023-12-12T08:38:39.000Z</time>
      </trkpt>
      <trkpt lat="45.49144" lon="5.70494">
        <ele>307.229733</ele>
        <time>2023-12-12T08:38:40.000Z</time>
      </trkpt>
      <trkpt lat="45.49173" lon="5.70523">
        <ele>306.168442</ele>
        <time>2023-12-12T08:38:47.000Z</time>
      </trkpt>
      <trkpt lat="45.49189" lon="5.7054">
        <ele>305.582776</ele>
        <time>2023-12-12T08:38:51.000Z</time>
      </trkpt>
      <trkpt lat="45.49204" lon="5.70554">
        <ele>305.033686</ele>
        <time>2023-12-12T08:38:55.000Z</time>
      </trkpt>
      <trkpt lat="45.49237" lon="5.70588">
        <ele>303.839145</ele>
        <time>2023-12-12T08:39:03.000Z</time>
      </trkpt>
      <trkpt lat="45.49255" lon="5.70611">
        <ele>303.167215</ele>
        <time>2023-12-12T08:39:09.000Z</time>
      </trkpt>
      <trkpt lat="45.49258" lon="5.70625">
        <ele>303.101985</ele>
        <time>2023-12-12T08:39:13.000Z</time>
      </trkpt>
      <trkpt lat="45.49259" lon="5.7064">
        <ele>303.035842</ele>
        <time>2023-12-12T08:39:17.000Z</time>
      </trkpt>
      <trkpt lat="45.49265" lon="5.70649">
        <ele>302.980295</ele>
        <time>2023-12-12T08:39:20.000Z</time>
      </trkpt>
      <trkpt lat="45.49286" lon="5.7066">
        <ele>302.843287</ele>
        <time>2023-12-12T08:39:26.000Z</time>
      </trkpt>
      <trkpt lat="45.49298" lon="5.70667">
        <ele>302.758314</ele>
        <time>2023-12-12T08:39:30.000Z</time>
      </trkpt>
      <trkpt lat="45.49316" lon="5.70675">
        <ele>302.642063</ele>
        <time>2023-12-12T08:39:35.000Z</time>
      </trkpt>
      <trkpt lat="45.49333" lon="5.70695">
        <ele>302.498941</ele>
        <time>2023-12-12T08:39:40.000Z</time>
      </trkpt>
      <trkpt lat="45.49361" lon="5.70725">
        <ele>302.278676</ele>
        <time>2023-12-12T08:39:48.000Z</time>
      </trkpt>
      <trkpt lat="45.49391" lon="5.7076">
        <ele>302.014735</ele>
        <time>2023-12-12T08:39:56.000Z</time>
      </trkpt>
      <trkpt lat="45.49432" lon="5.70798">
        <ele>301.427089</ele>
        <time>2023-12-12T08:40:06.000Z</time>
      </trkpt>
      <trkpt lat="45.49437" lon="5.70801">
        <ele>301.367623</ele>
        <time>2023-12-12T08:40:07.000Z</time>
      </trkpt>
      <trkpt lat="45.49476" lon="5.70827">
        <ele>300.845948</ele>
        <time>2023-12-12T08:40:16.000Z</time>
      </trkpt>
      <trkpt lat="45.49509" lon="5.70855">
        <ele>300.381656</ele>
        <time>2023-12-12T08:40:24.000Z</time>
      </trkpt>
      <trkpt lat="45.49517" lon="5.70863">
        <ele>300.263337</ele>
        <time>2023-12-12T08:40:26.000Z</time>
      </trkpt>
      <trkpt lat="45.4953" lon="5.70874">
        <ele>300.081913</ele>
        <time>2023-12-12T08:40:29.000Z</time>
      </trkpt>
      <trkpt lat="45.49539" lon="5.70882">
        <ele>299.959058</ele>
        <time>2023-12-12T08:40:31.000Z</time>
      </trkpt>
      <trkpt lat="45.49572" lon="5.70911">
        <ele>298.662087</ele>
        <time>2023-12-12T08:40:38.000Z</time>
      </trkpt>
      <trkpt lat="45.49577" lon="5.70916">
        <ele>298.438073</ele>
        <time>2023-12-12T08:40:39.000Z</time>
      </trkpt>
      <trkpt lat="45.49603" lon="5.70945">
        <ele>297.242243</ele>
        <time>2023-12-12T08:40:44.000Z</time>
      </trkpt>
      <trkpt lat="45.49614" lon="5.70959">
        <ele>296.723874</ele>
        <time>2023-12-12T08:40:46.000Z</time>
      </trkpt>
      <trkpt lat="45.49624" lon="5.70973">
        <ele>296.195044</ele>
        <time>2023-12-12T08:40:48.000Z</time>
      </trkpt>
      <trkpt lat="45.49639" lon="5.70995">
        <ele>295.42454</ele>
        <time>2023-12-12T08:40:51.000Z</time>
      </trkpt>
      <trkpt lat="45.49642" lon="5.71001">
        <ele>295.216611</ele>
        <time>2023-12-12T08:40:52.000Z</time>
      </trkpt>
      <trkpt lat="45.49671" lon="5.71046">
        <ele>293.675753</ele>
        <time>2023-12-12T08:40:59.000Z</time>
      </trkpt>
      <trkpt lat="45.49675" lon="5.71053">
        <ele>293.443783</ele>
        <time>2023-12-12T08:41:00.000Z</time>
      </trkpt>
      <trkpt lat="45.49693" lon="5.71079">
        <ele>292.379075</ele>
        <time>2023-12-12T08:41:04.000Z</time>
      </trkpt>
      <trkpt lat="45.49709" lon="5.71095">
        <ele>291.576642</ele>
        <time>2023-12-12T08:41:07.000Z</time>
      </trkpt>
      <trkpt lat="45.4972" lon="5.71102">
        <ele>291.049466</ele>
        <time>2023-12-12T08:41:09.000Z</time>
      </trkpt>
      <trkpt lat="45.49726" lon="5.71105">
        <ele>290.794661</ele>
        <time>2023-12-12T08:41:10.000Z</time>
      </trkpt>
      <trkpt lat="45.49737" lon="5.71109">
        <ele>290.327928</ele>
        <time>2023-12-12T08:41:12.000Z</time>
      </trkpt>
      <trkpt lat="45.49768" lon="5.71128">
        <ele>288.912414</ele>
        <time>2023-12-12T08:41:17.000Z</time>
      </trkpt>
      <trkpt lat="45.49772" lon="5.71133">
        <ele>288.683296</ele>
        <time>2023-12-12T08:41:18.000Z</time>
      </trkpt>
      <trkpt lat="45.49777" lon="5.7114">
        <ele>288.412377</ele>
        <time>2023-12-12T08:41:19.000Z</time>
      </trkpt>
      <trkpt lat="45.49787" lon="5.71162">
        <ele>287.626024</ele>
        <time>2023-12-12T08:41:22.000Z</time>
      </trkpt>
      <trkpt lat="45.49791" lon="5.71175">
        <ele>287.201682</ele>
        <time>2023-12-12T08:41:24.000Z</time>
      </trkpt>
      <trkpt lat="45.49797" lon="5.71204">
        <ele>286.324063</ele>
        <time>2023-12-12T08:41:28.000Z</time>
      </trkpt>
      <trkpt lat="45.49799" lon="5.71214">
        <ele>286.032829</ele>
        <time>2023-12-12T08:41:29.000Z</time>
      </trkpt>
      <trkpt lat="45.49801" lon="5.71231">
        <ele>285.577692</ele>
        <time>2023-12-12T08:41:31.000Z</time>
      </trkpt>
      <trkpt lat="45.49803" lon="5.71285">
        <ele>284.284222</ele>
        <time>2023-12-12T08:41:37.000Z</time>
      </trkpt>
      <trkpt lat="45.49803" lon="5.71295">
        <ele>284.041331</ele>
        <time>2023-12-12T08:41:38.000Z</time>
      </trkpt>
      <trkpt lat="45.49802" lon="5.71305">
        <ele>283.799232</ele>
        <time>2023-12-12T08:41:39.000Z</time>
      </trkpt>
      <trkpt lat="45.49803" lon="5.71325">
        <ele>283.317426</ele>
        <time>2023-12-12T08:41:41.000Z</time>
      </trkpt>
      <trkpt lat="45.49806" lon="5.71337">
        <ele>283.024939</ele>
        <time>2023-12-12T08:41:42.000Z</time>
      </trkpt>
      <trkpt lat="45.4981" lon="5.71344">
        <ele>282.791196</ele>
        <time>2023-12-12T08:41:43.000Z</time>
      </trkpt>
      <trkpt lat="45.49823" lon="5.71354">
        <ele>282.302359</ele>
        <time>2023-12-12T08:41:45.000Z</time>
      </trkpt>
      <trkpt lat="45.49845" lon="5.71359">
        <ele>281.525952</ele>
        <time>2023-12-12T08:41:48.000Z</time>
      </trkpt>
      <trkpt lat="45.49853" lon="5.71361">
        <ele>281.277886</ele>
        <time>2023-12-12T08:41:49.000Z</time>
      </trkpt>
      <trkpt lat="45.4986" lon="5.71364">
        <ele>281.022179</ele>
        <time>2023-12-12T08:41:50.000Z</time>
      </trkpt>
      <trkpt lat="45.49866" lon="5.71368">
        <ele>280.771047</ele>
        <time>2023-12-12T08:41:51.000Z</time>
      </trkpt>
      <trkpt lat="45.49878" lon="5.71378">
        <ele>280.302443</ele>
        <time>2023-12-12T08:41:53.000Z</time>
      </trkpt>
      <trkpt lat="45.49902" lon="5.71401">
        <ele>280.151675</ele>
        <time>2023-12-12T08:41:58.000Z</time>
      </trkpt>
      <trkpt lat="45.49926" lon="5.71416">
        <ele>281.264923</ele>
        <time>2023-12-12T08:42:04.000Z</time>
      </trkpt>
      <trkpt lat="45.49929" lon="5.71417">
        <ele>281.416638</ele>
        <time>2023-12-12T08:42:05.000Z</time>
      </trkpt>
      <trkpt lat="45.49939" lon="5.71418">
        <ele>281.82748</ele>
        <time>2023-12-12T08:42:09.000Z</time>
      </trkpt>
      <trkpt lat="45.4994" lon="5.71417">
        <ele>281.88402</ele>
        <time>2023-12-12T08:42:12.000Z</time>
      </trkpt>
      <trkpt lat="45.49945" lon="5.7141">
        <ele>282.206816</ele>
        <time>2023-12-12T08:42:20.000Z</time>
      </trkpt>
      <trkpt lat="45.49958" lon="5.71403">
        <ele>282.80983</ele>
        <time>2023-12-12T08:42:25.000Z</time>
      </trkpt>
      <trkpt lat="45.49961" lon="5.71401">
        <ele>282.939161</ele>
        <time>2023-12-12T08:42:26.000Z</time>
      </trkpt>
      <trkpt lat="45.49978" lon="5.71399">
        <ele>283.685903</ele>
        <time>2023-12-12T08:42:31.000Z</time>
      </trkpt>
      <trkpt lat="45.49986" lon="5.714">
        <ele>284.01954</ele>
        <time>2023-12-12T08:42:33.000Z</time>
      </trkpt>
      <trkpt lat="45.50004" lon="5.71407">
        <ele>284.81876</ele>
        <time>2023-12-12T08:42:37.000Z</time>
      </trkpt>
      <trkpt lat="45.50011" lon="5.71416">
        <ele>285.242009</ele>
        <time>2023-12-12T08:42:39.000Z</time>
      </trkpt>
      <trkpt lat="45.50016" lon="5.71428">
        <ele>285.67776</ele>
        <time>2023-12-12T08:42:41.000Z</time>
      </trkpt>
      <trkpt lat="45.50019" lon="5.71449">
        <ele>286.32863</ele>
        <time>2023-12-12T08:42:44.000Z</time>
      </trkpt>
      <trkpt lat="45.50018" lon="5.71462">
        <ele>286.737627</ele>
        <time>2023-12-12T08:42:46.000Z</time>
      </trkpt>
      <trkpt lat="45.50014" lon="5.71481">
        <ele>287.330114</ele>
        <time>2023-12-12T08:42:49.000Z</time>
      </trkpt>
      <trkpt lat="45.50013" lon="5.71488">
        <ele>287.551486</ele>
        <time>2023-12-12T08:42:50.000Z</time>
      </trkpt>
      <trkpt lat="45.50006" lon="5.7151">
        <ele>288.53355</ele>
        <time>2023-12-12T08:42:54.000Z</time>
      </trkpt>
      <trkpt lat="45.50005" lon="5.71515">
        <ele>288.763232</ele>
        <time>2023-12-12T08:42:55.000Z</time>
      </trkpt>
      <trkpt lat="45.5" lon="5.71535">
        <ele>289.611346</ele>
        <time>2023-12-12T08:42:59.000Z</time>
      </trkpt>
      <trkpt lat="45.49996" lon="5.71549">
        <ele>290.220759</ele>
        <time>2023-12-12T08:43:02.000Z</time>
      </trkpt>
      <trkpt lat="45.49989" lon="5.71577">
        <ele>291.452489</ele>
        <time>2023-12-12T08:43:08.000Z</time>
      </trkpt>
      <trkpt lat="45.49985" lon="5.7159">
        <ele>292.019247</ele>
        <time>2023-12-12T08:43:11.000Z</time>
      </trkpt>
      <trkpt lat="45.49983" lon="5.71599">
        <ele>292.407093</ele>
        <time>2023-12-12T08:43:13.000Z</time>
      </trkpt>
      <trkpt lat="45.49982" lon="5.71603">
        <ele>292.596026</ele>
        <time>2023-12-12T08:43:14.000Z</time>
      </trkpt>
      <trkpt lat="45.49975" lon="5.71618">
        <ele>293.328581</ele>
        <time>2023-12-12T08:43:18.000Z</time>
      </trkpt>
      <trkpt lat="45.49961" lon="5.71618">
        <ele>294.127046</ele>
        <time>2023-12-12T08:43:22.000Z</time>
      </trkpt>
      <trkpt lat="45.49953" lon="5.71625">
        <ele>294.685366</ele>
        <time>2023-12-12T08:43:25.000Z</time>
      </trkpt>
      <trkpt lat="45.49952" lon="5.71629">
        <ele>294.876179</ele>
        <time>2023-12-12T08:43:26.000Z</time>
      </trkpt>
      <trkpt lat="45.4995" lon="5.71652">
        <ele>295.804114</ele>
        <time>2023-12-12T08:43:31.000Z</time>
      </trkpt>
      <trkpt lat="45.49948" lon="5.71656">
        <ele>295.994079</ele>
        <time>2023-12-12T08:43:32.000Z</time>
      </trkpt>
      <trkpt lat="45.49936" lon="5.71682">
        <ele>297.285514</ele>
        <time>2023-12-12T08:43:39.000Z</time>
      </trkpt>
      <trkpt lat="45.49929" lon="5.71691">
        <ele>297.823235</ele>
        <time>2023-12-12T08:43:42.000Z</time>
      </trkpt>
      <trkpt lat="45.49925" lon="5.71704">
        <ele>298.27477</ele>
        <time>2023-12-12T08:43:46.000Z</time>
      </trkpt>
      <trkpt lat="45.49922" lon="5.71709">
        <ele>298.45526</ele>
        <time>2023-12-12T08:43:48.000Z</time>
      </trkpt>
      <trkpt lat="45.4992" lon="5.71716">
        <ele>298.671714</ele>
        <time>2023-12-12T08:43:51.000Z</time>
      </trkpt>
      <trkpt lat="45.49921" lon="5.7173">
        <ele>299.063855</ele>
        <time>2023-12-12T08:43:55.000Z</time>
      </trkpt>
      <trkpt lat="45.49914" lon="5.71739">
        <ele>299.448454</ele>
        <time>2023-12-12T08:43:58.000Z</time>
      </trkpt>
      <trkpt lat="45.49909" lon="5.71745">
        <ele>299.713199</ele>
        <time>2023-12-12T08:44:00.000Z</time>
      </trkpt>
      <trkpt lat="45.49899" lon="5.71757">
        <ele>300.274055</ele>
        <time>2023-12-12T08:44:04.000Z</time>
      </trkpt>
      <trkpt lat="45.49887" lon="5.71768">
        <ele>300.843123</ele>
        <time>2023-12-12T08:44:08.000Z</time>
      </trkpt>
      <trkpt lat="45.49876" lon="5.71779">
        <ele>301.405435</ele>
        <time>2023-12-12T08:44:12.000Z</time>
      </trkpt>
      <trkpt lat="45.49861" lon="5.71792">
        <ele>302.147601</ele>
        <time>2023-12-12T08:44:17.000Z</time>
      </trkpt>
      <trkpt lat="45.49851" lon="5.718">
        <ele>302.607551</ele>
        <time>2023-12-12T08:44:20.000Z</time>
      </trkpt>
      <trkpt lat="45.49837" lon="5.71817">
        <ele>303.391785</ele>
        <time>2023-12-12T08:44:25.000Z</time>
      </trkpt>
      <trkpt lat="45.49816" lon="5.71856">
        <ele>304.806013</ele>
        <time>2023-12-12T08:44:34.000Z</time>
      </trkpt>
      <trkpt lat="45.4981" lon="5.71864">
        <ele>305.129368</ele>
        <time>2023-12-12T08:44:36.000Z</time>
      </trkpt>
      <trkpt lat="45.49805" lon="5.71872">
        <ele>305.43487</ele>
        <time>2023-12-12T08:44:38.000Z</time>
      </trkpt>
      <trkpt lat="45.49787" lon="5.71896">
        <ele>306.234602</ele>
        <time>2023-12-12T08:44:44.000Z</time>
      </trkpt>
      <trkpt lat="45.49763" lon="5.71911">
        <ele>307.060366</ele>
        <time>2023-12-12T08:44:50.000Z</time>
      </trkpt>
      <trkpt lat="45.49755" lon="5.71916">
        <ele>307.342152</ele>
        <time>2023-12-12T08:44:52.000Z</time>
      </trkpt>
      <trkpt lat="45.49735" lon="5.71926">
        <ele>308.034959</ele>
        <time>2023-12-12T08:44:57.000Z</time>
      </trkpt>
      <trkpt lat="45.49697" lon="5.71945">
        <ele>309.336327</ele>
        <time>2023-12-12T08:45:06.000Z</time>
      </trkpt>
      <trkpt lat="45.49693" lon="5.71947">
        <ele>309.479744</ele>
        <time>2023-12-12T08:45:07.000Z</time>
      </trkpt>
      <trkpt lat="45.49676" lon="5.71956">
        <ele>310.058718</ele>
        <time>2023-12-12T08:45:11.000Z</time>
      </trkpt>
      <trkpt lat="45.49638" lon="5.71977">
        <ele>311.476483</ele>
        <time>2023-12-12T08:45:20.000Z</time>
      </trkpt>
      <trkpt lat="45.49605" lon="5.71994">
        <ele>313.305897</ele>
        <time>2023-12-12T08:45:28.000Z</time>
      </trkpt>
      <trkpt lat="45.4959" lon="5.72002">
        <ele>314.188434</ele>
        <time>2023-12-12T08:45:32.000Z</time>
      </trkpt>
      <trkpt lat="45.49568" lon="5.72014">
        <ele>315.403547</ele>
        <time>2023-12-12T08:45:38.000Z</time>
      </trkpt>
      <trkpt lat="45.4955" lon="5.72024">
        <ele>316.419468</ele>
        <time>2023-12-12T08:45:43.000Z</time>
      </trkpt>
      <trkpt lat="45.49546" lon="5.72026">
        <ele>316.632076</ele>
        <time>2023-12-12T08:45:44.000Z</time>
      </trkpt>
      <trkpt lat="45.49524" lon="5.72036">
        <ele>317.853617</ele>
        <time>2023-12-12T08:45:50.000Z</time>
      </trkpt>
      <trkpt lat="45.4951" lon="5.72044">
        <ele>318.657237</ele>
        <time>2023-12-12T08:45:54.000Z</time>
      </trkpt>
      <trkpt lat="45.49506" lon="5.72046">
        <ele>318.858723</ele>
        <time>2023-12-12T08:45:55.000Z</time>
      </trkpt>
      <trkpt lat="45.49495" lon="5.72051">
        <ele>319.458232</ele>
        <time>2023-12-12T08:45:58.000Z</time>
      </trkpt>
      <trkpt lat="45.49481" lon="5.72059">
        <ele>320.263175</ele>
        <time>2023-12-12T08:46:02.000Z</time>
      </trkpt>
      <trkpt lat="45.49472" lon="5.72063">
        <ele>320.642795</ele>
        <time>2023-12-12T08:46:05.000Z</time>
      </trkpt>
      <trkpt lat="45.49469" lon="5.72065">
        <ele>320.663486</ele>
        <time>2023-12-12T08:46:06.000Z</time>
      </trkpt>
      <trkpt lat="45.49466" lon="5.72074">
        <ele>320.709292</ele>
        <time>2023-12-12T08:46:08.000Z</time>
      </trkpt>
      <trkpt lat="45.49463" lon="5.72085">
        <ele>320.761669</ele>
        <time>2023-12-12T08:46:10.000Z</time>
      </trkpt>
      <trkpt lat="45.49455" lon="5.72114">
        <ele>320.903324</ele>
        <time>2023-12-12T08:46:16.000Z</time>
      </trkpt>
      <trkpt lat="45.49454" lon="5.72119">
        <ele>320.924662</ele>
        <time>2023-12-12T08:46:17.000Z</time>
      </trkpt>
      <trkpt lat="45.49446" lon="5.72157">
        <ele>321.107702</ele>
        <time>2023-12-12T08:46:24.000Z</time>
      </trkpt>
      <trkpt lat="45.49444" lon="5.72163">
        <ele>321.137263</ele>
        <time>2023-12-12T08:46:25.000Z</time>
      </trkpt>
      <trkpt lat="45.49433" lon="5.7221">
        <ele>321.363797</ele>
        <time>2023-12-12T08:46:33.000Z</time>
      </trkpt>
      <trkpt lat="45.49429" lon="5.72226">
        <ele>321.441823</ele>
        <time>2023-12-12T08:46:36.000Z</time>
      </trkpt>
      <trkpt lat="45.4943" lon="5.72236">
        <ele>321.489691</ele>
        <time>2023-12-12T08:46:38.000Z</time>
      </trkpt>
      <trkpt lat="45.49435" lon="5.72247">
        <ele>321.547297</ele>
        <time>2023-12-12T08:46:40.000Z</time>
      </trkpt>
      <trkpt lat="45.49442" lon="5.72256">
        <ele>321.614846</ele>
        <time>2023-12-12T08:46:42.000Z</time>
      </trkpt>
      <trkpt lat="45.49455" lon="5.72272">
        <ele>321.722474</ele>
        <time>2023-12-12T08:46:45.000Z</time>
      </trkpt>
      <trkpt lat="45.49463" lon="5.72282">
        <ele>321.78954</ele>
        <time>2023-12-12T08:46:47.000Z</time>
      </trkpt>
      <trkpt lat="45.49473" lon="5.72295">
        <ele>321.7436</ele>
        <time>2023-12-12T08:46:50.000Z</time>
      </trkpt>
      <trkpt lat="45.49488" lon="5.72313">
        <ele>321.668556</ele>
        <time>2023-12-12T08:46:54.000Z</time>
      </trkpt>
      <trkpt lat="45.49502" lon="5.7233">
        <ele>321.598976</ele>
        <time>2023-12-12T08:46:58.000Z</time>
      </trkpt>
      <trkpt lat="45.49526" lon="5.72363">
        <ele>321.470805</ele>
        <time>2023-12-12T08:47:06.000Z</time>
      </trkpt>
      <trkpt lat="45.4954" lon="5.72383">
        <ele>321.395586</ele>
        <time>2023-12-12T08:47:11.000Z</time>
      </trkpt>
      <trkpt lat="45.49557" lon="5.72408">
        <ele>321.301739</ele>
        <time>2023-12-12T08:47:17.000Z</time>
      </trkpt>
      <trkpt lat="45.4956" lon="5.72413">
        <ele>321.285803</ele>
        <time>2023-12-12T08:47:18.000Z</time>
      </trkpt>
      <trkpt lat="45.49582" lon="5.7245">
        <ele>321.154378</ele>
        <time>2023-12-12T08:47:26.000Z</time>
      </trkpt>
      <trkpt lat="45.49589" lon="5.72464">
        <ele>321.10725</ele>
        <time>2023-12-12T08:47:29.000Z</time>
      </trkpt>
      <trkpt lat="45.49617" lon="5.72514">
        <ele>322.109059</ele>
        <time>2023-12-12T08:47:40.000Z</time>
      </trkpt>
      <trkpt lat="45.49633" lon="5.72539">
        <ele>322.647296</ele>
        <time>2023-12-12T08:47:46.000Z</time>
      </trkpt>
      <trkpt lat="45.49639" lon="5.72548">
        <ele>322.837312</ele>
        <time>2023-12-12T08:47:48.000Z</time>
      </trkpt>
      <trkpt lat="45.49642" lon="5.72552">
        <ele>322.937138</ele>
        <time>2023-12-12T08:47:49.000Z</time>
      </trkpt>
      <trkpt lat="45.49648" lon="5.72561">
        <ele>323.133326</ele>
        <time>2023-12-12T08:47:51.000Z</time>
      </trkpt>
      <trkpt lat="45.4966" lon="5.72576">
        <ele>323.505966</ele>
        <time>2023-12-12T08:47:55.000Z</time>
      </trkpt>
      <trkpt lat="45.4967" lon="5.72587">
        <ele>323.778229</ele>
        <time>2023-12-12T08:47:58.000Z</time>
      </trkpt>
      <trkpt lat="45.49687" lon="5.72611">
        <ele>324.329022</ele>
        <time>2023-12-12T08:48:04.000Z</time>
      </trkpt>
      <trkpt lat="45.49692" lon="5.72622">
        <ele>324.541094</ele>
        <time>2023-12-12T08:48:06.000Z</time>
      </trkpt>
      <trkpt lat="45.49699" lon="5.72636">
        <ele>324.806519</ele>
        <time>2023-12-12T08:48:09.000Z</time>
      </trkpt>
      <trkpt lat="45.4972" lon="5.7267">
        <ele>325.478894</ele>
        <time>2023-12-12T08:48:16.000Z</time>
      </trkpt>
      <trkpt lat="45.49741" lon="5.72697">
        <ele>326.022464</ele>
        <time>2023-12-12T08:48:22.000Z</time>
      </trkpt>
      <trkpt lat="45.49759" lon="5.7272">
        <ele>326.480653</ele>
        <time>2023-12-12T08:48:27.000Z</time>
      </trkpt>
      <trkpt lat="45.49762" lon="5.72724">
        <ele>326.574412</ele>
        <time>2023-12-12T08:48:28.000Z</time>
      </trkpt>
      <trkpt lat="45.49799" lon="5.72772">
        <ele>327.524669</ele>
        <time>2023-12-12T08:48:38.000Z</time>
      </trkpt>
      <trkpt lat="45.49807" lon="5.72781">
        <ele>327.715039</ele>
        <time>2023-12-12T08:48:40.000Z</time>
      </trkpt>
      <trkpt lat="45.4981" lon="5.72786">
        <ele>327.810637</ele>
        <time>2023-12-12T08:48:41.000Z</time>
      </trkpt>
      <trkpt lat="45.49836" lon="5.72817">
        <ele>328.459945</ele>
        <time>2023-12-12T08:48:48.000Z</time>
      </trkpt>
      <trkpt lat="45.4984" lon="5.7282">
        <ele>328.548476</ele>
        <time>2023-12-12T08:48:49.000Z</time>
      </trkpt>
      <trkpt lat="45.49864" lon="5.72826">
        <ele>329.000207</ele>
        <time>2023-12-12T08:48:54.000Z</time>
      </trkpt>
      <trkpt lat="45.49874" lon="5.72823">
        <ele>329.186615</ele>
        <time>2023-12-12T08:48:56.000Z</time>
      </trkpt>
      <trkpt lat="45.49889" lon="5.72816">
        <ele>329.476052</ele>
        <time>2023-12-12T08:48:59.000Z</time>
      </trkpt>
      <trkpt lat="45.49913" lon="5.72807">
        <ele>329.948132</ele>
        <time>2023-12-12T08:49:04.000Z</time>
      </trkpt>
      <trkpt lat="45.49918" lon="5.72807">
        <ele>330.037576</ele>
        <time>2023-12-12T08:49:05.000Z</time>
      </trkpt>
      <trkpt lat="45.49923" lon="5.72806">
        <ele>330.126688</ele>
        <time>2023-12-12T08:49:06.000Z</time>
      </trkpt>
      <trkpt lat="45.49927" lon="5.72807">
        <ele>330.208531</ele>
        <time>2023-12-12T08:49:07.000Z</time>
      </trkpt>
      <trkpt lat="45.49931" lon="5.72808">
        <ele>330.27869</ele>
        <time>2023-12-12T08:49:08.000Z</time>
      </trkpt>
      <trkpt lat="45.49934" lon="5.72809">
        <ele>330.330814</ele>
        <time>2023-12-12T08:49:09.000Z</time>
      </trkpt>
      <trkpt lat="45.49937" lon="5.7281">
        <ele>330.395531</ele>
        <time>2023-12-12T08:49:11.000Z</time>
      </trkpt>
      <trkpt lat="45.49948" lon="5.72812">
        <ele>330.595383</ele>
        <time>2023-12-12T08:49:17.000Z</time>
      </trkpt>
      <trkpt lat="45.49967" lon="5.72819">
        <ele>330.968836</ele>
        <time>2023-12-12T08:49:22.000Z</time>
      </trkpt>
      <trkpt lat="45.4999" lon="5.72839">
        <ele>331.465103</ele>
        <time>2023-12-12T08:49:28.000Z</time>
      </trkpt>
      <trkpt lat="45.49994" lon="5.72843">
        <ele>331.545485</ele>
        <time>2023-12-12T08:49:29.000Z</time>
      </trkpt>
      <trkpt lat="45.49996" lon="5.72847">
        <ele>331.623777</ele>
        <time>2023-12-12T08:49:30.000Z</time>
      </trkpt>
      <trkpt lat="45.50008" lon="5.72871">
        <ele>332.000108</ele>
        <time>2023-12-12T08:49:35.000Z</time>
      </trkpt>
      <trkpt lat="45.50009" lon="5.72875">
        <ele>332.102247</ele>
        <time>2023-12-12T08:49:36.000Z</time>
      </trkpt>
      <trkpt lat="45.50016" lon="5.72895">
        <ele>332.545104</ele>
        <time>2023-12-12T08:49:41.000Z</time>
      </trkpt>
      <trkpt lat="45.50017" lon="5.72898">
        <ele>332.605976</ele>
        <time>2023-12-12T08:49:42.000Z</time>
      </trkpt>
      <trkpt lat="45.50017" lon="5.729">
        <ele>332.650981</ele>
        <time>2023-12-12T08:49:43.000Z</time>
      </trkpt>
      <trkpt lat="45.50022" lon="5.72905">
        <ele>332.82285</ele>
        <time>2023-12-12T08:49:46.000Z</time>
      </trkpt>
      <trkpt lat="45.50029" lon="5.72919">
        <ele>333.174462</ele>
        <time>2023-12-12T08:49:51.000Z</time>
      </trkpt>
      <trkpt lat="45.5003" lon="5.72932">
        <ele>333.441685</ele>
        <time>2023-12-12T08:49:58.000Z</time>
      </trkpt>
      <trkpt lat="45.50031" lon="5.72933">
        <ele>333.456523</ele>
        <time>2023-12-12T08:50:08.000Z</time>
      </trkpt>
      <trkpt lat="45.50031" lon="5.72933">
        <ele>333.456523</ele>
        <time>2023-12-12T08:50:13.000Z</time>
      </trkpt>
      <trkpt lat="45.50031" lon="5.72933">
        <ele>333.456523</ele>
        <time>2023-12-12T08:50:24.000Z</time>
      </trkpt>
      <trkpt lat="45.50031" lon="5.72933">
        <ele>333.458536</ele>
        <time>2023-12-12T08:50:28.000Z</time>
      </trkpt>
      <trkpt lat="45.50031" lon="5.72933">
        <ele>333.462044</ele>
        <time>2023-12-12T08:50:34.000Z</time>
      </trkpt>
      <trkpt lat="45.50031" lon="5.72934">
        <ele>333.470379</ele>
        <time>2023-12-12T08:50:44.000Z</time>
      </trkpt>
      <trkpt lat="45.50031" lon="5.72934">
        <ele>333.470379</ele>
        <time>2023-12-12T08:50:47.000Z</time>
      </trkpt>
      <trkpt lat="45.50031" lon="5.72934">
        <ele>333.479228</ele>
        <time>2023-12-12T08:50:50.000Z</time>
      </trkpt>
      <trkpt lat="45.50028" lon="5.72929">
        <ele>333.586529</ele>
        <time>2023-12-12T08:50:52.000Z</time>
      </trkpt>
      <trkpt lat="45.5003" lon="5.72922">
        <ele>333.747252</ele>
        <time>2023-12-12T08:50:55.000Z</time>
      </trkpt>
      <trkpt lat="45.50033" lon="5.72925">
        <ele>333.85286</ele>
        <time>2023-12-12T08:50:58.000Z</time>
      </trkpt>
      <trkpt lat="45.50025" lon="5.72931">
        <ele>334.115001</ele>
        <time>2023-12-12T08:51:02.000Z</time>
      </trkpt>
      <trkpt lat="45.50014" lon="5.7294">
        <ele>334.463864</ele>
        <time>2023-12-12T08:51:07.000Z</time>
      </trkpt>
      <trkpt lat="45.5001" lon="5.72947">
        <ele>334.657038</ele>
        <time>2023-12-12T08:51:10.000Z</time>
      </trkpt>
      <trkpt lat="45.50006" lon="5.72953">
        <ele>334.828641</ele>
        <time>2023-12-12T08:51:13.000Z</time>
      </trkpt>
      <trkpt lat="45.50001" lon="5.72959">
        <ele>335.007688</ele>
        <time>2023-12-12T08:51:16.000Z</time>
      </trkpt>
      <trkpt lat="45.49996" lon="5.72966">
        <ele>335.214111</ele>
        <time>2023-12-12T08:51:20.000Z</time>
      </trkpt>
      <trkpt lat="45.49991" lon="5.72972">
        <ele>335.40144</ele>
        <time>2023-12-12T08:51:23.000Z</time>
      </trkpt>
      <trkpt lat="45.49983" lon="5.7298">
        <ele>335.682576</ele>
        <time>2023-12-12T08:51:27.000Z</time>
      </trkpt>
      <trkpt lat="45.4998" lon="5.72986">
        <ele>335.816358</ele>
        <time>2023-12-12T08:51:29.000Z</time>
      </trkpt>
      <trkpt lat="45.49978" lon="5.73007">
        <ele>336.260617</ele>
        <time>2023-12-12T08:51:35.000Z</time>
      </trkpt>
      <trkpt lat="45.49977" lon="5.7302">
        <ele>336.522235</ele>
        <time>2023-12-12T08:51:38.000Z</time>
      </trkpt>
      <trkpt lat="45.49976" lon="5.73025">
        <ele>336.619252</ele>
        <time>2023-12-12T08:51:39.000Z</time>
      </trkpt>
      <trkpt lat="45.49973" lon="5.73053">
        <ele>337.197769</ele>
        <time>2023-12-12T08:51:45.000Z</time>
      </trkpt>
      <trkpt lat="45.49965" lon="5.73092">
        <ele>338.285232</ele>
        <time>2023-12-12T08:51:53.000Z</time>
      </trkpt>
      <trkpt lat="45.49962" lon="5.731">
        <ele>338.556202</ele>
        <time>2023-12-12T08:51:55.000Z</time>
      </trkpt>
      <trkpt lat="45.49955" lon="5.73108">
        <ele>338.891887</ele>
        <time>2023-12-12T08:51:57.000Z</time>
      </trkpt>
      <trkpt lat="45.49951" lon="5.73109">
        <ele>339.040141</ele>
        <time>2023-12-12T08:51:58.000Z</time>
      </trkpt>
      <trkpt lat="45.49948" lon="5.7311">
        <ele>339.173827</ele>
        <time>2023-12-12T08:51:59.000Z</time>
      </trkpt>
      <trkpt lat="45.49933" lon="5.73118">
        <ele>339.781509</ele>
        <time>2023-12-12T08:52:04.000Z</time>
      </trkpt>
      <trkpt lat="45.49922" lon="5.7313">
        <ele>340.306032</ele>
        <time>2023-12-12T08:52:08.000Z</time>
      </trkpt>
      <trkpt lat="45.49915" lon="5.73135">
        <ele>340.598505</ele>
        <time>2023-12-12T08:52:10.000Z</time>
      </trkpt>
      <trkpt lat="45.49905" lon="5.7314">
        <ele>340.994204</ele>
        <time>2023-12-12T08:52:13.000Z</time>
      </trkpt>
      <trkpt lat="45.49898" lon="5.73141">
        <ele>341.279234</ele>
        <time>2023-12-12T08:52:15.000Z</time>
      </trkpt>
      <trkpt lat="45.49895" lon="5.73141">
        <ele>341.383637</ele>
        <time>2023-12-12T08:52:16.000Z</time>
      </trkpt>
      <trkpt lat="45.49877" lon="5.7314">
        <ele>342.096952</ele>
        <time>2023-12-12T08:52:21.000Z</time>
      </trkpt>
      <trkpt lat="45.49873" lon="5.73141">
        <ele>342.220129</ele>
        <time>2023-12-12T08:52:22.000Z</time>
      </trkpt>
      <trkpt lat="45.4986" lon="5.73144">
        <ele>342.739447</ele>
        <time>2023-12-12T08:52:26.000Z</time>
      </trkpt>
      <trkpt lat="45.49846" lon="5.73146">
        <ele>343.280479</ele>
        <time>2023-12-12T08:52:31.000Z</time>
      </trkpt>
      <trkpt lat="45.49843" lon="5.73147">
        <ele>343.388685</ele>
        <time>2023-12-12T08:52:32.000Z</time>
      </trkpt>
      <trkpt lat="45.49826" lon="5.73149">
        <ele>344.09014</ele>
        <time>2023-12-12T08:52:38.000Z</time>
      </trkpt>
      <trkpt lat="45.49817" lon="5.73148">
        <ele>345.772934</ele>
        <time>2023-12-12T08:52:41.000Z</time>
      </trkpt>
      <trkpt lat="45.49811" lon="5.73149">
        <ele>346.992965</ele>
        <time>2023-12-12T08:52:43.000Z</time>
      </trkpt>
      <trkpt lat="45.49802" lon="5.7315">
        <ele>348.636481</ele>
        <time>2023-12-12T08:52:46.000Z</time>
      </trkpt>
      <trkpt lat="45.49791" lon="5.73152">
        <ele>350.613327</ele>
        <time>2023-12-12T08:52:50.000Z</time>
      </trkpt>
      <trkpt lat="45.49787" lon="5.73155">
        <ele>351.540258</ele>
        <time>2023-12-12T08:52:52.000Z</time>
      </trkpt>
      <trkpt lat="45.49785" lon="5.73157">
        <ele>352.000027</ele>
        <time>2023-12-12T08:52:53.000Z</time>
      </trkpt>
      <trkpt lat="45.49779" lon="5.73167">
        <ele>353.717166</ele>
        <time>2023-12-12T08:52:57.000Z</time>
      </trkpt>
      <trkpt lat="45.49777" lon="5.7317">
        <ele>354.145637</ele>
        <time>2023-12-12T08:52:58.000Z</time>
      </trkpt>
      <trkpt lat="45.49773" lon="5.73181">
        <ele>355.88693</ele>
        <time>2023-12-12T08:53:02.000Z</time>
      </trkpt>
      <trkpt lat="45.4977" lon="5.73189">
        <ele>357.128687</ele>
        <time>2023-12-12T08:53:05.000Z</time>
      </trkpt>
      <trkpt lat="45.49769" lon="5.73192">
        <ele>357.542275</ele>
        <time>2023-12-12T08:53:06.000Z</time>
      </trkpt>
      <trkpt lat="45.49766" lon="5.73202">
        <ele>358.834857</ele>
        <time>2023-12-12T08:53:10.000Z</time>
      </trkpt>
      <trkpt lat="45.49763" lon="5.73209">
        <ele>359.998647</ele>
        <time>2023-12-12T08:53:14.000Z</time>
      </trkpt>
      <trkpt lat="45.4976" lon="5.73214">
        <ele>360.852397</ele>
        <time>2023-12-12T08:53:17.000Z</time>
      </trkpt>
      <trkpt lat="45.49755" lon="5.73222">
        <ele>362.305173</ele>
        <time>2023-12-12T08:53:22.000Z</time>
      </trkpt>
      <trkpt lat="45.49752" lon="5.73227">
        <ele>363.06656</ele>
        <time>2023-12-12T08:53:25.000Z</time>
      </trkpt>
      <trkpt lat="45.49752" lon="5.73229">
        <ele>363.327279</ele>
        <time>2023-12-12T08:53:26.000Z</time>
      </trkpt>
      <trkpt lat="45.49751" lon="5.73231">
        <ele>363.619692</ele>
        <time>2023-12-12T08:53:27.000Z</time>
      </trkpt>
      <trkpt lat="45.49748" lon="5.73236">
        <ele>364.423068</ele>
        <time>2023-12-12T08:53:30.000Z</time>
      </trkpt>
      <trkpt lat="45.49748" lon="5.73239">
        <ele>364.907411</ele>
        <time>2023-12-12T08:53:32.000Z</time>
      </trkpt>
      <trkpt lat="45.49748" lon="5.73244">
        <ele>365.497596</ele>
        <time>2023-12-12T08:53:34.000Z</time>
      </trkpt>
      <trkpt lat="45.49747" lon="5.73246">
        <ele>365.757096</ele>
        <time>2023-12-12T08:53:35.000Z</time>
      </trkpt>
      <trkpt lat="45.49748" lon="5.73252">
        <ele>366.54746</ele>
        <time>2023-12-12T08:53:38.000Z</time>
      </trkpt>
      <trkpt lat="45.49748" lon="5.73258">
        <ele>367.39475</ele>
        <time>2023-12-12T08:53:41.000Z</time>
      </trkpt>
      <trkpt lat="45.49749" lon="5.73261">
        <ele>367.845769</ele>
        <time>2023-12-12T08:53:43.000Z</time>
      </trkpt>
      <trkpt lat="45.4975" lon="5.73262">
        <ele>368.089621</ele>
        <time>2023-12-12T08:53:44.000Z</time>
      </trkpt>
      <trkpt lat="45.49753" lon="5.73268">
        <ele>368.929342</ele>
        <time>2023-12-12T08:53:47.000Z</time>
      </trkpt>
      <trkpt lat="45.49755" lon="5.73272">
        <ele>369.632747</ele>
        <time>2023-12-12T08:53:50.000Z</time>
      </trkpt>
      <trkpt lat="45.49759" lon="5.73277">
        <ele>370.537882</ele>
        <time>2023-12-12T08:53:53.000Z</time>
      </trkpt>
      <trkpt lat="45.49761" lon="5.73279">
        <ele>371.065436</ele>
        <time>2023-12-12T08:53:55.000Z</time>
      </trkpt>
      <trkpt lat="45.49761" lon="5.73281">
        <ele>371.333272</ele>
        <time>2023-12-12T08:53:56.000Z</time>
      </trkpt>
      <trkpt lat="45.49764" lon="5.73285">
        <ele>372.104443</ele>
        <time>2023-12-12T08:53:59.000Z</time>
      </trkpt>
      <trkpt lat="45.49767" lon="5.73291">
        <ele>373.007379</ele>
        <time>2023-12-12T08:54:02.000Z</time>
      </trkpt>
      <trkpt lat="45.49769" lon="5.73292">
        <ele>373.282469</ele>
        <time>2023-12-12T08:54:03.000Z</time>
      </trkpt>
      <trkpt lat="45.49772" lon="5.73296">
        <ele>374.110936</ele>
        <time>2023-12-12T08:54:06.000Z</time>
      </trkpt>
      <trkpt lat="45.49775" lon="5.733">
        <ele>374.904895</ele>
        <time>2023-12-12T08:54:09.000Z</time>
      </trkpt>
      <trkpt lat="45.49776" lon="5.73301">
        <ele>375.162796</ele>
        <time>2023-12-12T08:54:10.000Z</time>
      </trkpt>
      <trkpt lat="45.49778" lon="5.73305">
        <ele>375.720134</ele>
        <time>2023-12-12T08:54:12.000Z</time>
      </trkpt>
      <trkpt lat="45.49779" lon="5.73306">
        <ele>376.032148</ele>
        <time>2023-12-12T08:54:13.000Z</time>
      </trkpt>
      <trkpt lat="45.49782" lon="5.73312">
        <ele>376.94375</ele>
        <time>2023-12-12T08:54:16.000Z</time>
      </trkpt>
      <trkpt lat="45.49785" lon="5.73317">
        <ele>377.826915</ele>
        <time>2023-12-12T08:54:19.000Z</time>
      </trkpt>
      <trkpt lat="45.49788" lon="5.73319">
        <ele>378.424391</ele>
        <time>2023-12-12T08:54:21.000Z</time>
      </trkpt>
      <trkpt lat="45.49789" lon="5.73321">
        <ele>378.759446</ele>
        <time>2023-12-12T08:54:22.000Z</time>
      </trkpt>
      <trkpt lat="45.49792" lon="5.73326">
        <ele>379.588548</ele>
        <time>2023-12-12T08:54:25.000Z</time>
      </trkpt>
      <trkpt lat="45.49794" lon="5.73329">
        <ele>380.212678</ele>
        <time>2023-12-12T08:54:27.000Z</time>
      </trkpt>
      <trkpt lat="45.49796" lon="5.7333">
        <ele>380.530342</ele>
        <time>2023-12-12T08:54:28.000Z</time>
      </trkpt>
      <trkpt lat="45.49799" lon="5.73335">
        <ele>381.490431</ele>
        <time>2023-12-12T08:54:31.000Z</time>
      </trkpt>
      <trkpt lat="45.49802" lon="5.73342">
        <ele>382.581892</ele>
        <time>2023-12-12T08:54:35.000Z</time>
      </trkpt>
      <trkpt lat="45.49804" lon="5.73346">
        <ele>383.133076</ele>
        <time>2023-12-12T08:54:37.000Z</time>
      </trkpt>
      <trkpt lat="45.49805" lon="5.7335">
        <ele>383.788675</ele>
        <time>2023-12-12T08:54:39.000Z</time>
      </trkpt>
      <trkpt lat="45.49808" lon="5.73356">
        <ele>384.759373</ele>
        <time>2023-12-12T08:54:42.000Z</time>
      </trkpt>
      <trkpt lat="45.49811" lon="5.73362">
        <ele>385.690962</ele>
        <time>2023-12-12T08:54:45.000Z</time>
      </trkpt>
      <trkpt lat="45.49813" lon="5.73368">
        <ele>386.56395</ele>
        <time>2023-12-12T08:54:48.000Z</time>
      </trkpt>
      <trkpt lat="45.49816" lon="5.73372">
        <ele>387.350909</ele>
        <time>2023-12-12T08:54:51.000Z</time>
      </trkpt>
      <trkpt lat="45.49819" lon="5.73375">
        <ele>387.985654</ele>
        <time>2023-12-12T08:54:53.000Z</time>
      </trkpt>
      <trkpt lat="45.4982" lon="5.73377">
        <ele>388.284119</ele>
        <time>2023-12-12T08:54:54.000Z</time>
      </trkpt>
      <trkpt lat="45.49825" lon="5.73383">
        <ele>389.619519</ele>
        <time>2023-12-12T08:54:58.000Z</time>
      </trkpt>
      <trkpt lat="45.49829" lon="5.73388">
        <ele>390.60168</ele>
        <time>2023-12-12T08:55:01.000Z</time>
      </trkpt>
      <trkpt lat="45.49829" lon="5.7339">
        <ele>390.86425</ele>
        <time>2023-12-12T08:55:02.000Z</time>
      </trkpt>
      <trkpt lat="45.49833" lon="5.73395">
        <ele>391.750185</ele>
        <time>2023-12-12T08:55:05.000Z</time>
      </trkpt>
      <trkpt lat="45.49838" lon="5.73402">
        <ele>393.090399</ele>
        <time>2023-12-12T08:55:09.000Z</time>
      </trkpt>
      <trkpt lat="45.4984" lon="5.73405">
        <ele>393.746625</ele>
        <time>2023-12-12T08:55:11.000Z</time>
      </trkpt>
      <trkpt lat="45.49845" lon="5.73411">
        <ele>394.898841</ele>
        <time>2023-12-12T08:55:14.000Z</time>
      </trkpt>
      <trkpt lat="45.49848" lon="5.73416">
        <ele>395.82839</ele>
        <time>2023-12-12T08:55:17.000Z</time>
      </trkpt>
      <trkpt lat="45.4985" lon="5.73422">
        <ele>396.677909</ele>
        <time>2023-12-12T08:55:20.000Z</time>
      </trkpt>
      <trkpt lat="45.4985" lon="5.73424">
        <ele>396.975615</ele>
        <time>2023-12-12T08:55:21.000Z</time>
      </trkpt>
      <trkpt lat="45.49852" lon="5.7343">
        <ele>397.844765</ele>
        <time>2023-12-12T08:55:24.000Z</time>
      </trkpt>
      <trkpt lat="45.49855" lon="5.73438">
        <ele>398.98321</ele>
        <time>2023-12-12T08:55:28.000Z</time>
      </trkpt>
      <trkpt lat="45.49857" lon="5.73445">
        <ele>400.053671</ele>
        <time>2023-12-12T08:55:32.000Z</time>
      </trkpt>
      <trkpt lat="45.49858" lon="5.73447">
        <ele>400.349029</ele>
        <time>2023-12-12T08:55:33.000Z</time>
      </trkpt>
      <trkpt lat="45.49862" lon="5.73455">
        <ele>401.658972</ele>
        <time>2023-12-12T08:55:37.000Z</time>
      </trkpt>
      <trkpt lat="45.49864" lon="5.73463">
        <ele>402.801169</ele>
        <time>2023-12-12T08:55:41.000Z</time>
      </trkpt>
      <trkpt lat="45.49866" lon="5.73466">
        <ele>403.359668</ele>
        <time>2023-12-12T08:55:43.000Z</time>
      </trkpt>
      <trkpt lat="45.4987" lon="5.73476">
        <ele>404.889388</ele>
        <time>2023-12-12T08:55:48.000Z</time>
      </trkpt>
      <trkpt lat="45.49874" lon="5.73483">
        <ele>406.067609</ele>
        <time>2023-12-12T08:55:52.000Z</time>
      </trkpt>
      <trkpt lat="45.49874" lon="5.73485">
        <ele>406.309263</ele>
        <time>2023-12-12T08:55:53.000Z</time>
      </trkpt>
      <trkpt lat="45.49876" lon="5.73492">
        <ele>407.278678</ele>
        <time>2023-12-12T08:55:58.000Z</time>
      </trkpt>
      <trkpt lat="45.49876" lon="5.73492">
        <ele>407.360809</ele>
        <time>2023-12-12T08:56:00.000Z</time>
      </trkpt>
      <trkpt lat="45.49876" lon="5.73493">
        <ele>407.414078</ele>
        <time>2023-12-12T08:56:07.000Z</time>
      </trkpt>
      <trkpt lat="45.49876" lon="5.73493">
        <ele>407.427395</ele>
        <time>2023-12-12T08:56:09.000Z</time>
      </trkpt>
      <trkpt lat="45.49876" lon="5.73493">
        <ele>407.465394</ele>
        <time>2023-12-12T08:56:16.000Z</time>
      </trkpt>
      <trkpt lat="45.49876" lon="5.73493">
        <ele>407.465394</ele>
        <time>2023-12-12T08:56:22.000Z</time>
      </trkpt>
      <trkpt lat="45.49876" lon="5.73493">
        <ele>407.465394</ele>
        <time>2023-12-12T08:56:30.000Z</time>
      </trkpt>
      <trkpt lat="45.49876" lon="5.73493">
        <ele>407.478712</ele>
        <time>2023-12-12T08:56:32.000Z</time>
      </trkpt>
      <trkpt lat="45.49876" lon="5.73493">
        <ele>407.501914</ele>
        <time>2023-12-12T08:56:36.000Z</time>
      </trkpt>
      <trkpt lat="45.49879" lon="5.73499">
        <ele>408.505216</ele>
        <time>2023-12-12T08:56:48.000Z</time>
      </trkpt>
      <trkpt lat="45.49881" lon="5.73504">
        <ele>409.323269</ele>
        <time>2023-12-12T08:56:50.000Z</time>
      </trkpt>
      <trkpt lat="45.49887" lon="5.73516">
        <ele>411.254229</ele>
        <time>2023-12-12T08:56:55.000Z</time>
      </trkpt>
      <trkpt lat="45.49888" lon="5.73518">
        <ele>411.603356</ele>
        <time>2023-12-12T08:56:56.000Z</time>
      </trkpt>
      <trkpt lat="45.4989" lon="5.73521">
        <ele>412.147057</ele>
        <time>2023-12-12T08:56:58.000Z</time>
      </trkpt>
      <trkpt lat="45.49892" lon="5.73525">
        <ele>412.686472</ele>
        <time>2023-12-12T08:57:00.000Z</time>
      </trkpt>
      <trkpt lat="45.49893" lon="5.73527">
        <ele>412.996389</ele>
        <time>2023-12-12T08:57:01.000Z</time>
      </trkpt>
      <trkpt lat="45.49901" lon="5.73545">
        <ele>415.26625</ele>
        <time>2023-12-12T08:57:08.000Z</time>
      </trkpt>
      <trkpt lat="45.49904" lon="5.73552">
        <ele>416.277998</ele>
        <time>2023-12-12T08:57:11.000Z</time>
      </trkpt>
      <trkpt lat="45.49906" lon="5.73554">
        <ele>416.613782</ele>
        <time>2023-12-12T08:57:12.000Z</time>
      </trkpt>
      <trkpt lat="45.49911" lon="5.7356">
        <ele>417.609592</ele>
        <time>2023-12-12T08:57:15.000Z</time>
      </trkpt>
      <trkpt lat="45.49914" lon="5.73565">
        <ele>418.348364</ele>
        <time>2023-12-12T08:57:18.000Z</time>
      </trkpt>
      <trkpt lat="45.49918" lon="5.73571">
        <ele>419.255657</ele>
        <time>2023-12-12T08:57:22.000Z</time>
      </trkpt>
      <trkpt lat="45.49922" lon="5.73583">
        <ele>420.724358</ele>
        <time>2023-12-12T08:57:27.000Z</time>
      </trkpt>
      <trkpt lat="45.49925" lon="5.73589">
        <ele>421.571102</ele>
        <time>2023-12-12T08:57:30.000Z</time>
      </trkpt>
      <trkpt lat="45.49926" lon="5.73591">
        <ele>421.771443</ele>
        <time>2023-12-12T08:57:31.000Z</time>
      </trkpt>
      <trkpt lat="45.49928" lon="5.73598">
        <ele>422.724961</ele>
        <time>2023-12-12T08:57:36.000Z</time>
      </trkpt>
      <trkpt lat="45.49929" lon="5.736">
        <ele>422.953811</ele>
        <time>2023-12-12T08:57:37.000Z</time>
      </trkpt>
      <trkpt lat="45.49931" lon="5.7361">
        <ele>424.076186</ele>
        <time>2023-12-12T08:57:42.000Z</time>
      </trkpt>
      <trkpt lat="45.49931" lon="5.73615">
        <ele>424.596365</ele>
        <time>2023-12-12T08:57:44.000Z</time>
      </trkpt>
      <trkpt lat="45.49932" lon="5.73616">
        <ele>424.751566</ele>
        <time>2023-12-12T08:57:45.000Z</time>
      </trkpt>
      <trkpt lat="45.49933" lon="5.73619">
        <ele>425.226759</ele>
        <time>2023-12-12T08:57:47.000Z</time>
      </trkpt>
      <trkpt lat="45.49934" lon="5.73621">
        <ele>425.436444</ele>
        <time>2023-12-12T08:57:48.000Z</time>
      </trkpt>
      <trkpt lat="45.49935" lon="5.73626">
        <ele>425.997413</ele>
        <time>2023-12-12T08:57:51.000Z</time>
      </trkpt>
      <trkpt lat="45.49936" lon="5.73627">
        <ele>426.162587</ele>
        <time>2023-12-12T08:57:52.000Z</time>
      </trkpt>
      <trkpt lat="45.49941" lon="5.73631">
        <ele>427.067526</ele>
        <time>2023-12-12T08:57:56.000Z</time>
      </trkpt>
      <trkpt lat="45.49945" lon="5.73637">
        <ele>427.989837</ele>
        <time>2023-12-12T08:58:00.000Z</time>
      </trkpt>
      <trkpt lat="45.49947" lon="5.73642">
        <ele>428.654723</ele>
        <time>2023-12-12T08:58:03.000Z</time>
      </trkpt>
      <trkpt lat="45.49948" lon="5.73645">
        <ele>429.0281</ele>
        <time>2023-12-12T08:58:05.000Z</time>
      </trkpt>
      <trkpt lat="45.49949" lon="5.73647">
        <ele>429.190854</ele>
        <time>2023-12-12T08:58:06.000Z</time>
      </trkpt>
      <trkpt lat="45.4995" lon="5.7365">
        <ele>429.673467</ele>
        <time>2023-12-12T08:58:08.000Z</time>
      </trkpt>
      <trkpt lat="45.49955" lon="5.73657">
        <ele>430.711699</ele>
        <time>2023-12-12T08:58:12.000Z</time>
      </trkpt>
      <trkpt lat="45.49958" lon="5.73661">
        <ele>431.410231</ele>
        <time>2023-12-12T08:58:15.000Z</time>
      </trkpt>
      <trkpt lat="45.4996" lon="5.73665">
        <ele>431.975487</ele>
        <time>2023-12-12T08:58:17.000Z</time>
      </trkpt>
      <trkpt lat="45.49963" lon="5.73673">
        <ele>432.87936</ele>
        <time>2023-12-12T08:58:21.000Z</time>
      </trkpt>
      <trkpt lat="45.49965" lon="5.73677">
        <ele>433.453404</ele>
        <time>2023-12-12T08:58:23.000Z</time>
      </trkpt>
      <trkpt lat="45.49968" lon="5.73679">
        <ele>433.989442</ele>
        <time>2023-12-12T08:58:25.000Z</time>
      </trkpt>
      <trkpt lat="45.4997" lon="5.73686">
        <ele>434.792663</ele>
        <time>2023-12-12T08:58:28.000Z</time>
      </trkpt>
      <trkpt lat="45.49971" lon="5.7369">
        <ele>435.301913</ele>
        <time>2023-12-12T08:58:30.000Z</time>
      </trkpt>
      <trkpt lat="45.49971" lon="5.73692">
        <ele>435.521107</ele>
        <time>2023-12-12T08:58:31.000Z</time>
      </trkpt>
      <trkpt lat="45.49974" lon="5.73698">
        <ele>436.359035</ele>
        <time>2023-12-12T08:58:35.000Z</time>
      </trkpt>
      <trkpt lat="45.49977" lon="5.73705">
        <ele>437.299808</ele>
        <time>2023-12-12T08:58:39.000Z</time>
      </trkpt>
      <trkpt lat="45.49979" lon="5.73709">
        <ele>437.738196</ele>
        <time>2023-12-12T08:58:41.000Z</time>
      </trkpt>
      <trkpt lat="45.49981" lon="5.73713">
        <ele>438.332056</ele>
        <time>2023-12-12T08:58:44.000Z</time>
      </trkpt>
      <trkpt lat="45.49985" lon="5.73719">
        <ele>439.21761</ele>
        <time>2023-12-12T08:58:48.000Z</time>
      </trkpt>
      <trkpt lat="45.49986" lon="5.73722">
        <ele>439.654209</ele>
        <time>2023-12-12T08:58:50.000Z</time>
      </trkpt>
      <trkpt lat="45.49987" lon="5.73727">
        <ele>440.174383</ele>
        <time>2023-12-12T08:58:52.000Z</time>
      </trkpt>
      <trkpt lat="45.49987" lon="5.7373">
        <ele>440.470196</ele>
        <time>2023-12-12T08:58:55.000Z</time>
      </trkpt>
      <trkpt lat="45.49987" lon="5.7373">
        <ele>440.48102</ele>
        <time>2023-12-12T08:58:56.000Z</time>
      </trkpt>
      <trkpt lat="45.49988" lon="5.7373">
        <ele>440.742854</ele>
        <time>2023-12-12T08:59:02.000Z</time>
      </trkpt>
      <trkpt lat="45.4999" lon="5.73729">
        <ele>441.001062</ele>
        <time>2023-12-12T08:59:10.000Z</time>
      </trkpt>
      <trkpt lat="45.49991" lon="5.7373">
        <ele>441.1686</ele>
        <time>2023-12-12T08:59:19.000Z</time>
      </trkpt>
      <trkpt lat="45.49995" lon="5.73737">
        <ele>442.244212</ele>
        <time>2023-12-12T08:59:25.000Z</time>
      </trkpt>
      <trkpt lat="45.49996" lon="5.73738">
        <ele>442.439278</ele>
        <time>2023-12-12T08:59:26.000Z</time>
      </trkpt>
      <trkpt lat="45.49999" lon="5.73745">
        <ele>443.25881</ele>
        <time>2023-12-12T08:59:30.000Z</time>
      </trkpt>
      <trkpt lat="45.5" lon="5.73749">
        <ele>443.734216</ele>
        <time>2023-12-12T08:59:32.000Z</time>
      </trkpt>
      <trkpt lat="45.5" lon="5.73751">
        <ele>443.984564</ele>
        <time>2023-12-12T08:59:33.000Z</time>
      </trkpt>
      <trkpt lat="45.50001" lon="5.73756">
        <ele>444.459155</ele>
        <time>2023-12-12T08:59:35.000Z</time>
      </trkpt>
      <trkpt lat="45.50001" lon="5.73757">
        <ele>444.658719</ele>
        <time>2023-12-12T08:59:36.000Z</time>
      </trkpt>
      <trkpt lat="45.50002" lon="5.73758">
        <ele>444.830306</ele>
        <time>2023-12-12T08:59:39.000Z</time>
      </trkpt>
      <trkpt lat="45.50002" lon="5.73758">
        <ele>444.84575</ele>
        <time>2023-12-12T08:59:40.000Z</time>
      </trkpt>
      <trkpt lat="45.50002" lon="5.73759">
        <ele>444.968761</ele>
        <time>2023-12-12T08:59:47.000Z</time>
      </trkpt>
      <trkpt lat="45.50002" lon="5.73759">
        <ele>445.03422</ele>
        <time>2023-12-12T09:00:02.000Z</time>
      </trkpt>
      <trkpt lat="45.50002" lon="5.73759">
        <ele>445.03422</ele>
        <time>2023-12-12T09:00:04.000Z</time>
      </trkpt>
      <trkpt lat="45.50004" lon="5.73763">
        <ele>445.543114</ele>
        <time>2023-12-12T09:00:13.000Z</time>
      </trkpt>
      <trkpt lat="45.50005" lon="5.73767">
        <ele>445.992635</ele>
        <time>2023-12-12T09:00:15.000Z</time>
      </trkpt>
      <trkpt lat="45.50007" lon="5.73777">
        <ele>447.1183</ele>
        <time>2023-12-12T09:00:19.000Z</time>
      </trkpt>
      <trkpt lat="45.50011" lon="5.73784">
        <ele>448.086241</ele>
        <time>2023-12-12T09:00:23.000Z</time>
      </trkpt>
      <trkpt lat="45.50012" lon="5.73787">
        <ele>448.521114</ele>
        <time>2023-12-12T09:00:25.000Z</time>
      </trkpt>
      <trkpt lat="45.50015" lon="5.73797">
        <ele>449.688613</ele>
        <time>2023-12-12T09:00:30.000Z</time>
      </trkpt>
      <trkpt lat="45.50016" lon="5.73799">
        <ele>449.919225</ele>
        <time>2023-12-12T09:00:31.000Z</time>
      </trkpt>
      <trkpt lat="45.5002" lon="5.73806">
        <ele>450.913723</ele>
        <time>2023-12-12T09:00:35.000Z</time>
      </trkpt>
      <trkpt lat="45.50023" lon="5.73811">
        <ele>451.609869</ele>
        <time>2023-12-12T09:00:38.000Z</time>
      </trkpt>
      <trkpt lat="45.50026" lon="5.73817">
        <ele>452.372591</ele>
        <time>2023-12-12T09:00:41.000Z</time>
      </trkpt>
      <trkpt lat="45.5003" lon="5.73825">
        <ele>453.553039</ele>
        <time>2023-12-12T09:00:46.000Z</time>
      </trkpt>
      <trkpt lat="45.50034" lon="5.73833">
        <ele>454.545814</ele>
        <time>2023-12-12T09:00:50.000Z</time>
      </trkpt>
      <trkpt lat="45.50035" lon="5.73834">
        <ele>454.78521</ele>
        <time>2023-12-12T09:00:51.000Z</time>
      </trkpt>
      <trkpt lat="45.5004" lon="5.73839">
        <ele>455.703058</ele>
        <time>2023-12-12T09:00:55.000Z</time>
      </trkpt>
      <trkpt lat="45.50043" lon="5.73842">
        <ele>456.23157</ele>
        <time>2023-12-12T09:00:57.000Z</time>
      </trkpt>
      <trkpt lat="45.50044" lon="5.73844">
        <ele>456.463618</ele>
        <time>2023-12-12T09:00:58.000Z</time>
      </trkpt>
      <trkpt lat="45.50049" lon="5.73852">
        <ele>457.623858</ele>
        <time>2023-12-12T09:01:03.000Z</time>
      </trkpt>
      <trkpt lat="45.5005" lon="5.73854">
        <ele>458.005336</ele>
        <time>2023-12-12T09:01:05.000Z</time>
      </trkpt>
      <trkpt lat="45.50053" lon="5.73857">
        <ele>458.475326</ele>
        <time>2023-12-12T09:01:08.000Z</time>
      </trkpt>
      <trkpt lat="45.50057" lon="5.73861">
        <ele>459.288463</ele>
        <time>2023-12-12T09:01:11.000Z</time>
      </trkpt>
      <trkpt lat="45.5006" lon="5.73865">
        <ele>459.964256</ele>
        <time>2023-12-12T09:01:14.000Z</time>
      </trkpt>
      <trkpt lat="45.50062" lon="5.73867">
        <ele>460.322584</ele>
        <time>2023-12-12T09:01:18.000Z</time>
      </trkpt>
      <trkpt lat="45.50064" lon="5.7387">
        <ele>460.7126</ele>
        <time>2023-12-12T09:01:23.000Z</time>
      </trkpt>
      <trkpt lat="45.50064" lon="5.7387">
        <ele>460.739193</ele>
        <time>2023-12-12T09:01:24.000Z</time>
      </trkpt>
      <trkpt lat="45.50071" lon="5.73875">
        <ele>461.925102</ele>
        <time>2023-12-12T09:01:30.000Z</time>
      </trkpt>
      <trkpt lat="45.50074" lon="5.73876">
        <ele>462.370866</ele>
        <time>2023-12-12T09:01:32.000Z</time>
      </trkpt>
      <trkpt lat="45.50078" lon="5.73879">
        <ele>463.004202</ele>
        <time>2023-12-12T09:01:36.000Z</time>
      </trkpt>
      <trkpt lat="45.50079" lon="5.73879">
        <ele>463.186798</ele>
        <time>2023-12-12T09:01:37.000Z</time>
      </trkpt>
      <trkpt lat="45.50087" lon="5.73882">
        <ele>464.461546</ele>
        <time>2023-12-12T09:01:42.000Z</time>
      </trkpt>
      <trkpt lat="45.50092" lon="5.73885">
        <ele>465.287584</ele>
        <time>2023-12-12T09:01:45.000Z</time>
      </trkpt>
      <trkpt lat="45.50095" lon="5.73886">
        <ele>465.837199</ele>
        <time>2023-12-12T09:01:47.000Z</time>
      </trkpt>
      <trkpt lat="45.501" lon="5.7389">
        <ele>466.787025</ele>
        <time>2023-12-12T09:01:51.000Z</time>
      </trkpt>
      <trkpt lat="45.50103" lon="5.73891">
        <ele>467.152633</ele>
        <time>2023-12-12T09:01:53.000Z</time>
      </trkpt>
      <trkpt lat="45.50112" lon="5.73896">
        <ele>468.359744</ele>
        <time>2023-12-12T09:01:59.000Z</time>
      </trkpt>
      <trkpt lat="45.50122" lon="5.73905">
        <ele>469.37312</ele>
        <time>2023-12-12T09:02:07.000Z</time>
      </trkpt>
      <trkpt lat="45.5013" lon="5.7391">
        <ele>470.125218</ele>
        <time>2023-12-12T09:02:13.000Z</time>
      </trkpt>
      <trkpt lat="45.50137" lon="5.73913">
        <ele>470.709162</ele>
        <time>2023-12-12T09:02:18.000Z</time>
      </trkpt>
      <trkpt lat="45.50147" lon="5.73917">
        <ele>471.546121</ele>
        <time>2023-12-12T09:02:24.000Z</time>
      </trkpt>
      <trkpt lat="45.50154" lon="5.7392">
        <ele>472.156027</ele>
        <time>2023-12-12T09:02:29.000Z</time>
      </trkpt>
      <trkpt lat="45.50154" lon="5.73921">
        <ele>472.208625</ele>
        <time>2023-12-12T09:02:30.000Z</time>
      </trkpt>
      <trkpt lat="45.50159" lon="5.7392">
        <ele>472.5573</ele>
        <time>2023-12-12T09:02:35.000Z</time>
      </trkpt>
      <trkpt lat="45.50161" lon="5.7392">
        <ele>472.724378</ele>
        <time>2023-12-12T09:02:36.000Z</time>
      </trkpt>
      <trkpt lat="45.50178" lon="5.73917">
        <ele>474.170049</ele>
        <time>2023-12-12T09:02:44.000Z</time>
      </trkpt>
      <trkpt lat="45.50193" lon="5.73915">
        <ele>475.460536</ele>
        <time>2023-12-12T09:02:51.000Z</time>
      </trkpt>
      <trkpt lat="45.50195" lon="5.73914">
        <ele>475.628078</ele>
        <time>2023-12-12T09:02:52.000Z</time>
      </trkpt>
      <trkpt lat="45.50202" lon="5.73909">
        <ele>476.280571</ele>
        <time>2023-12-12T09:02:57.000Z</time>
      </trkpt>
      <trkpt lat="45.50203" lon="5.73909">
        <ele>476.310879</ele>
        <time>2023-12-12T09:02:58.000Z</time>
      </trkpt>
      <trkpt lat="45.50204" lon="5.73908">
        <ele>476.4228</ele>
        <time>2023-12-12T09:03:02.000Z</time>
      </trkpt>
      <trkpt lat="45.50205" lon="5.73907">
        <ele>476.514951</ele>
        <time>2023-12-12T09:03:03.000Z</time>
      </trkpt>
      <trkpt lat="45.50207" lon="5.73908">
        <ele>476.686791</ele>
        <time>2023-12-12T09:03:10.000Z</time>
      </trkpt>
      <trkpt lat="45.50214" lon="5.73907">
        <ele>477.256041</ele>
        <time>2023-12-12T09:03:16.000Z</time>
      </trkpt>
      <trkpt lat="45.50216" lon="5.73905">
        <ele>477.497913</ele>
        <time>2023-12-12T09:03:18.000Z</time>
      </trkpt>
      <trkpt lat="45.50221" lon="5.73903">
        <ele>477.902052</ele>
        <time>2023-12-12T09:03:21.000Z</time>
      </trkpt>
      <trkpt lat="45.50227" lon="5.73903">
        <ele>478.398569</ele>
        <time>2023-12-12T09:03:24.000Z</time>
      </trkpt>
      <trkpt lat="45.50231" lon="5.73904">
        <ele>478.746471</ele>
        <time>2023-12-12T09:03:26.000Z</time>
      </trkpt>
      <trkpt lat="45.50242" lon="5.73905">
        <ele>479.627161</ele>
        <time>2023-12-12T09:03:31.000Z</time>
      </trkpt>
      <trkpt lat="45.50247" lon="5.73909">
        <ele>480.135305</ele>
        <time>2023-12-12T09:03:34.000Z</time>
      </trkpt>
      <trkpt lat="45.50253" lon="5.73913">
        <ele>480.672806</ele>
        <time>2023-12-12T09:03:37.000Z</time>
      </trkpt>
      <trkpt lat="45.50263" lon="5.73924">
        <ele>481.730183</ele>
        <time>2023-12-12T09:03:43.000Z</time>
      </trkpt>
      <trkpt lat="45.50281" lon="5.73935">
        <ele>483.359307</ele>
        <time>2023-12-12T09:03:52.000Z</time>
      </trkpt>
      <trkpt lat="45.50283" lon="5.73936">
        <ele>483.551105</ele>
        <time>2023-12-12T09:03:53.000Z</time>
      </trkpt>
      <trkpt lat="45.50297" lon="5.73945">
        <ele>484.950386</ele>
        <time>2023-12-12T09:04:00.000Z</time>
      </trkpt>
      <trkpt lat="45.50304" lon="5.73949">
        <ele>485.621117</ele>
        <time>2023-12-12T09:04:03.000Z</time>
      </trkpt>
      <trkpt lat="45.50322" lon="5.73957">
        <ele>487.253118</ele>
        <time>2023-12-12T09:04:11.000Z</time>
      </trkpt>
      <trkpt lat="45.50342" lon="5.73969">
        <ele>489.24541</ele>
        <time>2023-12-12T09:04:20.000Z</time>
      </trkpt>
      <trkpt lat="45.50345" lon="5.7397">
        <ele>489.489929</ele>
        <time>2023-12-12T09:04:21.000Z</time>
      </trkpt>
      <trkpt lat="45.50351" lon="5.73975">
        <ele>490.11942</ele>
        <time>2023-12-12T09:04:24.000Z</time>
      </trkpt>
      <trkpt lat="45.50358" lon="5.7398">
        <ele>490.803935</ele>
        <time>2023-12-12T09:04:27.000Z</time>
      </trkpt>
      <trkpt lat="45.5036" lon="5.73982">
        <ele>491.032899</ele>
        <time>2023-12-12T09:04:28.000Z</time>
      </trkpt>
      <trkpt lat="45.50365" lon="5.73985">
        <ele>491.480038</ele>
        <time>2023-12-12T09:04:30.000Z</time>
      </trkpt>
      <trkpt lat="45.5037" lon="5.73991">
        <ele>492.125998</ele>
        <time>2023-12-12T09:04:35.000Z</time>
      </trkpt>
      <trkpt lat="45.50371" lon="5.73992">
        <ele>492.162738</ele>
        <time>2023-12-12T09:04:39.000Z</time>
      </trkpt>
      <trkpt lat="45.50372" lon="5.73995">
        <ele>492.40959</ele>
        <time>2023-12-12T09:04:46.000Z</time>
      </trkpt>
      <trkpt lat="45.50374" lon="5.74004">
        <ele>493.043009</ele>
        <time>2023-12-12T09:04:51.000Z</time>
      </trkpt>
      <trkpt lat="45.50375" lon="5.74006">
        <ele>493.149997</ele>
        <time>2023-12-12T09:04:52.000Z</time>
      </trkpt>
      <trkpt lat="45.50375" lon="5.74016">
        <ele>493.756289</ele>
        <time>2023-12-12T09:04:56.000Z</time>
      </trkpt>
      <trkpt lat="45.50375" lon="5.7402">
        <ele>494.026106</ele>
        <time>2023-12-12T09:05:00.000Z</time>
      </trkpt>
      <trkpt lat="45.50376" lon="5.74021">
        <ele>494.106007</ele>
        <time>2023-12-12T09:05:08.000Z</time>
      </trkpt>
      <trkpt lat="45.50376" lon="5.74021">
        <ele>494.154542</ele>
        <time>2023-12-12T09:05:15.000Z</time>
      </trkpt>
      <trkpt lat="45.50376" lon="5.74021">
        <ele>494.154542</ele>
        <time>2023-12-12T09:05:24.000Z</time>
      </trkpt>
      <trkpt lat="45.50378" lon="5.74018">
        <ele>494.458026</ele>
        <time>2023-12-12T09:06:24.000Z</time>
      </trkpt>
      <trkpt lat="45.50379" lon="5.74019">
        <ele>494.542341</ele>
        <time>2023-12-12T09:06:41.000Z</time>
      </trkpt>
      <trkpt lat="45.50379" lon="5.74019">
        <ele>494.561156</ele>
        <time>2023-12-12T09:06:44.000Z</time>
      </trkpt>
      <trkpt lat="45.50379" lon="5.74019">
        <ele>494.567427</ele>
        <time>2023-12-12T09:06:52.000Z</time>
      </trkpt>
      <trkpt lat="45.50379" lon="5.74019">
        <ele>494.567427</ele>
        <time>2023-12-12T09:06:55.000Z</time>
      </trkpt>
      <trkpt lat="45.50375" lon="5.74026">
        <ele>495.154099</ele>
        <time>2023-12-12T09:07:02.000Z</time>
      </trkpt>
      <trkpt lat="45.50367" lon="5.74047">
        <ele>496.620113</ele>
        <time>2023-12-12T09:07:10.000Z</time>
      </trkpt>
      <trkpt lat="45.50367" lon="5.74049">
        <ele>496.746811</ele>
        <time>2023-12-12T09:07:11.000Z</time>
      </trkpt>
      <trkpt lat="45.50369" lon="5.74053">
        <ele>497.040184</ele>
        <time>2023-12-12T09:07:13.000Z</time>
      </trkpt>
      <trkpt lat="45.50369" lon="5.74054">
        <ele>497.148497</ele>
        <time>2023-12-12T09:07:14.000Z</time>
      </trkpt>
      <trkpt lat="45.50373" lon="5.74061">
        <ele>497.693002</ele>
        <time>2023-12-12T09:07:18.000Z</time>
      </trkpt>
      <trkpt lat="45.50375" lon="5.74064">
        <ele>497.941962</ele>
        <time>2023-12-12T09:07:22.000Z</time>
      </trkpt>
      <trkpt lat="45.50375" lon="5.74065">
        <ele>497.97959</ele>
        <time>2023-12-12T09:07:29.000Z</time>
      </trkpt>
      <trkpt lat="45.50375" lon="5.74064">
        <ele>498.005557</ele>
        <time>2023-12-12T09:07:32.000Z</time>
      </trkpt>
      <trkpt lat="45.50375" lon="5.74065">
        <ele>498.068237</ele>
        <time>2023-12-12T09:07:36.000Z</time>
      </trkpt>
      <trkpt lat="45.50375" lon="5.74065">
        <ele>498.077185</ele>
        <time>2023-12-12T09:07:41.000Z</time>
      </trkpt>
      <trkpt lat="45.5038" lon="5.74071">
        <ele>498.638952</ele>
        <time>2023-12-12T09:07:46.000Z</time>
      </trkpt>
      <trkpt lat="45.50382" lon="5.74074">
        <ele>498.948056</ele>
        <time>2023-12-12T09:07:48.000Z</time>
      </trkpt>
      <trkpt lat="45.50386" lon="5.74079">
        <ele>499.227512</ele>
        <time>2023-12-12T09:07:51.000Z</time>
      </trkpt>
      <trkpt lat="45.5039" lon="5.74082">
        <ele>499.424284</ele>
        <time>2023-12-12T09:07:54.000Z</time>
      </trkpt>
      <trkpt lat="45.50397" lon="5.7409">
        <ele>499.868091</ele>
        <time>2023-12-12T09:08:00.000Z</time>
      </trkpt>
      <trkpt lat="45.50398" lon="5.74091">
        <ele>499.942232</ele>
        <time>2023-12-12T09:08:01.000Z</time>
      </trkpt>
      <trkpt lat="45.50403" lon="5.74097">
        <ele>500.241983</ele>
        <time>2023-12-12T09:08:05.000Z</time>
      </trkpt>
      <trkpt lat="45.50409" lon="5.741">
        <ele>500.520568</ele>
        <time>2023-12-12T09:08:08.000Z</time>
      </trkpt>
      <trkpt lat="45.50414" lon="5.74104">
        <ele>500.781991</ele>
        <time>2023-12-12T09:08:11.000Z</time>
      </trkpt>
      <trkpt lat="45.50425" lon="5.74111">
        <ele>501.355988</ele>
        <time>2023-12-12T09:08:17.000Z</time>
      </trkpt>
      <trkpt lat="45.50433" lon="5.74115">
        <ele>501.737413</ele>
        <time>2023-12-12T09:08:20.000Z</time>
      </trkpt>
      <trkpt lat="45.50439" lon="5.74117">
        <ele>502.044343</ele>
        <time>2023-12-12T09:08:22.000Z</time>
      </trkpt>
      <trkpt lat="45.50451" lon="5.74124">
        <ele>502.66622</ele>
        <time>2023-12-12T09:08:26.000Z</time>
      </trkpt>
      <trkpt lat="45.50456" lon="5.74129">
        <ele>502.964042</ele>
        <time>2023-12-12T09:08:28.000Z</time>
      </trkpt>
      <trkpt lat="45.50466" lon="5.74139">
        <ele>503.525196</ele>
        <time>2023-12-12T09:08:33.000Z</time>
      </trkpt>
      <trkpt lat="45.50481" lon="5.74162">
        <ele>504.568823</ele>
        <time>2023-12-12T09:08:40.000Z</time>
      </trkpt>
      <trkpt lat="45.50486" lon="5.74168">
        <ele>504.873414</ele>
        <time>2023-12-12T09:08:42.000Z</time>
      </trkpt>
      <trkpt lat="45.50502" lon="5.74182">
        <ele>505.754812</ele>
        <time>2023-12-12T09:08:48.000Z</time>
      </trkpt>
      <trkpt lat="45.50513" lon="5.74191">
        <ele>506.36562</ele>
        <time>2023-12-12T09:08:52.000Z</time>
      </trkpt>
      <trkpt lat="45.50516" lon="5.74193">
        <ele>506.504912</ele>
        <time>2023-12-12T09:08:53.000Z</time>
      </trkpt>
      <trkpt lat="45.50541" lon="5.74202">
        <ele>507.460015</ele>
        <time>2023-12-12T09:09:01.000Z</time>
      </trkpt>
      <trkpt lat="45.50558" lon="5.74214">
        <ele>506.960499</ele>
        <time>2023-12-12T09:09:07.000Z</time>
      </trkpt>
      <trkpt lat="45.50578" lon="5.74223">
        <ele>506.40239</ele>
        <time>2023-12-12T09:09:13.000Z</time>
      </trkpt>
      <trkpt lat="45.50592" lon="5.74234">
        <ele>505.977405</ele>
        <time>2023-12-12T09:09:17.000Z</time>
      </trkpt>
      <trkpt lat="45.5061" lon="5.74245">
        <ele>505.483319</ele>
        <time>2023-12-12T09:09:22.000Z</time>
      </trkpt>
      <trkpt lat="45.50627" lon="5.74255">
        <ele>504.995059</ele>
        <time>2023-12-12T09:09:28.000Z</time>
      </trkpt>
      <trkpt lat="45.5063" lon="5.74259">
        <ele>504.882972</ele>
        <time>2023-12-12T09:09:32.000Z</time>
      </trkpt>
      <trkpt lat="45.5063" lon="5.74259">
        <ele>504.879771</ele>
        <time>2023-12-12T09:09:38.000Z</time>
      </trkpt>
      <trkpt lat="45.5063" lon="5.74259">
        <ele>504.87657</ele>
        <time>2023-12-12T09:09:39.000Z</time>
      </trkpt>
      <trkpt lat="45.5063" lon="5.74259">
        <ele>504.857856</ele>
        <time>2023-12-12T09:09:49.000Z</time>
      </trkpt>
      <trkpt lat="45.5063" lon="5.74259">
        <ele>504.856019</ele>
        <time>2023-12-12T09:09:55.000Z</time>
      </trkpt>
      <trkpt lat="45.50635" lon="5.74266">
        <ele>504.66164</ele>
        <time>2023-12-12T09:09:59.000Z</time>
      </trkpt>
      <trkpt lat="45.50647" lon="5.74278">
        <ele>504.276164</ele>
        <time>2023-12-12T09:10:03.000Z</time>
      </trkpt>
      <trkpt lat="45.50652" lon="5.7428">
        <ele>504.149562</ele>
        <time>2023-12-12T09:10:04.000Z</time>
      </trkpt>
      <trkpt lat="45.50657" lon="5.74281">
        <ele>504.020474</ele>
        <time>2023-12-12T09:10:05.000Z</time>
      </trkpt>
      <trkpt lat="45.50666" lon="5.74282">
        <ele>503.773514</ele>
        <time>2023-12-12T09:10:07.000Z</time>
      </trkpt>
      <trkpt lat="45.50676" lon="5.74282">
        <ele>503.508447</ele>
        <time>2023-12-12T09:10:09.000Z</time>
      </trkpt>
      <trkpt lat="45.50681" lon="5.74283">
        <ele>503.384371</ele>
        <time>2023-12-12T09:10:10.000Z</time>
      </trkpt>
      <trkpt lat="45.50685" lon="5.74285">
        <ele>503.269931</ele>
        <time>2023-12-12T09:10:11.000Z</time>
      </trkpt>
      <trkpt lat="45.50689" lon="5.74287">
        <ele>503.150187</ele>
        <time>2023-12-12T09:10:12.000Z</time>
      </trkpt>
      <trkpt lat="45.50696" lon="5.74292">
        <ele>502.94529</ele>
        <time>2023-12-12T09:10:14.000Z</time>
      </trkpt>
      <trkpt lat="45.50707" lon="5.74302">
        <ele>502.242831</ele>
        <time>2023-12-12T09:10:17.000Z</time>
      </trkpt>
      <trkpt lat="45.50719" lon="5.74313">
        <ele>501.201158</ele>
        <time>2023-12-12T09:10:20.000Z</time>
      </trkpt>
      <trkpt lat="45.50724" lon="5.74316">
        <ele>500.780483</ele>
        <time>2023-12-12T09:10:21.000Z</time>
      </trkpt>
      <trkpt lat="45.5073" lon="5.7432">
        <ele>500.339262</ele>
        <time>2023-12-12T09:10:22.000Z</time>
      </trkpt>
      <trkpt lat="45.50747" lon="5.7433">
        <ele>499.025094</ele>
        <time>2023-12-12T09:10:25.000Z</time>
      </trkpt>
      <trkpt lat="45.50763" lon="5.74342">
        <ele>497.741361</ele>
        <time>2023-12-12T09:10:28.000Z</time>
      </trkpt>
      <trkpt lat="45.5078" lon="5.74353">
        <ele>496.357731</ele>
        <time>2023-12-12T09:10:31.000Z</time>
      </trkpt>
      <trkpt lat="45.50799" lon="5.74361">
        <ele>494.96528</ele>
        <time>2023-12-12T09:10:34.000Z</time>
      </trkpt>
      <trkpt lat="45.50812" lon="5.74366">
        <ele>493.950314</ele>
        <time>2023-12-12T09:10:36.000Z</time>
      </trkpt>
      <trkpt lat="45.50819" lon="5.74367">
        <ele>493.468907</ele>
        <time>2023-12-12T09:10:37.000Z</time>
      </trkpt>
      <trkpt lat="45.50832" lon="5.7437">
        <ele>492.487651</ele>
        <time>2023-12-12T09:10:39.000Z</time>
      </trkpt>
      <trkpt lat="45.50854" lon="5.7437">
        <ele>490.945949</ele>
        <time>2023-12-12T09:10:42.000Z</time>
      </trkpt>
      <trkpt lat="45.50882" lon="5.74363">
        <ele>488.869524</ele>
        <time>2023-12-12T09:10:46.000Z</time>
      </trkpt>
      <trkpt lat="45.50888" lon="5.74361">
        <ele>488.379229</ele>
        <time>2023-12-12T09:10:47.000Z</time>
      </trkpt>
      <trkpt lat="45.50913" lon="5.74353">
        <ele>486.556548</ele>
        <time>2023-12-12T09:10:51.000Z</time>
      </trkpt>
      <trkpt lat="45.5092" lon="5.74353">
        <ele>486.016138</ele>
        <time>2023-12-12T09:10:52.000Z</time>
      </trkpt>
      <trkpt lat="45.50927" lon="5.74354">
        <ele>485.516938</ele>
        <time>2023-12-12T09:10:53.000Z</time>
      </trkpt>
      <trkpt lat="45.50934" lon="5.74356">
        <ele>484.979062</ele>
        <time>2023-12-12T09:10:54.000Z</time>
      </trkpt>
      <trkpt lat="45.50941" lon="5.74358">
        <ele>484.448502</ele>
        <time>2023-12-12T09:10:55.000Z</time>
      </trkpt>
      <trkpt lat="45.50955" lon="5.74367">
        <ele>483.351597</ele>
        <time>2023-12-12T09:10:57.000Z</time>
      </trkpt>
      <trkpt lat="45.50961" lon="5.74372">
        <ele>482.830067</ele>
        <time>2023-12-12T09:10:58.000Z</time>
      </trkpt>
      <trkpt lat="45.50975" lon="5.74382">
        <ele>481.671623</ele>
        <time>2023-12-12T09:11:00.000Z</time>
      </trkpt>
      <trkpt lat="45.50982" lon="5.74389">
        <ele>481.103689</ele>
        <time>2023-12-12T09:11:01.000Z</time>
      </trkpt>
      <trkpt lat="45.50995" lon="5.74401">
        <ele>479.938706</ele>
        <time>2023-12-12T09:11:03.000Z</time>
      </trkpt>
      <trkpt lat="45.51011" lon="5.74412">
        <ele>478.664662</ele>
        <time>2023-12-12T09:11:05.000Z</time>
      </trkpt>
      <trkpt lat="45.51034" lon="5.74425">
        <ele>476.836777</ele>
        <time>2023-12-12T09:11:08.000Z</time>
      </trkpt>
      <trkpt lat="45.51043" lon="5.74427">
        <ele>476.512425</ele>
        <time>2023-12-12T09:11:09.000Z</time>
      </trkpt>
      <trkpt lat="45.51051" lon="5.74431">
        <ele>476.242793</ele>
        <time>2023-12-12T09:11:10.000Z</time>
      </trkpt>
      <trkpt lat="45.5108" lon="5.74445">
        <ele>475.273958</ele>
        <time>2023-12-12T09:11:14.000Z</time>
      </trkpt>
      <trkpt lat="45.51087" lon="5.7445">
        <ele>475.034408</ele>
        <time>2023-12-12T09:11:15.000Z</time>
      </trkpt>
      <trkpt lat="45.51101" lon="5.7446">
        <ele>474.533499</ele>
        <time>2023-12-12T09:11:17.000Z</time>
      </trkpt>
      <trkpt lat="45.51121" lon="5.74473">
        <ele>473.840595</ele>
        <time>2023-12-12T09:11:20.000Z</time>
      </trkpt>
      <trkpt lat="45.51127" lon="5.74475">
        <ele>473.626093</ele>
        <time>2023-12-12T09:11:21.000Z</time>
      </trkpt>
      <trkpt lat="45.5114" lon="5.74476">
        <ele>473.227842</ele>
        <time>2023-12-12T09:11:23.000Z</time>
      </trkpt>
      <trkpt lat="45.51145" lon="5.74476">
        <ele>473.053667</ele>
        <time>2023-12-12T09:11:24.000Z</time>
      </trkpt>
      <trkpt lat="45.51163" lon="5.74484">
        <ele>472.456363</ele>
        <time>2023-12-12T09:11:28.000Z</time>
      </trkpt>
      <trkpt lat="45.51166" lon="5.74486">
        <ele>472.369847</ele>
        <time>2023-12-12T09:11:29.000Z</time>
      </trkpt>
      <trkpt lat="45.51168" lon="5.74487">
        <ele>472.296658</ele>
        <time>2023-12-12T09:11:31.000Z</time>
      </trkpt>
      <trkpt lat="45.51169" lon="5.74488">
        <ele>472.274541</ele>
        <time>2023-12-12T09:11:34.000Z</time>
      </trkpt>
      <trkpt lat="45.51169" lon="5.74488">
        <ele>472.274541</ele>
        <time>2023-12-12T09:11:37.000Z</time>
      </trkpt>
      <trkpt lat="45.51172" lon="5.74494">
        <ele>472.113908</ele>
        <time>2023-12-12T09:11:44.000Z</time>
      </trkpt>
      <trkpt lat="45.51174" lon="5.745">
        <ele>471.962104</ele>
        <time>2023-12-12T09:11:46.000Z</time>
      </trkpt>
      <trkpt lat="45.51175" lon="5.74504">
        <ele>471.853494</ele>
        <time>2023-12-12T09:11:48.000Z</time>
      </trkpt>
      <trkpt lat="45.51176" lon="5.74506">
        <ele>471.817218</ele>
        <time>2023-12-12T09:11:49.000Z</time>
      </trkpt>
      <trkpt lat="45.51177" lon="5.74506">
        <ele>471.78868</ele>
        <time>2023-12-12T09:11:51.000Z</time>
      </trkpt>
      <trkpt lat="45.51177" lon="5.74506">
        <ele>471.765546</ele>
        <time>2023-12-12T09:11:52.000Z</time>
      </trkpt>
      <trkpt lat="45.51179" lon="5.74503">
        <ele>471.698343</ele>
        <time>2023-12-12T09:11:54.000Z</time>
      </trkpt>
      <trkpt lat="45.51172" lon="5.74497">
        <ele>471.454747</ele>
        <time>2023-12-12T09:11:59.000Z</time>
      </trkpt>
      <trkpt lat="45.5117" lon="5.74492">
        <ele>471.31508</ele>
        <time>2023-12-12T09:12:01.000Z</time>
      </trkpt>
      <trkpt lat="45.51167" lon="5.74488">
        <ele>471.180129</ele>
        <time>2023-12-12T09:12:03.000Z</time>
      </trkpt>
      <trkpt lat="45.51164" lon="5.74491">
        <ele>471.083736</ele>
        <time>2023-12-12T09:12:05.000Z</time>
      </trkpt>
      <trkpt lat="45.51164" lon="5.74495">
        <ele>471.541705</ele>
        <time>2023-12-12T09:12:07.000Z</time>
      </trkpt>
      <trkpt lat="45.51163" lon="5.74504">
        <ele>472.649104</ele>
        <time>2023-12-12T09:12:10.000Z</time>
      </trkpt>
      <trkpt lat="45.51162" lon="5.74519">
        <ele>474.440872</ele>
        <time>2023-12-12T09:12:14.000Z</time>
      </trkpt>
      <trkpt lat="45.51162" lon="5.7453">
        <ele>475.761027</ele>
        <time>2023-12-12T09:12:17.000Z</time>
      </trkpt>
      <trkpt lat="45.51163" lon="5.74544">
        <ele>477.571717</ele>
        <time>2023-12-12T09:12:21.000Z</time>
      </trkpt>
      <trkpt lat="45.51163" lon="5.7455">
        <ele>478.304321</ele>
        <time>2023-12-12T09:12:23.000Z</time>
      </trkpt>
      <trkpt lat="45.51163" lon="5.74553">
        <ele>478.657029</ele>
        <time>2023-12-12T09:12:24.000Z</time>
      </trkpt>
      <trkpt lat="45.51162" lon="5.74556">
        <ele>479.033053</ele>
        <time>2023-12-12T09:12:25.000Z</time>
      </trkpt>
      <trkpt lat="45.5116" lon="5.74565">
        <ele>480.130992</ele>
        <time>2023-12-12T09:12:28.000Z</time>
      </trkpt>
      <trkpt lat="45.51159" lon="5.74569">
        <ele>480.725737</ele>
        <time>2023-12-12T09:12:30.000Z</time>
      </trkpt>
      <trkpt lat="45.51159" lon="5.74572">
        <ele>481.026868</ele>
        <time>2023-12-12T09:12:31.000Z</time>
      </trkpt>
      <trkpt lat="45.51157" lon="5.74579">
        <ele>482.012741</ele>
        <time>2023-12-12T09:12:34.000Z</time>
      </trkpt>
      <trkpt lat="45.51155" lon="5.74582">
        <ele>482.482685</ele>
        <time>2023-12-12T09:12:36.000Z</time>
      </trkpt>
      <trkpt lat="45.51154" lon="5.74584">
        <ele>482.795119</ele>
        <time>2023-12-12T09:12:38.000Z</time>
      </trkpt>
      <trkpt lat="45.51154" lon="5.74584">
        <ele>482.8551</ele>
        <time>2023-12-12T09:12:41.000Z</time>
      </trkpt>
      <trkpt lat="45.51154" lon="5.74584">
        <ele>482.867307</ele>
        <time>2023-12-12T09:12:42.000Z</time>
      </trkpt>
      <trkpt lat="45.51155" lon="5.74585">
        <ele>483.067003</ele>
        <time>2023-12-12T09:12:53.000Z</time>
      </trkpt>
      <trkpt lat="45.51152" lon="5.7459">
        <ele>483.746815</ele>
        <time>2023-12-12T09:13:03.000Z</time>
      </trkpt>
      <trkpt lat="45.51151" lon="5.7459">
        <ele>483.925359</ele>
        <time>2023-12-12T09:13:04.000Z</time>
      </trkpt>
      <trkpt lat="45.51149" lon="5.74592">
        <ele>484.444466</ele>
        <time>2023-12-12T09:13:07.000Z</time>
      </trkpt>
      <trkpt lat="45.51147" lon="5.74593">
        <ele>484.682462</ele>
        <time>2023-12-12T09:13:10.000Z</time>
      </trkpt>
      <trkpt lat="45.51147" lon="5.74593">
        <ele>484.706875</ele>
        <time>2023-12-12T09:13:11.000Z</time>
      </trkpt>
      <trkpt lat="45.51143" lon="5.74598">
        <ele>485.678253</ele>
        <time>2023-12-12T09:13:16.000Z</time>
      </trkpt>
      <trkpt lat="45.51138" lon="5.74598">
        <ele>486.601783</ele>
        <time>2023-12-12T09:13:19.000Z</time>
      </trkpt>
      <trkpt lat="45.51131" lon="5.74599">
        <ele>487.796858</ele>
        <time>2023-12-12T09:13:22.000Z</time>
      </trkpt>
      <trkpt lat="45.51129" lon="5.74599">
        <ele>488.128718</ele>
        <time>2023-12-12T09:13:23.000Z</time>
      </trkpt>
      <trkpt lat="45.51125" lon="5.74599">
        <ele>488.845501</ele>
        <time>2023-12-12T09:13:26.000Z</time>
      </trkpt>
      <trkpt lat="45.51124" lon="5.74599">
        <ele>489.021393</ele>
        <time>2023-12-12T09:13:29.000Z</time>
      </trkpt>
      <trkpt lat="45.51124" lon="5.74598">
        <ele>489.085204</ele>
        <time>2023-12-12T09:13:32.000Z</time>
      </trkpt>
      <trkpt lat="45.51124" lon="5.74598">
        <ele>489.106474</ele>
        <time>2023-12-12T09:13:33.000Z</time>
      </trkpt>
      <trkpt lat="45.51124" lon="5.74598">
        <ele>489.118681</ele>
        <time>2023-12-12T09:13:34.000Z</time>
      </trkpt>
      <trkpt lat="45.51123" lon="5.74598">
        <ele>489.379966</ele>
        <time>2023-12-12T09:13:37.000Z</time>
      </trkpt>
      <trkpt lat="45.51122" lon="5.74598">
        <ele>489.43363</ele>
        <time>2023-12-12T09:13:39.000Z</time>
      </trkpt>
      <trkpt lat="45.51122" lon="5.74598">
        <ele>489.50687</ele>
        <time>2023-12-12T09:13:44.000Z</time>
      </trkpt>
      <trkpt lat="45.51122" lon="5.74597">
        <ele>489.597322</ele>
        <time>2023-12-12T09:13:45.000Z</time>
      </trkpt>
      <trkpt lat="45.51119" lon="5.74597">
        <ele>490.032797</ele>
        <time>2023-12-12T09:13:49.000Z</time>
      </trkpt>
      <trkpt lat="45.51118" lon="5.74598">
        <ele>490.20869</ele>
        <time>2023-12-12T09:13:50.000Z</time>
      </trkpt>
      <trkpt lat="45.51117" lon="5.74597">
        <ele>490.507068</ele>
        <time>2023-12-12T09:13:55.000Z</time>
      </trkpt>
      <trkpt lat="45.51111" lon="5.74598">
        <ele>491.450542</ele>
        <time>2023-12-12T09:14:03.000Z</time>
      </trkpt>
      <trkpt lat="45.51108" lon="5.74597">
        <ele>492.043739</ele>
        <time>2023-12-12T09:14:07.000Z</time>
      </trkpt>
      <trkpt lat="45.51107" lon="5.74596">
        <ele>492.228312</ele>
        <time>2023-12-12T09:14:08.000Z</time>
      </trkpt>
      <trkpt lat="45.51104" lon="5.74593">
        <ele>492.795703</ele>
        <time>2023-12-12T09:14:13.000Z</time>
      </trkpt>
      <trkpt lat="45.51103" lon="5.74594">
        <ele>493.076803</ele>
        <time>2023-12-12T09:14:14.000Z</time>
      </trkpt>
      <trkpt lat="45.51098" lon="5.74596">
        <ele>493.978105</ele>
        <time>2023-12-12T09:14:19.000Z</time>
      </trkpt>
      <trkpt lat="45.51092" lon="5.74596">
        <ele>494.989586</ele>
        <time>2023-12-12T09:14:25.000Z</time>
      </trkpt>
      <trkpt lat="45.51089" lon="5.74596">
        <ele>495.581832</ele>
        <time>2023-12-12T09:14:30.000Z</time>
      </trkpt>
      <trkpt lat="45.51087" lon="5.74597">
        <ele>495.856734</ele>
        <time>2023-12-12T09:14:33.000Z</time>
      </trkpt>
      <trkpt lat="45.51086" lon="5.74597">
        <ele>496.051811</ele>
        <time>2023-12-12T09:14:35.000Z</time>
      </trkpt>
      <trkpt lat="45.51084" lon="5.74598">
        <ele>496.351387</ele>
        <time>2023-12-12T09:14:41.000Z</time>
      </trkpt>
      <trkpt lat="45.51084" lon="5.74598">
        <ele>496.401931</ele>
        <time>2023-12-12T09:14:42.000Z</time>
      </trkpt>
      <trkpt lat="45.51079" lon="5.74598">
        <ele>497.400874</ele>
        <time>2023-12-12T09:14:50.000Z</time>
      </trkpt>
      <trkpt lat="45.51075" lon="5.74598">
        <ele>498.101473</ele>
        <time>2023-12-12T09:14:56.000Z</time>
      </trkpt>
      <trkpt lat="45.51074" lon="5.74598">
        <ele>498.152017</ele>
        <time>2023-12-12T09:15:02.000Z</time>
      </trkpt>
      <trkpt lat="45.51074" lon="5.74598">
        <ele>498.192569</ele>
        <time>2023-12-12T09:15:09.000Z</time>
      </trkpt>
      <trkpt lat="45.51074" lon="5.74598">
        <ele>498.21384</ele>
        <time>2023-12-12T09:15:34.000Z</time>
      </trkpt>
      <trkpt lat="45.51074" lon="5.74598">
        <ele>498.231259</ele>
        <time>2023-12-12T09:15:40.000Z</time>
      </trkpt>
      <trkpt lat="45.51074" lon="5.74598">
        <ele>498.231259</ele>
        <time>2023-12-12T09:15:41.000Z</time>
      </trkpt>
      <trkpt lat="45.51074" lon="5.74598">
        <ele>498.243465</ele>
        <time>2023-12-12T09:15:42.000Z</time>
      </trkpt>
      <trkpt lat="45.51069" lon="5.74599">
        <ele>499.210875</ele>
        <time>2023-12-12T09:15:54.000Z</time>
      </trkpt>
      <trkpt lat="45.51064" lon="5.74601">
        <ele>500.006579</ele>
        <time>2023-12-12T09:15:57.000Z</time>
      </trkpt>
      <trkpt lat="45.5106" lon="5.74607">
        <ele>500.962072</ele>
        <time>2023-12-12T09:16:01.000Z</time>
      </trkpt>
      <trkpt lat="45.51061" lon="5.74609">
        <ele>501.313457</ele>
        <time>2023-12-12T09:16:03.000Z</time>
      </trkpt>
      <trkpt lat="45.51062" lon="5.7461">
        <ele>501.474155</ele>
        <time>2023-12-12T09:16:04.000Z</time>
      </trkpt>
      <trkpt lat="45.51063" lon="5.74611">
        <ele>501.634853</ele>
        <time>2023-12-12T09:16:07.000Z</time>
      </trkpt>
      <trkpt lat="45.51064" lon="5.74613">
        <ele>502.00359</ele>
        <time>2023-12-12T09:16:09.000Z</time>
      </trkpt>
      <trkpt lat="45.51067" lon="5.74618">
        <ele>502.901319</ele>
        <time>2023-12-12T09:16:12.000Z</time>
      </trkpt>
      <trkpt lat="45.51067" lon="5.7462">
        <ele>503.197794</ele>
        <time>2023-12-12T09:16:15.000Z</time>
      </trkpt>
      <trkpt lat="45.51068" lon="5.7462">
        <ele>503.317832</ele>
        <time>2023-12-12T09:16:16.000Z</time>
      </trkpt>
      <trkpt lat="45.51068" lon="5.74619">
        <ele>503.394546</ele>
        <time>2023-12-12T09:16:21.000Z</time>
      </trkpt>
      <trkpt lat="45.51068" lon="5.74619">
        <ele>503.467921</ele>
        <time>2023-12-12T09:16:25.000Z</time>
      </trkpt>
      <trkpt lat="45.51072" lon="5.74623">
        <ele>504.425573</ele>
        <time>2023-12-12T09:16:41.000Z</time>
      </trkpt>
      <trkpt lat="45.51074" lon="5.74625">
        <ele>505.031034</ele>
        <time>2023-12-12T09:16:43.000Z</time>
      </trkpt>
      <trkpt lat="45.51077" lon="5.74629">
        <ele>505.830181</ele>
        <time>2023-12-12T09:16:47.000Z</time>
      </trkpt>
      <trkpt lat="45.51077" lon="5.7463">
        <ele>506.022591</ele>
        <time>2023-12-12T09:16:48.000Z</time>
      </trkpt>
      <trkpt lat="45.51078" lon="5.7463">
        <ele>506.211062</ele>
        <time>2023-12-12T09:16:49.000Z</time>
      </trkpt>
      <trkpt lat="45.51079" lon="5.74631">
        <ele>506.391337</ele>
        <time>2023-12-12T09:16:52.000Z</time>
      </trkpt>
      <trkpt lat="45.51079" lon="5.7463">
        <ele>506.523412</ele>
        <time>2023-12-12T09:17:03.000Z</time>
      </trkpt>
      <trkpt lat="45.51086" lon="5.74636">
        <ele>508.167536</ele>
        <time>2023-12-12T09:17:12.000Z</time>
      </trkpt>
      <trkpt lat="45.5109" lon="5.74639">
        <ele>509.171576</ele>
        <time>2023-12-12T09:17:15.000Z</time>
      </trkpt>
      <trkpt lat="45.51095" lon="5.74645">
        <ele>510.620767</ele>
        <time>2023-12-12T09:17:19.000Z</time>
      </trkpt>
      <trkpt lat="45.51101" lon="5.7465">
        <ele>511.968352</ele>
        <time>2023-12-12T09:17:23.000Z</time>
      </trkpt>
      <trkpt lat="45.51106" lon="5.74657">
        <ele>513.50371</ele>
        <time>2023-12-12T09:17:27.000Z</time>
      </trkpt>
      <trkpt lat="45.51109" lon="5.7466">
        <ele>514.216876</ele>
        <time>2023-12-12T09:17:29.000Z</time>
      </trkpt>
      <trkpt lat="45.5111" lon="5.74662">
        <ele>514.567358</ele>
        <time>2023-12-12T09:17:30.000Z</time>
      </trkpt>
      <trkpt lat="45.51115" lon="5.7467">
        <ele>516.115567</ele>
        <time>2023-12-12T09:17:35.000Z</time>
      </trkpt>
      <trkpt lat="45.51119" lon="5.74679">
        <ele>517.739198</ele>
        <time>2023-12-12T09:17:39.000Z</time>
      </trkpt>
      <trkpt lat="45.51122" lon="5.74685">
        <ele>518.820843</ele>
        <time>2023-12-12T09:17:42.000Z</time>
      </trkpt>
      <trkpt lat="45.51122" lon="5.74686">
        <ele>519.002707</ele>
        <time>2023-12-12T09:17:44.000Z</time>
      </trkpt>
      <trkpt lat="45.51123" lon="5.74687">
        <ele>519.17168</ele>
        <time>2023-12-12T09:17:51.000Z</time>
      </trkpt>
      <trkpt lat="45.51126" lon="5.7469">
        <ele>519.904923</ele>
        <time>2023-12-12T09:17:57.000Z</time>
      </trkpt>
      <trkpt lat="45.51126" lon="5.7469">
        <ele>520.033952</ele>
        <time>2023-12-12T09:17:58.000Z</time>
      </trkpt>
      <trkpt lat="45.51129" lon="5.74693">
        <ele>520.779625</ele>
        <time>2023-12-12T09:18:03.000Z</time>
      </trkpt>
      <trkpt lat="45.51131" lon="5.74693">
        <ele>521.095111</ele>
        <time>2023-12-12T09:18:06.000Z</time>
      </trkpt>
      <trkpt lat="45.51133" lon="5.74694">
        <ele>521.549451</ele>
        <time>2023-12-12T09:18:10.000Z</time>
      </trkpt>
      <trkpt lat="45.51137" lon="5.74696">
        <ele>522.394598</ele>
        <time>2023-12-12T09:18:16.000Z</time>
      </trkpt>
      <trkpt lat="45.51137" lon="5.74696">
        <ele>522.46394</ele>
        <time>2023-12-12T09:18:17.000Z</time>
      </trkpt>
      <trkpt lat="45.51139" lon="5.74699">
        <ele>523.010819</ele>
        <time>2023-12-12T09:18:22.000Z</time>
      </trkpt>
      <trkpt lat="45.51139" lon="5.74699">
        <ele>523.156322</ele>
        <time>2023-12-12T09:18:23.000Z</time>
      </trkpt>
      <trkpt lat="45.5114" lon="5.747">
        <ele>523.360892</ele>
        <time>2023-12-12T09:18:24.000Z</time>
      </trkpt>
      <trkpt lat="45.51143" lon="5.74704">
        <ele>524.277173</ele>
        <time>2023-12-12T09:18:29.000Z</time>
      </trkpt>
      <trkpt lat="45.51144" lon="5.74705">
        <ele>524.470364</ele>
        <time>2023-12-12T09:18:30.000Z</time>
      </trkpt>
      <trkpt lat="45.51144" lon="5.74706">
        <ele>524.581298</ele>
        <time>2023-12-12T09:18:31.000Z</time>
      </trkpt>
      <trkpt lat="45.51144" lon="5.74706">
        <ele>524.625322</ele>
        <time>2023-12-12T09:18:33.000Z</time>
      </trkpt>
      <trkpt lat="45.51144" lon="5.74706">
        <ele>524.650894</ele>
        <time>2023-12-12T09:18:34.000Z</time>
      </trkpt>
      <trkpt lat="45.51144" lon="5.74706">
        <ele>524.686948</ele>
        <time>2023-12-12T09:18:36.000Z</time>
      </trkpt>
      <trkpt lat="45.51147" lon="5.7471">
        <ele>525.40556</ele>
        <time>2023-12-12T09:18:43.000Z</time>
      </trkpt>
      <trkpt lat="45.51148" lon="5.74711">
        <ele>525.746619</ele>
        <time>2023-12-12T09:18:44.000Z</time>
      </trkpt>
      <trkpt lat="45.51152" lon="5.7472">
        <ele>527.298218</ele>
        <time>2023-12-12T09:18:49.000Z</time>
      </trkpt>
      <trkpt lat="45.51157" lon="5.74728">
        <ele>528.938058</ele>
        <time>2023-12-12T09:18:54.000Z</time>
      </trkpt>
      <trkpt lat="45.51157" lon="5.74729">
        <ele>528.98681</ele>
        <time>2023-12-12T09:18:55.000Z</time>
      </trkpt>
      <trkpt lat="45.51159" lon="5.74729">
        <ele>529.306365</ele>
        <time>2023-12-12T09:19:02.000Z</time>
      </trkpt>
      <trkpt lat="45.5116" lon="5.74732">
        <ele>529.73956</ele>
        <time>2023-12-12T09:19:05.000Z</time>
      </trkpt>
      <trkpt lat="45.51161" lon="5.74735">
        <ele>530.311359</ele>
        <time>2023-12-12T09:19:10.000Z</time>
      </trkpt>
      <trkpt lat="45.51162" lon="5.74736">
        <ele>530.479902</ele>
        <time>2023-12-12T09:19:11.000Z</time>
      </trkpt>
      <trkpt lat="45.51163" lon="5.74741">
        <ele>531.297375</ele>
        <time>2023-12-12T09:19:17.000Z</time>
      </trkpt>
      <trkpt lat="45.51164" lon="5.74745">
        <ele>531.91444</ele>
        <time>2023-12-12T09:19:21.000Z</time>
      </trkpt>
      <trkpt lat="45.51165" lon="5.74746">
        <ele>532.087657</ele>
        <time>2023-12-12T09:19:23.000Z</time>
      </trkpt>
      <trkpt lat="45.51166" lon="5.7475">
        <ele>532.760294</ele>
        <time>2023-12-12T09:19:28.000Z</time>
      </trkpt>
      <trkpt lat="45.51166" lon="5.74751">
        <ele>532.84478</ele>
        <time>2023-12-12T09:19:29.000Z</time>
      </trkpt>
      <trkpt lat="45.51167" lon="5.74754">
        <ele>533.409749</ele>
        <time>2023-12-12T09:19:35.000Z</time>
      </trkpt>
      <trkpt lat="45.51167" lon="5.74757">
        <ele>533.786061</ele>
        <time>2023-12-12T09:19:37.000Z</time>
      </trkpt>
      <trkpt lat="45.51163" lon="5.74761">
        <ele>534.807849</ele>
        <time>2023-12-12T09:19:42.000Z</time>
      </trkpt>
      <trkpt lat="45.51162" lon="5.74763">
        <ele>535.172435</ele>
        <time>2023-12-12T09:19:45.000Z</time>
      </trkpt>
      <trkpt lat="45.51162" lon="5.74763">
        <ele>535.233199</ele>
        <time>2023-12-12T09:19:51.000Z</time>
      </trkpt>
      <trkpt lat="45.51161" lon="5.74764">
        <ele>535.498729</ele>
        <time>2023-12-12T09:19:57.000Z</time>
      </trkpt>
      <trkpt lat="45.51161" lon="5.74764">
        <ele>535.513404</ele>
        <time>2023-12-12T09:20:10.000Z</time>
      </trkpt>
      <trkpt lat="45.51161" lon="5.74764">
        <ele>535.528078</ele>
        <time>2023-12-12T09:20:12.000Z</time>
      </trkpt>
      <trkpt lat="45.51159" lon="5.74766">
        <ele>536.07433</ele>
        <time>2023-12-12T09:20:23.000Z</time>
      </trkpt>
      <trkpt lat="45.51155" lon="5.74768">
        <ele>536.913725</ele>
        <time>2023-12-12T09:20:25.000Z</time>
      </trkpt>
      <trkpt lat="45.51151" lon="5.74777">
        <ele>538.41668</ele>
        <time>2023-12-12T09:20:29.000Z</time>
      </trkpt>
      <trkpt lat="45.51149" lon="5.74782">
        <ele>539.220474</ele>
        <time>2023-12-12T09:20:31.000Z</time>
      </trkpt>
      <trkpt lat="45.51149" lon="5.74786">
        <ele>539.798892</ele>
        <time>2023-12-12T09:20:33.000Z</time>
      </trkpt>
      <trkpt lat="45.51151" lon="5.74793">
        <ele>540.896177</ele>
        <time>2023-12-12T09:20:38.000Z</time>
      </trkpt>
      <trkpt lat="45.51153" lon="5.74796">
        <ele>541.308714</ele>
        <time>2023-12-12T09:20:40.000Z</time>
      </trkpt>
      <trkpt lat="45.51154" lon="5.74798">
        <ele>541.553323</ele>
        <time>2023-12-12T09:20:42.000Z</time>
      </trkpt>
      <trkpt lat="45.51157" lon="5.74803">
        <ele>542.383493</ele>
        <time>2023-12-12T09:20:46.000Z</time>
      </trkpt>
      <trkpt lat="45.51159" lon="5.74812">
        <ele>543.469275</ele>
        <time>2023-12-12T09:20:51.000Z</time>
      </trkpt>
      <trkpt lat="45.51161" lon="5.74817">
        <ele>544.176472</ele>
        <time>2023-12-12T09:20:54.000Z</time>
      </trkpt>
      <trkpt lat="45.51161" lon="5.74821">
        <ele>544.607021</ele>
        <time>2023-12-12T09:20:56.000Z</time>
      </trkpt>
      <trkpt lat="45.5116" lon="5.74829">
        <ele>545.573016</ele>
        <time>2023-12-12T09:21:00.000Z</time>
      </trkpt>
      <trkpt lat="45.51155" lon="5.74839">
        <ele>547.115796</ele>
        <time>2023-12-12T09:21:05.000Z</time>
      </trkpt>
      <trkpt lat="45.51154" lon="5.74841">
        <ele>547.389215</ele>
        <time>2023-12-12T09:21:06.000Z</time>
      </trkpt>
      <trkpt lat="45.5115" lon="5.74848">
        <ele>548.376978</ele>
        <time>2023-12-12T09:21:10.000Z</time>
      </trkpt>
      <trkpt lat="45.51148" lon="5.74854">
        <ele>549.230321</ele>
        <time>2023-12-12T09:21:14.000Z</time>
      </trkpt>
      <trkpt lat="45.51149" lon="5.74856">
        <ele>549.424089</ele>
        <time>2023-12-12T09:21:15.000Z</time>
      </trkpt>
      <trkpt lat="45.51149" lon="5.74858">
        <ele>549.677254</ele>
        <time>2023-12-12T09:21:17.000Z</time>
      </trkpt>
      <trkpt lat="45.51149" lon="5.74858">
        <ele>549.739246</ele>
        <time>2023-12-12T09:21:21.000Z</time>
      </trkpt>
      <trkpt lat="45.51152" lon="5.74856">
        <ele>550.283052</ele>
        <time>2023-12-12T09:21:27.000Z</time>
      </trkpt>
      <trkpt lat="45.51152" lon="5.74855">
        <ele>550.407701</ele>
        <time>2023-12-12T09:21:30.000Z</time>
      </trkpt>
      <trkpt lat="45.51155" lon="5.74855">
        <ele>550.816715</ele>
        <time>2023-12-12T09:21:34.000Z</time>
      </trkpt>
      <trkpt lat="45.51156" lon="5.74855">
        <ele>551.005373</ele>
        <time>2023-12-12T09:21:37.000Z</time>
      </trkpt>
      <trkpt lat="45.51156" lon="5.74856">
        <ele>551.113058</ele>
        <time>2023-12-12T09:21:41.000Z</time>
      </trkpt>
      <trkpt lat="45.51157" lon="5.74857">
        <ele>551.191535</ele>
        <time>2023-12-12T09:21:46.000Z</time>
      </trkpt>
      <trkpt lat="45.51158" lon="5.74859">
        <ele>551.610647</ele>
        <time>2023-12-12T09:21:54.000Z</time>
      </trkpt>
      <trkpt lat="45.51159" lon="5.7486">
        <ele>551.708473</ele>
        <time>2023-12-12T09:21:55.000Z</time>
      </trkpt>
      <trkpt lat="45.51159" lon="5.74866">
        <ele>552.499929</ele>
        <time>2023-12-12T09:22:02.000Z</time>
      </trkpt>
      <trkpt lat="45.5116" lon="5.74867">
        <ele>552.646388</ele>
        <time>2023-12-12T09:22:03.000Z</time>
      </trkpt>
      <trkpt lat="45.51161" lon="5.74871">
        <ele>553.152718</ele>
        <time>2023-12-12T09:22:07.000Z</time>
      </trkpt>
      <trkpt lat="45.51163" lon="5.74872">
        <ele>553.48379</ele>
        <time>2023-12-12T09:22:11.000Z</time>
      </trkpt>
      <trkpt lat="45.51167" lon="5.74872">
        <ele>554.198446</ele>
        <time>2023-12-12T09:22:20.000Z</time>
      </trkpt>
      <trkpt lat="45.5117" lon="5.74875">
        <ele>554.808317</ele>
        <time>2023-12-12T09:22:24.000Z</time>
      </trkpt>
      <trkpt lat="45.51172" lon="5.74877">
        <ele>555.23794</ele>
        <time>2023-12-12T09:22:26.000Z</time>
      </trkpt>
      <trkpt lat="45.51179" lon="5.74887">
        <ele>557.021148</ele>
        <time>2023-12-12T09:22:32.000Z</time>
      </trkpt>
      <trkpt lat="45.51182" lon="5.7489">
        <ele>557.610728</ele>
        <time>2023-12-12T09:22:34.000Z</time>
      </trkpt>
      <trkpt lat="45.5119" lon="5.74902">
        <ele>559.534196</ele>
        <time>2023-12-12T09:22:41.000Z</time>
      </trkpt>
      <trkpt lat="45.51191" lon="5.74903">
        <ele>559.813603</ele>
        <time>2023-12-12T09:22:42.000Z</time>
      </trkpt>
      <trkpt lat="45.51192" lon="5.74905">
        <ele>560.087461</ele>
        <time>2023-12-12T09:22:43.000Z</time>
      </trkpt>
      <trkpt lat="45.51195" lon="5.74909">
        <ele>560.71762</ele>
        <time>2023-12-12T09:22:46.000Z</time>
      </trkpt>
      <trkpt lat="45.51199" lon="5.74916">
        <ele>561.789371</ele>
        <time>2023-12-12T09:22:51.000Z</time>
      </trkpt>
      <trkpt lat="45.51201" lon="5.74917">
        <ele>562.142542</ele>
        <time>2023-12-12T09:22:53.000Z</time>
      </trkpt>
      <trkpt lat="45.51201" lon="5.74919">
        <ele>562.308731</ele>
        <time>2023-12-12T09:22:57.000Z</time>
      </trkpt>
      <trkpt lat="45.51201" lon="5.74919">
        <ele>562.320654</ele>
        <time>2023-12-12T09:22:58.000Z</time>
      </trkpt>
      <trkpt lat="45.51201" lon="5.74919">
        <ele>562.337667</ele>
        <time>2023-12-12T09:22:59.000Z</time>
      </trkpt>
      <trkpt lat="45.51201" lon="5.74919">
        <ele>562.349589</ele>
        <time>2023-12-12T09:23:04.000Z</time>
      </trkpt>
      <trkpt lat="45.51201" lon="5.74919">
        <ele>562.349589</ele>
        <time>2023-12-12T09:23:09.000Z</time>
      </trkpt>
      <trkpt lat="45.51201" lon="5.74919">
        <ele>562.373433</ele>
        <time>2023-12-12T09:23:29.000Z</time>
      </trkpt>
      <trkpt lat="45.51201" lon="5.74919">
        <ele>562.424066</ele>
        <time>2023-12-12T09:23:39.000Z</time>
      </trkpt>
      <trkpt lat="45.51201" lon="5.7492">
        <ele>562.453358</ele>
        <time>2023-12-12T09:23:51.000Z</time>
      </trkpt>
      <trkpt lat="45.51201" lon="5.7492">
        <ele>562.487384</ele>
        <time>2023-12-12T09:23:57.000Z</time>
      </trkpt>
      <trkpt lat="45.51201" lon="5.7492">
        <ele>562.545968</ele>
        <time>2023-12-12T09:24:06.000Z</time>
      </trkpt>
      <trkpt lat="45.512" lon="5.7492">
        <ele>562.562981</ele>
        <time>2023-12-12T09:24:09.000Z</time>
      </trkpt>
      <trkpt lat="45.512" lon="5.7492">
        <ele>562.579994</ele>
        <time>2023-12-12T09:24:12.000Z</time>
      </trkpt>
      <trkpt lat="45.512" lon="5.74921">
        <ele>562.728094</ele>
        <time>2023-12-12T09:24:45.000Z</time>
      </trkpt>
      <trkpt lat="45.51199" lon="5.74921">
        <ele>562.832921</ele>
        <time>2023-12-12T09:25:03.000Z</time>
      </trkpt>
      <trkpt lat="45.51199" lon="5.74922">
        <ele>562.90645</ele>
        <time>2023-12-12T09:25:21.000Z</time>
      </trkpt>
      <trkpt lat="45.51199" lon="5.74922">
        <ele>562.918372</ele>
        <time>2023-12-12T09:25:25.000Z</time>
      </trkpt>
      <trkpt lat="45.51199" lon="5.74922">
        <ele>562.935385</ele>
        <time>2023-12-12T09:25:28.000Z</time>
      </trkpt>
      <trkpt lat="45.51199" lon="5.74922">
        <ele>562.952398</ele>
        <time>2023-12-12T09:25:34.000Z</time>
      </trkpt>
      <trkpt lat="45.51199" lon="5.74922">
        <ele>562.952398</ele>
        <time>2023-12-12T09:25:43.000Z</time>
      </trkpt>
      <trkpt lat="45.51199" lon="5.74922">
        <ele>562.973173</ele>
        <time>2023-12-12T09:25:52.000Z</time>
      </trkpt>
      <trkpt lat="45.51199" lon="5.74922">
        <ele>563.01278</ele>
        <time>2023-12-12T09:26:17.000Z</time>
      </trkpt>
      <trkpt lat="45.51199" lon="5.74922">
        <ele>563.029793</ele>
        <time>2023-12-12T09:26:47.000Z</time>
      </trkpt>
      <trkpt lat="45.51199" lon="5.74922">
        <ele>563.086128</ele>
        <time>2023-12-12T09:27:19.000Z</time>
      </trkpt>
      <trkpt lat="45.51203" lon="5.74926">
        <ele>563.869749</ele>
        <time>2023-12-12T09:27:22.000Z</time>
      </trkpt>
      <trkpt lat="45.51204" lon="5.74929">
        <ele>564.192451</ele>
        <time>2023-12-12T09:27:23.000Z</time>
      </trkpt>
      <trkpt lat="45.51206" lon="5.74937">
        <ele>565.278224</ele>
        <time>2023-12-12T09:27:27.000Z</time>
      </trkpt>
      <trkpt lat="45.51208" lon="5.74946">
        <ele>566.409139</ele>
        <time>2023-12-12T09:27:31.000Z</time>
      </trkpt>
      <trkpt lat="45.51209" lon="5.74953">
        <ele>567.238079</ele>
        <time>2023-12-12T09:27:34.000Z</time>
      </trkpt>
      <trkpt lat="45.51209" lon="5.7496">
        <ele>568.014699</ele>
        <time>2023-12-12T09:27:37.000Z</time>
      </trkpt>
      <trkpt lat="45.5121" lon="5.74966">
        <ele>568.719453</ele>
        <time>2023-12-12T09:27:40.000Z</time>
      </trkpt>
      <trkpt lat="45.5121" lon="5.74969">
        <ele>569.148989</ele>
        <time>2023-12-12T09:27:42.000Z</time>
      </trkpt>
      <trkpt lat="45.51211" lon="5.74977">
        <ele>570.132054</ele>
        <time>2023-12-12T09:27:46.000Z</time>
      </trkpt>
      <trkpt lat="45.51211" lon="5.74979">
        <ele>570.382997</ele>
        <time>2023-12-12T09:27:47.000Z</time>
      </trkpt>
      <trkpt lat="45.51211" lon="5.74983">
        <ele>570.78307</ele>
        <time>2023-12-12T09:27:49.000Z</time>
      </trkpt>
      <trkpt lat="45.51211" lon="5.74986">
        <ele>571.068209</ele>
        <time>2023-12-12T09:27:51.000Z</time>
      </trkpt>
      <trkpt lat="45.51211" lon="5.74991">
        <ele>571.446981</ele>
        <time>2023-12-12T09:27:53.000Z</time>
      </trkpt>
      <trkpt lat="45.51211" lon="5.74992">
        <ele>571.578424</ele>
        <time>2023-12-12T09:27:54.000Z</time>
      </trkpt>
      <trkpt lat="45.51209" lon="5.74996">
        <ele>572.01603</ele>
        <time>2023-12-12T09:27:56.000Z</time>
      </trkpt>
      <trkpt lat="45.51208" lon="5.74998">
        <ele>572.195431</ele>
        <time>2023-12-12T09:27:57.000Z</time>
      </trkpt>
      <trkpt lat="45.51204" lon="5.75007">
        <ele>573.106357</ele>
        <time>2023-12-12T09:28:01.000Z</time>
      </trkpt>
      <trkpt lat="45.51204" lon="5.7501">
        <ele>573.310358</ele>
        <time>2023-12-12T09:28:02.000Z</time>
      </trkpt>
      <trkpt lat="45.51202" lon="5.75019">
        <ele>574.126361</ele>
        <time>2023-12-12T09:28:06.000Z</time>
      </trkpt>
      <trkpt lat="45.51202" lon="5.75023">
        <ele>574.518581</ele>
        <time>2023-12-12T09:28:08.000Z</time>
      </trkpt>
      <trkpt lat="45.512" lon="5.75028">
        <ele>574.933062</ele>
        <time>2023-12-12T09:28:10.000Z</time>
      </trkpt>
      <trkpt lat="45.51199" lon="5.75032">
        <ele>575.33951</ele>
        <time>2023-12-12T09:28:12.000Z</time>
      </trkpt>
      <trkpt lat="45.51198" lon="5.75037">
        <ele>575.760726</ele>
        <time>2023-12-12T09:28:14.000Z</time>
      </trkpt>
      <trkpt lat="45.51197" lon="5.75041">
        <ele>576.158921</ele>
        <time>2023-12-12T09:28:16.000Z</time>
      </trkpt>
      <trkpt lat="45.51196" lon="5.75045">
        <ele>576.536352</ele>
        <time>2023-12-12T09:28:18.000Z</time>
      </trkpt>
      <trkpt lat="45.51195" lon="5.75052">
        <ele>577.098278</ele>
        <time>2023-12-12T09:28:21.000Z</time>
      </trkpt>
      <trkpt lat="45.51196" lon="5.75056">
        <ele>577.45653</ele>
        <time>2023-12-12T09:28:23.000Z</time>
      </trkpt>
      <trkpt lat="45.51195" lon="5.75062">
        <ele>578.020914</ele>
        <time>2023-12-12T09:28:26.000Z</time>
      </trkpt>
      <trkpt lat="45.51194" lon="5.75066">
        <ele>578.369546</ele>
        <time>2023-12-12T09:28:28.000Z</time>
      </trkpt>
      <trkpt lat="45.51193" lon="5.75068">
        <ele>578.536229</ele>
        <time>2023-12-12T09:28:29.000Z</time>
      </trkpt>
      <trkpt lat="45.51192" lon="5.75073">
        <ele>579.00382</ele>
        <time>2023-12-12T09:28:32.000Z</time>
      </trkpt>
      <trkpt lat="45.5119" lon="5.75081">
        <ele>579.716468</ele>
        <time>2023-12-12T09:28:36.000Z</time>
      </trkpt>
      <trkpt lat="45.5119" lon="5.75083">
        <ele>579.920469</ele>
        <time>2023-12-12T09:28:37.000Z</time>
      </trkpt>
      <trkpt lat="45.51191" lon="5.7509">
        <ele>580.538851</ele>
        <time>2023-12-12T09:28:40.000Z</time>
      </trkpt>
      <trkpt lat="45.51193" lon="5.75093">
        <ele>580.872343</ele>
        <time>2023-12-12T09:28:42.000Z</time>
      </trkpt>
      <trkpt lat="45.51193" lon="5.75094">
        <ele>580.971213</ele>
        <time>2023-12-12T09:28:43.000Z</time>
      </trkpt>
      <trkpt lat="45.51195" lon="5.75098">
        <ele>581.380436</ele>
        <time>2023-12-12T09:28:48.000Z</time>
      </trkpt>
      <trkpt lat="45.51195" lon="5.75098">
        <ele>581.449304</ele>
        <time>2023-12-12T09:28:49.000Z</time>
      </trkpt>
      <trkpt lat="45.51194" lon="5.75106">
        <ele>582.137292</ele>
        <time>2023-12-12T09:28:55.000Z</time>
      </trkpt>
      <trkpt lat="45.51193" lon="5.75114">
        <ele>582.853797</ele>
        <time>2023-12-12T09:28:59.000Z</time>
      </trkpt>
      <trkpt lat="45.51192" lon="5.7512">
        <ele>583.351958</ele>
        <time>2023-12-12T09:29:02.000Z</time>
      </trkpt>
      <trkpt lat="45.51192" lon="5.75122">
        <ele>583.550333</ele>
        <time>2023-12-12T09:29:03.000Z</time>
      </trkpt>
      <trkpt lat="45.51189" lon="5.75137">
        <ele>584.825246</ele>
        <time>2023-12-12T09:29:09.000Z</time>
      </trkpt>
      <trkpt lat="45.51186" lon="5.75144">
        <ele>585.58114</ele>
        <time>2023-12-12T09:29:12.000Z</time>
      </trkpt>
      <trkpt lat="45.5118" lon="5.75162">
        <ele>587.293769</ele>
        <time>2023-12-12T09:29:18.000Z</time>
      </trkpt>
      <trkpt lat="45.51175" lon="5.75177">
        <ele>588.758681</ele>
        <time>2023-12-12T09:29:23.000Z</time>
      </trkpt>
      <trkpt lat="45.51172" lon="5.75186">
        <ele>589.564788</ele>
        <time>2023-12-12T09:29:26.000Z</time>
      </trkpt>
      <trkpt lat="45.51166" lon="5.75201">
        <ele>591.033697</ele>
        <time>2023-12-12T09:29:31.000Z</time>
      </trkpt>
      <trkpt lat="45.51163" lon="5.75209">
        <ele>591.805635</ele>
        <time>2023-12-12T09:29:34.000Z</time>
      </trkpt>
      <trkpt lat="45.51162" lon="5.75211">
        <ele>592.055274</ele>
        <time>2023-12-12T09:29:35.000Z</time>
      </trkpt>
      <trkpt lat="45.51159" lon="5.75222">
        <ele>592.682574</ele>
        <time>2023-12-12T09:29:39.000Z</time>
      </trkpt>
      <trkpt lat="45.51158" lon="5.75224">
        <ele>592.635143</ele>
        <time>2023-12-12T09:29:40.000Z</time>
      </trkpt>
      <trkpt lat="45.51153" lon="5.75234">
        <ele>592.390783</ele>
        <time>2023-12-12T09:29:44.000Z</time>
      </trkpt>
      <trkpt lat="45.51152" lon="5.75236">
        <ele>592.345575</ele>
        <time>2023-12-12T09:29:45.000Z</time>
      </trkpt>
      <trkpt lat="45.51146" lon="5.75249">
        <ele>592.039998</ele>
        <time>2023-12-12T09:29:50.000Z</time>
      </trkpt>
      <trkpt lat="45.51144" lon="5.75258">
        <ele>591.852521</ele>
        <time>2023-12-12T09:29:53.000Z</time>
      </trkpt>
      <trkpt lat="45.51142" lon="5.75263">
        <ele>591.749667</ele>
        <time>2023-12-12T09:29:55.000Z</time>
      </trkpt>
      <trkpt lat="45.51138" lon="5.7528">
        <ele>591.397662</ele>
        <time>2023-12-12T09:30:01.000Z</time>
      </trkpt>
      <trkpt lat="45.51137" lon="5.75282">
        <ele>591.347255</ele>
        <time>2023-12-12T09:30:02.000Z</time>
      </trkpt>
      <trkpt lat="45.51133" lon="5.75289">
        <ele>591.173234</ele>
        <time>2023-12-12T09:30:05.000Z</time>
      </trkpt>
      <trkpt lat="45.51121" lon="5.75303">
        <ele>590.721454</ele>
        <time>2023-12-12T09:30:11.000Z</time>
      </trkpt>
      <trkpt lat="45.51116" lon="5.75307">
        <ele>590.567684</ele>
        <time>2023-12-12T09:30:12.000Z</time>
      </trkpt>
      <trkpt lat="45.5111" lon="5.75311">
        <ele>590.397349</ele>
        <time>2023-12-12T09:30:13.000Z</time>
      </trkpt>
      <trkpt lat="45.51104" lon="5.75314">
        <ele>590.20131</ele>
        <time>2023-12-12T09:30:14.000Z</time>
      </trkpt>
      <trkpt lat="45.51096" lon="5.75319">
        <ele>589.973394</ele>
        <time>2023-12-12T09:30:15.000Z</time>
      </trkpt>
      <trkpt lat="45.5109" lon="5.75322">
        <ele>589.790646</ele>
        <time>2023-12-12T09:30:16.000Z</time>
      </trkpt>
      <trkpt lat="45.51082" lon="5.75327">
        <ele>589.55047</ele>
        <time>2023-12-12T09:30:17.000Z</time>
      </trkpt>
      <trkpt lat="45.51073" lon="5.75331">
        <ele>589.282547</ele>
        <time>2023-12-12T09:30:18.000Z</time>
      </trkpt>
      <trkpt lat="45.51062" lon="5.75337">
        <ele>588.945473</ele>
        <time>2023-12-12T09:30:19.000Z</time>
      </trkpt>
      <trkpt lat="45.51052" lon="5.75343">
        <ele>588.645275</ele>
        <time>2023-12-12T09:30:20.000Z</time>
      </trkpt>
      <trkpt lat="45.51043" lon="5.75351">
        <ele>588.348242</ele>
        <time>2023-12-12T09:30:21.000Z</time>
      </trkpt>
      <trkpt lat="45.51027" lon="5.75369">
        <ele>587.789153</ele>
        <time>2023-12-12T09:30:23.000Z</time>
      </trkpt>
      <trkpt lat="45.5101" lon="5.75389">
        <ele>588.79552</ele>
        <time>2023-12-12T09:30:26.000Z</time>
      </trkpt>
      <trkpt lat="45.51007" lon="5.75393">
        <ele>589.035019</ele>
        <time>2023-12-12T09:30:27.000Z</time>
      </trkpt>
      <trkpt lat="45.51004" lon="5.75397">
        <ele>589.23728</ele>
        <time>2023-12-12T09:30:28.000Z</time>
      </trkpt>
      <trkpt lat="45.51002" lon="5.754">
        <ele>589.410452</ele>
        <time>2023-12-12T09:30:29.000Z</time>
      </trkpt>
      <trkpt lat="45.50998" lon="5.75405">
        <ele>589.730625</ele>
        <time>2023-12-12T09:30:31.000Z</time>
      </trkpt>
      <trkpt lat="45.50993" lon="5.75411">
        <ele>590.062537</ele>
        <time>2023-12-12T09:30:33.000Z</time>
      </trkpt>
      <trkpt lat="45.50987" lon="5.7542">
        <ele>590.543731</ele>
        <time>2023-12-12T09:30:36.000Z</time>
      </trkpt>
      <trkpt lat="45.50985" lon="5.75424">
        <ele>590.707556</ele>
        <time>2023-12-12T09:30:37.000Z</time>
      </trkpt>
      <trkpt lat="45.50979" lon="5.75434">
        <ele>591.206052</ele>
        <time>2023-12-12T09:30:40.000Z</time>
      </trkpt>
      <trkpt lat="45.50974" lon="5.75447">
        <ele>591.822858</ele>
        <time>2023-12-12T09:30:44.000Z</time>
      </trkpt>
      <trkpt lat="45.50972" lon="5.7545">
        <ele>591.967561</ele>
        <time>2023-12-12T09:30:45.000Z</time>
      </trkpt>
      <trkpt lat="45.50971" lon="5.75454">
        <ele>592.118826</ele>
        <time>2023-12-12T09:30:46.000Z</time>
      </trkpt>
      <trkpt lat="45.50968" lon="5.75461">
        <ele>592.429837</ele>
        <time>2023-12-12T09:30:48.000Z</time>
      </trkpt>
      <trkpt lat="45.50962" lon="5.75473">
        <ele>592.997358</ele>
        <time>2023-12-12T09:30:52.000Z</time>
      </trkpt>
      <trkpt lat="45.50959" lon="5.75484">
        <ele>593.447252</ele>
        <time>2023-12-12T09:30:55.000Z</time>
      </trkpt>
      <trkpt lat="45.50956" lon="5.75491">
        <ele>593.741527</ele>
        <time>2023-12-12T09:30:57.000Z</time>
      </trkpt>
      <trkpt lat="45.50955" lon="5.75498">
        <ele>594.034919</ele>
        <time>2023-12-12T09:30:59.000Z</time>
      </trkpt>
      <trkpt lat="45.50954" lon="5.75502">
        <ele>594.176134</ele>
        <time>2023-12-12T09:31:00.000Z</time>
      </trkpt>
      <trkpt lat="45.50952" lon="5.75512">
        <ele>594.579604</ele>
        <time>2023-12-12T09:31:03.000Z</time>
      </trkpt>
      <trkpt lat="45.50951" lon="5.75523">
        <ele>595.010923</ele>
        <time>2023-12-12T09:31:07.000Z</time>
      </trkpt>
      <trkpt lat="45.50952" lon="5.75531">
        <ele>595.335403</ele>
        <time>2023-12-12T09:31:13.000Z</time>
      </trkpt>
      <trkpt lat="45.50956" lon="5.75544">
        <ele>595.853257</ele>
        <time>2023-12-12T09:31:28.000Z</time>
      </trkpt>
      <trkpt lat="45.50959" lon="5.75555">
        <ele>596.328496</ele>
        <time>2023-12-12T09:31:30.000Z</time>
      </trkpt>
      <trkpt lat="45.5096" lon="5.75568">
        <ele>596.821432</ele>
        <time>2023-12-12T09:31:32.000Z</time>
      </trkpt>
      <trkpt lat="45.5095" lon="5.75584">
        <ele>597.523985</ele>
        <time>2023-12-12T09:31:35.000Z</time>
      </trkpt>
      <trkpt lat="45.50943" lon="5.75587">
        <ele>597.399123</ele>
        <time>2023-12-12T09:31:36.000Z</time>
      </trkpt>
      <trkpt lat="45.50929" lon="5.75591">
        <ele>597.114746</ele>
        <time>2023-12-12T09:31:38.000Z</time>
      </trkpt>
      <trkpt lat="45.50921" lon="5.75592">
        <ele>596.958841</ele>
        <time>2023-12-12T09:31:39.000Z</time>
      </trkpt>
      <trkpt lat="45.50913" lon="5.75595">
        <ele>596.800603</ele>
        <time>2023-12-12T09:31:40.000Z</time>
      </trkpt>
      <trkpt lat="45.50905" lon="5.75599">
        <ele>596.638177</ele>
        <time>2023-12-12T09:31:41.000Z</time>
      </trkpt>
      <trkpt lat="45.50897" lon="5.75605">
        <ele>596.471005</ele>
        <time>2023-12-12T09:31:42.000Z</time>
      </trkpt>
      <trkpt lat="45.50886" lon="5.75623">
        <ele>596.134276</ele>
        <time>2023-12-12T09:31:44.000Z</time>
      </trkpt>
      <trkpt lat="45.50883" lon="5.75635">
        <ele>595.958551</ele>
        <time>2023-12-12T09:31:45.000Z</time>
      </trkpt>
      <trkpt lat="45.50882" lon="5.75648">
        <ele>595.780316</ele>
        <time>2023-12-12T09:31:46.000Z</time>
      </trkpt>
      <trkpt lat="45.50883" lon="5.75673">
        <ele>595.444605</ele>
        <time>2023-12-12T09:31:48.000Z</time>
      </trkpt>
      <trkpt lat="45.50886" lon="5.75693">
        <ele>595.167798</ele>
        <time>2023-12-12T09:31:50.000Z</time>
      </trkpt>
      <trkpt lat="45.50887" lon="5.75708">
        <ele>594.960062</ele>
        <time>2023-12-12T09:31:52.000Z</time>
      </trkpt>
      <trkpt lat="45.50889" lon="5.7572">
        <ele>594.80233</ele>
        <time>2023-12-12T09:31:54.000Z</time>
      </trkpt>
      <trkpt lat="45.5089" lon="5.75731">
        <ele>594.651873</ele>
        <time>2023-12-12T09:31:56.000Z</time>
      </trkpt>
      <trkpt lat="45.5089" lon="5.75736">
        <ele>594.576774</ele>
        <time>2023-12-12T09:31:57.000Z</time>
      </trkpt>
      <trkpt lat="45.50892" lon="5.75753">
        <ele>594.354165</ele>
        <time>2023-12-12T09:32:00.000Z</time>
      </trkpt>
      <trkpt lat="45.50893" lon="5.75763">
        <ele>594.205783</ele>
        <time>2023-12-12T09:32:02.000Z</time>
      </trkpt>
      <trkpt lat="45.50895" lon="5.75779">
        <ele>594.242515</ele>
        <time>2023-12-12T09:32:05.000Z</time>
      </trkpt>
      <trkpt lat="45.50895" lon="5.75785">
        <ele>594.35289</ele>
        <time>2023-12-12T09:32:06.000Z</time>
      </trkpt>
      <trkpt lat="45.50898" lon="5.75806">
        <ele>594.793946</ele>
        <time>2023-12-12T09:32:10.000Z</time>
      </trkpt>
      <trkpt lat="45.509" lon="5.75822">
        <ele>595.121082</ele>
        <time>2023-12-12T09:32:13.000Z</time>
      </trkpt>
      <trkpt lat="45.50902" lon="5.75833">
        <ele>595.346194</ele>
        <time>2023-12-12T09:32:15.000Z</time>
      </trkpt>
      <trkpt lat="45.50903" lon="5.75837">
        <ele>595.430168</ele>
        <time>2023-12-12T09:32:16.000Z</time>
      </trkpt>
      <trkpt lat="45.50904" lon="5.75842">
        <ele>595.546401</ele>
        <time>2023-12-12T09:32:17.000Z</time>
      </trkpt>
      <trkpt lat="45.50918" lon="5.75879">
        <ele>596.377926</ele>
        <time>2023-12-12T09:32:24.000Z</time>
      </trkpt>
      <trkpt lat="45.50922" lon="5.75909">
        <ele>597.005286</ele>
        <time>2023-12-12T09:32:29.000Z</time>
      </trkpt>
      <trkpt lat="45.50921" lon="5.75957">
        <ele>597.980358</ele>
        <time>2023-12-12T09:32:37.000Z</time>
      </trkpt>
      <trkpt lat="45.50919" lon="5.76025">
        <ele>599.201117</ele>
        <time>2023-12-12T09:32:48.000Z</time>
      </trkpt>
      <trkpt lat="45.50919" lon="5.76029">
        <ele>599.115244</ele>
        <time>2023-12-12T09:32:49.000Z</time>
      </trkpt>
      <trkpt lat="45.50918" lon="5.76042">
        <ele>598.873801</ele>
        <time>2023-12-12T09:32:51.000Z</time>
      </trkpt>
      <trkpt lat="45.50911" lon="5.7607">
        <ele>598.299554</ele>
        <time>2023-12-12T09:32:56.000Z</time>
      </trkpt>
      <trkpt lat="45.50909" lon="5.76075">
        <ele>598.186416</ele>
        <time>2023-12-12T09:32:57.000Z</time>
      </trkpt>
      <trkpt lat="45.50907" lon="5.7608">
        <ele>598.080895</ele>
        <time>2023-12-12T09:32:58.000Z</time>
      </trkpt>
      <trkpt lat="45.50898" lon="5.76108">
        <ele>597.507748</ele>
        <time>2023-12-12T09:33:03.000Z</time>
      </trkpt>
      <trkpt lat="45.50894" lon="5.76119">
        <ele>597.275024</ele>
        <time>2023-12-12T09:33:05.000Z</time>
      </trkpt>
      <trkpt lat="45.50888" lon="5.76134">
        <ele>596.928298</ele>
        <time>2023-12-12T09:33:08.000Z</time>
      </trkpt>
      <trkpt lat="45.50883" lon="5.7615">
        <ele>596.594722</ele>
        <time>2023-12-12T09:33:11.000Z</time>
      </trkpt>
      <trkpt lat="45.5087" lon="5.76186">
        <ele>595.835722</ele>
        <time>2023-12-12T09:33:18.000Z</time>
      </trkpt>
      <trkpt lat="45.50867" lon="5.76196">
        <ele>595.617971</ele>
        <time>2023-12-12T09:33:20.000Z</time>
      </trkpt>
      <trkpt lat="45.50853" lon="5.76238">
        <ele>594.738297</ele>
        <time>2023-12-12T09:33:28.000Z</time>
      </trkpt>
      <trkpt lat="45.5085" lon="5.76257">
        <ele>594.287557</ele>
        <time>2023-12-12T09:33:31.000Z</time>
      </trkpt>
      <trkpt lat="45.5085" lon="5.76272">
        <ele>593.295888</ele>
        <time>2023-12-12T09:33:33.000Z</time>
      </trkpt>
      <trkpt lat="45.50851" lon="5.76294">
        <ele>591.716874</ele>
        <time>2023-12-12T09:33:38.000Z</time>
      </trkpt>
      <trkpt lat="45.50851" lon="5.76295">
        <ele>591.675299</ele>
        <time>2023-12-12T09:33:41.000Z</time>
      </trkpt>
      <trkpt lat="45.50851" lon="5.76295">
        <ele>591.675299</ele>
        <time>2023-12-12T09:33:42.000Z</time>
      </trkpt>
      <trkpt lat="45.50851" lon="5.76295">
        <ele>591.651151</ele>
        <time>2023-12-12T09:33:52.000Z</time>
      </trkpt>
      <trkpt lat="45.50851" lon="5.76295">
        <ele>591.641264</ele>
        <time>2023-12-12T09:34:15.000Z</time>
      </trkpt>
      <trkpt lat="45.50851" lon="5.76295">
        <ele>591.631376</ele>
        <time>2023-12-12T09:34:20.000Z</time>
      </trkpt>
      <trkpt lat="45.5085" lon="5.76296">
        <ele>591.559317</ele>
        <time>2023-12-12T09:34:48.000Z</time>
      </trkpt>
      <trkpt lat="45.50851" lon="5.76306">
        <ele>590.818194</ele>
        <time>2023-12-12T09:34:50.000Z</time>
      </trkpt>
      <trkpt lat="45.50852" lon="5.76314">
        <ele>590.266427</ele>
        <time>2023-12-12T09:34:52.000Z</time>
      </trkpt>
      <trkpt lat="45.50853" lon="5.76318">
        <ele>590.032479</ele>
        <time>2023-12-12T09:34:54.000Z</time>
      </trkpt>
      <trkpt lat="45.50852" lon="5.76318">
        <ele>589.976171</ele>
        <time>2023-12-12T09:34:55.000Z</time>
      </trkpt>
      <trkpt lat="45.50853" lon="5.7632">
        <ele>589.863553</ele>
        <time>2023-12-12T09:34:57.000Z</time>
      </trkpt>
      <trkpt lat="45.50852" lon="5.76322">
        <ele>589.72183</ele>
        <time>2023-12-12T09:35:01.000Z</time>
      </trkpt>
      <trkpt lat="45.50852" lon="5.76322">
        <ele>589.704806</ele>
        <time>2023-12-12T09:35:07.000Z</time>
      </trkpt>
      <trkpt lat="45.50853" lon="5.76323">
        <ele>589.668584</ele>
        <time>2023-12-12T09:35:08.000Z</time>
      </trkpt>
      <trkpt lat="45.50853" lon="5.76322">
        <ele>589.614954</ele>
        <time>2023-12-12T09:35:10.000Z</time>
      </trkpt>
      <trkpt lat="45.50853" lon="5.76321">
        <ele>589.549531</ele>
        <time>2023-12-12T09:35:15.000Z</time>
      </trkpt>
      <trkpt lat="45.50853" lon="5.76321">
        <ele>589.549531</ele>
        <time>2023-12-12T09:35:18.000Z</time>
      </trkpt>
      <trkpt lat="45.50853" lon="5.76322">
        <ele>589.515483</ele>
        <time>2023-12-12T09:35:35.000Z</time>
      </trkpt>
      <trkpt lat="45.50854" lon="5.76322">
        <ele>589.503409</ele>
        <time>2023-12-12T09:36:08.000Z</time>
      </trkpt>
      <trkpt lat="45.50854" lon="5.76322">
        <ele>589.503409</ele>
        <time>2023-12-12T09:36:11.000Z</time>
      </trkpt>
      <trkpt lat="45.50854" lon="5.76322">
        <ele>589.503409</ele>
        <time>2023-12-12T09:36:12.000Z</time>
      </trkpt>
      <trkpt lat="45.50854" lon="5.76321">
        <ele>589.394744</ele>
        <time>2023-12-12T09:36:37.000Z</time>
      </trkpt>
      <trkpt lat="45.50855" lon="5.76321">
        <ele>589.384857</ele>
        <time>2023-12-12T09:36:42.000Z</time>
      </trkpt>
      <trkpt lat="45.50855" lon="5.76321">
        <ele>589.372783</ele>
        <time>2023-12-12T09:36:45.000Z</time>
      </trkpt>
      <trkpt lat="45.50857" lon="5.76333">
        <ele>588.513558</ele>
        <time>2023-12-12T09:36:55.000Z</time>
      </trkpt>
      <trkpt lat="45.5086" lon="5.76365">
        <ele>586.301183</ele>
        <time>2023-12-12T09:37:00.000Z</time>
      </trkpt>
      <trkpt lat="45.5086" lon="5.76372">
        <ele>585.765348</ele>
        <time>2023-12-12T09:37:01.000Z</time>
      </trkpt>
      <trkpt lat="45.50862" lon="5.764">
        <ele>583.855424</ele>
        <time>2023-12-12T09:37:05.000Z</time>
      </trkpt>
      <trkpt lat="45.50863" lon="5.7641">
        <ele>583.154457</ele>
        <time>2023-12-12T09:37:07.000Z</time>
      </trkpt>
      <trkpt lat="45.50863" lon="5.76414">
        <ele>582.8351</ele>
        <time>2023-12-12T09:37:08.000Z</time>
      </trkpt>
      <trkpt lat="45.50864" lon="5.76424">
        <ele>582.133258</ele>
        <time>2023-12-12T09:37:12.000Z</time>
      </trkpt>
      <trkpt lat="45.50865" lon="5.76441">
        <ele>580.978768</ele>
        <time>2023-12-12T09:37:16.000Z</time>
      </trkpt>
      <trkpt lat="45.50866" lon="5.76447">
        <ele>580.54734</ele>
        <time>2023-12-12T09:37:17.000Z</time>
      </trkpt>
      <trkpt lat="45.50866" lon="5.76454">
        <ele>580.094237</ele>
        <time>2023-12-12T09:37:18.000Z</time>
      </trkpt>
      <trkpt lat="45.50867" lon="5.76465">
        <ele>579.286566</ele>
        <time>2023-12-12T09:37:20.000Z</time>
      </trkpt>
      <trkpt lat="45.50868" lon="5.76474">
        <ele>578.654073</ele>
        <time>2023-12-12T09:37:22.000Z</time>
      </trkpt>
      <trkpt lat="45.50868" lon="5.76485">
        <ele>577.898725</ele>
        <time>2023-12-12T09:37:24.000Z</time>
      </trkpt>
      <trkpt lat="45.50869" lon="5.76508">
        <ele>576.374193</ele>
        <time>2023-12-12T09:37:27.000Z</time>
      </trkpt>
      <trkpt lat="45.5087" lon="5.76516">
        <ele>575.907603</ele>
        <time>2023-12-12T09:37:28.000Z</time>
      </trkpt>
      <trkpt lat="45.50871" lon="5.76525">
        <ele>575.410566</ele>
        <time>2023-12-12T09:37:29.000Z</time>
      </trkpt>
      <trkpt lat="45.50871" lon="5.76534">
        <ele>574.887511</ele>
        <time>2023-12-12T09:37:30.000Z</time>
      </trkpt>
      <trkpt lat="45.50869" lon="5.76544">
        <ele>574.334587</ele>
        <time>2023-12-12T09:37:31.000Z</time>
      </trkpt>
      <trkpt lat="45.50867" lon="5.76553">
        <ele>573.790347</ele>
        <time>2023-12-12T09:37:32.000Z</time>
      </trkpt>
      <trkpt lat="45.50862" lon="5.7657">
        <ele>572.718177</ele>
        <time>2023-12-12T09:37:34.000Z</time>
      </trkpt>
      <trkpt lat="45.50859" lon="5.76589">
        <ele>571.648863</ele>
        <time>2023-12-12T09:37:36.000Z</time>
      </trkpt>
      <trkpt lat="45.50857" lon="5.76609">
        <ele>570.525398</ele>
        <time>2023-12-12T09:37:38.000Z</time>
      </trkpt>
      <trkpt lat="45.50855" lon="5.7665">
        <ele>568.203743</ele>
        <time>2023-12-12T09:37:42.000Z</time>
      </trkpt>
      <trkpt lat="45.50854" lon="5.76672">
        <ele>566.960098</ele>
        <time>2023-12-12T09:37:44.000Z</time>
      </trkpt>
      <trkpt lat="45.50854" lon="5.76684">
        <ele>566.295535</ele>
        <time>2023-12-12T09:37:45.000Z</time>
      </trkpt>
      <trkpt lat="45.50852" lon="5.76713">
        <ele>564.675683</ele>
        <time>2023-12-12T09:37:48.000Z</time>
      </trkpt>
      <trkpt lat="45.50852" lon="5.7672">
        <ele>564.270609</ele>
        <time>2023-12-12T09:37:49.000Z</time>
      </trkpt>
      <trkpt lat="45.50856" lon="5.76733">
        <ele>563.430216</ele>
        <time>2023-12-12T09:37:51.000Z</time>
      </trkpt>
      <trkpt lat="45.5086" lon="5.7674">
        <ele>562.955603</ele>
        <time>2023-12-12T09:37:52.000Z</time>
      </trkpt>
      <trkpt lat="45.50866" lon="5.76756">
        <ele>562.090979</ele>
        <time>2023-12-12T09:37:54.000Z</time>
      </trkpt>
      <trkpt lat="45.50868" lon="5.76764">
        <ele>561.91165</ele>
        <time>2023-12-12T09:37:55.000Z</time>
      </trkpt>
      <trkpt lat="45.50868" lon="5.76773">
        <ele>561.737715</ele>
        <time>2023-12-12T09:37:56.000Z</time>
      </trkpt>
      <trkpt lat="45.50867" lon="5.76791">
        <ele>561.384725</ele>
        <time>2023-12-12T09:37:58.000Z</time>
      </trkpt>
      <trkpt lat="45.50863" lon="5.76808">
        <ele>561.040678</ele>
        <time>2023-12-12T09:38:00.000Z</time>
      </trkpt>
      <trkpt lat="45.50849" lon="5.7686">
        <ele>559.960445</ele>
        <time>2023-12-12T09:38:07.000Z</time>
      </trkpt>
      <trkpt lat="45.50841" lon="5.76888">
        <ele>559.391233</ele>
        <time>2023-12-12T09:38:11.000Z</time>
      </trkpt>
      <trkpt lat="45.50833" lon="5.76916">
        <ele>558.795736</ele>
        <time>2023-12-12T09:38:16.000Z</time>
      </trkpt>
      <trkpt lat="45.50823" lon="5.76935">
        <ele>558.333789</ele>
        <time>2023-12-12T09:38:22.000Z</time>
      </trkpt>
      <trkpt lat="45.50822" lon="5.7694">
        <ele>558.239274</ele>
        <time>2023-12-12T09:38:24.000Z</time>
      </trkpt>
      <trkpt lat="45.50827" lon="5.76951">
        <ele>558.00154</ele>
        <time>2023-12-12T09:38:27.000Z</time>
      </trkpt>
      <trkpt lat="45.50843" lon="5.76976">
        <ele>557.337001</ele>
        <time>2023-12-12T09:38:33.000Z</time>
      </trkpt>
      <trkpt lat="45.50846" lon="5.76981">
        <ele>557.193268</ele>
        <time>2023-12-12T09:38:34.000Z</time>
      </trkpt>
      <trkpt lat="45.50866" lon="5.76998">
        <ele>556.843656</ele>
        <time>2023-12-12T09:38:38.000Z</time>
      </trkpt>
      <trkpt lat="45.50897" lon="5.7701">
        <ele>556.362864</ele>
        <time>2023-12-12T09:38:43.000Z</time>
      </trkpt>
      <trkpt lat="45.50903" lon="5.77012">
        <ele>556.260852</ele>
        <time>2023-12-12T09:38:44.000Z</time>
      </trkpt>
      <trkpt lat="45.50925" lon="5.77018">
        <ele>555.933263</ele>
        <time>2023-12-12T09:38:47.000Z</time>
      </trkpt>
      <trkpt lat="45.50946" lon="5.77025">
        <ele>555.602335</ele>
        <time>2023-12-12T09:38:50.000Z</time>
      </trkpt>
      <trkpt lat="45.50953" lon="5.77028">
        <ele>555.491276</ele>
        <time>2023-12-12T09:38:51.000Z</time>
      </trkpt>
      <trkpt lat="45.50975" lon="5.77035">
        <ele>555.15029</ele>
        <time>2023-12-12T09:38:55.000Z</time>
      </trkpt>
      <trkpt lat="45.50979" lon="5.77041">
        <ele>555.0643</ele>
        <time>2023-12-12T09:38:57.000Z</time>
      </trkpt>
      <trkpt lat="45.50981" lon="5.77047">
        <ele>554.994025</ele>
        <time>2023-12-12T09:38:59.000Z</time>
      </trkpt>
      <trkpt lat="45.5098" lon="5.77052">
        <ele>554.936352</ele>
        <time>2023-12-12T09:39:01.000Z</time>
      </trkpt>
      <trkpt lat="45.50976" lon="5.77055">
        <ele>554.871574</ele>
        <time>2023-12-12T09:39:03.000Z</time>
      </trkpt>
      <trkpt lat="45.50973" lon="5.77056">
        <ele>554.825962</ele>
        <time>2023-12-12T09:39:05.000Z</time>
      </trkpt>
      <trkpt lat="45.50972" lon="5.77061">
        <ele>554.781156</ele>
        <time>2023-12-12T09:39:07.000Z</time>
      </trkpt>
      <trkpt lat="45.50969" lon="5.77073">
        <ele>554.634712</ele>
        <time>2023-12-12T09:39:11.000Z</time>
      </trkpt>
      <trkpt lat="45.50966" lon="5.7708">
        <ele>554.555396</ele>
        <time>2023-12-12T09:39:13.000Z</time>
      </trkpt>
      <trkpt lat="45.50963" lon="5.77086">
        <ele>554.473638</ele>
        <time>2023-12-12T09:39:15.000Z</time>
      </trkpt>
      <trkpt lat="45.50957" lon="5.77099">
        <ele>555.277171</ele>
        <time>2023-12-12T09:39:19.000Z</time>
      </trkpt>
      <trkpt lat="45.50955" lon="5.77104">
        <ele>555.628938</ele>
        <time>2023-12-12T09:39:21.000Z</time>
      </trkpt>
      <trkpt lat="45.5095" lon="5.77117">
        <ele>556.484253</ele>
        <time>2023-12-12T09:39:25.000Z</time>
      </trkpt>
      <trkpt lat="45.50945" lon="5.7713">
        <ele>557.35415</ele>
        <time>2023-12-12T09:39:29.000Z</time>
      </trkpt>
      <trkpt lat="45.50944" lon="5.77133">
        <ele>557.560697</ele>
        <time>2023-12-12T09:39:30.000Z</time>
      </trkpt>
      <trkpt lat="45.50935" lon="5.77156">
        <ele>559.073021</ele>
        <time>2023-12-12T09:39:37.000Z</time>
      </trkpt>
      <trkpt lat="45.50932" lon="5.77162">
        <ele>559.502697</ele>
        <time>2023-12-12T09:39:39.000Z</time>
      </trkpt>
      <trkpt lat="45.5093" lon="5.77169">
        <ele>559.927302</ele>
        <time>2023-12-12T09:39:41.000Z</time>
      </trkpt>
      <trkpt lat="45.50922" lon="5.77188">
        <ele>561.234478</ele>
        <time>2023-12-12T09:39:47.000Z</time>
      </trkpt>
      <trkpt lat="45.50917" lon="5.77201">
        <ele>562.102902</ele>
        <time>2023-12-12T09:39:51.000Z</time>
      </trkpt>
      <trkpt lat="45.50913" lon="5.77211">
        <ele>562.737808</ele>
        <time>2023-12-12T09:39:54.000Z</time>
      </trkpt>
      <trkpt lat="45.50911" lon="5.77217">
        <ele>563.162414</ele>
        <time>2023-12-12T09:39:56.000Z</time>
      </trkpt>
      <trkpt lat="45.50906" lon="5.7723">
        <ele>564.022929</ele>
        <time>2023-12-12T09:40:00.000Z</time>
      </trkpt>
      <trkpt lat="45.50899" lon="5.77247">
        <ele>565.111818</ele>
        <time>2023-12-12T09:40:05.000Z</time>
      </trkpt>
      <trkpt lat="45.50893" lon="5.77264">
        <ele>566.217259</ele>
        <time>2023-12-12T09:40:10.000Z</time>
      </trkpt>
      <trkpt lat="45.50892" lon="5.77267">
        <ele>566.450799</ele>
        <time>2023-12-12T09:40:11.000Z</time>
      </trkpt>
      <trkpt lat="45.50886" lon="5.77281">
        <ele>567.369902</ele>
        <time>2023-12-12T09:40:15.000Z</time>
      </trkpt>
      <trkpt lat="45.50881" lon="5.77294">
        <ele>568.249651</ele>
        <time>2023-12-12T09:40:19.000Z</time>
      </trkpt>
      <trkpt lat="45.5088" lon="5.77298">
        <ele>568.458</ele>
        <time>2023-12-12T09:40:20.000Z</time>
      </trkpt>
      <trkpt lat="45.50874" lon="5.77314">
        <ele>569.567092</ele>
        <time>2023-12-12T09:40:25.000Z</time>
      </trkpt>
      <trkpt lat="45.50871" lon="5.7732">
        <ele>570.103557</ele>
        <time>2023-12-12T09:40:27.000Z</time>
      </trkpt>
      <trkpt lat="45.50867" lon="5.7733">
        <ele>570.949452</ele>
        <time>2023-12-12T09:40:30.000Z</time>
      </trkpt>
      <trkpt lat="45.50861" lon="5.77346">
        <ele>572.336537</ele>
        <time>2023-12-12T09:40:35.000Z</time>
      </trkpt>
      <trkpt lat="45.50856" lon="5.77359">
        <ele>573.449149</ele>
        <time>2023-12-12T09:40:39.000Z</time>
      </trkpt>
      <trkpt lat="45.50855" lon="5.77362">
        <ele>573.731511</ele>
        <time>2023-12-12T09:40:40.000Z</time>
      </trkpt>
      <trkpt lat="45.50851" lon="5.77372">
        <ele>574.558567</ele>
        <time>2023-12-12T09:40:43.000Z</time>
      </trkpt>
      <trkpt lat="45.50845" lon="5.77388">
        <ele>575.935327</ele>
        <time>2023-12-12T09:40:48.000Z</time>
      </trkpt>
      <trkpt lat="45.5084" lon="5.77401">
        <ele>577.003618</ele>
        <time>2023-12-12T09:40:52.000Z</time>
      </trkpt>
      <trkpt lat="45.50839" lon="5.77404">
        <ele>577.271782</ele>
        <time>2023-12-12T09:40:53.000Z</time>
      </trkpt>
      <trkpt lat="45.50835" lon="5.77417">
        <ele>578.331465</ele>
        <time>2023-12-12T09:40:57.000Z</time>
      </trkpt>
      <trkpt lat="45.50831" lon="5.77426">
        <ele>579.131999</ele>
        <time>2023-12-12T09:41:00.000Z</time>
      </trkpt>
      <trkpt lat="45.50826" lon="5.77438">
        <ele>580.195242</ele>
        <time>2023-12-12T09:41:04.000Z</time>
      </trkpt>
      <trkpt lat="45.50823" lon="5.77444">
        <ele>580.721413</ele>
        <time>2023-12-12T09:41:06.000Z</time>
      </trkpt>
      <trkpt lat="45.50821" lon="5.7745">
        <ele>581.243198</ele>
        <time>2023-12-12T09:41:08.000Z</time>
      </trkpt>
      <trkpt lat="45.50819" lon="5.77453">
        <ele>581.512656</ele>
        <time>2023-12-12T09:41:09.000Z</time>
      </trkpt>
      <trkpt lat="45.50815" lon="5.77466">
        <ele>582.592236</ele>
        <time>2023-12-12T09:41:13.000Z</time>
      </trkpt>
      <trkpt lat="45.5081" lon="5.7748">
        <ele>583.677966</ele>
        <time>2023-12-12T09:41:17.000Z</time>
      </trkpt>
      <trkpt lat="45.50808" lon="5.77487">
        <ele>584.258798</ele>
        <time>2023-12-12T09:41:20.000Z</time>
      </trkpt>
      <trkpt lat="45.50808" lon="5.77489">
        <ele>584.435554</ele>
        <time>2023-12-12T09:41:21.000Z</time>
      </trkpt>
      <trkpt lat="45.50805" lon="5.77503">
        <ele>585.530205</ele>
        <time>2023-12-12T09:41:26.000Z</time>
      </trkpt>
      <trkpt lat="45.50804" lon="5.77506">
        <ele>585.768677</ele>
        <time>2023-12-12T09:41:27.000Z</time>
      </trkpt>
      <trkpt lat="45.50798" lon="5.77521">
        <ele>587.031383</ele>
        <time>2023-12-12T09:41:32.000Z</time>
      </trkpt>
      <trkpt lat="45.50794" lon="5.77532">
        <ele>588.00237</ele>
        <time>2023-12-12T09:41:36.000Z</time>
      </trkpt>
      <trkpt lat="45.50791" lon="5.77541">
        <ele>588.729404</ele>
        <time>2023-12-12T09:41:39.000Z</time>
      </trkpt>
      <trkpt lat="45.5079" lon="5.77544">
        <ele>588.974731</ele>
        <time>2023-12-12T09:41:40.000Z</time>
      </trkpt>
      <trkpt lat="45.50786" lon="5.77559">
        <ele>590.123923</ele>
        <time>2023-12-12T09:41:45.000Z</time>
      </trkpt>
      <trkpt lat="45.50783" lon="5.77574">
        <ele>591.283139</ele>
        <time>2023-12-12T09:41:50.000Z</time>
      </trkpt>
      <trkpt lat="45.50782" lon="5.77577">
        <ele>591.521729</ele>
        <time>2023-12-12T09:41:51.000Z</time>
      </trkpt>
      <trkpt lat="45.50779" lon="5.77586">
        <ele>592.230639</ele>
        <time>2023-12-12T09:41:54.000Z</time>
      </trkpt>
      <trkpt lat="45.50775" lon="5.77598">
        <ele>593.191116</ele>
        <time>2023-12-12T09:41:58.000Z</time>
      </trkpt>
      <trkpt lat="45.50771" lon="5.7761">
        <ele>594.198186</ele>
        <time>2023-12-12T09:42:02.000Z</time>
      </trkpt>
      <trkpt lat="45.5077" lon="5.77613">
        <ele>594.443515</ele>
        <time>2023-12-12T09:42:03.000Z</time>
      </trkpt>
      <trkpt lat="45.50767" lon="5.77623">
        <ele>595.201119</ele>
        <time>2023-12-12T09:42:06.000Z</time>
      </trkpt>
      <trkpt lat="45.50762" lon="5.77635">
        <ele>596.235546</ele>
        <time>2023-12-12T09:42:10.000Z</time>
      </trkpt>
      <trkpt lat="45.50758" lon="5.77648">
        <ele>597.26019</ele>
        <time>2023-12-12T09:42:14.000Z</time>
      </trkpt>
      <trkpt lat="45.50756" lon="5.77654">
        <ele>597.781861</ele>
        <time>2023-12-12T09:42:16.000Z</time>
      </trkpt>
      <trkpt lat="45.50754" lon="5.77661">
        <ele>598.290038</ele>
        <time>2023-12-12T09:42:18.000Z</time>
      </trkpt>
      <trkpt lat="45.50749" lon="5.77677">
        <ele>599.546596</ele>
        <time>2023-12-12T09:42:23.000Z</time>
      </trkpt>
      <trkpt lat="45.50742" lon="5.77684">
        <ele>600.497783</ele>
        <time>2023-12-12T09:42:27.000Z</time>
      </trkpt>
      <trkpt lat="45.50729" lon="5.77683">
        <ele>601.837069</ele>
        <time>2023-12-12T09:42:32.000Z</time>
      </trkpt>
      <trkpt lat="45.50721" lon="5.77687">
        <ele>602.699706</ele>
        <time>2023-12-12T09:42:35.000Z</time>
      </trkpt>
      <trkpt lat="45.50718" lon="5.77693">
        <ele>603.262411</ele>
        <time>2023-12-12T09:42:37.000Z</time>
      </trkpt>
      <trkpt lat="45.50713" lon="5.77703">
        <ele>604.150606</ele>
        <time>2023-12-12T09:42:40.000Z</time>
      </trkpt>
      <trkpt lat="45.50706" lon="5.7772">
        <ele>605.627049</ele>
        <time>2023-12-12T09:42:45.000Z</time>
      </trkpt>
      <trkpt lat="45.50703" lon="5.77728">
        <ele>606.232277</ele>
        <time>2023-12-12T09:42:47.000Z</time>
      </trkpt>
      <trkpt lat="45.50701" lon="5.77735">
        <ele>606.826809</ele>
        <time>2023-12-12T09:42:49.000Z</time>
      </trkpt>
      <trkpt lat="45.50691" lon="5.77759">
        <ele>607.812883</ele>
        <time>2023-12-12T09:42:56.000Z</time>
      </trkpt>
      <trkpt lat="45.50687" lon="5.77764">
        <ele>608.013249</ele>
        <time>2023-12-12T09:42:58.000Z</time>
      </trkpt>
      <trkpt lat="45.50685" lon="5.77766">
        <ele>608.10847</ele>
        <time>2023-12-12T09:42:59.000Z</time>
      </trkpt>
      <trkpt lat="45.50677" lon="5.77767">
        <ele>608.384243</ele>
        <time>2023-12-12T09:43:02.000Z</time>
      </trkpt>
      <trkpt lat="45.50675" lon="5.77766">
        <ele>608.479113</ele>
        <time>2023-12-12T09:43:03.000Z</time>
      </trkpt>
      <trkpt lat="45.50667" lon="5.77761">
        <ele>608.780105</ele>
        <time>2023-12-12T09:43:06.000Z</time>
      </trkpt>
      <trkpt lat="45.50659" lon="5.77753">
        <ele>609.18253</ele>
        <time>2023-12-12T09:43:10.000Z</time>
      </trkpt>
      <trkpt lat="45.50647" lon="5.77744">
        <ele>609.658809</ele>
        <time>2023-12-12T09:43:15.000Z</time>
      </trkpt>
      <trkpt lat="45.50644" lon="5.77747">
        <ele>609.802317</ele>
        <time>2023-12-12T09:43:17.000Z</time>
      </trkpt>
      <trkpt lat="45.5064" lon="5.77749">
        <ele>609.941922</ele>
        <time>2023-12-12T09:43:23.000Z</time>
      </trkpt>
      <trkpt lat="45.5064" lon="5.77749">
        <ele>609.945625</ele>
        <time>2023-12-12T09:43:34.000Z</time>
      </trkpt>
      <trkpt lat="45.50638" lon="5.77741">
        <ele>610.167313</ele>
        <time>2023-12-12T09:43:45.000Z</time>
      </trkpt>
      <trkpt lat="45.50631" lon="5.77726">
        <ele>610.639658</ele>
        <time>2023-12-12T09:43:49.000Z</time>
      </trkpt>
      <trkpt lat="45.50629" lon="5.77721">
        <ele>610.77366</ele>
        <time>2023-12-12T09:43:50.000Z</time>
      </trkpt>
      <trkpt lat="45.50614" lon="5.77688">
        <ele>611.806965</ele>
        <time>2023-12-12T09:43:57.000Z</time>
      </trkpt>
      <trkpt lat="45.50608" lon="5.77671">
        <ele>612.30317</ele>
        <time>2023-12-12T09:44:00.000Z</time>
      </trkpt>
      <trkpt lat="45.50603" lon="5.77649">
        <ele>612.892243</ele>
        <time>2023-12-12T09:44:03.000Z</time>
      </trkpt>
      <trkpt lat="45.50589" lon="5.77594">
        <ele>613.98108</ele>
        <time>2023-12-12T09:44:10.000Z</time>
      </trkpt>
      <trkpt lat="45.50587" lon="5.77588">
        <ele>614.010464</ele>
        <time>2023-12-12T09:44:11.000Z</time>
      </trkpt>
      <trkpt lat="45.50578" lon="5.77553">
        <ele>614.158004</ele>
        <time>2023-12-12T09:44:16.000Z</time>
      </trkpt>
      <trkpt lat="45.50571" lon="5.77534">
        <ele>614.243686</ele>
        <time>2023-12-12T09:44:19.000Z</time>
      </trkpt>
      <trkpt lat="45.50549" lon="5.77471">
        <ele>614.523144</ele>
        <time>2023-12-12T09:44:29.000Z</time>
      </trkpt>
      <trkpt lat="45.50544" lon="5.7746">
        <ele>614.576772</ele>
        <time>2023-12-12T09:44:31.000Z</time>
      </trkpt>
      <trkpt lat="45.50528" lon="5.77436">
        <ele>614.706524</ele>
        <time>2023-12-12T09:44:36.000Z</time>
      </trkpt>
      <trkpt lat="45.50525" lon="5.77432">
        <ele>614.731546</ele>
        <time>2023-12-12T09:44:37.000Z</time>
      </trkpt>
      <trkpt lat="45.50517" lon="5.77427">
        <ele>614.781527</ele>
        <time>2023-12-12T09:44:39.000Z</time>
      </trkpt>
      <trkpt lat="45.505" lon="5.77421">
        <ele>614.882391</ele>
        <time>2023-12-12T09:44:43.000Z</time>
      </trkpt>
      <trkpt lat="45.50495" lon="5.7742">
        <ele>614.908349</ele>
        <time>2023-12-12T09:44:44.000Z</time>
      </trkpt>
      <trkpt lat="45.5049" lon="5.77419">
        <ele>614.886197</ele>
        <time>2023-12-12T09:44:45.000Z</time>
      </trkpt>
      <trkpt lat="45.50465" lon="5.77417">
        <ele>614.17428</ele>
        <time>2023-12-12T09:44:50.000Z</time>
      </trkpt>
      <trkpt lat="45.50422" lon="5.77414">
        <ele>612.997139</ele>
        <time>2023-12-12T09:44:58.000Z</time>
      </trkpt>
      <trkpt lat="45.50401" lon="5.77421">
        <ele>612.389813</ele>
        <time>2023-12-12T09:45:02.000Z</time>
      </trkpt>
      <trkpt lat="45.50389" lon="5.77426">
        <ele>612.035487</ele>
        <time>2023-12-12T09:45:04.000Z</time>
      </trkpt>
      <trkpt lat="45.50362" lon="5.77436">
        <ele>611.256013</ele>
        <time>2023-12-12T09:45:08.000Z</time>
      </trkpt>
      <trkpt lat="45.50347" lon="5.77438">
        <ele>610.855626</ele>
        <time>2023-12-12T09:45:10.000Z</time>
      </trkpt>
      <trkpt lat="45.5034" lon="5.7744">
        <ele>610.660056</ele>
        <time>2023-12-12T09:45:11.000Z</time>
      </trkpt>
      <trkpt lat="45.5032" lon="5.77445">
        <ele>610.079067</ele>
        <time>2023-12-12T09:45:14.000Z</time>
      </trkpt>
      <trkpt lat="45.503" lon="5.77455">
        <ele>609.713461</ele>
        <time>2023-12-12T09:45:17.000Z</time>
      </trkpt>
      <trkpt lat="45.50282" lon="5.77468">
        <ele>609.413429</ele>
        <time>2023-12-12T09:45:20.000Z</time>
      </trkpt>
      <trkpt lat="45.50264" lon="5.77484">
        <ele>609.11369</ele>
        <time>2023-12-12T09:45:23.000Z</time>
      </trkpt>
      <trkpt lat="45.50252" lon="5.77493">
        <ele>608.913517</ele>
        <time>2023-12-12T09:45:25.000Z</time>
      </trkpt>
      <trkpt lat="45.50239" lon="5.77495">
        <ele>608.725493</ele>
        <time>2023-12-12T09:45:27.000Z</time>
      </trkpt>
      <trkpt lat="45.50226" lon="5.77494">
        <ele>608.547077</ele>
        <time>2023-12-12T09:45:29.000Z</time>
      </trkpt>
      <trkpt lat="45.50215" lon="5.7749">
        <ele>608.37122</ele>
        <time>2023-12-12T09:45:31.000Z</time>
      </trkpt>
      <trkpt lat="45.50187" lon="5.77474">
        <ele>607.946367</ele>
        <time>2023-12-12T09:45:36.000Z</time>
      </trkpt>
      <trkpt lat="45.50182" lon="5.77471">
        <ele>607.86779</ele>
        <time>2023-12-12T09:45:37.000Z</time>
      </trkpt>
      <trkpt lat="45.50156" lon="5.77452">
        <ele>607.450091</ele>
        <time>2023-12-12T09:45:43.000Z</time>
      </trkpt>
      <trkpt lat="45.50152" lon="5.77453">
        <ele>607.382261</ele>
        <time>2023-12-12T09:45:45.000Z</time>
      </trkpt>
      <trkpt lat="45.50151" lon="5.77456">
        <ele>607.353854</ele>
        <time>2023-12-12T09:45:46.000Z</time>
      </trkpt>
      <trkpt lat="45.50149" lon="5.77471">
        <ele>608.396801</ele>
        <time>2023-12-12T09:45:52.000Z</time>
      </trkpt>
      <trkpt lat="45.50148" lon="5.77479">
        <ele>608.966537</ele>
        <time>2023-12-12T09:45:55.000Z</time>
      </trkpt>
      <trkpt lat="45.50146" lon="5.77491">
        <ele>609.913734</ele>
        <time>2023-12-12T09:46:00.000Z</time>
      </trkpt>
      <trkpt lat="45.50146" lon="5.77494">
        <ele>610.104554</ele>
        <time>2023-12-12T09:46:01.000Z</time>
      </trkpt>
      <trkpt lat="45.50143" lon="5.77503">
        <ele>610.804236</ele>
        <time>2023-12-12T09:46:05.000Z</time>
      </trkpt>
      <trkpt lat="45.5014" lon="5.77511">
        <ele>611.514124</ele>
        <time>2023-12-12T09:46:09.000Z</time>
      </trkpt>
      <trkpt lat="45.50136" lon="5.7752">
        <ele>612.266615</ele>
        <time>2023-12-12T09:46:13.000Z</time>
      </trkpt>
      <trkpt lat="45.50135" lon="5.77522">
        <ele>612.47157</ele>
        <time>2023-12-12T09:46:14.000Z</time>
      </trkpt>
      <trkpt lat="45.50133" lon="5.77527">
        <ele>612.894166</ele>
        <time>2023-12-12T09:46:16.000Z</time>
      </trkpt>
      <trkpt lat="45.50131" lon="5.77532">
        <ele>613.27966</ele>
        <time>2023-12-12T09:46:18.000Z</time>
      </trkpt>
      <trkpt lat="45.5013" lon="5.77533">
        <ele>613.454077</ele>
        <time>2023-12-12T09:46:19.000Z</time>
      </trkpt>
      <trkpt lat="45.50129" lon="5.77536">
        <ele>613.647442</ele>
        <time>2023-12-12T09:46:20.000Z</time>
      </trkpt>
      <trkpt lat="45.50126" lon="5.77542">
        <ele>614.176581</ele>
        <time>2023-12-12T09:46:23.000Z</time>
      </trkpt>
      <trkpt lat="45.50123" lon="5.77548">
        <ele>614.783718</ele>
        <time>2023-12-12T09:46:26.000Z</time>
      </trkpt>
      <trkpt lat="45.50121" lon="5.77553">
        <ele>615.129743</ele>
        <time>2023-12-12T09:46:28.000Z</time>
      </trkpt>
      <trkpt lat="45.50119" lon="5.77562">
        <ele>615.879</ele>
        <time>2023-12-12T09:46:32.000Z</time>
      </trkpt>
      <trkpt lat="45.50119" lon="5.77567">
        <ele>616.219789</ele>
        <time>2023-12-12T09:46:34.000Z</time>
      </trkpt>
      <trkpt lat="45.50118" lon="5.77574">
        <ele>616.778562</ele>
        <time>2023-12-12T09:46:37.000Z</time>
      </trkpt>
      <trkpt lat="45.50118" lon="5.77583">
        <ele>617.395976</ele>
        <time>2023-12-12T09:46:40.000Z</time>
      </trkpt>
      <trkpt lat="45.50118" lon="5.77586">
        <ele>617.602579</ele>
        <time>2023-12-12T09:46:41.000Z</time>
      </trkpt>
      <trkpt lat="45.50118" lon="5.77596">
        <ele>618.389144</ele>
        <time>2023-12-12T09:46:45.000Z</time>
      </trkpt>
      <trkpt lat="45.50118" lon="5.77607">
        <ele>619.205031</ele>
        <time>2023-12-12T09:46:49.000Z</time>
      </trkpt>
      <trkpt lat="45.50116" lon="5.77619">
        <ele>620.078136</ele>
        <time>2023-12-12T09:46:53.000Z</time>
      </trkpt>
      <trkpt lat="45.50116" lon="5.77622">
        <ele>620.303285</ele>
        <time>2023-12-12T09:46:54.000Z</time>
      </trkpt>
      <trkpt lat="45.50111" lon="5.77632">
        <ele>621.193221</ele>
        <time>2023-12-12T09:46:58.000Z</time>
      </trkpt>
      <trkpt lat="45.50108" lon="5.77637">
        <ele>621.638531</ele>
        <time>2023-12-12T09:47:00.000Z</time>
      </trkpt>
      <trkpt lat="45.50104" lon="5.77644">
        <ele>622.313825</ele>
        <time>2023-12-12T09:47:03.000Z</time>
      </trkpt>
      <trkpt lat="45.50096" lon="5.77654">
        <ele>623.44733</ele>
        <time>2023-12-12T09:47:08.000Z</time>
      </trkpt>
      <trkpt lat="45.50093" lon="5.77659">
        <ele>623.905297</ele>
        <time>2023-12-12T09:47:10.000Z</time>
      </trkpt>
      <trkpt lat="45.5009" lon="5.77663">
        <ele>624.378344</ele>
        <time>2023-12-12T09:47:12.000Z</time>
      </trkpt>
      <trkpt lat="45.50082" lon="5.77675">
        <ele>625.57989</ele>
        <time>2023-12-12T09:47:17.000Z</time>
      </trkpt>
      <trkpt lat="45.50076" lon="5.77685">
        <ele>626.628698</ele>
        <time>2023-12-12T09:47:21.000Z</time>
      </trkpt>
      <trkpt lat="45.50075" lon="5.77688">
        <ele>626.929094</ele>
        <time>2023-12-12T09:47:22.000Z</time>
      </trkpt>
      <trkpt lat="45.50071" lon="5.77695">
        <ele>627.764082</ele>
        <time>2023-12-12T09:47:25.000Z</time>
      </trkpt>
      <trkpt lat="45.50064" lon="5.77701">
        <ele>628.782508</ele>
        <time>2023-12-12T09:47:29.000Z</time>
      </trkpt>
      <trkpt lat="45.50062" lon="5.77701">
        <ele>629.027591</ele>
        <time>2023-12-12T09:47:30.000Z</time>
      </trkpt>
      <trkpt lat="45.50054" lon="5.77702">
        <ele>630.049872</ele>
        <time>2023-12-12T09:47:34.000Z</time>
      </trkpt>
      <trkpt lat="45.50044" lon="5.77703">
        <ele>631.344792</ele>
        <time>2023-12-12T09:47:39.000Z</time>
      </trkpt>
      <trkpt lat="45.50031" lon="5.77706">
        <ele>632.958081</ele>
        <time>2023-12-12T09:47:45.000Z</time>
      </trkpt>
      <trkpt lat="45.50025" lon="5.77708">
        <ele>633.752971</ele>
        <time>2023-12-12T09:47:48.000Z</time>
      </trkpt>
      <trkpt lat="45.50016" lon="5.77711">
        <ele>634.961358</ele>
        <time>2023-12-12T09:47:53.000Z</time>
      </trkpt>
      <trkpt lat="45.5001" lon="5.77717">
        <ele>635.898132</ele>
        <time>2023-12-12T09:47:57.000Z</time>
      </trkpt>
      <trkpt lat="45.50008" lon="5.77721">
        <ele>636.36428</ele>
        <time>2023-12-12T09:47:59.000Z</time>
      </trkpt>
      <trkpt lat="45.50001" lon="5.7773">
        <ele>637.566741</ele>
        <time>2023-12-12T09:48:04.000Z</time>
      </trkpt>
      <trkpt lat="45.49996" lon="5.77735">
        <ele>638.252577</ele>
        <time>2023-12-12T09:48:07.000Z</time>
      </trkpt>
      <trkpt lat="45.49991" lon="5.77741">
        <ele>639.142723</ele>
        <time>2023-12-12T09:48:11.000Z</time>
      </trkpt>
      <trkpt lat="45.49986" lon="5.77748">
        <ele>640.045799</ele>
        <time>2023-12-12T09:48:15.000Z</time>
      </trkpt>
      <trkpt lat="45.49979" lon="5.77756">
        <ele>641.169188</ele>
        <time>2023-12-12T09:48:20.000Z</time>
      </trkpt>
      <trkpt lat="45.49974" lon="5.77763">
        <ele>642.041484</ele>
        <time>2023-12-12T09:48:24.000Z</time>
      </trkpt>
      <trkpt lat="45.49972" lon="5.77767">
        <ele>642.483051</ele>
        <time>2023-12-12T09:48:26.000Z</time>
      </trkpt>
      <trkpt lat="45.49971" lon="5.77771">
        <ele>642.946473</ele>
        <time>2023-12-12T09:48:28.000Z</time>
      </trkpt>
      <trkpt lat="45.49969" lon="5.77773">
        <ele>643.18195</ele>
        <time>2023-12-12T09:48:29.000Z</time>
      </trkpt>
      <trkpt lat="45.49966" lon="5.77779">
        <ele>643.885556</ele>
        <time>2023-12-12T09:48:32.000Z</time>
      </trkpt>
      <trkpt lat="45.49965" lon="5.77781">
        <ele>644.101657</ele>
        <time>2023-12-12T09:48:33.000Z</time>
      </trkpt>
      <trkpt lat="45.49962" lon="5.77791">
        <ele>645.026856</ele>
        <time>2023-12-12T09:48:37.000Z</time>
      </trkpt>
      <trkpt lat="45.4996" lon="5.77798">
        <ele>645.702165</ele>
        <time>2023-12-12T09:48:40.000Z</time>
      </trkpt>
      <trkpt lat="45.4996" lon="5.77805">
        <ele>646.347291</ele>
        <time>2023-12-12T09:48:43.000Z</time>
      </trkpt>
      <trkpt lat="45.4996" lon="5.77808">
        <ele>646.582973</ele>
        <time>2023-12-12T09:48:44.000Z</time>
      </trkpt>
      <trkpt lat="45.49959" lon="5.77814">
        <ele>647.189756</ele>
        <time>2023-12-12T09:48:47.000Z</time>
      </trkpt>
      <trkpt lat="45.49957" lon="5.77822">
        <ele>647.909923</ele>
        <time>2023-12-12T09:48:50.000Z</time>
      </trkpt>
      <trkpt lat="45.49958" lon="5.77825">
        <ele>648.172117</ele>
        <time>2023-12-12T09:48:51.000Z</time>
      </trkpt>
      <trkpt lat="45.49959" lon="5.77835">
        <ele>649.081801</ele>
        <time>2023-12-12T09:48:55.000Z</time>
      </trkpt>
      <trkpt lat="45.4996" lon="5.77843">
        <ele>649.893697</ele>
        <time>2023-12-12T09:48:58.000Z</time>
      </trkpt>
      <trkpt lat="45.49959" lon="5.77846">
        <ele>650.193244</ele>
        <time>2023-12-12T09:48:59.000Z</time>
      </trkpt>
      <trkpt lat="45.49958" lon="5.77854">
        <ele>651.062093</ele>
        <time>2023-12-12T09:49:02.000Z</time>
      </trkpt>
      <trkpt lat="45.49958" lon="5.77857">
        <ele>651.351336</ele>
        <time>2023-12-12T09:49:03.000Z</time>
      </trkpt>
      <trkpt lat="45.49958" lon="5.77866">
        <ele>652.249979</ele>
        <time>2023-12-12T09:49:06.000Z</time>
      </trkpt>
      <trkpt lat="45.49958" lon="5.77877">
        <ele>653.436405</ele>
        <time>2023-12-12T09:49:10.000Z</time>
      </trkpt>
      <trkpt lat="45.49958" lon="5.77889">
        <ele>654.634595</ele>
        <time>2023-12-12T09:49:14.000Z</time>
      </trkpt>
      <trkpt lat="45.49959" lon="5.77891">
        <ele>654.894188</ele>
        <time>2023-12-12T09:49:15.000Z</time>
      </trkpt>
      <trkpt lat="45.49964" lon="5.77904">
        <ele>656.352201</ele>
        <time>2023-12-12T09:49:20.000Z</time>
      </trkpt>
      <trkpt lat="45.49965" lon="5.77906">
        <ele>656.665513</ele>
        <time>2023-12-12T09:49:21.000Z</time>
      </trkpt>
      <trkpt lat="45.49965" lon="5.77918">
        <ele>657.864515</ele>
        <time>2023-12-12T09:49:25.000Z</time>
      </trkpt>
      <trkpt lat="45.49963" lon="5.77923">
        <ele>658.543054</ele>
        <time>2023-12-12T09:49:27.000Z</time>
      </trkpt>
      <trkpt lat="45.49959" lon="5.7793">
        <ele>659.441558</ele>
        <time>2023-12-12T09:49:30.000Z</time>
      </trkpt>
      <trkpt lat="45.49955" lon="5.77937">
        <ele>660.324287</ele>
        <time>2023-12-12T09:49:33.000Z</time>
      </trkpt>
      <trkpt lat="45.49954" lon="5.77938">
        <ele>660.594885</ele>
        <time>2023-12-12T09:49:34.000Z</time>
      </trkpt>
      <trkpt lat="45.49948" lon="5.77946">
        <ele>661.715652</ele>
        <time>2023-12-12T09:49:38.000Z</time>
      </trkpt>
      <trkpt lat="45.49944" lon="5.77951">
        <ele>662.555177</ele>
        <time>2023-12-12T09:49:41.000Z</time>
      </trkpt>
      <trkpt lat="45.49938" lon="5.77959">
        <ele>663.740441</ele>
        <time>2023-12-12T09:49:45.000Z</time>
      </trkpt>
      <trkpt lat="45.49932" lon="5.77966">
        <ele>664.932466</ele>
        <time>2023-12-12T09:49:49.000Z</time>
      </trkpt>
      <trkpt lat="45.49927" lon="5.77974">
        <ele>666.015371</ele>
        <time>2023-12-12T09:49:53.000Z</time>
      </trkpt>
      <trkpt lat="45.49922" lon="5.77983">
        <ele>667.232783</ele>
        <time>2023-12-12T09:49:57.000Z</time>
      </trkpt>
      <trkpt lat="45.49918" lon="5.7799">
        <ele>668.094867</ele>
        <time>2023-12-12T09:50:00.000Z</time>
      </trkpt>
      <trkpt lat="45.49917" lon="5.77992">
        <ele>668.390676</ele>
        <time>2023-12-12T09:50:01.000Z</time>
      </trkpt>
      <trkpt lat="45.49913" lon="5.77999">
        <ele>669.261636</ele>
        <time>2023-12-12T09:50:04.000Z</time>
      </trkpt>
      <trkpt lat="45.49909" lon="5.78009">
        <ele>670.470327</ele>
        <time>2023-12-12T09:50:08.000Z</time>
      </trkpt>
      <trkpt lat="45.49905" lon="5.78018">
        <ele>671.577149</ele>
        <time>2023-12-12T09:50:12.000Z</time>
      </trkpt>
      <trkpt lat="45.49902" lon="5.78022">
        <ele>672.167719</ele>
        <time>2023-12-12T09:50:14.000Z</time>
      </trkpt>
      <trkpt lat="45.49899" lon="5.78025">
        <ele>672.742906</ele>
        <time>2023-12-12T09:50:16.000Z</time>
      </trkpt>
      <trkpt lat="45.49897" lon="5.78026">
        <ele>673.037117</ele>
        <time>2023-12-12T09:50:17.000Z</time>
      </trkpt>
      <trkpt lat="45.49894" lon="5.7803">
        <ele>673.60293</ele>
        <time>2023-12-12T09:50:19.000Z</time>
      </trkpt>
      <trkpt lat="45.49889" lon="5.78039">
        <ele>674.792128</ele>
        <time>2023-12-12T09:50:23.000Z</time>
      </trkpt>
      <trkpt lat="45.49883" lon="5.78046">
        <ele>675.967556</ele>
        <time>2023-12-12T09:50:27.000Z</time>
      </trkpt>
      <trkpt lat="45.49876" lon="5.78055">
        <ele>677.458231</ele>
        <time>2023-12-12T09:50:32.000Z</time>
      </trkpt>
      <trkpt lat="45.49869" lon="5.78064">
        <ele>678.92476</ele>
        <time>2023-12-12T09:50:37.000Z</time>
      </trkpt>
      <trkpt lat="45.49864" lon="5.78071">
        <ele>680.083219</ele>
        <time>2023-12-12T09:50:41.000Z</time>
      </trkpt>
      <trkpt lat="45.49862" lon="5.78074">
        <ele>680.390883</ele>
        <time>2023-12-12T09:50:42.000Z</time>
      </trkpt>
      <trkpt lat="45.4986" lon="5.7808">
        <ele>681.216861</ele>
        <time>2023-12-12T09:50:45.000Z</time>
      </trkpt>
      <trkpt lat="45.49858" lon="5.78091">
        <ele>682.449721</ele>
        <time>2023-12-12T09:50:49.000Z</time>
      </trkpt>
      <trkpt lat="45.49857" lon="5.78099">
        <ele>683.381995</ele>
        <time>2023-12-12T09:50:52.000Z</time>
      </trkpt>
      <trkpt lat="45.49857" lon="5.78102">
        <ele>683.703605</ele>
        <time>2023-12-12T09:50:53.000Z</time>
      </trkpt>
      <trkpt lat="45.49857" lon="5.78113">
        <ele>684.884949</ele>
        <time>2023-12-12T09:50:57.000Z</time>
      </trkpt>
      <trkpt lat="45.49857" lon="5.7812">
        <ele>685.737103</ele>
        <time>2023-12-12T09:51:00.000Z</time>
      </trkpt>
      <trkpt lat="45.49859" lon="5.78131">
        <ele>686.901463</ele>
        <time>2023-12-12T09:51:04.000Z</time>
      </trkpt>
      <trkpt lat="45.49858" lon="5.78142">
        <ele>688.116416</ele>
        <time>2023-12-12T09:51:08.000Z</time>
      </trkpt>
      <trkpt lat="45.49858" lon="5.78144">
        <ele>688.407231</ele>
        <time>2023-12-12T09:51:09.000Z</time>
      </trkpt>
      <trkpt lat="45.49857" lon="5.78153">
        <ele>689.320963</ele>
        <time>2023-12-12T09:51:12.000Z</time>
      </trkpt>
      <trkpt lat="45.49856" lon="5.78163">
        <ele>690.539257</ele>
        <time>2023-12-12T09:51:16.000Z</time>
      </trkpt>
      <trkpt lat="45.49855" lon="5.78166">
        <ele>690.849439</ele>
        <time>2023-12-12T09:51:17.000Z</time>
      </trkpt>
      <trkpt lat="45.49853" lon="5.78173">
        <ele>691.746752</ele>
        <time>2023-12-12T09:51:20.000Z</time>
      </trkpt>
      <trkpt lat="45.49849" lon="5.7818">
        <ele>692.645445</ele>
        <time>2023-12-12T09:51:23.000Z</time>
      </trkpt>
      <trkpt lat="45.49847" lon="5.78181">
        <ele>692.960181</ele>
        <time>2023-12-12T09:51:24.000Z</time>
      </trkpt>
      <trkpt lat="45.49842" lon="5.78185">
        <ele>693.966826</ele>
        <time>2023-12-12T09:51:27.000Z</time>
      </trkpt>
      <trkpt lat="45.49836" lon="5.78188">
        <ele>694.879149</ele>
        <time>2023-12-12T09:51:30.000Z</time>
      </trkpt>
      <trkpt lat="45.49835" lon="5.78188">
        <ele>695.102064</ele>
        <time>2023-12-12T09:51:31.000Z</time>
      </trkpt>
      <trkpt lat="45.49829" lon="5.7819">
        <ele>696.010972</ele>
        <time>2023-12-12T09:51:34.000Z</time>
      </trkpt>
      <trkpt lat="45.49819" lon="5.78194">
        <ele>697.707001</ele>
        <time>2023-12-12T09:51:39.000Z</time>
      </trkpt>
      <trkpt lat="45.49815" lon="5.78195">
        <ele>698.315771</ele>
        <time>2023-12-12T09:51:41.000Z</time>
      </trkpt>
      <trkpt lat="45.49812" lon="5.78198">
        <ele>698.894074</ele>
        <time>2023-12-12T09:51:43.000Z</time>
      </trkpt>
      <trkpt lat="45.49804" lon="5.78208">
        <ele>700.544631</ele>
        <time>2023-12-12T09:51:48.000Z</time>
      </trkpt>
      <trkpt lat="45.49803" lon="5.78209">
        <ele>700.833061</ele>
        <time>2023-12-12T09:51:49.000Z</time>
      </trkpt>
      <trkpt lat="45.49801" lon="5.78212">
        <ele>701.158838</ele>
        <time>2023-12-12T09:51:51.000Z</time>
      </trkpt>
      <trkpt lat="45.49795" lon="5.78218">
        <ele>702.427931</ele>
        <time>2023-12-12T09:51:55.000Z</time>
      </trkpt>
      <trkpt lat="45.49793" lon="5.78221">
        <ele>702.785573</ele>
        <time>2023-12-12T09:51:56.000Z</time>
      </trkpt>
      <trkpt lat="45.49789" lon="5.78226">
        <ele>703.592097</ele>
        <time>2023-12-12T09:51:59.000Z</time>
      </trkpt>
      <trkpt lat="45.49784" lon="5.78231">
        <ele>704.700321</ele>
        <time>2023-12-12T09:52:03.000Z</time>
      </trkpt>
      <trkpt lat="45.49783" lon="5.78233">
        <ele>705.045273</ele>
        <time>2023-12-12T09:52:04.000Z</time>
      </trkpt>
      <trkpt lat="45.49778" lon="5.78241">
        <ele>706.261242</ele>
        <time>2023-12-12T09:52:07.000Z</time>
      </trkpt>
      <trkpt lat="45.49775" lon="5.7825">
        <ele>707.580226</ele>
        <time>2023-12-12T09:52:11.000Z</time>
      </trkpt>
      <trkpt lat="45.49775" lon="5.78253">
        <ele>707.866125</ele>
        <time>2023-12-12T09:52:12.000Z</time>
      </trkpt>
      <trkpt lat="45.49774" lon="5.7826">
        <ele>708.804774</ele>
        <time>2023-12-12T09:52:15.000Z</time>
      </trkpt>
      <trkpt lat="45.49775" lon="5.78268">
        <ele>709.753759</ele>
        <time>2023-12-12T09:52:18.000Z</time>
      </trkpt>
      <trkpt lat="45.49779" lon="5.78278">
        <ele>711.217874</ele>
        <time>2023-12-12T09:52:22.000Z</time>
      </trkpt>
      <trkpt lat="45.49781" lon="5.78289">
        <ele>712.54516</ele>
        <time>2023-12-12T09:52:26.000Z</time>
      </trkpt>
      <trkpt lat="45.49785" lon="5.78298">
        <ele>713.839063</ele>
        <time>2023-12-12T09:52:30.000Z</time>
      </trkpt>
      <trkpt lat="45.49788" lon="5.78306">
        <ele>714.972062</ele>
        <time>2023-12-12T09:52:33.000Z</time>
      </trkpt>
      <trkpt lat="45.49789" lon="5.78309">
        <ele>715.322335</ele>
        <time>2023-12-12T09:52:34.000Z</time>
      </trkpt>
      <trkpt lat="45.4979" lon="5.78314">
        <ele>716.007858</ele>
        <time>2023-12-12T09:52:36.000Z</time>
      </trkpt>
      <trkpt lat="45.49793" lon="5.78324">
        <ele>717.388573</ele>
        <time>2023-12-12T09:52:40.000Z</time>
      </trkpt>
      <trkpt lat="45.49794" lon="5.78332">
        <ele>718.361624</ele>
        <time>2023-12-12T09:52:43.000Z</time>
      </trkpt>
      <trkpt lat="45.49795" lon="5.7834">
        <ele>719.392879</ele>
        <time>2023-12-12T09:52:46.000Z</time>
      </trkpt>
      <trkpt lat="45.49794" lon="5.78347">
        <ele>720.310429</ele>
        <time>2023-12-12T09:52:49.000Z</time>
      </trkpt>
      <trkpt lat="45.49792" lon="5.78355">
        <ele>721.290649</ele>
        <time>2023-12-12T09:52:52.000Z</time>
      </trkpt>
      <trkpt lat="45.49791" lon="5.78357">
        <ele>721.573531</ele>
        <time>2023-12-12T09:52:53.000Z</time>
      </trkpt>
      <trkpt lat="45.49788" lon="5.78361">
        <ele>722.302483</ele>
        <time>2023-12-12T09:52:55.000Z</time>
      </trkpt>
      <trkpt lat="45.49783" lon="5.78367">
        <ele>723.436602</ele>
        <time>2023-12-12T09:52:58.000Z</time>
      </trkpt>
      <trkpt lat="45.49778" lon="5.78371">
        <ele>724.476303</ele>
        <time>2023-12-12T09:53:01.000Z</time>
      </trkpt>
      <trkpt lat="45.49774" lon="5.78373">
        <ele>725.193488</ele>
        <time>2023-12-12T09:53:03.000Z</time>
      </trkpt>
      <trkpt lat="45.49771" lon="5.78376">
        <ele>725.942469</ele>
        <time>2023-12-12T09:53:05.000Z</time>
      </trkpt>
      <trkpt lat="45.49766" lon="5.78384">
        <ele>727.243763</ele>
        <time>2023-12-12T09:53:09.000Z</time>
      </trkpt>
      <trkpt lat="45.49762" lon="5.78392">
        <ele>728.435886</ele>
        <time>2023-12-12T09:53:13.000Z</time>
      </trkpt>
      <trkpt lat="45.4976" lon="5.78399">
        <ele>729.434459</ele>
        <time>2023-12-12T09:53:16.000Z</time>
      </trkpt>
      <trkpt lat="45.49759" lon="5.78407">
        <ele>730.3947</ele>
        <time>2023-12-12T09:53:19.000Z</time>
      </trkpt>
      <trkpt lat="45.49758" lon="5.78414">
        <ele>731.331665</ele>
        <time>2023-12-12T09:53:22.000Z</time>
      </trkpt>
      <trkpt lat="45.49756" lon="5.78422">
        <ele>732.286963</ele>
        <time>2023-12-12T09:53:25.000Z</time>
      </trkpt>
      <trkpt lat="45.49756" lon="5.78429">
        <ele>733.199818</ele>
        <time>2023-12-12T09:53:28.000Z</time>
      </trkpt>
      <trkpt lat="45.49756" lon="5.78438">
        <ele>734.23663</ele>
        <time>2023-12-12T09:53:31.000Z</time>
      </trkpt>
      <trkpt lat="45.49754" lon="5.78446">
        <ele>735.272781</ele>
        <time>2023-12-12T09:53:34.000Z</time>
      </trkpt>
      <trkpt lat="45.49752" lon="5.7845">
        <ele>735.88004</ele>
        <time>2023-12-12T09:53:36.000Z</time>
      </trkpt>
      <trkpt lat="45.49751" lon="5.78453">
        <ele>736.236442</ele>
        <time>2023-12-12T09:53:37.000Z</time>
      </trkpt>
      <trkpt lat="45.49749" lon="5.7846">
        <ele>737.140423</ele>
        <time>2023-12-12T09:53:40.000Z</time>
      </trkpt>
      <trkpt lat="45.49745" lon="5.78465">
        <ele>738.009885</ele>
        <time>2023-12-12T09:53:43.000Z</time>
      </trkpt>
      <trkpt lat="45.49744" lon="5.78467">
        <ele>738.318846</ele>
        <time>2023-12-12T09:53:44.000Z</time>
      </trkpt>
      <trkpt lat="45.4974" lon="5.78473">
        <ele>739.279152</ele>
        <time>2023-12-12T09:53:47.000Z</time>
      </trkpt>
      <trkpt lat="45.49734" lon="5.78479">
        <ele>740.58523</ele>
        <time>2023-12-12T09:53:51.000Z</time>
      </trkpt>
      <trkpt lat="45.49729" lon="5.78483">
        <ele>741.560909</ele>
        <time>2023-12-12T09:53:54.000Z</time>
      </trkpt>
      <trkpt lat="45.49727" lon="5.78485">
        <ele>741.91599</ele>
        <time>2023-12-12T09:53:55.000Z</time>
      </trkpt>
      <trkpt lat="45.49722" lon="5.78489">
        <ele>742.840839</ele>
        <time>2023-12-12T09:53:58.000Z</time>
      </trkpt>
      <trkpt lat="45.49715" lon="5.78495">
        <ele>744.151145</ele>
        <time>2023-12-12T09:54:02.000Z</time>
      </trkpt>
      <trkpt lat="45.49712" lon="5.78498">
        <ele>744.798737</ele>
        <time>2023-12-12T09:54:04.000Z</time>
      </trkpt>
      <trkpt lat="45.49707" lon="5.78502">
        <ele>745.858002</ele>
        <time>2023-12-12T09:54:07.000Z</time>
      </trkpt>
      <trkpt lat="45.49699" lon="5.78509">
        <ele>747.463983</ele>
        <time>2023-12-12T09:54:12.000Z</time>
      </trkpt>
      <trkpt lat="45.49692" lon="5.78514">
        <ele>748.656408</ele>
        <time>2023-12-12T09:54:16.000Z</time>
      </trkpt>
      <trkpt lat="45.49691" lon="5.78516">
        <ele>748.959056</ele>
        <time>2023-12-12T09:54:17.000Z</time>
      </trkpt>
      <trkpt lat="45.49684" lon="5.78521">
        <ele>750.241727</ele>
        <time>2023-12-12T09:54:21.000Z</time>
      </trkpt>
      <trkpt lat="45.49677" lon="5.78527">
        <ele>751.633747</ele>
        <time>2023-12-12T09:54:25.000Z</time>
      </trkpt>
      <trkpt lat="45.49671" lon="5.78534">
        <ele>752.935986</ele>
        <time>2023-12-12T09:54:29.000Z</time>
      </trkpt>
      <trkpt lat="45.49668" lon="5.78537">
        <ele>753.597522</ele>
        <time>2023-12-12T09:54:31.000Z</time>
      </trkpt>
      <trkpt lat="45.49664" lon="5.7854">
        <ele>754.238167</ele>
        <time>2023-12-12T09:54:33.000Z</time>
      </trkpt>
      <trkpt lat="45.49662" lon="5.78547">
        <ele>755.138476</ele>
        <time>2023-12-12T09:54:36.000Z</time>
      </trkpt>
      <trkpt lat="45.49662" lon="5.78553">
        <ele>755.784818</ele>
        <time>2023-12-12T09:54:38.000Z</time>
      </trkpt>
      <trkpt lat="45.49663" lon="5.78556">
        <ele>756.146711</ele>
        <time>2023-12-12T09:54:39.000Z</time>
      </trkpt>
      <trkpt lat="45.49664" lon="5.78561">
        <ele>756.869724</ele>
        <time>2023-12-12T09:54:41.000Z</time>
      </trkpt>
      <trkpt lat="45.49668" lon="5.78569">
        <ele>757.957672</ele>
        <time>2023-12-12T09:54:44.000Z</time>
      </trkpt>
      <trkpt lat="45.49671" lon="5.78577">
        <ele>759.014796</ele>
        <time>2023-12-12T09:54:47.000Z</time>
      </trkpt>
      <trkpt lat="45.49677" lon="5.78586">
        <ele>760.435934</ele>
        <time>2023-12-12T09:54:51.000Z</time>
      </trkpt>
      <trkpt lat="45.49681" lon="5.78592">
        <ele>761.387674</ele>
        <time>2023-12-12T09:54:54.000Z</time>
      </trkpt>
      <trkpt lat="45.49684" lon="5.78596">
        <ele>762.133043</ele>
        <time>2023-12-12T09:54:56.000Z</time>
      </trkpt>
      <trkpt lat="45.49686" lon="5.78598">
        <ele>762.448587</ele>
        <time>2023-12-12T09:54:57.000Z</time>
      </trkpt>
      <trkpt lat="45.49691" lon="5.78607">
        <ele>763.833428</ele>
        <time>2023-12-12T09:55:01.000Z</time>
      </trkpt>
      <trkpt lat="45.49692" lon="5.78615">
        <ele>764.816515</ele>
        <time>2023-12-12T09:55:04.000Z</time>
      </trkpt>
      <trkpt lat="45.49692" lon="5.78618">
        <ele>765.111815</ele>
        <time>2023-12-12T09:55:05.000Z</time>
      </trkpt>
      <trkpt lat="45.4969" lon="5.78628">
        <ele>766.272947</ele>
        <time>2023-12-12T09:55:09.000Z</time>
      </trkpt>
      <trkpt lat="45.49686" lon="5.78634">
        <ele>767.127397</ele>
        <time>2023-12-12T09:55:12.000Z</time>
      </trkpt>
      <trkpt lat="45.49684" lon="5.78635">
        <ele>767.418903</ele>
        <time>2023-12-12T09:55:13.000Z</time>
      </trkpt>
      <trkpt lat="45.49677" lon="5.78638">
        <ele>768.55536</ele>
        <time>2023-12-12T09:55:17.000Z</time>
      </trkpt>
      <trkpt lat="45.49675" lon="5.78638">
        <ele>768.932699</ele>
        <time>2023-12-12T09:55:18.000Z</time>
      </trkpt>
      <trkpt lat="45.49668" lon="5.78637">
        <ele>770.09703</ele>
        <time>2023-12-12T09:55:21.000Z</time>
      </trkpt>
      <trkpt lat="45.49661" lon="5.78636">
        <ele>771.161696</ele>
        <time>2023-12-12T09:55:24.000Z</time>
      </trkpt>
      <trkpt lat="45.49657" lon="5.78635">
        <ele>771.830603</ele>
        <time>2023-12-12T09:55:26.000Z</time>
      </trkpt>
      <trkpt lat="45.49655" lon="5.78635">
        <ele>772.115085</ele>
        <time>2023-12-12T09:55:27.000Z</time>
      </trkpt>
      <trkpt lat="45.49648" lon="5.78634">
        <ele>773.148602</ele>
        <time>2023-12-12T09:55:30.000Z</time>
      </trkpt>
      <trkpt lat="45.49643" lon="5.78633">
        <ele>774.053745</ele>
        <time>2023-12-12T09:55:33.000Z</time>
      </trkpt>
      <trkpt lat="45.49638" lon="5.78632">
        <ele>774.701546</ele>
        <time>2023-12-12T09:55:35.000Z</time>
      </trkpt>
      <trkpt lat="45.49636" lon="5.78631">
        <ele>775.034023</ele>
        <time>2023-12-12T09:55:36.000Z</time>
      </trkpt>
      <trkpt lat="45.49628" lon="5.7863">
        <ele>776.370222</ele>
        <time>2023-12-12T09:55:40.000Z</time>
      </trkpt>
      <trkpt lat="45.49622" lon="5.78629">
        <ele>777.230231</ele>
        <time>2023-12-12T09:55:43.000Z</time>
      </trkpt>
      <trkpt lat="45.49618" lon="5.78629">
        <ele>777.901729</ele>
        <time>2023-12-12T09:55:45.000Z</time>
      </trkpt>
      <trkpt lat="45.49614" lon="5.78629">
        <ele>778.513218</ele>
        <time>2023-12-12T09:55:47.000Z</time>
      </trkpt>
      <trkpt lat="45.49607" lon="5.78628">
        <ele>779.658447</ele>
        <time>2023-12-12T09:55:51.000Z</time>
      </trkpt>
      <trkpt lat="45.49601" lon="5.78627">
        <ele>780.504278</ele>
        <time>2023-12-12T09:55:54.000Z</time>
      </trkpt>
      <trkpt lat="45.49596" lon="5.78625">
        <ele>781.431205</ele>
        <time>2023-12-12T09:55:57.000Z</time>
      </trkpt>
      <trkpt lat="45.49591" lon="5.78625">
        <ele>782.166473</ele>
        <time>2023-12-12T09:55:59.000Z</time>
      </trkpt>
      <trkpt lat="45.49589" lon="5.78624">
        <ele>782.485629</ele>
        <time>2023-12-12T09:56:00.000Z</time>
      </trkpt>
      <trkpt lat="45.49581" lon="5.78622">
        <ele>783.729444</ele>
        <time>2023-12-12T09:56:04.000Z</time>
      </trkpt>
      <trkpt lat="45.49573" lon="5.78617">
        <ele>785.144446</ele>
        <time>2023-12-12T09:56:08.000Z</time>
      </trkpt>
      <trkpt lat="45.49568" lon="5.78611">
        <ele>786.194269</ele>
        <time>2023-12-12T09:56:11.000Z</time>
      </trkpt>
      <trkpt lat="45.49561" lon="5.78602">
        <ele>787.60214</ele>
        <time>2023-12-12T09:56:15.000Z</time>
      </trkpt>
      <trkpt lat="45.49558" lon="5.78598">
        <ele>788.202461</ele>
        <time>2023-12-12T09:56:17.000Z</time>
      </trkpt>
      <trkpt lat="45.49554" lon="5.78596">
        <ele>788.890449</ele>
        <time>2023-12-12T09:56:19.000Z</time>
      </trkpt>
      <trkpt lat="45.49547" lon="5.78595">
        <ele>789.974678</ele>
        <time>2023-12-12T09:56:22.000Z</time>
      </trkpt>
      <trkpt lat="45.49544" lon="5.78596">
        <ele>790.602697</ele>
        <time>2023-12-12T09:56:24.000Z</time>
      </trkpt>
      <trkpt lat="45.49537" lon="5.78602">
        <ele>791.748645</ele>
        <time>2023-12-12T09:56:28.000Z</time>
      </trkpt>
      <trkpt lat="45.49531" lon="5.78608">
        <ele>793.013628</ele>
        <time>2023-12-12T09:56:32.000Z</time>
      </trkpt>
      <trkpt lat="45.49526" lon="5.78613">
        <ele>793.917157</ele>
        <time>2023-12-12T09:56:35.000Z</time>
      </trkpt>
      <trkpt lat="45.4952" lon="5.7862">
        <ele>795.112883</ele>
        <time>2023-12-12T09:56:39.000Z</time>
      </trkpt>
      <trkpt lat="45.49512" lon="5.78625">
        <ele>796.302801</ele>
        <time>2023-12-12T09:56:43.000Z</time>
      </trkpt>
      <trkpt lat="45.49511" lon="5.78625">
        <ele>796.586272</ele>
        <time>2023-12-12T09:56:44.000Z</time>
      </trkpt>
      <trkpt lat="45.49505" lon="5.78628">
        <ele>797.537695</ele>
        <time>2023-12-12T09:56:47.000Z</time>
      </trkpt>
      <trkpt lat="45.49497" lon="5.78633">
        <ele>798.792123</ele>
        <time>2023-12-12T09:56:51.000Z</time>
      </trkpt>
      <trkpt lat="45.49491" lon="5.78636">
        <ele>799.729542</ele>
        <time>2023-12-12T09:56:54.000Z</time>
      </trkpt>
      <trkpt lat="45.49484" lon="5.78642">
        <ele>800.972747</ele>
        <time>2023-12-12T09:56:58.000Z</time>
      </trkpt>
      <trkpt lat="45.49478" lon="5.7865">
        <ele>802.133453</ele>
        <time>2023-12-12T09:57:02.000Z</time>
      </trkpt>
      <trkpt lat="45.49477" lon="5.78652">
        <ele>802.45977</ele>
        <time>2023-12-12T09:57:03.000Z</time>
      </trkpt>
      <trkpt lat="45.49473" lon="5.78659">
        <ele>803.394278</ele>
        <time>2023-12-12T09:57:06.000Z</time>
      </trkpt>
      <trkpt lat="45.49472" lon="5.78662">
        <ele>803.710942</ele>
        <time>2023-12-12T09:57:07.000Z</time>
      </trkpt>
      <trkpt lat="45.49468" lon="5.78669">
        <ele>804.626928</ele>
        <time>2023-12-12T09:57:10.000Z</time>
      </trkpt>
      <trkpt lat="45.49466" lon="5.78674">
        <ele>805.244495</ele>
        <time>2023-12-12T09:57:12.000Z</time>
      </trkpt>
      <trkpt lat="45.49462" lon="5.78681">
        <ele>806.134536</ele>
        <time>2023-12-12T09:57:15.000Z</time>
      </trkpt>
      <trkpt lat="45.49459" lon="5.78686">
        <ele>806.90716</ele>
        <time>2023-12-12T09:57:19.000Z</time>
      </trkpt>
      <trkpt lat="45.49459" lon="5.78686">
        <ele>806.953093</ele>
        <time>2023-12-12T09:57:20.000Z</time>
      </trkpt>
      <trkpt lat="45.49457" lon="5.78686">
        <ele>807.182758</ele>
        <time>2023-12-12T09:57:27.000Z</time>
      </trkpt>
      <trkpt lat="45.49458" lon="5.78687">
        <ele>807.280171</ele>
        <time>2023-12-12T09:57:34.000Z</time>
      </trkpt>
      <trkpt lat="45.49457" lon="5.78686">
        <ele>807.357196</ele>
        <time>2023-12-12T09:57:41.000Z</time>
      </trkpt>
      <trkpt lat="45.49458" lon="5.78686">
        <ele>807.393611</ele>
        <time>2023-12-12T09:57:57.000Z</time>
      </trkpt>
      <trkpt lat="45.49458" lon="5.78687">
        <ele>807.454834</ele>
        <time>2023-12-12T09:58:01.000Z</time>
      </trkpt>
      <trkpt lat="45.49458" lon="5.78686">
        <ele>807.465285</ele>
        <time>2023-12-12T09:58:04.000Z</time>
      </trkpt>
      <trkpt lat="45.49458" lon="5.78685">
        <ele>807.664415</ele>
        <time>2023-12-12T09:58:21.000Z</time>
      </trkpt>
      <trkpt lat="45.49457" lon="5.78683">
        <ele>807.801432</ele>
        <time>2023-12-12T09:58:31.000Z</time>
      </trkpt>
      <trkpt lat="45.49457" lon="5.78683">
        <ele>807.801432</ele>
        <time>2023-12-12T09:58:46.000Z</time>
      </trkpt>
      <trkpt lat="45.49458" lon="5.78683">
        <ele>807.831251</ele>
        <time>2023-12-12T09:58:49.000Z</time>
      </trkpt>
      <trkpt lat="45.49454" lon="5.78692">
        <ele>808.892761</ele>
        <time>2023-12-12T09:58:53.000Z</time>
      </trkpt>
      <trkpt lat="45.49452" lon="5.78699">
        <ele>809.631248</ele>
        <time>2023-12-12T09:58:55.000Z</time>
      </trkpt>
      <trkpt lat="45.49448" lon="5.78711">
        <ele>811.008938</ele>
        <time>2023-12-12T09:58:59.000Z</time>
      </trkpt>
      <trkpt lat="45.49447" lon="5.78716">
        <ele>811.620938</ele>
        <time>2023-12-12T09:59:01.000Z</time>
      </trkpt>
      <trkpt lat="45.49445" lon="5.78721">
        <ele>812.180673</ele>
        <time>2023-12-12T09:59:03.000Z</time>
      </trkpt>
      <trkpt lat="45.49444" lon="5.78728">
        <ele>812.965686</ele>
        <time>2023-12-12T09:59:06.000Z</time>
      </trkpt>
      <trkpt lat="45.49443" lon="5.78731">
        <ele>813.262441</ele>
        <time>2023-12-12T09:59:07.000Z</time>
      </trkpt>
      <trkpt lat="45.4944" lon="5.78741">
        <ele>814.424343</ele>
        <time>2023-12-12T09:59:11.000Z</time>
      </trkpt>
      <trkpt lat="45.49439" lon="5.78747">
        <ele>815.01884</ele>
        <time>2023-12-12T09:59:13.000Z</time>
      </trkpt>
      <trkpt lat="45.49438" lon="5.78752">
        <ele>815.62665</ele>
        <time>2023-12-12T09:59:15.000Z</time>
      </trkpt>
      <trkpt lat="45.49436" lon="5.78763">
        <ele>816.775706</ele>
        <time>2023-12-12T09:59:19.000Z</time>
      </trkpt>
      <trkpt lat="45.49432" lon="5.78773">
        <ele>817.96644</ele>
        <time>2023-12-12T09:59:23.000Z</time>
      </trkpt>
      <trkpt lat="45.49432" lon="5.78776">
        <ele>818.267303</ele>
        <time>2023-12-12T09:59:24.000Z</time>
      </trkpt>
      <trkpt lat="45.4943" lon="5.78785">
        <ele>819.230791</ele>
        <time>2023-12-12T09:59:27.000Z</time>
      </trkpt>
      <trkpt lat="45.49427" lon="5.78797">
        <ele>820.573822</ele>
        <time>2023-12-12T09:59:31.000Z</time>
      </trkpt>
      <trkpt lat="45.49426" lon="5.78799">
        <ele>820.862764</ele>
        <time>2023-12-12T09:59:32.000Z</time>
      </trkpt>
      <trkpt lat="45.49424" lon="5.78806">
        <ele>821.644258</ele>
        <time>2023-12-12T09:59:35.000Z</time>
      </trkpt>
      <trkpt lat="45.49419" lon="5.78815">
        <ele>822.748561</ele>
        <time>2023-12-12T09:59:39.000Z</time>
      </trkpt>
      <trkpt lat="45.49415" lon="5.78824">
        <ele>823.820233</ele>
        <time>2023-12-12T09:59:43.000Z</time>
      </trkpt>
      <trkpt lat="45.49412" lon="5.78829">
        <ele>824.348642</ele>
        <time>2023-12-12T09:59:45.000Z</time>
      </trkpt>
      <trkpt lat="45.4941" lon="5.78833">
        <ele>824.900794</ele>
        <time>2023-12-12T09:59:47.000Z</time>
      </trkpt>
      <trkpt lat="45.49407" lon="5.7884">
        <ele>825.746998</ele>
        <time>2023-12-12T09:59:50.000Z</time>
      </trkpt>
      <trkpt lat="45.49405" lon="5.78846">
        <ele>826.328383</ele>
        <time>2023-12-12T09:59:52.000Z</time>
      </trkpt>
      <trkpt lat="45.49404" lon="5.78848">
        <ele>826.631141</ele>
        <time>2023-12-12T09:59:53.000Z</time>
      </trkpt>
      <trkpt lat="45.49403" lon="5.7885">
        <ele>826.883686</ele>
        <time>2023-12-12T09:59:54.000Z</time>
      </trkpt>
      <trkpt lat="45.49402" lon="5.78853">
        <ele>827.169062</ele>
        <time>2023-12-12T09:59:55.000Z</time>
      </trkpt>
      <trkpt lat="45.494" lon="5.78861">
        <ele>828.002642</ele>
        <time>2023-12-12T09:59:58.000Z</time>
      </trkpt>
      <trkpt lat="45.49397" lon="5.78876">
        <ele>829.522485</ele>
        <time>2023-12-12T10:00:03.000Z</time>
      </trkpt>
      <trkpt lat="45.49396" lon="5.78885">
        <ele>830.440526</ele>
        <time>2023-12-12T10:00:06.000Z</time>
      </trkpt>
      <trkpt lat="45.49396" lon="5.78898">
        <ele>831.720743</ele>
        <time>2023-12-12T10:00:10.000Z</time>
      </trkpt>
      <trkpt lat="45.49395" lon="5.789">
        <ele>832.011377</ele>
        <time>2023-12-12T10:00:11.000Z</time>
      </trkpt>
      <trkpt lat="45.49393" lon="5.7891">
        <ele>832.970448</ele>
        <time>2023-12-12T10:00:14.000Z</time>
      </trkpt>
      <trkpt lat="45.49393" lon="5.78913">
        <ele>833.359434</ele>
        <time>2023-12-12T10:00:15.000Z</time>
      </trkpt>
      <trkpt lat="45.49393" lon="5.78921">
        <ele>834.152718</ele>
        <time>2023-12-12T10:00:17.000Z</time>
      </trkpt>
      <trkpt lat="45.49391" lon="5.78924">
        <ele>834.495169</ele>
        <time>2023-12-12T10:00:18.000Z</time>
      </trkpt>
      <trkpt lat="45.49388" lon="5.78934">
        <ele>835.576801</ele>
        <time>2023-12-12T10:00:21.000Z</time>
      </trkpt>
      <trkpt lat="45.49384" lon="5.78948">
        <ele>837.070416</ele>
        <time>2023-12-12T10:00:25.000Z</time>
      </trkpt>
      <trkpt lat="45.49382" lon="5.78954">
        <ele>837.708841</ele>
        <time>2023-12-12T10:00:27.000Z</time>
      </trkpt>
      <trkpt lat="45.49379" lon="5.78959">
        <ele>838.326775</ele>
        <time>2023-12-12T10:00:29.000Z</time>
      </trkpt>
      <trkpt lat="45.49374" lon="5.78964">
        <ele>839.253742</ele>
        <time>2023-12-12T10:00:32.000Z</time>
      </trkpt>
      <trkpt lat="45.49372" lon="5.78966">
        <ele>839.570954</ele>
        <time>2023-12-12T10:00:33.000Z</time>
      </trkpt>
      <trkpt lat="45.49367" lon="5.78969">
        <ele>840.290504</ele>
        <time>2023-12-12T10:00:35.000Z</time>
      </trkpt>
      <trkpt lat="45.4936" lon="5.78973">
        <ele>841.366573</ele>
        <time>2023-12-12T10:00:38.000Z</time>
      </trkpt>
      <trkpt lat="45.49354" lon="5.78976">
        <ele>842.34935</ele>
        <time>2023-12-12T10:00:41.000Z</time>
      </trkpt>
      <trkpt lat="45.49348" lon="5.78983">
        <ele>843.370448</ele>
        <time>2023-12-12T10:00:44.000Z</time>
      </trkpt>
      <trkpt lat="45.49348" lon="5.78989">
        <ele>843.965994</ele>
        <time>2023-12-12T10:00:46.000Z</time>
      </trkpt>
      <trkpt lat="45.49352" lon="5.78995">
        <ele>844.864551</ele>
        <time>2023-12-12T10:00:49.000Z</time>
      </trkpt>
      <trkpt lat="45.49354" lon="5.78996">
        <ele>845.125994</ele>
        <time>2023-12-12T10:00:50.000Z</time>
      </trkpt>
      <trkpt lat="45.49361" lon="5.78993">
        <ele>846.16162</ele>
        <time>2023-12-12T10:00:53.000Z</time>
      </trkpt>
      <trkpt lat="45.49363" lon="5.78991">
        <ele>846.476715</ele>
        <time>2023-12-12T10:00:54.000Z</time>
      </trkpt>
      <trkpt lat="45.49367" lon="5.7899">
        <ele>847.064741</ele>
        <time>2023-12-12T10:00:56.000Z</time>
      </trkpt>
      <trkpt lat="45.49369" lon="5.7899">
        <ele>847.394212</ele>
        <time>2023-12-12T10:00:57.000Z</time>
      </trkpt>
      <trkpt lat="45.49379" lon="5.78988">
        <ele>848.711124</ele>
        <time>2023-12-12T10:01:01.000Z</time>
      </trkpt>
      <trkpt lat="45.49386" lon="5.78986">
        <ele>849.687569</ele>
        <time>2023-12-12T10:01:03.000Z</time>
      </trkpt>
      <trkpt lat="45.49389" lon="5.78983">
        <ele>850.243213</ele>
        <time>2023-12-12T10:01:05.000Z</time>
      </trkpt>
      <trkpt lat="45.49397" lon="5.78978">
        <ele>851.379926</ele>
        <time>2023-12-12T10:01:09.000Z</time>
      </trkpt>
      <trkpt lat="45.49406" lon="5.7898">
        <ele>852.606398</ele>
        <time>2023-12-12T10:01:13.000Z</time>
      </trkpt>
      <trkpt lat="45.4941" lon="5.78986">
        <ele>853.389373</ele>
        <time>2023-12-12T10:01:15.000Z</time>
      </trkpt>
      <trkpt lat="45.49412" lon="5.78993">
        <ele>854.125713</ele>
        <time>2023-12-12T10:01:17.000Z</time>
      </trkpt>
      <trkpt lat="45.49411" lon="5.78996">
        <ele>854.447987</ele>
        <time>2023-12-12T10:01:18.000Z</time>
      </trkpt>
      <trkpt lat="45.49411" lon="5.79">
        <ele>854.806415</ele>
        <time>2023-12-12T10:01:19.000Z</time>
      </trkpt>
      <trkpt lat="45.49406" lon="5.79008">
        <ele>855.832176</ele>
        <time>2023-12-12T10:01:22.000Z</time>
      </trkpt>
      <trkpt lat="45.49402" lon="5.79011">
        <ele>856.478854</ele>
        <time>2023-12-12T10:01:24.000Z</time>
      </trkpt>
      <trkpt lat="45.49397" lon="5.79012">
        <ele>857.137984</ele>
        <time>2023-12-12T10:01:26.000Z</time>
      </trkpt>
      <trkpt lat="45.49388" lon="5.79017">
        <ele>858.476687</ele>
        <time>2023-12-12T10:01:30.000Z</time>
      </trkpt>
      <trkpt lat="45.49382" lon="5.79023">
        <ele>859.421077</ele>
        <time>2023-12-12T10:01:33.000Z</time>
      </trkpt>
      <trkpt lat="45.4938" lon="5.79025">
        <ele>859.735862</ele>
        <time>2023-12-12T10:01:34.000Z</time>
      </trkpt>
      <trkpt lat="45.49375" lon="5.7903">
        <ele>860.675188</ele>
        <time>2023-12-12T10:01:37.000Z</time>
      </trkpt>
      <trkpt lat="45.49366" lon="5.79035">
        <ele>861.939464</ele>
        <time>2023-12-12T10:01:41.000Z</time>
      </trkpt>
      <trkpt lat="45.4936" lon="5.79038">
        <ele>862.780371</ele>
        <time>2023-12-12T10:01:44.000Z</time>
      </trkpt>
      <trkpt lat="45.49355" lon="5.79042">
        <ele>863.664757</ele>
        <time>2023-12-12T10:01:47.000Z</time>
      </trkpt>
      <trkpt lat="45.49348" lon="5.79046">
        <ele>864.712699</ele>
        <time>2023-12-12T10:01:50.000Z</time>
      </trkpt>
      <trkpt lat="45.49345" lon="5.79047">
        <ele>865.058758</ele>
        <time>2023-12-12T10:01:51.000Z</time>
      </trkpt>
      <trkpt lat="45.49341" lon="5.79049">
        <ele>865.683511</ele>
        <time>2023-12-12T10:01:53.000Z</time>
      </trkpt>
      <trkpt lat="45.49335" lon="5.79054">
        <ele>866.587317</ele>
        <time>2023-12-12T10:01:56.000Z</time>
      </trkpt>
      <trkpt lat="45.49331" lon="5.7906">
        <ele>867.393129</ele>
        <time>2023-12-12T10:01:59.000Z</time>
      </trkpt>
      <trkpt lat="45.49326" lon="5.79064">
        <ele>868.176386</ele>
        <time>2023-12-12T10:02:02.000Z</time>
      </trkpt>
      <trkpt lat="45.4931" lon="5.79068">
        <ele>870.418228</ele>
        <time>2023-12-12T10:02:08.000Z</time>
      </trkpt>
      <trkpt lat="45.49304" lon="5.79072">
        <ele>871.226645</ele>
        <time>2023-12-12T10:02:11.000Z</time>
      </trkpt>
      <trkpt lat="45.49301" lon="5.79074">
        <ele>871.566641</ele>
        <time>2023-12-12T10:02:13.000Z</time>
      </trkpt>
      <trkpt lat="45.49299" lon="5.79073">
        <ele>871.768732</ele>
        <time>2023-12-12T10:02:15.000Z</time>
      </trkpt>
      <trkpt lat="45.49295" lon="5.79072">
        <ele>872.164987</ele>
        <time>2023-12-12T10:02:19.000Z</time>
      </trkpt>
      <trkpt lat="45.49291" lon="5.79067">
        <ele>872.735903</ele>
        <time>2023-12-12T10:02:25.000Z</time>
      </trkpt>
      <trkpt lat="45.4929" lon="5.79067">
        <ele>872.783456</ele>
        <time>2023-12-12T10:02:30.000Z</time>
      </trkpt>
      <trkpt lat="45.49291" lon="5.79066">
        <ele>872.899108</ele>
        <time>2023-12-12T10:02:32.000Z</time>
      </trkpt>
      <trkpt lat="45.49292" lon="5.79067">
        <ele>872.954865</ele>
        <time>2023-12-12T10:02:36.000Z</time>
      </trkpt>
      <trkpt lat="45.49289" lon="5.79065">
        <ele>873.309805</ele>
        <time>2023-12-12T10:02:42.000Z</time>
      </trkpt>
      <trkpt lat="45.4929" lon="5.79065">
        <ele>873.448375</ele>
        <time>2023-12-12T10:02:48.000Z</time>
      </trkpt>
      <trkpt lat="45.4929" lon="5.79068">
        <ele>873.654364</ele>
        <time>2023-12-12T10:02:50.000Z</time>
      </trkpt>
      <trkpt lat="45.49291" lon="5.7907">
        <ele>873.834185</ele>
        <time>2023-12-12T10:02:56.000Z</time>
      </trkpt>
      <trkpt lat="45.49291" lon="5.7907">
        <ele>873.834185</ele>
        <time>2023-12-12T10:03:01.000Z</time>
      </trkpt>
      <trkpt lat="45.49291" lon="5.7907">
        <ele>873.834185</ele>
        <time>2023-12-12T10:03:04.000Z</time>
      </trkpt>
      <trkpt lat="45.49291" lon="5.7907">
        <ele>873.841561</ele>
        <time>2023-12-12T10:03:09.000Z</time>
      </trkpt>
      <trkpt lat="45.49291" lon="5.7907">
        <ele>873.841561</ele>
        <time>2023-12-12T10:03:10.000Z</time>
      </trkpt>
      <trkpt lat="45.49291" lon="5.7907">
        <ele>873.863689</ele>
        <time>2023-12-12T10:03:15.000Z</time>
      </trkpt>
      <trkpt lat="45.49291" lon="5.7907">
        <ele>873.905779</ele>
        <time>2023-12-12T10:03:22.000Z</time>
      </trkpt>
      <trkpt lat="45.49291" lon="5.7907">
        <ele>873.926824</ele>
        <time>2023-12-12T10:03:25.000Z</time>
      </trkpt>
      <trkpt lat="45.49291" lon="5.7907">
        <ele>873.939674</ele>
        <time>2023-12-12T10:03:29.000Z</time>
      </trkpt>
      <trkpt lat="45.49292" lon="5.7907">
        <ele>873.971241</ele>
        <time>2023-12-12T10:03:34.000Z</time>
      </trkpt>
      <trkpt lat="45.49293" lon="5.7907">
        <ele>874.065943</ele>
        <time>2023-12-12T10:03:40.000Z</time>
      </trkpt>
      <trkpt lat="45.49293" lon="5.7907">
        <ele>874.065943</ele>
        <time>2023-12-12T10:03:45.000Z</time>
      </trkpt>
      <trkpt lat="45.49292" lon="5.7907">
        <ele>874.130194</ele>
        <time>2023-12-12T10:03:54.000Z</time>
      </trkpt>
      <trkpt lat="45.49292" lon="5.7907">
        <ele>874.152494</ele>
        <time>2023-12-12T10:03:57.000Z</time>
      </trkpt>
      <trkpt lat="45.49291" lon="5.79071">
        <ele>874.203895</ele>
        <time>2023-12-12T10:04:11.000Z</time>
      </trkpt>
      <trkpt lat="45.4929" lon="5.79068">
        <ele>874.452292</ele>
        <time>2023-12-12T10:04:15.000Z</time>
      </trkpt>
      <trkpt lat="45.49292" lon="5.79064">
        <ele>874.731509</ele>
        <time>2023-12-12T10:04:19.000Z</time>
      </trkpt>
      <trkpt lat="45.49292" lon="5.79065">
        <ele>874.806018</ele>
        <time>2023-12-12T10:04:20.000Z</time>
      </trkpt>
      <trkpt lat="45.49292" lon="5.79062">
        <ele>875.06949</ele>
        <time>2023-12-12T10:04:25.000Z</time>
      </trkpt>
      <trkpt lat="45.49293" lon="5.79061">
        <ele>875.193409</ele>
        <time>2023-12-12T10:04:31.000Z</time>
      </trkpt>
      <trkpt lat="45.49293" lon="5.79061">
        <ele>875.223947</ele>
        <time>2023-12-12T10:04:47.000Z</time>
      </trkpt>
      <trkpt lat="45.49294" lon="5.79061">
        <ele>875.244992</ele>
        <time>2023-12-12T10:04:51.000Z</time>
      </trkpt>
      <trkpt lat="45.49294" lon="5.79061">
        <ele>875.267292</ele>
        <time>2023-12-12T10:04:57.000Z</time>
      </trkpt>
      <trkpt lat="45.49294" lon="5.79061">
        <ele>875.280142</ele>
        <time>2023-12-12T10:05:04.000Z</time>
      </trkpt>
      <trkpt lat="45.49293" lon="5.79062">
        <ele>875.400783</ele>
        <time>2023-12-12T10:05:12.000Z</time>
      </trkpt>
      <trkpt lat="45.49291" lon="5.79063">
        <ele>875.636468</ele>
        <time>2023-12-12T10:05:19.000Z</time>
      </trkpt>
      <trkpt lat="45.4929" lon="5.79063">
        <ele>875.703391</ele>
        <time>2023-12-12T10:05:24.000Z</time>
      </trkpt>
      <trkpt lat="45.4929" lon="5.79066">
        <ele>875.881601</ele>
        <time>2023-12-12T10:05:35.000Z</time>
      </trkpt>
      <trkpt lat="45.49293" lon="5.79073">
        <ele>876.546068</ele>
        <time>2023-12-12T10:05:48.000Z</time>
      </trkpt>
      <trkpt lat="45.49297" lon="5.79078">
        <ele>877.090427</ele>
        <time>2023-12-12T10:05:54.000Z</time>
      </trkpt>
      <trkpt lat="45.49298" lon="5.79079">
        <ele>877.184806</ele>
        <time>2023-12-12T10:05:56.000Z</time>
      </trkpt>
      <trkpt lat="45.49299" lon="5.7908">
        <ele>877.36471</ele>
        <time>2023-12-12T10:06:02.000Z</time>
      </trkpt>
      <trkpt lat="45.49299" lon="5.7908">
        <ele>877.379462</ele>
        <time>2023-12-12T10:06:12.000Z</time>
      </trkpt>
      <trkpt lat="45.493" lon="5.79078">
        <ele>877.621072</ele>
        <time>2023-12-12T10:06:22.000Z</time>
      </trkpt>
      <trkpt lat="45.493" lon="5.79077">
        <ele>877.633922</ele>
        <time>2023-12-12T10:06:31.000Z</time>
      </trkpt>
      <trkpt lat="45.49301" lon="5.79078">
        <ele>877.656222</ele>
        <time>2023-12-12T10:06:42.000Z</time>
      </trkpt>
      <trkpt lat="45.49301" lon="5.79078">
        <ele>877.656222</ele>
        <time>2023-12-12T10:06:49.000Z</time>
      </trkpt>
      <trkpt lat="45.493" lon="5.79077">
        <ele>877.708916</ele>
        <time>2023-12-12T10:06:56.000Z</time>
      </trkpt>
      <trkpt lat="45.493" lon="5.79077">
        <ele>877.740484</ele>
        <time>2023-12-12T10:07:04.000Z</time>
      </trkpt>
      <trkpt lat="45.493" lon="5.79078">
        <ele>877.812966</ele>
        <time>2023-12-12T10:07:11.000Z</time>
      </trkpt>
      <trkpt lat="45.493" lon="5.79081">
        <ele>878.027907</ele>
        <time>2023-12-12T10:07:17.000Z</time>
      </trkpt>
      <trkpt lat="45.493" lon="5.79081">
        <ele>878.04266</ele>
        <time>2023-12-12T10:07:22.000Z</time>
      </trkpt>
      <trkpt lat="45.49305" lon="5.79082">
        <ele>878.664265</ele>
        <time>2023-12-12T10:07:28.000Z</time>
      </trkpt>
      <trkpt lat="45.49306" lon="5.79083">
        <ele>878.760109</ele>
        <time>2023-12-12T10:07:37.000Z</time>
      </trkpt>
      <trkpt lat="45.49307" lon="5.79084">
        <ele>878.869484</ele>
        <time>2023-12-12T10:07:44.000Z</time>
      </trkpt>
      <trkpt lat="45.49307" lon="5.79081">
        <ele>879.051447</ele>
        <time>2023-12-12T10:07:57.000Z</time>
      </trkpt>
      <trkpt lat="45.49307" lon="5.7908">
        <ele>879.135269</ele>
        <time>2023-12-12T10:07:58.000Z</time>
      </trkpt>
      <trkpt lat="45.49302" lon="5.79062">
        <ele>880.59303</ele>
        <time>2023-12-12T10:08:04.000Z</time>
      </trkpt>
      <trkpt lat="45.493" lon="5.79054">
        <ele>881.191743</ele>
        <time>2023-12-12T10:08:06.000Z</time>
      </trkpt>
      <trkpt lat="45.49299" lon="5.79051">
        <ele>881.481415</ele>
        <time>2023-12-12T10:08:07.000Z</time>
      </trkpt>
      <trkpt lat="45.49297" lon="5.79046">
        <ele>881.918916</ele>
        <time>2023-12-12T10:08:09.000Z</time>
      </trkpt>
      <trkpt lat="45.49296" lon="5.79043">
        <ele>882.150709</ele>
        <time>2023-12-12T10:08:10.000Z</time>
      </trkpt>
      <trkpt lat="45.49295" lon="5.79037">
        <ele>882.601033</ele>
        <time>2023-12-12T10:08:12.000Z</time>
      </trkpt>
      <trkpt lat="45.49294" lon="5.79024">
        <ele>883.529039</ele>
        <time>2023-12-12T10:08:16.000Z</time>
      </trkpt>
      <trkpt lat="45.49289" lon="5.79013">
        <ele>884.481249</ele>
        <time>2023-12-12T10:08:20.000Z</time>
      </trkpt>
      <trkpt lat="45.49285" lon="5.79001">
        <ele>885.479478</ele>
        <time>2023-12-12T10:08:24.000Z</time>
      </trkpt>
      <trkpt lat="45.49284" lon="5.78995">
        <ele>885.897327</ele>
        <time>2023-12-12T10:08:26.000Z</time>
      </trkpt>
      <trkpt lat="45.49282" lon="5.78987">
        <ele>886.538077</ele>
        <time>2023-12-12T10:08:29.000Z</time>
      </trkpt>
      <trkpt lat="45.4928" lon="5.78982">
        <ele>887.004152</ele>
        <time>2023-12-12T10:08:31.000Z</time>
      </trkpt>
      <trkpt lat="45.49276" lon="5.78976">
        <ele>887.552074</ele>
        <time>2023-12-12T10:08:33.000Z</time>
      </trkpt>
      <trkpt lat="45.49269" lon="5.78962">
        <ele>888.863144</ele>
        <time>2023-12-12T10:08:37.000Z</time>
      </trkpt>
      <trkpt lat="45.49264" lon="5.78944">
        <ele>889.518676</ele>
        <time>2023-12-12T10:08:42.000Z</time>
      </trkpt>
      <trkpt lat="45.49248" lon="5.78919">
        <ele>888.961417</ele>
        <time>2023-12-12T10:08:50.000Z</time>
      </trkpt>
      <trkpt lat="45.4924" lon="5.78913">
        <ele>888.746975</ele>
        <time>2023-12-12T10:08:52.000Z</time>
      </trkpt>
      <trkpt lat="45.49229" lon="5.78907">
        <ele>888.479422</ele>
        <time>2023-12-12T10:08:54.000Z</time>
      </trkpt>
      <trkpt lat="45.49224" lon="5.78903">
        <ele>888.338149</ele>
        <time>2023-12-12T10:08:55.000Z</time>
      </trkpt>
      <trkpt lat="45.49219" lon="5.78898">
        <ele>888.200701</ele>
        <time>2023-12-12T10:08:56.000Z</time>
      </trkpt>
      <trkpt lat="45.49214" lon="5.78894">
        <ele>888.062343</ele>
        <time>2023-12-12T10:08:57.000Z</time>
      </trkpt>
      <trkpt lat="45.49209" lon="5.78889">
        <ele>887.910099</ele>
        <time>2023-12-12T10:08:58.000Z</time>
      </trkpt>
      <trkpt lat="45.49202" lon="5.78884">
        <ele>887.744265</ele>
        <time>2023-12-12T10:08:59.000Z</time>
      </trkpt>
      <trkpt lat="45.4918" lon="5.78863">
        <ele>887.115286</ele>
        <time>2023-12-12T10:09:04.000Z</time>
      </trkpt>
      <trkpt lat="45.49177" lon="5.7886">
        <ele>887.039421</ele>
        <time>2023-12-12T10:09:05.000Z</time>
      </trkpt>
      <trkpt lat="45.49171" lon="5.78853">
        <ele>886.84384</ele>
        <time>2023-12-12T10:09:08.000Z</time>
      </trkpt>
      <trkpt lat="45.49166" lon="5.78848">
        <ele>886.69644</ele>
        <time>2023-12-12T10:09:10.000Z</time>
      </trkpt>
      <trkpt lat="45.49159" lon="5.78841">
        <ele>886.502809</ele>
        <time>2023-12-12T10:09:13.000Z</time>
      </trkpt>
      <trkpt lat="45.49153" lon="5.78832">
        <ele>886.300786</ele>
        <time>2023-12-12T10:09:16.000Z</time>
      </trkpt>
      <trkpt lat="45.49151" lon="5.7883">
        <ele>886.232334</ele>
        <time>2023-12-12T10:09:17.000Z</time>
      </trkpt>
      <trkpt lat="45.49148" lon="5.7883">
        <ele>886.171412</ele>
        <time>2023-12-12T10:09:18.000Z</time>
      </trkpt>
      <trkpt lat="45.49142" lon="5.78829">
        <ele>886.035259</ele>
        <time>2023-12-12T10:09:20.000Z</time>
      </trkpt>
      <trkpt lat="45.4912" lon="5.78825">
        <ele>885.510731</ele>
        <time>2023-12-12T10:09:28.000Z</time>
      </trkpt>
      <trkpt lat="45.49106" lon="5.78811">
        <ele>881.895831</ele>
        <time>2023-12-12T10:09:33.000Z</time>
      </trkpt>
      <trkpt lat="45.49102" lon="5.78809">
        <ele>880.607401</ele>
        <time>2023-12-12T10:09:35.000Z</time>
      </trkpt>
      <trkpt lat="45.491" lon="5.78809">
        <ele>880.169657</ele>
        <time>2023-12-12T10:09:39.000Z</time>
      </trkpt>
      <trkpt lat="45.491" lon="5.7881">
        <ele>880.076118</ele>
        <time>2023-12-12T10:09:47.000Z</time>
      </trkpt>
      <trkpt lat="45.491" lon="5.78809">
        <ele>879.971904</ele>
        <time>2023-12-12T10:09:55.000Z</time>
      </trkpt>
      <trkpt lat="45.49094" lon="5.78808">
        <ele>878.470382</ele>
        <time>2023-12-12T10:09:58.000Z</time>
      </trkpt>
      <trkpt lat="45.49088" lon="5.78808">
        <ele>877.084491</ele>
        <time>2023-12-12T10:10:03.000Z</time>
      </trkpt>
      <trkpt lat="45.49089" lon="5.78808">
        <ele>876.937378</ele>
        <time>2023-12-12T10:10:06.000Z</time>
      </trkpt>
      <trkpt lat="45.4909" lon="5.78807">
        <ele>876.55069</ele>
        <time>2023-12-12T10:10:08.000Z</time>
      </trkpt>
      <trkpt lat="45.49091" lon="5.78806">
        <ele>876.295749</ele>
        <time>2023-12-12T10:10:09.000Z</time>
      </trkpt>
      <trkpt lat="45.49093" lon="5.78806">
        <ele>875.78124</ele>
        <time>2023-12-12T10:10:11.000Z</time>
      </trkpt>
      <trkpt lat="45.49097" lon="5.78806">
        <ele>874.677167</ele>
        <time>2023-12-12T10:10:15.000Z</time>
      </trkpt>
      <trkpt lat="45.49102" lon="5.78805">
        <ele>873.54287</ele>
        <time>2023-12-12T10:10:22.000Z</time>
      </trkpt>
      <trkpt lat="45.49101" lon="5.78805">
        <ele>873.426897</ele>
        <time>2023-12-12T10:10:32.000Z</time>
      </trkpt>
      <trkpt lat="45.49101" lon="5.78805">
        <ele>873.426897</ele>
        <time>2023-12-12T10:10:37.000Z</time>
      </trkpt>
      <trkpt lat="45.49101" lon="5.78805">
        <ele>873.401234</ele>
        <time>2023-12-12T10:10:52.000Z</time>
      </trkpt>
      <trkpt lat="45.49101" lon="5.78805">
        <ele>873.383244</ele>
        <time>2023-12-12T10:10:53.000Z</time>
      </trkpt>
      <trkpt lat="45.49102" lon="5.78804">
        <ele>873.279682</ele>
        <time>2023-12-12T10:10:55.000Z</time>
      </trkpt>
      <trkpt lat="45.49102" lon="5.78796">
        <ele>871.879325</ele>
        <time>2023-12-12T10:10:58.000Z</time>
      </trkpt>
      <trkpt lat="45.49102" lon="5.78791">
        <ele>870.93509</ele>
        <time>2023-12-12T10:11:00.000Z</time>
      </trkpt>
      <trkpt lat="45.49102" lon="5.78786">
        <ele>869.927653</ele>
        <time>2023-12-12T10:11:02.000Z</time>
      </trkpt>
      <trkpt lat="45.49102" lon="5.78782">
        <ele>869.307441</ele>
        <time>2023-12-12T10:11:03.000Z</time>
      </trkpt>
      <trkpt lat="45.49101" lon="5.78779">
        <ele>868.690957</ele>
        <time>2023-12-12T10:11:04.000Z</time>
      </trkpt>
      <trkpt lat="45.49101" lon="5.78776">
        <ele>868.153701</ele>
        <time>2023-12-12T10:11:05.000Z</time>
      </trkpt>
      <trkpt lat="45.491" lon="5.78771">
        <ele>867.209465</ele>
        <time>2023-12-12T10:11:07.000Z</time>
      </trkpt>
      <trkpt lat="45.49099" lon="5.78765">
        <ele>866.156809</ele>
        <time>2023-12-12T10:11:09.000Z</time>
      </trkpt>
      <trkpt lat="45.49098" lon="5.78764">
        <ele>865.797241</ele>
        <time>2023-12-12T10:11:10.000Z</time>
      </trkpt>
      <trkpt lat="45.49094" lon="5.78762">
        <ele>864.775235</ele>
        <time>2023-12-12T10:11:12.000Z</time>
      </trkpt>
      <trkpt lat="45.4909" lon="5.78758">
        <ele>863.467589</ele>
        <time>2023-12-12T10:11:14.000Z</time>
      </trkpt>
      <trkpt lat="45.49089" lon="5.78755">
        <ele>862.826423</ele>
        <time>2023-12-12T10:11:15.000Z</time>
      </trkpt>
      <trkpt lat="45.49088" lon="5.78752">
        <ele>862.282466</ele>
        <time>2023-12-12T10:11:16.000Z</time>
      </trkpt>
      <trkpt lat="45.49086" lon="5.78747">
        <ele>861.30316</ele>
        <time>2023-12-12T10:11:18.000Z</time>
      </trkpt>
      <trkpt lat="45.49083" lon="5.78743">
        <ele>860.172882</ele>
        <time>2023-12-12T10:11:20.000Z</time>
      </trkpt>
      <trkpt lat="45.49078" lon="5.78738">
        <ele>858.571375</ele>
        <time>2023-12-12T10:11:22.000Z</time>
      </trkpt>
      <trkpt lat="45.49076" lon="5.78737">
        <ele>857.929648</ele>
        <time>2023-12-12T10:11:23.000Z</time>
      </trkpt>
      <trkpt lat="45.49074" lon="5.78736">
        <ele>857.459047</ele>
        <time>2023-12-12T10:11:24.000Z</time>
      </trkpt>
      <trkpt lat="45.49071" lon="5.78734">
        <ele>856.547448</ele>
        <time>2023-12-12T10:11:26.000Z</time>
      </trkpt>
      <trkpt lat="45.49069" lon="5.78732">
        <ele>856.12944</ele>
        <time>2023-12-12T10:11:27.000Z</time>
      </trkpt>
      <trkpt lat="45.49068" lon="5.78732">
        <ele>855.70489</ele>
        <time>2023-12-12T10:11:28.000Z</time>
      </trkpt>
      <trkpt lat="45.49064" lon="5.78728">
        <ele>854.524199</ele>
        <time>2023-12-12T10:11:30.000Z</time>
      </trkpt>
      <trkpt lat="45.49059" lon="5.78727">
        <ele>853.276605</ele>
        <time>2023-12-12T10:11:32.000Z</time>
      </trkpt>
      <trkpt lat="45.49054" lon="5.78727">
        <ele>851.839506</ele>
        <time>2023-12-12T10:11:34.000Z</time>
      </trkpt>
      <trkpt lat="45.49049" lon="5.78725">
        <ele>850.605416</ele>
        <time>2023-12-12T10:11:37.000Z</time>
      </trkpt>
      <trkpt lat="45.49048" lon="5.78724">
        <ele>850.218387</ele>
        <time>2023-12-12T10:11:38.000Z</time>
      </trkpt>
      <trkpt lat="45.49046" lon="5.78723">
        <ele>849.758027</ele>
        <time>2023-12-12T10:11:40.000Z</time>
      </trkpt>
      <trkpt lat="45.49045" lon="5.78719">
        <ele>849.020029</ele>
        <time>2023-12-12T10:11:42.000Z</time>
      </trkpt>
      <trkpt lat="45.49045" lon="5.7872">
        <ele>848.916465</ele>
        <time>2023-12-12T10:11:47.000Z</time>
      </trkpt>
      <trkpt lat="45.49045" lon="5.7872">
        <ele>848.885125</ele>
        <time>2023-12-12T10:11:48.000Z</time>
      </trkpt>
      <trkpt lat="45.49047" lon="5.78718">
        <ele>848.237141</ele>
        <time>2023-12-12T10:11:54.000Z</time>
      </trkpt>
      <trkpt lat="45.49048" lon="5.78718">
        <ele>847.965208</ele>
        <time>2023-12-12T10:11:55.000Z</time>
      </trkpt>
      <trkpt lat="45.49049" lon="5.78716">
        <ele>847.473568</ele>
        <time>2023-12-12T10:11:59.000Z</time>
      </trkpt>
      <trkpt lat="45.49049" lon="5.78716">
        <ele>847.397168</ele>
        <time>2023-12-12T10:12:00.000Z</time>
      </trkpt>
      <trkpt lat="45.4905" lon="5.78712">
        <ele>846.725073</ele>
        <time>2023-12-12T10:12:04.000Z</time>
      </trkpt>
      <trkpt lat="45.49051" lon="5.78712">
        <ele>846.570051</ele>
        <time>2023-12-12T10:12:06.000Z</time>
      </trkpt>
      <trkpt lat="45.49051" lon="5.78712">
        <ele>846.43085</ele>
        <time>2023-12-12T10:12:07.000Z</time>
      </trkpt>
      <trkpt lat="45.49053" lon="5.78711">
        <ele>846.013247</ele>
        <time>2023-12-12T10:12:10.000Z</time>
      </trkpt>
      <trkpt lat="45.49054" lon="5.78711">
        <ele>845.704773</ele>
        <time>2023-12-12T10:12:13.000Z</time>
      </trkpt>
      <trkpt lat="45.49054" lon="5.7871">
        <ele>845.585251</ele>
        <time>2023-12-12T10:12:14.000Z</time>
      </trkpt>
      <trkpt lat="45.49057" lon="5.78707">
        <ele>844.653177</ele>
        <time>2023-12-12T10:12:18.000Z</time>
      </trkpt>
      <trkpt lat="45.49057" lon="5.78704">
        <ele>844.156717</ele>
        <time>2023-12-12T10:12:21.000Z</time>
      </trkpt>
      <trkpt lat="45.49058" lon="5.787">
        <ele>843.327472</ele>
        <time>2023-12-12T10:12:25.000Z</time>
      </trkpt>
      <trkpt lat="45.49058" lon="5.78697">
        <ele>842.785335</ele>
        <time>2023-12-12T10:12:27.000Z</time>
      </trkpt>
      <trkpt lat="45.49058" lon="5.78696">
        <ele>842.708935</ele>
        <time>2023-12-12T10:12:28.000Z</time>
      </trkpt>
      <trkpt lat="45.49056" lon="5.78694">
        <ele>842.028856</ele>
        <time>2023-12-12T10:12:30.000Z</time>
      </trkpt>
      <trkpt lat="45.49053" lon="5.78694">
        <ele>841.17723</ele>
        <time>2023-12-12T10:12:33.000Z</time>
      </trkpt>
      <trkpt lat="45.49052" lon="5.78694">
        <ele>840.919975</ele>
        <time>2023-12-12T10:12:35.000Z</time>
      </trkpt>
      <trkpt lat="45.49047" lon="5.78691">
        <ele>839.575649</ele>
        <time>2023-12-12T10:12:38.000Z</time>
      </trkpt>
      <trkpt lat="45.49043" lon="5.78688">
        <ele>838.432971</ele>
        <time>2023-12-12T10:12:40.000Z</time>
      </trkpt>
      <trkpt lat="45.49041" lon="5.78687">
        <ele>837.991106</ele>
        <time>2023-12-12T10:12:41.000Z</time>
      </trkpt>
      <trkpt lat="45.49039" lon="5.78686">
        <ele>837.532264</ele>
        <time>2023-12-12T10:12:42.000Z</time>
      </trkpt>
      <trkpt lat="45.49037" lon="5.78683">
        <ele>836.865473</ele>
        <time>2023-12-12T10:12:44.000Z</time>
      </trkpt>
      <trkpt lat="45.49035" lon="5.78676">
        <ele>835.697632</ele>
        <time>2023-12-12T10:12:46.000Z</time>
      </trkpt>
      <trkpt lat="45.49035" lon="5.78674">
        <ele>835.374791</ele>
        <time>2023-12-12T10:12:47.000Z</time>
      </trkpt>
      <trkpt lat="45.49035" lon="5.78672">
        <ele>835.055792</ele>
        <time>2023-12-12T10:12:48.000Z</time>
      </trkpt>
      <trkpt lat="45.49036" lon="5.7867">
        <ele>834.845872</ele>
        <time>2023-12-12T10:12:50.000Z</time>
      </trkpt>
      <trkpt lat="45.49036" lon="5.7867">
        <ele>834.732835</ele>
        <time>2023-12-12T10:12:52.000Z</time>
      </trkpt>
      <trkpt lat="45.49037" lon="5.78668">
        <ele>834.392888</ele>
        <time>2023-12-12T10:12:55.000Z</time>
      </trkpt>
      <trkpt lat="45.49032" lon="5.78664">
        <ele>833.092937</ele>
        <time>2023-12-12T10:12:59.000Z</time>
      </trkpt>
      <trkpt lat="45.4903" lon="5.78664">
        <ele>832.688501</ele>
        <time>2023-12-12T10:13:03.000Z</time>
      </trkpt>
      <trkpt lat="45.4903" lon="5.78664">
        <ele>832.673163</ele>
        <time>2023-12-12T10:13:04.000Z</time>
      </trkpt>
      <trkpt lat="45.49029" lon="5.78665">
        <ele>832.560126</ele>
        <time>2023-12-12T10:13:09.000Z</time>
      </trkpt>
      <trkpt lat="45.49027" lon="5.78664">
        <ele>831.99955</ele>
        <time>2023-12-12T10:13:16.000Z</time>
      </trkpt>
      <trkpt lat="45.49026" lon="5.78665">
        <ele>831.82996</ele>
        <time>2023-12-12T10:13:17.000Z</time>
      </trkpt>
      <trkpt lat="45.49025" lon="5.78664">
        <ele>831.517567</ele>
        <time>2023-12-12T10:13:20.000Z</time>
      </trkpt>
      <trkpt lat="45.49023" lon="5.78665">
        <ele>830.995754</ele>
        <time>2023-12-12T10:13:23.000Z</time>
      </trkpt>
      <trkpt lat="45.49022" lon="5.78666">
        <ele>830.816061</ele>
        <time>2023-12-12T10:13:24.000Z</time>
      </trkpt>
      <trkpt lat="45.49023" lon="5.7866">
        <ele>829.879282</ele>
        <time>2023-12-12T10:13:30.000Z</time>
      </trkpt>
      <trkpt lat="45.49023" lon="5.78659">
        <ele>829.778338</ele>
        <time>2023-12-12T10:13:31.000Z</time>
      </trkpt>
      <trkpt lat="45.49024" lon="5.7866">
        <ele>829.643526</ele>
        <time>2023-12-12T10:13:38.000Z</time>
      </trkpt>
      <trkpt lat="45.49024" lon="5.7866">
        <ele>829.643526</ele>
        <time>2023-12-12T10:13:45.000Z</time>
      </trkpt>
      <trkpt lat="45.49024" lon="5.78659">
        <ele>829.533953</ele>
        <time>2023-12-12T10:13:47.000Z</time>
      </trkpt>
      <trkpt lat="45.49023" lon="5.78653">
        <ele>828.668085</ele>
        <time>2023-12-12T10:13:49.000Z</time>
      </trkpt>
      <trkpt lat="45.49022" lon="5.7865">
        <ele>828.067386</ele>
        <time>2023-12-12T10:13:50.000Z</time>
      </trkpt>
      <trkpt lat="45.49021" lon="5.78646">
        <ele>827.385919</ele>
        <time>2023-12-12T10:13:51.000Z</time>
      </trkpt>
      <trkpt lat="45.49018" lon="5.78639">
        <ele>826.116595</ele>
        <time>2023-12-12T10:13:53.000Z</time>
      </trkpt>
      <trkpt lat="45.49014" lon="5.78634">
        <ele>825.048176</ele>
        <time>2023-12-12T10:13:55.000Z</time>
      </trkpt>
      <trkpt lat="45.4901" lon="5.78628">
        <ele>823.790324</ele>
        <time>2023-12-12T10:13:58.000Z</time>
      </trkpt>
      <trkpt lat="45.49006" lon="5.78623">
        <ele>822.701633</ele>
        <time>2023-12-12T10:14:02.000Z</time>
      </trkpt>
      <trkpt lat="45.49003" lon="5.78613">
        <ele>820.936347</ele>
        <time>2023-12-12T10:14:07.000Z</time>
      </trkpt>
      <trkpt lat="45.49002" lon="5.78607">
        <ele>819.976367</ele>
        <time>2023-12-12T10:14:09.000Z</time>
      </trkpt>
      <trkpt lat="45.49001" lon="5.78602">
        <ele>819.129818</ele>
        <time>2023-12-12T10:14:11.000Z</time>
      </trkpt>
      <trkpt lat="45.49001" lon="5.78597">
        <ele>818.35515</ele>
        <time>2023-12-12T10:14:13.000Z</time>
      </trkpt>
      <trkpt lat="45.49001" lon="5.78593">
        <ele>817.82954</ele>
        <time>2023-12-12T10:14:15.000Z</time>
      </trkpt>
      <trkpt lat="45.49001" lon="5.78592">
        <ele>817.640353</ele>
        <time>2023-12-12T10:14:16.000Z</time>
      </trkpt>
      <trkpt lat="45.49001" lon="5.7859">
        <ele>817.284873</ele>
        <time>2023-12-12T10:14:19.000Z</time>
      </trkpt>
      <trkpt lat="45.49001" lon="5.78589">
        <ele>817.182971</ele>
        <time>2023-12-12T10:14:22.000Z</time>
      </trkpt>
      <trkpt lat="45.49001" lon="5.78589">
        <ele>817.093124</ele>
        <time>2023-12-12T10:14:29.000Z</time>
      </trkpt>
      <trkpt lat="45.49" lon="5.78588">
        <ele>816.840529</ele>
        <time>2023-12-12T10:14:37.000Z</time>
      </trkpt>
      <trkpt lat="45.49" lon="5.78588">
        <ele>816.705717</ele>
        <time>2023-12-12T10:14:44.000Z</time>
      </trkpt>
      <trkpt lat="45.49" lon="5.78588">
        <ele>816.705717</ele>
        <time>2023-12-12T10:14:53.000Z</time>
      </trkpt>
      <trkpt lat="45.49" lon="5.78588">
        <ele>816.668038</ele>
        <time>2023-12-12T10:14:58.000Z</time>
      </trkpt>
      <trkpt lat="45.49" lon="5.78587">
        <ele>816.552097</ele>
        <time>2023-12-12T10:15:02.000Z</time>
      </trkpt>
      <trkpt lat="45.49002" lon="5.78586">
        <ele>816.262287</ele>
        <time>2023-12-12T10:15:08.000Z</time>
      </trkpt>
      <trkpt lat="45.49005" lon="5.7858">
        <ele>815.00516</ele>
        <time>2023-12-12T10:15:12.000Z</time>
      </trkpt>
      <trkpt lat="45.49007" lon="5.7857">
        <ele>813.489903</ele>
        <time>2023-12-12T10:15:15.000Z</time>
      </trkpt>
      <trkpt lat="45.49006" lon="5.78561">
        <ele>812.11625</ele>
        <time>2023-12-12T10:15:18.000Z</time>
      </trkpt>
      <trkpt lat="45.49006" lon="5.7856">
        <ele>811.870841</ele>
        <time>2023-12-12T10:15:22.000Z</time>
      </trkpt>
      <trkpt lat="45.49007" lon="5.78559">
        <ele>811.732324</ele>
        <time>2023-12-12T10:15:26.000Z</time>
      </trkpt>
      <trkpt lat="45.49007" lon="5.7856">
        <ele>811.652574</ele>
        <time>2023-12-12T10:15:30.000Z</time>
      </trkpt>
      <trkpt lat="45.49006" lon="5.7856">
        <ele>811.606205</ele>
        <time>2023-12-12T10:15:31.000Z</time>
      </trkpt>
      <trkpt lat="45.49006" lon="5.78561">
        <ele>811.420852</ele>
        <time>2023-12-12T10:15:40.000Z</time>
      </trkpt>
      <trkpt lat="45.49006" lon="5.78561">
        <ele>811.383173</ele>
        <time>2023-12-12T10:15:55.000Z</time>
      </trkpt>
      <trkpt lat="45.49006" lon="5.7856">
        <ele>811.2736</ele>
        <time>2023-12-12T10:16:00.000Z</time>
      </trkpt>
      <trkpt lat="45.49004" lon="5.78551">
        <ele>809.818716</ele>
        <time>2023-12-12T10:16:09.000Z</time>
      </trkpt>
      <trkpt lat="45.49004" lon="5.78549">
        <ele>809.456642</ele>
        <time>2023-12-12T10:16:10.000Z</time>
      </trkpt>
      <trkpt lat="45.49004" lon="5.78547">
        <ele>809.134543</ele>
        <time>2023-12-12T10:16:11.000Z</time>
      </trkpt>
      <trkpt lat="45.49005" lon="5.78541">
        <ele>808.203522</ele>
        <time>2023-12-12T10:16:14.000Z</time>
      </trkpt>
      <trkpt lat="45.49005" lon="5.78538">
        <ele>807.804771</ele>
        <time>2023-12-12T10:16:15.000Z</time>
      </trkpt>
      <trkpt lat="45.49006" lon="5.78536">
        <ele>807.381496</ele>
        <time>2023-12-12T10:16:16.000Z</time>
      </trkpt>
      <trkpt lat="45.49007" lon="5.78533">
        <ele>806.953269</ele>
        <time>2023-12-12T10:16:22.000Z</time>
      </trkpt>
      <trkpt lat="45.49007" lon="5.78532">
        <ele>806.772233</ele>
        <time>2023-12-12T10:16:24.000Z</time>
      </trkpt>
      <trkpt lat="45.49007" lon="5.7853">
        <ele>806.511485</ele>
        <time>2023-12-12T10:16:32.000Z</time>
      </trkpt>
      <trkpt lat="45.49007" lon="5.78531">
        <ele>806.473806</ele>
        <time>2023-12-12T10:16:33.000Z</time>
      </trkpt>
      <trkpt lat="45.49007" lon="5.78531">
        <ele>806.473806</ele>
        <time>2023-12-12T10:16:38.000Z</time>
      </trkpt>
      <trkpt lat="45.49007" lon="5.78531">
        <ele>806.473806</ele>
        <time>2023-12-12T10:16:39.000Z</time>
      </trkpt>
      <trkpt lat="45.49007" lon="5.7853">
        <ele>806.306971</ele>
        <time>2023-12-12T10:16:44.000Z</time>
      </trkpt>
      <trkpt lat="45.49006" lon="5.78527">
        <ele>805.913659</ele>
        <time>2023-12-12T10:16:45.000Z</time>
      </trkpt>
      <trkpt lat="45.49006" lon="5.78525">
        <ele>805.630892</ele>
        <time>2023-12-12T10:16:46.000Z</time>
      </trkpt>
      <trkpt lat="45.49005" lon="5.7852">
        <ele>804.747385</ele>
        <time>2023-12-12T10:16:49.000Z</time>
      </trkpt>
      <trkpt lat="45.49004" lon="5.78515">
        <ele>803.995501</ele>
        <time>2023-12-12T10:16:52.000Z</time>
      </trkpt>
      <trkpt lat="45.49004" lon="5.78514">
        <ele>803.824218</ele>
        <time>2023-12-12T10:16:59.000Z</time>
      </trkpt>
      <trkpt lat="45.49004" lon="5.78515">
        <ele>803.760719</ele>
        <time>2023-12-12T10:17:01.000Z</time>
      </trkpt>
      <trkpt lat="45.49004" lon="5.78515">
        <ele>803.699367</ele>
        <time>2023-12-12T10:17:06.000Z</time>
      </trkpt>
      <trkpt lat="45.49003" lon="5.78513">
        <ele>803.391826</ele>
        <time>2023-12-12T10:17:08.000Z</time>
      </trkpt>
      <trkpt lat="45.49005" lon="5.78503">
        <ele>801.768809</ele>
        <time>2023-12-12T10:17:13.000Z</time>
      </trkpt>
      <trkpt lat="45.49006" lon="5.78501">
        <ele>801.46641</ele>
        <time>2023-12-12T10:17:14.000Z</time>
      </trkpt>
      <trkpt lat="45.49012" lon="5.78493">
        <ele>799.939892</ele>
        <time>2023-12-12T10:17:20.000Z</time>
      </trkpt>
      <trkpt lat="45.49012" lon="5.78494">
        <ele>799.9431</ele>
        <time>2023-12-12T10:17:27.000Z</time>
      </trkpt>
      <trkpt lat="45.4901" lon="5.78499">
        <ele>799.96421</ele>
        <time>2023-12-12T10:17:33.000Z</time>
      </trkpt>
      <trkpt lat="45.49007" lon="5.7851">
        <ele>800.013223</ele>
        <time>2023-12-12T10:17:38.000Z</time>
      </trkpt>
      <trkpt lat="45.49006" lon="5.78514">
        <ele>800.028685</ele>
        <time>2023-12-12T10:17:43.000Z</time>
      </trkpt>
      <trkpt lat="45.49007" lon="5.78521">
        <ele>800.056503</ele>
        <time>2023-12-12T10:17:49.000Z</time>
      </trkpt>
      <trkpt lat="45.49007" lon="5.78525">
        <ele>800.072065</ele>
        <time>2023-12-12T10:17:55.000Z</time>
      </trkpt>
      <trkpt lat="45.49007" lon="5.78525">
        <ele>800.073191</ele>
        <time>2023-12-12T10:17:56.000Z</time>
      </trkpt>
      <trkpt lat="45.49003" lon="5.78526">
        <ele>800.093121</ele>
        <time>2023-12-12T10:18:03.000Z</time>
      </trkpt>
      <trkpt lat="45.49002" lon="5.78528">
        <ele>800.100621</ele>
        <time>2023-12-12T10:18:04.000Z</time>
      </trkpt>
      <trkpt lat="45.48997" lon="5.78535">
        <ele>800.140239</ele>
        <time>2023-12-12T10:18:13.000Z</time>
      </trkpt>
      <trkpt lat="45.48996" lon="5.78537">
        <ele>800.151536</ele>
        <time>2023-12-12T10:18:19.000Z</time>
      </trkpt>
      <trkpt lat="45.48996" lon="5.78538">
        <ele>800.156733</ele>
        <time>2023-12-12T10:18:21.000Z</time>
      </trkpt>
      <trkpt lat="45.48996" lon="5.7854">
        <ele>800.164629</ele>
        <time>2023-12-12T10:18:24.000Z</time>
      </trkpt>
      <trkpt lat="45.48997" lon="5.78544">
        <ele>800.180294</ele>
        <time>2023-12-12T10:18:30.000Z</time>
      </trkpt>
      <trkpt lat="45.48997" lon="5.78544">
        <ele>800.182347</ele>
        <time>2023-12-12T10:18:31.000Z</time>
      </trkpt>
      <trkpt lat="45.48998" lon="5.78546">
        <ele>800.191667</ele>
        <time>2023-12-12T10:18:37.000Z</time>
      </trkpt>
      <trkpt lat="45.48998" lon="5.78546">
        <ele>800.192457</ele>
        <time>2023-12-12T10:18:38.000Z</time>
      </trkpt>
      <trkpt lat="45.48997" lon="5.78549">
        <ele>800.202146</ele>
        <time>2023-12-12T10:18:44.000Z</time>
      </trkpt>
      <trkpt lat="45.48997" lon="5.7855">
        <ele>800.207015</ele>
        <time>2023-12-12T10:18:47.000Z</time>
      </trkpt>
      <trkpt lat="45.48997" lon="5.78551">
        <ele>800.210284</ele>
        <time>2023-12-12T10:18:49.000Z</time>
      </trkpt>
      <trkpt lat="45.48997" lon="5.78553">
        <ele>800.219133</ele>
        <time>2023-12-12T10:18:56.000Z</time>
      </trkpt>
      <trkpt lat="45.48997" lon="5.78553">
        <ele>800.220445</ele>
        <time>2023-12-12T10:18:57.000Z</time>
      </trkpt>
      <trkpt lat="45.48995" lon="5.78557">
        <ele>800.237582</ele>
        <time>2023-12-12T10:19:04.000Z</time>
      </trkpt>
      <trkpt lat="45.48995" lon="5.78559">
        <ele>800.245498</ele>
        <time>2023-12-12T10:19:07.000Z</time>
      </trkpt>
      <trkpt lat="45.48995" lon="5.78561">
        <ele>800.253414</ele>
        <time>2023-12-12T10:19:10.000Z</time>
      </trkpt>
      <trkpt lat="45.48995" lon="5.78565">
        <ele>800.270035</ele>
        <time>2023-12-12T10:19:16.000Z</time>
      </trkpt>
      <trkpt lat="45.48991" lon="5.78566">
        <ele>800.295892</ele>
        <time>2023-12-12T10:19:22.000Z</time>
      </trkpt>
      <trkpt lat="45.48988" lon="5.78568">
        <ele>800.312211</ele>
        <time>2023-12-12T10:19:29.000Z</time>
      </trkpt>
      <trkpt lat="45.48978" lon="5.78568">
        <ele>800.36575</ele>
        <time>2023-12-12T10:19:35.000Z</time>
      </trkpt>
      <trkpt lat="45.48973" lon="5.78569">
        <ele>800.398199</ele>
        <time>2023-12-12T10:19:40.000Z</time>
      </trkpt>
      <trkpt lat="45.48967" lon="5.78569">
        <ele>800.430902</ele>
        <time>2023-12-12T10:19:44.000Z</time>
      </trkpt>
      <trkpt lat="45.48963" lon="5.78553">
        <ele>800.495024</ele>
        <time>2023-12-12T10:19:49.000Z</time>
      </trkpt>
      <trkpt lat="45.48962" lon="5.78542">
        <ele>800.541496</ele>
        <time>2023-12-12T10:19:51.000Z</time>
      </trkpt>
      <trkpt lat="45.48961" lon="5.78536">
        <ele>800.56629</ele>
        <time>2023-12-12T10:19:52.000Z</time>
      </trkpt>
      <trkpt lat="45.4896" lon="5.78525">
        <ele>800.607683</ele>
        <time>2023-12-12T10:19:54.000Z</time>
      </trkpt>
      <trkpt lat="45.48958" lon="5.78518">
        <ele>800.638108</ele>
        <time>2023-12-12T10:19:56.000Z</time>
      </trkpt>
      <trkpt lat="45.48956" lon="5.78513">
        <ele>800.659347</ele>
        <time>2023-12-12T10:19:57.000Z</time>
      </trkpt>
      <trkpt lat="45.48953" lon="5.78501">
        <ele>800.711138</ele>
        <time>2023-12-12T10:20:00.000Z</time>
      </trkpt>
      <trkpt lat="45.48952" lon="5.78495">
        <ele>800.736104</ele>
        <time>2023-12-12T10:20:01.000Z</time>
      </trkpt>
      <trkpt lat="45.48947" lon="5.78485">
        <ele>800.785318</ele>
        <time>2023-12-12T10:20:03.000Z</time>
      </trkpt>
      <trkpt lat="45.48943" lon="5.78481">
        <ele>800.811029</ele>
        <time>2023-12-12T10:20:04.000Z</time>
      </trkpt>
      <trkpt lat="45.4894" lon="5.78477">
        <ele>800.833624</ele>
        <time>2023-12-12T10:20:05.000Z</time>
      </trkpt>
      <trkpt lat="45.48931" lon="5.78467">
        <ele>800.898742</ele>
        <time>2023-12-12T10:20:09.000Z</time>
      </trkpt>
      <trkpt lat="45.4892" lon="5.78444">
        <ele>800.900459</ele>
        <time>2023-12-12T10:20:15.000Z</time>
      </trkpt>
      <trkpt lat="45.48914" lon="5.78437">
        <ele>800.867359</ele>
        <time>2023-12-12T10:20:17.000Z</time>
      </trkpt>
      <trkpt lat="45.48911" lon="5.78433">
        <ele>800.849824</ele>
        <time>2023-12-12T10:20:18.000Z</time>
      </trkpt>
      <trkpt lat="45.48908" lon="5.78429">
        <ele>800.832288</ele>
        <time>2023-12-12T10:20:19.000Z</time>
      </trkpt>
      <trkpt lat="45.48899" lon="5.78413">
        <ele>800.770405</ele>
        <time>2023-12-12T10:20:23.000Z</time>
      </trkpt>
      <trkpt lat="45.48896" lon="5.78394">
        <ele>800.711671</ele>
        <time>2023-12-12T10:20:27.000Z</time>
      </trkpt>
      <trkpt lat="45.48896" lon="5.78391">
        <ele>800.699859</ele>
        <time>2023-12-12T10:20:28.000Z</time>
      </trkpt>
      <trkpt lat="45.48896" lon="5.78382">
        <ele>800.67451</ele>
        <time>2023-12-12T10:20:31.000Z</time>
      </trkpt>
      <trkpt lat="45.48895" lon="5.78377">
        <ele>800.65876</ele>
        <time>2023-12-12T10:20:33.000Z</time>
      </trkpt>
      <trkpt lat="45.48888" lon="5.78369">
        <ele>800.618855</ele>
        <time>2023-12-12T10:20:38.000Z</time>
      </trkpt>
      <trkpt lat="45.48883" lon="5.78365">
        <ele>800.59556</ele>
        <time>2023-12-12T10:20:40.000Z</time>
      </trkpt>
      <trkpt lat="45.4887" lon="5.78352">
        <ele>800.525251</ele>
        <time>2023-12-12T10:20:46.000Z</time>
      </trkpt>
      <trkpt lat="45.48861" lon="5.78343">
        <ele>800.479443</ele>
        <time>2023-12-12T10:20:50.000Z</time>
      </trkpt>
      <trkpt lat="45.48858" lon="5.78336">
        <ele>800.456499</ele>
        <time>2023-12-12T10:20:52.000Z</time>
      </trkpt>
      <trkpt lat="45.48855" lon="5.78326">
        <ele>800.423917</ele>
        <time>2023-12-12T10:20:55.000Z</time>
      </trkpt>
      <trkpt lat="45.48852" lon="5.78318">
        <ele>800.395368</ele>
        <time>2023-12-12T10:20:58.000Z</time>
      </trkpt>
      <trkpt lat="45.48849" lon="5.78312">
        <ele>800.371819</ele>
        <time>2023-12-12T10:21:00.000Z</time>
      </trkpt>
      <trkpt lat="45.48846" lon="5.78306">
        <ele>800.348381</ele>
        <time>2023-12-12T10:21:02.000Z</time>
      </trkpt>
      <trkpt lat="45.48841" lon="5.78299">
        <ele>800.32081</ele>
        <time>2023-12-12T10:21:05.000Z</time>
      </trkpt>
      <trkpt lat="45.48841" lon="5.78298">
        <ele>800.316372</ele>
        <time>2023-12-12T10:21:06.000Z</time>
      </trkpt>
      <trkpt lat="45.4884" lon="5.78297">
        <ele>800.310926</ele>
        <time>2023-12-12T10:21:11.000Z</time>
      </trkpt>
      <trkpt lat="45.48838" lon="5.78294">
        <ele>800.300815</ele>
        <time>2023-12-12T10:21:20.000Z</time>
      </trkpt>
      <trkpt lat="45.48837" lon="5.78291">
        <ele>800.290084</ele>
        <time>2023-12-12T10:21:30.000Z</time>
      </trkpt>
      <trkpt lat="45.48827" lon="5.78273">
        <ele>800.220088</ele>
        <time>2023-12-12T10:21:36.000Z</time>
      </trkpt>
      <trkpt lat="45.48825" lon="5.78269">
        <ele>800.206955</ele>
        <time>2023-12-12T10:21:37.000Z</time>
      </trkpt>
      <trkpt lat="45.48817" lon="5.78252">
        <ele>799.481387</ele>
        <time>2023-12-12T10:21:44.000Z</time>
      </trkpt>
      <trkpt lat="45.48815" lon="5.78236">
        <ele>798.44803</ele>
        <time>2023-12-12T10:21:51.000Z</time>
      </trkpt>
      <trkpt lat="45.48806" lon="5.78216">
        <ele>796.828209</ele>
        <time>2023-12-12T10:21:58.000Z</time>
      </trkpt>
      <trkpt lat="45.488" lon="5.78197">
        <ele>795.426118</ele>
        <time>2023-12-12T10:22:05.000Z</time>
      </trkpt>
      <trkpt lat="45.488" lon="5.78194">
        <ele>795.197285</ele>
        <time>2023-12-12T10:22:09.000Z</time>
      </trkpt>
      <trkpt lat="45.48794" lon="5.78191">
        <ele>794.627225</ele>
        <time>2023-12-12T10:22:17.000Z</time>
      </trkpt>
      <trkpt lat="45.48785" lon="5.78176">
        <ele>793.29073</ele>
        <time>2023-12-12T10:22:22.000Z</time>
      </trkpt>
      <trkpt lat="45.48776" lon="5.78163">
        <ele>792.050613</ele>
        <time>2023-12-12T10:22:27.000Z</time>
      </trkpt>
      <trkpt lat="45.48774" lon="5.78162">
        <ele>791.883057</ele>
        <time>2023-12-12T10:22:28.000Z</time>
      </trkpt>
      <trkpt lat="45.4877" lon="5.78161">
        <ele>791.443999</ele>
        <time>2023-12-12T10:22:30.000Z</time>
      </trkpt>
      <trkpt lat="45.48765" lon="5.7816">
        <ele>790.944089</ele>
        <time>2023-12-12T10:22:32.000Z</time>
      </trkpt>
      <trkpt lat="45.48756" lon="5.78161">
        <ele>790.085946</ele>
        <time>2023-12-12T10:22:34.000Z</time>
      </trkpt>
      <trkpt lat="45.48752" lon="5.78162">
        <ele>789.764874</ele>
        <time>2023-12-12T10:22:35.000Z</time>
      </trkpt>
      <trkpt lat="45.48747" lon="5.78161">
        <ele>789.194972</ele>
        <time>2023-12-12T10:22:37.000Z</time>
      </trkpt>
      <trkpt lat="45.48738" lon="5.78159">
        <ele>788.335595</ele>
        <time>2023-12-12T10:22:40.000Z</time>
      </trkpt>
      <trkpt lat="45.48732" lon="5.78156">
        <ele>787.737015</ele>
        <time>2023-12-12T10:22:42.000Z</time>
      </trkpt>
      <trkpt lat="45.48727" lon="5.78155">
        <ele>787.260136</ele>
        <time>2023-12-12T10:22:44.000Z</time>
      </trkpt>
      <trkpt lat="45.48721" lon="5.78155">
        <ele>786.684622</ele>
        <time>2023-12-12T10:22:46.000Z</time>
      </trkpt>
      <trkpt lat="45.48717" lon="5.78155">
        <ele>786.319882</ele>
        <time>2023-12-12T10:22:47.000Z</time>
      </trkpt>
      <trkpt lat="45.48713" lon="5.78154">
        <ele>785.944833</ele>
        <time>2023-12-12T10:22:48.000Z</time>
      </trkpt>
      <trkpt lat="45.4871" lon="5.78153">
        <ele>785.59429</ele>
        <time>2023-12-12T10:22:49.000Z</time>
      </trkpt>
      <trkpt lat="45.48707" lon="5.7815">
        <ele>785.293529</ele>
        <time>2023-12-12T10:22:50.000Z</time>
      </trkpt>
      <trkpt lat="45.48706" lon="5.78147">
        <ele>785.029056</ele>
        <time>2023-12-12T10:22:51.000Z</time>
      </trkpt>
      <trkpt lat="45.48704" lon="5.7814">
        <ele>784.546018</ele>
        <time>2023-12-12T10:22:53.000Z</time>
      </trkpt>
      <trkpt lat="45.48704" lon="5.78135">
        <ele>784.168952</ele>
        <time>2023-12-12T10:22:55.000Z</time>
      </trkpt>
      <trkpt lat="45.48704" lon="5.78133">
        <ele>784.068083</ele>
        <time>2023-12-12T10:22:58.000Z</time>
      </trkpt>
      <trkpt lat="45.48704" lon="5.78133">
        <ele>784.068083</ele>
        <time>2023-12-12T10:22:59.000Z</time>
      </trkpt>
      <trkpt lat="45.4871" lon="5.7812">
        <ele>783.048839</ele>
        <time>2023-12-12T10:23:10.000Z</time>
      </trkpt>
      <trkpt lat="45.48713" lon="5.78112">
        <ele>781.99511</ele>
        <time>2023-12-12T10:23:12.000Z</time>
      </trkpt>
      <trkpt lat="45.48715" lon="5.78103">
        <ele>780.871684</ele>
        <time>2023-12-12T10:23:14.000Z</time>
      </trkpt>
      <trkpt lat="45.48714" lon="5.78089">
        <ele>779.141065</ele>
        <time>2023-12-12T10:23:17.000Z</time>
      </trkpt>
      <trkpt lat="45.4871" lon="5.78076">
        <ele>777.335159</ele>
        <time>2023-12-12T10:23:19.000Z</time>
      </trkpt>
      <trkpt lat="45.48708" lon="5.7807">
        <ele>776.545512</ele>
        <time>2023-12-12T10:23:20.000Z</time>
      </trkpt>
      <trkpt lat="45.48705" lon="5.78065">
        <ele>775.767316</ele>
        <time>2023-12-12T10:23:21.000Z</time>
      </trkpt>
      <trkpt lat="45.48702" lon="5.78061">
        <ele>775.022677</ele>
        <time>2023-12-12T10:23:22.000Z</time>
      </trkpt>
      <trkpt lat="45.48699" lon="5.78056">
        <ele>774.22364</ele>
        <time>2023-12-12T10:23:23.000Z</time>
      </trkpt>
      <trkpt lat="45.48693" lon="5.78046">
        <ele>772.481783</ele>
        <time>2023-12-12T10:23:25.000Z</time>
      </trkpt>
      <trkpt lat="45.48691" lon="5.78041">
        <ele>771.844594</ele>
        <time>2023-12-12T10:23:26.000Z</time>
      </trkpt>
      <trkpt lat="45.48689" lon="5.78037">
        <ele>771.21645</ele>
        <time>2023-12-12T10:23:27.000Z</time>
      </trkpt>
      <trkpt lat="45.48686" lon="5.78027">
        <ele>769.904846</ele>
        <time>2023-12-12T10:23:29.000Z</time>
      </trkpt>
      <trkpt lat="45.48685" lon="5.78018">
        <ele>768.822922</ele>
        <time>2023-12-12T10:23:31.000Z</time>
      </trkpt>
      <trkpt lat="45.48685" lon="5.78013">
        <ele>768.19744</ele>
        <time>2023-12-12T10:23:32.000Z</time>
      </trkpt>
      <trkpt lat="45.48684" lon="5.78003">
        <ele>766.937141</ele>
        <time>2023-12-12T10:23:34.000Z</time>
      </trkpt>
      <trkpt lat="45.48683" lon="5.77998">
        <ele>766.319623</ele>
        <time>2023-12-12T10:23:35.000Z</time>
      </trkpt>
      <trkpt lat="45.48683" lon="5.77993">
        <ele>765.686854</ele>
        <time>2023-12-12T10:23:36.000Z</time>
      </trkpt>
      <trkpt lat="45.48683" lon="5.77981">
        <ele>764.25643</ele>
        <time>2023-12-12T10:23:39.000Z</time>
      </trkpt>
      <trkpt lat="45.48683" lon="5.77977">
        <ele>763.723608</ele>
        <time>2023-12-12T10:23:40.000Z</time>
      </trkpt>
      <trkpt lat="45.48683" lon="5.77972">
        <ele>763.144083</ele>
        <time>2023-12-12T10:23:41.000Z</time>
      </trkpt>
      <trkpt lat="45.48684" lon="5.77962">
        <ele>761.806731</ele>
        <time>2023-12-12T10:23:43.000Z</time>
      </trkpt>
      <trkpt lat="45.48685" lon="5.77949">
        <ele>760.199772</ele>
        <time>2023-12-12T10:23:45.000Z</time>
      </trkpt>
      <trkpt lat="45.48686" lon="5.77942">
        <ele>759.407</ele>
        <time>2023-12-12T10:23:46.000Z</time>
      </trkpt>
      <trkpt lat="45.48686" lon="5.77936">
        <ele>758.629991</ele>
        <time>2023-12-12T10:23:47.000Z</time>
      </trkpt>
      <trkpt lat="45.48685" lon="5.77929">
        <ele>757.758134</ele>
        <time>2023-12-12T10:23:48.000Z</time>
      </trkpt>
      <trkpt lat="45.48682" lon="5.77917">
        <ele>756.180208</ele>
        <time>2023-12-12T10:23:50.000Z</time>
      </trkpt>
      <trkpt lat="45.48677" lon="5.77911">
        <ele>754.973636</ele>
        <time>2023-12-12T10:23:52.000Z</time>
      </trkpt>
      <trkpt lat="45.4867" lon="5.77906">
        <ele>753.570024</ele>
        <time>2023-12-12T10:23:54.000Z</time>
      </trkpt>
      <trkpt lat="45.48666" lon="5.77904">
        <ele>752.805446</ele>
        <time>2023-12-12T10:23:55.000Z</time>
      </trkpt>
      <trkpt lat="45.48654" lon="5.77903">
        <ele>750.904227</ele>
        <time>2023-12-12T10:23:57.000Z</time>
      </trkpt>
      <trkpt lat="45.48646" lon="5.77903">
        <ele>749.596879</ele>
        <time>2023-12-12T10:23:59.000Z</time>
      </trkpt>
      <trkpt lat="45.48639" lon="5.77901">
        <ele>748.570092</ele>
        <time>2023-12-12T10:24:01.000Z</time>
      </trkpt>
      <trkpt lat="45.4863" lon="5.77896">
        <ele>747.152667</ele>
        <time>2023-12-12T10:24:04.000Z</time>
      </trkpt>
      <trkpt lat="45.48621" lon="5.77891">
        <ele>745.749018</ele>
        <time>2023-12-12T10:24:07.000Z</time>
      </trkpt>
      <trkpt lat="45.48615" lon="5.77886">
        <ele>744.718539</ele>
        <time>2023-12-12T10:24:09.000Z</time>
      </trkpt>
      <trkpt lat="45.48607" lon="5.77879">
        <ele>743.313032</ele>
        <time>2023-12-12T10:24:12.000Z</time>
      </trkpt>
      <trkpt lat="45.48586" lon="5.77863">
        <ele>739.830741</ele>
        <time>2023-12-12T10:24:19.000Z</time>
      </trkpt>
      <trkpt lat="45.48576" lon="5.77855">
        <ele>738.087864</ele>
        <time>2023-12-12T10:24:24.000Z</time>
      </trkpt>
      <trkpt lat="45.48572" lon="5.77852">
        <ele>737.431147</ele>
        <time>2023-12-12T10:24:26.000Z</time>
      </trkpt>
      <trkpt lat="45.48569" lon="5.77849">
        <ele>736.888233</ele>
        <time>2023-12-12T10:24:28.000Z</time>
      </trkpt>
      <trkpt lat="45.48566" lon="5.77848">
        <ele>736.382229</ele>
        <time>2023-12-12T10:24:30.000Z</time>
      </trkpt>
      <trkpt lat="45.48564" lon="5.77847">
        <ele>736.145382</ele>
        <time>2023-12-12T10:24:31.000Z</time>
      </trkpt>
      <trkpt lat="45.48561" lon="5.77844">
        <ele>735.640689</ele>
        <time>2023-12-12T10:24:33.000Z</time>
      </trkpt>
      <trkpt lat="45.48557" lon="5.7784">
        <ele>734.874598</ele>
        <time>2023-12-12T10:24:36.000Z</time>
      </trkpt>
      <trkpt lat="45.48554" lon="5.77837">
        <ele>734.301406</ele>
        <time>2023-12-12T10:24:38.000Z</time>
      </trkpt>
      <trkpt lat="45.48552" lon="5.77836">
        <ele>734.006983</ele>
        <time>2023-12-12T10:24:39.000Z</time>
      </trkpt>
      <trkpt lat="45.48551" lon="5.77835">
        <ele>733.744787</ele>
        <time>2023-12-12T10:24:40.000Z</time>
      </trkpt>
      <trkpt lat="45.48547" lon="5.77834">
        <ele>733.271422</ele>
        <time>2023-12-12T10:24:42.000Z</time>
      </trkpt>
      <trkpt lat="45.48545" lon="5.77833">
        <ele>732.957377</ele>
        <time>2023-12-12T10:24:45.000Z</time>
      </trkpt>
      <trkpt lat="45.48546" lon="5.77833">
        <ele>732.942559</ele>
        <time>2023-12-12T10:24:46.000Z</time>
      </trkpt>
      <trkpt lat="45.4854" lon="5.77829">
        <ele>732.009807</ele>
        <time>2023-12-12T10:24:52.000Z</time>
      </trkpt>
      <trkpt lat="45.48539" lon="5.77828">
        <ele>731.777793</ele>
        <time>2023-12-12T10:24:53.000Z</time>
      </trkpt>
      <trkpt lat="45.48534" lon="5.77823">
        <ele>731.017489</ele>
        <time>2023-12-12T10:24:56.000Z</time>
      </trkpt>
      <trkpt lat="45.48531" lon="5.77821">
        <ele>730.512796</ele>
        <time>2023-12-12T10:24:58.000Z</time>
      </trkpt>
      <trkpt lat="45.48525" lon="5.77818">
        <ele>729.52382</ele>
        <time>2023-12-12T10:25:01.000Z</time>
      </trkpt>
      <trkpt lat="45.48522" lon="5.77817">
        <ele>729.115561</ele>
        <time>2023-12-12T10:25:02.000Z</time>
      </trkpt>
      <trkpt lat="45.4852" lon="5.77817">
        <ele>728.68383</ele>
        <time>2023-12-12T10:25:03.000Z</time>
      </trkpt>
      <trkpt lat="45.48513" lon="5.77816">
        <ele>727.775098</ele>
        <time>2023-12-12T10:25:05.000Z</time>
      </trkpt>
      <trkpt lat="45.48505" lon="5.77813">
        <ele>726.532369</ele>
        <time>2023-12-12T10:25:07.000Z</time>
      </trkpt>
      <trkpt lat="45.48501" lon="5.7781">
        <ele>725.814126</ele>
        <time>2023-12-12T10:25:08.000Z</time>
      </trkpt>
      <trkpt lat="45.48497" lon="5.77805">
        <ele>725.064219</ele>
        <time>2023-12-12T10:25:09.000Z</time>
      </trkpt>
      <trkpt lat="45.48489" lon="5.77798">
        <ele>723.599161</ele>
        <time>2023-12-12T10:25:11.000Z</time>
      </trkpt>
      <trkpt lat="45.48476" lon="5.77791">
        <ele>721.546787</ele>
        <time>2023-12-12T10:25:14.000Z</time>
      </trkpt>
      <trkpt lat="45.48468" lon="5.77785">
        <ele>720.232591</ele>
        <time>2023-12-12T10:25:16.000Z</time>
      </trkpt>
      <trkpt lat="45.48464" lon="5.77782">
        <ele>719.585714</ele>
        <time>2023-12-12T10:25:17.000Z</time>
      </trkpt>
      <trkpt lat="45.4846" lon="5.77779">
        <ele>718.918257</ele>
        <time>2023-12-12T10:25:18.000Z</time>
      </trkpt>
      <trkpt lat="45.48452" lon="5.77773">
        <ele>717.599428</ele>
        <time>2023-12-12T10:25:20.000Z</time>
      </trkpt>
      <trkpt lat="45.48449" lon="5.77771">
        <ele>717.045205</ele>
        <time>2023-12-12T10:25:21.000Z</time>
      </trkpt>
      <trkpt lat="45.48443" lon="5.77764">
        <ele>715.894471</ele>
        <time>2023-12-12T10:25:23.000Z</time>
      </trkpt>
      <trkpt lat="45.48439" lon="5.77761">
        <ele>715.185472</ele>
        <time>2023-12-12T10:25:24.000Z</time>
      </trkpt>
      <trkpt lat="45.48435" lon="5.77757">
        <ele>714.412231</ele>
        <time>2023-12-12T10:25:25.000Z</time>
      </trkpt>
      <trkpt lat="45.48431" lon="5.77753">
        <ele>713.736693</ele>
        <time>2023-12-12T10:25:26.000Z</time>
      </trkpt>
      <trkpt lat="45.48424" lon="5.77745">
        <ele>712.410025</ele>
        <time>2023-12-12T10:25:28.000Z</time>
      </trkpt>
      <trkpt lat="45.48417" lon="5.77735">
        <ele>710.864289</ele>
        <time>2023-12-12T10:25:30.000Z</time>
      </trkpt>
      <trkpt lat="45.48414" lon="5.7773">
        <ele>710.193574</ele>
        <time>2023-12-12T10:25:31.000Z</time>
      </trkpt>
      <trkpt lat="45.48413" lon="5.77725">
        <ele>709.683447</ele>
        <time>2023-12-12T10:25:32.000Z</time>
      </trkpt>
      <trkpt lat="45.48413" lon="5.77717">
        <ele>708.821906</ele>
        <time>2023-12-12T10:25:34.000Z</time>
      </trkpt>
      <trkpt lat="45.48413" lon="5.77711">
        <ele>708.222793</ele>
        <time>2023-12-12T10:25:35.000Z</time>
      </trkpt>
      <trkpt lat="45.48412" lon="5.77688">
        <ele>705.79713</ele>
        <time>2023-12-12T10:25:39.000Z</time>
      </trkpt>
      <trkpt lat="45.48412" lon="5.7768">
        <ele>704.916197</ele>
        <time>2023-12-12T10:25:40.000Z</time>
      </trkpt>
      <trkpt lat="45.48412" lon="5.77675">
        <ele>704.350919</ele>
        <time>2023-12-12T10:25:41.000Z</time>
      </trkpt>
      <trkpt lat="45.48413" lon="5.77668">
        <ele>703.686382</ele>
        <time>2023-12-12T10:25:42.000Z</time>
      </trkpt>
      <trkpt lat="45.48418" lon="5.77659">
        <ele>702.484883</ele>
        <time>2023-12-12T10:25:44.000Z</time>
      </trkpt>
      <trkpt lat="45.48419" lon="5.77652">
        <ele>701.747914</ele>
        <time>2023-12-12T10:25:45.000Z</time>
      </trkpt>
      <trkpt lat="45.48421" lon="5.77634">
        <ele>699.854635</ele>
        <time>2023-12-12T10:25:48.000Z</time>
      </trkpt>
      <trkpt lat="45.4842" lon="5.77617">
        <ele>698.056118</ele>
        <time>2023-12-12T10:25:50.000Z</time>
      </trkpt>
      <trkpt lat="45.4842" lon="5.7761">
        <ele>697.353823</ele>
        <time>2023-12-12T10:25:51.000Z</time>
      </trkpt>
      <trkpt lat="45.48424" lon="5.77595">
        <ele>695.891048</ele>
        <time>2023-12-12T10:25:53.000Z</time>
      </trkpt>
      <trkpt lat="45.48428" lon="5.77581">
        <ele>694.484682</ele>
        <time>2023-12-12T10:25:55.000Z</time>
      </trkpt>
      <trkpt lat="45.48432" lon="5.7756">
        <ele>692.499817</ele>
        <time>2023-12-12T10:25:58.000Z</time>
      </trkpt>
      <trkpt lat="45.48432" lon="5.77555">
        <ele>692.048299</ele>
        <time>2023-12-12T10:25:59.000Z</time>
      </trkpt>
      <trkpt lat="45.48431" lon="5.77549">
        <ele>691.474336</ele>
        <time>2023-12-12T10:26:00.000Z</time>
      </trkpt>
      <trkpt lat="45.48429" lon="5.77544">
        <ele>690.915977</ele>
        <time>2023-12-12T10:26:01.000Z</time>
      </trkpt>
      <trkpt lat="45.48426" lon="5.77538">
        <ele>690.282914</ele>
        <time>2023-12-12T10:26:02.000Z</time>
      </trkpt>
      <trkpt lat="45.48421" lon="5.77534">
        <ele>689.491813</ele>
        <time>2023-12-12T10:26:03.000Z</time>
      </trkpt>
      <trkpt lat="45.48416" lon="5.77531">
        <ele>688.762529</ele>
        <time>2023-12-12T10:26:04.000Z</time>
      </trkpt>
      <trkpt lat="45.48404" lon="5.77529">
        <ele>687.27784</ele>
        <time>2023-12-12T10:26:06.000Z</time>
      </trkpt>
      <trkpt lat="45.48396" lon="5.77527">
        <ele>686.197637</ele>
        <time>2023-12-12T10:26:07.000Z</time>
      </trkpt>
      <trkpt lat="45.48389" lon="5.77524">
        <ele>685.225346</ele>
        <time>2023-12-12T10:26:08.000Z</time>
      </trkpt>
      <trkpt lat="45.48383" lon="5.77523">
        <ele>684.358272</ele>
        <time>2023-12-12T10:26:09.000Z</time>
      </trkpt>
      <trkpt lat="45.48363" lon="5.77512">
        <ele>681.615654</ele>
        <time>2023-12-12T10:26:12.000Z</time>
      </trkpt>
      <trkpt lat="45.48358" lon="5.77505">
        <ele>680.666625</ele>
        <time>2023-12-12T10:26:13.000Z</time>
      </trkpt>
      <trkpt lat="45.48353" lon="5.77496">
        <ele>679.661406</ele>
        <time>2023-12-12T10:26:14.000Z</time>
      </trkpt>
      <trkpt lat="45.48347" lon="5.77479">
        <ele>677.905644</ele>
        <time>2023-12-12T10:26:16.000Z</time>
      </trkpt>
      <trkpt lat="45.48344" lon="5.77465">
        <ele>676.58406</ele>
        <time>2023-12-12T10:26:17.000Z</time>
      </trkpt>
      <trkpt lat="45.48341" lon="5.77428">
        <ele>672.877277</ele>
        <time>2023-12-12T10:26:21.000Z</time>
      </trkpt>
      <trkpt lat="45.48342" lon="5.77419">
        <ele>671.829208</ele>
        <time>2023-12-12T10:26:22.000Z</time>
      </trkpt>
      <trkpt lat="45.48345" lon="5.77406">
        <ele>670.173963</ele>
        <time>2023-12-12T10:26:24.000Z</time>
      </trkpt>
      <trkpt lat="45.48346" lon="5.774">
        <ele>669.46831</ele>
        <time>2023-12-12T10:26:25.000Z</time>
      </trkpt>
      <trkpt lat="45.48347" lon="5.77395">
        <ele>668.935927</ele>
        <time>2023-12-12T10:26:26.000Z</time>
      </trkpt>
      <trkpt lat="45.4835" lon="5.77384">
        <ele>667.556057</ele>
        <time>2023-12-12T10:26:28.000Z</time>
      </trkpt>
      <trkpt lat="45.48353" lon="5.77378">
        <ele>666.754725</ele>
        <time>2023-12-12T10:26:29.000Z</time>
      </trkpt>
      <trkpt lat="45.48356" lon="5.77372">
        <ele>665.88703</ele>
        <time>2023-12-12T10:26:30.000Z</time>
      </trkpt>
      <trkpt lat="45.4836" lon="5.77366">
        <ele>665.003177</ele>
        <time>2023-12-12T10:26:31.000Z</time>
      </trkpt>
      <trkpt lat="45.48367" lon="5.77355">
        <ele>663.289565</ele>
        <time>2023-12-12T10:26:33.000Z</time>
      </trkpt>
      <trkpt lat="45.48374" lon="5.77342">
        <ele>661.408906</ele>
        <time>2023-12-12T10:26:35.000Z</time>
      </trkpt>
      <trkpt lat="45.48379" lon="5.77326">
        <ele>659.480451</ele>
        <time>2023-12-12T10:26:37.000Z</time>
      </trkpt>
      <trkpt lat="45.48379" lon="5.77317">
        <ele>658.441855</ele>
        <time>2023-12-12T10:26:38.000Z</time>
      </trkpt>
      <trkpt lat="45.4838" lon="5.77309">
        <ele>657.482644</ele>
        <time>2023-12-12T10:26:39.000Z</time>
      </trkpt>
      <trkpt lat="45.4838" lon="5.77301">
        <ele>656.549504</ele>
        <time>2023-12-12T10:26:40.000Z</time>
      </trkpt>
      <trkpt lat="45.48382" lon="5.77292">
        <ele>655.588385</ele>
        <time>2023-12-12T10:26:41.000Z</time>
      </trkpt>
      <trkpt lat="45.48383" lon="5.77284">
        <ele>654.609605</ele>
        <time>2023-12-12T10:26:42.000Z</time>
      </trkpt>
      <trkpt lat="45.48384" lon="5.77276">
        <ele>653.682454</ele>
        <time>2023-12-12T10:26:43.000Z</time>
      </trkpt>
      <trkpt lat="45.48387" lon="5.77269">
        <ele>652.792535</ele>
        <time>2023-12-12T10:26:44.000Z</time>
      </trkpt>
      <trkpt lat="45.48393" lon="5.77253">
        <ele>650.672022</ele>
        <time>2023-12-12T10:26:46.000Z</time>
      </trkpt>
      <trkpt lat="45.48396" lon="5.77248">
        <ele>649.954609</ele>
        <time>2023-12-12T10:26:47.000Z</time>
      </trkpt>
      <trkpt lat="45.48398" lon="5.77239">
        <ele>648.868051</ele>
        <time>2023-12-12T10:26:49.000Z</time>
      </trkpt>
      <trkpt lat="45.48397" lon="5.77232">
        <ele>648.074005</ele>
        <time>2023-12-12T10:26:51.000Z</time>
      </trkpt>
      <trkpt lat="45.48392" lon="5.77223">
        <ele>646.796389</ele>
        <time>2023-12-12T10:26:53.000Z</time>
      </trkpt>
      <trkpt lat="45.48384" lon="5.77217">
        <ele>645.275842</ele>
        <time>2023-12-12T10:26:55.000Z</time>
      </trkpt>
      <trkpt lat="45.48378" lon="5.77217">
        <ele>645.008593</ele>
        <time>2023-12-12T10:26:56.000Z</time>
      </trkpt>
      <trkpt lat="45.48373" lon="5.77219">
        <ele>645.074094</ele>
        <time>2023-12-12T10:26:57.000Z</time>
      </trkpt>
      <trkpt lat="45.48367" lon="5.77222">
        <ele>645.158381</ele>
        <time>2023-12-12T10:26:58.000Z</time>
      </trkpt>
      <trkpt lat="45.48361" lon="5.77226">
        <ele>645.247237</ele>
        <time>2023-12-12T10:26:59.000Z</time>
      </trkpt>
      <trkpt lat="45.48355" lon="5.77231">
        <ele>645.333651</ele>
        <time>2023-12-12T10:27:00.000Z</time>
      </trkpt>
      <trkpt lat="45.48348" lon="5.77237">
        <ele>645.443495</ele>
        <time>2023-12-12T10:27:01.000Z</time>
      </trkpt>
      <trkpt lat="45.48339" lon="5.77243">
        <ele>645.560336</ele>
        <time>2023-12-12T10:27:02.000Z</time>
      </trkpt>
      <trkpt lat="45.4833" lon="5.77248">
        <ele>645.691681</ele>
        <time>2023-12-12T10:27:03.000Z</time>
      </trkpt>
      <trkpt lat="45.4832" lon="5.77251">
        <ele>645.817779</ele>
        <time>2023-12-12T10:27:04.000Z</time>
      </trkpt>
      <trkpt lat="45.48313" lon="5.77252">
        <ele>645.912029</ele>
        <time>2023-12-12T10:27:05.000Z</time>
      </trkpt>
      <trkpt lat="45.48308" lon="5.77251">
        <ele>645.983177</ele>
        <time>2023-12-12T10:27:06.000Z</time>
      </trkpt>
      <trkpt lat="45.48302" lon="5.77248">
        <ele>646.062932</ele>
        <time>2023-12-12T10:27:08.000Z</time>
      </trkpt>
      <trkpt lat="45.483" lon="5.77247">
        <ele>646.084193</ele>
        <time>2023-12-12T10:27:09.000Z</time>
      </trkpt>
      <trkpt lat="45.48298" lon="5.77246">
        <ele>646.110546</ele>
        <time>2023-12-12T10:27:13.000Z</time>
      </trkpt>
      <trkpt lat="45.48293" lon="5.77247">
        <ele>646.173623</ele>
        <time>2023-12-12T10:27:19.000Z</time>
      </trkpt>
      <trkpt lat="45.48285" lon="5.77258">
        <ele>646.323887</ele>
        <time>2023-12-12T10:27:24.000Z</time>
      </trkpt>
      <trkpt lat="45.48283" lon="5.77261">
        <ele>646.354627</ele>
        <time>2023-12-12T10:27:26.000Z</time>
      </trkpt>
      <trkpt lat="45.48281" lon="5.77267">
        <ele>646.41975</ele>
        <time>2023-12-12T10:27:29.000Z</time>
      </trkpt>
      <trkpt lat="45.48279" lon="5.77274">
        <ele>646.483421</ele>
        <time>2023-12-12T10:27:32.000Z</time>
      </trkpt>
      <trkpt lat="45.48279" lon="5.77279">
        <ele>646.533394</ele>
        <time>2023-12-12T10:27:35.000Z</time>
      </trkpt>
      <trkpt lat="45.48279" lon="5.77287">
        <ele>646.602824</ele>
        <time>2023-12-12T10:27:38.000Z</time>
      </trkpt>
      <trkpt lat="45.48279" lon="5.77289">
        <ele>646.624487</ele>
        <time>2023-12-12T10:27:39.000Z</time>
      </trkpt>
      <trkpt lat="45.48279" lon="5.77297">
        <ele>646.697575</ele>
        <time>2023-12-12T10:27:42.000Z</time>
      </trkpt>
      <trkpt lat="45.48279" lon="5.77306">
        <ele>646.773439</ele>
        <time>2023-12-12T10:27:45.000Z</time>
      </trkpt>
      <trkpt lat="45.48279" lon="5.77309">
        <ele>646.803285</ele>
        <time>2023-12-12T10:27:47.000Z</time>
      </trkpt>
      <trkpt lat="45.4828" lon="5.7731">
        <ele>646.813781</ele>
        <time>2023-12-12T10:27:48.000Z</time>
      </trkpt>
      <trkpt lat="45.4828" lon="5.7731">
        <ele>646.81692</ele>
        <time>2023-12-12T10:27:49.000Z</time>
      </trkpt>
      <trkpt lat="45.48279" lon="5.77311">
        <ele>646.824242</ele>
        <time>2023-12-12T10:27:51.000Z</time>
      </trkpt>
      <trkpt lat="45.48278" lon="5.7731">
        <ele>646.840309</ele>
        <time>2023-12-12T10:27:59.000Z</time>
      </trkpt>
      <trkpt lat="45.48278" lon="5.7731">
        <ele>646.840309</ele>
        <time>2023-12-12T10:28:01.000Z</time>
      </trkpt>
      <trkpt lat="45.48278" lon="5.7731">
        <ele>646.840309</ele>
        <time>2023-12-12T10:28:07.000Z</time>
      </trkpt>
      <trkpt lat="45.48278" lon="5.7731">
        <ele>646.840309</ele>
        <time>2023-12-12T10:28:13.000Z</time>
      </trkpt>
      <trkpt lat="45.48278" lon="5.7731">
        <ele>646.841594</ele>
        <time>2023-12-12T10:28:17.000Z</time>
      </trkpt>
      <trkpt lat="45.48274" lon="5.77316">
        <ele>646.917381</ele>
        <time>2023-12-12T10:28:24.000Z</time>
      </trkpt>
      <trkpt lat="45.48268" lon="5.77322">
        <ele>647.010743</ele>
        <time>2023-12-12T10:28:27.000Z</time>
      </trkpt>
      <trkpt lat="45.48266" lon="5.77324">
        <ele>647.038995</ele>
        <time>2023-12-12T10:28:28.000Z</time>
      </trkpt>
      <trkpt lat="45.48265" lon="5.77325">
        <ele>647.063372</ele>
        <time>2023-12-12T10:28:29.000Z</time>
      </trkpt>
      <trkpt lat="45.48263" lon="5.77326">
        <ele>647.087006</ele>
        <time>2023-12-12T10:28:30.000Z</time>
      </trkpt>
      <trkpt lat="45.48261" lon="5.77327">
        <ele>647.109512</ele>
        <time>2023-12-12T10:28:31.000Z</time>
      </trkpt>
      <trkpt lat="45.4826" lon="5.77327">
        <ele>647.123764</ele>
        <time>2023-12-12T10:28:32.000Z</time>
      </trkpt>
      <trkpt lat="45.48259" lon="5.77327">
        <ele>647.141958</ele>
        <time>2023-12-12T10:28:33.000Z</time>
      </trkpt>
      <trkpt lat="45.48257" lon="5.77329">
        <ele>647.167649</ele>
        <time>2023-12-12T10:28:34.000Z</time>
      </trkpt>
      <trkpt lat="45.48256" lon="5.7733">
        <ele>647.189325</ele>
        <time>2023-12-12T10:28:35.000Z</time>
      </trkpt>
      <trkpt lat="45.48253" lon="5.77332">
        <ele>647.230212</ele>
        <time>2023-12-12T10:28:37.000Z</time>
      </trkpt>
      <trkpt lat="45.4825" lon="5.77336">
        <ele>647.361387</ele>
        <time>2023-12-12T10:28:39.000Z</time>
      </trkpt>
      <trkpt lat="45.48246" lon="5.77337">
        <ele>647.963008</ele>
        <time>2023-12-12T10:28:42.000Z</time>
      </trkpt>
      <trkpt lat="45.48244" lon="5.77337">
        <ele>648.150375</ele>
        <time>2023-12-12T10:28:43.000Z</time>
      </trkpt>
      <trkpt lat="45.48243" lon="5.77337">
        <ele>648.291262</ele>
        <time>2023-12-12T10:28:45.000Z</time>
      </trkpt>
      <trkpt lat="45.48243" lon="5.77338">
        <ele>648.400472</ele>
        <time>2023-12-12T10:28:48.000Z</time>
      </trkpt>
      <trkpt lat="45.48241" lon="5.77338">
        <ele>648.606427</ele>
        <time>2023-12-12T10:28:53.000Z</time>
      </trkpt>
      <trkpt lat="45.4824" lon="5.77339">
        <ele>648.888489</ele>
        <time>2023-12-12T10:28:59.000Z</time>
      </trkpt>
      <trkpt lat="45.48235" lon="5.7734">
        <ele>649.478164</ele>
        <time>2023-12-12T10:29:08.000Z</time>
      </trkpt>
      <trkpt lat="45.48232" lon="5.7734">
        <ele>649.999447</ele>
        <time>2023-12-12T10:29:10.000Z</time>
      </trkpt>
      <trkpt lat="45.48226" lon="5.7734">
        <ele>650.85886</ele>
        <time>2023-12-12T10:29:14.000Z</time>
      </trkpt>
      <trkpt lat="45.48223" lon="5.77341">
        <ele>651.306642</ele>
        <time>2023-12-12T10:29:16.000Z</time>
      </trkpt>
      <trkpt lat="45.48221" lon="5.77343">
        <ele>651.519602</ele>
        <time>2023-12-12T10:29:17.000Z</time>
      </trkpt>
      <trkpt lat="45.48216" lon="5.77342">
        <ele>652.239212</ele>
        <time>2023-12-12T10:29:20.000Z</time>
      </trkpt>
      <trkpt lat="45.48212" lon="5.77345">
        <ele>652.845734</ele>
        <time>2023-12-12T10:29:22.000Z</time>
      </trkpt>
      <trkpt lat="45.48208" lon="5.77349">
        <ele>653.574608</ele>
        <time>2023-12-12T10:29:25.000Z</time>
      </trkpt>
      <trkpt lat="45.48206" lon="5.77356">
        <ele>654.276236</ele>
        <time>2023-12-12T10:29:28.000Z</time>
      </trkpt>
      <trkpt lat="45.48206" lon="5.77358">
        <ele>654.473798</ele>
        <time>2023-12-12T10:29:29.000Z</time>
      </trkpt>
      <trkpt lat="45.48206" lon="5.77363">
        <ele>655.027149</ele>
        <time>2023-12-12T10:29:31.000Z</time>
      </trkpt>
      <trkpt lat="45.48205" lon="5.77369">
        <ele>655.579321</ele>
        <time>2023-12-12T10:29:33.000Z</time>
      </trkpt>
      <trkpt lat="45.48204" lon="5.77374">
        <ele>656.17666</ele>
        <time>2023-12-12T10:29:35.000Z</time>
      </trkpt>
      <trkpt lat="45.48202" lon="5.7738">
        <ele>656.773258</ele>
        <time>2023-12-12T10:29:37.000Z</time>
      </trkpt>
      <trkpt lat="45.48199" lon="5.77385">
        <ele>657.470338</ele>
        <time>2023-12-12T10:29:41.000Z</time>
      </trkpt>
      <trkpt lat="45.48196" lon="5.77379">
        <ele>658.279914</ele>
        <time>2023-12-12T10:29:45.000Z</time>
      </trkpt>
      <trkpt lat="45.48192" lon="5.77374">
        <ele>658.98786</ele>
        <time>2023-12-12T10:29:48.000Z</time>
      </trkpt>
      <trkpt lat="45.48188" lon="5.7737">
        <ele>659.676127</ele>
        <time>2023-12-12T10:29:51.000Z</time>
      </trkpt>
      <trkpt lat="45.48186" lon="5.77367">
        <ele>660.061037</ele>
        <time>2023-12-12T10:29:53.000Z</time>
      </trkpt>
      <trkpt lat="45.48185" lon="5.77366">
        <ele>660.296622</ele>
        <time>2023-12-12T10:29:54.000Z</time>
      </trkpt>
      <trkpt lat="45.48182" lon="5.77363">
        <ele>660.820444</ele>
        <time>2023-12-12T10:29:56.000Z</time>
      </trkpt>
      <trkpt lat="45.48179" lon="5.7736">
        <ele>661.263608</ele>
        <time>2023-12-12T10:29:58.000Z</time>
      </trkpt>
      <trkpt lat="45.48178" lon="5.77359">
        <ele>661.513849</ele>
        <time>2023-12-12T10:29:59.000Z</time>
      </trkpt>
      <trkpt lat="45.48175" lon="5.77357">
        <ele>661.857397</ele>
        <time>2023-12-12T10:30:02.000Z</time>
      </trkpt>
      <trkpt lat="45.48175" lon="5.77356">
        <ele>661.956178</ele>
        <time>2023-12-12T10:30:03.000Z</time>
      </trkpt>
      <trkpt lat="45.48175" lon="5.77354">
        <ele>662.193253</ele>
        <time>2023-12-12T10:30:09.000Z</time>
      </trkpt>
      <trkpt lat="45.48175" lon="5.77353">
        <ele>662.380878</ele>
        <time>2023-12-12T10:30:15.000Z</time>
      </trkpt>
      <trkpt lat="45.48175" lon="5.77353">
        <ele>662.400634</ele>
        <time>2023-12-12T10:30:24.000Z</time>
      </trkpt>
      <trkpt lat="45.48173" lon="5.77351">
        <ele>662.675941</ele>
        <time>2023-12-12T10:30:29.000Z</time>
      </trkpt>
      <trkpt lat="45.48172" lon="5.77351">
        <ele>662.786239</ele>
        <time>2023-12-12T10:30:34.000Z</time>
      </trkpt>
      <trkpt lat="45.4817" lon="5.7735">
        <ele>663.13128</ele>
        <time>2023-12-12T10:30:39.000Z</time>
      </trkpt>
      <trkpt lat="45.48166" lon="5.77347">
        <ele>663.746429</ele>
        <time>2023-12-12T10:30:41.000Z</time>
      </trkpt>
      <trkpt lat="45.48164" lon="5.77345">
        <ele>664.10274</ele>
        <time>2023-12-12T10:30:42.000Z</time>
      </trkpt>
      <trkpt lat="45.48162" lon="5.77344">
        <ele>664.433632</ele>
        <time>2023-12-12T10:30:43.000Z</time>
      </trkpt>
      <trkpt lat="45.48158" lon="5.77341">
        <ele>665.065812</ele>
        <time>2023-12-12T10:30:45.000Z</time>
      </trkpt>
      <trkpt lat="45.48149" lon="5.77339">
        <ele>666.314443</ele>
        <time>2023-12-12T10:30:49.000Z</time>
      </trkpt>
      <trkpt lat="45.48148" lon="5.77339">
        <ele>666.483796</ele>
        <time>2023-12-12T10:30:50.000Z</time>
      </trkpt>
      <trkpt lat="45.48146" lon="5.77338">
        <ele>666.742875</ele>
        <time>2023-12-12T10:30:51.000Z</time>
      </trkpt>
      <trkpt lat="45.48144" lon="5.77338">
        <ele>667.054241</ele>
        <time>2023-12-12T10:30:53.000Z</time>
      </trkpt>
      <trkpt lat="45.48143" lon="5.77338">
        <ele>667.152862</ele>
        <time>2023-12-12T10:30:54.000Z</time>
      </trkpt>
      <trkpt lat="45.48142" lon="5.77338">
        <ele>667.324505</ele>
        <time>2023-12-12T10:30:56.000Z</time>
      </trkpt>
      <trkpt lat="45.48141" lon="5.77337">
        <ele>667.500636</ele>
        <time>2023-12-12T10:30:57.000Z</time>
      </trkpt>
      <trkpt lat="45.48138" lon="5.77337">
        <ele>667.855064</ele>
        <time>2023-12-12T10:31:03.000Z</time>
      </trkpt>
      <trkpt lat="45.48135" lon="5.77334">
        <ele>668.396044</ele>
        <time>2023-12-12T10:31:10.000Z</time>
      </trkpt>
      <trkpt lat="45.48131" lon="5.77328">
        <ele>669.216616</ele>
        <time>2023-12-12T10:31:14.000Z</time>
      </trkpt>
      <trkpt lat="45.4813" lon="5.77327">
        <ele>669.382539</ele>
        <time>2023-12-12T10:31:18.000Z</time>
      </trkpt>
      <trkpt lat="45.48126" lon="5.7732">
        <ele>670.232249</ele>
        <time>2023-12-12T10:31:25.000Z</time>
      </trkpt>
      <trkpt lat="45.48121" lon="5.7731">
        <ele>671.526545</ele>
        <time>2023-12-12T10:31:29.000Z</time>
      </trkpt>
      <trkpt lat="45.4812" lon="5.77308">
        <ele>671.771899</ele>
        <time>2023-12-12T10:31:30.000Z</time>
      </trkpt>
      <trkpt lat="45.48119" lon="5.77306">
        <ele>672.022661</ele>
        <time>2023-12-12T10:31:34.000Z</time>
      </trkpt>
      <trkpt lat="45.48119" lon="5.77304">
        <ele>672.222225</ele>
        <time>2023-12-12T10:31:37.000Z</time>
      </trkpt>
      <trkpt lat="45.48118" lon="5.77304">
        <ele>672.279439</ele>
        <time>2023-12-12T10:31:42.000Z</time>
      </trkpt>
      <trkpt lat="45.48118" lon="5.77303">
        <ele>672.337298</ele>
        <time>2023-12-12T10:31:50.000Z</time>
      </trkpt>
      <trkpt lat="45.48118" lon="5.77303">
        <ele>672.337298</ele>
        <time>2023-12-12T10:31:59.000Z</time>
      </trkpt>
      <trkpt lat="45.48118" lon="5.77303">
        <ele>672.357055</ele>
        <time>2023-12-12T10:32:04.000Z</time>
      </trkpt>
      <trkpt lat="45.48115" lon="5.77298">
        <ele>672.292204</ele>
        <time>2023-12-12T10:32:11.000Z</time>
      </trkpt>
      <trkpt lat="45.48113" lon="5.77295">
        <ele>671.981075</ele>
        <time>2023-12-12T10:32:12.000Z</time>
      </trkpt>
      <trkpt lat="45.48112" lon="5.77291">
        <ele>671.655255</ele>
        <time>2023-12-12T10:32:13.000Z</time>
      </trkpt>
      <trkpt lat="45.48109" lon="5.77286">
        <ele>671.122175</ele>
        <time>2023-12-12T10:32:15.000Z</time>
      </trkpt>
      <trkpt lat="45.48107" lon="5.77282">
        <ele>670.741101</ele>
        <time>2023-12-12T10:32:17.000Z</time>
      </trkpt>
      <trkpt lat="45.48107" lon="5.7728">
        <ele>670.612391</ele>
        <time>2023-12-12T10:32:18.000Z</time>
      </trkpt>
      <trkpt lat="45.48105" lon="5.77276">
        <ele>670.205313</ele>
        <time>2023-12-12T10:32:22.000Z</time>
      </trkpt>
      <trkpt lat="45.48105" lon="5.77275">
        <ele>670.186277</ele>
        <time>2023-12-12T10:32:23.000Z</time>
      </trkpt>
      <trkpt lat="45.48104" lon="5.77275">
        <ele>670.140886</ele>
        <time>2023-12-12T10:32:27.000Z</time>
      </trkpt>
      <trkpt lat="45.48104" lon="5.77274">
        <ele>670.006843</ele>
        <time>2023-12-12T10:32:34.000Z</time>
      </trkpt>
      <trkpt lat="45.48104" lon="5.77274">
        <ele>670.006843</ele>
        <time>2023-12-12T10:32:37.000Z</time>
      </trkpt>
      <trkpt lat="45.48104" lon="5.77274">
        <ele>669.973685</ele>
        <time>2023-12-12T10:32:45.000Z</time>
      </trkpt>
      <trkpt lat="45.48105" lon="5.77266">
        <ele>669.385783</ele>
        <time>2023-12-12T10:32:51.000Z</time>
      </trkpt>
      <trkpt lat="45.48104" lon="5.77262">
        <ele>669.081738</ele>
        <time>2023-12-12T10:32:52.000Z</time>
      </trkpt>
      <trkpt lat="45.48103" lon="5.77258">
        <ele>668.72486</ele>
        <time>2023-12-12T10:32:53.000Z</time>
      </trkpt>
      <trkpt lat="45.48101" lon="5.77255">
        <ele>668.413731</ele>
        <time>2023-12-12T10:32:54.000Z</time>
      </trkpt>
      <trkpt lat="45.48099" lon="5.77252">
        <ele>668.02107</ele>
        <time>2023-12-12T10:32:55.000Z</time>
      </trkpt>
      <trkpt lat="45.48096" lon="5.77249">
        <ele>667.674471</ele>
        <time>2023-12-12T10:32:56.000Z</time>
      </trkpt>
      <trkpt lat="45.48094" lon="5.77246">
        <ele>667.332494</ele>
        <time>2023-12-12T10:32:57.000Z</time>
      </trkpt>
      <trkpt lat="45.48091" lon="5.77244">
        <ele>667.004013</ele>
        <time>2023-12-12T10:32:58.000Z</time>
      </trkpt>
      <trkpt lat="45.48089" lon="5.77242">
        <ele>666.71142</ele>
        <time>2023-12-12T10:32:59.000Z</time>
      </trkpt>
      <trkpt lat="45.48087" lon="5.7724">
        <ele>666.468442</ele>
        <time>2023-12-12T10:33:00.000Z</time>
      </trkpt>
      <trkpt lat="45.48086" lon="5.77239">
        <ele>666.306457</ele>
        <time>2023-12-12T10:33:01.000Z</time>
      </trkpt>
      <trkpt lat="45.48084" lon="5.77237">
        <ele>666.060214</ele>
        <time>2023-12-12T10:33:02.000Z</time>
      </trkpt>
      <trkpt lat="45.48078" lon="5.77236">
        <ele>665.442711</ele>
        <time>2023-12-12T10:33:06.000Z</time>
      </trkpt>
      <trkpt lat="45.48075" lon="5.77234">
        <ele>665.088706</ele>
        <time>2023-12-12T10:33:07.000Z</time>
      </trkpt>
      <trkpt lat="45.48068" lon="5.7723">
        <ele>664.247778</ele>
        <time>2023-12-12T10:33:09.000Z</time>
      </trkpt>
      <trkpt lat="45.48063" lon="5.77227">
        <ele>663.586605</ele>
        <time>2023-12-12T10:33:11.000Z</time>
      </trkpt>
      <trkpt lat="45.48061" lon="5.77226">
        <ele>663.333151</ele>
        <time>2023-12-12T10:33:12.000Z</time>
      </trkpt>
      <trkpt lat="45.48057" lon="5.77222">
        <ele>662.822407</ele>
        <time>2023-12-12T10:33:14.000Z</time>
      </trkpt>
      <trkpt lat="45.48054" lon="5.77222">
        <ele>662.548127</ele>
        <time>2023-12-12T10:33:18.000Z</time>
      </trkpt>
      <trkpt lat="45.48054" lon="5.77221">
        <ele>662.507631</ele>
        <time>2023-12-12T10:33:21.000Z</time>
      </trkpt>
      <trkpt lat="45.48054" lon="5.77221">
        <ele>662.463021</ele>
        <time>2023-12-12T10:33:25.000Z</time>
      </trkpt>
      <trkpt lat="45.48048" lon="5.77213">
        <ele>661.577904</ele>
        <time>2023-12-12T10:33:33.000Z</time>
      </trkpt>
      <trkpt lat="45.4804" lon="5.77197">
        <ele>659.997862</ele>
        <time>2023-12-12T10:33:37.000Z</time>
      </trkpt>
      <trkpt lat="45.48035" lon="5.77183">
        <ele>658.830083</ele>
        <time>2023-12-12T10:33:39.000Z</time>
      </trkpt>
      <trkpt lat="45.48034" lon="5.77175">
        <ele>658.248048</ele>
        <time>2023-12-12T10:33:40.000Z</time>
      </trkpt>
      <trkpt lat="45.48033" lon="5.7717">
        <ele>657.823606</ele>
        <time>2023-12-12T10:33:41.000Z</time>
      </trkpt>
      <trkpt lat="45.48032" lon="5.77167">
        <ele>657.545678</ele>
        <time>2023-12-12T10:33:42.000Z</time>
      </trkpt>
      <trkpt lat="45.48032" lon="5.77163">
        <ele>657.268868</ele>
        <time>2023-12-12T10:33:43.000Z</time>
      </trkpt>
      <trkpt lat="45.48032" lon="5.77162">
        <ele>657.158849</ele>
        <time>2023-12-12T10:33:44.000Z</time>
      </trkpt>
      <trkpt lat="45.48033" lon="5.77162">
        <ele>657.036286</ele>
        <time>2023-12-12T10:33:48.000Z</time>
      </trkpt>
      <trkpt lat="45.48033" lon="5.77163">
        <ele>656.95104</ele>
        <time>2023-12-12T10:33:53.000Z</time>
      </trkpt>
      <trkpt lat="45.48034" lon="5.77169">
        <ele>656.480643</ele>
        <time>2023-12-12T10:33:57.000Z</time>
      </trkpt>
      <trkpt lat="45.48035" lon="5.77174">
        <ele>656.119902</ele>
        <time>2023-12-12T10:33:59.000Z</time>
      </trkpt>
      <trkpt lat="45.48037" lon="5.77183">
        <ele>655.336805</ele>
        <time>2023-12-12T10:34:03.000Z</time>
      </trkpt>
      <trkpt lat="45.48039" lon="5.77188">
        <ele>654.898866</ele>
        <time>2023-12-12T10:34:05.000Z</time>
      </trkpt>
      <trkpt lat="45.48042" lon="5.77193">
        <ele>654.42709</ele>
        <time>2023-12-12T10:34:07.000Z</time>
      </trkpt>
      <trkpt lat="45.48045" lon="5.77202">
        <ele>653.580647</ele>
        <time>2023-12-12T10:34:11.000Z</time>
      </trkpt>
      <trkpt lat="45.48048" lon="5.77207">
        <ele>653.136476</ele>
        <time>2023-12-12T10:34:13.000Z</time>
      </trkpt>
      <trkpt lat="45.48051" lon="5.77211">
        <ele>652.791832</ele>
        <time>2023-12-12T10:34:15.000Z</time>
      </trkpt>
      <trkpt lat="45.48057" lon="5.77215">
        <ele>653.638666</ele>
        <time>2023-12-12T10:34:20.000Z</time>
      </trkpt>
      <trkpt lat="45.4807" lon="5.77215">
        <ele>655.316436</ele>
        <time>2023-12-12T10:34:28.000Z</time>
      </trkpt>
      <trkpt lat="45.48071" lon="5.77215">
        <ele>655.48254</ele>
        <time>2023-12-12T10:34:29.000Z</time>
      </trkpt>
      <trkpt lat="45.48073" lon="5.7721">
        <ele>655.958123</ele>
        <time>2023-12-12T10:34:32.000Z</time>
      </trkpt>
      <trkpt lat="45.48071" lon="5.77209">
        <ele>656.19593</ele>
        <time>2023-12-12T10:34:34.000Z</time>
      </trkpt>
      <trkpt lat="45.48058" lon="5.77211">
        <ele>657.841744</ele>
        <time>2023-12-12T10:34:40.000Z</time>
      </trkpt>
      <trkpt lat="45.48044" lon="5.77215">
        <ele>659.656798</ele>
        <time>2023-12-12T10:34:46.000Z</time>
      </trkpt>
      <trkpt lat="45.48035" lon="5.77215">
        <ele>660.843629</ele>
        <time>2023-12-12T10:34:51.000Z</time>
      </trkpt>
      <trkpt lat="45.48033" lon="5.77214">
        <ele>661.137678</ele>
        <time>2023-12-12T10:34:52.000Z</time>
      </trkpt>
      <trkpt lat="45.48027" lon="5.7721">
        <ele>661.889913</ele>
        <time>2023-12-12T10:34:55.000Z</time>
      </trkpt>
      <trkpt lat="45.48021" lon="5.77208">
        <ele>662.705037</ele>
        <time>2023-12-12T10:34:59.000Z</time>
      </trkpt>
      <trkpt lat="45.48018" lon="5.77205">
        <ele>663.213395</ele>
        <time>2023-12-12T10:35:01.000Z</time>
      </trkpt>
      <trkpt lat="45.48014" lon="5.77202">
        <ele>663.741235</ele>
        <time>2023-12-12T10:35:03.000Z</time>
      </trkpt>
      <trkpt lat="45.48007" lon="5.77196">
        <ele>664.738063</ele>
        <time>2023-12-12T10:35:07.000Z</time>
      </trkpt>
      <trkpt lat="45.48005" lon="5.77192">
        <ele>665.198271</ele>
        <time>2023-12-12T10:35:09.000Z</time>
      </trkpt>
      <trkpt lat="45.48004" lon="5.77191">
        <ele>665.378461</ele>
        <time>2023-12-12T10:35:10.000Z</time>
      </trkpt>
      <trkpt lat="45.47998" lon="5.77184">
        <ele>666.319893</ele>
        <time>2023-12-12T10:35:14.000Z</time>
      </trkpt>
      <trkpt lat="45.47996" lon="5.77183">
        <ele>666.56637</ele>
        <time>2023-12-12T10:35:15.000Z</time>
      </trkpt>
      <trkpt lat="45.47991" lon="5.77176">
        <ele>667.44096</ele>
        <time>2023-12-12T10:35:19.000Z</time>
      </trkpt>
      <trkpt lat="45.47985" lon="5.77172">
        <ele>668.268778</ele>
        <time>2023-12-12T10:35:23.000Z</time>
      </trkpt>
      <trkpt lat="45.47978" lon="5.7717">
        <ele>669.193996</ele>
        <time>2023-12-12T10:35:27.000Z</time>
      </trkpt>
      <trkpt lat="45.47976" lon="5.7717">
        <ele>669.41132</ele>
        <time>2023-12-12T10:35:28.000Z</time>
      </trkpt>
      <trkpt lat="45.47973" lon="5.77169">
        <ele>669.827932</ele>
        <time>2023-12-12T10:35:30.000Z</time>
      </trkpt>
      <trkpt lat="45.47967" lon="5.77167">
        <ele>670.648187</ele>
        <time>2023-12-12T10:35:34.000Z</time>
      </trkpt>
      <trkpt lat="45.47965" lon="5.77166">
        <ele>670.862042</ele>
        <time>2023-12-12T10:35:35.000Z</time>
      </trkpt>
      <trkpt lat="45.47962" lon="5.77164">
        <ele>671.28356</ele>
        <time>2023-12-12T10:35:37.000Z</time>
      </trkpt>
      <trkpt lat="45.47955" lon="5.77161">
        <ele>672.204354</ele>
        <time>2023-12-12T10:35:41.000Z</time>
      </trkpt>
      <trkpt lat="45.4795" lon="5.77161">
        <ele>672.848176</ele>
        <time>2023-12-12T10:35:44.000Z</time>
      </trkpt>
      <trkpt lat="45.47948" lon="5.77162">
        <ele>673.083503</ele>
        <time>2023-12-12T10:35:45.000Z</time>
      </trkpt>
      <trkpt lat="45.47944" lon="5.77165">
        <ele>673.71471</ele>
        <time>2023-12-12T10:35:48.000Z</time>
      </trkpt>
      <trkpt lat="45.47942" lon="5.77166">
        <ele>673.908406</ele>
        <time>2023-12-12T10:35:49.000Z</time>
      </trkpt>
      <trkpt lat="45.47941" lon="5.77166">
        <ele>674.136989</ele>
        <time>2023-12-12T10:35:50.000Z</time>
      </trkpt>
      <trkpt lat="45.47935" lon="5.77166">
        <ele>674.805549</ele>
        <time>2023-12-12T10:35:53.000Z</time>
      </trkpt>
      <trkpt lat="45.4793" lon="5.77164">
        <ele>675.511234</ele>
        <time>2023-12-12T10:35:56.000Z</time>
      </trkpt>
      <trkpt lat="45.47928" lon="5.77163">
        <ele>675.86354</ele>
        <time>2023-12-12T10:35:57.000Z</time>
      </trkpt>
      <trkpt lat="45.47923" lon="5.77162">
        <ele>676.954454</ele>
        <time>2023-12-12T10:36:00.000Z</time>
      </trkpt>
      <trkpt lat="45.47914" lon="5.77158">
        <ele>678.727127</ele>
        <time>2023-12-12T10:36:05.000Z</time>
      </trkpt>
      <trkpt lat="45.47908" lon="5.77155">
        <ele>679.847263</ele>
        <time>2023-12-12T10:36:08.000Z</time>
      </trkpt>
      <trkpt lat="45.47904" lon="5.77153">
        <ele>680.548089</ele>
        <time>2023-12-12T10:36:10.000Z</time>
      </trkpt>
      <trkpt lat="45.47899" lon="5.77149">
        <ele>681.775679</ele>
        <time>2023-12-12T10:36:13.000Z</time>
      </trkpt>
      <trkpt lat="45.47897" lon="5.77148">
        <ele>682.124312</ele>
        <time>2023-12-12T10:36:14.000Z</time>
      </trkpt>
      <trkpt lat="45.47892" lon="5.77146">
        <ele>683.022066</ele>
        <time>2023-12-12T10:36:17.000Z</time>
      </trkpt>
      <trkpt lat="45.47886" lon="5.77143">
        <ele>684.258666</ele>
        <time>2023-12-12T10:36:21.000Z</time>
      </trkpt>
      <trkpt lat="45.47881" lon="5.77142">
        <ele>685.137798</ele>
        <time>2023-12-12T10:36:24.000Z</time>
      </trkpt>
      <trkpt lat="45.47877" lon="5.77143">
        <ele>686.016931</ele>
        <time>2023-12-12T10:36:27.000Z</time>
      </trkpt>
      <trkpt lat="45.4787" lon="5.77142">
        <ele>687.362404</ele>
        <time>2023-12-12T10:36:31.000Z</time>
      </trkpt>
      <trkpt lat="45.47866" lon="5.77142">
        <ele>687.967357</ele>
        <time>2023-12-12T10:36:33.000Z</time>
      </trkpt>
      <trkpt lat="45.47863" lon="5.77141">
        <ele>688.567609</ele>
        <time>2023-12-12T10:36:35.000Z</time>
      </trkpt>
      <trkpt lat="45.47859" lon="5.77141">
        <ele>689.40849</ele>
        <time>2023-12-12T10:36:38.000Z</time>
      </trkpt>
      <trkpt lat="45.47852" lon="5.7714">
        <ele>690.611566</ele>
        <time>2023-12-12T10:36:42.000Z</time>
      </trkpt>
      <trkpt lat="45.47846" lon="5.7714">
        <ele>691.828713</ele>
        <time>2023-12-12T10:36:46.000Z</time>
      </trkpt>
      <trkpt lat="45.47844" lon="5.77139">
        <ele>692.223088</ele>
        <time>2023-12-12T10:36:48.000Z</time>
      </trkpt>
      <trkpt lat="45.47837" lon="5.77139">
        <ele>693.550393</ele>
        <time>2023-12-12T10:36:52.000Z</time>
      </trkpt>
      <trkpt lat="45.47835" lon="5.77139">
        <ele>693.830687</ele>
        <time>2023-12-12T10:36:53.000Z</time>
      </trkpt>
      <trkpt lat="45.47831" lon="5.77139">
        <ele>694.6732</ele>
        <time>2023-12-12T10:36:56.000Z</time>
      </trkpt>
      <trkpt lat="45.47824" lon="5.77138">
        <ele>695.932015</ele>
        <time>2023-12-12T10:37:00.000Z</time>
      </trkpt>
      <trkpt lat="45.47822" lon="5.77137">
        <ele>696.290902</ele>
        <time>2023-12-12T10:37:01.000Z</time>
      </trkpt>
      <trkpt lat="45.47819" lon="5.77137">
        <ele>696.911018</ele>
        <time>2023-12-12T10:37:03.000Z</time>
      </trkpt>
      <trkpt lat="45.47812" lon="5.77136">
        <ele>698.164709</ele>
        <time>2023-12-12T10:37:07.000Z</time>
      </trkpt>
      <trkpt lat="45.47807" lon="5.77137">
        <ele>699.081178</ele>
        <time>2023-12-12T10:37:10.000Z</time>
      </trkpt>
      <trkpt lat="45.47802" lon="5.77137">
        <ele>700.111008</ele>
        <time>2023-12-12T10:37:13.000Z</time>
      </trkpt>
      <trkpt lat="45.478" lon="5.77137">
        <ele>700.391301</ele>
        <time>2023-12-12T10:37:14.000Z</time>
      </trkpt>
      <trkpt lat="45.47793" lon="5.77142">
        <ele>701.898932</ele>
        <time>2023-12-12T10:37:19.000Z</time>
      </trkpt>
      <trkpt lat="45.4779" lon="5.77144">
        <ele>702.484102</ele>
        <time>2023-12-12T10:37:21.000Z</time>
      </trkpt>
      <trkpt lat="45.47787" lon="5.77146">
        <ele>703.058015</ele>
        <time>2023-12-12T10:37:23.000Z</time>
      </trkpt>
      <trkpt lat="45.47781" lon="5.7715">
        <ele>704.34846</ele>
        <time>2023-12-12T10:37:27.000Z</time>
      </trkpt>
      <trkpt lat="45.47777" lon="5.77152">
        <ele>705.12106</ele>
        <time>2023-12-12T10:37:30.000Z</time>
      </trkpt>
      <trkpt lat="45.4777" lon="5.77153">
        <ele>706.377419</ele>
        <time>2023-12-12T10:37:35.000Z</time>
      </trkpt>
      <trkpt lat="45.47766" lon="5.77152">
        <ele>707.206269</ele>
        <time>2023-12-12T10:37:38.000Z</time>
      </trkpt>
      <trkpt lat="45.47765" lon="5.77152">
        <ele>707.47084</ele>
        <time>2023-12-12T10:37:39.000Z</time>
      </trkpt>
      <trkpt lat="45.4776" lon="5.77151">
        <ele>708.434676</ele>
        <time>2023-12-12T10:37:42.000Z</time>
      </trkpt>
      <trkpt lat="45.47754" lon="5.77151">
        <ele>709.416413</ele>
        <time>2023-12-12T10:37:45.000Z</time>
      </trkpt>
      <trkpt lat="45.47751" lon="5.77149">
        <ele>710.095345</ele>
        <time>2023-12-12T10:37:47.000Z</time>
      </trkpt>
      <trkpt lat="45.47746" lon="5.77148">
        <ele>711.016711</ele>
        <time>2023-12-12T10:37:50.000Z</time>
      </trkpt>
      <trkpt lat="45.47739" lon="5.77147">
        <ele>712.233107</ele>
        <time>2023-12-12T10:37:54.000Z</time>
      </trkpt>
      <trkpt lat="45.47736" lon="5.77147">
        <ele>712.858</ele>
        <time>2023-12-12T10:37:56.000Z</time>
      </trkpt>
      <trkpt lat="45.47732" lon="5.77146">
        <ele>713.467951</ele>
        <time>2023-12-12T10:37:58.000Z</time>
      </trkpt>
      <trkpt lat="45.47726" lon="5.77145">
        <ele>714.67703</ele>
        <time>2023-12-12T10:38:02.000Z</time>
      </trkpt>
      <trkpt lat="45.47719" lon="5.77145">
        <ele>715.865377</ele>
        <time>2023-12-12T10:38:06.000Z</time>
      </trkpt>
      <trkpt lat="45.47713" lon="5.77143">
        <ele>717.134734</ele>
        <time>2023-12-12T10:38:10.000Z</time>
      </trkpt>
      <trkpt lat="45.47706" lon="5.77143">
        <ele>718.359914</ele>
        <time>2023-12-12T10:38:14.000Z</time>
      </trkpt>
      <trkpt lat="45.477" lon="5.7714">
        <ele>719.545083</ele>
        <time>2023-12-12T10:38:18.000Z</time>
      </trkpt>
      <trkpt lat="45.47692" lon="5.77135">
        <ele>721.069707</ele>
        <time>2023-12-12T10:38:22.000Z</time>
      </trkpt>
      <trkpt lat="45.47686" lon="5.77132">
        <ele>722.219239</ele>
        <time>2023-12-12T10:38:26.000Z</time>
      </trkpt>
      <trkpt lat="45.4768" lon="5.77128">
        <ele>723.424738</ele>
        <time>2023-12-12T10:38:30.000Z</time>
      </trkpt>
      <trkpt lat="45.47677" lon="5.77127">
        <ele>723.963086</ele>
        <time>2023-12-12T10:38:32.000Z</time>
      </trkpt>
      <trkpt lat="45.47676" lon="5.77126">
        <ele>724.293586</ele>
        <time>2023-12-12T10:38:33.000Z</time>
      </trkpt>
      <trkpt lat="45.47668" lon="5.77121">
        <ele>725.839505</ele>
        <time>2023-12-12T10:38:38.000Z</time>
      </trkpt>
      <trkpt lat="45.47665" lon="5.7712">
        <ele>726.391557</ele>
        <time>2023-12-12T10:38:40.000Z</time>
      </trkpt>
      <trkpt lat="45.47662" lon="5.77119">
        <ele>727.049669</ele>
        <time>2023-12-12T10:38:42.000Z</time>
      </trkpt>
      <trkpt lat="45.47656" lon="5.77116">
        <ele>728.113895</ele>
        <time>2023-12-12T10:38:46.000Z</time>
      </trkpt>
      <trkpt lat="45.47655" lon="5.77116">
        <ele>728.357034</ele>
        <time>2023-12-12T10:38:47.000Z</time>
      </trkpt>
      <trkpt lat="45.47651" lon="5.77115">
        <ele>729.153555</ele>
        <time>2023-12-12T10:38:50.000Z</time>
      </trkpt>
      <trkpt lat="45.47644" lon="5.77114">
        <ele>730.330622</ele>
        <time>2023-12-12T10:38:54.000Z</time>
      </trkpt>
      <trkpt lat="45.47642" lon="5.77113">
        <ele>730.663674</ele>
        <time>2023-12-12T10:38:55.000Z</time>
      </trkpt>
      <trkpt lat="45.47639" lon="5.77112">
        <ele>731.318907</ele>
        <time>2023-12-12T10:38:57.000Z</time>
      </trkpt>
      <trkpt lat="45.47634" lon="5.7711">
        <ele>732.261695</ele>
        <time>2023-12-12T10:39:00.000Z</time>
      </trkpt>
      <trkpt lat="45.47629" lon="5.77108">
        <ele>733.157193</ele>
        <time>2023-12-12T10:39:03.000Z</time>
      </trkpt>
      <trkpt lat="45.47628" lon="5.77107">
        <ele>733.471641</ele>
        <time>2023-12-12T10:39:04.000Z</time>
      </trkpt>
      <trkpt lat="45.47622" lon="5.77105">
        <ele>734.577453</ele>
        <time>2023-12-12T10:39:08.000Z</time>
      </trkpt>
      <trkpt lat="45.47616" lon="5.77101">
        <ele>735.804914</ele>
        <time>2023-12-12T10:39:12.000Z</time>
      </trkpt>
      <trkpt lat="45.47612" lon="5.77099">
        <ele>736.499119</ele>
        <time>2023-12-12T10:39:14.000Z</time>
      </trkpt>
      <trkpt lat="45.47611" lon="5.77098">
        <ele>736.770346</ele>
        <time>2023-12-12T10:39:15.000Z</time>
      </trkpt>
      <trkpt lat="45.47606" lon="5.77096">
        <ele>737.663468</ele>
        <time>2023-12-12T10:39:18.000Z</time>
      </trkpt>
      <trkpt lat="45.47599" lon="5.77093">
        <ele>738.926072</ele>
        <time>2023-12-12T10:39:22.000Z</time>
      </trkpt>
      <trkpt lat="45.47593" lon="5.7709">
        <ele>740.131574</ele>
        <time>2023-12-12T10:39:26.000Z</time>
      </trkpt>
      <trkpt lat="45.4759" lon="5.77087">
        <ele>740.886281</ele>
        <time>2023-12-12T10:39:29.000Z</time>
      </trkpt>
      <trkpt lat="45.47588" lon="5.77086">
        <ele>741.211014</ele>
        <time>2023-12-12T10:39:30.000Z</time>
      </trkpt>
      <trkpt lat="45.47582" lon="5.77083">
        <ele>742.337108</ele>
        <time>2023-12-12T10:39:34.000Z</time>
      </trkpt>
      <trkpt lat="45.47575" lon="5.77079">
        <ele>743.611712</ele>
        <time>2023-12-12T10:39:38.000Z</time>
      </trkpt>
      <trkpt lat="45.47571" lon="5.77077">
        <ele>744.384277</ele>
        <time>2023-12-12T10:39:40.000Z</time>
      </trkpt>
      <trkpt lat="45.47566" lon="5.77076">
        <ele>745.230499</ele>
        <time>2023-12-12T10:39:43.000Z</time>
      </trkpt>
      <trkpt lat="45.4756" lon="5.77072">
        <ele>746.41266</ele>
        <time>2023-12-12T10:39:47.000Z</time>
      </trkpt>
      <trkpt lat="45.47556" lon="5.7707">
        <ele>747.148449</ele>
        <time>2023-12-12T10:39:49.000Z</time>
      </trkpt>
      <trkpt lat="45.47552" lon="5.77067">
        <ele>747.933622</ele>
        <time>2023-12-12T10:39:51.000Z</time>
      </trkpt>
      <trkpt lat="45.47544" lon="5.77065">
        <ele>749.374993</ele>
        <time>2023-12-12T10:39:55.000Z</time>
      </trkpt>
      <trkpt lat="45.47542" lon="5.77065">
        <ele>749.724892</ele>
        <time>2023-12-12T10:39:56.000Z</time>
      </trkpt>
      <trkpt lat="45.47538" lon="5.77064">
        <ele>750.526189</ele>
        <time>2023-12-12T10:39:58.000Z</time>
      </trkpt>
      <trkpt lat="45.47529" lon="5.7706">
        <ele>752.043571</ele>
        <time>2023-12-12T10:40:02.000Z</time>
      </trkpt>
      <trkpt lat="45.47522" lon="5.77059">
        <ele>753.239367</ele>
        <time>2023-12-12T10:40:06.000Z</time>
      </trkpt>
      <trkpt lat="45.4752" lon="5.77059">
        <ele>753.571183</ele>
        <time>2023-12-12T10:40:07.000Z</time>
      </trkpt>
      <trkpt lat="45.47515" lon="5.77058">
        <ele>754.565591</ele>
        <time>2023-12-12T10:40:10.000Z</time>
      </trkpt>
      <trkpt lat="45.47506" lon="5.77056">
        <ele>756.096499</ele>
        <time>2023-12-12T10:40:14.000Z</time>
      </trkpt>
      <trkpt lat="45.47499" lon="5.77056">
        <ele>757.33566</ele>
        <time>2023-12-12T10:40:17.000Z</time>
      </trkpt>
      <trkpt lat="45.47492" lon="5.77057">
        <ele>758.580789</ele>
        <time>2023-12-12T10:40:20.000Z</time>
      </trkpt>
      <trkpt lat="45.47486" lon="5.77058">
        <ele>759.612281</ele>
        <time>2023-12-12T10:40:23.000Z</time>
      </trkpt>
      <trkpt lat="45.47479" lon="5.77057">
        <ele>760.816726</ele>
        <time>2023-12-12T10:40:26.000Z</time>
      </trkpt>
      <trkpt lat="45.47471" lon="5.77059">
        <ele>762.18589</ele>
        <time>2023-12-12T10:40:30.000Z</time>
      </trkpt>
      <trkpt lat="45.47469" lon="5.77058">
        <ele>762.571587</ele>
        <time>2023-12-12T10:40:31.000Z</time>
      </trkpt>
      <trkpt lat="45.47463" lon="5.77057">
        <ele>763.728681</ele>
        <time>2023-12-12T10:40:34.000Z</time>
      </trkpt>
      <trkpt lat="45.47457" lon="5.77057">
        <ele>764.743564</ele>
        <time>2023-12-12T10:40:37.000Z</time>
      </trkpt>
      <trkpt lat="45.47449" lon="5.77056">
        <ele>766.124235</ele>
        <time>2023-12-12T10:40:41.000Z</time>
      </trkpt>
      <trkpt lat="45.47441" lon="5.77054">
        <ele>767.488017</ele>
        <time>2023-12-12T10:40:45.000Z</time>
      </trkpt>
      <trkpt lat="45.47434" lon="5.77051">
        <ele>768.758211</ele>
        <time>2023-12-12T10:40:49.000Z</time>
      </trkpt>
      <trkpt lat="45.47432" lon="5.77049">
        <ele>769.173733</ele>
        <time>2023-12-12T10:40:50.000Z</time>
      </trkpt>
      <trkpt lat="45.47428" lon="5.77046">
        <ele>769.967086</ele>
        <time>2023-12-12T10:40:52.000Z</time>
      </trkpt>
      <trkpt lat="45.4742" lon="5.77042">
        <ele>771.467942</ele>
        <time>2023-12-12T10:40:56.000Z</time>
      </trkpt>
      <trkpt lat="45.47416" lon="5.7704">
        <ele>772.260407</ele>
        <time>2023-12-12T10:40:58.000Z</time>
      </trkpt>
      <trkpt lat="45.47413" lon="5.7704">
        <ele>772.767849</ele>
        <time>2023-12-12T10:40:59.000Z</time>
      </trkpt>
      <trkpt lat="45.47408" lon="5.77041">
        <ele>773.518573</ele>
        <time>2023-12-12T10:41:01.000Z</time>
      </trkpt>
      <trkpt lat="45.47401" lon="5.77041">
        <ele>774.386216</ele>
        <time>2023-12-12T10:41:05.000Z</time>
      </trkpt>
      <trkpt lat="45.474" lon="5.77042">
        <ele>774.54407</ele>
        <time>2023-12-12T10:41:06.000Z</time>
      </trkpt>
      <trkpt lat="45.47395" lon="5.77043">
        <ele>775.199379</ele>
        <time>2023-12-12T10:41:09.000Z</time>
      </trkpt>
      <trkpt lat="45.47394" lon="5.77044">
        <ele>775.432724</ele>
        <time>2023-12-12T10:41:10.000Z</time>
      </trkpt>
      <trkpt lat="45.4739" lon="5.77048">
        <ele>775.996667</ele>
        <time>2023-12-12T10:41:12.000Z</time>
      </trkpt>
      <trkpt lat="45.47384" lon="5.77053">
        <ele>776.960011</ele>
        <time>2023-12-12T10:41:16.000Z</time>
      </trkpt>
      <trkpt lat="45.47378" lon="5.77057">
        <ele>777.847659</ele>
        <time>2023-12-12T10:41:19.000Z</time>
      </trkpt>
      <trkpt lat="45.47373" lon="5.77061">
        <ele>778.61127</ele>
        <time>2023-12-12T10:41:22.000Z</time>
      </trkpt>
      <trkpt lat="45.47371" lon="5.77063">
        <ele>778.81648</ele>
        <time>2023-12-12T10:41:23.000Z</time>
      </trkpt>
      <trkpt lat="45.47367" lon="5.77064">
        <ele>779.415885</ele>
        <time>2023-12-12T10:41:25.000Z</time>
      </trkpt>
      <trkpt lat="45.4736" lon="5.77065">
        <ele>780.310613</ele>
        <time>2023-12-12T10:41:28.000Z</time>
      </trkpt>
      <trkpt lat="45.47356" lon="5.77067">
        <ele>780.816815</ele>
        <time>2023-12-12T10:41:30.000Z</time>
      </trkpt>
      <trkpt lat="45.47354" lon="5.77068">
        <ele>781.090639</ele>
        <time>2023-12-12T10:41:31.000Z</time>
      </trkpt>
      <trkpt lat="45.47351" lon="5.77069">
        <ele>781.505794</ele>
        <time>2023-12-12T10:41:33.000Z</time>
      </trkpt>
      <trkpt lat="45.47348" lon="5.77071">
        <ele>781.950388</ele>
        <time>2023-12-12T10:41:35.000Z</time>
      </trkpt>
      <trkpt lat="45.47347" lon="5.77071">
        <ele>782.133382</ele>
        <time>2023-12-12T10:41:36.000Z</time>
      </trkpt>
      <trkpt lat="45.47344" lon="5.77074">
        <ele>782.587104</ele>
        <time>2023-12-12T10:41:38.000Z</time>
      </trkpt>
      <trkpt lat="45.47338" lon="5.77079">
        <ele>783.465011</ele>
        <time>2023-12-12T10:41:41.000Z</time>
      </trkpt>
      <trkpt lat="45.47333" lon="5.77083">
        <ele>784.226174</ele>
        <time>2023-12-12T10:41:44.000Z</time>
      </trkpt>
      <trkpt lat="45.4733" lon="5.77085">
        <ele>784.55255</ele>
        <time>2023-12-12T10:41:45.000Z</time>
      </trkpt>
      <trkpt lat="45.47323" lon="5.77091">
        <ele>785.637028</ele>
        <time>2023-12-12T10:41:49.000Z</time>
      </trkpt>
      <trkpt lat="45.4732" lon="5.77094">
        <ele>786.173735</ele>
        <time>2023-12-12T10:41:52.000Z</time>
      </trkpt>
      <trkpt lat="45.47319" lon="5.77095">
        <ele>786.221091</ele>
        <time>2023-12-12T10:41:53.000Z</time>
      </trkpt>
      <trkpt lat="45.47314" lon="5.77092">
        <ele>786.961466</ele>
        <time>2023-12-12T10:42:05.000Z</time>
      </trkpt>
      <trkpt lat="45.47304" lon="5.77082">
        <ele>788.55105</ele>
        <time>2023-12-12T10:42:12.000Z</time>
      </trkpt>
      <trkpt lat="45.47303" lon="5.77079">
        <ele>788.827791</ele>
        <time>2023-12-12T10:42:13.000Z</time>
      </trkpt>
      <trkpt lat="45.473" lon="5.77061">
        <ele>790.496466</ele>
        <time>2023-12-12T10:42:19.000Z</time>
      </trkpt>
      <trkpt lat="45.47298" lon="5.77056">
        <ele>791.04384</ele>
        <time>2023-12-12T10:42:21.000Z</time>
      </trkpt>
      <trkpt lat="45.47296" lon="5.77051">
        <ele>791.553227</ele>
        <time>2023-12-12T10:42:23.000Z</time>
      </trkpt>
      <trkpt lat="45.47291" lon="5.77041">
        <ele>792.644315</ele>
        <time>2023-12-12T10:42:27.000Z</time>
      </trkpt>
      <trkpt lat="45.47288" lon="5.77039">
        <ele>793.17411</ele>
        <time>2023-12-12T10:42:29.000Z</time>
      </trkpt>
      <trkpt lat="45.47284" lon="5.77038">
        <ele>793.642557</ele>
        <time>2023-12-12T10:42:31.000Z</time>
      </trkpt>
      <trkpt lat="45.47274" lon="5.77038">
        <ele>794.88598</ele>
        <time>2023-12-12T10:42:36.000Z</time>
      </trkpt>
      <trkpt lat="45.47273" lon="5.77037">
        <ele>795.094551</ele>
        <time>2023-12-12T10:42:37.000Z</time>
      </trkpt>
      <trkpt lat="45.47259" lon="5.77024">
        <ele>796.683897</ele>
        <time>2023-12-12T10:42:44.000Z</time>
      </trkpt>
      <trkpt lat="45.47243" lon="5.7701">
        <ele>797.163508</ele>
        <time>2023-12-12T10:42:50.000Z</time>
      </trkpt>
      <trkpt lat="45.47238" lon="5.77007">
        <ele>797.317885</ele>
        <time>2023-12-12T10:42:52.000Z</time>
      </trkpt>
      <trkpt lat="45.47215" lon="5.77001">
        <ele>797.904629</ele>
        <time>2023-12-12T10:42:59.000Z</time>
      </trkpt>
      <trkpt lat="45.47187" lon="5.76996">
        <ele>798.634271</ele>
        <time>2023-12-12T10:43:07.000Z</time>
      </trkpt>
      <trkpt lat="45.47151" lon="5.76994">
        <ele>799.557432</ele>
        <time>2023-12-12T10:43:16.000Z</time>
      </trkpt>
      <trkpt lat="45.47125" lon="5.76995">
        <ele>800.231034</ele>
        <time>2023-12-12T10:43:22.000Z</time>
      </trkpt>
      <trkpt lat="45.47121" lon="5.76994">
        <ele>800.337382</ele>
        <time>2023-12-12T10:43:23.000Z</time>
      </trkpt>
      <trkpt lat="45.47117" lon="5.76993">
        <ele>800.442071</ele>
        <time>2023-12-12T10:43:24.000Z</time>
      </trkpt>
      <trkpt lat="45.47074" lon="5.76978">
        <ele>801.571151</ele>
        <time>2023-12-12T10:43:35.000Z</time>
      </trkpt>
      <trkpt lat="45.47067" lon="5.76975">
        <ele>801.78115</ele>
        <time>2023-12-12T10:43:37.000Z</time>
      </trkpt>
      <trkpt lat="45.47034" lon="5.76957">
        <ele>802.709541</ele>
        <time>2023-12-12T10:43:46.000Z</time>
      </trkpt>
      <trkpt lat="45.4703" lon="5.76954">
        <ele>802.816036</ele>
        <time>2023-12-12T10:43:47.000Z</time>
      </trkpt>
      <trkpt lat="45.47017" lon="5.76941">
        <ele>803.23375</ele>
        <time>2023-12-12T10:43:51.000Z</time>
      </trkpt>
      <trkpt lat="45.47015" lon="5.76939">
        <ele>803.306616</ele>
        <time>2023-12-12T10:43:52.000Z</time>
      </trkpt>
      <trkpt lat="45.47008" lon="5.76937">
        <ele>803.499466</ele>
        <time>2023-12-12T10:43:54.000Z</time>
      </trkpt>
      <trkpt lat="45.47" lon="5.76936">
        <ele>803.715981</ele>
        <time>2023-12-12T10:43:56.000Z</time>
      </trkpt>
      <trkpt lat="45.46992" lon="5.76936">
        <ele>803.913371</ele>
        <time>2023-12-12T10:43:58.000Z</time>
      </trkpt>
      <trkpt lat="45.46982" lon="5.76939">
        <ele>804.196983</ele>
        <time>2023-12-12T10:44:01.000Z</time>
      </trkpt>
      <trkpt lat="45.46963" lon="5.76947">
        <ele>804.717657</ele>
        <time>2023-12-12T10:44:06.000Z</time>
      </trkpt>
      <trkpt lat="45.46943" lon="5.76955">
        <ele>805.244601</ele>
        <time>2023-12-12T10:44:11.000Z</time>
      </trkpt>
      <trkpt lat="45.46909" lon="5.76967">
        <ele>805.66734</ele>
        <time>2023-12-12T10:44:20.000Z</time>
      </trkpt>
      <trkpt lat="45.46869" lon="5.7698">
        <ele>804.802573</ele>
        <time>2023-12-12T10:44:30.000Z</time>
      </trkpt>
      <trkpt lat="45.4685" lon="5.76974">
        <ele>804.377457</ele>
        <time>2023-12-12T10:44:35.000Z</time>
      </trkpt>
      <trkpt lat="45.46846" lon="5.76972">
        <ele>804.291941</ele>
        <time>2023-12-12T10:44:36.000Z</time>
      </trkpt>
      <trkpt lat="45.46829" lon="5.76967">
        <ele>803.929362</ele>
        <time>2023-12-12T10:44:40.000Z</time>
      </trkpt>
      <trkpt lat="45.46818" lon="5.76967">
        <ele>803.688032</ele>
        <time>2023-12-12T10:44:43.000Z</time>
      </trkpt>
      <trkpt lat="45.46815" lon="5.76967">
        <ele>803.617412</ele>
        <time>2023-12-12T10:44:44.000Z</time>
      </trkpt>
      <trkpt lat="45.46812" lon="5.76968">
        <ele>803.559492</ele>
        <time>2023-12-12T10:44:45.000Z</time>
      </trkpt>
      <trkpt lat="45.46811" lon="5.76973">
        <ele>803.485983</ele>
        <time>2023-12-12T10:44:47.000Z</time>
      </trkpt>
      <trkpt lat="45.4681" lon="5.76975">
        <ele>803.44753</ele>
        <time>2023-12-12T10:44:48.000Z</time>
      </trkpt>
      <trkpt lat="45.46807" lon="5.76975">
        <ele>803.387432</ele>
        <time>2023-12-12T10:44:50.000Z</time>
      </trkpt>
      <trkpt lat="45.46806" lon="5.76973">
        <ele>803.340479</ele>
        <time>2023-12-12T10:44:51.000Z</time>
      </trkpt>
      <trkpt lat="45.46796" lon="5.76962">
        <ele>803.074365</ele>
        <time>2023-12-12T10:44:55.000Z</time>
      </trkpt>
      <trkpt lat="45.46792" lon="5.76959">
        <ele>802.990893</ele>
        <time>2023-12-12T10:44:56.000Z</time>
      </trkpt>
      <trkpt lat="45.46779" lon="5.76948">
        <ele>802.671068</ele>
        <time>2023-12-12T10:44:59.000Z</time>
      </trkpt>
      <trkpt lat="45.46768" lon="5.76939">
        <ele>802.387226</ele>
        <time>2023-12-12T10:45:01.000Z</time>
      </trkpt>
      <trkpt lat="45.46755" lon="5.76927">
        <ele>802.04462</ele>
        <time>2023-12-12T10:45:03.000Z</time>
      </trkpt>
      <trkpt lat="45.46748" lon="5.76922">
        <ele>801.686331</ele>
        <time>2023-12-12T10:45:04.000Z</time>
      </trkpt>
      <trkpt lat="45.46735" lon="5.76913">
        <ele>800.91591</ele>
        <time>2023-12-12T10:45:06.000Z</time>
      </trkpt>
      <trkpt lat="45.46727" lon="5.7691">
        <ele>800.501228</ele>
        <time>2023-12-12T10:45:07.000Z</time>
      </trkpt>
      <trkpt lat="45.46719" lon="5.76907">
        <ele>800.061353</ele>
        <time>2023-12-12T10:45:08.000Z</time>
      </trkpt>
      <trkpt lat="45.4671" lon="5.76905">
        <ele>799.601344</ele>
        <time>2023-12-12T10:45:09.000Z</time>
      </trkpt>
      <trkpt lat="45.46701" lon="5.76904">
        <ele>799.128576</ele>
        <time>2023-12-12T10:45:10.000Z</time>
      </trkpt>
      <trkpt lat="45.46691" lon="5.76904">
        <ele>798.652642</ele>
        <time>2023-12-12T10:45:11.000Z</time>
      </trkpt>
      <trkpt lat="45.46673" lon="5.76905">
        <ele>797.720829</ele>
        <time>2023-12-12T10:45:13.000Z</time>
      </trkpt>
      <trkpt lat="45.46657" lon="5.76903">
        <ele>796.884461</ele>
        <time>2023-12-12T10:45:15.000Z</time>
      </trkpt>
      <trkpt lat="45.46646" lon="5.76899">
        <ele>796.328285</ele>
        <time>2023-12-12T10:45:17.000Z</time>
      </trkpt>
      <trkpt lat="45.46644" lon="5.76898">
        <ele>796.20414</ele>
        <time>2023-12-12T10:45:18.000Z</time>
      </trkpt>
      <trkpt lat="45.46643" lon="5.76898">
        <ele>796.146828</ele>
        <time>2023-12-12T10:45:19.000Z</time>
      </trkpt>
      <trkpt lat="45.46643" lon="5.76901">
        <ele>796.06721</ele>
        <time>2023-12-12T10:45:21.000Z</time>
      </trkpt>
      <trkpt lat="45.46648" lon="5.76902">
        <ele>795.823105</ele>
        <time>2023-12-12T10:45:23.000Z</time>
      </trkpt>
      <trkpt lat="45.46654" lon="5.76904">
        <ele>795.499315</ele>
        <time>2023-12-12T10:45:25.000Z</time>
      </trkpt>
      <trkpt lat="45.46664" lon="5.76906">
        <ele>794.967356</ele>
        <time>2023-12-12T10:45:28.000Z</time>
      </trkpt>
      <trkpt lat="45.46674" lon="5.76906">
        <ele>794.450496</ele>
        <time>2023-12-12T10:45:31.000Z</time>
      </trkpt>
      <trkpt lat="45.46681" lon="5.76906">
        <ele>794.106953</ele>
        <time>2023-12-12T10:45:33.000Z</time>
      </trkpt>
      <trkpt lat="45.46684" lon="5.76905">
        <ele>793.955796</ele>
        <time>2023-12-12T10:45:34.000Z</time>
      </trkpt>
      <trkpt lat="45.46689" lon="5.76904">
        <ele>793.682209</ele>
        <time>2023-12-12T10:45:36.000Z</time>
      </trkpt>
      <trkpt lat="45.4669" lon="5.76906">
        <ele>793.58168</ele>
        <time>2023-12-12T10:45:37.000Z</time>
      </trkpt>
      <trkpt lat="45.46686" lon="5.76913">
        <ele>793.249202</ele>
        <time>2023-12-12T10:45:40.000Z</time>
      </trkpt>
      <trkpt lat="45.46678" lon="5.76916">
        <ele>792.793576</ele>
        <time>2023-12-12T10:45:45.000Z</time>
      </trkpt>
      <trkpt lat="45.46672" lon="5.7692">
        <ele>791.951365</ele>
        <time>2023-12-12T10:46:15.000Z</time>
      </trkpt>
      <trkpt lat="45.46669" lon="5.76923">
        <ele>791.484143</ele>
        <time>2023-12-12T10:46:16.000Z</time>
      </trkpt>
      <trkpt lat="45.46665" lon="5.76926">
        <ele>790.960085</ele>
        <time>2023-12-12T10:46:17.000Z</time>
      </trkpt>
      <trkpt lat="45.46657" lon="5.76933">
        <ele>789.800625</ele>
        <time>2023-12-12T10:46:19.000Z</time>
      </trkpt>
      <trkpt lat="45.46653" lon="5.76937">
        <ele>789.193652</ele>
        <time>2023-12-12T10:46:20.000Z</time>
      </trkpt>
      <trkpt lat="45.46641" lon="5.76947">
        <ele>787.501811</ele>
        <time>2023-12-12T10:46:23.000Z</time>
      </trkpt>
      <trkpt lat="45.46619" lon="5.76965">
        <ele>784.472037</ele>
        <time>2023-12-12T10:46:29.000Z</time>
      </trkpt>
      <trkpt lat="45.46616" lon="5.76967">
        <ele>784.070983</ele>
        <time>2023-12-12T10:46:30.000Z</time>
      </trkpt>
      <trkpt lat="45.46612" lon="5.76969">
        <ele>783.586068</ele>
        <time>2023-12-12T10:46:31.000Z</time>
      </trkpt>
      <trkpt lat="45.46598" lon="5.76972">
        <ele>781.845081</ele>
        <time>2023-12-12T10:46:34.000Z</time>
      </trkpt>
      <trkpt lat="45.46593" lon="5.76973">
        <ele>781.234768</ele>
        <time>2023-12-12T10:46:35.000Z</time>
      </trkpt>
      <trkpt lat="45.46584" lon="5.76975">
        <ele>780.128041</ele>
        <time>2023-12-12T10:46:37.000Z</time>
      </trkpt>
      <trkpt lat="45.46579" lon="5.76975">
        <ele>779.557281</ele>
        <time>2023-12-12T10:46:38.000Z</time>
      </trkpt>
      <trkpt lat="45.4657" lon="5.76976">
        <ele>778.430237</ele>
        <time>2023-12-12T10:46:40.000Z</time>
      </trkpt>
      <trkpt lat="45.4656" lon="5.76976">
        <ele>777.16975</ele>
        <time>2023-12-12T10:46:42.000Z</time>
      </trkpt>
      <trkpt lat="45.46549" lon="5.76977">
        <ele>775.859099</ele>
        <time>2023-12-12T10:46:44.000Z</time>
      </trkpt>
      <trkpt lat="45.46544" lon="5.76978">
        <ele>775.228455</ele>
        <time>2023-12-12T10:46:45.000Z</time>
      </trkpt>
      <trkpt lat="45.46539" lon="5.76977">
        <ele>774.597297</ele>
        <time>2023-12-12T10:46:46.000Z</time>
      </trkpt>
      <trkpt lat="45.46533" lon="5.76976">
        <ele>773.951872</ele>
        <time>2023-12-12T10:46:47.000Z</time>
      </trkpt>
      <trkpt lat="45.46528" lon="5.76976">
        <ele>773.272853</ele>
        <time>2023-12-12T10:46:48.000Z</time>
      </trkpt>
      <trkpt lat="45.46523" lon="5.76974">
        <ele>772.69945</ele>
        <time>2023-12-12T10:46:49.000Z</time>
      </trkpt>
      <trkpt lat="45.46515" lon="5.76969">
        <ele>771.616602</ele>
        <time>2023-12-12T10:46:51.000Z</time>
      </trkpt>
      <trkpt lat="45.46511" lon="5.76966">
        <ele>771.007665</ele>
        <time>2023-12-12T10:46:52.000Z</time>
      </trkpt>
      <trkpt lat="45.46506" lon="5.76962">
        <ele>770.126036</ele>
        <time>2023-12-12T10:46:53.000Z</time>
      </trkpt>
      <trkpt lat="45.46502" lon="5.7696">
        <ele>769.325208</ele>
        <time>2023-12-12T10:46:54.000Z</time>
      </trkpt>
      <trkpt lat="45.46494" lon="5.76954">
        <ele>767.59601</ele>
        <time>2023-12-12T10:46:56.000Z</time>
      </trkpt>
      <trkpt lat="45.46487" lon="5.76951">
        <ele>766.357571</ele>
        <time>2023-12-12T10:46:58.000Z</time>
      </trkpt>
      <trkpt lat="45.46485" lon="5.7695">
        <ele>765.891862</ele>
        <time>2023-12-12T10:46:59.000Z</time>
      </trkpt>
      <trkpt lat="45.46483" lon="5.7695">
        <ele>765.472063</ele>
        <time>2023-12-12T10:47:00.000Z</time>
      </trkpt>
      <trkpt lat="45.46478" lon="5.76948">
        <ele>764.7113</ele>
        <time>2023-12-12T10:47:02.000Z</time>
      </trkpt>
      <trkpt lat="45.46473" lon="5.76945">
        <ele>763.534568</ele>
        <time>2023-12-12T10:47:05.000Z</time>
      </trkpt>
      <trkpt lat="45.46466" lon="5.76944">
        <ele>762.328183</ele>
        <time>2023-12-12T10:47:09.000Z</time>
      </trkpt>
      <trkpt lat="45.46463" lon="5.76942">
        <ele>761.78274</ele>
        <time>2023-12-12T10:47:10.000Z</time>
      </trkpt>
      <trkpt lat="45.4646" lon="5.76942">
        <ele>761.278749</ele>
        <time>2023-12-12T10:47:11.000Z</time>
      </trkpt>
      <trkpt lat="45.46453" lon="5.76941">
        <ele>759.963867</ele>
        <time>2023-12-12T10:47:13.000Z</time>
      </trkpt>
      <trkpt lat="45.46448" lon="5.76941">
        <ele>759.000443</ele>
        <time>2023-12-12T10:47:14.000Z</time>
      </trkpt>
      <trkpt lat="45.46442" lon="5.76941">
        <ele>758.018927</ele>
        <time>2023-12-12T10:47:15.000Z</time>
      </trkpt>
      <trkpt lat="45.46437" lon="5.7694">
        <ele>756.964012</ele>
        <time>2023-12-12T10:47:16.000Z</time>
      </trkpt>
      <trkpt lat="45.46431" lon="5.76939">
        <ele>755.912708</ele>
        <time>2023-12-12T10:47:17.000Z</time>
      </trkpt>
      <trkpt lat="45.46425" lon="5.76937">
        <ele>754.818633</ele>
        <time>2023-12-12T10:47:18.000Z</time>
      </trkpt>
      <trkpt lat="45.46419" lon="5.76934">
        <ele>753.714256</ele>
        <time>2023-12-12T10:47:19.000Z</time>
      </trkpt>
      <trkpt lat="45.46414" lon="5.76931">
        <ele>752.701479</ele>
        <time>2023-12-12T10:47:20.000Z</time>
      </trkpt>
      <trkpt lat="45.46407" lon="5.76926">
        <ele>751.300511</ele>
        <time>2023-12-12T10:47:22.000Z</time>
      </trkpt>
      <trkpt lat="45.46399" lon="5.76923">
        <ele>749.681737</ele>
        <time>2023-12-12T10:47:24.000Z</time>
      </trkpt>
      <trkpt lat="45.46395" lon="5.76922">
        <ele>748.94757</ele>
        <time>2023-12-12T10:47:25.000Z</time>
      </trkpt>
      <trkpt lat="45.46391" lon="5.76921">
        <ele>748.229473</ele>
        <time>2023-12-12T10:47:26.000Z</time>
      </trkpt>
      <trkpt lat="45.46378" lon="5.76916">
        <ele>745.726256</ele>
        <time>2023-12-12T10:47:29.000Z</time>
      </trkpt>
      <trkpt lat="45.46374" lon="5.76913">
        <ele>744.946218</ele>
        <time>2023-12-12T10:47:30.000Z</time>
      </trkpt>
      <trkpt lat="45.46371" lon="5.76909">
        <ele>744.155662</ele>
        <time>2023-12-12T10:47:31.000Z</time>
      </trkpt>
      <trkpt lat="45.46365" lon="5.76899">
        <ele>742.5578</ele>
        <time>2023-12-12T10:47:33.000Z</time>
      </trkpt>
      <trkpt lat="45.46363" lon="5.76893">
        <ele>741.689939</ele>
        <time>2023-12-12T10:47:34.000Z</time>
      </trkpt>
      <trkpt lat="45.46357" lon="5.7688">
        <ele>739.767809</ele>
        <time>2023-12-12T10:47:36.000Z</time>
      </trkpt>
      <trkpt lat="45.46352" lon="5.7687">
        <ele>738.201182</ele>
        <time>2023-12-12T10:47:38.000Z</time>
      </trkpt>
      <trkpt lat="45.46347" lon="5.76862">
        <ele>736.968251</ele>
        <time>2023-12-12T10:47:40.000Z</time>
      </trkpt>
      <trkpt lat="45.46338" lon="5.7685">
        <ele>734.792736</ele>
        <time>2023-12-12T10:47:43.000Z</time>
      </trkpt>
      <trkpt lat="45.46332" lon="5.76842">
        <ele>733.25375</ele>
        <time>2023-12-12T10:47:45.000Z</time>
      </trkpt>
      <trkpt lat="45.46327" lon="5.76837">
        <ele>732.317636</ele>
        <time>2023-12-12T10:47:46.000Z</time>
      </trkpt>
      <trkpt lat="45.46317" lon="5.76824">
        <ele>730.021058</ele>
        <time>2023-12-12T10:47:48.000Z</time>
      </trkpt>
      <trkpt lat="45.46312" lon="5.76818">
        <ele>728.862005</ele>
        <time>2023-12-12T10:47:49.000Z</time>
      </trkpt>
      <trkpt lat="45.46308" lon="5.76812">
        <ele>727.801623</ele>
        <time>2023-12-12T10:47:50.000Z</time>
      </trkpt>
      <trkpt lat="45.46304" lon="5.76805">
        <ele>726.816741</ele>
        <time>2023-12-12T10:47:51.000Z</time>
      </trkpt>
      <trkpt lat="45.46298" lon="5.76792">
        <ele>724.883148</ele>
        <time>2023-12-12T10:47:53.000Z</time>
      </trkpt>
      <trkpt lat="45.46296" lon="5.76785">
        <ele>723.995299</ele>
        <time>2023-12-12T10:47:54.000Z</time>
      </trkpt>
      <trkpt lat="45.46295" lon="5.76779">
        <ele>723.223981</ele>
        <time>2023-12-12T10:47:55.000Z</time>
      </trkpt>
      <trkpt lat="45.46294" lon="5.76774">
        <ele>722.544411</ele>
        <time>2023-12-12T10:47:56.000Z</time>
      </trkpt>
      <trkpt lat="45.46294" lon="5.76769">
        <ele>721.99753</ele>
        <time>2023-12-12T10:47:57.000Z</time>
      </trkpt>
      <trkpt lat="45.46293" lon="5.76766">
        <ele>721.570936</ele>
        <time>2023-12-12T10:47:58.000Z</time>
      </trkpt>
      <trkpt lat="45.46293" lon="5.76762">
        <ele>721.132331</ele>
        <time>2023-12-12T10:47:59.000Z</time>
      </trkpt>
      <trkpt lat="45.46292" lon="5.76756">
        <ele>720.335124</ele>
        <time>2023-12-12T10:48:01.000Z</time>
      </trkpt>
      <trkpt lat="45.4629" lon="5.76749">
        <ele>719.500893</ele>
        <time>2023-12-12T10:48:03.000Z</time>
      </trkpt>
      <trkpt lat="45.46289" lon="5.76745">
        <ele>718.914215</ele>
        <time>2023-12-12T10:48:04.000Z</time>
      </trkpt>
      <trkpt lat="45.46287" lon="5.7674">
        <ele>718.193837</ele>
        <time>2023-12-12T10:48:05.000Z</time>
      </trkpt>
      <trkpt lat="45.46286" lon="5.76735">
        <ele>717.577325</ele>
        <time>2023-12-12T10:48:06.000Z</time>
      </trkpt>
      <trkpt lat="45.46285" lon="5.76732">
        <ele>717.240388</ele>
        <time>2023-12-12T10:48:07.000Z</time>
      </trkpt>
      <trkpt lat="45.46285" lon="5.76731">
        <ele>717.108801</ele>
        <time>2023-12-12T10:48:08.000Z</time>
      </trkpt>
      <trkpt lat="45.46285" lon="5.76728">
        <ele>716.721268</ele>
        <time>2023-12-12T10:48:10.000Z</time>
      </trkpt>
      <trkpt lat="45.46283" lon="5.76718">
        <ele>715.490821</ele>
        <time>2023-12-12T10:48:15.000Z</time>
      </trkpt>
      <trkpt lat="45.46283" lon="5.76716">
        <ele>715.285148</ele>
        <time>2023-12-12T10:48:18.000Z</time>
      </trkpt>
      <trkpt lat="45.46283" lon="5.76716">
        <ele>715.235073</ele>
        <time>2023-12-12T10:48:26.000Z</time>
      </trkpt>
      <trkpt lat="45.46283" lon="5.76716">
        <ele>715.184998</ele>
        <time>2023-12-12T10:48:33.000Z</time>
      </trkpt>
      <trkpt lat="45.46283" lon="5.76716">
        <ele>715.131853</ele>
        <time>2023-12-12T10:48:34.000Z</time>
      </trkpt>
      <trkpt lat="45.46282" lon="5.76715">
        <ele>714.955009</ele>
        <time>2023-12-12T10:48:36.000Z</time>
      </trkpt>
      <trkpt lat="45.46281" lon="5.7671">
        <ele>714.315654</ele>
        <time>2023-12-12T10:48:41.000Z</time>
      </trkpt>
      <trkpt lat="45.4628" lon="5.76709">
        <ele>714.057966</ele>
        <time>2023-12-12T10:48:46.000Z</time>
      </trkpt>
      <trkpt lat="45.4628" lon="5.76709">
        <ele>714.057966</ele>
        <time>2023-12-12T10:48:47.000Z</time>
      </trkpt>
      <trkpt lat="45.4628" lon="5.76709">
        <ele>714.021407</ele>
        <time>2023-12-12T10:48:51.000Z</time>
      </trkpt>
      <trkpt lat="45.4628" lon="5.76709">
        <ele>714.021407</ele>
        <time>2023-12-12T10:48:52.000Z</time>
      </trkpt>
      <trkpt lat="45.4628" lon="5.76709">
        <ele>714.021407</ele>
        <time>2023-12-12T10:49:03.000Z</time>
      </trkpt>
      <trkpt lat="45.4628" lon="5.76709">
        <ele>714.021407</ele>
        <time>2023-12-12T10:49:08.000Z</time>
      </trkpt>
      <trkpt lat="45.4628" lon="5.76708">
        <ele>713.99721</ele>
        <time>2023-12-12T10:49:11.000Z</time>
      </trkpt>
      <trkpt lat="45.4628" lon="5.76708">
        <ele>713.99721</ele>
        <time>2023-12-12T10:49:20.000Z</time>
      </trkpt>
      <trkpt lat="45.46278" lon="5.76707">
        <ele>713.659398</ele>
        <time>2023-12-12T10:49:27.000Z</time>
      </trkpt>
      <trkpt lat="45.46277" lon="5.76707">
        <ele>713.50368</ele>
        <time>2023-12-12T10:49:35.000Z</time>
      </trkpt>
      <trkpt lat="45.46277" lon="5.76707">
        <ele>713.446554</ele>
        <time>2023-12-12T10:49:38.000Z</time>
      </trkpt>
      <trkpt lat="45.46278" lon="5.76695">
        <ele>711.993822</ele>
        <time>2023-12-12T10:49:46.000Z</time>
      </trkpt>
      <trkpt lat="45.46277" lon="5.7669">
        <ele>711.368183</ele>
        <time>2023-12-12T10:49:47.000Z</time>
      </trkpt>
      <trkpt lat="45.46278" lon="5.76682">
        <ele>710.322584</ele>
        <time>2023-12-12T10:49:49.000Z</time>
      </trkpt>
      <trkpt lat="45.46279" lon="5.76678">
        <ele>709.791264</ele>
        <time>2023-12-12T10:49:50.000Z</time>
      </trkpt>
      <trkpt lat="45.46284" lon="5.76652">
        <ele>707.353267</ele>
        <time>2023-12-12T10:49:54.000Z</time>
      </trkpt>
      <trkpt lat="45.46289" lon="5.76641">
        <ele>707.352208</ele>
        <time>2023-12-12T10:49:56.000Z</time>
      </trkpt>
      <trkpt lat="45.46291" lon="5.76637">
        <ele>707.351829</ele>
        <time>2023-12-12T10:49:57.000Z</time>
      </trkpt>
      <trkpt lat="45.46292" lon="5.76634">
        <ele>707.351598</ele>
        <time>2023-12-12T10:49:58.000Z</time>
      </trkpt>
      <trkpt lat="45.46292" lon="5.76632">
        <ele>707.351474</ele>
        <time>2023-12-12T10:49:59.000Z</time>
      </trkpt>
      <trkpt lat="45.46291" lon="5.76632">
        <ele>707.351375</ele>
        <time>2023-12-12T10:50:00.000Z</time>
      </trkpt>
      <trkpt lat="45.46291" lon="5.76633">
        <ele>707.351305</ele>
        <time>2023-12-12T10:50:01.000Z</time>
      </trkpt>
      <trkpt lat="45.46286" lon="5.76649">
        <ele>707.349973</ele>
        <time>2023-12-12T10:50:05.000Z</time>
      </trkpt>
      <trkpt lat="45.46278" lon="5.76676">
        <ele>707.347668</ele>
        <time>2023-12-12T10:50:10.000Z</time>
      </trkpt>
      <trkpt lat="45.46276" lon="5.76681">
        <ele>707.347219</ele>
        <time>2023-12-12T10:50:11.000Z</time>
      </trkpt>
      <trkpt lat="45.46275" lon="5.76687">
        <ele>707.346782</ele>
        <time>2023-12-12T10:50:12.000Z</time>
      </trkpt>
      <trkpt lat="45.46269" lon="5.76702">
        <ele>707.345454</ele>
        <time>2023-12-12T10:50:15.000Z</time>
      </trkpt>
      <trkpt lat="45.46263" lon="5.76715">
        <ele>707.344204</ele>
        <time>2023-12-12T10:50:18.000Z</time>
      </trkpt>
      <trkpt lat="45.4626" lon="5.76719">
        <ele>707.343812</ele>
        <time>2023-12-12T10:50:19.000Z</time>
      </trkpt>
      <trkpt lat="45.46258" lon="5.76723">
        <ele>707.343452</ele>
        <time>2023-12-12T10:50:20.000Z</time>
      </trkpt>
      <trkpt lat="45.46252" lon="5.76735">
        <ele>707.342265</ele>
        <time>2023-12-12T10:50:23.000Z</time>
      </trkpt>
      <trkpt lat="45.46244" lon="5.76748">
        <ele>707.340967</ele>
        <time>2023-12-12T10:50:26.000Z</time>
      </trkpt>
      <trkpt lat="45.4624" lon="5.76756">
        <ele>707.340143</ele>
        <time>2023-12-12T10:50:28.000Z</time>
      </trkpt>
      <trkpt lat="45.4623" lon="5.76773">
        <ele>707.338465</ele>
        <time>2023-12-12T10:50:32.000Z</time>
      </trkpt>
      <trkpt lat="45.46228" lon="5.76776">
        <ele>707.338131</ele>
        <time>2023-12-12T10:50:33.000Z</time>
      </trkpt>
      <trkpt lat="45.46226" lon="5.76779">
        <ele>707.337843</ele>
        <time>2023-12-12T10:50:34.000Z</time>
      </trkpt>
      <trkpt lat="45.46224" lon="5.7678">
        <ele>707.337611</ele>
        <time>2023-12-12T10:50:35.000Z</time>
      </trkpt>
      <trkpt lat="45.46214" lon="5.76786">
        <ele>707.336389</ele>
        <time>2023-12-12T10:50:39.000Z</time>
      </trkpt>
      <trkpt lat="45.46198" lon="5.76789">
        <ele>707.334684</ele>
        <time>2023-12-12T10:50:42.000Z</time>
      </trkpt>
      <trkpt lat="45.46192" lon="5.7679">
        <ele>707.33399</ele>
        <time>2023-12-12T10:50:43.000Z</time>
      </trkpt>
      <trkpt lat="45.46185" lon="5.76793">
        <ele>706.609016</ele>
        <time>2023-12-12T10:50:44.000Z</time>
      </trkpt>
      <trkpt lat="45.46179" lon="5.76795">
        <ele>705.837324</ele>
        <time>2023-12-12T10:50:45.000Z</time>
      </trkpt>
      <trkpt lat="45.46172" lon="5.76798">
        <ele>705.108113</ele>
        <time>2023-12-12T10:50:46.000Z</time>
      </trkpt>
      <trkpt lat="45.4616" lon="5.76804">
        <ele>703.718477</ele>
        <time>2023-12-12T10:50:48.000Z</time>
      </trkpt>
      <trkpt lat="45.46154" lon="5.76806">
        <ele>703.045572</ele>
        <time>2023-12-12T10:50:49.000Z</time>
      </trkpt>
      <trkpt lat="45.46137" lon="5.76815">
        <ele>700.981852</ele>
        <time>2023-12-12T10:50:52.000Z</time>
      </trkpt>
      <trkpt lat="45.4613" lon="5.76818">
        <ele>700.262369</ele>
        <time>2023-12-12T10:50:53.000Z</time>
      </trkpt>
      <trkpt lat="45.46125" lon="5.76821">
        <ele>699.599402</ele>
        <time>2023-12-12T10:50:54.000Z</time>
      </trkpt>
      <trkpt lat="45.46119" lon="5.76825">
        <ele>698.94749</ele>
        <time>2023-12-12T10:50:55.000Z</time>
      </trkpt>
      <trkpt lat="45.46114" lon="5.76828">
        <ele>698.305376</ele>
        <time>2023-12-12T10:50:56.000Z</time>
      </trkpt>
      <trkpt lat="45.46109" lon="5.76831">
        <ele>697.706224</ele>
        <time>2023-12-12T10:50:57.000Z</time>
      </trkpt>
      <trkpt lat="45.46102" lon="5.76833">
        <ele>696.862008</ele>
        <time>2023-12-12T10:50:59.000Z</time>
      </trkpt>
      <trkpt lat="45.46099" lon="5.76833">
        <ele>696.552777</ele>
        <time>2023-12-12T10:51:00.000Z</time>
      </trkpt>
      <trkpt lat="45.46096" lon="5.76834">
        <ele>696.2447</ele>
        <time>2023-12-12T10:51:01.000Z</time>
      </trkpt>
      <trkpt lat="45.4609" lon="5.76834">
        <ele>695.596352</ele>
        <time>2023-12-12T10:51:03.000Z</time>
      </trkpt>
      <trkpt lat="45.46087" lon="5.76833">
        <ele>695.276835</ele>
        <time>2023-12-12T10:51:04.000Z</time>
      </trkpt>
      <trkpt lat="45.46078" lon="5.76834">
        <ele>694.210461</ele>
        <time>2023-12-12T10:51:07.000Z</time>
      </trkpt>
      <trkpt lat="45.46071" lon="5.76833">
        <ele>693.479317</ele>
        <time>2023-12-12T10:51:09.000Z</time>
      </trkpt>
      <trkpt lat="45.46068" lon="5.76831">
        <ele>693.105404</ele>
        <time>2023-12-12T10:51:10.000Z</time>
      </trkpt>
      <trkpt lat="45.46064" lon="5.76828">
        <ele>692.635509</ele>
        <time>2023-12-12T10:51:11.000Z</time>
      </trkpt>
      <trkpt lat="45.46055" lon="5.76822">
        <ele>691.497342</ele>
        <time>2023-12-12T10:51:13.000Z</time>
      </trkpt>
      <trkpt lat="45.46049" lon="5.76819">
        <ele>690.870705</ele>
        <time>2023-12-12T10:51:14.000Z</time>
      </trkpt>
      <trkpt lat="45.46044" lon="5.76816">
        <ele>690.211175</ele>
        <time>2023-12-12T10:51:15.000Z</time>
      </trkpt>
      <trkpt lat="45.46037" lon="5.76815">
        <ele>689.47792</ele>
        <time>2023-12-12T10:51:16.000Z</time>
      </trkpt>
      <trkpt lat="45.4603" lon="5.76814">
        <ele>688.705572</ele>
        <time>2023-12-12T10:51:17.000Z</time>
      </trkpt>
      <trkpt lat="45.46024" lon="5.76813">
        <ele>687.998867</ele>
        <time>2023-12-12T10:51:18.000Z</time>
      </trkpt>
      <trkpt lat="45.46018" lon="5.76812">
        <ele>687.34333</ele>
        <time>2023-12-12T10:51:19.000Z</time>
      </trkpt>
      <trkpt lat="45.46015" lon="5.76812">
        <ele>686.726639</ele>
        <time>2023-12-12T10:51:20.000Z</time>
      </trkpt>
      <trkpt lat="45.46013" lon="5.76812">
        <ele>686.349844</ele>
        <time>2023-12-12T10:51:21.000Z</time>
      </trkpt>
      <trkpt lat="45.46011" lon="5.76811">
        <ele>686.002965</ele>
        <time>2023-12-12T10:51:22.000Z</time>
      </trkpt>
      <trkpt lat="45.46007" lon="5.76806">
        <ele>685.128487</ele>
        <time>2023-12-12T10:51:24.000Z</time>
      </trkpt>
      <trkpt lat="45.46" lon="5.76784">
        <ele>682.160892</ele>
        <time>2023-12-12T10:51:29.000Z</time>
      </trkpt>
      <trkpt lat="45.45999" lon="5.76778">
        <ele>681.486203</ele>
        <time>2023-12-12T10:51:30.000Z</time>
      </trkpt>
      <trkpt lat="45.46" lon="5.76757">
        <ele>678.971742</ele>
        <time>2023-12-12T10:51:35.000Z</time>
      </trkpt>
      <trkpt lat="45.46006" lon="5.76734">
        <ele>675.961932</ele>
        <time>2023-12-12T10:51:39.000Z</time>
      </trkpt>
      <trkpt lat="45.46007" lon="5.76728">
        <ele>675.269988</ele>
        <time>2023-12-12T10:51:40.000Z</time>
      </trkpt>
      <trkpt lat="45.46007" lon="5.76719">
        <ele>674.128238</ele>
        <time>2023-12-12T10:51:42.000Z</time>
      </trkpt>
      <trkpt lat="45.46001" lon="5.76701">
        <ele>671.730007</ele>
        <time>2023-12-12T10:51:45.000Z</time>
      </trkpt>
      <trkpt lat="45.45998" lon="5.76695">
        <ele>671.009186</ele>
        <time>2023-12-12T10:51:46.000Z</time>
      </trkpt>
      <trkpt lat="45.45997" lon="5.76691">
        <ele>670.395768</ele>
        <time>2023-12-12T10:51:47.000Z</time>
      </trkpt>
      <trkpt lat="45.45996" lon="5.76686">
        <ele>669.783609</ele>
        <time>2023-12-12T10:51:48.000Z</time>
      </trkpt>
      <trkpt lat="45.45995" lon="5.7668">
        <ele>669.066111</ele>
        <time>2023-12-12T10:51:49.000Z</time>
      </trkpt>
      <trkpt lat="45.45994" lon="5.76673">
        <ele>668.207017</ele>
        <time>2023-12-12T10:51:50.000Z</time>
      </trkpt>
      <trkpt lat="45.45994" lon="5.76665">
        <ele>667.279479</ele>
        <time>2023-12-12T10:51:51.000Z</time>
      </trkpt>
      <trkpt lat="45.45994" lon="5.76659">
        <ele>666.484954</ele>
        <time>2023-12-12T10:51:52.000Z</time>
      </trkpt>
      <trkpt lat="45.45993" lon="5.76654">
        <ele>665.943283</ele>
        <time>2023-12-12T10:51:53.000Z</time>
      </trkpt>
      <trkpt lat="45.45994" lon="5.76652">
        <ele>665.630986</ele>
        <time>2023-12-12T10:51:54.000Z</time>
      </trkpt>
      <trkpt lat="45.45996" lon="5.76648">
        <ele>665.021108</ele>
        <time>2023-12-12T10:51:58.000Z</time>
      </trkpt>
      <trkpt lat="45.45996" lon="5.76647">
        <ele>664.932591</ele>
        <time>2023-12-12T10:51:59.000Z</time>
      </trkpt>
      <trkpt lat="45.45996" lon="5.76642">
        <ele>664.280279</ele>
        <time>2023-12-12T10:52:01.000Z</time>
      </trkpt>
      <trkpt lat="45.45994" lon="5.76632">
        <ele>663.118278</ele>
        <time>2023-12-12T10:52:03.000Z</time>
      </trkpt>
      <trkpt lat="45.45993" lon="5.76629">
        <ele>662.644654</ele>
        <time>2023-12-12T10:52:04.000Z</time>
      </trkpt>
      <trkpt lat="45.45991" lon="5.76625">
        <ele>662.133226</ele>
        <time>2023-12-12T10:52:05.000Z</time>
      </trkpt>
      <trkpt lat="45.45989" lon="5.76616">
        <ele>660.98777</ele>
        <time>2023-12-12T10:52:07.000Z</time>
      </trkpt>
      <trkpt lat="45.45988" lon="5.76611">
        <ele>660.37839</ele>
        <time>2023-12-12T10:52:08.000Z</time>
      </trkpt>
      <trkpt lat="45.45988" lon="5.76606">
        <ele>659.664465</ele>
        <time>2023-12-12T10:52:09.000Z</time>
      </trkpt>
      <trkpt lat="45.45986" lon="5.76591">
        <ele>657.915612</ele>
        <time>2023-12-12T10:52:11.000Z</time>
      </trkpt>
      <trkpt lat="45.45984" lon="5.76584">
        <ele>656.957316</ele>
        <time>2023-12-12T10:52:12.000Z</time>
      </trkpt>
      <trkpt lat="45.45982" lon="5.76577">
        <ele>656.185851</ele>
        <time>2023-12-12T10:52:13.000Z</time>
      </trkpt>
      <trkpt lat="45.45979" lon="5.76564">
        <ele>654.814068</ele>
        <time>2023-12-12T10:52:15.000Z</time>
      </trkpt>
      <trkpt lat="45.45975" lon="5.76551">
        <ele>653.478551</ele>
        <time>2023-12-12T10:52:17.000Z</time>
      </trkpt>
      <trkpt lat="45.45973" lon="5.76545">
        <ele>652.759906</ele>
        <time>2023-12-12T10:52:18.000Z</time>
      </trkpt>
      <trkpt lat="45.45971" lon="5.76538">
        <ele>652.079375</ele>
        <time>2023-12-12T10:52:19.000Z</time>
      </trkpt>
      <trkpt lat="45.4597" lon="5.76533">
        <ele>651.54266</ele>
        <time>2023-12-12T10:52:20.000Z</time>
      </trkpt>
      <trkpt lat="45.45967" lon="5.76525">
        <ele>650.625054</ele>
        <time>2023-12-12T10:52:22.000Z</time>
      </trkpt>
      <trkpt lat="45.45965" lon="5.76521">
        <ele>650.188251</ele>
        <time>2023-12-12T10:52:23.000Z</time>
      </trkpt>
      <trkpt lat="45.4596" lon="5.76515">
        <ele>649.234421</ele>
        <time>2023-12-12T10:52:25.000Z</time>
      </trkpt>
      <trkpt lat="45.45957" lon="5.76512">
        <ele>648.686805</ele>
        <time>2023-12-12T10:52:26.000Z</time>
      </trkpt>
      <trkpt lat="45.45952" lon="5.7651">
        <ele>648.020559</ele>
        <time>2023-12-12T10:52:27.000Z</time>
      </trkpt>
      <trkpt lat="45.45947" lon="5.76508">
        <ele>647.269884</ele>
        <time>2023-12-12T10:52:28.000Z</time>
      </trkpt>
      <trkpt lat="45.45934" lon="5.76507">
        <ele>645.488079</ele>
        <time>2023-12-12T10:52:30.000Z</time>
      </trkpt>
      <trkpt lat="45.45927" lon="5.76506">
        <ele>644.502675</ele>
        <time>2023-12-12T10:52:31.000Z</time>
      </trkpt>
      <trkpt lat="45.45921" lon="5.76507">
        <ele>643.58759</ele>
        <time>2023-12-12T10:52:32.000Z</time>
      </trkpt>
      <trkpt lat="45.45911" lon="5.76508">
        <ele>642.185654</ele>
        <time>2023-12-12T10:52:34.000Z</time>
      </trkpt>
      <trkpt lat="45.45907" lon="5.76509">
        <ele>641.634677</ele>
        <time>2023-12-12T10:52:35.000Z</time>
      </trkpt>
      <trkpt lat="45.4589" lon="5.76508">
        <ele>639.270033</ele>
        <time>2023-12-12T10:52:40.000Z</time>
      </trkpt>
      <trkpt lat="45.45886" lon="5.76507">
        <ele>638.696824</ele>
        <time>2023-12-12T10:52:41.000Z</time>
      </trkpt>
      <trkpt lat="45.45881" lon="5.76505">
        <ele>637.911311</ele>
        <time>2023-12-12T10:52:43.000Z</time>
      </trkpt>
      <trkpt lat="45.45881" lon="5.76503">
        <ele>637.738299</ele>
        <time>2023-12-12T10:52:44.000Z</time>
      </trkpt>
      <trkpt lat="45.45882" lon="5.76501">
        <ele>637.560076</ele>
        <time>2023-12-12T10:52:45.000Z</time>
      </trkpt>
      <trkpt lat="45.45888" lon="5.76498">
        <ele>636.59754</ele>
        <time>2023-12-12T10:52:49.000Z</time>
      </trkpt>
      <trkpt lat="45.45898" lon="5.76492">
        <ele>635.022571</ele>
        <time>2023-12-12T10:52:52.000Z</time>
      </trkpt>
      <trkpt lat="45.45906" lon="5.76488">
        <ele>633.818162</ele>
        <time>2023-12-12T10:52:54.000Z</time>
      </trkpt>
      <trkpt lat="45.45925" lon="5.7648">
        <ele>631.397133</ele>
        <time>2023-12-12T10:52:58.000Z</time>
      </trkpt>
      <trkpt lat="45.45929" lon="5.76478">
        <ele>631.265936</ele>
        <time>2023-12-12T10:52:59.000Z</time>
      </trkpt>
      <trkpt lat="45.45939" lon="5.76475">
        <ele>631.020317</ele>
        <time>2023-12-12T10:53:01.000Z</time>
      </trkpt>
      <trkpt lat="45.45944" lon="5.76474">
        <ele>630.899208</ele>
        <time>2023-12-12T10:53:02.000Z</time>
      </trkpt>
      <trkpt lat="45.45953" lon="5.76472">
        <ele>630.664329</ele>
        <time>2023-12-12T10:53:04.000Z</time>
      </trkpt>
      <trkpt lat="45.45958" lon="5.76471">
        <ele>630.536436</ele>
        <time>2023-12-12T10:53:05.000Z</time>
      </trkpt>
      <trkpt lat="45.45989" lon="5.7647">
        <ele>629.726419</ele>
        <time>2023-12-12T10:53:11.000Z</time>
      </trkpt>
      <trkpt lat="45.46" lon="5.76469">
        <ele>629.444805</ele>
        <time>2023-12-12T10:53:13.000Z</time>
      </trkpt>
      <trkpt lat="45.46009" lon="5.76468">
        <ele>629.211964</ele>
        <time>2023-12-12T10:53:16.000Z</time>
      </trkpt>
      <trkpt lat="45.46011" lon="5.76467">
        <ele>629.17114</ele>
        <time>2023-12-12T10:53:17.000Z</time>
      </trkpt>
      <trkpt lat="45.46013" lon="5.76466">
        <ele>629.112169</ele>
        <time>2023-12-12T10:53:22.000Z</time>
      </trkpt>
      <trkpt lat="45.46014" lon="5.76466">
        <ele>629.099274</ele>
        <time>2023-12-12T10:53:31.000Z</time>
      </trkpt>
      <trkpt lat="45.46016" lon="5.76467">
        <ele>629.043859</ele>
        <time>2023-12-12T10:53:42.000Z</time>
      </trkpt>
      <trkpt lat="45.46026" lon="5.7646">
        <ele>628.738615</ele>
        <time>2023-12-12T10:53:52.000Z</time>
      </trkpt>
      <trkpt lat="45.46042" lon="5.76452">
        <ele>628.318234</ele>
        <time>2023-12-12T10:53:57.000Z</time>
      </trkpt>
      <trkpt lat="45.46056" lon="5.76445">
        <ele>627.925421</ele>
        <time>2023-12-12T10:54:02.000Z</time>
      </trkpt>
      <trkpt lat="45.46072" lon="5.76441">
        <ele>627.515909</ele>
        <time>2023-12-12T10:54:09.000Z</time>
      </trkpt>
      <trkpt lat="45.46076" lon="5.76438">
        <ele>627.400993</ele>
        <time>2023-12-12T10:54:16.000Z</time>
      </trkpt>
      <trkpt lat="45.46079" lon="5.76437">
        <ele>627.318313</ele>
        <time>2023-12-12T10:54:22.000Z</time>
      </trkpt>
      <trkpt lat="45.46087" lon="5.76433">
        <ele>627.098679</ele>
        <time>2023-12-12T10:54:27.000Z</time>
      </trkpt>
      <trkpt lat="45.46103" lon="5.76422">
        <ele>626.474311</ele>
        <time>2023-12-12T10:54:32.000Z</time>
      </trkpt>
      <trkpt lat="45.46126" lon="5.76413">
        <ele>625.386127</ele>
        <time>2023-12-12T10:54:38.000Z</time>
      </trkpt>
      <trkpt lat="45.46153" lon="5.76408">
        <ele>624.111947</ele>
        <time>2023-12-12T10:54:45.000Z</time>
      </trkpt>
      <trkpt lat="45.4616" lon="5.76403">
        <ele>623.743782</ele>
        <time>2023-12-12T10:54:47.000Z</time>
      </trkpt>
      <trkpt lat="45.46163" lon="5.76399">
        <ele>623.544249</ele>
        <time>2023-12-12T10:54:48.000Z</time>
      </trkpt>
      <trkpt lat="45.46169" lon="5.76394">
        <ele>623.203841</ele>
        <time>2023-12-12T10:54:50.000Z</time>
      </trkpt>
      <trkpt lat="45.46175" lon="5.7638">
        <ele>622.686164</ele>
        <time>2023-12-12T10:54:53.000Z</time>
      </trkpt>
      <trkpt lat="45.46176" lon="5.76375">
        <ele>622.505571</ele>
        <time>2023-12-12T10:54:54.000Z</time>
      </trkpt>
      <trkpt lat="45.46174" lon="5.76368">
        <ele>622.282979</ele>
        <time>2023-12-12T10:54:55.000Z</time>
      </trkpt>
      <trkpt lat="45.46172" lon="5.76363">
        <ele>622.069303</ele>
        <time>2023-12-12T10:54:56.000Z</time>
      </trkpt>
      <trkpt lat="45.4617" lon="5.76358">
        <ele>621.873583</ele>
        <time>2023-12-12T10:54:57.000Z</time>
      </trkpt>
      <trkpt lat="45.46155" lon="5.76346">
        <ele>621.082074</ele>
        <time>2023-12-12T10:55:01.000Z</time>
      </trkpt>
      <trkpt lat="45.46147" lon="5.76339">
        <ele>620.659593</ele>
        <time>2023-12-12T10:55:03.000Z</time>
      </trkpt>
      <trkpt lat="45.46128" lon="5.7633">
        <ele>619.704953</ele>
        <time>2023-12-12T10:55:08.000Z</time>
      </trkpt>
      <trkpt lat="45.46115" lon="5.76323">
        <ele>619.072374</ele>
        <time>2023-12-12T10:55:11.000Z</time>
      </trkpt>
      <trkpt lat="45.46102" lon="5.76313">
        <ele>618.394587</ele>
        <time>2023-12-12T10:55:14.000Z</time>
      </trkpt>
      <trkpt lat="45.46092" lon="5.76307">
        <ele>618.034163</ele>
        <time>2023-12-12T10:55:16.000Z</time>
      </trkpt>
      <trkpt lat="45.46079" lon="5.76294">
        <ele>617.485417</ele>
        <time>2023-12-12T10:55:19.000Z</time>
      </trkpt>
      <trkpt lat="45.46075" lon="5.76289">
        <ele>617.307709</ele>
        <time>2023-12-12T10:55:20.000Z</time>
      </trkpt>
      <trkpt lat="45.46067" lon="5.76277">
        <ele>616.90191</ele>
        <time>2023-12-12T10:55:22.000Z</time>
      </trkpt>
      <trkpt lat="45.46058" lon="5.76265">
        <ele>616.495315</ele>
        <time>2023-12-12T10:55:24.000Z</time>
      </trkpt>
      <trkpt lat="45.46054" lon="5.76259">
        <ele>616.287862</ele>
        <time>2023-12-12T10:55:25.000Z</time>
      </trkpt>
      <trkpt lat="45.46041" lon="5.76233">
        <ele>615.519885</ele>
        <time>2023-12-12T10:55:29.000Z</time>
      </trkpt>
      <trkpt lat="45.46028" lon="5.76202">
        <ele>614.663358</ele>
        <time>2023-12-12T10:55:34.000Z</time>
      </trkpt>
      <trkpt lat="45.46022" lon="5.76191">
        <ele>614.324806</ele>
        <time>2023-12-12T10:55:36.000Z</time>
      </trkpt>
      <trkpt lat="45.4601" lon="5.76165">
        <ele>613.570423</ele>
        <time>2023-12-12T10:55:41.000Z</time>
      </trkpt>
      <trkpt lat="45.45996" lon="5.7614">
        <ele>612.803603</ele>
        <time>2023-12-12T10:55:46.000Z</time>
      </trkpt>
      <trkpt lat="45.45987" lon="5.76123">
        <ele>612.277019</ele>
        <time>2023-12-12T10:55:49.000Z</time>
      </trkpt>
      <trkpt lat="45.45975" lon="5.76102">
        <ele>610.216931</ele>
        <time>2023-12-12T10:55:53.000Z</time>
      </trkpt>
      <trkpt lat="45.45955" lon="5.76072">
        <ele>607.121821</ele>
        <time>2023-12-12T10:55:59.000Z</time>
      </trkpt>
      <trkpt lat="45.45948" lon="5.7606">
        <ele>605.941549</ele>
        <time>2023-12-12T10:56:01.000Z</time>
      </trkpt>
      <trkpt lat="45.45945" lon="5.76054">
        <ele>605.384082</ele>
        <time>2023-12-12T10:56:02.000Z</time>
      </trkpt>
      <trkpt lat="45.4594" lon="5.76043">
        <ele>604.348023</ele>
        <time>2023-12-12T10:56:04.000Z</time>
      </trkpt>
      <trkpt lat="45.45936" lon="5.76024">
        <ele>602.8696</ele>
        <time>2023-12-12T10:56:07.000Z</time>
      </trkpt>
      <trkpt lat="45.45933" lon="5.76012">
        <ele>601.847747</ele>
        <time>2023-12-12T10:56:09.000Z</time>
      </trkpt>
      <trkpt lat="45.4593" lon="5.76005">
        <ele>601.240776</ele>
        <time>2023-12-12T10:56:10.000Z</time>
      </trkpt>
      <trkpt lat="45.45926" lon="5.75998">
        <ele>600.601844</ele>
        <time>2023-12-12T10:56:11.000Z</time>
      </trkpt>
      <trkpt lat="45.45921" lon="5.75991">
        <ele>599.89487</ele>
        <time>2023-12-12T10:56:12.000Z</time>
      </trkpt>
      <trkpt lat="45.45917" lon="5.75985">
        <ele>599.159971</ele>
        <time>2023-12-12T10:56:13.000Z</time>
      </trkpt>
      <trkpt lat="45.45911" lon="5.75977">
        <ele>598.352012</ele>
        <time>2023-12-12T10:56:14.000Z</time>
      </trkpt>
      <trkpt lat="45.45905" lon="5.7597">
        <ele>597.480248</ele>
        <time>2023-12-12T10:56:15.000Z</time>
      </trkpt>
      <trkpt lat="45.45898" lon="5.75963">
        <ele>596.562517</ele>
        <time>2023-12-12T10:56:16.000Z</time>
      </trkpt>
      <trkpt lat="45.45891" lon="5.75956">
        <ele>595.600855</ele>
        <time>2023-12-12T10:56:17.000Z</time>
      </trkpt>
      <trkpt lat="45.45883" lon="5.75949">
        <ele>594.598032</ele>
        <time>2023-12-12T10:56:18.000Z</time>
      </trkpt>
      <trkpt lat="45.45874" lon="5.75942">
        <ele>593.562162</ele>
        <time>2023-12-12T10:56:19.000Z</time>
      </trkpt>
      <trkpt lat="45.45866" lon="5.75935">
        <ele>592.389266</ele>
        <time>2023-12-12T10:56:20.000Z</time>
      </trkpt>
      <trkpt lat="45.45848" lon="5.75922">
        <ele>589.709536</ele>
        <time>2023-12-12T10:56:22.000Z</time>
      </trkpt>
      <trkpt lat="45.4584" lon="5.75917">
        <ele>588.462586</ele>
        <time>2023-12-12T10:56:23.000Z</time>
      </trkpt>
      <trkpt lat="45.45832" lon="5.75911">
        <ele>587.232119</ele>
        <time>2023-12-12T10:56:24.000Z</time>
      </trkpt>
      <trkpt lat="45.45817" lon="5.759">
        <ele>584.905547</ele>
        <time>2023-12-12T10:56:26.000Z</time>
      </trkpt>
      <trkpt lat="45.45811" lon="5.75894">
        <ele>583.853711</ele>
        <time>2023-12-12T10:56:27.000Z</time>
      </trkpt>
      <trkpt lat="45.45805" lon="5.75886">
        <ele>582.77555</ele>
        <time>2023-12-12T10:56:28.000Z</time>
      </trkpt>
      <trkpt lat="45.45798" lon="5.75876">
        <ele>581.454301</ele>
        <time>2023-12-12T10:56:29.000Z</time>
      </trkpt>
      <trkpt lat="45.45791" lon="5.7586">
        <ele>579.671381</ele>
        <time>2023-12-12T10:56:31.000Z</time>
      </trkpt>
      <trkpt lat="45.45788" lon="5.75853">
        <ele>578.836754</ele>
        <time>2023-12-12T10:56:32.000Z</time>
      </trkpt>
      <trkpt lat="45.45781" lon="5.75837">
        <ele>577.014196</ele>
        <time>2023-12-12T10:56:34.000Z</time>
      </trkpt>
      <trkpt lat="45.4577" lon="5.75826">
        <ele>575.210788</ele>
        <time>2023-12-12T10:56:36.000Z</time>
      </trkpt>
      <trkpt lat="45.45764" lon="5.75822">
        <ele>574.261074</ele>
        <time>2023-12-12T10:56:37.000Z</time>
      </trkpt>
      <trkpt lat="45.45756" lon="5.7582">
        <ele>573.197085</ele>
        <time>2023-12-12T10:56:38.000Z</time>
      </trkpt>
      <trkpt lat="45.45748" lon="5.75819">
        <ele>572.055769</ele>
        <time>2023-12-12T10:56:39.000Z</time>
      </trkpt>
      <trkpt lat="45.45739" lon="5.75818">
        <ele>570.933924</ele>
        <time>2023-12-12T10:56:40.000Z</time>
      </trkpt>
      <trkpt lat="45.45731" lon="5.75818">
        <ele>569.840399</ele>
        <time>2023-12-12T10:56:41.000Z</time>
      </trkpt>
      <trkpt lat="45.45716" lon="5.75817">
        <ele>567.79523</ele>
        <time>2023-12-12T10:56:43.000Z</time>
      </trkpt>
      <trkpt lat="45.45709" lon="5.75817">
        <ele>566.845298</ele>
        <time>2023-12-12T10:56:44.000Z</time>
      </trkpt>
      <trkpt lat="45.45696" lon="5.75814">
        <ele>565.025276</ele>
        <time>2023-12-12T10:56:46.000Z</time>
      </trkpt>
      <trkpt lat="45.45682" lon="5.75808">
        <ele>562.977529</ele>
        <time>2023-12-12T10:56:48.000Z</time>
      </trkpt>
      <trkpt lat="45.45674" lon="5.75803">
        <ele>561.823191</ele>
        <time>2023-12-12T10:56:49.000Z</time>
      </trkpt>
      <trkpt lat="45.45666" lon="5.75798">
        <ele>560.727659</ele>
        <time>2023-12-12T10:56:50.000Z</time>
      </trkpt>
      <trkpt lat="45.4566" lon="5.75793">
        <ele>559.756875</ele>
        <time>2023-12-12T10:56:51.000Z</time>
      </trkpt>
      <trkpt lat="45.45651" lon="5.75785">
        <ele>558.289177</ele>
        <time>2023-12-12T10:56:53.000Z</time>
      </trkpt>
      <trkpt lat="45.45648" lon="5.7578">
        <ele>557.668024</ele>
        <time>2023-12-12T10:56:55.000Z</time>
      </trkpt>
      <trkpt lat="45.45647" lon="5.75779">
        <ele>557.506853</ele>
        <time>2023-12-12T10:56:56.000Z</time>
      </trkpt>
      <trkpt lat="45.45646" lon="5.75776">
        <ele>557.219416</ele>
        <time>2023-12-12T10:56:58.000Z</time>
      </trkpt>
      <trkpt lat="45.45639" lon="5.75774">
        <ele>556.311145</ele>
        <time>2023-12-12T10:57:01.000Z</time>
      </trkpt>
      <trkpt lat="45.45633" lon="5.75771">
        <ele>555.426541</ele>
        <time>2023-12-12T10:57:03.000Z</time>
      </trkpt>
      <trkpt lat="45.45631" lon="5.7577">
        <ele>555.068147</ele>
        <time>2023-12-12T10:57:05.000Z</time>
      </trkpt>
      <trkpt lat="45.45631" lon="5.75769">
        <ele>555.021537</ele>
        <time>2023-12-12T10:57:09.000Z</time>
      </trkpt>
      <trkpt lat="45.45631" lon="5.75769">
        <ele>555.012049</ele>
        <time>2023-12-12T10:57:10.000Z</time>
      </trkpt>
      <trkpt lat="45.45631" lon="5.75769">
        <ele>555.00256</ele>
        <time>2023-12-12T10:57:26.000Z</time>
      </trkpt>
      <trkpt lat="45.45631" lon="5.75769">
        <ele>555.00256</ele>
        <time>2023-12-12T10:57:29.000Z</time>
      </trkpt>
      <trkpt lat="45.45624" lon="5.75767">
        <ele>554.089346</ele>
        <time>2023-12-12T10:57:32.000Z</time>
      </trkpt>
      <trkpt lat="45.45616" lon="5.75762">
        <ele>552.916807</ele>
        <time>2023-12-12T10:57:34.000Z</time>
      </trkpt>
      <trkpt lat="45.45606" lon="5.75757">
        <ele>551.459983</ele>
        <time>2023-12-12T10:57:36.000Z</time>
      </trkpt>
      <trkpt lat="45.45601" lon="5.75754">
        <ele>550.724068</ele>
        <time>2023-12-12T10:57:37.000Z</time>
      </trkpt>
      <trkpt lat="45.45596" lon="5.75751">
        <ele>549.962733</ele>
        <time>2023-12-12T10:57:38.000Z</time>
      </trkpt>
      <trkpt lat="45.45579" lon="5.75743">
        <ele>547.535382</ele>
        <time>2023-12-12T10:57:41.000Z</time>
      </trkpt>
      <trkpt lat="45.45566" lon="5.75736">
        <ele>545.750822</ele>
        <time>2023-12-12T10:57:43.000Z</time>
      </trkpt>
      <trkpt lat="45.4556" lon="5.75731">
        <ele>544.79763</ele>
        <time>2023-12-12T10:57:44.000Z</time>
      </trkpt>
      <trkpt lat="45.45554" lon="5.75726">
        <ele>543.850107</ele>
        <time>2023-12-12T10:57:45.000Z</time>
      </trkpt>
      <trkpt lat="45.45548" lon="5.75721">
        <ele>542.943622</ele>
        <time>2023-12-12T10:57:46.000Z</time>
      </trkpt>
      <trkpt lat="45.45535" lon="5.75708">
        <ele>540.95459</ele>
        <time>2023-12-12T10:57:48.000Z</time>
      </trkpt>
      <trkpt lat="45.45527" lon="5.75701">
        <ele>539.866003</ele>
        <time>2023-12-12T10:57:49.000Z</time>
      </trkpt>
      <trkpt lat="45.4552" lon="5.75694">
        <ele>538.715817</ele>
        <time>2023-12-12T10:57:50.000Z</time>
      </trkpt>
      <trkpt lat="45.45511" lon="5.75686">
        <ele>537.503726</ele>
        <time>2023-12-12T10:57:51.000Z</time>
      </trkpt>
      <trkpt lat="45.45494" lon="5.75671">
        <ele>534.935581</ele>
        <time>2023-12-12T10:57:53.000Z</time>
      </trkpt>
      <trkpt lat="45.45484" lon="5.75664">
        <ele>533.579194</ele>
        <time>2023-12-12T10:57:54.000Z</time>
      </trkpt>
      <trkpt lat="45.45474" lon="5.75656">
        <ele>532.20495</ele>
        <time>2023-12-12T10:57:55.000Z</time>
      </trkpt>
      <trkpt lat="45.45464" lon="5.75649">
        <ele>530.801474</ele>
        <time>2023-12-12T10:57:56.000Z</time>
      </trkpt>
      <trkpt lat="45.45454" lon="5.75642">
        <ele>529.372083</ele>
        <time>2023-12-12T10:57:57.000Z</time>
      </trkpt>
      <trkpt lat="45.45443" lon="5.75635">
        <ele>527.920176</ele>
        <time>2023-12-12T10:57:58.000Z</time>
      </trkpt>
      <trkpt lat="45.45432" lon="5.75628">
        <ele>526.434354</ele>
        <time>2023-12-12T10:57:59.000Z</time>
      </trkpt>
      <trkpt lat="45.45421" lon="5.75621">
        <ele>524.93719</ele>
        <time>2023-12-12T10:58:00.000Z</time>
      </trkpt>
      <trkpt lat="45.4541" lon="5.75614">
        <ele>523.424212</ele>
        <time>2023-12-12T10:58:01.000Z</time>
      </trkpt>
      <trkpt lat="45.45398" lon="5.75608">
        <ele>521.87686</ele>
        <time>2023-12-12T10:58:02.000Z</time>
      </trkpt>
      <trkpt lat="45.45387" lon="5.75601">
        <ele>520.557382</ele>
        <time>2023-12-12T10:58:03.000Z</time>
      </trkpt>
      <trkpt lat="45.45375" lon="5.75595">
        <ele>519.263659</ele>
        <time>2023-12-12T10:58:04.000Z</time>
      </trkpt>
      <trkpt lat="45.45363" lon="5.7559">
        <ele>518.012363</ele>
        <time>2023-12-12T10:58:05.000Z</time>
      </trkpt>
      <trkpt lat="45.45352" lon="5.75586">
        <ele>516.8341</ele>
        <time>2023-12-12T10:58:06.000Z</time>
      </trkpt>
      <trkpt lat="45.4533" lon="5.75579">
        <ele>514.507221</ele>
        <time>2023-12-12T10:58:08.000Z</time>
      </trkpt>
      <trkpt lat="45.45308" lon="5.75575">
        <ele>512.26305</ele>
        <time>2023-12-12T10:58:10.000Z</time>
      </trkpt>
      <trkpt lat="45.45289" lon="5.75568">
        <ele>510.280947</ele>
        <time>2023-12-12T10:58:12.000Z</time>
      </trkpt>
      <trkpt lat="45.45281" lon="5.75563">
        <ele>509.377194</ele>
        <time>2023-12-12T10:58:13.000Z</time>
      </trkpt>
      <trkpt lat="45.45274" lon="5.75557">
        <ele>508.538099</ele>
        <time>2023-12-12T10:58:14.000Z</time>
      </trkpt>
      <trkpt lat="45.45256" lon="5.75537">
        <ele>506.199117</ele>
        <time>2023-12-12T10:58:17.000Z</time>
      </trkpt>
      <trkpt lat="45.45249" lon="5.75519">
        <ele>504.746024</ele>
        <time>2023-12-12T10:58:19.000Z</time>
      </trkpt>
      <trkpt lat="45.45248" lon="5.7551">
        <ele>504.082039</ele>
        <time>2023-12-12T10:58:20.000Z</time>
      </trkpt>
      <trkpt lat="45.45249" lon="5.75502">
        <ele>503.48441</ele>
        <time>2023-12-12T10:58:21.000Z</time>
      </trkpt>
      <trkpt lat="45.45253" lon="5.75489">
        <ele>502.60588</ele>
        <time>2023-12-12T10:58:23.000Z</time>
      </trkpt>
      <trkpt lat="45.45255" lon="5.75483">
        <ele>502.20045</ele>
        <time>2023-12-12T10:58:24.000Z</time>
      </trkpt>
      <trkpt lat="45.45256" lon="5.75471">
        <ele>501.427472</ele>
        <time>2023-12-12T10:58:26.000Z</time>
      </trkpt>
      <trkpt lat="45.45254" lon="5.75464">
        <ele>501.035258</ele>
        <time>2023-12-12T10:58:27.000Z</time>
      </trkpt>
      <trkpt lat="45.45252" lon="5.75459">
        <ele>500.612484</ele>
        <time>2023-12-12T10:58:28.000Z</time>
      </trkpt>
      <trkpt lat="45.45244" lon="5.75449">
        <ele>499.719588</ele>
        <time>2023-12-12T10:58:30.000Z</time>
      </trkpt>
      <trkpt lat="45.45239" lon="5.75445">
        <ele>499.247086</ele>
        <time>2023-12-12T10:58:31.000Z</time>
      </trkpt>
      <trkpt lat="45.4523" lon="5.75437">
        <ele>498.297259</ele>
        <time>2023-12-12T10:58:33.000Z</time>
      </trkpt>
      <trkpt lat="45.45219" lon="5.75428">
        <ele>497.2312</ele>
        <time>2023-12-12T10:58:35.000Z</time>
      </trkpt>
      <trkpt lat="45.45214" lon="5.75423">
        <ele>496.674234</ele>
        <time>2023-12-12T10:58:36.000Z</time>
      </trkpt>
      <trkpt lat="45.45208" lon="5.75418">
        <ele>496.127827</ele>
        <time>2023-12-12T10:58:37.000Z</time>
      </trkpt>
      <trkpt lat="45.45188" lon="5.75396">
        <ele>493.953279</ele>
        <time>2023-12-12T10:58:41.000Z</time>
      </trkpt>
      <trkpt lat="45.45183" lon="5.7539">
        <ele>493.34195</ele>
        <time>2023-12-12T10:58:42.000Z</time>
      </trkpt>
      <trkpt lat="45.45178" lon="5.75383">
        <ele>492.744212</ele>
        <time>2023-12-12T10:58:43.000Z</time>
      </trkpt>
      <trkpt lat="45.45172" lon="5.75369">
        <ele>491.725515</ele>
        <time>2023-12-12T10:58:45.000Z</time>
      </trkpt>
      <trkpt lat="45.4517" lon="5.75362">
        <ele>491.270081</ele>
        <time>2023-12-12T10:58:46.000Z</time>
      </trkpt>
      <trkpt lat="45.45168" lon="5.75355">
        <ele>490.814862</ele>
        <time>2023-12-12T10:58:47.000Z</time>
      </trkpt>
      <trkpt lat="45.4516" lon="5.75329">
        <ele>489.112285</ele>
        <time>2023-12-12T10:58:51.000Z</time>
      </trkpt>
      <trkpt lat="45.45158" lon="5.75324">
        <ele>488.729769</ele>
        <time>2023-12-12T10:58:52.000Z</time>
      </trkpt>
      <trkpt lat="45.45155" lon="5.7532">
        <ele>488.420609</ele>
        <time>2023-12-12T10:58:53.000Z</time>
      </trkpt>
      <trkpt lat="45.45152" lon="5.75316">
        <ele>488.069416</ele>
        <time>2023-12-12T10:58:55.000Z</time>
      </trkpt>
      <trkpt lat="45.45151" lon="5.75316">
        <ele>487.999163</ele>
        <time>2023-12-12T10:58:56.000Z</time>
      </trkpt>
      <trkpt lat="45.45152" lon="5.75321">
        <ele>487.761561</ele>
        <time>2023-12-12T10:59:00.000Z</time>
      </trkpt>
      <trkpt lat="45.45161" lon="5.75336">
        <ele>488.338695</ele>
        <time>2023-12-12T10:59:04.000Z</time>
      </trkpt>
      <trkpt lat="45.45164" lon="5.75345">
        <ele>488.650861</ele>
        <time>2023-12-12T10:59:06.000Z</time>
      </trkpt>
      <trkpt lat="45.45167" lon="5.7536">
        <ele>489.138808</ele>
        <time>2023-12-12T10:59:09.000Z</time>
      </trkpt>
      <trkpt lat="45.45169" lon="5.75365">
        <ele>489.311966</ele>
        <time>2023-12-12T10:59:10.000Z</time>
      </trkpt>
      <trkpt lat="45.45175" lon="5.7538">
        <ele>489.84102</ele>
        <time>2023-12-12T10:59:13.000Z</time>
      </trkpt>
      <trkpt lat="45.4518" lon="5.75389">
        <ele>490.200954</ele>
        <time>2023-12-12T10:59:15.000Z</time>
      </trkpt>
      <trkpt lat="45.45183" lon="5.75393">
        <ele>490.385816</ele>
        <time>2023-12-12T10:59:16.000Z</time>
      </trkpt>
      <trkpt lat="45.4519" lon="5.754">
        <ele>490.740334</ele>
        <time>2023-12-12T10:59:18.000Z</time>
      </trkpt>
      <trkpt lat="45.45199" lon="5.7541">
        <ele>491.247736</ele>
        <time>2023-12-12T10:59:21.000Z</time>
      </trkpt>
      <trkpt lat="45.45209" lon="5.7542">
        <ele>491.760367</ele>
        <time>2023-12-12T10:59:24.000Z</time>
      </trkpt>
      <trkpt lat="45.45212" lon="5.75423">
        <ele>491.934841</ele>
        <time>2023-12-12T10:59:25.000Z</time>
      </trkpt>
      <trkpt lat="45.45222" lon="5.75433">
        <ele>492.462136</ele>
        <time>2023-12-12T10:59:28.000Z</time>
      </trkpt>
      <trkpt lat="45.45232" lon="5.75441">
        <ele>492.952459</ele>
        <time>2023-12-12T10:59:31.000Z</time>
      </trkpt>
      <trkpt lat="45.45239" lon="5.75444">
        <ele>493.302233</ele>
        <time>2023-12-12T10:59:33.000Z</time>
      </trkpt>
      <trkpt lat="45.45246" lon="5.75448">
        <ele>493.627545</ele>
        <time>2023-12-12T10:59:35.000Z</time>
      </trkpt>
      <trkpt lat="45.45253" lon="5.75451">
        <ele>493.947083</ele>
        <time>2023-12-12T10:59:37.000Z</time>
      </trkpt>
      <trkpt lat="45.45265" lon="5.75453">
        <ele>494.469048</ele>
        <time>2023-12-12T10:59:40.000Z</time>
      </trkpt>
      <trkpt lat="45.45269" lon="5.75455">
        <ele>494.652661</ele>
        <time>2023-12-12T10:59:41.000Z</time>
      </trkpt>
      <trkpt lat="45.45293" lon="5.75457">
        <ele>495.666862</ele>
        <time>2023-12-12T10:59:46.000Z</time>
      </trkpt>
      <trkpt lat="45.45299" lon="5.75456">
        <ele>495.837086</ele>
        <time>2023-12-12T10:59:47.000Z</time>
      </trkpt>
      <trkpt lat="45.45325" lon="5.75447">
        <ele>496.658585</ele>
        <time>2023-12-12T10:59:52.000Z</time>
      </trkpt>
      <trkpt lat="45.45348" lon="5.75438">
        <ele>497.38459</ele>
        <time>2023-12-12T10:59:57.000Z</time>
      </trkpt>
      <trkpt lat="45.45353" lon="5.75436">
        <ele>497.523462</ele>
        <time>2023-12-12T10:59:58.000Z</time>
      </trkpt>
      <trkpt lat="45.45367" lon="5.75433">
        <ele>497.969316</ele>
        <time>2023-12-12T11:00:01.000Z</time>
      </trkpt>
      <trkpt lat="45.45382" lon="5.75432">
        <ele>498.426859</ele>
        <time>2023-12-12T11:00:04.000Z</time>
      </trkpt>
      <trkpt lat="45.45393" lon="5.75433">
        <ele>498.738744</ele>
        <time>2023-12-12T11:00:06.000Z</time>
      </trkpt>
      <trkpt lat="45.45413" lon="5.75434">
        <ele>499.365265</ele>
        <time>2023-12-12T11:00:10.000Z</time>
      </trkpt>
      <trkpt lat="45.45433" lon="5.75435">
        <ele>499.967608</ele>
        <time>2023-12-12T11:00:14.000Z</time>
      </trkpt>
      <trkpt lat="45.45448" lon="5.75436">
        <ele>500.42456</ele>
        <time>2023-12-12T11:00:17.000Z</time>
      </trkpt>
      <trkpt lat="45.45458" lon="5.75436">
        <ele>500.730159</ele>
        <time>2023-12-12T11:00:19.000Z</time>
      </trkpt>
      <trkpt lat="45.45473" lon="5.75436">
        <ele>501.142548</ele>
        <time>2023-12-12T11:00:22.000Z</time>
      </trkpt>
      <trkpt lat="45.45478" lon="5.75436">
        <ele>501.256619</ele>
        <time>2023-12-12T11:00:23.000Z</time>
      </trkpt>
      <trkpt lat="45.45489" lon="5.75436">
        <ele>501.487004</ele>
        <time>2023-12-12T11:00:25.000Z</time>
      </trkpt>
      <trkpt lat="45.45504" lon="5.75435">
        <ele>501.818571</ele>
        <time>2023-12-12T11:00:28.000Z</time>
      </trkpt>
      <trkpt lat="45.45517" lon="5.75433">
        <ele>502.127303</ele>
        <time>2023-12-12T11:00:31.000Z</time>
      </trkpt>
      <trkpt lat="45.45526" lon="5.75431">
        <ele>502.329637</ele>
        <time>2023-12-12T11:00:33.000Z</time>
      </trkpt>
      <trkpt lat="45.45531" lon="5.75431">
        <ele>502.43773</ele>
        <time>2023-12-12T11:00:34.000Z</time>
      </trkpt>
      <trkpt lat="45.45544" lon="5.75427">
        <ele>502.736132</ele>
        <time>2023-12-12T11:00:37.000Z</time>
      </trkpt>
      <trkpt lat="45.45548" lon="5.75425">
        <ele>502.82974</ele>
        <time>2023-12-12T11:00:38.000Z</time>
      </trkpt>
      <trkpt lat="45.45551" lon="5.75421">
        <ele>502.922741</ele>
        <time>2023-12-12T11:00:39.000Z</time>
      </trkpt>
      <trkpt lat="45.45555" lon="5.75418">
        <ele>503.016646</ele>
        <time>2023-12-12T11:00:40.000Z</time>
      </trkpt>
      <trkpt lat="45.45565" lon="5.75404">
        <ele>503.321988</ele>
        <time>2023-12-12T11:00:43.000Z</time>
      </trkpt>
      <trkpt lat="45.45574" lon="5.75388">
        <ele>503.641322</ele>
        <time>2023-12-12T11:00:46.000Z</time>
      </trkpt>
      <trkpt lat="45.45576" lon="5.75382">
        <ele>503.751738</ele>
        <time>2023-12-12T11:00:47.000Z</time>
      </trkpt>
      <trkpt lat="45.45577" lon="5.75376">
        <ele>503.860588</ele>
        <time>2023-12-12T11:00:48.000Z</time>
      </trkpt>
      <trkpt lat="45.45578" lon="5.75369">
        <ele>503.964741</ele>
        <time>2023-12-12T11:00:49.000Z</time>
      </trkpt>
      <trkpt lat="45.45577" lon="5.75362">
        <ele>504.068894</ele>
        <time>2023-12-12T11:00:50.000Z</time>
      </trkpt>
      <trkpt lat="45.45576" lon="5.75356">
        <ele>504.169233</ele>
        <time>2023-12-12T11:00:51.000Z</time>
      </trkpt>
      <trkpt lat="45.45574" lon="5.75349">
        <ele>504.287677</ele>
        <time>2023-12-12T11:00:53.000Z</time>
      </trkpt>
      <trkpt lat="45.45573" lon="5.75347">
        <ele>504.324958</ele>
        <time>2023-12-12T11:00:54.000Z</time>
      </trkpt>
      <trkpt lat="45.45571" lon="5.75344">
        <ele>504.393047</ele>
        <time>2023-12-12T11:00:56.000Z</time>
      </trkpt>
      <trkpt lat="45.45567" lon="5.7533">
        <ele>504.627099</ele>
        <time>2023-12-12T11:01:01.000Z</time>
      </trkpt>
      <trkpt lat="45.45566" lon="5.75327">
        <ele>504.682376</ele>
        <time>2023-12-12T11:01:02.000Z</time>
      </trkpt>
      <trkpt lat="45.45562" lon="5.75321">
        <ele>504.813549</ele>
        <time>2023-12-12T11:01:04.000Z</time>
      </trkpt>
      <trkpt lat="45.4556" lon="5.75317">
        <ele>504.891961</ele>
        <time>2023-12-12T11:01:05.000Z</time>
      </trkpt>
      <trkpt lat="45.45558" lon="5.75312">
        <ele>504.972909</ele>
        <time>2023-12-12T11:01:06.000Z</time>
      </trkpt>
      <trkpt lat="45.45546" lon="5.75291">
        <ele>504.877111</ele>
        <time>2023-12-12T11:01:10.000Z</time>
      </trkpt>
      <trkpt lat="45.4554" lon="5.75279">
        <ele>504.751405</ele>
        <time>2023-12-12T11:01:12.000Z</time>
      </trkpt>
      <trkpt lat="45.45537" lon="5.75273">
        <ele>504.692291</ele>
        <time>2023-12-12T11:01:13.000Z</time>
      </trkpt>
      <trkpt lat="45.45531" lon="5.75261">
        <ele>504.568494</ele>
        <time>2023-12-12T11:01:15.000Z</time>
      </trkpt>
      <trkpt lat="45.45529" lon="5.75254">
        <ele>504.5062</ele>
        <time>2023-12-12T11:01:16.000Z</time>
      </trkpt>
      <trkpt lat="45.45524" lon="5.75227">
        <ele>504.277337</ele>
        <time>2023-12-12T11:01:20.000Z</time>
      </trkpt>
      <trkpt lat="45.45521" lon="5.75217">
        <ele>504.184452</ele>
        <time>2023-12-12T11:01:22.000Z</time>
      </trkpt>
      <trkpt lat="45.4552" lon="5.75212">
        <ele>504.142351</ele>
        <time>2023-12-12T11:01:23.000Z</time>
      </trkpt>
      <trkpt lat="45.45517" lon="5.75204">
        <ele>504.071104</ele>
        <time>2023-12-12T11:01:25.000Z</time>
      </trkpt>
      <trkpt lat="45.45512" lon="5.75195">
        <ele>503.976646</ele>
        <time>2023-12-12T11:01:28.000Z</time>
      </trkpt>
      <trkpt lat="45.4551" lon="5.75189">
        <ele>503.91201</ele>
        <time>2023-12-12T11:01:30.000Z</time>
      </trkpt>
      <trkpt lat="45.45504" lon="5.75171">
        <ele>503.753511</ele>
        <time>2023-12-12T11:01:34.000Z</time>
      </trkpt>
      <trkpt lat="45.45499" lon="5.75147">
        <ele>503.542867</ele>
        <time>2023-12-12T11:01:41.000Z</time>
      </trkpt>
      <trkpt lat="45.455" lon="5.75146">
        <ele>503.538791</ele>
        <time>2023-12-12T11:01:42.000Z</time>
      </trkpt>
      <trkpt lat="45.455" lon="5.75146">
        <ele>503.537131</ele>
        <time>2023-12-12T11:01:44.000Z</time>
      </trkpt>
      <trkpt lat="45.45499" lon="5.75146">
        <ele>503.533485</ele>
        <time>2023-12-12T11:01:48.000Z</time>
      </trkpt>
      <trkpt lat="45.455" lon="5.75147">
        <ele>503.519884</ele>
        <time>2023-12-12T11:01:56.000Z</time>
      </trkpt>
      <trkpt lat="45.455" lon="5.75147">
        <ele>503.519054</ele>
        <time>2023-12-12T11:02:06.000Z</time>
      </trkpt>
      <trkpt lat="45.455" lon="5.75147">
        <ele>503.517394</ele>
        <time>2023-12-12T11:02:13.000Z</time>
      </trkpt>
      <trkpt lat="45.455" lon="5.75147">
        <ele>503.514886</ele>
        <time>2023-12-12T11:02:24.000Z</time>
      </trkpt>
      <trkpt lat="45.455" lon="5.75146">
        <ele>503.509907</ele>
        <time>2023-12-12T11:02:32.000Z</time>
      </trkpt>
      <trkpt lat="45.455" lon="5.75146">
        <ele>503.509077</ele>
        <time>2023-12-12T11:02:35.000Z</time>
      </trkpt>
      <trkpt lat="45.455" lon="5.75145">
        <ele>503.496404</ele>
        <time>2023-12-12T11:02:48.000Z</time>
      </trkpt>
      <trkpt lat="45.45501" lon="5.75145">
        <ele>503.491672</ele>
        <time>2023-12-12T11:03:01.000Z</time>
      </trkpt>
      <trkpt lat="45.45499" lon="5.75136">
        <ele>503.418377</ele>
        <time>2023-12-12T11:03:06.000Z</time>
      </trkpt>
      <trkpt lat="45.45492" lon="5.75115">
        <ele>503.225124</ele>
        <time>2023-12-12T11:03:10.000Z</time>
      </trkpt>
      <trkpt lat="45.45491" lon="5.75108">
        <ele>503.166771</ele>
        <time>2023-12-12T11:03:11.000Z</time>
      </trkpt>
      <trkpt lat="45.45487" lon="5.75094">
        <ele>503.039434</ele>
        <time>2023-12-12T11:03:13.000Z</time>
      </trkpt>
      <trkpt lat="45.4548" lon="5.75065">
        <ele>501.720489</ele>
        <time>2023-12-12T11:03:17.000Z</time>
      </trkpt>
      <trkpt lat="45.45478" lon="5.75058">
        <ele>501.153865</ele>
        <time>2023-12-12T11:03:18.000Z</time>
      </trkpt>
      <trkpt lat="45.45472" lon="5.75043">
        <ele>499.933519</ele>
        <time>2023-12-12T11:03:20.000Z</time>
      </trkpt>
      <trkpt lat="45.45467" lon="5.75036">
        <ele>499.221685</ele>
        <time>2023-12-12T11:03:21.000Z</time>
      </trkpt>
      <trkpt lat="45.45461" lon="5.75028">
        <ele>498.436414</ele>
        <time>2023-12-12T11:03:22.000Z</time>
      </trkpt>
      <trkpt lat="45.45455" lon="5.75021">
        <ele>497.587978</ele>
        <time>2023-12-12T11:03:23.000Z</time>
      </trkpt>
      <trkpt lat="45.45441" lon="5.75005">
        <ele>495.790446</ele>
        <time>2023-12-12T11:03:25.000Z</time>
      </trkpt>
      <trkpt lat="45.45426" lon="5.7499">
        <ele>493.931956</ele>
        <time>2023-12-12T11:03:27.000Z</time>
      </trkpt>
      <trkpt lat="45.45419" lon="5.74982">
        <ele>492.98633</ele>
        <time>2023-12-12T11:03:28.000Z</time>
      </trkpt>
      <trkpt lat="45.45404" lon="5.74966">
        <ele>491.086839</ele>
        <time>2023-12-12T11:03:30.000Z</time>
      </trkpt>
      <trkpt lat="45.45396" lon="5.74959">
        <ele>490.091188</ele>
        <time>2023-12-12T11:03:31.000Z</time>
      </trkpt>
      <trkpt lat="45.45387" lon="5.7495">
        <ele>489.054377</ele>
        <time>2023-12-12T11:03:32.000Z</time>
      </trkpt>
      <trkpt lat="45.45379" lon="5.74941">
        <ele>487.980132</ele>
        <time>2023-12-12T11:03:33.000Z</time>
      </trkpt>
      <trkpt lat="45.45363" lon="5.74923">
        <ele>485.919987</ele>
        <time>2023-12-12T11:03:35.000Z</time>
      </trkpt>
      <trkpt lat="45.45355" lon="5.74915">
        <ele>484.924598</ele>
        <time>2023-12-12T11:03:36.000Z</time>
      </trkpt>
      <trkpt lat="45.45347" lon="5.74908">
        <ele>484.457688</ele>
        <time>2023-12-12T11:03:37.000Z</time>
      </trkpt>
      <trkpt lat="45.45341" lon="5.74901">
        <ele>484.257174</ele>
        <time>2023-12-12T11:03:38.000Z</time>
      </trkpt>
      <trkpt lat="45.45335" lon="5.74894">
        <ele>484.081582</ele>
        <time>2023-12-12T11:03:39.000Z</time>
      </trkpt>
      <trkpt lat="45.45331" lon="5.74887">
        <ele>483.93659</ele>
        <time>2023-12-12T11:03:40.000Z</time>
      </trkpt>
      <trkpt lat="45.4533" lon="5.7488">
        <ele>483.81255</ele>
        <time>2023-12-12T11:03:41.000Z</time>
      </trkpt>
      <trkpt lat="45.4533" lon="5.74874">
        <ele>483.703763</ele>
        <time>2023-12-12T11:03:42.000Z</time>
      </trkpt>
      <trkpt lat="45.45332" lon="5.74869">
        <ele>483.600005</ele>
        <time>2023-12-12T11:03:43.000Z</time>
      </trkpt>
      <trkpt lat="45.45338" lon="5.7486">
        <ele>483.396053</ele>
        <time>2023-12-12T11:03:45.000Z</time>
      </trkpt>
      <trkpt lat="45.45354" lon="5.74837">
        <ele>482.863539</ele>
        <time>2023-12-12T11:03:50.000Z</time>
      </trkpt>
      <trkpt lat="45.45363" lon="5.74823">
        <ele>482.53006</ele>
        <time>2023-12-12T11:03:53.000Z</time>
      </trkpt>
      <trkpt lat="45.45386" lon="5.74784">
        <ele>481.676483</ele>
        <time>2023-12-12T11:04:00.000Z</time>
      </trkpt>
      <trkpt lat="45.45388" lon="5.74777">
        <ele>481.548233</ele>
        <time>2023-12-12T11:04:01.000Z</time>
      </trkpt>
      <trkpt lat="45.45392" lon="5.74762">
        <ele>481.284286</ele>
        <time>2023-12-12T11:04:03.000Z</time>
      </trkpt>
      <trkpt lat="45.45394" lon="5.74747">
        <ele>481.017526</ele>
        <time>2023-12-12T11:04:05.000Z</time>
      </trkpt>
      <trkpt lat="45.45394" lon="5.74739">
        <ele>480.884232</ele>
        <time>2023-12-12T11:04:06.000Z</time>
      </trkpt>
      <trkpt lat="45.45393" lon="5.74707">
        <ele>480.35308</ele>
        <time>2023-12-12T11:04:10.000Z</time>
      </trkpt>
      <trkpt lat="45.45392" lon="5.74679">
        <ele>480.270703</ele>
        <time>2023-12-12T11:04:14.000Z</time>
      </trkpt>
      <trkpt lat="45.45392" lon="5.74659">
        <ele>480.257229</ele>
        <time>2023-12-12T11:04:17.000Z</time>
      </trkpt>
      <trkpt lat="45.4539" lon="5.74636">
        <ele>480.240779</ele>
        <time>2023-12-12T11:04:21.000Z</time>
      </trkpt>
      <trkpt lat="45.4539" lon="5.7463">
        <ele>480.23668</ele>
        <time>2023-12-12T11:04:22.000Z</time>
      </trkpt>
      <trkpt lat="45.45389" lon="5.74614">
        <ele>480.224798</ele>
        <time>2023-12-12T11:04:25.000Z</time>
      </trkpt>
      <trkpt lat="45.45389" lon="5.7459">
        <ele>480.208161</ele>
        <time>2023-12-12T11:04:29.000Z</time>
      </trkpt>
      <trkpt lat="45.4539" lon="5.74584">
        <ele>480.203815</ele>
        <time>2023-12-12T11:04:30.000Z</time>
      </trkpt>
      <trkpt lat="45.45394" lon="5.74565">
        <ele>480.189843</ele>
        <time>2023-12-12T11:04:33.000Z</time>
      </trkpt>
      <trkpt lat="45.45402" lon="5.74548">
        <ele>480.175177</ele>
        <time>2023-12-12T11:04:36.000Z</time>
      </trkpt>
      <trkpt lat="45.4541" lon="5.74539">
        <ele>480.165251</ele>
        <time>2023-12-12T11:04:38.000Z</time>
      </trkpt>
      <trkpt lat="45.45423" lon="5.74525">
        <ele>480.148684</ele>
        <time>2023-12-12T11:04:41.000Z</time>
      </trkpt>
      <trkpt lat="45.4544" lon="5.74512">
        <ele>480.129635</ele>
        <time>2023-12-12T11:04:45.000Z</time>
      </trkpt>
      <trkpt lat="45.45443" lon="5.74509">
        <ele>480.125748</ele>
        <time>2023-12-12T11:04:46.000Z</time>
      </trkpt>
      <trkpt lat="45.45445" lon="5.74506">
        <ele>480.122746</ele>
        <time>2023-12-12T11:04:47.000Z</time>
      </trkpt>
      <trkpt lat="45.45445" lon="5.74502">
        <ele>480.120277</ele>
        <time>2023-12-12T11:04:48.000Z</time>
      </trkpt>
      <trkpt lat="45.45444" lon="5.745">
        <ele>480.117967</ele>
        <time>2023-12-12T11:04:49.000Z</time>
      </trkpt>
      <trkpt lat="45.45442" lon="5.74499">
        <ele>480.115907</ele>
        <time>2023-12-12T11:04:50.000Z</time>
      </trkpt>
      <trkpt lat="45.45439" lon="5.74499">
        <ele>480.113261</ele>
        <time>2023-12-12T11:04:51.000Z</time>
      </trkpt>
      <trkpt lat="45.45432" lon="5.74504">
        <ele>479.923888</ele>
        <time>2023-12-12T11:04:53.000Z</time>
      </trkpt>
      <trkpt lat="45.45425" lon="5.74508">
        <ele>479.251257</ele>
        <time>2023-12-12T11:04:55.000Z</time>
      </trkpt>
      <trkpt lat="45.45423" lon="5.74507">
        <ele>479.024667</ele>
        <time>2023-12-12T11:04:56.000Z</time>
      </trkpt>
      <trkpt lat="45.45421" lon="5.74505">
        <ele>478.82745</ele>
        <time>2023-12-12T11:04:57.000Z</time>
      </trkpt>
      <trkpt lat="45.45421" lon="5.74501">
        <ele>478.561931</ele>
        <time>2023-12-12T11:04:58.000Z</time>
      </trkpt>
      <trkpt lat="45.45424" lon="5.74487">
        <ele>477.657482</ele>
        <time>2023-12-12T11:05:00.000Z</time>
      </trkpt>
      <trkpt lat="45.45425" lon="5.74478">
        <ele>477.072451</ele>
        <time>2023-12-12T11:05:01.000Z</time>
      </trkpt>
      <trkpt lat="45.45425" lon="5.74468">
        <ele>476.433293</ele>
        <time>2023-12-12T11:05:02.000Z</time>
      </trkpt>
      <trkpt lat="45.45425" lon="5.74457">
        <ele>475.735432</ele>
        <time>2023-12-12T11:05:03.000Z</time>
      </trkpt>
      <trkpt lat="45.45423" lon="5.74445">
        <ele>474.973061</ele>
        <time>2023-12-12T11:05:04.000Z</time>
      </trkpt>
      <trkpt lat="45.45421" lon="5.74433">
        <ele>474.187079</ele>
        <time>2023-12-12T11:05:05.000Z</time>
      </trkpt>
      <trkpt lat="45.45415" lon="5.74408">
        <ele>472.541519</ele>
        <time>2023-12-12T11:05:07.000Z</time>
      </trkpt>
      <trkpt lat="45.45411" lon="5.74395">
        <ele>471.679396</ele>
        <time>2023-12-12T11:05:08.000Z</time>
      </trkpt>
      <trkpt lat="45.45408" lon="5.74383">
        <ele>470.80221</ele>
        <time>2023-12-12T11:05:09.000Z</time>
      </trkpt>
      <trkpt lat="45.45399" lon="5.74351">
        <ele>468.643441</ele>
        <time>2023-12-12T11:05:12.000Z</time>
      </trkpt>
      <trkpt lat="45.45399" lon="5.74345">
        <ele>468.313251</ele>
        <time>2023-12-12T11:05:13.000Z</time>
      </trkpt>
      <trkpt lat="45.45398" lon="5.74342">
        <ele>468.087572</ele>
        <time>2023-12-12T11:05:14.000Z</time>
      </trkpt>
      <trkpt lat="45.45397" lon="5.74338">
        <ele>467.829128</ele>
        <time>2023-12-12T11:05:16.000Z</time>
      </trkpt>
      <trkpt lat="45.45396" lon="5.74334">
        <ele>467.565827</ele>
        <time>2023-12-12T11:05:19.000Z</time>
      </trkpt>
      <trkpt lat="45.45393" lon="5.74331">
        <ele>467.21993</ele>
        <time>2023-12-12T11:05:22.000Z</time>
      </trkpt>
      <trkpt lat="45.45392" lon="5.74331">
        <ele>467.100142</ele>
        <time>2023-12-12T11:05:23.000Z</time>
      </trkpt>
      <trkpt lat="45.45391" lon="5.7433">
        <ele>467.010883</ele>
        <time>2023-12-12T11:05:24.000Z</time>
      </trkpt>
      <trkpt lat="45.45388" lon="5.74323">
        <ele>466.5271</ele>
        <time>2023-12-12T11:05:28.000Z</time>
      </trkpt>
      <trkpt lat="45.45386" lon="5.74317">
        <ele>466.038894</ele>
        <time>2023-12-12T11:05:31.000Z</time>
      </trkpt>
      <trkpt lat="45.45384" lon="5.74315">
        <ele>465.851331</ele>
        <time>2023-12-12T11:05:32.000Z</time>
      </trkpt>
      <trkpt lat="45.45381" lon="5.7431">
        <ele>465.429129</ele>
        <time>2023-12-12T11:05:34.000Z</time>
      </trkpt>
      <trkpt lat="45.4537" lon="5.74305">
        <ele>464.406357</ele>
        <time>2023-12-12T11:05:38.000Z</time>
      </trkpt>
      <trkpt lat="45.45363" lon="5.74305">
        <ele>463.822683</ele>
        <time>2023-12-12T11:05:42.000Z</time>
      </trkpt>
      <trkpt lat="45.45358" lon="5.74297">
        <ele>463.343356</ele>
        <time>2023-12-12T11:05:46.000Z</time>
      </trkpt>
      <trkpt lat="45.45347" lon="5.74287">
        <ele>462.514774</ele>
        <time>2023-12-12T11:05:50.000Z</time>
      </trkpt>
      <trkpt lat="45.45337" lon="5.74283">
        <ele>461.912808</ele>
        <time>2023-12-12T11:05:52.000Z</time>
      </trkpt>
      <trkpt lat="45.45324" lon="5.7428">
        <ele>461.096622</ele>
        <time>2023-12-12T11:05:54.000Z</time>
      </trkpt>
      <trkpt lat="45.45317" lon="5.74279">
        <ele>460.641722</ele>
        <time>2023-12-12T11:05:55.000Z</time>
      </trkpt>
      <trkpt lat="45.45309" lon="5.74279">
        <ele>460.144153</ele>
        <time>2023-12-12T11:05:56.000Z</time>
      </trkpt>
      <trkpt lat="45.45292" lon="5.74279">
        <ele>459.074607</ele>
        <time>2023-12-12T11:05:58.000Z</time>
      </trkpt>
      <trkpt lat="45.45275" lon="5.74279">
        <ele>458.004982</ele>
        <time>2023-12-12T11:06:00.000Z</time>
      </trkpt>
      <trkpt lat="45.45259" lon="5.7428">
        <ele>456.996612</ele>
        <time>2023-12-12T11:06:02.000Z</time>
      </trkpt>
      <trkpt lat="45.45243" lon="5.74283">
        <ele>456.044778</ele>
        <time>2023-12-12T11:06:04.000Z</time>
      </trkpt>
      <trkpt lat="45.45236" lon="5.74286">
        <ele>455.573609</ele>
        <time>2023-12-12T11:06:05.000Z</time>
      </trkpt>
      <trkpt lat="45.45213" lon="5.74292">
        <ele>454.091359</ele>
        <time>2023-12-12T11:06:08.000Z</time>
      </trkpt>
      <trkpt lat="45.45197" lon="5.74296">
        <ele>453.135407</ele>
        <time>2023-12-12T11:06:10.000Z</time>
      </trkpt>
      <trkpt lat="45.4519" lon="5.74297">
        <ele>452.656388</ele>
        <time>2023-12-12T11:06:11.000Z</time>
      </trkpt>
      <trkpt lat="45.4517" lon="5.74301">
        <ele>450.858055</ele>
        <time>2023-12-12T11:06:14.000Z</time>
      </trkpt>
      <trkpt lat="45.45151" lon="5.74303">
        <ele>449.22386</ele>
        <time>2023-12-12T11:06:17.000Z</time>
      </trkpt>
      <trkpt lat="45.45145" lon="5.74303">
        <ele>448.712423</ele>
        <time>2023-12-12T11:06:18.000Z</time>
      </trkpt>
      <trkpt lat="45.45127" lon="5.74303">
        <ele>447.160764</ele>
        <time>2023-12-12T11:06:21.000Z</time>
      </trkpt>
      <trkpt lat="45.45108" lon="5.74302">
        <ele>445.487483</ele>
        <time>2023-12-12T11:06:24.000Z</time>
      </trkpt>
      <trkpt lat="45.45095" lon="5.74301">
        <ele>444.349172</ele>
        <time>2023-12-12T11:06:26.000Z</time>
      </trkpt>
      <trkpt lat="45.45089" lon="5.74299">
        <ele>443.823473</ele>
        <time>2023-12-12T11:06:27.000Z</time>
      </trkpt>
      <trkpt lat="45.45083" lon="5.74295">
        <ele>443.300754</ele>
        <time>2023-12-12T11:06:28.000Z</time>
      </trkpt>
      <trkpt lat="45.45079" lon="5.74288">
        <ele>442.784036</ele>
        <time>2023-12-12T11:06:29.000Z</time>
      </trkpt>
      <trkpt lat="45.45078" lon="5.74269">
        <ele>441.572019</ele>
        <time>2023-12-12T11:06:31.000Z</time>
      </trkpt>
      <trkpt lat="45.4508" lon="5.74256">
        <ele>440.807945</ele>
        <time>2023-12-12T11:06:32.000Z</time>
      </trkpt>
      <trkpt lat="45.45084" lon="5.74233">
        <ele>439.319549</ele>
        <time>2023-12-12T11:06:34.000Z</time>
      </trkpt>
      <trkpt lat="45.45087" lon="5.74215">
        <ele>438.230868</ele>
        <time>2023-12-12T11:06:36.000Z</time>
      </trkpt>
      <trkpt lat="45.45086" lon="5.74208">
        <ele>437.809041</ele>
        <time>2023-12-12T11:06:37.000Z</time>
      </trkpt>
      <trkpt lat="45.45083" lon="5.74203">
        <ele>437.38589</ele>
        <time>2023-12-12T11:06:38.000Z</time>
      </trkpt>
      <trkpt lat="45.45078" lon="5.74199">
        <ele>437.008366</ele>
        <time>2023-12-12T11:06:39.000Z</time>
      </trkpt>
      <trkpt lat="45.45072" lon="5.74196">
        <ele>436.734587</ele>
        <time>2023-12-12T11:06:40.000Z</time>
      </trkpt>
      <trkpt lat="45.45057" lon="5.74194">
        <ele>436.095792</ele>
        <time>2023-12-12T11:06:42.000Z</time>
      </trkpt>
      <trkpt lat="45.4505" lon="5.74193">
        <ele>435.786316</ele>
        <time>2023-12-12T11:06:43.000Z</time>
      </trkpt>
      <trkpt lat="45.4504" lon="5.74191">
        <ele>435.371536</ele>
        <time>2023-12-12T11:06:45.000Z</time>
      </trkpt>
      <trkpt lat="45.45039" lon="5.74189">
        <ele>435.271757</ele>
        <time>2023-12-12T11:06:46.000Z</time>
      </trkpt>
      <trkpt lat="45.45039" lon="5.74187">
        <ele>435.198115</ele>
        <time>2023-12-12T11:06:47.000Z</time>
      </trkpt>
      <trkpt lat="45.45041" lon="5.74186">
        <ele>435.111533</ele>
        <time>2023-12-12T11:06:48.000Z</time>
      </trkpt>
      <trkpt lat="45.45055" lon="5.74188">
        <ele>434.539409</ele>
        <time>2023-12-12T11:06:52.000Z</time>
      </trkpt>
      <trkpt lat="45.45059" lon="5.74188">
        <ele>434.378404</ele>
        <time>2023-12-12T11:06:53.000Z</time>
      </trkpt>
      <trkpt lat="45.45084" lon="5.74181">
        <ele>433.290783</ele>
        <time>2023-12-12T11:07:00.000Z</time>
      </trkpt>
      <trkpt lat="45.4511" lon="5.74159">
        <ele>431.991947</ele>
        <time>2023-12-12T11:07:07.000Z</time>
      </trkpt>
      <trkpt lat="45.45114" lon="5.74156">
        <ele>431.793414</ele>
        <time>2023-12-12T11:07:08.000Z</time>
      </trkpt>
      <trkpt lat="45.45123" lon="5.74152">
        <ele>431.392238</ele>
        <time>2023-12-12T11:07:10.000Z</time>
      </trkpt>
      <trkpt lat="45.45147" lon="5.74144">
        <ele>430.384488</ele>
        <time>2023-12-12T11:07:15.000Z</time>
      </trkpt>
      <trkpt lat="45.45176" lon="5.74137">
        <ele>429.582641</ele>
        <time>2023-12-12T11:07:21.000Z</time>
      </trkpt>
      <trkpt lat="45.45196" lon="5.74135">
        <ele>429.725387</ele>
        <time>2023-12-12T11:07:25.000Z</time>
      </trkpt>
      <trkpt lat="45.45242" lon="5.74132">
        <ele>430.053655</ele>
        <time>2023-12-12T11:07:34.000Z</time>
      </trkpt>
      <trkpt lat="45.45257" lon="5.74132">
        <ele>430.163739</ele>
        <time>2023-12-12T11:07:37.000Z</time>
      </trkpt>
      <trkpt lat="45.45302" lon="5.7412">
        <ele>430.490288</ele>
        <time>2023-12-12T11:07:46.000Z</time>
      </trkpt>
      <trkpt lat="45.4531" lon="5.74114">
        <ele>430.560252</ele>
        <time>2023-12-12T11:07:48.000Z</time>
      </trkpt>
      <trkpt lat="45.45315" lon="5.7411">
        <ele>430.597874</ele>
        <time>2023-12-12T11:07:49.000Z</time>
      </trkpt>
      <trkpt lat="45.45324" lon="5.74101">
        <ele>430.676365</ele>
        <time>2023-12-12T11:07:51.000Z</time>
      </trkpt>
      <trkpt lat="45.45353" lon="5.74061">
        <ele>431.064902</ele>
        <time>2023-12-12T11:07:58.000Z</time>
      </trkpt>
      <trkpt lat="45.45357" lon="5.74056">
        <ele>431.126677</ele>
        <time>2023-12-12T11:07:59.000Z</time>
      </trkpt>
      <trkpt lat="45.45374" lon="5.74035">
        <ele>431.382927</ele>
        <time>2023-12-12T11:08:03.000Z</time>
      </trkpt>
      <trkpt lat="45.45379" lon="5.74033">
        <ele>431.444905</ele>
        <time>2023-12-12T11:08:04.000Z</time>
      </trkpt>
      <trkpt lat="45.45384" lon="5.74031">
        <ele>431.50654</ele>
        <time>2023-12-12T11:08:05.000Z</time>
      </trkpt>
      <trkpt lat="45.45404" lon="5.74027">
        <ele>431.734581</ele>
        <time>2023-12-12T11:08:09.000Z</time>
      </trkpt>
      <trkpt lat="45.45432" lon="5.74022">
        <ele>432.057245</ele>
        <time>2023-12-12T11:08:15.000Z</time>
      </trkpt>
      <trkpt lat="45.45437" lon="5.74022">
        <ele>432.113787</ele>
        <time>2023-12-12T11:08:16.000Z</time>
      </trkpt>
      <trkpt lat="45.45442" lon="5.74021">
        <ele>432.171399</ele>
        <time>2023-12-12T11:08:17.000Z</time>
      </trkpt>
      <trkpt lat="45.45452" lon="5.7402">
        <ele>432.294699</ele>
        <time>2023-12-12T11:08:19.000Z</time>
      </trkpt>
      <trkpt lat="45.45491" lon="5.74012">
        <ele>432.743573</ele>
        <time>2023-12-12T11:08:26.000Z</time>
      </trkpt>
      <trkpt lat="45.45518" lon="5.74005">
        <ele>431.625258</ele>
        <time>2023-12-12T11:08:31.000Z</time>
      </trkpt>
      <trkpt lat="45.45532" lon="5.74001">
        <ele>430.508215</ele>
        <time>2023-12-12T11:08:34.000Z</time>
      </trkpt>
      <trkpt lat="45.45553" lon="5.73995">
        <ele>428.866587</ele>
        <time>2023-12-12T11:08:39.000Z</time>
      </trkpt>
      <trkpt lat="45.45558" lon="5.73993">
        <ele>428.456033</ele>
        <time>2023-12-12T11:08:41.000Z</time>
      </trkpt>
      <trkpt lat="45.4556" lon="5.73989">
        <ele>428.1949</ele>
        <time>2023-12-12T11:08:43.000Z</time>
      </trkpt>
      <trkpt lat="45.45559" lon="5.73985">
        <ele>427.998193</ele>
        <time>2023-12-12T11:08:44.000Z</time>
      </trkpt>
      <trkpt lat="45.45558" lon="5.73963">
        <ele>426.786315</ele>
        <time>2023-12-12T11:08:48.000Z</time>
      </trkpt>
      <trkpt lat="45.45558" lon="5.73939">
        <ele>425.49884</ele>
        <time>2023-12-12T11:08:51.000Z</time>
      </trkpt>
      <trkpt lat="45.45556" lon="5.73921">
        <ele>424.527908</ele>
        <time>2023-12-12T11:08:53.000Z</time>
      </trkpt>
      <trkpt lat="45.45553" lon="5.73902">
        <ele>423.454237</ele>
        <time>2023-12-12T11:08:55.000Z</time>
      </trkpt>
      <trkpt lat="45.45548" lon="5.7388">
        <ele>422.231213</ele>
        <time>2023-12-12T11:08:57.000Z</time>
      </trkpt>
      <trkpt lat="45.45546" lon="5.73868">
        <ele>421.569281</ele>
        <time>2023-12-12T11:08:58.000Z</time>
      </trkpt>
      <trkpt lat="45.45543" lon="5.73856">
        <ele>420.856352</ele>
        <time>2023-12-12T11:08:59.000Z</time>
      </trkpt>
      <trkpt lat="45.45541" lon="5.73845">
        <ele>420.247405</ele>
        <time>2023-12-12T11:09:00.000Z</time>
      </trkpt>
      <trkpt lat="45.45539" lon="5.73828">
        <ele>419.293069</ele>
        <time>2023-12-12T11:09:01.000Z</time>
      </trkpt>
      <trkpt lat="45.45536" lon="5.73812">
        <ele>417.940694</ele>
        <time>2023-12-12T11:09:02.000Z</time>
      </trkpt>
      <trkpt lat="45.45535" lon="5.73795">
        <ele>416.244449</ele>
        <time>2023-12-12T11:09:03.000Z</time>
      </trkpt>
      <trkpt lat="45.45534" lon="5.73777">
        <ele>414.439555</ele>
        <time>2023-12-12T11:09:04.000Z</time>
      </trkpt>
      <trkpt lat="45.45534" lon="5.73758">
        <ele>412.556514</ele>
        <time>2023-12-12T11:09:05.000Z</time>
      </trkpt>
      <trkpt lat="45.45535" lon="5.7374">
        <ele>410.672661</ele>
        <time>2023-12-12T11:09:06.000Z</time>
      </trkpt>
      <trkpt lat="45.45536" lon="5.73721">
        <ele>408.846194</ele>
        <time>2023-12-12T11:09:07.000Z</time>
      </trkpt>
      <trkpt lat="45.45536" lon="5.73703">
        <ele>407.031913</ele>
        <time>2023-12-12T11:09:08.000Z</time>
      </trkpt>
      <trkpt lat="45.45537" lon="5.73685">
        <ele>405.228149</ele>
        <time>2023-12-12T11:09:09.000Z</time>
      </trkpt>
      <trkpt lat="45.45537" lon="5.73668">
        <ele>403.485327</ele>
        <time>2023-12-12T11:09:10.000Z</time>
      </trkpt>
      <trkpt lat="45.45536" lon="5.73636">
        <ele>400.309488</ele>
        <time>2023-12-12T11:09:12.000Z</time>
      </trkpt>
      <trkpt lat="45.45536" lon="5.73612">
        <ele>397.845415</ele>
        <time>2023-12-12T11:09:14.000Z</time>
      </trkpt>
      <trkpt lat="45.45537" lon="5.73602">
        <ele>396.848818</ele>
        <time>2023-12-12T11:09:15.000Z</time>
      </trkpt>
      <trkpt lat="45.45542" lon="5.73589">
        <ele>395.347138</ele>
        <time>2023-12-12T11:09:17.000Z</time>
      </trkpt>
      <trkpt lat="45.45553" lon="5.73586">
        <ele>393.851445</ele>
        <time>2023-12-12T11:09:19.000Z</time>
      </trkpt>
      <trkpt lat="45.45558" lon="5.73586">
        <ele>393.264102</ele>
        <time>2023-12-12T11:09:20.000Z</time>
      </trkpt>
      <trkpt lat="45.45564" lon="5.73586">
        <ele>393.071202</ele>
        <time>2023-12-12T11:09:21.000Z</time>
      </trkpt>
      <trkpt lat="45.45571" lon="5.73586">
        <ele>392.861954</ele>
        <time>2023-12-12T11:09:22.000Z</time>
      </trkpt>
      <trkpt lat="45.45577" lon="5.73586">
        <ele>392.639617</ele>
        <time>2023-12-12T11:09:23.000Z</time>
      </trkpt>
      <trkpt lat="45.45599" lon="5.7359">
        <ele>391.937494</ele>
        <time>2023-12-12T11:09:26.000Z</time>
      </trkpt>
      <trkpt lat="45.45606" lon="5.73592">
        <ele>391.699162</ele>
        <time>2023-12-12T11:09:27.000Z</time>
      </trkpt>
      <trkpt lat="45.45625" lon="5.73605">
        <ele>390.988353</ele>
        <time>2023-12-12T11:09:30.000Z</time>
      </trkpt>
      <trkpt lat="45.45639" lon="5.73614">
        <ele>390.512909</ele>
        <time>2023-12-12T11:09:32.000Z</time>
      </trkpt>
      <trkpt lat="45.45645" lon="5.73618">
        <ele>390.286538</ele>
        <time>2023-12-12T11:09:33.000Z</time>
      </trkpt>
      <trkpt lat="45.45656" lon="5.73619">
        <ele>389.919323</ele>
        <time>2023-12-12T11:09:35.000Z</time>
      </trkpt>
      <trkpt lat="45.4566" lon="5.73617">
        <ele>389.785228</ele>
        <time>2023-12-12T11:09:36.000Z</time>
      </trkpt>
      <trkpt lat="45.45663" lon="5.73613">
        <ele>389.661834</ele>
        <time>2023-12-12T11:09:37.000Z</time>
      </trkpt>
      <trkpt lat="45.45663" lon="5.73608">
        <ele>389.557345</ele>
        <time>2023-12-12T11:09:38.000Z</time>
      </trkpt>
      <trkpt lat="45.45661" lon="5.73604">
        <ele>389.45204</ele>
        <time>2023-12-12T11:09:39.000Z</time>
      </trkpt>
      <trkpt lat="45.45655" lon="5.73598">
        <ele>389.201602</ele>
        <time>2023-12-12T11:09:41.000Z</time>
      </trkpt>
      <trkpt lat="45.45617" lon="5.73573">
        <ele>387.83435</ele>
        <time>2023-12-12T11:09:51.000Z</time>
      </trkpt>
      <trkpt lat="45.45585" lon="5.73551">
        <ele>387.010894</ele>
        <time>2023-12-12T11:09:58.000Z</time>
      </trkpt>
      <trkpt lat="45.4557" lon="5.73543">
        <ele>386.699728</ele>
        <time>2023-12-12T11:10:01.000Z</time>
      </trkpt>
      <trkpt lat="45.45547" lon="5.73533">
        <ele>386.262794</ele>
        <time>2023-12-12T11:10:05.000Z</time>
      </trkpt>
      <trkpt lat="45.45506" lon="5.73528">
        <ele>385.490984</ele>
        <time>2023-12-12T11:10:12.000Z</time>
      </trkpt>
      <trkpt lat="45.45471" lon="5.73535">
        <ele>384.839289</ele>
        <time>2023-12-12T11:10:18.000Z</time>
      </trkpt>
      <trkpt lat="45.45466" lon="5.73537">
        <ele>384.732197</ele>
        <time>2023-12-12T11:10:19.000Z</time>
      </trkpt>
      <trkpt lat="45.45455" lon="5.7354">
        <ele>384.525159</ele>
        <time>2023-12-12T11:10:21.000Z</time>
      </trkpt>
      <trkpt lat="45.45446" lon="5.73533">
        <ele>384.341879</ele>
        <time>2023-12-12T11:10:23.000Z</time>
      </trkpt>
      <trkpt lat="45.45445" lon="5.73526">
        <ele>384.238327</ele>
        <time>2023-12-12T11:10:24.000Z</time>
      </trkpt>
      <trkpt lat="45.45444" lon="5.73518">
        <ele>384.130013</ele>
        <time>2023-12-12T11:10:25.000Z</time>
      </trkpt>
      <trkpt lat="45.45442" lon="5.73509">
        <ele>383.869286</ele>
        <time>2023-12-12T11:10:26.000Z</time>
      </trkpt>
      <trkpt lat="45.45438" lon="5.73494">
        <ele>383.293069</ele>
        <time>2023-12-12T11:10:28.000Z</time>
      </trkpt>
      <trkpt lat="45.4543" lon="5.73483">
        <ele>382.72569</ele>
        <time>2023-12-12T11:10:30.000Z</time>
      </trkpt>
      <trkpt lat="45.45421" lon="5.73474">
        <ele>382.174158</ele>
        <time>2023-12-12T11:10:32.000Z</time>
      </trkpt>
      <trkpt lat="45.45419" lon="5.73469">
        <ele>381.956714</ele>
        <time>2023-12-12T11:10:33.000Z</time>
      </trkpt>
      <trkpt lat="45.45417" lon="5.73463">
        <ele>381.713712</ele>
        <time>2023-12-12T11:10:34.000Z</time>
      </trkpt>
      <trkpt lat="45.45418" lon="5.73457">
        <ele>381.505</ele>
        <time>2023-12-12T11:10:35.000Z</time>
      </trkpt>
      <trkpt lat="45.45426" lon="5.73449">
        <ele>381.019621</ele>
        <time>2023-12-12T11:10:37.000Z</time>
      </trkpt>
      <trkpt lat="45.4544" lon="5.73444">
        <ele>380.262371</ele>
        <time>2023-12-12T11:10:39.000Z</time>
      </trkpt>
      <trkpt lat="45.4545" lon="5.73442">
        <ele>379.776682</ele>
        <time>2023-12-12T11:10:40.000Z</time>
      </trkpt>
      <trkpt lat="45.45459" lon="5.7344">
        <ele>379.288163</ele>
        <time>2023-12-12T11:10:41.000Z</time>
      </trkpt>
      <trkpt lat="45.45467" lon="5.73435">
        <ele>378.873781</ele>
        <time>2023-12-12T11:10:42.000Z</time>
      </trkpt>
      <trkpt lat="45.45474" lon="5.7343">
        <ele>378.457062</ele>
        <time>2023-12-12T11:10:43.000Z</time>
      </trkpt>
      <trkpt lat="45.45479" lon="5.73422">
        <ele>378.093548</ele>
        <time>2023-12-12T11:10:44.000Z</time>
      </trkpt>
      <trkpt lat="45.45482" lon="5.73406">
        <ele>377.49826</ele>
        <time>2023-12-12T11:10:46.000Z</time>
      </trkpt>
      <trkpt lat="45.45481" lon="5.73398">
        <ele>377.193011</ele>
        <time>2023-12-12T11:10:47.000Z</time>
      </trkpt>
      <trkpt lat="45.45472" lon="5.73349">
        <ele>375.381449</ele>
        <time>2023-12-12T11:10:53.000Z</time>
      </trkpt>
      <trkpt lat="45.45466" lon="5.73319">
        <ele>374.990765</ele>
        <time>2023-12-12T11:10:57.000Z</time>
      </trkpt>
      <trkpt lat="45.45459" lon="5.73309">
        <ele>375.026574</ele>
        <time>2023-12-12T11:10:59.000Z</time>
      </trkpt>
      <trkpt lat="45.45451" lon="5.73299">
        <ele>375.062862</ele>
        <time>2023-12-12T11:11:01.000Z</time>
      </trkpt>
      <trkpt lat="45.45437" lon="5.73288">
        <ele>375.117115</ele>
        <time>2023-12-12T11:11:04.000Z</time>
      </trkpt>
      <trkpt lat="45.45429" lon="5.73281">
        <ele>375.150819</ele>
        <time>2023-12-12T11:11:06.000Z</time>
      </trkpt>
      <trkpt lat="45.45424" lon="5.73273">
        <ele>375.177268</ele>
        <time>2023-12-12T11:11:08.000Z</time>
      </trkpt>
      <trkpt lat="45.45424" lon="5.73268">
        <ele>375.188088</ele>
        <time>2023-12-12T11:11:09.000Z</time>
      </trkpt>
      <trkpt lat="45.45424" lon="5.73264">
        <ele>375.197735</ele>
        <time>2023-12-12T11:11:10.000Z</time>
      </trkpt>
      <trkpt lat="45.45427" lon="5.73253">
        <ele>375.228222</ele>
        <time>2023-12-12T11:11:13.000Z</time>
      </trkpt>
      <trkpt lat="45.45435" lon="5.7322">
        <ele>375.313445</ele>
        <time>2023-12-12T11:11:19.000Z</time>
      </trkpt>
      <trkpt lat="45.4545" lon="5.73162">
        <ele>375.462989</ele>
        <time>2023-12-12T11:11:27.000Z</time>
      </trkpt>
      <trkpt lat="45.45464" lon="5.73104">
        <ele>376.136255</ele>
        <time>2023-12-12T11:11:35.000Z</time>
      </trkpt>
      <trkpt lat="45.45465" lon="5.73096">
        <ele>376.383158</ele>
        <time>2023-12-12T11:11:36.000Z</time>
      </trkpt>
      <trkpt lat="45.45465" lon="5.73081">
        <ele>376.874574</ele>
        <time>2023-12-12T11:11:38.000Z</time>
      </trkpt>
      <trkpt lat="45.45459" lon="5.73069">
        <ele>377.356635</ele>
        <time>2023-12-12T11:11:40.000Z</time>
      </trkpt>
      <trkpt lat="45.45454" lon="5.73066">
        <ele>377.596628</ele>
        <time>2023-12-12T11:11:41.000Z</time>
      </trkpt>
      <trkpt lat="45.45449" lon="5.73065">
        <ele>377.847689</ele>
        <time>2023-12-12T11:11:42.000Z</time>
      </trkpt>
      <trkpt lat="45.45443" lon="5.73063">
        <ele>378.096382</ele>
        <time>2023-12-12T11:11:43.000Z</time>
      </trkpt>
      <trkpt lat="45.45432" lon="5.73062">
        <ele>378.603018</ele>
        <time>2023-12-12T11:11:45.000Z</time>
      </trkpt>
      <trkpt lat="45.45416" lon="5.7306">
        <ele>379.353543</ele>
        <time>2023-12-12T11:11:48.000Z</time>
      </trkpt>
      <trkpt lat="45.45411" lon="5.73058">
        <ele>379.597025</ele>
        <time>2023-12-12T11:11:49.000Z</time>
      </trkpt>
      <trkpt lat="45.45402" lon="5.73052">
        <ele>380.091002</ele>
        <time>2023-12-12T11:11:51.000Z</time>
      </trkpt>
      <trkpt lat="45.45397" lon="5.73048">
        <ele>380.328947</ele>
        <time>2023-12-12T11:11:52.000Z</time>
      </trkpt>
      <trkpt lat="45.45393" lon="5.73043">
        <ele>380.571249</ele>
        <time>2023-12-12T11:11:53.000Z</time>
      </trkpt>
      <trkpt lat="45.45386" lon="5.73032">
        <ele>381.046881</ele>
        <time>2023-12-12T11:11:55.000Z</time>
      </trkpt>
      <trkpt lat="45.45383" lon="5.73026">
        <ele>381.275784</ele>
        <time>2023-12-12T11:11:56.000Z</time>
      </trkpt>
      <trkpt lat="45.45375" lon="5.73002">
        <ele>382.167242</ele>
        <time>2023-12-12T11:12:00.000Z</time>
      </trkpt>
      <trkpt lat="45.45367" lon="5.7298">
        <ele>382.97281</ele>
        <time>2023-12-12T11:12:04.000Z</time>
      </trkpt>
      <trkpt lat="45.45362" lon="5.7297">
        <ele>383.37473</ele>
        <time>2023-12-12T11:12:06.000Z</time>
      </trkpt>
      <trkpt lat="45.45359" lon="5.72965">
        <ele>383.5742</ele>
        <time>2023-12-12T11:12:07.000Z</time>
      </trkpt>
      <trkpt lat="45.45356" lon="5.72961">
        <ele>383.777994</ele>
        <time>2023-12-12T11:12:08.000Z</time>
      </trkpt>
      <trkpt lat="45.45352" lon="5.72957">
        <ele>384.106228</ele>
        <time>2023-12-12T11:12:09.000Z</time>
      </trkpt>
      <trkpt lat="45.45343" lon="5.72948">
        <ele>385.72838</ele>
        <time>2023-12-12T11:12:12.000Z</time>
      </trkpt>
      <trkpt lat="45.45339" lon="5.72946">
        <ele>386.234289</ele>
        <time>2023-12-12T11:12:13.000Z</time>
      </trkpt>
      <trkpt lat="45.45333" lon="5.72942">
        <ele>387.164644</ele>
        <time>2023-12-12T11:12:15.000Z</time>
      </trkpt>
      <trkpt lat="45.45329" lon="5.72937">
        <ele>387.996828</ele>
        <time>2023-12-12T11:12:17.000Z</time>
      </trkpt>
      <trkpt lat="45.45327" lon="5.72933">
        <ele>388.39434</ele>
        <time>2023-12-12T11:12:18.000Z</time>
      </trkpt>
      <trkpt lat="45.45328" lon="5.72918">
        <ele>389.948229</ele>
        <time>2023-12-12T11:12:22.000Z</time>
      </trkpt>
      <trkpt lat="45.45329" lon="5.72914">
        <ele>390.357781</ele>
        <time>2023-12-12T11:12:23.000Z</time>
      </trkpt>
      <trkpt lat="45.45332" lon="5.72907">
        <ele>391.129631</ele>
        <time>2023-12-12T11:12:25.000Z</time>
      </trkpt>
      <trkpt lat="45.45335" lon="5.72898">
        <ele>392.172231</ele>
        <time>2023-12-12T11:12:28.000Z</time>
      </trkpt>
      <trkpt lat="45.45336" lon="5.72896">
        <ele>392.457053</ele>
        <time>2023-12-12T11:12:29.000Z</time>
      </trkpt>
      <trkpt lat="45.45337" lon="5.72893">
        <ele>392.74074</ele>
        <time>2023-12-12T11:12:30.000Z</time>
      </trkpt>
      <trkpt lat="45.45342" lon="5.72884">
        <ele>393.883967</ele>
        <time>2023-12-12T11:12:34.000Z</time>
      </trkpt>
      <trkpt lat="45.45345" lon="5.72876">
        <ele>394.752755</ele>
        <time>2023-12-12T11:12:37.000Z</time>
      </trkpt>
      <trkpt lat="45.45347" lon="5.72868">
        <ele>395.65041</ele>
        <time>2023-12-12T11:12:40.000Z</time>
      </trkpt>
      <trkpt lat="45.4535" lon="5.72858">
        <ele>396.721341</ele>
        <time>2023-12-12T11:12:44.000Z</time>
      </trkpt>
      <trkpt lat="45.45351" lon="5.72847">
        <ele>397.825683</ele>
        <time>2023-12-12T11:12:48.000Z</time>
      </trkpt>
      <trkpt lat="45.45351" lon="5.72844">
        <ele>398.07471</ele>
        <time>2023-12-12T11:12:49.000Z</time>
      </trkpt>
      <trkpt lat="45.45352" lon="5.72839">
        <ele>398.571363</ele>
        <time>2023-12-12T11:12:51.000Z</time>
      </trkpt>
      <trkpt lat="45.45353" lon="5.72829">
        <ele>399.563374</ele>
        <time>2023-12-12T11:12:55.000Z</time>
      </trkpt>
      <trkpt lat="45.45352" lon="5.72822">
        <ele>400.25745</ele>
        <time>2023-12-12T11:12:58.000Z</time>
      </trkpt>
      <trkpt lat="45.45352" lon="5.7282">
        <ele>400.508468</ele>
        <time>2023-12-12T11:12:59.000Z</time>
      </trkpt>
      <trkpt lat="45.45352" lon="5.7281">
        <ele>401.46847</ele>
        <time>2023-12-12T11:13:03.000Z</time>
      </trkpt>
      <trkpt lat="45.45352" lon="5.72802">
        <ele>402.251472</ele>
        <time>2023-12-12T11:13:06.000Z</time>
      </trkpt>
      <trkpt lat="45.45352" lon="5.72799">
        <ele>402.520175</ele>
        <time>2023-12-12T11:13:07.000Z</time>
      </trkpt>
      <trkpt lat="45.45352" lon="5.72792">
        <ele>403.243889</ele>
        <time>2023-12-12T11:13:10.000Z</time>
      </trkpt>
      <trkpt lat="45.45352" lon="5.7279">
        <ele>403.471955</ele>
        <time>2023-12-12T11:13:11.000Z</time>
      </trkpt>
      <trkpt lat="45.45352" lon="5.7278">
        <ele>404.423003</ele>
        <time>2023-12-12T11:13:15.000Z</time>
      </trkpt>
      <trkpt lat="45.45352" lon="5.72778">
        <ele>404.651069</ele>
        <time>2023-12-12T11:13:16.000Z</time>
      </trkpt>
      <trkpt lat="45.45351" lon="5.72773">
        <ele>405.129462</ele>
        <time>2023-12-12T11:13:18.000Z</time>
      </trkpt>
      <trkpt lat="45.45351" lon="5.72763">
        <ele>406.12945</ele>
        <time>2023-12-12T11:13:22.000Z</time>
      </trkpt>
      <trkpt lat="45.45351" lon="5.72758">
        <ele>406.665557</ele>
        <time>2023-12-12T11:13:24.000Z</time>
      </trkpt>
      <trkpt lat="45.4535" lon="5.72749">
        <ele>407.491353</ele>
        <time>2023-12-12T11:13:27.000Z</time>
      </trkpt>
      <trkpt lat="45.4535" lon="5.72739">
        <ele>408.546482</ele>
        <time>2023-12-12T11:13:31.000Z</time>
      </trkpt>
      <trkpt lat="45.45349" lon="5.72731">
        <ele>409.306168</ele>
        <time>2023-12-12T11:13:34.000Z</time>
      </trkpt>
      <trkpt lat="45.4535" lon="5.7272">
        <ele>409.989521</ele>
        <time>2023-12-12T11:13:38.000Z</time>
      </trkpt>
      <trkpt lat="45.45349" lon="5.72709">
        <ele>410.680058</ele>
        <time>2023-12-12T11:13:42.000Z</time>
      </trkpt>
      <trkpt lat="45.45349" lon="5.72707">
        <ele>410.842911</ele>
        <time>2023-12-12T11:13:43.000Z</time>
      </trkpt>
      <trkpt lat="45.45349" lon="5.72702">
        <ele>411.146903</ele>
        <time>2023-12-12T11:13:45.000Z</time>
      </trkpt>
      <trkpt lat="45.4535" lon="5.72699">
        <ele>411.309728</ele>
        <time>2023-12-12T11:13:46.000Z</time>
      </trkpt>
      <trkpt lat="45.4535" lon="5.72694">
        <ele>411.631207</ele>
        <time>2023-12-12T11:13:48.000Z</time>
      </trkpt>
      <trkpt lat="45.4535" lon="5.72689">
        <ele>411.957082</ele>
        <time>2023-12-12T11:13:50.000Z</time>
      </trkpt>
      <trkpt lat="45.45351" lon="5.7268">
        <ele>412.52152</ele>
        <time>2023-12-12T11:13:53.000Z</time>
      </trkpt>
      <trkpt lat="45.45351" lon="5.72665">
        <ele>413.44935</ele>
        <time>2023-12-12T11:13:58.000Z</time>
      </trkpt>
      <trkpt lat="45.45351" lon="5.72662">
        <ele>413.639184</ele>
        <time>2023-12-12T11:13:59.000Z</time>
      </trkpt>
      <trkpt lat="45.45352" lon="5.72651">
        <ele>414.317865</ele>
        <time>2023-12-12T11:14:03.000Z</time>
      </trkpt>
      <trkpt lat="45.45352" lon="5.72649">
        <ele>414.458263</ele>
        <time>2023-12-12T11:14:04.000Z</time>
      </trkpt>
      <trkpt lat="45.45351" lon="5.72638">
        <ele>415.146905</ele>
        <time>2023-12-12T11:14:08.000Z</time>
      </trkpt>
      <trkpt lat="45.45351" lon="5.72635">
        <ele>415.356889</ele>
        <time>2023-12-12T11:14:09.000Z</time>
      </trkpt>
      <trkpt lat="45.45348" lon="5.72612">
        <ele>416.845477</ele>
        <time>2023-12-12T11:14:15.000Z</time>
      </trkpt>
      <trkpt lat="45.45347" lon="5.72599">
        <ele>417.616835</ele>
        <time>2023-12-12T11:14:18.000Z</time>
      </trkpt>
      <trkpt lat="45.45342" lon="5.72583">
        <ele>418.759018</ele>
        <time>2023-12-12T11:14:23.000Z</time>
      </trkpt>
      <trkpt lat="45.45334" lon="5.72573">
        <ele>419.767147</ele>
        <time>2023-12-12T11:14:27.000Z</time>
      </trkpt>
      <trkpt lat="45.45326" lon="5.7257">
        <ele>420.487201</ele>
        <time>2023-12-12T11:14:30.000Z</time>
      </trkpt>
      <trkpt lat="45.45314" lon="5.72574">
        <ele>421.531304</ele>
        <time>2023-12-12T11:14:34.000Z</time>
      </trkpt>
      <trkpt lat="45.45309" lon="5.72577">
        <ele>422.03147</ele>
        <time>2023-12-12T11:14:36.000Z</time>
      </trkpt>
      <trkpt lat="45.45299" lon="5.72589">
        <ele>423.206352</ele>
        <time>2023-12-12T11:14:41.000Z</time>
      </trkpt>
      <trkpt lat="45.45289" lon="5.72598">
        <ele>424.231976</ele>
        <time>2023-12-12T11:14:45.000Z</time>
      </trkpt>
      <trkpt lat="45.45287" lon="5.72601">
        <ele>424.498052</ele>
        <time>2023-12-12T11:14:46.000Z</time>
      </trkpt>
      <trkpt lat="45.45277" lon="5.72614">
        <ele>425.926717</ele>
        <time>2023-12-12T11:14:51.000Z</time>
      </trkpt>
      <trkpt lat="45.4527" lon="5.72626">
        <ele>427.558638</ele>
        <time>2023-12-12T11:14:55.000Z</time>
      </trkpt>
      <trkpt lat="45.45266" lon="5.72636">
        <ele>428.756421</ele>
        <time>2023-12-12T11:14:58.000Z</time>
      </trkpt>
      <trkpt lat="45.45262" lon="5.72651">
        <ele>430.411552</ele>
        <time>2023-12-12T11:15:02.000Z</time>
      </trkpt>
      <trkpt lat="45.45259" lon="5.72658">
        <ele>431.258064</ele>
        <time>2023-12-12T11:15:04.000Z</time>
      </trkpt>
      <trkpt lat="45.45257" lon="5.72662">
        <ele>431.6719</ele>
        <time>2023-12-12T11:15:05.000Z</time>
      </trkpt>
      <trkpt lat="45.45247" lon="5.72674">
        <ele>433.668026</ele>
        <time>2023-12-12T11:15:10.000Z</time>
      </trkpt>
      <trkpt lat="45.45244" lon="5.72674">
        <ele>434.051156</ele>
        <time>2023-12-12T11:15:11.000Z</time>
      </trkpt>
      <trkpt lat="45.45226" lon="5.72667">
        <ele>436.862476</ele>
        <time>2023-12-12T11:15:18.000Z</time>
      </trkpt>
      <trkpt lat="45.45225" lon="5.72665">
        <ele>437.166143</ele>
        <time>2023-12-12T11:15:19.000Z</time>
      </trkpt>
      <trkpt lat="45.45224" lon="5.72662">
        <ele>437.453086</ele>
        <time>2023-12-12T11:15:20.000Z</time>
      </trkpt>
      <trkpt lat="45.45224" lon="5.72659">
        <ele>437.731668</ele>
        <time>2023-12-12T11:15:21.000Z</time>
      </trkpt>
      <trkpt lat="45.45224" lon="5.72657">
        <ele>437.985835</ele>
        <time>2023-12-12T11:15:22.000Z</time>
      </trkpt>
      <trkpt lat="45.45227" lon="5.72648">
        <ele>439.021632</ele>
        <time>2023-12-12T11:15:26.000Z</time>
      </trkpt>
      <trkpt lat="45.45227" lon="5.7264">
        <ele>439.856214</ele>
        <time>2023-12-12T11:15:30.000Z</time>
      </trkpt>
      <trkpt lat="45.45224" lon="5.72629">
        <ele>440.989147</ele>
        <time>2023-12-12T11:15:35.000Z</time>
      </trkpt>
      <trkpt lat="45.45222" lon="5.72626">
        <ele>441.405589</ele>
        <time>2023-12-12T11:15:37.000Z</time>
      </trkpt>
      <trkpt lat="45.45221" lon="5.72625">
        <ele>441.664701</ele>
        <time>2023-12-12T11:15:38.000Z</time>
      </trkpt>
      <trkpt lat="45.45215" lon="5.7262">
        <ele>442.598949</ele>
        <time>2023-12-12T11:15:42.000Z</time>
      </trkpt>
      <trkpt lat="45.45215" lon="5.72618">
        <ele>442.813637</ele>
        <time>2023-12-12T11:15:43.000Z</time>
      </trkpt>
      <trkpt lat="45.45211" lon="5.72613">
        <ele>443.531124</ele>
        <time>2023-12-12T11:15:46.000Z</time>
      </trkpt>
      <trkpt lat="45.45209" lon="5.72607">
        <ele>444.253764</ele>
        <time>2023-12-12T11:15:49.000Z</time>
      </trkpt>
      <trkpt lat="45.45208" lon="5.72605">
        <ele>444.477887</ele>
        <time>2023-12-12T11:15:50.000Z</time>
      </trkpt>
      <trkpt lat="45.45207" lon="5.72599">
        <ele>445.120732</ele>
        <time>2023-12-12T11:15:52.000Z</time>
      </trkpt>
      <trkpt lat="45.45204" lon="5.72594">
        <ele>445.813212</ele>
        <time>2023-12-12T11:15:55.000Z</time>
      </trkpt>
      <trkpt lat="45.45201" lon="5.7259">
        <ele>446.494653</ele>
        <time>2023-12-12T11:15:58.000Z</time>
      </trkpt>
      <trkpt lat="45.45198" lon="5.72587">
        <ele>446.95676</ele>
        <time>2023-12-12T11:16:00.000Z</time>
      </trkpt>
      <trkpt lat="45.45196" lon="5.72583">
        <ele>447.461051</ele>
        <time>2023-12-12T11:16:02.000Z</time>
      </trkpt>
      <trkpt lat="45.45195" lon="5.72581">
        <ele>447.714108</ele>
        <time>2023-12-12T11:16:03.000Z</time>
      </trkpt>
      <trkpt lat="45.45191" lon="5.72578">
        <ele>448.319328</ele>
        <time>2023-12-12T11:16:06.000Z</time>
      </trkpt>
      <trkpt lat="45.4519" lon="5.72576">
        <ele>448.648926</ele>
        <time>2023-12-12T11:16:08.000Z</time>
      </trkpt>
      <trkpt lat="45.45188" lon="5.72572">
        <ele>449.091173</ele>
        <time>2023-12-12T11:16:10.000Z</time>
      </trkpt>
      <trkpt lat="45.45186" lon="5.72565">
        <ele>449.885892</ele>
        <time>2023-12-12T11:16:15.000Z</time>
      </trkpt>
      <trkpt lat="45.45185" lon="5.72562">
        <ele>450.288803</ele>
        <time>2023-12-12T11:16:17.000Z</time>
      </trkpt>
      <trkpt lat="45.45186" lon="5.72559">
        <ele>450.505676</ele>
        <time>2023-12-12T11:16:18.000Z</time>
      </trkpt>
      <trkpt lat="45.45185" lon="5.72551">
        <ele>451.3859</ele>
        <time>2023-12-12T11:16:22.000Z</time>
      </trkpt>
      <trkpt lat="45.45184" lon="5.72544">
        <ele>452.179189</ele>
        <time>2023-12-12T11:16:25.000Z</time>
      </trkpt>
      <trkpt lat="45.45184" lon="5.7254">
        <ele>452.783753</ele>
        <time>2023-12-12T11:16:27.000Z</time>
      </trkpt>
      <trkpt lat="45.45184" lon="5.72538">
        <ele>453.053728</ele>
        <time>2023-12-12T11:16:28.000Z</time>
      </trkpt>
      <trkpt lat="45.45183" lon="5.72534">
        <ele>453.632982</ele>
        <time>2023-12-12T11:16:30.000Z</time>
      </trkpt>
      <trkpt lat="45.45184" lon="5.72532">
        <ele>453.998278</ele>
        <time>2023-12-12T11:16:31.000Z</time>
      </trkpt>
      <trkpt lat="45.45185" lon="5.72528">
        <ele>454.503405</ele>
        <time>2023-12-12T11:16:33.000Z</time>
      </trkpt>
      <trkpt lat="45.45186" lon="5.72525">
        <ele>455.068089</ele>
        <time>2023-12-12T11:16:35.000Z</time>
      </trkpt>
      <trkpt lat="45.45186" lon="5.72523">
        <ele>455.293583</ele>
        <time>2023-12-12T11:16:36.000Z</time>
      </trkpt>
      <trkpt lat="45.45188" lon="5.72521">
        <ele>455.730914</ele>
        <time>2023-12-12T11:16:38.000Z</time>
      </trkpt>
      <trkpt lat="45.45191" lon="5.72518">
        <ele>456.424736</ele>
        <time>2023-12-12T11:16:41.000Z</time>
      </trkpt>
      <trkpt lat="45.45193" lon="5.72516">
        <ele>456.939469</ele>
        <time>2023-12-12T11:16:43.000Z</time>
      </trkpt>
      <trkpt lat="45.45197" lon="5.72511">
        <ele>457.934605</ele>
        <time>2023-12-12T11:16:46.000Z</time>
      </trkpt>
      <trkpt lat="45.45199" lon="5.72506">
        <ele>458.820505</ele>
        <time>2023-12-12T11:16:49.000Z</time>
      </trkpt>
      <trkpt lat="45.452" lon="5.72502">
        <ele>459.437604</ele>
        <time>2023-12-12T11:16:51.000Z</time>
      </trkpt>
      <trkpt lat="45.452" lon="5.725">
        <ele>459.766336</ele>
        <time>2023-12-12T11:16:52.000Z</time>
      </trkpt>
      <trkpt lat="45.45199" lon="5.72494">
        <ele>460.541873</ele>
        <time>2023-12-12T11:16:55.000Z</time>
      </trkpt>
      <trkpt lat="45.45197" lon="5.72487">
        <ele>461.616562</ele>
        <time>2023-12-12T11:16:58.000Z</time>
      </trkpt>
      <trkpt lat="45.45197" lon="5.72484">
        <ele>462.010524</ele>
        <time>2023-12-12T11:16:59.000Z</time>
      </trkpt>
      <trkpt lat="45.45197" lon="5.72479">
        <ele>462.703712</ele>
        <time>2023-12-12T11:17:01.000Z</time>
      </trkpt>
      <trkpt lat="45.45193" lon="5.72472">
        <ele>463.995942</ele>
        <time>2023-12-12T11:17:05.000Z</time>
      </trkpt>
      <trkpt lat="45.45192" lon="5.72471">
        <ele>464.310741</ele>
        <time>2023-12-12T11:17:06.000Z</time>
      </trkpt>
      <trkpt lat="45.4519" lon="5.72467">
        <ele>464.899844</ele>
        <time>2023-12-12T11:17:08.000Z</time>
      </trkpt>
      <trkpt lat="45.45189" lon="5.72461">
        <ele>465.815084</ele>
        <time>2023-12-12T11:17:11.000Z</time>
      </trkpt>
      <trkpt lat="45.45186" lon="5.72456">
        <ele>466.658213</ele>
        <time>2023-12-12T11:17:14.000Z</time>
      </trkpt>
      <trkpt lat="45.45182" lon="5.72448">
        <ele>468.027814</ele>
        <time>2023-12-12T11:17:18.000Z</time>
      </trkpt>
      <trkpt lat="45.45182" lon="5.72446">
        <ele>468.320051</ele>
        <time>2023-12-12T11:17:19.000Z</time>
      </trkpt>
      <trkpt lat="45.45181" lon="5.72442">
        <ele>468.944313</ele>
        <time>2023-12-12T11:17:21.000Z</time>
      </trkpt>
      <trkpt lat="45.45179" lon="5.72435">
        <ele>469.953636</ele>
        <time>2023-12-12T11:17:24.000Z</time>
      </trkpt>
      <trkpt lat="45.45177" lon="5.72429">
        <ele>470.956117</ele>
        <time>2023-12-12T11:17:27.000Z</time>
      </trkpt>
      <trkpt lat="45.45176" lon="5.72421">
        <ele>472.005305</ele>
        <time>2023-12-12T11:17:30.000Z</time>
      </trkpt>
      <trkpt lat="45.45176" lon="5.72418">
        <ele>472.417218</ele>
        <time>2023-12-12T11:17:31.000Z</time>
      </trkpt>
      <trkpt lat="45.45174" lon="5.72409">
        <ele>473.732285</ele>
        <time>2023-12-12T11:17:35.000Z</time>
      </trkpt>
      <trkpt lat="45.45173" lon="5.72397">
        <ele>475.428127</ele>
        <time>2023-12-12T11:17:39.000Z</time>
      </trkpt>
      <trkpt lat="45.45173" lon="5.72391">
        <ele>476.335446</ele>
        <time>2023-12-12T11:17:41.000Z</time>
      </trkpt>
      <trkpt lat="45.45171" lon="5.72385">
        <ele>477.204444</ele>
        <time>2023-12-12T11:17:43.000Z</time>
      </trkpt>
      <trkpt lat="45.45171" lon="5.72383">
        <ele>477.550246</ele>
        <time>2023-12-12T11:17:44.000Z</time>
      </trkpt>
      <trkpt lat="45.45169" lon="5.72379">
        <ele>478.193401</ele>
        <time>2023-12-12T11:17:46.000Z</time>
      </trkpt>
      <trkpt lat="45.45169" lon="5.72376">
        <ele>478.597884</ele>
        <time>2023-12-12T11:17:47.000Z</time>
      </trkpt>
      <trkpt lat="45.45163" lon="5.72365">
        <ele>480.507576</ele>
        <time>2023-12-12T11:17:52.000Z</time>
      </trkpt>
      <trkpt lat="45.45161" lon="5.72354">
        <ele>482.046022</ele>
        <time>2023-12-12T11:17:56.000Z</time>
      </trkpt>
      <trkpt lat="45.4516" lon="5.72352">
        <ele>482.39423</ele>
        <time>2023-12-12T11:17:57.000Z</time>
      </trkpt>
      <trkpt lat="45.45156" lon="5.72343">
        <ele>483.924467</ele>
        <time>2023-12-12T11:18:01.000Z</time>
      </trkpt>
      <trkpt lat="45.45151" lon="5.72337">
        <ele>485.236872</ele>
        <time>2023-12-12T11:18:04.000Z</time>
      </trkpt>
      <trkpt lat="45.45149" lon="5.72336">
        <ele>485.596012</ele>
        <time>2023-12-12T11:18:05.000Z</time>
      </trkpt>
      <trkpt lat="45.45144" lon="5.72329">
        <ele>487.03003</ele>
        <time>2023-12-12T11:18:08.000Z</time>
      </trkpt>
      <trkpt lat="45.45139" lon="5.72321">
        <ele>488.698051</ele>
        <time>2023-12-12T11:18:12.000Z</time>
      </trkpt>
      <trkpt lat="45.45137" lon="5.72318">
        <ele>489.117183</ele>
        <time>2023-12-12T11:18:13.000Z</time>
      </trkpt>
      <trkpt lat="45.45136" lon="5.72314">
        <ele>489.835429</ele>
        <time>2023-12-12T11:18:16.000Z</time>
      </trkpt>
      <trkpt lat="45.45132" lon="5.72309">
        <ele>490.966158</ele>
        <time>2023-12-12T11:18:19.000Z</time>
      </trkpt>
      <trkpt lat="45.45129" lon="5.72303">
        <ele>492.153607</ele>
        <time>2023-12-12T11:18:22.000Z</time>
      </trkpt>
      <trkpt lat="45.45125" lon="5.72298">
        <ele>493.194876</ele>
        <time>2023-12-12T11:18:25.000Z</time>
      </trkpt>
      <trkpt lat="45.45119" lon="5.7229">
        <ele>495.023902</ele>
        <time>2023-12-12T11:18:30.000Z</time>
      </trkpt>
      <trkpt lat="45.45117" lon="5.72287">
        <ele>495.573302</ele>
        <time>2023-12-12T11:18:32.000Z</time>
      </trkpt>
      <trkpt lat="45.45114" lon="5.72283">
        <ele>496.599833</ele>
        <time>2023-12-12T11:18:35.000Z</time>
      </trkpt>
      <trkpt lat="45.45109" lon="5.72278">
        <ele>497.917967</ele>
        <time>2023-12-12T11:18:38.000Z</time>
      </trkpt>
      <trkpt lat="45.45105" lon="5.72274">
        <ele>498.782197</ele>
        <time>2023-12-12T11:18:40.000Z</time>
      </trkpt>
      <trkpt lat="45.45104" lon="5.72273">
        <ele>499.156751</ele>
        <time>2023-12-12T11:18:41.000Z</time>
      </trkpt>
      <trkpt lat="45.451" lon="5.72271">
        <ele>499.99991</ele>
        <time>2023-12-12T11:18:43.000Z</time>
      </trkpt>
      <trkpt lat="45.45098" lon="5.72269">
        <ele>500.655395</ele>
        <time>2023-12-12T11:18:46.000Z</time>
      </trkpt>
      <trkpt lat="45.45097" lon="5.72268">
        <ele>500.812528</ele>
        <time>2023-12-12T11:18:48.000Z</time>
      </trkpt>
      <trkpt lat="45.45097" lon="5.72268">
        <ele>500.855407</ele>
        <time>2023-12-12T11:18:53.000Z</time>
      </trkpt>
      <trkpt lat="45.45097" lon="5.72268">
        <ele>500.898286</ele>
        <time>2023-12-12T11:18:56.000Z</time>
      </trkpt>
      <trkpt lat="45.45095" lon="5.72267">
        <ele>501.460116</ele>
        <time>2023-12-12T11:19:02.000Z</time>
      </trkpt>
      <trkpt lat="45.45092" lon="5.72264">
        <ele>502.10254</ele>
        <time>2023-12-12T11:19:04.000Z</time>
      </trkpt>
      <trkpt lat="45.45088" lon="5.72259">
        <ele>503.272382</ele>
        <time>2023-12-12T11:19:08.000Z</time>
      </trkpt>
      <trkpt lat="45.45086" lon="5.72257">
        <ele>503.700218</ele>
        <time>2023-12-12T11:19:09.000Z</time>
      </trkpt>
      <trkpt lat="45.45084" lon="5.72255">
        <ele>504.303417</ele>
        <time>2023-12-12T11:19:11.000Z</time>
      </trkpt>
      <trkpt lat="45.45082" lon="5.72251">
        <ele>505.046943</ele>
        <time>2023-12-12T11:19:14.000Z</time>
      </trkpt>
      <trkpt lat="45.45078" lon="5.72248">
        <ele>505.967075</ele>
        <time>2023-12-12T11:19:17.000Z</time>
      </trkpt>
      <trkpt lat="45.45075" lon="5.72245">
        <ele>506.798216</ele>
        <time>2023-12-12T11:19:20.000Z</time>
      </trkpt>
      <trkpt lat="45.45072" lon="5.72244">
        <ele>507.399564</ele>
        <time>2023-12-12T11:19:22.000Z</time>
      </trkpt>
      <trkpt lat="45.45071" lon="5.72243">
        <ele>507.692521</ele>
        <time>2023-12-12T11:19:23.000Z</time>
      </trkpt>
      <trkpt lat="45.4507" lon="5.72243">
        <ele>507.996045</ele>
        <time>2023-12-12T11:19:24.000Z</time>
      </trkpt>
      <trkpt lat="45.45065" lon="5.72242">
        <ele>508.996037</ele>
        <time>2023-12-12T11:19:27.000Z</time>
      </trkpt>
      <trkpt lat="45.45062" lon="5.7224">
        <ele>509.642777</ele>
        <time>2023-12-12T11:19:29.000Z</time>
      </trkpt>
      <trkpt lat="45.4506" lon="5.72239">
        <ele>510.210057</ele>
        <time>2023-12-12T11:19:31.000Z</time>
      </trkpt>
      <trkpt lat="45.45059" lon="5.72239">
        <ele>510.453443</ele>
        <time>2023-12-12T11:19:32.000Z</time>
      </trkpt>
      <trkpt lat="45.45057" lon="5.72239">
        <ele>510.712468</ele>
        <time>2023-12-12T11:19:33.000Z</time>
      </trkpt>
      <trkpt lat="45.45053" lon="5.72238">
        <ele>511.555206</ele>
        <time>2023-12-12T11:19:36.000Z</time>
      </trkpt>
      <trkpt lat="45.4505" lon="5.72238">
        <ele>512.247176</ele>
        <time>2023-12-12T11:19:38.000Z</time>
      </trkpt>
      <trkpt lat="45.45048" lon="5.72236">
        <ele>512.860443</ele>
        <time>2023-12-12T11:19:40.000Z</time>
      </trkpt>
      <trkpt lat="45.45043" lon="5.72232">
        <ele>513.945125</ele>
        <time>2023-12-12T11:19:43.000Z</time>
      </trkpt>
      <trkpt lat="45.45039" lon="5.72228">
        <ele>515.029808</ele>
        <time>2023-12-12T11:19:46.000Z</time>
      </trkpt>
      <trkpt lat="45.45034" lon="5.72225">
        <ele>516.159594</ele>
        <time>2023-12-12T11:19:50.000Z</time>
      </trkpt>
      <trkpt lat="45.45033" lon="5.72224">
        <ele>516.488856</ele>
        <time>2023-12-12T11:19:51.000Z</time>
      </trkpt>
      <trkpt lat="45.45029" lon="5.72221">
        <ele>517.543081</ele>
        <time>2023-12-12T11:19:54.000Z</time>
      </trkpt>
      <trkpt lat="45.45022" lon="5.72217">
        <ele>519.029474</ele>
        <time>2023-12-12T11:19:58.000Z</time>
      </trkpt>
      <trkpt lat="45.45019" lon="5.72215">
        <ele>519.798266</ele>
        <time>2023-12-12T11:20:00.000Z</time>
      </trkpt>
      <trkpt lat="45.45015" lon="5.72212">
        <ele>520.663496</ele>
        <time>2023-12-12T11:20:02.000Z</time>
      </trkpt>
      <trkpt lat="45.45008" lon="5.72204">
        <ele>522.634957</ele>
        <time>2023-12-12T11:20:07.000Z</time>
      </trkpt>
      <trkpt lat="45.45003" lon="5.72198">
        <ele>524.049685</ele>
        <time>2023-12-12T11:20:11.000Z</time>
      </trkpt>
      <trkpt lat="45.45001" lon="5.72194">
        <ele>524.719797</ele>
        <time>2023-12-12T11:20:13.000Z</time>
      </trkpt>
      <trkpt lat="45.44998" lon="5.72194">
        <ele>525.454301</ele>
        <time>2023-12-12T11:20:15.000Z</time>
      </trkpt>
      <trkpt lat="45.44993" lon="5.72194">
        <ele>526.3979</ele>
        <time>2023-12-12T11:20:17.000Z</time>
      </trkpt>
      <trkpt lat="45.44983" lon="5.72191">
        <ele>527.802353</ele>
        <time>2023-12-12T11:20:22.000Z</time>
      </trkpt>
      <trkpt lat="45.44979" lon="5.72188">
        <ele>528.428211</ele>
        <time>2023-12-12T11:20:25.000Z</time>
      </trkpt>
      <trkpt lat="45.44972" lon="5.72181">
        <ele>529.663248</ele>
        <time>2023-12-12T11:20:30.000Z</time>
      </trkpt>
      <trkpt lat="45.4497" lon="5.72179">
        <ele>529.95565</ele>
        <time>2023-12-12T11:20:31.000Z</time>
      </trkpt>
      <trkpt lat="45.44959" lon="5.7215">
        <ele>533.119837</ele>
        <time>2023-12-12T11:20:41.000Z</time>
      </trkpt>
      <trkpt lat="45.44954" lon="5.72137">
        <ele>534.621839</ele>
        <time>2023-12-12T11:20:46.000Z</time>
      </trkpt>
      <trkpt lat="45.44952" lon="5.72134">
        <ele>534.96158</ele>
        <time>2023-12-12T11:20:47.000Z</time>
      </trkpt>
      <trkpt lat="45.44949" lon="5.7213">
        <ele>535.549485</ele>
        <time>2023-12-12T11:20:49.000Z</time>
      </trkpt>
      <trkpt lat="45.44947" lon="5.72128">
        <ele>535.852482</ele>
        <time>2023-12-12T11:20:50.000Z</time>
      </trkpt>
      <trkpt lat="45.44946" lon="5.72126">
        <ele>536.066175</ele>
        <time>2023-12-12T11:20:51.000Z</time>
      </trkpt>
      <trkpt lat="45.44945" lon="5.72122">
        <ele>536.495084</ele>
        <time>2023-12-12T11:20:53.000Z</time>
      </trkpt>
      <trkpt lat="45.44944" lon="5.7212">
        <ele>536.725289</ele>
        <time>2023-12-12T11:20:54.000Z</time>
      </trkpt>
      <trkpt lat="45.44941" lon="5.72117">
        <ele>537.214188</ele>
        <time>2023-12-12T11:20:56.000Z</time>
      </trkpt>
      <trkpt lat="45.44935" lon="5.72106">
        <ele>538.559945</ele>
        <time>2023-12-12T11:21:02.000Z</time>
      </trkpt>
      <trkpt lat="45.44934" lon="5.72105">
        <ele>538.800693</ele>
        <time>2023-12-12T11:21:03.000Z</time>
      </trkpt>
      <trkpt lat="45.4493" lon="5.721">
        <ele>539.495224</ele>
        <time>2023-12-12T11:21:06.000Z</time>
      </trkpt>
      <trkpt lat="45.44926" lon="5.72098">
        <ele>540.070529</ele>
        <time>2023-12-12T11:21:09.000Z</time>
      </trkpt>
      <trkpt lat="45.44923" lon="5.72095">
        <ele>540.58667</ele>
        <time>2023-12-12T11:21:11.000Z</time>
      </trkpt>
      <trkpt lat="45.4492" lon="5.72091">
        <ele>541.053165</ele>
        <time>2023-12-12T11:21:13.000Z</time>
      </trkpt>
      <trkpt lat="45.44916" lon="5.72087">
        <ele>541.805628</ele>
        <time>2023-12-12T11:21:16.000Z</time>
      </trkpt>
      <trkpt lat="45.44912" lon="5.72084">
        <ele>542.464866</ele>
        <time>2023-12-12T11:21:18.000Z</time>
      </trkpt>
      <trkpt lat="45.44909" lon="5.72081">
        <ele>542.876771</ele>
        <time>2023-12-12T11:21:20.000Z</time>
      </trkpt>
      <trkpt lat="45.44908" lon="5.7208">
        <ele>543.069445</ele>
        <time>2023-12-12T11:21:21.000Z</time>
      </trkpt>
      <trkpt lat="45.44906" lon="5.72075">
        <ele>543.590499</ele>
        <time>2023-12-12T11:21:23.000Z</time>
      </trkpt>
      <trkpt lat="45.44901" lon="5.72067">
        <ele>544.637675</ele>
        <time>2023-12-12T11:21:27.000Z</time>
      </trkpt>
      <trkpt lat="45.44897" lon="5.72065">
        <ele>545.262612</ele>
        <time>2023-12-12T11:21:29.000Z</time>
      </trkpt>
      <trkpt lat="45.44893" lon="5.72065">
        <ele>545.743728</ele>
        <time>2023-12-12T11:21:31.000Z</time>
      </trkpt>
      <trkpt lat="45.44892" lon="5.72064">
        <ele>545.944684</ele>
        <time>2023-12-12T11:21:32.000Z</time>
      </trkpt>
      <trkpt lat="45.44888" lon="5.72061">
        <ele>546.615993</ele>
        <time>2023-12-12T11:21:35.000Z</time>
      </trkpt>
      <trkpt lat="45.44886" lon="5.7206">
        <ele>546.817492</ele>
        <time>2023-12-12T11:21:36.000Z</time>
      </trkpt>
      <trkpt lat="45.4488" lon="5.72057">
        <ele>547.785274</ele>
        <time>2023-12-12T11:21:40.000Z</time>
      </trkpt>
      <trkpt lat="45.44874" lon="5.72055">
        <ele>548.589944</ele>
        <time>2023-12-12T11:21:43.000Z</time>
      </trkpt>
      <trkpt lat="45.44867" lon="5.72052">
        <ele>549.519104</ele>
        <time>2023-12-12T11:21:47.000Z</time>
      </trkpt>
      <trkpt lat="45.44861" lon="5.72051">
        <ele>550.377942</ele>
        <time>2023-12-12T11:21:51.000Z</time>
      </trkpt>
      <trkpt lat="45.44853" lon="5.72045">
        <ele>551.493537</ele>
        <time>2023-12-12T11:21:57.000Z</time>
      </trkpt>
      <trkpt lat="45.44851" lon="5.72044">
        <ele>551.687132</ele>
        <time>2023-12-12T11:21:58.000Z</time>
      </trkpt>
      <trkpt lat="45.44843" lon="5.72035">
        <ele>552.703082</ele>
        <time>2023-12-12T11:22:03.000Z</time>
      </trkpt>
      <trkpt lat="45.44838" lon="5.72032">
        <ele>553.258253</ele>
        <time>2023-12-12T11:22:06.000Z</time>
      </trkpt>
      <trkpt lat="45.44832" lon="5.72028">
        <ele>553.868176</ele>
        <time>2023-12-12T11:22:09.000Z</time>
      </trkpt>
      <trkpt lat="45.4483" lon="5.72026">
        <ele>554.101407</ele>
        <time>2023-12-12T11:22:10.000Z</time>
      </trkpt>
      <trkpt lat="45.44817" lon="5.72016">
        <ele>555.56671</ele>
        <time>2023-12-12T11:22:16.000Z</time>
      </trkpt>
      <trkpt lat="45.44814" lon="5.72006">
        <ele>556.339791</ele>
        <time>2023-12-12T11:22:19.000Z</time>
      </trkpt>
      <trkpt lat="45.44814" lon="5.71998">
        <ele>556.902289</ele>
        <time>2023-12-12T11:22:21.000Z</time>
      </trkpt>
      <trkpt lat="45.44818" lon="5.71969">
        <ele>558.954802</ele>
        <time>2023-12-12T11:22:29.000Z</time>
      </trkpt>
      <trkpt lat="45.44826" lon="5.71946">
        <ele>560.701125</ele>
        <time>2023-12-12T11:22:36.000Z</time>
      </trkpt>
      <trkpt lat="45.44832" lon="5.71938">
        <ele>561.480637</ele>
        <time>2023-12-12T11:22:39.000Z</time>
      </trkpt>
      <trkpt lat="45.44838" lon="5.71928">
        <ele>562.439013</ele>
        <time>2023-12-12T11:22:43.000Z</time>
      </trkpt>
      <trkpt lat="45.4484" lon="5.71926">
        <ele>562.661366</ele>
        <time>2023-12-12T11:22:44.000Z</time>
      </trkpt>
      <trkpt lat="45.44845" lon="5.71919">
        <ele>563.397504</ele>
        <time>2023-12-12T11:22:47.000Z</time>
      </trkpt>
      <trkpt lat="45.44847" lon="5.71917">
        <ele>563.646609</ele>
        <time>2023-12-12T11:22:48.000Z</time>
      </trkpt>
      <trkpt lat="45.44853" lon="5.71911">
        <ele>564.361265</ele>
        <time>2023-12-12T11:22:51.000Z</time>
      </trkpt>
      <trkpt lat="45.44862" lon="5.719">
        <ele>565.506306</ele>
        <time>2023-12-12T11:22:56.000Z</time>
      </trkpt>
      <trkpt lat="45.44867" lon="5.71894">
        <ele>566.156984</ele>
        <time>2023-12-12T11:22:59.000Z</time>
      </trkpt>
      <trkpt lat="45.44869" lon="5.71892">
        <ele>566.369997</ele>
        <time>2023-12-12T11:23:00.000Z</time>
      </trkpt>
      <trkpt lat="45.44872" lon="5.71888">
        <ele>566.779756</ele>
        <time>2023-12-12T11:23:02.000Z</time>
      </trkpt>
      <trkpt lat="45.44888" lon="5.71876">
        <ele>568.537643</ele>
        <time>2023-12-12T11:23:11.000Z</time>
      </trkpt>
      <trkpt lat="45.44899" lon="5.71869">
        <ele>569.432053</ele>
        <time>2023-12-12T11:23:16.000Z</time>
      </trkpt>
      <trkpt lat="45.44907" lon="5.71864">
        <ele>570.006374</ele>
        <time>2023-12-12T11:23:19.000Z</time>
      </trkpt>
      <trkpt lat="45.44911" lon="5.71864">
        <ele>570.320991</ele>
        <time>2023-12-12T11:23:21.000Z</time>
      </trkpt>
      <trkpt lat="45.44915" lon="5.71863">
        <ele>570.573623</ele>
        <time>2023-12-12T11:23:23.000Z</time>
      </trkpt>
      <trkpt lat="45.44918" lon="5.71861">
        <ele>570.780085</ele>
        <time>2023-12-12T11:23:25.000Z</time>
      </trkpt>
      <trkpt lat="45.44919" lon="5.7186">
        <ele>570.840728</ele>
        <time>2023-12-12T11:23:26.000Z</time>
      </trkpt>
      <trkpt lat="45.44923" lon="5.71858">
        <ele>571.144893</ele>
        <time>2023-12-12T11:23:29.000Z</time>
      </trkpt>
      <trkpt lat="45.44928" lon="5.71854">
        <ele>571.528027</ele>
        <time>2023-12-12T11:23:32.000Z</time>
      </trkpt>
      <trkpt lat="45.44931" lon="5.71852">
        <ele>571.753093</ele>
        <time>2023-12-12T11:23:34.000Z</time>
      </trkpt>
      <trkpt lat="45.44937" lon="5.71846">
        <ele>572.211222</ele>
        <time>2023-12-12T11:23:37.000Z</time>
      </trkpt>
      <trkpt lat="45.44941" lon="5.71842">
        <ele>572.560927</ele>
        <time>2023-12-12T11:23:40.000Z</time>
      </trkpt>
      <trkpt lat="45.44942" lon="5.71841">
        <ele>572.661346</ele>
        <time>2023-12-12T11:23:41.000Z</time>
      </trkpt>
      <trkpt lat="45.44946" lon="5.71839">
        <ele>572.929453</ele>
        <time>2023-12-12T11:23:44.000Z</time>
      </trkpt>
      <trkpt lat="45.44947" lon="5.71838">
        <ele>573.035177</ele>
        <time>2023-12-12T11:23:45.000Z</time>
      </trkpt>
      <trkpt lat="45.44952" lon="5.71834">
        <ele>573.363894</ele>
        <time>2023-12-12T11:23:48.000Z</time>
      </trkpt>
      <trkpt lat="45.44953" lon="5.71833">
        <ele>573.488113</ele>
        <time>2023-12-12T11:23:49.000Z</time>
      </trkpt>
      <trkpt lat="45.44958" lon="5.71834">
        <ele>573.762515</ele>
        <time>2023-12-12T11:23:51.000Z</time>
      </trkpt>
      <trkpt lat="45.44963" lon="5.71836">
        <ele>574.166276</ele>
        <time>2023-12-12T11:23:54.000Z</time>
      </trkpt>
      <trkpt lat="45.44966" lon="5.71838">
        <ele>574.382981</ele>
        <time>2023-12-12T11:23:56.000Z</time>
      </trkpt>
      <trkpt lat="45.44975" lon="5.71841">
        <ele>574.97334</ele>
        <time>2023-12-12T11:24:00.000Z</time>
      </trkpt>
      <trkpt lat="45.44984" lon="5.71845">
        <ele>575.581599</ele>
        <time>2023-12-12T11:24:05.000Z</time>
      </trkpt>
      <trkpt lat="45.44991" lon="5.71848">
        <ele>576.082346</ele>
        <time>2023-12-12T11:24:09.000Z</time>
      </trkpt>
      <trkpt lat="45.44997" lon="5.71853">
        <ele>576.553607</ele>
        <time>2023-12-12T11:24:12.000Z</time>
      </trkpt>
      <trkpt lat="45.45002" lon="5.71854">
        <ele>576.853329</ele>
        <time>2023-12-12T11:24:14.000Z</time>
      </trkpt>
      <trkpt lat="45.45015" lon="5.71858">
        <ele>577.762049</ele>
        <time>2023-12-12T11:24:20.000Z</time>
      </trkpt>
      <trkpt lat="45.45016" lon="5.71859">
        <ele>577.863647</ele>
        <time>2023-12-12T11:24:24.000Z</time>
      </trkpt>
      <trkpt lat="45.45007" lon="5.71858">
        <ele>578.463299</ele>
        <time>2023-12-12T11:24:30.000Z</time>
      </trkpt>
      <trkpt lat="45.44998" lon="5.71853">
        <ele>579.158315</ele>
        <time>2023-12-12T11:24:36.000Z</time>
      </trkpt>
      <trkpt lat="45.44998" lon="5.71852">
        <ele>579.173828</ele>
        <time>2023-12-12T11:24:41.000Z</time>
      </trkpt>
      <trkpt lat="45.44998" lon="5.71852">
        <ele>579.180486</ele>
        <time>2023-12-12T11:24:50.000Z</time>
      </trkpt>
      <trkpt lat="45.44998" lon="5.71852">
        <ele>579.180486</ele>
        <time>2023-12-12T11:24:57.000Z</time>
      </trkpt>
      <trkpt lat="45.44998" lon="5.71852">
        <ele>579.222818</ele>
        <time>2023-12-12T11:25:14.000Z</time>
      </trkpt>
      <trkpt lat="45.44998" lon="5.71852">
        <ele>579.241501</ele>
        <time>2023-12-12T11:25:18.000Z</time>
      </trkpt>
      <trkpt lat="45.44998" lon="5.71852">
        <ele>579.248158</ele>
        <time>2023-12-12T11:25:26.000Z</time>
      </trkpt>
      <trkpt lat="45.44998" lon="5.71852">
        <ele>579.248158</ele>
        <time>2023-12-12T11:25:32.000Z</time>
      </trkpt>
      <trkpt lat="45.44998" lon="5.71851">
        <ele>579.252829</ele>
        <time>2023-12-12T11:25:38.000Z</time>
      </trkpt>
      <trkpt lat="45.44998" lon="5.71851">
        <ele>579.26217</ele>
        <time>2023-12-12T11:25:46.000Z</time>
      </trkpt>
      <trkpt lat="45.44998" lon="5.71851">
        <ele>579.26217</ele>
        <time>2023-12-12T11:25:50.000Z</time>
      </trkpt>
      <trkpt lat="45.44999" lon="5.71851">
        <ele>579.288801</ele>
        <time>2023-12-12T11:26:09.000Z</time>
      </trkpt>
      <trkpt lat="45.44999" lon="5.71851">
        <ele>579.302912</ele>
        <time>2023-12-12T11:26:14.000Z</time>
      </trkpt>
      <trkpt lat="45.44999" lon="5.71851">
        <ele>579.311045</ele>
        <time>2023-12-12T11:26:35.000Z</time>
      </trkpt>
      <trkpt lat="45.44998" lon="5.71853">
        <ele>579.45905</ele>
        <time>2023-12-12T11:27:03.000Z</time>
      </trkpt>
      <trkpt lat="45.44997" lon="5.71854">
        <ele>579.475315</ele>
        <time>2023-12-12T11:27:07.000Z</time>
      </trkpt>
      <trkpt lat="45.44997" lon="5.71855">
        <ele>579.537368</ele>
        <time>2023-12-12T11:27:51.000Z</time>
      </trkpt>
      <trkpt lat="45.44997" lon="5.71855">
        <ele>579.569898</ele>
        <time>2023-12-12T11:27:59.000Z</time>
      </trkpt>
      <trkpt lat="45.44996" lon="5.71855">
        <ele>579.584009</ele>
        <time>2023-12-12T11:28:04.000Z</time>
      </trkpt>
      <trkpt lat="45.44996" lon="5.71855">
        <ele>579.592142</ele>
        <time>2023-12-12T11:28:32.000Z</time>
      </trkpt>
      <trkpt lat="45.44996" lon="5.71855">
        <ele>579.592142</ele>
        <time>2023-12-12T11:28:35.000Z</time>
      </trkpt>
      <trkpt lat="45.44996" lon="5.71855">
        <ele>579.592142</ele>
        <time>2023-12-12T11:28:48.000Z</time>
      </trkpt>
      <trkpt lat="45.44996" lon="5.71855">
        <ele>579.592142</ele>
        <time>2023-12-12T11:28:51.000Z</time>
      </trkpt>
      <trkpt lat="45.44996" lon="5.71855">
        <ele>579.5988</ele>
        <time>2023-12-12T11:29:21.000Z</time>
      </trkpt>
      <trkpt lat="45.44996" lon="5.71855">
        <ele>579.5988</ele>
        <time>2023-12-12T11:29:35.000Z</time>
      </trkpt>
      <trkpt lat="45.44996" lon="5.71855">
        <ele>579.5988</ele>
        <time>2023-12-12T11:30:06.000Z</time>
      </trkpt>
      <trkpt lat="45.44996" lon="5.71855">
        <ele>579.60347</ele>
        <time>2023-12-12T11:30:19.000Z</time>
      </trkpt>
      <trkpt lat="45.44996" lon="5.71855">
        <ele>579.60347</ele>
        <time>2023-12-12T11:30:33.000Z</time>
      </trkpt>
      <trkpt lat="45.44996" lon="5.71855">
        <ele>579.610128</ele>
        <time>2023-12-12T11:30:48.000Z</time>
      </trkpt>
      <trkpt lat="45.44997" lon="5.71855">
        <ele>579.616786</ele>
        <time>2023-12-12T11:30:58.000Z</time>
      </trkpt>
      <trkpt lat="45.44997" lon="5.71855">
        <ele>579.616786</ele>
        <time>2023-12-12T11:31:08.000Z</time>
      </trkpt>
      <trkpt lat="45.44997" lon="5.71855">
        <ele>579.628257</ele>
        <time>2023-12-12T11:31:32.000Z</time>
      </trkpt>
      <trkpt lat="45.44997" lon="5.71855">
        <ele>579.628257</ele>
        <time>2023-12-12T11:32:06.000Z</time>
      </trkpt>
      <trkpt lat="45.44997" lon="5.71855">
        <ele>579.628257</ele>
        <time>2023-12-12T11:32:12.000Z</time>
      </trkpt>
      <trkpt lat="45.44997" lon="5.71855">
        <ele>579.632927</ele>
        <time>2023-12-12T11:32:42.000Z</time>
      </trkpt>
      <trkpt lat="45.44997" lon="5.71855">
        <ele>579.632927</ele>
        <time>2023-12-12T11:32:59.000Z</time>
      </trkpt>
      <trkpt lat="45.44997" lon="5.71855">
        <ele>579.632927</ele>
        <time>2023-12-12T11:33:18.000Z</time>
      </trkpt>
      <trkpt lat="45.44997" lon="5.71855">
        <ele>579.632927</ele>
        <time>2023-12-12T11:33:20.000Z</time>
      </trkpt>
      <trkpt lat="45.44997" lon="5.71855">
        <ele>579.639585</ele>
        <time>2023-12-12T11:33:39.000Z</time>
      </trkpt>
      <trkpt lat="45.44997" lon="5.71855">
        <ele>579.646243</ele>
        <time>2023-12-12T11:33:46.000Z</time>
      </trkpt>
      <trkpt lat="45.44997" lon="5.71855">
        <ele>579.652901</ele>
        <time>2023-12-12T11:33:54.000Z</time>
      </trkpt>
      <trkpt lat="45.44997" lon="5.71855">
        <ele>579.661033</ele>
        <time>2023-12-12T11:35:15.000Z</time>
      </trkpt>
      <trkpt lat="45.44997" lon="5.71855">
        <ele>579.661033</ele>
        <time>2023-12-12T11:35:26.000Z</time>
      </trkpt>
      <trkpt lat="45.44997" lon="5.71855">
        <ele>579.661033</ele>
        <time>2023-12-12T11:35:32.000Z</time>
      </trkpt>
      <trkpt lat="45.44997" lon="5.71855">
        <ele>579.661033</ele>
        <time>2023-12-12T11:35:34.000Z</time>
      </trkpt>
      <trkpt lat="45.44995" lon="5.71855">
        <ele>579.788304</ele>
        <time>2023-12-12T11:35:45.000Z</time>
      </trkpt>
      <trkpt lat="45.44988" lon="5.71854">
        <ele>580.21147</ele>
        <time>2023-12-12T11:36:24.000Z</time>
      </trkpt>
      <trkpt lat="45.44987" lon="5.71853">
        <ele>580.295911</ele>
        <time>2023-12-12T11:36:25.000Z</time>
      </trkpt>
      <trkpt lat="45.44986" lon="5.71852">
        <ele>580.412787</ele>
        <time>2023-12-12T11:36:29.000Z</time>
      </trkpt>
      <trkpt lat="45.44984" lon="5.7185">
        <ele>580.58167</ele>
        <time>2023-12-12T11:36:36.000Z</time>
      </trkpt>
      <trkpt lat="45.44983" lon="5.7185">
        <ele>580.628507</ele>
        <time>2023-12-12T11:36:37.000Z</time>
      </trkpt>
      <trkpt lat="45.44982" lon="5.71851">
        <ele>580.66668</ele>
        <time>2023-12-12T11:36:48.000Z</time>
      </trkpt>
      <trkpt lat="45.44975" lon="5.71847">
        <ele>580.697871</ele>
        <time>2023-12-12T11:36:53.000Z</time>
      </trkpt>
      <trkpt lat="45.44962" lon="5.7184">
        <ele>580.469837</ele>
        <time>2023-12-12T11:36:58.000Z</time>
      </trkpt>
      <trkpt lat="45.4496" lon="5.71839">
        <ele>580.432414</ele>
        <time>2023-12-12T11:36:59.000Z</time>
      </trkpt>
      <trkpt lat="45.44954" lon="5.71839">
        <ele>580.335948</ele>
        <time>2023-12-12T11:37:03.000Z</time>
      </trkpt>
      <trkpt lat="45.44951" lon="5.71841">
        <ele>580.283763</ele>
        <time>2023-12-12T11:37:05.000Z</time>
      </trkpt>
      <trkpt lat="45.44947" lon="5.71843">
        <ele>580.211723</ele>
        <time>2023-12-12T11:37:07.000Z</time>
      </trkpt>
      <trkpt lat="45.44941" lon="5.71847">
        <ele>580.101454</ele>
        <time>2023-12-12T11:37:10.000Z</time>
      </trkpt>
      <trkpt lat="45.44938" lon="5.71851">
        <ele>580.029519</ele>
        <time>2023-12-12T11:37:12.000Z</time>
      </trkpt>
      <trkpt lat="45.44936" lon="5.71853">
        <ele>580.001857</ele>
        <time>2023-12-12T11:37:13.000Z</time>
      </trkpt>
      <trkpt lat="45.44932" lon="5.71857">
        <ele>579.909919</ele>
        <time>2023-12-12T11:37:16.000Z</time>
      </trkpt>
      <trkpt lat="45.44929" lon="5.71859">
        <ele>579.85232</ele>
        <time>2023-12-12T11:37:18.000Z</time>
      </trkpt>
      <trkpt lat="45.44926" lon="5.7186">
        <ele>579.814644</ele>
        <time>2023-12-12T11:37:19.000Z</time>
      </trkpt>
      <trkpt lat="45.4492" lon="5.7186">
        <ele>579.710002</ele>
        <time>2023-12-12T11:37:24.000Z</time>
      </trkpt>
      <trkpt lat="45.4492" lon="5.7186">
        <ele>579.708855</ele>
        <time>2023-12-12T11:37:28.000Z</time>
      </trkpt>
      <trkpt lat="45.44919" lon="5.7186">
        <ele>579.701465</ele>
        <time>2023-12-12T11:37:35.000Z</time>
      </trkpt>
      <trkpt lat="45.44919" lon="5.71859">
        <ele>579.694748</ele>
        <time>2023-12-12T11:37:38.000Z</time>
      </trkpt>
      <trkpt lat="45.44918" lon="5.71859">
        <ele>579.683303</ele>
        <time>2023-12-12T11:37:41.000Z</time>
      </trkpt>
      <trkpt lat="45.44916" lon="5.71858">
        <ele>579.636707</ele>
        <time>2023-12-12T11:37:54.000Z</time>
      </trkpt>
      <trkpt lat="45.44909" lon="5.71856">
        <ele>579.523173</ele>
        <time>2023-12-12T11:37:57.000Z</time>
      </trkpt>
      <trkpt lat="45.44905" lon="5.71854">
        <ele>579.456818</ele>
        <time>2023-12-12T11:37:59.000Z</time>
      </trkpt>
      <trkpt lat="45.44903" lon="5.71854">
        <ele>579.424037</ele>
        <time>2023-12-12T11:38:04.000Z</time>
      </trkpt>
      <trkpt lat="45.44903" lon="5.71854">
        <ele>579.42204</ele>
        <time>2023-12-12T11:38:11.000Z</time>
      </trkpt>
      <trkpt lat="45.44903" lon="5.71854">
        <ele>579.418599</ele>
        <time>2023-12-12T11:38:32.000Z</time>
      </trkpt>
      <trkpt lat="45.44903" lon="5.71854">
        <ele>579.417452</ele>
        <time>2023-12-12T11:38:34.000Z</time>
      </trkpt>
      <trkpt lat="45.44903" lon="5.71855">
        <ele>579.405993</ele>
        <time>2023-12-12T11:38:44.000Z</time>
      </trkpt>
      <trkpt lat="45.44898" lon="5.71849">
        <ele>579.310309</ele>
        <time>2023-12-12T11:38:50.000Z</time>
      </trkpt>
      <trkpt lat="45.44894" lon="5.71848">
        <ele>579.230432</ele>
        <time>2023-12-12T11:38:56.000Z</time>
      </trkpt>
      <trkpt lat="45.44894" lon="5.71848">
        <ele>579.230432</ele>
        <time>2023-12-12T11:38:57.000Z</time>
      </trkpt>
      <trkpt lat="45.4489" lon="5.71846">
        <ele>579.172239</ele>
        <time>2023-12-12T11:39:03.000Z</time>
      </trkpt>
      <trkpt lat="45.44887" lon="5.71842">
        <ele>579.097569</ele>
        <time>2023-12-12T11:39:10.000Z</time>
      </trkpt>
      <trkpt lat="45.44883" lon="5.71838">
        <ele>579.024933</ele>
        <time>2023-12-12T11:39:14.000Z</time>
      </trkpt>
      <trkpt lat="45.44882" lon="5.71837">
        <ele>579.006717</ele>
        <time>2023-12-12T11:39:17.000Z</time>
      </trkpt>
      <trkpt lat="45.44883" lon="5.71837">
        <ele>579.000726</ele>
        <time>2023-12-12T11:39:23.000Z</time>
      </trkpt>
      <trkpt lat="45.44882" lon="5.71838">
        <ele>578.9872</ele>
        <time>2023-12-12T11:39:24.000Z</time>
      </trkpt>
      <trkpt lat="45.44882" lon="5.71837">
        <ele>578.982453</ele>
        <time>2023-12-12T11:39:36.000Z</time>
      </trkpt>
      <trkpt lat="45.44882" lon="5.71837">
        <ele>578.982453</ele>
        <time>2023-12-12T11:39:39.000Z</time>
      </trkpt>
      <trkpt lat="45.44879" lon="5.71835">
        <ele>578.926335</ele>
        <time>2023-12-12T11:39:44.000Z</time>
      </trkpt>
      <trkpt lat="45.44876" lon="5.71834">
        <ele>578.880892</ele>
        <time>2023-12-12T11:39:46.000Z</time>
      </trkpt>
      <trkpt lat="45.44874" lon="5.71831">
        <ele>578.833421</ele>
        <time>2023-12-12T11:39:48.000Z</time>
      </trkpt>
      <trkpt lat="45.44872" lon="5.71828">
        <ele>578.784819</ele>
        <time>2023-12-12T11:39:50.000Z</time>
      </trkpt>
      <trkpt lat="45.44871" lon="5.71827">
        <ele>578.76269</ele>
        <time>2023-12-12T11:39:51.000Z</time>
      </trkpt>
      <trkpt lat="45.4487" lon="5.71823">
        <ele>578.713409</ele>
        <time>2023-12-12T11:39:55.000Z</time>
      </trkpt>
      <trkpt lat="45.4487" lon="5.71822">
        <ele>578.702957</ele>
        <time>2023-12-12T11:39:56.000Z</time>
      </trkpt>
      <trkpt lat="45.4487" lon="5.71822">
        <ele>578.696965</ele>
        <time>2023-12-12T11:39:59.000Z</time>
      </trkpt>
      <trkpt lat="45.4487" lon="5.71822">
        <ele>578.693155</ele>
        <time>2023-12-12T11:40:02.000Z</time>
      </trkpt>
      <trkpt lat="45.44871" lon="5.71822">
        <ele>578.684285</ele>
        <time>2023-12-12T11:40:11.000Z</time>
      </trkpt>
      <trkpt lat="45.44871" lon="5.71822">
        <ele>578.684285</ele>
        <time>2023-12-12T11:40:23.000Z</time>
      </trkpt>
      <trkpt lat="45.44868" lon="5.71818">
        <ele>578.619783</ele>
        <time>2023-12-12T11:40:28.000Z</time>
      </trkpt>
      <trkpt lat="45.44869" lon="5.71816">
        <ele>578.599633</ele>
        <time>2023-12-12T11:40:32.000Z</time>
      </trkpt>
      <trkpt lat="45.44871" lon="5.71816">
        <ele>578.56118</ele>
        <time>2023-12-12T11:40:38.000Z</time>
      </trkpt>
      <trkpt lat="45.44877" lon="5.71824">
        <ele>578.423205</ele>
        <time>2023-12-12T11:40:45.000Z</time>
      </trkpt>
      <trkpt lat="45.44878" lon="5.71825">
        <ele>578.40985</ele>
        <time>2023-12-12T11:40:46.000Z</time>
      </trkpt>
      <trkpt lat="45.44886" lon="5.71832">
        <ele>578.254974</ele>
        <time>2023-12-12T11:40:51.000Z</time>
      </trkpt>
      <trkpt lat="45.44887" lon="5.71834">
        <ele>578.219784</ele>
        <time>2023-12-12T11:40:52.000Z</time>
      </trkpt>
      <trkpt lat="45.4489" lon="5.71838">
        <ele>578.16282</ele>
        <time>2023-12-12T11:40:54.000Z</time>
      </trkpt>
      <trkpt lat="45.44893" lon="5.71841">
        <ele>578.105548</ele>
        <time>2023-12-12T11:40:57.000Z</time>
      </trkpt>
      <trkpt lat="45.44893" lon="5.71841">
        <ele>578.092746</ele>
        <time>2023-12-12T11:41:03.000Z</time>
      </trkpt>
      <trkpt lat="45.44898" lon="5.71846">
        <ele>578.004728</ele>
        <time>2023-12-12T11:41:10.000Z</time>
      </trkpt>
      <trkpt lat="45.44904" lon="5.71849">
        <ele>577.889985</ele>
        <time>2023-12-12T11:41:15.000Z</time>
      </trkpt>
      <trkpt lat="45.44905" lon="5.71852">
        <ele>577.856992</ele>
        <time>2023-12-12T11:41:19.000Z</time>
      </trkpt>
      <trkpt lat="45.44914" lon="5.71855">
        <ele>578.115161</ele>
        <time>2023-12-12T11:41:27.000Z</time>
      </trkpt>
      <trkpt lat="45.44915" lon="5.71855">
        <ele>578.164282</ele>
        <time>2023-12-12T11:41:30.000Z</time>
      </trkpt>
      <trkpt lat="45.44916" lon="5.71855">
        <ele>578.177325</ele>
        <time>2023-12-12T11:41:32.000Z</time>
      </trkpt>
      <trkpt lat="45.44916" lon="5.71855">
        <ele>578.192519</ele>
        <time>2023-12-12T11:41:35.000Z</time>
      </trkpt>
      <trkpt lat="45.44915" lon="5.71857">
        <ele>578.226431</ele>
        <time>2023-12-12T11:41:40.000Z</time>
      </trkpt>
      <trkpt lat="45.44915" lon="5.71857">
        <ele>578.232049</ele>
        <time>2023-12-12T11:41:42.000Z</time>
      </trkpt>
      <trkpt lat="45.4492" lon="5.71856">
        <ele>578.385907</ele>
        <time>2023-12-12T11:41:49.000Z</time>
      </trkpt>
      <trkpt lat="45.4492" lon="5.71857">
        <ele>578.411188</ele>
        <time>2023-12-12T11:41:50.000Z</time>
      </trkpt>
      <trkpt lat="45.44928" lon="5.71855">
        <ele>578.675626</ele>
        <time>2023-12-12T11:41:55.000Z</time>
      </trkpt>
      <trkpt lat="45.44929" lon="5.71855">
        <ele>578.685671</ele>
        <time>2023-12-12T11:41:56.000Z</time>
      </trkpt>
      <trkpt lat="45.44929" lon="5.71854">
        <ele>578.710041</ele>
        <time>2023-12-12T11:42:03.000Z</time>
      </trkpt>
      <trkpt lat="45.44929" lon="5.71853">
        <ele>578.73813</ele>
        <time>2023-12-12T11:42:09.000Z</time>
      </trkpt>
      <trkpt lat="45.44931" lon="5.71855">
        <ele>578.81222</ele>
        <time>2023-12-12T11:42:17.000Z</time>
      </trkpt>
      <trkpt lat="45.44931" lon="5.71855">
        <ele>578.814508</ele>
        <time>2023-12-12T11:42:22.000Z</time>
      </trkpt>
      <trkpt lat="45.44931" lon="5.71855">
        <ele>578.814508</ele>
        <time>2023-12-12T11:42:25.000Z</time>
      </trkpt>
      <trkpt lat="45.44931" lon="5.71855">
        <ele>578.817768</ele>
        <time>2023-12-12T11:42:30.000Z</time>
      </trkpt>
      <trkpt lat="45.44931" lon="5.71855">
        <ele>578.824631</ele>
        <time>2023-12-12T11:42:33.000Z</time>
      </trkpt>
      <trkpt lat="45.44934" lon="5.71849">
        <ele>579.00816</ele>
        <time>2023-12-12T11:42:50.000Z</time>
      </trkpt>
      <trkpt lat="45.44937" lon="5.71846">
        <ele>579.117134</ele>
        <time>2023-12-12T11:42:52.000Z</time>
      </trkpt>
      <trkpt lat="45.4494" lon="5.71843">
        <ele>579.231623</ele>
        <time>2023-12-12T11:42:54.000Z</time>
      </trkpt>
      <trkpt lat="45.44943" lon="5.71841">
        <ele>579.335372</ele>
        <time>2023-12-12T11:42:56.000Z</time>
      </trkpt>
      <trkpt lat="45.44944" lon="5.71841">
        <ele>579.381532</ele>
        <time>2023-12-12T11:43:00.000Z</time>
      </trkpt>
      <trkpt lat="45.44944" lon="5.7184">
        <ele>579.394773</ele>
        <time>2023-12-12T11:43:01.000Z</time>
      </trkpt>
      <trkpt lat="45.44945" lon="5.7184">
        <ele>579.406722</ele>
        <time>2023-12-12T11:43:02.000Z</time>
      </trkpt>
      <trkpt lat="45.44949" lon="5.71837">
        <ele>579.547261</ele>
        <time>2023-12-12T11:43:08.000Z</time>
      </trkpt>
      <trkpt lat="45.4495" lon="5.71836">
        <ele>579.598008</ele>
        <time>2023-12-12T11:43:10.000Z</time>
      </trkpt>
      <trkpt lat="45.44956" lon="5.71835">
        <ele>579.794972</ele>
        <time>2023-12-12T11:43:15.000Z</time>
      </trkpt>
      <trkpt lat="45.44958" lon="5.71835">
        <ele>579.863786</ele>
        <time>2023-12-12T11:43:17.000Z</time>
      </trkpt>
      <trkpt lat="45.44966" lon="5.71836">
        <ele>580.131775</ele>
        <time>2023-12-12T11:43:24.000Z</time>
      </trkpt>
      <trkpt lat="45.44967" lon="5.71837">
        <ele>580.171604</ele>
        <time>2023-12-12T11:43:25.000Z</time>
      </trkpt>
      <trkpt lat="45.44965" lon="5.71837">
        <ele>580.225547</ele>
        <time>2023-12-12T11:43:30.000Z</time>
      </trkpt>
      <trkpt lat="45.44962" lon="5.71835">
        <ele>580.360049</ele>
        <time>2023-12-12T11:43:38.000Z</time>
      </trkpt>
      <trkpt lat="45.44954" lon="5.71836">
        <ele>580.603756</ele>
        <time>2023-12-12T11:43:44.000Z</time>
      </trkpt>
      <trkpt lat="45.44952" lon="5.71838">
        <ele>580.68503</ele>
        <time>2023-12-12T11:43:46.000Z</time>
      </trkpt>
      <trkpt lat="45.4495" lon="5.71841">
        <ele>580.785317</ele>
        <time>2023-12-12T11:43:51.000Z</time>
      </trkpt>
      <trkpt lat="45.4495" lon="5.7184">
        <ele>580.790935</ele>
        <time>2023-12-12T11:44:10.000Z</time>
      </trkpt>
      <trkpt lat="45.4495" lon="5.7184">
        <ele>580.804329</ele>
        <time>2023-12-12T11:44:25.000Z</time>
      </trkpt>
      <trkpt lat="45.44948" lon="5.71836">
        <ele>580.926471</ele>
        <time>2023-12-12T11:44:50.000Z</time>
      </trkpt>
      <trkpt lat="45.44945" lon="5.71833">
        <ele>581.034196</ele>
        <time>2023-12-12T11:44:52.000Z</time>
      </trkpt>
      <trkpt lat="45.44939" lon="5.71829">
        <ele>581.233684</ele>
        <time>2023-12-12T11:44:56.000Z</time>
      </trkpt>
      <trkpt lat="45.44937" lon="5.71828">
        <ele>581.3297</ele>
        <time>2023-12-12T11:44:59.000Z</time>
      </trkpt>
      <trkpt lat="45.44931" lon="5.71828">
        <ele>581.502644</ele>
        <time>2023-12-12T11:45:06.000Z</time>
      </trkpt>
      <trkpt lat="45.44928" lon="5.71826">
        <ele>581.61567</ele>
        <time>2023-12-12T11:45:13.000Z</time>
      </trkpt>
      <trkpt lat="45.4493" lon="5.71824">
        <ele>581.703515</ele>
        <time>2023-12-12T11:45:24.000Z</time>
      </trkpt>
      <trkpt lat="45.44938" lon="5.71822">
        <ele>581.944689</ele>
        <time>2023-12-12T11:45:32.000Z</time>
      </trkpt>
      <trkpt lat="45.44941" lon="5.7182">
        <ele>582.056857</ele>
        <time>2023-12-12T11:45:37.000Z</time>
      </trkpt>
      <trkpt lat="45.44943" lon="5.71818">
        <ele>582.135223</ele>
        <time>2023-12-12T11:45:40.000Z</time>
      </trkpt>
      <trkpt lat="45.44944" lon="5.71818">
        <ele>582.188188</ele>
        <time>2023-12-12T11:45:46.000Z</time>
      </trkpt>
      <trkpt lat="45.44944" lon="5.71818">
        <ele>582.198233</ele>
        <time>2023-12-12T11:45:49.000Z</time>
      </trkpt>
      <trkpt lat="45.44944" lon="5.71817">
        <ele>582.215522</ele>
        <time>2023-12-12T11:45:51.000Z</time>
      </trkpt>
      <trkpt lat="45.44947" lon="5.71816">
        <ele>582.316913</ele>
        <time>2023-12-12T11:45:58.000Z</time>
      </trkpt>
      <trkpt lat="45.44949" lon="5.71817">
        <ele>582.394564</ele>
        <time>2023-12-12T11:46:06.000Z</time>
      </trkpt>
      <trkpt lat="45.44951" lon="5.71818">
        <ele>582.469854</ele>
        <time>2023-12-12T11:46:09.000Z</time>
      </trkpt>
      <trkpt lat="45.44959" lon="5.71823">
        <ele>582.753757</ele>
        <time>2023-12-12T11:46:15.000Z</time>
      </trkpt>
      <trkpt lat="45.44967" lon="5.71831">
        <ele>583.054604</ele>
        <time>2023-12-12T11:46:25.000Z</time>
      </trkpt>
      <trkpt lat="45.44968" lon="5.71837">
        <ele>583.191702</ele>
        <time>2023-12-12T11:46:32.000Z</time>
      </trkpt>
      <trkpt lat="45.44965" lon="5.71837">
        <ele>583.28021</ele>
        <time>2023-12-12T11:46:38.000Z</time>
      </trkpt>
      <trkpt lat="45.44962" lon="5.71835">
        <ele>583.381804</ele>
        <time>2023-12-12T11:46:43.000Z</time>
      </trkpt>
      <trkpt lat="45.44958" lon="5.71835">
        <ele>583.528546</ele>
        <time>2023-12-12T11:46:45.000Z</time>
      </trkpt>
      <trkpt lat="45.44953" lon="5.71837">
        <ele>583.6916</ele>
        <time>2023-12-12T11:46:47.000Z</time>
      </trkpt>
      <trkpt lat="45.44951" lon="5.71839">
        <ele>583.709905</ele>
        <time>2023-12-12T11:46:48.000Z</time>
      </trkpt>
      <trkpt lat="45.44949" lon="5.7184">
        <ele>583.704768</ele>
        <time>2023-12-12T11:46:49.000Z</time>
      </trkpt>
      <trkpt lat="45.44944" lon="5.71844">
        <ele>583.690955</ele>
        <time>2023-12-12T11:46:53.000Z</time>
      </trkpt>
      <trkpt lat="45.44942" lon="5.71846">
        <ele>583.686794</ele>
        <time>2023-12-12T11:46:54.000Z</time>
      </trkpt>
      <trkpt lat="45.44936" lon="5.71852">
        <ele>583.670338</ele>
        <time>2023-12-12T11:46:57.000Z</time>
      </trkpt>
      <trkpt lat="45.44933" lon="5.71855">
        <ele>583.661087</ele>
        <time>2023-12-12T11:46:59.000Z</time>
      </trkpt>
      <trkpt lat="45.4493" lon="5.71856">
        <ele>583.65483</ele>
        <time>2023-12-12T11:47:01.000Z</time>
      </trkpt>
      <trkpt lat="45.44929" lon="5.71856">
        <ele>583.651424</ele>
        <time>2023-12-12T11:47:02.000Z</time>
      </trkpt>
      <trkpt lat="45.4492" lon="5.71857">
        <ele>583.632788</ele>
        <time>2023-12-12T11:47:07.000Z</time>
      </trkpt>
      <trkpt lat="45.44921" lon="5.71853">
        <ele>583.62651</ele>
        <time>2023-12-12T11:47:13.000Z</time>
      </trkpt>
      <trkpt lat="45.44922" lon="5.71852">
        <ele>583.62281</ele>
        <time>2023-12-12T11:47:18.000Z</time>
      </trkpt>
      <trkpt lat="45.44922" lon="5.7185">
        <ele>583.61975</ele>
        <time>2023-12-12T11:47:23.000Z</time>
      </trkpt>
      <trkpt lat="45.44922" lon="5.7185">
        <ele>583.61975</ele>
        <time>2023-12-12T11:47:35.000Z</time>
      </trkpt>
      <trkpt lat="45.44922" lon="5.7185">
        <ele>583.61975</ele>
        <time>2023-12-12T11:47:38.000Z</time>
      </trkpt>
      <trkpt lat="45.44922" lon="5.7185">
        <ele>583.61959</ele>
        <time>2023-12-12T11:47:43.000Z</time>
      </trkpt>
      <trkpt lat="45.44926" lon="5.71845">
        <ele>583.608885</ele>
        <time>2023-12-12T11:47:48.000Z</time>
      </trkpt>
      <trkpt lat="45.44929" lon="5.7184">
        <ele>583.598452</ele>
        <time>2023-12-12T11:47:54.000Z</time>
      </trkpt>
      <trkpt lat="45.44929" lon="5.7184">
        <ele>583.598292</ele>
        <time>2023-12-12T11:47:55.000Z</time>
      </trkpt>
      <trkpt lat="45.44931" lon="5.71836">
        <ele>583.590077</ele>
        <time>2023-12-12T11:48:00.000Z</time>
      </trkpt>
      <trkpt lat="45.44932" lon="5.71831">
        <ele>583.582423</ele>
        <time>2023-12-12T11:48:04.000Z</time>
      </trkpt>
      <trkpt lat="45.44932" lon="5.71823">
        <ele>583.569353</ele>
        <time>2023-12-12T11:48:09.000Z</time>
      </trkpt>
      <trkpt lat="45.44934" lon="5.71815">
        <ele>583.555374</ele>
        <time>2023-12-12T11:48:16.000Z</time>
      </trkpt>
      <trkpt lat="45.44934" lon="5.71814">
        <ele>583.554067</ele>
        <time>2023-12-12T11:48:22.000Z</time>
      </trkpt>
      <trkpt lat="45.44934" lon="5.71814">
        <ele>583.55384</ele>
        <time>2023-12-12T11:48:24.000Z</time>
      </trkpt>
      <trkpt lat="45.44933" lon="5.71813">
        <ele>583.551621</ele>
        <time>2023-12-12T11:48:30.000Z</time>
      </trkpt>
      <trkpt lat="45.44933" lon="5.71812">
        <ele>583.548831</ele>
        <time>2023-12-12T11:48:33.000Z</time>
      </trkpt>
      <trkpt lat="45.44932" lon="5.7181">
        <ele>583.544907</ele>
        <time>2023-12-12T11:48:37.000Z</time>
      </trkpt>
      <trkpt lat="45.44929" lon="5.71807">
        <ele>583.537405</ele>
        <time>2023-12-12T11:48:42.000Z</time>
      </trkpt>
      <trkpt lat="45.44929" lon="5.71807">
        <ele>583.536269</ele>
        <time>2023-12-12T11:48:43.000Z</time>
      </trkpt>
      <trkpt lat="45.44927" lon="5.71808">
        <ele>583.532364</ele>
        <time>2023-12-12T11:48:47.000Z</time>
      </trkpt>
      <trkpt lat="45.44923" lon="5.71806">
        <ele>583.523752</ele>
        <time>2023-12-12T11:48:50.000Z</time>
      </trkpt>
      <trkpt lat="45.44921" lon="5.71805">
        <ele>583.518382</ele>
        <time>2023-12-12T11:48:53.000Z</time>
      </trkpt>
      <trkpt lat="45.44921" lon="5.71805">
        <ele>583.517474</ele>
        <time>2023-12-12T11:48:54.000Z</time>
      </trkpt>
      <trkpt lat="45.44918" lon="5.71803">
        <ele>583.509773</ele>
        <time>2023-12-12T11:49:00.000Z</time>
      </trkpt>
      <trkpt lat="45.44913" lon="5.71803">
        <ele>583.499551</ele>
        <time>2023-12-12T11:49:07.000Z</time>
      </trkpt>
      <trkpt lat="45.44914" lon="5.71804">
        <ele>583.496394</ele>
        <time>2023-12-12T11:49:12.000Z</time>
      </trkpt>
      <trkpt lat="45.44915" lon="5.71805">
        <ele>583.494949</ele>
        <time>2023-12-12T11:49:18.000Z</time>
      </trkpt>
      <trkpt lat="45.44915" lon="5.71809">
        <ele>583.488828</ele>
        <time>2023-12-12T11:49:23.000Z</time>
      </trkpt>
      <trkpt lat="45.44915" lon="5.7181">
        <ele>583.486708</ele>
        <time>2023-12-12T11:49:24.000Z</time>
      </trkpt>
      <trkpt lat="45.44916" lon="5.71812">
        <ele>583.482925</ele>
        <time>2023-12-12T11:49:26.000Z</time>
      </trkpt>
      <trkpt lat="45.4492" lon="5.71815">
        <ele>583.47267</ele>
        <time>2023-12-12T11:49:30.000Z</time>
      </trkpt>
      <trkpt lat="45.44921" lon="5.71815">
        <ele>583.472188</ele>
        <time>2023-12-12T11:49:31.000Z</time>
      </trkpt>
      <trkpt lat="45.44922" lon="5.71817">
        <ele>583.467006</ele>
        <time>2023-12-12T11:49:36.000Z</time>
      </trkpt>
      <trkpt lat="45.44922" lon="5.71818">
        <ele>583.464923</ele>
        <time>2023-12-12T11:49:37.000Z</time>
      </trkpt>
      <trkpt lat="45.44922" lon="5.71819">
        <ele>583.46284</ele>
        <time>2023-12-12T11:49:40.000Z</time>
      </trkpt>
      <trkpt lat="45.44922" lon="5.71819">
        <ele>583.462563</ele>
        <time>2023-12-12T11:49:42.000Z</time>
      </trkpt>
      <trkpt lat="45.44922" lon="5.7182">
        <ele>583.460339</ele>
        <time>2023-12-12T11:49:44.000Z</time>
      </trkpt>
      <trkpt lat="45.44923" lon="5.71821">
        <ele>583.456703</ele>
        <time>2023-12-12T11:49:48.000Z</time>
      </trkpt>
      <trkpt lat="45.44927" lon="5.71818">
        <ele>583.44644</ele>
        <time>2023-12-12T11:49:52.000Z</time>
      </trkpt>
      <trkpt lat="45.44929" lon="5.71821">
        <ele>583.439789</ele>
        <time>2023-12-12T11:49:56.000Z</time>
      </trkpt>
      <trkpt lat="45.44929" lon="5.71821">
        <ele>583.438857</ele>
        <time>2023-12-12T11:49:57.000Z</time>
      </trkpt>
      <trkpt lat="45.4493" lon="5.71833">
        <ele>583.420185</ele>
        <time>2023-12-12T11:50:02.000Z</time>
      </trkpt>
      <trkpt lat="45.44929" lon="5.71836">
        <ele>583.415582</ele>
        <time>2023-12-12T11:50:03.000Z</time>
      </trkpt>
      <trkpt lat="45.44928" lon="5.7184">
        <ele>583.408652</ele>
        <time>2023-12-12T11:50:05.000Z</time>
      </trkpt>
      <trkpt lat="45.44928" lon="5.7184">
        <ele>583.407479</ele>
        <time>2023-12-12T11:50:06.000Z</time>
      </trkpt>
      <trkpt lat="45.44926" lon="5.71841">
        <ele>583.404535</ele>
        <time>2023-12-12T11:50:12.000Z</time>
      </trkpt>
      <trkpt lat="45.44923" lon="5.71844">
        <ele>583.395716</ele>
        <time>2023-12-12T11:50:15.000Z</time>
      </trkpt>
      <trkpt lat="45.4492" lon="5.71849">
        <ele>583.384456</ele>
        <time>2023-12-12T11:50:18.000Z</time>
      </trkpt>
      <trkpt lat="45.44917" lon="5.71852">
        <ele>583.376319</ele>
        <time>2023-12-12T11:50:20.000Z</time>
      </trkpt>
      <trkpt lat="45.44916" lon="5.71852">
        <ele>583.375397</ele>
        <time>2023-12-12T11:50:21.000Z</time>
      </trkpt>
      <trkpt lat="45.44916" lon="5.71852">
        <ele>583.374166</ele>
        <time>2023-12-12T11:50:24.000Z</time>
      </trkpt>
      <trkpt lat="45.44916" lon="5.71853">
        <ele>583.373611</ele>
        <time>2023-12-12T11:50:27.000Z</time>
      </trkpt>
      <trkpt lat="45.44913" lon="5.71853">
        <ele>583.365786</ele>
        <time>2023-12-12T11:50:31.000Z</time>
      </trkpt>
      <trkpt lat="45.44909" lon="5.71853">
        <ele>583.356475</ele>
        <time>2023-12-12T11:50:34.000Z</time>
      </trkpt>
      <trkpt lat="45.44906" lon="5.71852">
        <ele>583.351127</ele>
        <time>2023-12-12T11:50:38.000Z</time>
      </trkpt>
      <trkpt lat="45.44908" lon="5.71853">
        <ele>583.347571</ele>
        <time>2023-12-12T11:50:44.000Z</time>
      </trkpt>
      <trkpt lat="45.44913" lon="5.71854">
        <ele>583.334839</ele>
        <time>2023-12-12T11:50:52.000Z</time>
      </trkpt>
      <trkpt lat="45.44917" lon="5.71855">
        <ele>583.326816</ele>
        <time>2023-12-12T11:50:59.000Z</time>
      </trkpt>
      <trkpt lat="45.44917" lon="5.71856">
        <ele>583.326287</ele>
        <time>2023-12-12T11:51:05.000Z</time>
      </trkpt>
      <trkpt lat="45.44925" lon="5.71857">
        <ele>583.30665</ele>
        <time>2023-12-12T11:51:09.000Z</time>
      </trkpt>
      <trkpt lat="45.44931" lon="5.71854">
        <ele>583.591181</ele>
        <time>2023-12-12T11:51:12.000Z</time>
      </trkpt>
      <trkpt lat="45.44932" lon="5.71853">
        <ele>583.681588</ele>
        <time>2023-12-12T11:51:13.000Z</time>
      </trkpt>
      <trkpt lat="45.44934" lon="5.7185">
        <ele>583.805895</ele>
        <time>2023-12-12T11:51:14.000Z</time>
      </trkpt>
      <trkpt lat="45.44936" lon="5.71847">
        <ele>583.945914</ele>
        <time>2023-12-12T11:51:15.000Z</time>
      </trkpt>
      <trkpt lat="45.44942" lon="5.71841">
        <ele>584.359558</ele>
        <time>2023-12-12T11:51:18.000Z</time>
      </trkpt>
      <trkpt lat="45.44946" lon="5.71838">
        <ele>584.569038</ele>
        <time>2023-12-12T11:51:20.000Z</time>
      </trkpt>
      <trkpt lat="45.44948" lon="5.71836">
        <ele>584.704437</ele>
        <time>2023-12-12T11:51:21.000Z</time>
      </trkpt>
      <trkpt lat="45.44951" lon="5.71835">
        <ele>584.890424</ele>
        <time>2023-12-12T11:51:23.000Z</time>
      </trkpt>
      <trkpt lat="45.44957" lon="5.71835">
        <ele>585.212869</ele>
        <time>2023-12-12T11:51:26.000Z</time>
      </trkpt>
      <trkpt lat="45.44964" lon="5.71838">
        <ele>585.567496</ele>
        <time>2023-12-12T11:51:29.000Z</time>
      </trkpt>
      <trkpt lat="45.44973" lon="5.71842">
        <ele>586.078824</ele>
        <time>2023-12-12T11:51:33.000Z</time>
      </trkpt>
      <trkpt lat="45.44974" lon="5.71843">
        <ele>586.153344</ele>
        <time>2023-12-12T11:51:34.000Z</time>
      </trkpt>
      <trkpt lat="45.44985" lon="5.71847">
        <ele>586.729588</ele>
        <time>2023-12-12T11:51:39.000Z</time>
      </trkpt>
      <trkpt lat="45.4499" lon="5.71851">
        <ele>587.058839</ele>
        <time>2023-12-12T11:51:43.000Z</time>
      </trkpt>
      <trkpt lat="45.4499" lon="5.71851">
        <ele>587.066225</ele>
        <time>2023-12-12T11:51:45.000Z</time>
      </trkpt>
      <trkpt lat="45.4499" lon="5.71851">
        <ele>587.069917</ele>
        <time>2023-12-12T11:51:47.000Z</time>
      </trkpt>
      <trkpt lat="45.44991" lon="5.71851">
        <ele>587.1015</ele>
        <time>2023-12-12T11:51:54.000Z</time>
      </trkpt>
      <trkpt lat="45.44997" lon="5.71854">
        <ele>587.434595</ele>
        <time>2023-12-12T11:52:10.000Z</time>
      </trkpt>
      <trkpt lat="45.45024" lon="5.71859">
        <ele>588.859824</ele>
        <time>2023-12-12T11:52:19.000Z</time>
      </trkpt>
      <trkpt lat="45.45037" lon="5.7186">
        <ele>589.52934</ele>
        <time>2023-12-12T11:52:24.000Z</time>
      </trkpt>
      <trkpt lat="45.45043" lon="5.71858">
        <ele>589.861471</ele>
        <time>2023-12-12T11:52:27.000Z</time>
      </trkpt>
      <trkpt lat="45.45044" lon="5.71857">
        <ele>589.95284</ele>
        <time>2023-12-12T11:52:28.000Z</time>
      </trkpt>
      <trkpt lat="45.45055" lon="5.71857">
        <ele>590.511578</ele>
        <time>2023-12-12T11:52:34.000Z</time>
      </trkpt>
      <trkpt lat="45.4507" lon="5.71859">
        <ele>591.299346</ele>
        <time>2023-12-12T11:52:40.000Z</time>
      </trkpt>
      <trkpt lat="45.45075" lon="5.71859">
        <ele>591.557693</ele>
        <time>2023-12-12T11:52:44.000Z</time>
      </trkpt>
      <trkpt lat="45.45076" lon="5.71859">
        <ele>591.613474</ele>
        <time>2023-12-12T11:52:45.000Z</time>
      </trkpt>
      <trkpt lat="45.45076" lon="5.71857">
        <ele>591.661874</ele>
        <time>2023-12-12T11:52:46.000Z</time>
      </trkpt>
      <trkpt lat="45.45075" lon="5.71856">
        <ele>591.74602</ele>
        <time>2023-12-12T11:52:48.000Z</time>
      </trkpt>
      <trkpt lat="45.45066" lon="5.7186">
        <ele>592.255263</ele>
        <time>2023-12-12T11:52:53.000Z</time>
      </trkpt>
      <trkpt lat="45.45053" lon="5.71857">
        <ele>592.968411</ele>
        <time>2023-12-12T11:52:59.000Z</time>
      </trkpt>
      <trkpt lat="45.4505" lon="5.71849">
        <ele>593.327831</ele>
        <time>2023-12-12T11:53:02.000Z</time>
      </trkpt>
      <trkpt lat="45.45046" lon="5.71844">
        <ele>593.695082</ele>
        <time>2023-12-12T11:53:05.000Z</time>
      </trkpt>
      <trkpt lat="45.45039" lon="5.7183">
        <ele>594.444986</ele>
        <time>2023-12-12T11:53:12.000Z</time>
      </trkpt>
      <trkpt lat="45.45038" lon="5.71825">
        <ele>594.635036</ele>
        <time>2023-12-12T11:53:14.000Z</time>
      </trkpt>
      <trkpt lat="45.45035" lon="5.71815">
        <ele>595.148402</ele>
        <time>2023-12-12T11:53:20.000Z</time>
      </trkpt>
      <trkpt lat="45.45035" lon="5.71814">
        <ele>595.198429</ele>
        <time>2023-12-12T11:53:21.000Z</time>
      </trkpt>
      <trkpt lat="45.45034" lon="5.71812">
        <ele>595.288549</ele>
        <time>2023-12-12T11:53:22.000Z</time>
      </trkpt>
      <trkpt lat="45.45031" lon="5.71808">
        <ele>595.567566</ele>
        <time>2023-12-12T11:53:25.000Z</time>
      </trkpt>
      <trkpt lat="45.45029" lon="5.71805">
        <ele>595.716547</ele>
        <time>2023-12-12T11:53:26.000Z</time>
      </trkpt>
      <trkpt lat="45.45023" lon="5.71786">
        <ele>596.64444</ele>
        <time>2023-12-12T11:53:32.000Z</time>
      </trkpt>
      <trkpt lat="45.45022" lon="5.7178">
        <ele>596.949088</ele>
        <time>2023-12-12T11:53:35.000Z</time>
      </trkpt>
      <trkpt lat="45.45021" lon="5.71779">
        <ele>596.981525</ele>
        <time>2023-12-12T11:53:36.000Z</time>
      </trkpt>
      <trkpt lat="45.45021" lon="5.71779">
        <ele>596.992338</ele>
        <time>2023-12-12T11:53:37.000Z</time>
      </trkpt>
      <trkpt lat="45.45021" lon="5.71779">
        <ele>596.998613</ele>
        <time>2023-12-12T11:53:42.000Z</time>
      </trkpt>
      <trkpt lat="45.45022" lon="5.71778">
        <ele>597.036942</ele>
        <time>2023-12-12T11:53:50.000Z</time>
      </trkpt>
      <trkpt lat="45.45027" lon="5.71773">
        <ele>597.438235</ele>
        <time>2023-12-12T11:53:56.000Z</time>
      </trkpt>
      <trkpt lat="45.45032" lon="5.71771">
        <ele>597.742724</ele>
        <time>2023-12-12T11:53:59.000Z</time>
      </trkpt>
      <trkpt lat="45.45037" lon="5.71769">
        <ele>598.072433</ele>
        <time>2023-12-12T11:54:02.000Z</time>
      </trkpt>
      <trkpt lat="45.45041" lon="5.71769">
        <ele>598.323493</ele>
        <time>2023-12-12T11:54:05.000Z</time>
      </trkpt>
      <trkpt lat="45.4505" lon="5.71773">
        <ele>598.948628</ele>
        <time>2023-12-12T11:54:09.000Z</time>
      </trkpt>
      <trkpt lat="45.45063" lon="5.71778">
        <ele>599.792236</ele>
        <time>2023-12-12T11:54:14.000Z</time>
      </trkpt>
      <trkpt lat="45.45077" lon="5.71774">
        <ele>600.68043</ele>
        <time>2023-12-12T11:54:20.000Z</time>
      </trkpt>
      <trkpt lat="45.45081" lon="5.7177">
        <ele>600.966613</ele>
        <time>2023-12-12T11:54:22.000Z</time>
      </trkpt>
      <trkpt lat="45.45089" lon="5.71765">
        <ele>601.550609</ele>
        <time>2023-12-12T11:54:26.000Z</time>
      </trkpt>
      <trkpt lat="45.45105" lon="5.71765">
        <ele>602.510774</ele>
        <time>2023-12-12T11:54:31.000Z</time>
      </trkpt>
      <trkpt lat="45.45107" lon="5.71766">
        <ele>602.685839</ele>
        <time>2023-12-12T11:54:32.000Z</time>
      </trkpt>
      <trkpt lat="45.45117" lon="5.71768">
        <ele>603.324549</ele>
        <time>2023-12-12T11:54:35.000Z</time>
      </trkpt>
      <trkpt lat="45.45132" lon="5.71769">
        <ele>604.248618</ele>
        <time>2023-12-12T11:54:39.000Z</time>
      </trkpt>
      <trkpt lat="45.45135" lon="5.71769">
        <ele>604.413849</ele>
        <time>2023-12-12T11:54:40.000Z</time>
      </trkpt>
      <trkpt lat="45.45155" lon="5.71778">
        <ele>605.708405</ele>
        <time>2023-12-12T11:54:46.000Z</time>
      </trkpt>
      <trkpt lat="45.45159" lon="5.71781">
        <ele>605.965789</ele>
        <time>2023-12-12T11:54:47.000Z</time>
      </trkpt>
      <trkpt lat="45.45178" lon="5.71808">
        <ele>607.633737</ele>
        <time>2023-12-12T11:54:54.000Z</time>
      </trkpt>
      <trkpt lat="45.45205" lon="5.71825">
        <ele>609.421012</ele>
        <time>2023-12-12T11:55:02.000Z</time>
      </trkpt>
      <trkpt lat="45.45207" lon="5.71827">
        <ele>609.579706</ele>
        <time>2023-12-12T11:55:03.000Z</time>
      </trkpt>
      <trkpt lat="45.45234" lon="5.71836">
        <ele>611.289614</ele>
        <time>2023-12-12T11:55:11.000Z</time>
      </trkpt>
      <trkpt lat="45.45246" lon="5.71837">
        <ele>611.993388</ele>
        <time>2023-12-12T11:55:15.000Z</time>
      </trkpt>
      <trkpt lat="45.45249" lon="5.71836">
        <ele>612.185463</ele>
        <time>2023-12-12T11:55:16.000Z</time>
      </trkpt>
      <trkpt lat="45.45259" lon="5.71832">
        <ele>612.809663</ele>
        <time>2023-12-12T11:55:20.000Z</time>
      </trkpt>
      <trkpt lat="45.45261" lon="5.71831">
        <ele>612.929512</ele>
        <time>2023-12-12T11:55:21.000Z</time>
      </trkpt>
      <trkpt lat="45.45268" lon="5.7183">
        <ele>613.362084</ele>
        <time>2023-12-12T11:55:25.000Z</time>
      </trkpt>
      <trkpt lat="45.45271" lon="5.71829">
        <ele>613.546924</ele>
        <time>2023-12-12T11:55:27.000Z</time>
      </trkpt>
      <trkpt lat="45.45272" lon="5.71829">
        <ele>613.626942</ele>
        <time>2023-12-12T11:55:28.000Z</time>
      </trkpt>
      <trkpt lat="45.45278" lon="5.71827">
        <ele>613.977327</ele>
        <time>2023-12-12T11:55:32.000Z</time>
      </trkpt>
      <trkpt lat="45.45279" lon="5.71827">
        <ele>614.050889</ele>
        <time>2023-12-12T11:55:33.000Z</time>
      </trkpt>
      <trkpt lat="45.45283" lon="5.71828">
        <ele>614.318238</ele>
        <time>2023-12-12T11:55:36.000Z</time>
      </trkpt>
      <trkpt lat="45.45284" lon="5.71829">
        <ele>614.375925</ele>
        <time>2023-12-12T11:55:37.000Z</time>
      </trkpt>
      <trkpt lat="45.45291" lon="5.71832">
        <ele>614.820846</ele>
        <time>2023-12-12T11:55:42.000Z</time>
      </trkpt>
      <trkpt lat="45.45292" lon="5.71832">
        <ele>614.871469</ele>
        <time>2023-12-12T11:55:43.000Z</time>
      </trkpt>
      <trkpt lat="45.45295" lon="5.71826">
        <ele>615.352252</ele>
        <time>2023-12-12T11:55:48.000Z</time>
      </trkpt>
      <trkpt lat="45.45295" lon="5.71823">
        <ele>615.573068</ele>
        <time>2023-12-12T11:55:50.000Z</time>
      </trkpt>
      <trkpt lat="45.45289" lon="5.71813">
        <ele>616.464914</ele>
        <time>2023-12-12T11:55:56.000Z</time>
      </trkpt>
      <trkpt lat="45.45286" lon="5.71808">
        <ele>616.931353</ele>
        <time>2023-12-12T11:55:59.000Z</time>
      </trkpt>
      <trkpt lat="45.4528" lon="5.71797">
        <ele>617.910567</ele>
        <time>2023-12-12T11:56:05.000Z</time>
      </trkpt>
      <trkpt lat="45.45279" lon="5.71794">
        <ele>618.080888</ele>
        <time>2023-12-12T11:56:06.000Z</time>
      </trkpt>
      <trkpt lat="45.45276" lon="5.71788">
        <ele>618.592933</ele>
        <time>2023-12-12T11:56:09.000Z</time>
      </trkpt>
      <trkpt lat="45.45272" lon="5.71775">
        <ele>619.630809</ele>
        <time>2023-12-12T11:56:14.000Z</time>
      </trkpt>
      <trkpt lat="45.45271" lon="5.71771">
        <ele>619.875742</ele>
        <time>2023-12-12T11:56:15.000Z</time>
      </trkpt>
      <trkpt lat="45.45269" lon="5.71761">
        <ele>620.60639</ele>
        <time>2023-12-12T11:56:19.000Z</time>
      </trkpt>
      <trkpt lat="45.45268" lon="5.71757">
        <ele>620.875557</ele>
        <time>2023-12-12T11:56:21.000Z</time>
      </trkpt>
      <trkpt lat="45.45268" lon="5.71755">
        <ele>621.048503</ele>
        <time>2023-12-12T11:56:25.000Z</time>
      </trkpt>
      <trkpt lat="45.45268" lon="5.71754">
        <ele>621.179024</ele>
        <time>2023-12-12T11:56:30.000Z</time>
      </trkpt>
      <trkpt lat="45.45269" lon="5.71753">
        <ele>621.214929</ele>
        <time>2023-12-12T11:56:37.000Z</time>
      </trkpt>
      <trkpt lat="45.4527" lon="5.71754">
        <ele>621.307298</ele>
        <time>2023-12-12T11:56:43.000Z</time>
      </trkpt>
      <trkpt lat="45.45269" lon="5.71753">
        <ele>621.385403</ele>
        <time>2023-12-12T11:56:49.000Z</time>
      </trkpt>
      <trkpt lat="45.4527" lon="5.71752">
        <ele>621.48115</ele>
        <time>2023-12-12T11:56:56.000Z</time>
      </trkpt>
      <trkpt lat="45.4527" lon="5.71752">
        <ele>621.493119</ele>
        <time>2023-12-12T11:56:57.000Z</time>
      </trkpt>
      <trkpt lat="45.45268" lon="5.71751">
        <ele>621.6728</ele>
        <time>2023-12-12T11:57:03.000Z</time>
      </trkpt>
      <trkpt lat="45.4527" lon="5.71751">
        <ele>621.833292</ele>
        <time>2023-12-12T11:57:20.000Z</time>
      </trkpt>
      <trkpt lat="45.45268" lon="5.71743">
        <ele>622.420393</ele>
        <time>2023-12-12T11:57:37.000Z</time>
      </trkpt>
      <trkpt lat="45.45267" lon="5.7174">
        <ele>622.668635</ele>
        <time>2023-12-12T11:57:38.000Z</time>
      </trkpt>
      <trkpt lat="45.45263" lon="5.71731">
        <ele>623.335208</ele>
        <time>2023-12-12T11:57:41.000Z</time>
      </trkpt>
      <trkpt lat="45.45259" lon="5.71722">
        <ele>624.039626</ele>
        <time>2023-12-12T11:57:44.000Z</time>
      </trkpt>
      <trkpt lat="45.45257" lon="5.71712">
        <ele>624.775779</ele>
        <time>2023-12-12T11:57:48.000Z</time>
      </trkpt>
      <trkpt lat="45.45255" lon="5.71707">
        <ele>625.158611</ele>
        <time>2023-12-12T11:57:50.000Z</time>
      </trkpt>
      <trkpt lat="45.45254" lon="5.71702">
        <ele>625.551018</ele>
        <time>2023-12-12T11:57:52.000Z</time>
      </trkpt>
      <trkpt lat="45.45252" lon="5.71698">
        <ele>625.929617</ele>
        <time>2023-12-12T11:57:54.000Z</time>
      </trkpt>
      <trkpt lat="45.45251" lon="5.71695">
        <ele>626.114632</ele>
        <time>2023-12-12T11:57:55.000Z</time>
      </trkpt>
      <trkpt lat="45.4525" lon="5.7169">
        <ele>626.477855</ele>
        <time>2023-12-12T11:57:57.000Z</time>
      </trkpt>
      <trkpt lat="45.45249" lon="5.71688">
        <ele>626.647</ele>
        <time>2023-12-12T11:57:58.000Z</time>
      </trkpt>
      <trkpt lat="45.45246" lon="5.7168">
        <ele>627.294878</ele>
        <time>2023-12-12T11:58:02.000Z</time>
      </trkpt>
      <trkpt lat="45.45243" lon="5.71675">
        <ele>627.713484</ele>
        <time>2023-12-12T11:58:04.000Z</time>
      </trkpt>
      <trkpt lat="45.45231" lon="5.71657">
        <ele>629.445572</ele>
        <time>2023-12-12T11:58:12.000Z</time>
      </trkpt>
      <trkpt lat="45.45229" lon="5.71655">
        <ele>629.633332</ele>
        <time>2023-12-12T11:58:13.000Z</time>
      </trkpt>
      <trkpt lat="45.45226" lon="5.71652">
        <ele>630.010113</ele>
        <time>2023-12-12T11:58:15.000Z</time>
      </trkpt>
      <trkpt lat="45.45216" lon="5.71644">
        <ele>631.125933</ele>
        <time>2023-12-12T11:58:20.000Z</time>
      </trkpt>
      <trkpt lat="45.45202" lon="5.71632">
        <ele>632.693123</ele>
        <time>2023-12-12T11:58:27.000Z</time>
      </trkpt>
      <trkpt lat="45.45199" lon="5.71629">
        <ele>632.718655</ele>
        <time>2023-12-12T11:58:29.000Z</time>
      </trkpt>
      <trkpt lat="45.45197" lon="5.71627">
        <ele>632.729108</ele>
        <time>2023-12-12T11:58:30.000Z</time>
      </trkpt>
      <trkpt lat="45.45194" lon="5.71625">
        <ele>632.749057</ele>
        <time>2023-12-12T11:58:32.000Z</time>
      </trkpt>
      <trkpt lat="45.45177" lon="5.71617">
        <ele>632.85478</ele>
        <time>2023-12-12T11:58:40.000Z</time>
      </trkpt>
      <trkpt lat="45.45164" lon="5.71611">
        <ele>632.940134</ele>
        <time>2023-12-12T11:58:46.000Z</time>
      </trkpt>
      <trkpt lat="45.45158" lon="5.71608">
        <ele>632.97542</ele>
        <time>2023-12-12T11:58:48.000Z</time>
      </trkpt>
      <trkpt lat="45.45148" lon="5.716">
        <ele>633.045899</ele>
        <time>2023-12-12T11:58:52.000Z</time>
      </trkpt>
      <trkpt lat="45.45142" lon="5.71596">
        <ele>633.082616</ele>
        <time>2023-12-12T11:58:54.000Z</time>
      </trkpt>
      <trkpt lat="45.45126" lon="5.71586">
        <ele>633.188294</ele>
        <time>2023-12-12T11:58:59.000Z</time>
      </trkpt>
      <trkpt lat="45.451" lon="5.7158">
        <ele>633.344847</ele>
        <time>2023-12-12T11:59:06.000Z</time>
      </trkpt>
      <trkpt lat="45.45077" lon="5.71569">
        <ele>633.491785</ele>
        <time>2023-12-12T11:59:12.000Z</time>
      </trkpt>
      <trkpt lat="45.45061" lon="5.71559">
        <ele>633.597157</ele>
        <time>2023-12-12T11:59:16.000Z</time>
      </trkpt>
      <trkpt lat="45.45046" lon="5.71551">
        <ele>633.689787</ele>
        <time>2023-12-12T11:59:20.000Z</time>
      </trkpt>
      <trkpt lat="45.45007" lon="5.71527">
        <ele>633.9815</ele>
        <time>2023-12-12T11:59:31.000Z</time>
      </trkpt>
      <trkpt lat="45.44993" lon="5.7152">
        <ele>634.08764</ele>
        <time>2023-12-12T11:59:34.000Z</time>
      </trkpt>
      <trkpt lat="45.44984" lon="5.71515">
        <ele>634.155282</ele>
        <time>2023-12-12T11:59:36.000Z</time>
      </trkpt>
      <trkpt lat="45.44973" lon="5.71508">
        <ele>634.240072</ele>
        <time>2023-12-12T11:59:39.000Z</time>
      </trkpt>
      <trkpt lat="45.44967" lon="5.71502">
        <ele>634.293963</ele>
        <time>2023-12-12T11:59:41.000Z</time>
      </trkpt>
      <trkpt lat="45.44949" lon="5.71495">
        <ele>634.431851</ele>
        <time>2023-12-12T11:59:46.000Z</time>
      </trkpt>
      <trkpt lat="45.44945" lon="5.71492">
        <ele>634.463188</ele>
        <time>2023-12-12T11:59:47.000Z</time>
      </trkpt>
      <trkpt lat="45.4492" lon="5.71477">
        <ele>634.653481</ele>
        <time>2023-12-12T11:59:54.000Z</time>
      </trkpt>
      <trkpt lat="45.449" lon="5.71463">
        <ele>634.817264</ele>
        <time>2023-12-12T12:00:00.000Z</time>
      </trkpt>
      <trkpt lat="45.44882" lon="5.71434">
        <ele>635.011728</ele>
        <time>2023-12-12T12:00:07.000Z</time>
      </trkpt>
      <trkpt lat="45.44862" lon="5.71408">
        <ele>636.842889</ele>
        <time>2023-12-12T12:00:14.000Z</time>
      </trkpt>
      <trkpt lat="45.44848" lon="5.71386">
        <ele>638.639368</ele>
        <time>2023-12-12T12:00:19.000Z</time>
      </trkpt>
      <trkpt lat="45.44846" lon="5.71382">
        <ele>638.969445</ele>
        <time>2023-12-12T12:00:20.000Z</time>
      </trkpt>
      <trkpt lat="45.4484" lon="5.71368">
        <ele>639.92352</ele>
        <time>2023-12-12T12:00:23.000Z</time>
      </trkpt>
      <trkpt lat="45.44837" lon="5.71359">
        <ele>640.544006</ele>
        <time>2023-12-12T12:00:25.000Z</time>
      </trkpt>
      <trkpt lat="45.44832" lon="5.71345">
        <ele>641.481374</ele>
        <time>2023-12-12T12:00:28.000Z</time>
      </trkpt>
      <trkpt lat="45.44831" lon="5.7134">
        <ele>641.805212</ele>
        <time>2023-12-12T12:00:29.000Z</time>
      </trkpt>
      <trkpt lat="45.44831" lon="5.71334">
        <ele>642.129577</ele>
        <time>2023-12-12T12:00:30.000Z</time>
      </trkpt>
      <trkpt lat="45.44832" lon="5.71323">
        <ele>642.775716</ele>
        <time>2023-12-12T12:00:32.000Z</time>
      </trkpt>
      <trkpt lat="45.44834" lon="5.71313">
        <ele>643.426841</ele>
        <time>2023-12-12T12:00:34.000Z</time>
      </trkpt>
      <trkpt lat="45.44835" lon="5.71303">
        <ele>644.040577</ele>
        <time>2023-12-12T12:00:36.000Z</time>
      </trkpt>
      <trkpt lat="45.44835" lon="5.71298">
        <ele>644.340933</ele>
        <time>2023-12-12T12:00:37.000Z</time>
      </trkpt>
      <trkpt lat="45.44833" lon="5.71288">
        <ele>644.925645</ele>
        <time>2023-12-12T12:00:39.000Z</time>
      </trkpt>
      <trkpt lat="45.44832" lon="5.71284">
        <ele>645.209088</ele>
        <time>2023-12-12T12:00:40.000Z</time>
      </trkpt>
      <trkpt lat="45.44832" lon="5.71264">
        <ele>646.404783</ele>
        <time>2023-12-12T12:00:44.000Z</time>
      </trkpt>
      <trkpt lat="45.44833" lon="5.71259">
        <ele>646.713739</ele>
        <time>2023-12-12T12:00:45.000Z</time>
      </trkpt>
      <trkpt lat="45.44838" lon="5.71248">
        <ele>647.514991</ele>
        <time>2023-12-12T12:00:48.000Z</time>
      </trkpt>
      <trkpt lat="45.44842" lon="5.71243">
        <ele>647.938631</ele>
        <time>2023-12-12T12:00:50.000Z</time>
      </trkpt>
      <trkpt lat="45.44848" lon="5.71235">
        <ele>648.70371</ele>
        <time>2023-12-12T12:00:54.000Z</time>
      </trkpt>
      <trkpt lat="45.44851" lon="5.71233">
        <ele>648.897357</ele>
        <time>2023-12-12T12:00:55.000Z</time>
      </trkpt>
      <trkpt lat="45.44855" lon="5.71228">
        <ele>649.37747</ele>
        <time>2023-12-12T12:00:58.000Z</time>
      </trkpt>
      <trkpt lat="45.44855" lon="5.71223">
        <ele>649.684185</ele>
        <time>2023-12-12T12:01:00.000Z</time>
      </trkpt>
      <trkpt lat="45.44847" lon="5.71209">
        <ele>650.830748</ele>
        <time>2023-12-12T12:01:05.000Z</time>
      </trkpt>
      <trkpt lat="45.44846" lon="5.71206">
        <ele>651.147109</ele>
        <time>2023-12-12T12:01:06.000Z</time>
      </trkpt>
      <trkpt lat="45.44842" lon="5.71197">
        <ele>652.071702</ele>
        <time>2023-12-12T12:01:09.000Z</time>
      </trkpt>
      <trkpt lat="45.44838" lon="5.71189">
        <ele>652.966834</ele>
        <time>2023-12-12T12:01:12.000Z</time>
      </trkpt>
      <trkpt lat="45.44833" lon="5.71177">
        <ele>654.176232</ele>
        <time>2023-12-12T12:01:16.000Z</time>
      </trkpt>
      <trkpt lat="45.44829" lon="5.71168">
        <ele>655.094708</ele>
        <time>2023-12-12T12:01:19.000Z</time>
      </trkpt>
      <trkpt lat="45.44828" lon="5.71161">
        <ele>655.726102</ele>
        <time>2023-12-12T12:01:21.000Z</time>
      </trkpt>
      <trkpt lat="45.44828" lon="5.71157">
        <ele>656.023585</ele>
        <time>2023-12-12T12:01:22.000Z</time>
      </trkpt>
      <trkpt lat="45.44827" lon="5.71147">
        <ele>656.927118</ele>
        <time>2023-12-12T12:01:25.000Z</time>
      </trkpt>
      <trkpt lat="45.44825" lon="5.71137">
        <ele>657.857527</ele>
        <time>2023-12-12T12:01:28.000Z</time>
      </trkpt>
      <trkpt lat="45.44821" lon="5.71128">
        <ele>658.799979</ele>
        <time>2023-12-12T12:01:31.000Z</time>
      </trkpt>
      <trkpt lat="45.44817" lon="5.71118">
        <ele>659.766003</ele>
        <time>2023-12-12T12:01:34.000Z</time>
      </trkpt>
      <trkpt lat="45.44815" lon="5.71108">
        <ele>660.686148</ele>
        <time>2023-12-12T12:01:37.000Z</time>
      </trkpt>
      <trkpt lat="45.44815" lon="5.71102">
        <ele>661.270315</ele>
        <time>2023-12-12T12:01:39.000Z</time>
      </trkpt>
      <trkpt lat="45.44815" lon="5.71098">
        <ele>661.569094</ele>
        <time>2023-12-12T12:01:40.000Z</time>
      </trkpt>
      <trkpt lat="45.44816" lon="5.71088">
        <ele>662.433697</ele>
        <time>2023-12-12T12:01:43.000Z</time>
      </trkpt>
      <trkpt lat="45.44816" lon="5.71081">
        <ele>663.044021</ele>
        <time>2023-12-12T12:01:46.000Z</time>
      </trkpt>
      <trkpt lat="45.44815" lon="5.71079">
        <ele>663.289017</ele>
        <time>2023-12-12T12:01:47.000Z</time>
      </trkpt>
      <trkpt lat="45.44809" lon="5.71074">
        <ele>664.11627</ele>
        <time>2023-12-12T12:01:50.000Z</time>
      </trkpt>
      <trkpt lat="45.44792" lon="5.71067">
        <ele>666.279723</ele>
        <time>2023-12-12T12:01:57.000Z</time>
      </trkpt>
      <trkpt lat="45.44789" lon="5.71065">
        <ele>666.715035</ele>
        <time>2023-12-12T12:01:59.000Z</time>
      </trkpt>
      <trkpt lat="45.44789" lon="5.71062">
        <ele>666.930114</ele>
        <time>2023-12-12T12:02:03.000Z</time>
      </trkpt>
      <trkpt lat="45.44789" lon="5.71062">
        <ele>666.988032</ele>
        <time>2023-12-12T12:02:08.000Z</time>
      </trkpt>
      <trkpt lat="45.44789" lon="5.71062">
        <ele>666.988032</ele>
        <time>2023-12-12T12:02:10.000Z</time>
      </trkpt>
      <trkpt lat="45.44789" lon="5.71062">
        <ele>667.003214</ele>
        <time>2023-12-12T12:02:22.000Z</time>
      </trkpt>
      <trkpt lat="45.44789" lon="5.71062">
        <ele>667.003214</ele>
        <time>2023-12-12T12:02:27.000Z</time>
      </trkpt>
      <trkpt lat="45.44789" lon="5.71062">
        <ele>667.003214</ele>
        <time>2023-12-12T12:02:29.000Z</time>
      </trkpt>
      <trkpt lat="45.44789" lon="5.71061">
        <ele>667.056984</ele>
        <time>2023-12-12T12:02:31.000Z</time>
      </trkpt>
      <trkpt lat="45.44798" lon="5.71044">
        <ele>668.884226</ele>
        <time>2023-12-12T12:02:36.000Z</time>
      </trkpt>
      <trkpt lat="45.44802" lon="5.71036">
        <ele>669.7196</ele>
        <time>2023-12-12T12:02:38.000Z</time>
      </trkpt>
      <trkpt lat="45.44808" lon="5.71026">
        <ele>670.937902</ele>
        <time>2023-12-12T12:02:41.000Z</time>
      </trkpt>
      <trkpt lat="45.44813" lon="5.7102">
        <ele>671.683106</ele>
        <time>2023-12-12T12:02:43.000Z</time>
      </trkpt>
      <trkpt lat="45.44815" lon="5.71017">
        <ele>672.056771</ele>
        <time>2023-12-12T12:02:44.000Z</time>
      </trkpt>
      <trkpt lat="45.44819" lon="5.7101">
        <ele>672.805457</ele>
        <time>2023-12-12T12:02:46.000Z</time>
      </trkpt>
      <trkpt lat="45.44822" lon="5.71004">
        <ele>673.39457</ele>
        <time>2023-12-12T12:02:48.000Z</time>
      </trkpt>
      <trkpt lat="45.44828" lon="5.70993">
        <ele>674.315869</ele>
        <time>2023-12-12T12:02:51.000Z</time>
      </trkpt>
      <trkpt lat="45.44832" lon="5.70983">
        <ele>675.210295</ele>
        <time>2023-12-12T12:02:54.000Z</time>
      </trkpt>
      <trkpt lat="45.44834" lon="5.70979">
        <ele>675.484896</ele>
        <time>2023-12-12T12:02:55.000Z</time>
      </trkpt>
      <trkpt lat="45.44836" lon="5.70973">
        <ele>675.994095</ele>
        <time>2023-12-12T12:02:57.000Z</time>
      </trkpt>
      <trkpt lat="45.44839" lon="5.70964">
        <ele>676.72195</ele>
        <time>2023-12-12T12:03:00.000Z</time>
      </trkpt>
      <trkpt lat="45.44843" lon="5.70954">
        <ele>677.487417</ele>
        <time>2023-12-12T12:03:03.000Z</time>
      </trkpt>
      <trkpt lat="45.44845" lon="5.70944">
        <ele>678.251332</ele>
        <time>2023-12-12T12:03:06.000Z</time>
      </trkpt>
      <trkpt lat="45.44846" lon="5.70941">
        <ele>678.513444</ele>
        <time>2023-12-12T12:03:07.000Z</time>
      </trkpt>
      <trkpt lat="45.44848" lon="5.70931">
        <ele>679.260716</ele>
        <time>2023-12-12T12:03:10.000Z</time>
      </trkpt>
      <trkpt lat="45.4485" lon="5.70921">
        <ele>679.986457</ele>
        <time>2023-12-12T12:03:13.000Z</time>
      </trkpt>
      <trkpt lat="45.4485" lon="5.70917">
        <ele>680.233817</ele>
        <time>2023-12-12T12:03:14.000Z</time>
      </trkpt>
      <trkpt lat="45.44852" lon="5.70911">
        <ele>680.755002</ele>
        <time>2023-12-12T12:03:16.000Z</time>
      </trkpt>
      <trkpt lat="45.44856" lon="5.70902">
        <ele>681.479426</ele>
        <time>2023-12-12T12:03:19.000Z</time>
      </trkpt>
      <trkpt lat="45.4486" lon="5.70894">
        <ele>682.184837</ele>
        <time>2023-12-12T12:03:22.000Z</time>
      </trkpt>
      <trkpt lat="45.44861" lon="5.70891">
        <ele>682.419582</ele>
        <time>2023-12-12T12:03:23.000Z</time>
      </trkpt>
      <trkpt lat="45.44867" lon="5.70876">
        <ele>683.598165</ele>
        <time>2023-12-12T12:03:28.000Z</time>
      </trkpt>
      <trkpt lat="45.4487" lon="5.70868">
        <ele>684.290458</ele>
        <time>2023-12-12T12:03:31.000Z</time>
      </trkpt>
      <trkpt lat="45.44873" lon="5.70859">
        <ele>684.977339</ele>
        <time>2023-12-12T12:03:34.000Z</time>
      </trkpt>
      <trkpt lat="45.44875" lon="5.70847">
        <ele>685.839403</ele>
        <time>2023-12-12T12:03:38.000Z</time>
      </trkpt>
      <trkpt lat="45.44876" lon="5.70842">
        <ele>686.222271</ele>
        <time>2023-12-12T12:03:40.000Z</time>
      </trkpt>
      <trkpt lat="45.44881" lon="5.70827">
        <ele>687.376071</ele>
        <time>2023-12-12T12:03:46.000Z</time>
      </trkpt>
      <trkpt lat="45.44883" lon="5.7082">
        <ele>687.948347</ele>
        <time>2023-12-12T12:03:49.000Z</time>
      </trkpt>
      <trkpt lat="45.44892" lon="5.70812">
        <ele>689.035687</ele>
        <time>2023-12-12T12:03:55.000Z</time>
      </trkpt>
      <trkpt lat="45.44888" lon="5.70807">
        <ele>689.501781</ele>
        <time>2023-12-12T12:04:00.000Z</time>
      </trkpt>
      <trkpt lat="45.44874" lon="5.70808">
        <ele>690.935436</ele>
        <time>2023-12-12T12:04:05.000Z</time>
      </trkpt>
      <trkpt lat="45.44848" lon="5.70811">
        <ele>691.780739</ele>
        <time>2023-12-12T12:04:11.000Z</time>
      </trkpt>
      <trkpt lat="45.44822" lon="5.70811">
        <ele>692.51842</ele>
        <time>2023-12-12T12:04:16.000Z</time>
      </trkpt>
      <trkpt lat="45.44813" lon="5.70812">
        <ele>692.763643</ele>
        <time>2023-12-12T12:04:18.000Z</time>
      </trkpt>
      <trkpt lat="45.44802" lon="5.70811">
        <ele>693.094503</ele>
        <time>2023-12-12T12:04:22.000Z</time>
      </trkpt>
      <trkpt lat="45.44794" lon="5.70809">
        <ele>693.311112</ele>
        <time>2023-12-12T12:04:25.000Z</time>
      </trkpt>
      <trkpt lat="45.44786" lon="5.70803">
        <ele>693.561039</ele>
        <time>2023-12-12T12:04:29.000Z</time>
      </trkpt>
      <trkpt lat="45.44781" lon="5.70793">
        <ele>693.826493</ele>
        <time>2023-12-12T12:04:33.000Z</time>
      </trkpt>
      <trkpt lat="45.44773" lon="5.7078">
        <ele>694.162788</ele>
        <time>2023-12-12T12:04:37.000Z</time>
      </trkpt>
      <trkpt lat="45.44757" lon="5.7076">
        <ele>694.770716</ele>
        <time>2023-12-12T12:04:43.000Z</time>
      </trkpt>
      <trkpt lat="45.4473" lon="5.70726">
        <ele>695.794501</ele>
        <time>2023-12-12T12:04:51.000Z</time>
      </trkpt>
      <trkpt lat="45.44698" lon="5.70695">
        <ele>698.497952</ele>
        <time>2023-12-12T12:05:00.000Z</time>
      </trkpt>
      <trkpt lat="45.4469" lon="5.70678">
        <ele>699.802303</ele>
        <time>2023-12-12T12:05:04.000Z</time>
      </trkpt>
      <trkpt lat="45.4469" lon="5.70674">
        <ele>700.095362</ele>
        <time>2023-12-12T12:05:05.000Z</time>
      </trkpt>
      <trkpt lat="45.44694" lon="5.70662">
        <ele>700.923354</ele>
        <time>2023-12-12T12:05:08.000Z</time>
      </trkpt>
      <trkpt lat="45.44695" lon="5.70658">
        <ele>701.161848</ele>
        <time>2023-12-12T12:05:09.000Z</time>
      </trkpt>
      <trkpt lat="45.44697" lon="5.70642">
        <ele>702.21059</ele>
        <time>2023-12-12T12:05:13.000Z</time>
      </trkpt>
      <trkpt lat="45.44698" lon="5.7063">
        <ele>703.026391</ele>
        <time>2023-12-12T12:05:16.000Z</time>
      </trkpt>
      <trkpt lat="45.44697" lon="5.70613">
        <ele>704.115903</ele>
        <time>2023-12-12T12:05:20.000Z</time>
      </trkpt>
      <trkpt lat="45.44695" lon="5.70601">
        <ele>704.855313</ele>
        <time>2023-12-12T12:05:23.000Z</time>
      </trkpt>
      <trkpt lat="45.44693" lon="5.70594">
        <ele>705.371098</ele>
        <time>2023-12-12T12:05:25.000Z</time>
      </trkpt>
      <trkpt lat="45.4469" lon="5.70586">
        <ele>705.925978</ele>
        <time>2023-12-12T12:05:27.000Z</time>
      </trkpt>
      <trkpt lat="45.44686" lon="5.70575">
        <ele>706.786593</ele>
        <time>2023-12-12T12:05:30.000Z</time>
      </trkpt>
      <trkpt lat="45.44682" lon="5.70567">
        <ele>707.349043</ele>
        <time>2023-12-12T12:05:32.000Z</time>
      </trkpt>
      <trkpt lat="45.44679" lon="5.70559">
        <ele>707.901398</ele>
        <time>2023-12-12T12:05:34.000Z</time>
      </trkpt>
      <trkpt lat="45.44675" lon="5.70548">
        <ele>708.719552</ele>
        <time>2023-12-12T12:05:37.000Z</time>
      </trkpt>
      <trkpt lat="45.44671" lon="5.70537">
        <ele>709.500902</ele>
        <time>2023-12-12T12:05:40.000Z</time>
      </trkpt>
      <trkpt lat="45.44671" lon="5.70521">
        <ele>710.537404</ele>
        <time>2023-12-12T12:05:44.000Z</time>
      </trkpt>
      <trkpt lat="45.44672" lon="5.70517">
        <ele>710.806332</ele>
        <time>2023-12-12T12:05:45.000Z</time>
      </trkpt>
      <trkpt lat="45.44677" lon="5.70502">
        <ele>711.897813</ele>
        <time>2023-12-12T12:05:49.000Z</time>
      </trkpt>
      <trkpt lat="45.44681" lon="5.70495">
        <ele>712.432052</ele>
        <time>2023-12-12T12:05:51.000Z</time>
      </trkpt>
      <trkpt lat="45.44684" lon="5.70488">
        <ele>712.93796</ele>
        <time>2023-12-12T12:05:53.000Z</time>
      </trkpt>
      <trkpt lat="45.4469" lon="5.70475">
        <ele>713.849835</ele>
        <time>2023-12-12T12:05:57.000Z</time>
      </trkpt>
      <trkpt lat="45.44695" lon="5.70466">
        <ele>714.549044</ele>
        <time>2023-12-12T12:06:00.000Z</time>
      </trkpt>
      <trkpt lat="45.44697" lon="5.70462">
        <ele>714.791989</ele>
        <time>2023-12-12T12:06:01.000Z</time>
      </trkpt>
      <trkpt lat="45.447" lon="5.70451">
        <ele>715.493607</ele>
        <time>2023-12-12T12:06:04.000Z</time>
      </trkpt>
      <trkpt lat="45.44701" lon="5.70444">
        <ele>715.927161</ele>
        <time>2023-12-12T12:06:06.000Z</time>
      </trkpt>
      <trkpt lat="45.44701" lon="5.70441">
        <ele>716.152886</ele>
        <time>2023-12-12T12:06:07.000Z</time>
      </trkpt>
      <trkpt lat="45.44701" lon="5.70437">
        <ele>716.384057</ele>
        <time>2023-12-12T12:06:08.000Z</time>
      </trkpt>
      <trkpt lat="45.44699" lon="5.70422">
        <ele>717.290098</ele>
        <time>2023-12-12T12:06:12.000Z</time>
      </trkpt>
      <trkpt lat="45.44696" lon="5.70415">
        <ele>717.756426</ele>
        <time>2023-12-12T12:06:14.000Z</time>
      </trkpt>
      <trkpt lat="45.44686" lon="5.70402">
        <ele>718.928273</ele>
        <time>2023-12-12T12:06:19.000Z</time>
      </trkpt>
      <trkpt lat="45.44684" lon="5.70399">
        <ele>719.163313</ele>
        <time>2023-12-12T12:06:20.000Z</time>
      </trkpt>
      <trkpt lat="45.44681" lon="5.70393">
        <ele>719.624187</ele>
        <time>2023-12-12T12:06:22.000Z</time>
      </trkpt>
      <trkpt lat="45.44677" lon="5.70379">
        <ele>720.524133</ele>
        <time>2023-12-12T12:06:26.000Z</time>
      </trkpt>
      <trkpt lat="45.44679" lon="5.70369">
        <ele>721.109104</ele>
        <time>2023-12-12T12:06:29.000Z</time>
      </trkpt>
      <trkpt lat="45.44682" lon="5.70365">
        <ele>721.482637</ele>
        <time>2023-12-12T12:06:31.000Z</time>
      </trkpt>
      <trkpt lat="45.44684" lon="5.70362">
        <ele>721.686742</ele>
        <time>2023-12-12T12:06:32.000Z</time>
      </trkpt>
      <trkpt lat="45.44692" lon="5.7035">
        <ele>722.709433</ele>
        <time>2023-12-12T12:06:37.000Z</time>
      </trkpt>
      <trkpt lat="45.44694" lon="5.70343">
        <ele>723.129217</ele>
        <time>2023-12-12T12:06:39.000Z</time>
      </trkpt>
      <trkpt lat="45.44694" lon="5.70336">
        <ele>723.557043</ele>
        <time>2023-12-12T12:06:41.000Z</time>
      </trkpt>
      <trkpt lat="45.4469" lon="5.70307">
        <ele>725.333684</ele>
        <time>2023-12-12T12:06:48.000Z</time>
      </trkpt>
      <trkpt lat="45.44674" lon="5.70289">
        <ele>727.071008</ele>
        <time>2023-12-12T12:06:54.000Z</time>
      </trkpt>
      <trkpt lat="45.44667" lon="5.70286">
        <ele>727.667616</ele>
        <time>2023-12-12T12:06:56.000Z</time>
      </trkpt>
      <trkpt lat="45.44646" lon="5.70275">
        <ele>727.300624</ele>
        <time>2023-12-12T12:07:02.000Z</time>
      </trkpt>
      <trkpt lat="45.44636" lon="5.70266">
        <ele>727.043184</ele>
        <time>2023-12-12T12:07:05.000Z</time>
      </trkpt>
      <trkpt lat="45.44628" lon="5.70254">
        <ele>726.791933</ele>
        <time>2023-12-12T12:07:08.000Z</time>
      </trkpt>
      <trkpt lat="45.44616" lon="5.7022">
        <ele>726.219157</ele>
        <time>2023-12-12T12:07:13.000Z</time>
      </trkpt>
      <trkpt lat="45.44613" lon="5.702">
        <ele>725.89832</ele>
        <time>2023-12-12T12:07:15.000Z</time>
      </trkpt>
      <trkpt lat="45.44612" lon="5.70188">
        <ele>725.716583</ele>
        <time>2023-12-12T12:07:16.000Z</time>
      </trkpt>
      <trkpt lat="45.44611" lon="5.70175">
        <ele>725.519664</ele>
        <time>2023-12-12T12:07:17.000Z</time>
      </trkpt>
      <trkpt lat="45.44608" lon="5.70163">
        <ele>725.318556</ele>
        <time>2023-12-12T12:07:18.000Z</time>
      </trkpt>
      <trkpt lat="45.44605" lon="5.70151">
        <ele>725.126332</ele>
        <time>2023-12-12T12:07:19.000Z</time>
      </trkpt>
      <trkpt lat="45.446" lon="5.70141">
        <ele>724.943583</ele>
        <time>2023-12-12T12:07:20.000Z</time>
      </trkpt>
      <trkpt lat="45.44588" lon="5.70127">
        <ele>724.59571</ele>
        <time>2023-12-12T12:07:22.000Z</time>
      </trkpt>
      <trkpt lat="45.44581" lon="5.70122">
        <ele>724.431586</ele>
        <time>2023-12-12T12:07:23.000Z</time>
      </trkpt>
      <trkpt lat="45.44562" lon="5.70114">
        <ele>724.001738</ele>
        <time>2023-12-12T12:07:26.000Z</time>
      </trkpt>
      <trkpt lat="45.44557" lon="5.70112">
        <ele>723.883077</ele>
        <time>2023-12-12T12:07:27.000Z</time>
      </trkpt>
      <trkpt lat="45.44548" lon="5.70109">
        <ele>723.987216</ele>
        <time>2023-12-12T12:07:29.000Z</time>
      </trkpt>
      <trkpt lat="45.44541" lon="5.70106">
        <ele>724.112786</ele>
        <time>2023-12-12T12:07:31.000Z</time>
      </trkpt>
      <trkpt lat="45.44537" lon="5.70103">
        <ele>724.202375</ele>
        <time>2023-12-12T12:07:33.000Z</time>
      </trkpt>
      <trkpt lat="45.44532" lon="5.701">
        <ele>724.290354</ele>
        <time>2023-12-12T12:07:36.000Z</time>
      </trkpt>
      <trkpt lat="45.44531" lon="5.70098">
        <ele>724.321333</ele>
        <time>2023-12-12T12:07:37.000Z</time>
      </trkpt>
      <trkpt lat="45.44531" lon="5.70096">
        <ele>724.348698</ele>
        <time>2023-12-12T12:07:38.000Z</time>
      </trkpt>
      <trkpt lat="45.44532" lon="5.70095">
        <ele>724.369516</ele>
        <time>2023-12-12T12:07:39.000Z</time>
      </trkpt>
      <trkpt lat="45.44541" lon="5.70097">
        <ele>724.541153</ele>
        <time>2023-12-12T12:07:43.000Z</time>
      </trkpt>
      <trkpt lat="45.44548" lon="5.70098">
        <ele>724.672222</ele>
        <time>2023-12-12T12:07:46.000Z</time>
      </trkpt>
      <trkpt lat="45.44556" lon="5.70097">
        <ele>724.81768</ele>
        <time>2023-12-12T12:07:49.000Z</time>
      </trkpt>
      <trkpt lat="45.44567" lon="5.70094">
        <ele>725.009517</ele>
        <time>2023-12-12T12:07:53.000Z</time>
      </trkpt>
      <trkpt lat="45.44572" lon="5.70087">
        <ele>725.137396</ele>
        <time>2023-12-12T12:07:56.000Z</time>
      </trkpt>
      <trkpt lat="45.44573" lon="5.70085">
        <ele>725.16779</ele>
        <time>2023-12-12T12:07:57.000Z</time>
      </trkpt>
      <trkpt lat="45.4457" lon="5.70083">
        <ele>725.219064</ele>
        <time>2023-12-12T12:07:59.000Z</time>
      </trkpt>
      <trkpt lat="45.44558" lon="5.70092">
        <ele>725.45778</ele>
        <time>2023-12-12T12:08:04.000Z</time>
      </trkpt>
      <trkpt lat="45.44533" lon="5.70097">
        <ele>725.921117</ele>
        <time>2023-12-12T12:08:11.000Z</time>
      </trkpt>
      <trkpt lat="45.44524" lon="5.70097">
        <ele>726.073483</ele>
        <time>2023-12-12T12:08:14.000Z</time>
      </trkpt>
      <trkpt lat="45.44521" lon="5.70096">
        <ele>726.132488</ele>
        <time>2023-12-12T12:08:16.000Z</time>
      </trkpt>
      <trkpt lat="45.44514" lon="5.70086">
        <ele>726.315339</ele>
        <time>2023-12-12T12:08:22.000Z</time>
      </trkpt>
      <trkpt lat="45.44511" lon="5.70083">
        <ele>726.371557</ele>
        <time>2023-12-12T12:08:24.000Z</time>
      </trkpt>
      <trkpt lat="45.44507" lon="5.7008">
        <ele>726.450039</ele>
        <time>2023-12-12T12:08:27.000Z</time>
      </trkpt>
      <trkpt lat="45.44502" lon="5.70081">
        <ele>726.553143</ele>
        <time>2023-12-12T12:08:29.000Z</time>
      </trkpt>
      <trkpt lat="45.44494" lon="5.70083">
        <ele>726.692448</ele>
        <time>2023-12-12T12:08:31.000Z</time>
      </trkpt>
      <trkpt lat="45.44483" lon="5.70083">
        <ele>726.891557</ele>
        <time>2023-12-12T12:08:34.000Z</time>
      </trkpt>
      <trkpt lat="45.44468" lon="5.70081">
        <ele>727.109273</ele>
        <time>2023-12-12T12:08:40.000Z</time>
      </trkpt>
      <trkpt lat="45.44465" lon="5.70078">
        <ele>727.13397</ele>
        <time>2023-12-12T12:08:42.000Z</time>
      </trkpt>
      <trkpt lat="45.44466" lon="5.70075">
        <ele>727.151646</ele>
        <time>2023-12-12T12:08:44.000Z</time>
      </trkpt>
      <trkpt lat="45.4447" lon="5.70078">
        <ele>727.187789</ele>
        <time>2023-12-12T12:08:47.000Z</time>
      </trkpt>
      <trkpt lat="45.44473" lon="5.7008">
        <ele>727.209552</ele>
        <time>2023-12-12T12:08:48.000Z</time>
      </trkpt>
      <trkpt lat="45.44485" lon="5.70081">
        <ele>727.296979</ele>
        <time>2023-12-12T12:08:51.000Z</time>
      </trkpt>
      <trkpt lat="45.44503" lon="5.70079">
        <ele>727.436164</ele>
        <time>2023-12-12T12:08:57.000Z</time>
      </trkpt>
      <trkpt lat="45.44508" lon="5.70079">
        <ele>727.47241</ele>
        <time>2023-12-12T12:09:00.000Z</time>
      </trkpt>
      <trkpt lat="45.4451" lon="5.7008">
        <ele>727.487323</ele>
        <time>2023-12-12T12:09:01.000Z</time>
      </trkpt>
      <trkpt lat="45.44512" lon="5.70083">
        <ele>727.507215</ele>
        <time>2023-12-12T12:09:02.000Z</time>
      </trkpt>
      <trkpt lat="45.4452" lon="5.70094">
        <ele>727.588379</ele>
        <time>2023-12-12T12:09:06.000Z</time>
      </trkpt>
      <trkpt lat="45.4452" lon="5.70097">
        <ele>727.603065</ele>
        <time>2023-12-12T12:09:07.000Z</time>
      </trkpt>
      <trkpt lat="45.44519" lon="5.701">
        <ele>727.619705</ele>
        <time>2023-12-12T12:09:08.000Z</time>
      </trkpt>
      <trkpt lat="45.44517" lon="5.70102">
        <ele>727.636566</ele>
        <time>2023-12-12T12:09:09.000Z</time>
      </trkpt>
      <trkpt lat="45.44515" lon="5.70102">
        <ele>727.65303</ele>
        <time>2023-12-12T12:09:10.000Z</time>
      </trkpt>
      <trkpt lat="45.44513" lon="5.70102">
        <ele>727.670797</ele>
        <time>2023-12-12T12:09:11.000Z</time>
      </trkpt>
      <trkpt lat="45.44499" lon="5.70104">
        <ele>727.774636</ele>
        <time>2023-12-12T12:09:16.000Z</time>
      </trkpt>
      <trkpt lat="45.44494" lon="5.70104">
        <ele>727.806418</ele>
        <time>2023-12-12T12:09:18.000Z</time>
      </trkpt>
      <trkpt lat="45.44493" lon="5.70105">
        <ele>727.816962</ele>
        <time>2023-12-12T12:09:19.000Z</time>
      </trkpt>
      <trkpt lat="45.44494" lon="5.70108">
        <ele>727.832793</ele>
        <time>2023-12-12T12:09:21.000Z</time>
      </trkpt>
      <trkpt lat="45.44505" lon="5.70105">
        <ele>727.910825</ele>
        <time>2023-12-12T12:09:25.000Z</time>
      </trkpt>
      <trkpt lat="45.44521" lon="5.70104">
        <ele>728.029293</ele>
        <time>2023-12-12T12:09:30.000Z</time>
      </trkpt>
      <trkpt lat="45.4453" lon="5.70101">
        <ele>728.10107</ele>
        <time>2023-12-12T12:09:33.000Z</time>
      </trkpt>
      <trkpt lat="45.44547" lon="5.70099">
        <ele>728.221978</ele>
        <time>2023-12-12T12:09:38.000Z</time>
      </trkpt>
      <trkpt lat="45.4455" lon="5.70099">
        <ele>728.247153</ele>
        <time>2023-12-12T12:09:39.000Z</time>
      </trkpt>
      <trkpt lat="45.4456" lon="5.70097">
        <ele>728.322585</ele>
        <time>2023-12-12T12:09:42.000Z</time>
      </trkpt>
      <trkpt lat="45.44569" lon="5.70092">
        <ele>728.394848</ele>
        <time>2023-12-12T12:09:45.000Z</time>
      </trkpt>
      <trkpt lat="45.44572" lon="5.70089">
        <ele>728.54169</ele>
        <time>2023-12-12T12:09:46.000Z</time>
      </trkpt>
      <trkpt lat="45.44574" lon="5.70085">
        <ele>728.761275</ele>
        <time>2023-12-12T12:09:47.000Z</time>
      </trkpt>
      <trkpt lat="45.44579" lon="5.70069">
        <ele>729.593669</ele>
        <time>2023-12-12T12:09:51.000Z</time>
      </trkpt>
      <trkpt lat="45.44579" lon="5.70065">
        <ele>729.808229</ele>
        <time>2023-12-12T12:09:52.000Z</time>
      </trkpt>
      <trkpt lat="45.44575" lon="5.70053">
        <ele>730.438572</ele>
        <time>2023-12-12T12:09:55.000Z</time>
      </trkpt>
      <trkpt lat="45.44564" lon="5.70043">
        <ele>731.352567</ele>
        <time>2023-12-12T12:09:59.000Z</time>
      </trkpt>
      <trkpt lat="45.44539" lon="5.70036">
        <ele>733.057387</ele>
        <time>2023-12-12T12:10:06.000Z</time>
      </trkpt>
      <trkpt lat="45.44535" lon="5.70034">
        <ele>733.321583</ele>
        <time>2023-12-12T12:10:07.000Z</time>
      </trkpt>
      <trkpt lat="45.44525" lon="5.70028">
        <ele>734.076684</ele>
        <time>2023-12-12T12:10:10.000Z</time>
      </trkpt>
      <trkpt lat="45.44516" lon="5.70024">
        <ele>734.740093</ele>
        <time>2023-12-12T12:10:13.000Z</time>
      </trkpt>
      <trkpt lat="45.4451" lon="5.70021">
        <ele>735.141168</ele>
        <time>2023-12-12T12:10:15.000Z</time>
      </trkpt>
      <trkpt lat="45.44504" lon="5.70013">
        <ele>735.701233</ele>
        <time>2023-12-12T12:10:18.000Z</time>
      </trkpt>
      <trkpt lat="45.445" lon="5.70009">
        <ele>736.038893</ele>
        <time>2023-12-12T12:10:20.000Z</time>
      </trkpt>
      <trkpt lat="45.44486" lon="5.69998">
        <ele>737.112231</ele>
        <time>2023-12-12T12:10:26.000Z</time>
      </trkpt>
      <trkpt lat="45.44483" lon="5.69996">
        <ele>737.31687</ele>
        <time>2023-12-12T12:10:27.000Z</time>
      </trkpt>
      <trkpt lat="45.44467" lon="5.69984">
        <ele>738.545589</ele>
        <time>2023-12-12T12:10:33.000Z</time>
      </trkpt>
      <trkpt lat="45.44459" lon="5.69978">
        <ele>739.197451</ele>
        <time>2023-12-12T12:10:36.000Z</time>
      </trkpt>
      <trkpt lat="45.4445" lon="5.69972">
        <ele>739.874729</ele>
        <time>2023-12-12T12:10:39.000Z</time>
      </trkpt>
      <trkpt lat="45.44438" lon="5.69963">
        <ele>740.81968</ele>
        <time>2023-12-12T12:10:43.000Z</time>
      </trkpt>
      <trkpt lat="45.44425" lon="5.69953">
        <ele>741.841587</ele>
        <time>2023-12-12T12:10:47.000Z</time>
      </trkpt>
      <trkpt lat="45.44417" lon="5.69945">
        <ele>742.591693</ele>
        <time>2023-12-12T12:10:50.000Z</time>
      </trkpt>
      <trkpt lat="45.44407" lon="5.69932">
        <ele>743.603876</ele>
        <time>2023-12-12T12:10:54.000Z</time>
      </trkpt>
      <trkpt lat="45.44405" lon="5.69928">
        <ele>743.844888</ele>
        <time>2023-12-12T12:10:55.000Z</time>
      </trkpt>
      <trkpt lat="45.44399" lon="5.69916">
        <ele>744.58003</ele>
        <time>2023-12-12T12:10:58.000Z</time>
      </trkpt>
      <trkpt lat="45.44394" lon="5.69899">
        <ele>745.56028</ele>
        <time>2023-12-12T12:11:02.000Z</time>
      </trkpt>
      <trkpt lat="45.44389" lon="5.69881">
        <ele>746.533168</ele>
        <time>2023-12-12T12:11:06.000Z</time>
      </trkpt>
      <trkpt lat="45.44384" lon="5.6986">
        <ele>747.689994</ele>
        <time>2023-12-12T12:11:11.000Z</time>
      </trkpt>
      <trkpt lat="45.4438" lon="5.69842">
        <ele>748.631313</ele>
        <time>2023-12-12T12:11:15.000Z</time>
      </trkpt>
      <trkpt lat="45.44378" lon="5.69834">
        <ele>749.093743</ele>
        <time>2023-12-12T12:11:17.000Z</time>
      </trkpt>
      <trkpt lat="45.44373" lon="5.69812">
        <ele>750.236269</ele>
        <time>2023-12-12T12:11:22.000Z</time>
      </trkpt>
      <trkpt lat="45.44372" lon="5.69804">
        <ele>750.691378</ele>
        <time>2023-12-12T12:11:24.000Z</time>
      </trkpt>
      <trkpt lat="45.44374" lon="5.698">
        <ele>750.915002</ele>
        <time>2023-12-12T12:11:25.000Z</time>
      </trkpt>
      <trkpt lat="45.44376" lon="5.69798">
        <ele>751.130978</ele>
        <time>2023-12-12T12:11:26.000Z</time>
      </trkpt>
      <trkpt lat="45.44379" lon="5.69798">
        <ele>751.365126</ele>
        <time>2023-12-12T12:11:27.000Z</time>
      </trkpt>
      <trkpt lat="45.44393" lon="5.69801">
        <ele>752.36289</ele>
        <time>2023-12-12T12:11:31.000Z</time>
      </trkpt>
      <trkpt lat="45.44406" lon="5.69805">
        <ele>753.312866</ele>
        <time>2023-12-12T12:11:35.000Z</time>
      </trkpt>
      <trkpt lat="45.44416" lon="5.69806">
        <ele>754.124871</ele>
        <time>2023-12-12T12:11:38.000Z</time>
      </trkpt>
      <trkpt lat="45.44438" lon="5.69803">
        <ele>756.329021</ele>
        <time>2023-12-12T12:11:46.000Z</time>
      </trkpt>
      <trkpt lat="45.44444" lon="5.698">
        <ele>756.887745</ele>
        <time>2023-12-12T12:11:48.000Z</time>
      </trkpt>
      <trkpt lat="45.44459" lon="5.69789">
        <ele>758.562532</ele>
        <time>2023-12-12T12:11:55.000Z</time>
      </trkpt>
      <trkpt lat="45.44463" lon="5.69772">
        <ele>759.75913</ele>
        <time>2023-12-12T12:11:59.000Z</time>
      </trkpt>
      <trkpt lat="45.44466" lon="5.6975">
        <ele>761.318354</ele>
        <time>2023-12-12T12:12:04.000Z</time>
      </trkpt>
      <trkpt lat="45.44464" lon="5.69735">
        <ele>762.318681</ele>
        <time>2023-12-12T12:12:07.000Z</time>
      </trkpt>
      <trkpt lat="45.44459" lon="5.69723">
        <ele>763.289809</ele>
        <time>2023-12-12T12:12:10.000Z</time>
      </trkpt>
      <trkpt lat="45.44457" lon="5.69706">
        <ele>764.429336</ele>
        <time>2023-12-12T12:12:14.000Z</time>
      </trkpt>
      <trkpt lat="45.44459" lon="5.69702">
        <ele>764.725541</ele>
        <time>2023-12-12T12:12:15.000Z</time>
      </trkpt>
      <trkpt lat="45.44461" lon="5.697">
        <ele>764.984352</ele>
        <time>2023-12-12T12:12:16.000Z</time>
      </trkpt>
      <trkpt lat="45.44465" lon="5.69695">
        <ele>765.526738</ele>
        <time>2023-12-12T12:12:19.000Z</time>
      </trkpt>
      <trkpt lat="45.44469" lon="5.69691">
        <ele>766.013238</ele>
        <time>2023-12-12T12:12:22.000Z</time>
      </trkpt>
      <trkpt lat="45.44476" lon="5.69679">
        <ele>767.047012</ele>
        <time>2023-12-12T12:12:27.000Z</time>
      </trkpt>
      <trkpt lat="45.44478" lon="5.69672">
        <ele>767.609711</ele>
        <time>2023-12-12T12:12:30.000Z</time>
      </trkpt>
      <trkpt lat="45.44479" lon="5.69663">
        <ele>768.222515</ele>
        <time>2023-12-12T12:12:33.000Z</time>
      </trkpt>
      <trkpt lat="45.44481" lon="5.6965">
        <ele>769.094155</ele>
        <time>2023-12-12T12:12:37.000Z</time>
      </trkpt>
      <trkpt lat="45.44483" lon="5.69638">
        <ele>769.965818</ele>
        <time>2023-12-12T12:12:41.000Z</time>
      </trkpt>
      <trkpt lat="45.44483" lon="5.69631">
        <ele>770.408793</ele>
        <time>2023-12-12T12:12:43.000Z</time>
      </trkpt>
      <trkpt lat="45.44483" lon="5.69622">
        <ele>771.069921</ele>
        <time>2023-12-12T12:12:46.000Z</time>
      </trkpt>
      <trkpt lat="45.44486" lon="5.69606">
        <ele>772.500402</ele>
        <time>2023-12-12T12:12:51.000Z</time>
      </trkpt>
      <trkpt lat="45.44488" lon="5.69598">
        <ele>773.39326</ele>
        <time>2023-12-12T12:12:54.000Z</time>
      </trkpt>
      <trkpt lat="45.44491" lon="5.69583">
        <ele>774.880774</ele>
        <time>2023-12-12T12:12:59.000Z</time>
      </trkpt>
      <trkpt lat="45.44491" lon="5.69579">
        <ele>775.189673</ele>
        <time>2023-12-12T12:13:00.000Z</time>
      </trkpt>
      <trkpt lat="45.44495" lon="5.69565">
        <ele>776.671706</ele>
        <time>2023-12-12T12:13:05.000Z</time>
      </trkpt>
      <trkpt lat="45.44498" lon="5.69554">
        <ele>777.810384</ele>
        <time>2023-12-12T12:13:09.000Z</time>
      </trkpt>
      <trkpt lat="45.44502" lon="5.69542">
        <ele>779.060576</ele>
        <time>2023-12-12T12:13:13.000Z</time>
      </trkpt>
      <trkpt lat="45.44506" lon="5.69531">
        <ele>780.303842</ele>
        <time>2023-12-12T12:13:17.000Z</time>
      </trkpt>
      <trkpt lat="45.4451" lon="5.69522">
        <ele>781.289308</ele>
        <time>2023-12-12T12:13:20.000Z</time>
      </trkpt>
      <trkpt lat="45.44511" lon="5.69519">
        <ele>781.611803</ele>
        <time>2023-12-12T12:13:21.000Z</time>
      </trkpt>
      <trkpt lat="45.44514" lon="5.69514">
        <ele>782.225512</ele>
        <time>2023-12-12T12:13:23.000Z</time>
      </trkpt>
      <trkpt lat="45.4452" lon="5.69503">
        <ele>783.54985</ele>
        <time>2023-12-12T12:13:27.000Z</time>
      </trkpt>
      <trkpt lat="45.44526" lon="5.69493">
        <ele>784.864658</ele>
        <time>2023-12-12T12:13:31.000Z</time>
      </trkpt>
      <trkpt lat="45.4453" lon="5.69485">
        <ele>785.809986</ele>
        <time>2023-12-12T12:13:34.000Z</time>
      </trkpt>
      <trkpt lat="45.44535" lon="5.69477">
        <ele>786.793347</ele>
        <time>2023-12-12T12:13:37.000Z</time>
      </trkpt>
      <trkpt lat="45.44542" lon="5.69464">
        <ele>788.416348</ele>
        <time>2023-12-12T12:13:42.000Z</time>
      </trkpt>
      <trkpt lat="45.44548" lon="5.69453">
        <ele>789.668026</ele>
        <time>2023-12-12T12:13:46.000Z</time>
      </trkpt>
      <trkpt lat="45.44549" lon="5.69451">
        <ele>789.982576</ele>
        <time>2023-12-12T12:13:47.000Z</time>
      </trkpt>
      <trkpt lat="45.44553" lon="5.69443">
        <ele>790.934676</ele>
        <time>2023-12-12T12:13:50.000Z</time>
      </trkpt>
      <trkpt lat="45.44559" lon="5.69432">
        <ele>792.249479</ele>
        <time>2023-12-12T12:13:54.000Z</time>
      </trkpt>
      <trkpt lat="45.44562" lon="5.69426">
        <ele>792.90254</ele>
        <time>2023-12-12T12:13:56.000Z</time>
      </trkpt>
      <trkpt lat="45.44567" lon="5.69414">
        <ele>794.247766</ele>
        <time>2023-12-12T12:14:00.000Z</time>
      </trkpt>
      <trkpt lat="45.44572" lon="5.69406">
        <ele>795.277943</ele>
        <time>2023-12-12T12:14:04.000Z</time>
      </trkpt>
      <trkpt lat="45.44572" lon="5.69404">
        <ele>795.481885</ele>
        <time>2023-12-12T12:14:07.000Z</time>
      </trkpt>
      <trkpt lat="45.44574" lon="5.69403">
        <ele>795.717386</ele>
        <time>2023-12-12T12:14:15.000Z</time>
      </trkpt>
      <trkpt lat="45.44572" lon="5.69404">
        <ele>795.917559</ele>
        <time>2023-12-12T12:14:22.000Z</time>
      </trkpt>
      <trkpt lat="45.44573" lon="5.69402">
        <ele>796.049248</ele>
        <time>2023-12-12T12:14:30.000Z</time>
      </trkpt>
      <trkpt lat="45.44572" lon="5.69397">
        <ele>796.377695</ele>
        <time>2023-12-12T12:14:36.000Z</time>
      </trkpt>
      <trkpt lat="45.44573" lon="5.69393">
        <ele>796.631404</ele>
        <time>2023-12-12T12:14:41.000Z</time>
      </trkpt>
      <trkpt lat="45.44574" lon="5.69387">
        <ele>796.982344</ele>
        <time>2023-12-12T12:14:43.000Z</time>
      </trkpt>
      <trkpt lat="45.44577" lon="5.69372">
        <ele>797.913583</ele>
        <time>2023-12-12T12:14:48.000Z</time>
      </trkpt>
      <trkpt lat="45.44578" lon="5.69369">
        <ele>798.091238</ele>
        <time>2023-12-12T12:14:49.000Z</time>
      </trkpt>
      <trkpt lat="45.4458" lon="5.69356">
        <ele>798.876607</ele>
        <time>2023-12-12T12:14:53.000Z</time>
      </trkpt>
      <trkpt lat="45.44582" lon="5.69346">
        <ele>799.474024</ele>
        <time>2023-12-12T12:14:56.000Z</time>
      </trkpt>
      <trkpt lat="45.44584" lon="5.6934">
        <ele>799.856731</ele>
        <time>2023-12-12T12:14:58.000Z</time>
      </trkpt>
      <trkpt lat="45.44586" lon="5.69334">
        <ele>800.234766</ele>
        <time>2023-12-12T12:15:00.000Z</time>
      </trkpt>
      <trkpt lat="45.44587" lon="5.69331">
        <ele>800.422366</ele>
        <time>2023-12-12T12:15:01.000Z</time>
      </trkpt>
      <trkpt lat="45.44589" lon="5.69323">
        <ele>800.960233</ele>
        <time>2023-12-12T12:15:04.000Z</time>
      </trkpt>
      <trkpt lat="45.44589" lon="5.6932">
        <ele>801.120858</ele>
        <time>2023-12-12T12:15:05.000Z</time>
      </trkpt>
      <trkpt lat="45.4459" lon="5.69317">
        <ele>801.288758</ele>
        <time>2023-12-12T12:15:06.000Z</time>
      </trkpt>
      <trkpt lat="45.4459" lon="5.69311">
        <ele>801.639056</ele>
        <time>2023-12-12T12:15:08.000Z</time>
      </trkpt>
      <trkpt lat="45.4459" lon="5.69308">
        <ele>801.816126</ele>
        <time>2023-12-12T12:15:09.000Z</time>
      </trkpt>
      <trkpt lat="45.4459" lon="5.69305">
        <ele>802.01608</ele>
        <time>2023-12-12T12:15:12.000Z</time>
      </trkpt>
      <trkpt lat="45.4459" lon="5.69301">
        <ele>802.251264</ele>
        <time>2023-12-12T12:15:21.000Z</time>
      </trkpt>
      <trkpt lat="45.4459" lon="5.69301">
        <ele>802.261495</ele>
        <time>2023-12-12T12:15:24.000Z</time>
      </trkpt>
      <trkpt lat="45.4459" lon="5.693">
        <ele>802.302626</ele>
        <time>2023-12-12T12:15:30.000Z</time>
      </trkpt>
      <trkpt lat="45.44589" lon="5.69279">
        <ele>803.54932</ele>
        <time>2023-12-12T12:15:36.000Z</time>
      </trkpt>
      <trkpt lat="45.4459" lon="5.69272">
        <ele>803.973705</ele>
        <time>2023-12-12T12:15:38.000Z</time>
      </trkpt>
      <trkpt lat="45.4459" lon="5.69265">
        <ele>804.361602</ele>
        <time>2023-12-12T12:15:40.000Z</time>
      </trkpt>
      <trkpt lat="45.44589" lon="5.6925">
        <ele>805.260959</ele>
        <time>2023-12-12T12:15:45.000Z</time>
      </trkpt>
      <trkpt lat="45.44588" lon="5.69237">
        <ele>806.009113</ele>
        <time>2023-12-12T12:15:49.000Z</time>
      </trkpt>
      <trkpt lat="45.44587" lon="5.69234">
        <ele>806.213234</ele>
        <time>2023-12-12T12:15:50.000Z</time>
      </trkpt>
      <trkpt lat="45.44585" lon="5.69221">
        <ele>806.982629</ele>
        <time>2023-12-12T12:15:54.000Z</time>
      </trkpt>
      <trkpt lat="45.44582" lon="5.69208">
        <ele>807.786752</ele>
        <time>2023-12-12T12:15:58.000Z</time>
      </trkpt>
      <trkpt lat="45.4458" lon="5.69203">
        <ele>808.136473</ele>
        <time>2023-12-12T12:16:00.000Z</time>
      </trkpt>
      <trkpt lat="45.44579" lon="5.69198">
        <ele>808.421606</ele>
        <time>2023-12-12T12:16:02.000Z</time>
      </trkpt>
      <trkpt lat="45.4458" lon="5.69198">
        <ele>808.484768</ele>
        <time>2023-12-12T12:16:03.000Z</time>
      </trkpt>
      <trkpt lat="45.44582" lon="5.69211">
        <ele>809.257169</ele>
        <time>2023-12-12T12:16:07.000Z</time>
      </trkpt>
      <trkpt lat="45.44587" lon="5.69239">
        <ele>810.939522</ele>
        <time>2023-12-12T12:16:11.000Z</time>
      </trkpt>
      <trkpt lat="45.44589" lon="5.69269">
        <ele>811.355236</ele>
        <time>2023-12-12T12:16:14.000Z</time>
      </trkpt>
      <trkpt lat="45.44589" lon="5.69275">
        <ele>811.449686</ele>
        <time>2023-12-12T12:16:15.000Z</time>
      </trkpt>
      <trkpt lat="45.44588" lon="5.69283">
        <ele>811.559409</ele>
        <time>2023-12-12T12:16:17.000Z</time>
      </trkpt>
      <trkpt lat="45.44589" lon="5.69286">
        <ele>811.59463</ele>
        <time>2023-12-12T12:16:18.000Z</time>
      </trkpt>
      <trkpt lat="45.4459" lon="5.69295">
        <ele>811.720043</ele>
        <time>2023-12-12T12:16:24.000Z</time>
      </trkpt>
      <trkpt lat="45.44592" lon="5.69296">
        <ele>811.751475</ele>
        <time>2023-12-12T12:16:26.000Z</time>
      </trkpt>
      <trkpt lat="45.44592" lon="5.69293">
        <ele>811.792753</ele>
        <time>2023-12-12T12:16:29.000Z</time>
      </trkpt>
      <trkpt lat="45.44588" lon="5.69286">
        <ele>811.927697</ele>
        <time>2023-12-12T12:16:34.000Z</time>
      </trkpt>
      <trkpt lat="45.44587" lon="5.69264">
        <ele>812.225038</ele>
        <time>2023-12-12T12:16:43.000Z</time>
      </trkpt>
      <trkpt lat="45.44588" lon="5.69256">
        <ele>812.344873</ele>
        <time>2023-12-12T12:16:49.000Z</time>
      </trkpt>
      <trkpt lat="45.44588" lon="5.69256">
        <ele>812.344873</ele>
        <time>2023-12-12T12:16:50.000Z</time>
      </trkpt>
      <trkpt lat="45.44588" lon="5.69256">
        <ele>812.35062</ele>
        <time>2023-12-12T12:16:53.000Z</time>
      </trkpt>
      <trkpt lat="45.44588" lon="5.69256">
        <ele>812.355456</ele>
        <time>2023-12-12T12:17:06.000Z</time>
      </trkpt>
      <trkpt lat="45.44588" lon="5.69256">
        <ele>812.356844</ele>
        <time>2023-12-12T12:17:17.000Z</time>
      </trkpt>
      <trkpt lat="45.44589" lon="5.69255">
        <ele>812.364837</ele>
        <time>2023-12-12T12:17:22.000Z</time>
      </trkpt>
      <trkpt lat="45.44586" lon="5.69227">
        <ele>812.762824</ele>
        <time>2023-12-12T12:17:31.000Z</time>
      </trkpt>
      <trkpt lat="45.44583" lon="5.69214">
        <ele>812.956984</ele>
        <time>2023-12-12T12:17:35.000Z</time>
      </trkpt>
      <trkpt lat="45.44579" lon="5.69194">
        <ele>813.236448</ele>
        <time>2023-12-12T12:17:40.000Z</time>
      </trkpt>
      <trkpt lat="45.44577" lon="5.69185">
        <ele>813.366408</ele>
        <time>2023-12-12T12:17:42.000Z</time>
      </trkpt>
      <trkpt lat="45.44571" lon="5.69151">
        <ele>813.85683</ele>
        <time>2023-12-12T12:17:50.000Z</time>
      </trkpt>
      <trkpt lat="45.4457" lon="5.69147">
        <ele>813.912526</ele>
        <time>2023-12-12T12:17:51.000Z</time>
      </trkpt>
      <trkpt lat="45.44566" lon="5.69133">
        <ele>814.131477</ele>
        <time>2023-12-12T12:17:55.000Z</time>
      </trkpt>
      <trkpt lat="45.44561" lon="5.6912">
        <ele>814.34532</ele>
        <time>2023-12-12T12:17:58.000Z</time>
      </trkpt>
      <trkpt lat="45.44545" lon="5.69097">
        <ele>814.808396</ele>
        <time>2023-12-12T12:18:03.000Z</time>
      </trkpt>
      <trkpt lat="45.44541" lon="5.69093">
        <ele>814.908789</ele>
        <time>2023-12-12T12:18:04.000Z</time>
      </trkpt>
      <trkpt lat="45.44519" lon="5.69079">
        <ele>815.423473</ele>
        <time>2023-12-12T12:18:09.000Z</time>
      </trkpt>
      <trkpt lat="45.44515" lon="5.69078">
        <ele>815.513426</ele>
        <time>2023-12-12T12:18:10.000Z</time>
      </trkpt>
      <trkpt lat="45.44491" lon="5.69072">
        <ele>816.022096</ele>
        <time>2023-12-12T12:18:16.000Z</time>
      </trkpt>
      <trkpt lat="45.44487" lon="5.69071">
        <ele>816.104808</ele>
        <time>2023-12-12T12:18:17.000Z</time>
      </trkpt>
      <trkpt lat="45.44455" lon="5.69054">
        <ele>816.843103</ele>
        <time>2023-12-12T12:18:26.000Z</time>
      </trkpt>
      <trkpt lat="45.44452" lon="5.69051">
        <ele>816.902949</ele>
        <time>2023-12-12T12:18:27.000Z</time>
      </trkpt>
      <trkpt lat="45.44447" lon="5.69045">
        <ele>817.055322</ele>
        <time>2023-12-12T12:18:31.000Z</time>
      </trkpt>
      <trkpt lat="45.44445" lon="5.69041">
        <ele>817.118816</ele>
        <time>2023-12-12T12:18:33.000Z</time>
      </trkpt>
      <trkpt lat="45.44446" lon="5.69039">
        <ele>817.156631</ele>
        <time>2023-12-12T12:18:34.000Z</time>
      </trkpt>
      <trkpt lat="45.44448" lon="5.69033">
        <ele>817.255296</ele>
        <time>2023-12-12T12:18:36.000Z</time>
      </trkpt>
      <trkpt lat="45.44451" lon="5.69015">
        <ele>817.522442</ele>
        <time>2023-12-12T12:18:40.000Z</time>
      </trkpt>
      <trkpt lat="45.44451" lon="5.69011">
        <ele>817.588182</ele>
        <time>2023-12-12T12:18:41.000Z</time>
      </trkpt>
      <trkpt lat="45.44453" lon="5.6899">
        <ele>817.903939</ele>
        <time>2023-12-12T12:18:46.000Z</time>
      </trkpt>
      <trkpt lat="45.44455" lon="5.68978">
        <ele>818.096612</ele>
        <time>2023-12-12T12:18:49.000Z</time>
      </trkpt>
      <trkpt lat="45.4446" lon="5.68973">
        <ele>818.221217</ele>
        <time>2023-12-12T12:18:51.000Z</time>
      </trkpt>
      <trkpt lat="45.44464" lon="5.68972">
        <ele>818.293854</ele>
        <time>2023-12-12T12:18:52.000Z</time>
      </trkpt>
      <trkpt lat="45.44485" lon="5.68977">
        <ele>817.70086</ele>
        <time>2023-12-12T12:18:59.000Z</time>
      </trkpt>
      <trkpt lat="45.44516" lon="5.68982">
        <ele>816.751279</ele>
        <time>2023-12-12T12:19:07.000Z</time>
      </trkpt>
      <trkpt lat="45.44551" lon="5.68988">
        <ele>815.695417</ele>
        <time>2023-12-12T12:19:15.000Z</time>
      </trkpt>
      <trkpt lat="45.44561" lon="5.6899">
        <ele>815.383833</ele>
        <time>2023-12-12T12:19:17.000Z</time>
      </trkpt>
      <trkpt lat="45.44572" lon="5.68991">
        <ele>815.052134</ele>
        <time>2023-12-12T12:19:19.000Z</time>
      </trkpt>
      <trkpt lat="45.44577" lon="5.68991">
        <ele>814.882105</ele>
        <time>2023-12-12T12:19:20.000Z</time>
      </trkpt>
      <trkpt lat="45.44583" lon="5.68992">
        <ele>814.708954</ele>
        <time>2023-12-12T12:19:21.000Z</time>
      </trkpt>
      <trkpt lat="45.44603" lon="5.68994">
        <ele>814.102641</ele>
        <time>2023-12-12T12:19:25.000Z</time>
      </trkpt>
      <trkpt lat="45.44607" lon="5.68994">
        <ele>813.971898</ele>
        <time>2023-12-12T12:19:26.000Z</time>
      </trkpt>
      <trkpt lat="45.44631" lon="5.68993">
        <ele>813.249474</ele>
        <time>2023-12-12T12:19:31.000Z</time>
      </trkpt>
      <trkpt lat="45.44645" lon="5.68993">
        <ele>812.824735</ele>
        <time>2023-12-12T12:19:34.000Z</time>
      </trkpt>
      <trkpt lat="45.44663" lon="5.68993">
        <ele>811.978817</ele>
        <time>2023-12-12T12:19:38.000Z</time>
      </trkpt>
      <trkpt lat="45.44679" lon="5.68994">
        <ele>811.259502</ele>
        <time>2023-12-12T12:19:41.000Z</time>
      </trkpt>
      <trkpt lat="45.44685" lon="5.68995">
        <ele>810.981744</ele>
        <time>2023-12-12T12:19:42.000Z</time>
      </trkpt>
      <trkpt lat="45.44691" lon="5.68997">
        <ele>810.702266</ele>
        <time>2023-12-12T12:19:43.000Z</time>
      </trkpt>
      <trkpt lat="45.44704" lon="5.69005">
        <ele>810.083912</ele>
        <time>2023-12-12T12:19:45.000Z</time>
      </trkpt>
      <trkpt lat="45.4471" lon="5.6901">
        <ele>809.755632</ele>
        <time>2023-12-12T12:19:46.000Z</time>
      </trkpt>
      <trkpt lat="45.44717" lon="5.69014">
        <ele>809.431474</ele>
        <time>2023-12-12T12:19:47.000Z</time>
      </trkpt>
      <trkpt lat="45.44729" lon="5.6902">
        <ele>808.819985</ele>
        <time>2023-12-12T12:19:49.000Z</time>
      </trkpt>
      <trkpt lat="45.44741" lon="5.69025">
        <ele>808.260263</ele>
        <time>2023-12-12T12:19:51.000Z</time>
      </trkpt>
      <trkpt lat="45.44748" lon="5.69026">
        <ele>807.973515</ele>
        <time>2023-12-12T12:19:52.000Z</time>
      </trkpt>
      <trkpt lat="45.44765" lon="5.69026">
        <ele>807.19545</ele>
        <time>2023-12-12T12:19:55.000Z</time>
      </trkpt>
      <trkpt lat="45.44782" lon="5.69026">
        <ele>806.421909</ele>
        <time>2023-12-12T12:19:59.000Z</time>
      </trkpt>
      <trkpt lat="45.44786" lon="5.69026">
        <ele>806.240938</ele>
        <time>2023-12-12T12:20:00.000Z</time>
      </trkpt>
      <trkpt lat="45.44794" lon="5.69025">
        <ele>805.856105</ele>
        <time>2023-12-12T12:20:03.000Z</time>
      </trkpt>
      <trkpt lat="45.44797" lon="5.69025">
        <ele>805.747122</ele>
        <time>2023-12-12T12:20:04.000Z</time>
      </trkpt>
      <trkpt lat="45.44802" lon="5.69024">
        <ele>805.504843</ele>
        <time>2023-12-12T12:20:09.000Z</time>
      </trkpt>
      <trkpt lat="45.44801" lon="5.69024">
        <ele>805.470728</ele>
        <time>2023-12-12T12:20:16.000Z</time>
      </trkpt>
      <trkpt lat="45.44801" lon="5.69025">
        <ele>805.435654</ele>
        <time>2023-12-12T12:20:24.000Z</time>
      </trkpt>
      <trkpt lat="45.448" lon="5.69025">
        <ele>805.398234</ele>
        <time>2023-12-12T12:20:46.000Z</time>
      </trkpt>
      <trkpt lat="45.448" lon="5.69025">
        <ele>805.379059</ele>
        <time>2023-12-12T12:21:05.000Z</time>
      </trkpt>
      <trkpt lat="45.44808" lon="5.69026">
        <ele>805.019671</ele>
        <time>2023-12-12T12:21:12.000Z</time>
      </trkpt>
      <trkpt lat="45.44822" lon="5.69032">
        <ele>804.778011</ele>
        <time>2023-12-12T12:21:16.000Z</time>
      </trkpt>
      <trkpt lat="45.4483" lon="5.69037">
        <ele>804.834472</ele>
        <time>2023-12-12T12:21:19.000Z</time>
      </trkpt>
      <trkpt lat="45.44833" lon="5.69039">
        <ele>804.854762</ele>
        <time>2023-12-12T12:21:20.000Z</time>
      </trkpt>
      <trkpt lat="45.44844" lon="5.69054">
        <ele>804.951592</ele>
        <time>2023-12-12T12:21:24.000Z</time>
      </trkpt>
      <trkpt lat="45.44853" lon="5.69069">
        <ele>805.041309</ele>
        <time>2023-12-12T12:21:28.000Z</time>
      </trkpt>
      <trkpt lat="45.44861" lon="5.69078">
        <ele>805.106366</ele>
        <time>2023-12-12T12:21:31.000Z</time>
      </trkpt>
      <trkpt lat="45.44876" lon="5.69098">
        <ele>805.237005</ele>
        <time>2023-12-12T12:21:36.000Z</time>
      </trkpt>
      <trkpt lat="45.449" lon="5.69131">
        <ele>805.451879</ele>
        <time>2023-12-12T12:21:44.000Z</time>
      </trkpt>
      <trkpt lat="45.44912" lon="5.69148">
        <ele>805.558163</ele>
        <time>2023-12-12T12:21:49.000Z</time>
      </trkpt>
      <trkpt lat="45.44914" lon="5.69151">
        <ele>805.579779</ele>
        <time>2023-12-12T12:21:50.000Z</time>
      </trkpt>
      <trkpt lat="45.44931" lon="5.69175">
        <ele>805.730507</ele>
        <time>2023-12-12T12:21:57.000Z</time>
      </trkpt>
      <trkpt lat="45.44934" lon="5.69178">
        <ele>805.754494</ele>
        <time>2023-12-12T12:21:58.000Z</time>
      </trkpt>
      <trkpt lat="45.44958" lon="5.6921">
        <ele>804.259229</ele>
        <time>2023-12-12T12:22:07.000Z</time>
      </trkpt>
      <trkpt lat="45.44974" lon="5.69227">
        <ele>801.93558</ele>
        <time>2023-12-12T12:22:14.000Z</time>
      </trkpt>
      <trkpt lat="45.44983" lon="5.69229">
        <ele>800.936381</ele>
        <time>2023-12-12T12:22:21.000Z</time>
      </trkpt>
      <trkpt lat="45.44983" lon="5.69229">
        <ele>800.936381</ele>
        <time>2023-12-12T12:22:35.000Z</time>
      </trkpt>
      <trkpt lat="45.44983" lon="5.69229">
        <ele>800.924832</ele>
        <time>2023-12-12T12:22:43.000Z</time>
      </trkpt>
      <trkpt lat="45.44983" lon="5.69229">
        <ele>800.910724</ele>
        <time>2023-12-12T12:23:07.000Z</time>
      </trkpt>
      <trkpt lat="45.44983" lon="5.69229">
        <ele>800.876077</ele>
        <time>2023-12-12T12:23:36.000Z</time>
      </trkpt>
      <trkpt lat="45.44983" lon="5.69229">
        <ele>800.864528</ele>
        <time>2023-12-12T12:23:50.000Z</time>
      </trkpt>
      <trkpt lat="45.44989" lon="5.69226">
        <ele>800.162794</ele>
        <time>2023-12-12T12:24:10.000Z</time>
      </trkpt>
      <trkpt lat="45.44997" lon="5.69223">
        <ele>799.2294</ele>
        <time>2023-12-12T12:24:13.000Z</time>
      </trkpt>
      <trkpt lat="45.45002" lon="5.6922">
        <ele>798.576615</ele>
        <time>2023-12-12T12:24:15.000Z</time>
      </trkpt>
      <trkpt lat="45.45005" lon="5.69218">
        <ele>798.184969</ele>
        <time>2023-12-12T12:24:16.000Z</time>
      </trkpt>
      <trkpt lat="45.45008" lon="5.69216">
        <ele>797.778116</ele>
        <time>2023-12-12T12:24:17.000Z</time>
      </trkpt>
      <trkpt lat="45.45014" lon="5.69211">
        <ele>796.959385</ele>
        <time>2023-12-12T12:24:19.000Z</time>
      </trkpt>
      <trkpt lat="45.45022" lon="5.69208">
        <ele>796.050754</ele>
        <time>2023-12-12T12:24:21.000Z</time>
      </trkpt>
      <trkpt lat="45.45027" lon="5.69203">
        <ele>795.349999</ele>
        <time>2023-12-12T12:24:23.000Z</time>
      </trkpt>
      <trkpt lat="45.4503" lon="5.69197">
        <ele>794.726372</ele>
        <time>2023-12-12T12:24:25.000Z</time>
      </trkpt>
      <trkpt lat="45.4503" lon="5.69189">
        <ele>794.101558</ele>
        <time>2023-12-12T12:24:27.000Z</time>
      </trkpt>
      <trkpt lat="45.45029" lon="5.69185">
        <ele>793.719717</ele>
        <time>2023-12-12T12:24:28.000Z</time>
      </trkpt>
      <trkpt lat="45.45028" lon="5.69183">
        <ele>793.467591</ele>
        <time>2023-12-12T12:24:29.000Z</time>
      </trkpt>
      <trkpt lat="45.45025" lon="5.6918">
        <ele>793.123482</ele>
        <time>2023-12-12T12:24:30.000Z</time>
      </trkpt>
      <trkpt lat="45.45022" lon="5.69176">
        <ele>792.600285</ele>
        <time>2023-12-12T12:24:32.000Z</time>
      </trkpt>
      <trkpt lat="45.45018" lon="5.69172">
        <ele>792.035484</ele>
        <time>2023-12-12T12:24:39.000Z</time>
      </trkpt>
      <trkpt lat="45.45017" lon="5.6917">
        <ele>791.844245</ele>
        <time>2023-12-12T12:24:48.000Z</time>
      </trkpt>
      <trkpt lat="45.45016" lon="5.69167">
        <ele>791.637819</ele>
        <time>2023-12-12T12:24:56.000Z</time>
      </trkpt>
      <trkpt lat="45.45016" lon="5.69167">
        <ele>791.510851</ele>
        <time>2023-12-12T12:25:03.000Z</time>
      </trkpt>
      <trkpt lat="45.45016" lon="5.69167">
        <ele>791.510851</ele>
        <time>2023-12-12T12:25:10.000Z</time>
      </trkpt>
      <trkpt lat="45.45011" lon="5.69154">
        <ele>790.390166</ele>
        <time>2023-12-12T12:25:17.000Z</time>
      </trkpt>
      <trkpt lat="45.45011" lon="5.69151">
        <ele>790.11859</ele>
        <time>2023-12-12T12:25:18.000Z</time>
      </trkpt>
      <trkpt lat="45.4501" lon="5.69148">
        <ele>789.879134</ele>
        <time>2023-12-12T12:25:20.000Z</time>
      </trkpt>
      <trkpt lat="45.45006" lon="5.6913">
        <ele>788.357708</ele>
        <time>2023-12-12T12:25:25.000Z</time>
      </trkpt>
      <trkpt lat="45.45005" lon="5.69117">
        <ele>787.293271</ele>
        <time>2023-12-12T12:25:27.000Z</time>
      </trkpt>
      <trkpt lat="45.45004" lon="5.69101">
        <ele>785.957334</ele>
        <time>2023-12-12T12:25:29.000Z</time>
      </trkpt>
      <trkpt lat="45.45003" lon="5.69094">
        <ele>785.400498</ele>
        <time>2023-12-12T12:25:30.000Z</time>
      </trkpt>
      <trkpt lat="45.45004" lon="5.69082">
        <ele>784.055968</ele>
        <time>2023-12-12T12:25:32.000Z</time>
      </trkpt>
      <trkpt lat="45.45006" lon="5.69076">
        <ele>783.295258</ele>
        <time>2023-12-12T12:25:33.000Z</time>
      </trkpt>
      <trkpt lat="45.45008" lon="5.69071">
        <ele>782.556489</ele>
        <time>2023-12-12T12:25:34.000Z</time>
      </trkpt>
      <trkpt lat="45.45015" lon="5.69065">
        <ele>781.008847</ele>
        <time>2023-12-12T12:25:36.000Z</time>
      </trkpt>
      <trkpt lat="45.45019" lon="5.69063">
        <ele>780.335323</ele>
        <time>2023-12-12T12:25:37.000Z</time>
      </trkpt>
      <trkpt lat="45.45029" lon="5.69059">
        <ele>778.561676</ele>
        <time>2023-12-12T12:25:39.000Z</time>
      </trkpt>
      <trkpt lat="45.45034" lon="5.69056">
        <ele>777.588518</ele>
        <time>2023-12-12T12:25:40.000Z</time>
      </trkpt>
      <trkpt lat="45.45045" lon="5.69054">
        <ele>775.708894</ele>
        <time>2023-12-12T12:25:42.000Z</time>
      </trkpt>
      <trkpt lat="45.4505" lon="5.69051">
        <ele>774.731011</ele>
        <time>2023-12-12T12:25:43.000Z</time>
      </trkpt>
      <trkpt lat="45.45055" lon="5.69049">
        <ele>773.835483</ele>
        <time>2023-12-12T12:25:44.000Z</time>
      </trkpt>
      <trkpt lat="45.4506" lon="5.69045">
        <ele>772.872376</ele>
        <time>2023-12-12T12:25:45.000Z</time>
      </trkpt>
      <trkpt lat="45.45069" lon="5.69037">
        <ele>770.878999</ele>
        <time>2023-12-12T12:25:47.000Z</time>
      </trkpt>
      <trkpt lat="45.45075" lon="5.69032">
        <ele>769.79239</ele>
        <time>2023-12-12T12:25:48.000Z</time>
      </trkpt>
      <trkpt lat="45.4508" lon="5.69028">
        <ele>768.689335</ele>
        <time>2023-12-12T12:25:49.000Z</time>
      </trkpt>
      <trkpt lat="45.45085" lon="5.69023">
        <ele>767.651978</ele>
        <time>2023-12-12T12:25:50.000Z</time>
      </trkpt>
      <trkpt lat="45.4509" lon="5.69018">
        <ele>766.55105</ele>
        <time>2023-12-12T12:25:51.000Z</time>
      </trkpt>
      <trkpt lat="45.45094" lon="5.69012">
        <ele>765.53885</ele>
        <time>2023-12-12T12:25:52.000Z</time>
      </trkpt>
      <trkpt lat="45.45098" lon="5.69006">
        <ele>764.593969</ele>
        <time>2023-12-12T12:25:53.000Z</time>
      </trkpt>
      <trkpt lat="45.45105" lon="5.68995">
        <ele>762.744271</ele>
        <time>2023-12-12T12:25:55.000Z</time>
      </trkpt>
      <trkpt lat="45.4511" lon="5.68991">
        <ele>761.855841</ele>
        <time>2023-12-12T12:25:56.000Z</time>
      </trkpt>
      <trkpt lat="45.45115" lon="5.68989">
        <ele>760.936956</ele>
        <time>2023-12-12T12:25:57.000Z</time>
      </trkpt>
      <trkpt lat="45.45125" lon="5.68987">
        <ele>759.057331</ele>
        <time>2023-12-12T12:25:59.000Z</time>
      </trkpt>
      <trkpt lat="45.45135" lon="5.68983">
        <ele>757.30047</ele>
        <time>2023-12-12T12:26:01.000Z</time>
      </trkpt>
      <trkpt lat="45.45139" lon="5.6898">
        <ele>756.5552</ele>
        <time>2023-12-12T12:26:02.000Z</time>
      </trkpt>
      <trkpt lat="45.45142" lon="5.68976">
        <ele>755.801197</ele>
        <time>2023-12-12T12:26:03.000Z</time>
      </trkpt>
      <trkpt lat="45.45143" lon="5.68962">
        <ele>754.141823</ele>
        <time>2023-12-12T12:26:05.000Z</time>
      </trkpt>
      <trkpt lat="45.45143" lon="5.68957">
        <ele>753.600451</ele>
        <time>2023-12-12T12:26:06.000Z</time>
      </trkpt>
      <trkpt lat="45.45142" lon="5.68954">
        <ele>753.400127</ele>
        <time>2023-12-12T12:26:08.000Z</time>
      </trkpt>
      <trkpt lat="45.45142" lon="5.68953">
        <ele>753.329718</ele>
        <time>2023-12-12T12:26:14.000Z</time>
      </trkpt>
      <trkpt lat="45.45141" lon="5.68954">
        <ele>753.301827</ele>
        <time>2023-12-12T12:26:23.000Z</time>
      </trkpt>
      <trkpt lat="45.45142" lon="5.68954">
        <ele>753.272229</ele>
        <time>2023-12-12T12:26:36.000Z</time>
      </trkpt>
      <trkpt lat="45.45142" lon="5.68954">
        <ele>753.251868</ele>
        <time>2023-12-12T12:26:51.000Z</time>
      </trkpt>
      <trkpt lat="45.45141" lon="5.68954">
        <ele>753.194228</ele>
        <time>2023-12-12T12:26:58.000Z</time>
      </trkpt>
      <trkpt lat="45.45141" lon="5.68954">
        <ele>753.187489</ele>
        <time>2023-12-12T12:27:05.000Z</time>
      </trkpt>
      <trkpt lat="45.4514" lon="5.68953">
        <ele>753.10473</ele>
        <time>2023-12-12T12:27:15.000Z</time>
      </trkpt>
      <trkpt lat="45.4514" lon="5.6895">
        <ele>752.929509</ele>
        <time>2023-12-12T12:27:23.000Z</time>
      </trkpt>
      <trkpt lat="45.45144" lon="5.6894">
        <ele>752.174532</ele>
        <time>2023-12-12T12:27:25.000Z</time>
      </trkpt>
      <trkpt lat="45.45149" lon="5.68928">
        <ele>751.243595</ele>
        <time>2023-12-12T12:27:27.000Z</time>
      </trkpt>
      <trkpt lat="45.45151" lon="5.68922">
        <ele>750.763197</ele>
        <time>2023-12-12T12:27:28.000Z</time>
      </trkpt>
      <trkpt lat="45.45154" lon="5.68917">
        <ele>750.327348</ele>
        <time>2023-12-12T12:27:29.000Z</time>
      </trkpt>
      <trkpt lat="45.45157" lon="5.68911">
        <ele>749.878805</ele>
        <time>2023-12-12T12:27:30.000Z</time>
      </trkpt>
      <trkpt lat="45.45171" lon="5.6889">
        <ele>747.875544</ele>
        <time>2023-12-12T12:27:34.000Z</time>
      </trkpt>
      <trkpt lat="45.45177" lon="5.68882">
        <ele>747.10489</ele>
        <time>2023-12-12T12:27:36.000Z</time>
      </trkpt>
      <trkpt lat="45.45178" lon="5.68879">
        <ele>746.88319</ele>
        <time>2023-12-12T12:27:37.000Z</time>
      </trkpt>
      <trkpt lat="45.45181" lon="5.68878">
        <ele>746.628661</ele>
        <time>2023-12-12T12:27:39.000Z</time>
      </trkpt>
      <trkpt lat="45.4518" lon="5.68879">
        <ele>746.549124</ele>
        <time>2023-12-12T12:27:42.000Z</time>
      </trkpt>
      <trkpt lat="45.45173" lon="5.68889">
        <ele>745.577812</ele>
        <time>2023-12-12T12:27:48.000Z</time>
      </trkpt>
      <trkpt lat="45.45164" lon="5.68903">
        <ele>744.299701</ele>
        <time>2023-12-12T12:27:53.000Z</time>
      </trkpt>
      <trkpt lat="45.45158" lon="5.6891">
        <ele>743.542872</ele>
        <time>2023-12-12T12:27:56.000Z</time>
      </trkpt>
      <trkpt lat="45.45152" lon="5.68921">
        <ele>742.634444</ele>
        <time>2023-12-12T12:28:00.000Z</time>
      </trkpt>
      <trkpt lat="45.45151" lon="5.68925">
        <ele>742.334703</ele>
        <time>2023-12-12T12:28:02.000Z</time>
      </trkpt>
      <trkpt lat="45.45145" lon="5.68933">
        <ele>741.555399</ele>
        <time>2023-12-12T12:28:07.000Z</time>
      </trkpt>
      <trkpt lat="45.45144" lon="5.68936">
        <ele>741.337626</ele>
        <time>2023-12-12T12:28:09.000Z</time>
      </trkpt>
      <trkpt lat="45.45144" lon="5.68936">
        <ele>741.321074</ele>
        <time>2023-12-12T12:28:10.000Z</time>
      </trkpt>
      <trkpt lat="45.45145" lon="5.68935">
        <ele>741.260229</ele>
        <time>2023-12-12T12:28:11.000Z</time>
      </trkpt>
      <trkpt lat="45.45149" lon="5.68926">
        <ele>740.520808</ele>
        <time>2023-12-12T12:28:16.000Z</time>
      </trkpt>
      <trkpt lat="45.4515" lon="5.68925">
        <ele>740.40242</ele>
        <time>2023-12-12T12:28:19.000Z</time>
      </trkpt>
      <trkpt lat="45.4515" lon="5.68925">
        <ele>740.390686</ele>
        <time>2023-12-12T12:28:20.000Z</time>
      </trkpt>
      <trkpt lat="45.45154" lon="5.68929">
        <ele>739.956496</ele>
        <time>2023-12-12T12:28:30.000Z</time>
      </trkpt>
      <trkpt lat="45.45158" lon="5.68936">
        <ele>739.374938</ele>
        <time>2023-12-12T12:28:33.000Z</time>
      </trkpt>
      <trkpt lat="45.45162" lon="5.68943">
        <ele>738.75145</ele>
        <time>2023-12-12T12:28:36.000Z</time>
      </trkpt>
      <trkpt lat="45.45163" lon="5.68949">
        <ele>738.313942</ele>
        <time>2023-12-12T12:28:39.000Z</time>
      </trkpt>
      <trkpt lat="45.45164" lon="5.68951">
        <ele>738.164977</ele>
        <time>2023-12-12T12:28:40.000Z</time>
      </trkpt>
      <trkpt lat="45.45168" lon="5.68958">
        <ele>737.546592</ele>
        <time>2023-12-12T12:28:44.000Z</time>
      </trkpt>
      <trkpt lat="45.4517" lon="5.68962">
        <ele>737.237115</ele>
        <time>2023-12-12T12:28:46.000Z</time>
      </trkpt>
      <trkpt lat="45.45174" lon="5.68968">
        <ele>736.65302</ele>
        <time>2023-12-12T12:28:49.000Z</time>
      </trkpt>
      <trkpt lat="45.45178" lon="5.68971">
        <ele>735.963507</ele>
        <time>2023-12-12T12:28:51.000Z</time>
      </trkpt>
      <trkpt lat="45.45181" lon="5.68975">
        <ele>734.940668</ele>
        <time>2023-12-12T12:28:53.000Z</time>
      </trkpt>
      <trkpt lat="45.45185" lon="5.68978">
        <ele>734.047548</ele>
        <time>2023-12-12T12:28:55.000Z</time>
      </trkpt>
      <trkpt lat="45.4519" lon="5.68981">
        <ele>732.758713</ele>
        <time>2023-12-12T12:28:58.000Z</time>
      </trkpt>
      <trkpt lat="45.45193" lon="5.68982">
        <ele>731.928014</ele>
        <time>2023-12-12T12:29:00.000Z</time>
      </trkpt>
      <trkpt lat="45.45195" lon="5.68983">
        <ele>731.539673</ele>
        <time>2023-12-12T12:29:01.000Z</time>
      </trkpt>
      <trkpt lat="45.45198" lon="5.68982">
        <ele>730.741432</ele>
        <time>2023-12-12T12:29:03.000Z</time>
      </trkpt>
      <trkpt lat="45.45202" lon="5.68981">
        <ele>729.833861</ele>
        <time>2023-12-12T12:29:06.000Z</time>
      </trkpt>
      <trkpt lat="45.45203" lon="5.6898">
        <ele>729.57236</ele>
        <time>2023-12-12T12:29:07.000Z</time>
      </trkpt>
      <trkpt lat="45.45205" lon="5.68978">
        <ele>728.864879</ele>
        <time>2023-12-12T12:29:09.000Z</time>
      </trkpt>
      <trkpt lat="45.45208" lon="5.68976">
        <ele>728.175253</ele>
        <time>2023-12-12T12:29:11.000Z</time>
      </trkpt>
      <trkpt lat="45.45211" lon="5.68973">
        <ele>727.256343</ele>
        <time>2023-12-12T12:29:13.000Z</time>
      </trkpt>
      <trkpt lat="45.45214" lon="5.68971">
        <ele>726.613097</ele>
        <time>2023-12-12T12:29:14.000Z</time>
      </trkpt>
      <trkpt lat="45.45217" lon="5.6897">
        <ele>725.833458</ele>
        <time>2023-12-12T12:29:16.000Z</time>
      </trkpt>
      <trkpt lat="45.4522" lon="5.68966">
        <ele>724.987829</ele>
        <time>2023-12-12T12:29:18.000Z</time>
      </trkpt>
      <trkpt lat="45.45224" lon="5.68963">
        <ele>723.820171</ele>
        <time>2023-12-12T12:29:20.000Z</time>
      </trkpt>
      <trkpt lat="45.45228" lon="5.68957">
        <ele>722.419257</ele>
        <time>2023-12-12T12:29:22.000Z</time>
      </trkpt>
      <trkpt lat="45.45233" lon="5.6895">
        <ele>720.825521</ele>
        <time>2023-12-12T12:29:24.000Z</time>
      </trkpt>
      <trkpt lat="45.45237" lon="5.68944">
        <ele>719.497944</ele>
        <time>2023-12-12T12:29:26.000Z</time>
      </trkpt>
      <trkpt lat="45.45239" lon="5.68941">
        <ele>718.828309</ele>
        <time>2023-12-12T12:29:27.000Z</time>
      </trkpt>
      <trkpt lat="45.45243" lon="5.68938">
        <ele>717.632843</ele>
        <time>2023-12-12T12:29:29.000Z</time>
      </trkpt>
      <trkpt lat="45.45245" lon="5.68936">
        <ele>717.183341</ele>
        <time>2023-12-12T12:29:30.000Z</time>
      </trkpt>
      <trkpt lat="45.45247" lon="5.68935">
        <ele>716.686273</ele>
        <time>2023-12-12T12:29:31.000Z</time>
      </trkpt>
      <trkpt lat="45.4525" lon="5.68928">
        <ele>715.375865</ele>
        <time>2023-12-12T12:29:34.000Z</time>
      </trkpt>
      <trkpt lat="45.45251" lon="5.68926">
        <ele>714.938333</ele>
        <time>2023-12-12T12:29:35.000Z</time>
      </trkpt>
      <trkpt lat="45.45256" lon="5.68916">
        <ele>712.929802</ele>
        <time>2023-12-12T12:29:38.000Z</time>
      </trkpt>
      <trkpt lat="45.45259" lon="5.68909">
        <ele>711.550883</ele>
        <time>2023-12-12T12:29:40.000Z</time>
      </trkpt>
      <trkpt lat="45.45264" lon="5.68901">
        <ele>709.746393</ele>
        <time>2023-12-12T12:29:42.000Z</time>
      </trkpt>
      <trkpt lat="45.4527" lon="5.68894">
        <ele>707.969637</ele>
        <time>2023-12-12T12:29:44.000Z</time>
      </trkpt>
      <trkpt lat="45.45276" lon="5.68889">
        <ele>706.411343</ele>
        <time>2023-12-12T12:29:46.000Z</time>
      </trkpt>
      <trkpt lat="45.4528" lon="5.68885">
        <ele>705.155064</ele>
        <time>2023-12-12T12:29:48.000Z</time>
      </trkpt>
      <trkpt lat="45.45285" lon="5.6888">
        <ele>703.874199</ele>
        <time>2023-12-12T12:29:50.000Z</time>
      </trkpt>
      <trkpt lat="45.45289" lon="5.68876">
        <ele>702.583012</ele>
        <time>2023-12-12T12:29:52.000Z</time>
      </trkpt>
      <trkpt lat="45.45294" lon="5.68872">
        <ele>701.320483</ele>
        <time>2023-12-12T12:29:54.000Z</time>
      </trkpt>
      <trkpt lat="45.45298" lon="5.68868">
        <ele>700.19874</ele>
        <time>2023-12-12T12:29:56.000Z</time>
      </trkpt>
      <trkpt lat="45.45299" lon="5.68866">
        <ele>699.733508</ele>
        <time>2023-12-12T12:29:57.000Z</time>
      </trkpt>
      <trkpt lat="45.45303" lon="5.68861">
        <ele>698.501513</ele>
        <time>2023-12-12T12:30:00.000Z</time>
      </trkpt>
      <trkpt lat="45.45304" lon="5.68859">
        <ele>698.042758</ele>
        <time>2023-12-12T12:30:01.000Z</time>
      </trkpt>
      <trkpt lat="45.45305" lon="5.68857">
        <ele>697.633876</ele>
        <time>2023-12-12T12:30:02.000Z</time>
      </trkpt>
      <trkpt lat="45.45308" lon="5.68853">
        <ele>696.739382</ele>
        <time>2023-12-12T12:30:04.000Z</time>
      </trkpt>
      <trkpt lat="45.45313" lon="5.68846">
        <ele>695.041217</ele>
        <time>2023-12-12T12:30:07.000Z</time>
      </trkpt>
      <trkpt lat="45.45316" lon="5.68842">
        <ele>694.045384</ele>
        <time>2023-12-12T12:30:09.000Z</time>
      </trkpt>
      <trkpt lat="45.4532" lon="5.68839">
        <ele>692.91027</ele>
        <time>2023-12-12T12:30:11.000Z</time>
      </trkpt>
      <trkpt lat="45.45322" lon="5.68833">
        <ele>691.87345</ele>
        <time>2023-12-12T12:30:13.000Z</time>
      </trkpt>
      <trkpt lat="45.45324" lon="5.68831">
        <ele>691.34716</ele>
        <time>2023-12-12T12:30:14.000Z</time>
      </trkpt>
      <trkpt lat="45.45326" lon="5.68827">
        <ele>690.420085</ele>
        <time>2023-12-12T12:30:16.000Z</time>
      </trkpt>
      <trkpt lat="45.4533" lon="5.68821">
        <ele>689.045887</ele>
        <time>2023-12-12T12:30:19.000Z</time>
      </trkpt>
      <trkpt lat="45.45332" lon="5.68819">
        <ele>688.503577</ele>
        <time>2023-12-12T12:30:20.000Z</time>
      </trkpt>
      <trkpt lat="45.45333" lon="5.68816">
        <ele>687.984731</ele>
        <time>2023-12-12T12:30:21.000Z</time>
      </trkpt>
      <trkpt lat="45.45338" lon="5.68812">
        <ele>686.669276</ele>
        <time>2023-12-12T12:30:23.000Z</time>
      </trkpt>
      <trkpt lat="45.45343" lon="5.68807">
        <ele>685.211432</ele>
        <time>2023-12-12T12:30:26.000Z</time>
      </trkpt>
      <trkpt lat="45.45347" lon="5.68807">
        <ele>684.198881</ele>
        <time>2023-12-12T12:30:28.000Z</time>
      </trkpt>
      <trkpt lat="45.45353" lon="5.68806">
        <ele>682.794951</ele>
        <time>2023-12-12T12:30:31.000Z</time>
      </trkpt>
      <trkpt lat="45.45357" lon="5.68803">
        <ele>681.655262</ele>
        <time>2023-12-12T12:30:33.000Z</time>
      </trkpt>
      <trkpt lat="45.45362" lon="5.688">
        <ele>680.275655</ele>
        <time>2023-12-12T12:30:35.000Z</time>
      </trkpt>
      <trkpt lat="45.45368" lon="5.68797">
        <ele>678.792476</ele>
        <time>2023-12-12T12:30:37.000Z</time>
      </trkpt>
      <trkpt lat="45.45374" lon="5.68794">
        <ele>677.395256</ele>
        <time>2023-12-12T12:30:39.000Z</time>
      </trkpt>
      <trkpt lat="45.45379" lon="5.68793">
        <ele>676.048324</ele>
        <time>2023-12-12T12:30:41.000Z</time>
      </trkpt>
      <trkpt lat="45.45388" lon="5.68789">
        <ele>673.799284</ele>
        <time>2023-12-12T12:30:44.000Z</time>
      </trkpt>
      <trkpt lat="45.45393" lon="5.68786">
        <ele>672.586921</ele>
        <time>2023-12-12T12:30:46.000Z</time>
      </trkpt>
      <trkpt lat="45.45398" lon="5.68782">
        <ele>671.222338</ele>
        <time>2023-12-12T12:30:48.000Z</time>
      </trkpt>
      <trkpt lat="45.454" lon="5.68781">
        <ele>670.532733</ele>
        <time>2023-12-12T12:30:49.000Z</time>
      </trkpt>
      <trkpt lat="45.45405" lon="5.68778">
        <ele>669.313206</ele>
        <time>2023-12-12T12:30:51.000Z</time>
      </trkpt>
      <trkpt lat="45.45407" lon="5.68776">
        <ele>668.76838</ele>
        <time>2023-12-12T12:30:52.000Z</time>
      </trkpt>
      <trkpt lat="45.45413" lon="5.68772">
        <ele>667.098685</ele>
        <time>2023-12-12T12:30:55.000Z</time>
      </trkpt>
      <trkpt lat="45.45415" lon="5.6877">
        <ele>666.553859</ele>
        <time>2023-12-12T12:30:56.000Z</time>
      </trkpt>
      <trkpt lat="45.45419" lon="5.68767">
        <ele>665.385204</ele>
        <time>2023-12-12T12:30:58.000Z</time>
      </trkpt>
      <trkpt lat="45.45422" lon="5.68766">
        <ele>664.739114</ele>
        <time>2023-12-12T12:31:01.000Z</time>
      </trkpt>
      <trkpt lat="45.45422" lon="5.68766">
        <ele>664.697578</ele>
        <time>2023-12-12T12:31:02.000Z</time>
      </trkpt>
      <trkpt lat="45.45425" lon="5.68764">
        <ele>663.956073</ele>
        <time>2023-12-12T12:31:10.000Z</time>
      </trkpt>
      <trkpt lat="45.45425" lon="5.68762">
        <ele>663.593134</ele>
        <time>2023-12-12T12:31:12.000Z</time>
      </trkpt>
      <trkpt lat="45.45429" lon="5.68759">
        <ele>662.670837</ele>
        <time>2023-12-12T12:31:16.000Z</time>
      </trkpt>
      <trkpt lat="45.4543" lon="5.68759">
        <ele>662.364258</ele>
        <time>2023-12-12T12:31:17.000Z</time>
      </trkpt>
      <trkpt lat="45.45431" lon="5.68758">
        <ele>662.096296</ele>
        <time>2023-12-12T12:31:18.000Z</time>
      </trkpt>
      <trkpt lat="45.45431" lon="5.68755">
        <ele>661.617322</ele>
        <time>2023-12-12T12:31:20.000Z</time>
      </trkpt>
      <trkpt lat="45.45434" lon="5.68752">
        <ele>660.920034</ele>
        <time>2023-12-12T12:31:22.000Z</time>
      </trkpt>
      <trkpt lat="45.45435" lon="5.68751">
        <ele>660.576085</ele>
        <time>2023-12-12T12:31:23.000Z</time>
      </trkpt>
      <trkpt lat="45.45437" lon="5.68748">
        <ele>659.799051</ele>
        <time>2023-12-12T12:31:25.000Z</time>
      </trkpt>
      <trkpt lat="45.45438" lon="5.68747">
        <ele>659.461151</ele>
        <time>2023-12-12T12:31:26.000Z</time>
      </trkpt>
      <trkpt lat="45.4544" lon="5.68746">
        <ele>659.097794</ele>
        <time>2023-12-12T12:31:27.000Z</time>
      </trkpt>
      <trkpt lat="45.45442" lon="5.68742">
        <ele>658.221939</ele>
        <time>2023-12-12T12:31:30.000Z</time>
      </trkpt>
      <trkpt lat="45.45443" lon="5.68741">
        <ele>657.941856</ele>
        <time>2023-12-12T12:31:31.000Z</time>
      </trkpt>
      <trkpt lat="45.45445" lon="5.68733">
        <ele>656.552836</ele>
        <time>2023-12-12T12:31:35.000Z</time>
      </trkpt>
      <trkpt lat="45.45449" lon="5.68729">
        <ele>655.294985</ele>
        <time>2023-12-12T12:31:38.000Z</time>
      </trkpt>
      <trkpt lat="45.45453" lon="5.68727">
        <ele>654.416712</ele>
        <time>2023-12-12T12:31:40.000Z</time>
      </trkpt>
      <trkpt lat="45.45458" lon="5.68725">
        <ele>653.009224</ele>
        <time>2023-12-12T12:31:43.000Z</time>
      </trkpt>
      <trkpt lat="45.45465" lon="5.68723">
        <ele>651.422066</ele>
        <time>2023-12-12T12:31:46.000Z</time>
      </trkpt>
      <trkpt lat="45.45469" lon="5.68719">
        <ele>650.295184</ele>
        <time>2023-12-12T12:31:49.000Z</time>
      </trkpt>
      <trkpt lat="45.45474" lon="5.68715">
        <ele>649.094666</ele>
        <time>2023-12-12T12:31:52.000Z</time>
      </trkpt>
      <trkpt lat="45.45476" lon="5.68713">
        <ele>648.656379</ele>
        <time>2023-12-12T12:31:53.000Z</time>
      </trkpt>
      <trkpt lat="45.45478" lon="5.6871">
        <ele>648.110941</ele>
        <time>2023-12-12T12:31:54.000Z</time>
      </trkpt>
      <trkpt lat="45.45484" lon="5.68705">
        <ele>646.523825</ele>
        <time>2023-12-12T12:31:57.000Z</time>
      </trkpt>
      <trkpt lat="45.45488" lon="5.68703">
        <ele>645.771662</ele>
        <time>2023-12-12T12:31:59.000Z</time>
      </trkpt>
      <trkpt lat="45.45492" lon="5.68701">
        <ele>644.846158</ele>
        <time>2023-12-12T12:32:02.000Z</time>
      </trkpt>
      <trkpt lat="45.45494" lon="5.68697">
        <ele>644.087671</ele>
        <time>2023-12-12T12:32:06.000Z</time>
      </trkpt>
      <trkpt lat="45.455" lon="5.68689">
        <ele>642.522481</ele>
        <time>2023-12-12T12:32:09.000Z</time>
      </trkpt>
      <trkpt lat="45.45501" lon="5.68686">
        <ele>641.907055</ele>
        <time>2023-12-12T12:32:10.000Z</time>
      </trkpt>
      <trkpt lat="45.45503" lon="5.68683">
        <ele>641.32564</ele>
        <time>2023-12-12T12:32:11.000Z</time>
      </trkpt>
      <trkpt lat="45.45505" lon="5.6868">
        <ele>640.757136</ele>
        <time>2023-12-12T12:32:12.000Z</time>
      </trkpt>
      <trkpt lat="45.45509" lon="5.68673">
        <ele>639.490814</ele>
        <time>2023-12-12T12:32:14.000Z</time>
      </trkpt>
      <trkpt lat="45.45516" lon="5.68659">
        <ele>636.917346</ele>
        <time>2023-12-12T12:32:17.000Z</time>
      </trkpt>
      <trkpt lat="45.45522" lon="5.68649">
        <ele>635.023132</ele>
        <time>2023-12-12T12:32:19.000Z</time>
      </trkpt>
      <trkpt lat="45.45525" lon="5.68643">
        <ele>634.005891</ele>
        <time>2023-12-12T12:32:20.000Z</time>
      </trkpt>
      <trkpt lat="45.45527" lon="5.68636">
        <ele>632.998143</ele>
        <time>2023-12-12T12:32:21.000Z</time>
      </trkpt>
      <trkpt lat="45.4553" lon="5.68624">
        <ele>631.114924</ele>
        <time>2023-12-12T12:32:23.000Z</time>
      </trkpt>
      <trkpt lat="45.45534" lon="5.68613">
        <ele>629.394426</ele>
        <time>2023-12-12T12:32:25.000Z</time>
      </trkpt>
      <trkpt lat="45.45538" lon="5.68603">
        <ele>627.664404</ele>
        <time>2023-12-12T12:32:27.000Z</time>
      </trkpt>
      <trkpt lat="45.45544" lon="5.68593">
        <ele>625.700887</ele>
        <time>2023-12-12T12:32:29.000Z</time>
      </trkpt>
      <trkpt lat="45.45548" lon="5.68588">
        <ele>624.645547</ele>
        <time>2023-12-12T12:32:30.000Z</time>
      </trkpt>
      <trkpt lat="45.45552" lon="5.68584">
        <ele>623.580061</ele>
        <time>2023-12-12T12:32:31.000Z</time>
      </trkpt>
      <trkpt lat="45.45562" lon="5.68575">
        <ele>621.314148</ele>
        <time>2023-12-12T12:32:33.000Z</time>
      </trkpt>
      <trkpt lat="45.45572" lon="5.68566">
        <ele>618.833445</ele>
        <time>2023-12-12T12:32:35.000Z</time>
      </trkpt>
      <trkpt lat="45.45583" lon="5.68557">
        <ele>616.13141</ele>
        <time>2023-12-12T12:32:37.000Z</time>
      </trkpt>
      <trkpt lat="45.45589" lon="5.68553">
        <ele>614.714337</ele>
        <time>2023-12-12T12:32:38.000Z</time>
      </trkpt>
      <trkpt lat="45.45595" lon="5.68548">
        <ele>613.356973</ele>
        <time>2023-12-12T12:32:39.000Z</time>
      </trkpt>
      <trkpt lat="45.45601" lon="5.68542">
        <ele>612.055866</ele>
        <time>2023-12-12T12:32:40.000Z</time>
      </trkpt>
      <trkpt lat="45.45607" lon="5.68538">
        <ele>610.771981</ele>
        <time>2023-12-12T12:32:41.000Z</time>
      </trkpt>
      <trkpt lat="45.45614" lon="5.68532">
        <ele>609.441584</ele>
        <time>2023-12-12T12:32:42.000Z</time>
      </trkpt>
      <trkpt lat="45.4562" lon="5.68526">
        <ele>608.022718</ele>
        <time>2023-12-12T12:32:43.000Z</time>
      </trkpt>
      <trkpt lat="45.45633" lon="5.68511">
        <ele>604.960325</ele>
        <time>2023-12-12T12:32:45.000Z</time>
      </trkpt>
      <trkpt lat="45.45639" lon="5.68504">
        <ele>603.452551</ele>
        <time>2023-12-12T12:32:46.000Z</time>
      </trkpt>
      <trkpt lat="45.45645" lon="5.68497">
        <ele>602.073027</ele>
        <time>2023-12-12T12:32:47.000Z</time>
      </trkpt>
      <trkpt lat="45.4565" lon="5.68491">
        <ele>600.935703</ele>
        <time>2023-12-12T12:32:48.000Z</time>
      </trkpt>
      <trkpt lat="45.45653" lon="5.68487">
        <ele>600.111495</ele>
        <time>2023-12-12T12:32:49.000Z</time>
      </trkpt>
      <trkpt lat="45.45655" lon="5.68483">
        <ele>599.57415</ele>
        <time>2023-12-12T12:32:50.000Z</time>
      </trkpt>
      <trkpt lat="45.45656" lon="5.6848">
        <ele>599.129951</ele>
        <time>2023-12-12T12:32:51.000Z</time>
      </trkpt>
      <trkpt lat="45.45657" lon="5.68477">
        <ele>598.686941</ele>
        <time>2023-12-12T12:32:52.000Z</time>
      </trkpt>
      <trkpt lat="45.45661" lon="5.68472">
        <ele>597.729951</ele>
        <time>2023-12-12T12:32:54.000Z</time>
      </trkpt>
      <trkpt lat="45.4567" lon="5.68463">
        <ele>595.773903</ele>
        <time>2023-12-12T12:32:57.000Z</time>
      </trkpt>
      <trkpt lat="45.45675" lon="5.68457">
        <ele>594.558776</ele>
        <time>2023-12-12T12:32:59.000Z</time>
      </trkpt>
      <trkpt lat="45.45679" lon="5.68453">
        <ele>593.587805</ele>
        <time>2023-12-12T12:33:01.000Z</time>
      </trkpt>
      <trkpt lat="45.45687" lon="5.68451">
        <ele>592.211143</ele>
        <time>2023-12-12T12:33:04.000Z</time>
      </trkpt>
      <trkpt lat="45.45691" lon="5.68447">
        <ele>591.341397</ele>
        <time>2023-12-12T12:33:07.000Z</time>
      </trkpt>
      <trkpt lat="45.45691" lon="5.68447">
        <ele>591.284903</ele>
        <time>2023-12-12T12:33:08.000Z</time>
      </trkpt>
      <trkpt lat="45.45692" lon="5.68444">
        <ele>590.849498</ele>
        <time>2023-12-12T12:33:14.000Z</time>
      </trkpt>
      <trkpt lat="45.45693" lon="5.68441">
        <ele>590.472925</ele>
        <time>2023-12-12T12:33:15.000Z</time>
      </trkpt>
      <trkpt lat="45.45693" lon="5.68438">
        <ele>590.029502</ele>
        <time>2023-12-12T12:33:16.000Z</time>
      </trkpt>
      <trkpt lat="45.45693" lon="5.6843">
        <ele>589.038941</ele>
        <time>2023-12-12T12:33:18.000Z</time>
      </trkpt>
      <trkpt lat="45.45693" lon="5.6842">
        <ele>587.73934</ele>
        <time>2023-12-12T12:33:20.000Z</time>
      </trkpt>
      <trkpt lat="45.45693" lon="5.6841">
        <ele>586.465848</ele>
        <time>2023-12-12T12:33:22.000Z</time>
      </trkpt>
      <trkpt lat="45.45693" lon="5.68395">
        <ele>584.572881</ele>
        <time>2023-12-12T12:33:25.000Z</time>
      </trkpt>
      <trkpt lat="45.45693" lon="5.68389">
        <ele>583.696522</ele>
        <time>2023-12-12T12:33:27.000Z</time>
      </trkpt>
      <trkpt lat="45.45693" lon="5.68387">
        <ele>583.529313</ele>
        <time>2023-12-12T12:33:28.000Z</time>
      </trkpt>
      <trkpt lat="45.45693" lon="5.68387">
        <ele>583.477864</ele>
        <time>2023-12-12T12:33:32.000Z</time>
      </trkpt>
      <trkpt lat="45.45694" lon="5.68382">
        <ele>582.754681</ele>
        <time>2023-12-12T12:33:38.000Z</time>
      </trkpt>
      <trkpt lat="45.45695" lon="5.6838">
        <ele>582.382042</ele>
        <time>2023-12-12T12:33:39.000Z</time>
      </trkpt>
      <trkpt lat="45.45704" lon="5.6837">
        <ele>580.389533</ele>
        <time>2023-12-12T12:33:42.000Z</time>
      </trkpt>
      <trkpt lat="45.45709" lon="5.68365">
        <ele>579.433048</ele>
        <time>2023-12-12T12:33:43.000Z</time>
      </trkpt>
      <trkpt lat="45.45714" lon="5.6836">
        <ele>578.314674</ele>
        <time>2023-12-12T12:33:44.000Z</time>
      </trkpt>
      <trkpt lat="45.45721" lon="5.68356">
        <ele>577.059626</ele>
        <time>2023-12-12T12:33:45.000Z</time>
      </trkpt>
      <trkpt lat="45.45728" lon="5.68352">
        <ele>575.74627</ele>
        <time>2023-12-12T12:33:46.000Z</time>
      </trkpt>
      <trkpt lat="45.45735" lon="5.68348">
        <ele>574.440349</ele>
        <time>2023-12-12T12:33:47.000Z</time>
      </trkpt>
      <trkpt lat="45.45743" lon="5.68347">
        <ele>573.141892</ele>
        <time>2023-12-12T12:33:48.000Z</time>
      </trkpt>
      <trkpt lat="45.4575" lon="5.68347">
        <ele>571.85552</ele>
        <time>2023-12-12T12:33:49.000Z</time>
      </trkpt>
      <trkpt lat="45.45757" lon="5.68348">
        <ele>570.601117</ele>
        <time>2023-12-12T12:33:50.000Z</time>
      </trkpt>
      <trkpt lat="45.45764" lon="5.68347">
        <ele>569.464391</ele>
        <time>2023-12-12T12:33:51.000Z</time>
      </trkpt>
      <trkpt lat="45.45771" lon="5.68343">
        <ele>568.23584</ele>
        <time>2023-12-12T12:33:52.000Z</time>
      </trkpt>
      <trkpt lat="45.45777" lon="5.68335">
        <ele>566.830595</ele>
        <time>2023-12-12T12:33:53.000Z</time>
      </trkpt>
      <trkpt lat="45.45784" lon="5.68327">
        <ele>565.256053</ele>
        <time>2023-12-12T12:33:54.000Z</time>
      </trkpt>
      <trkpt lat="45.45791" lon="5.68317">
        <ele>563.533581</ele>
        <time>2023-12-12T12:33:55.000Z</time>
      </trkpt>
      <trkpt lat="45.458" lon="5.68309">
        <ele>561.669736</ele>
        <time>2023-12-12T12:33:56.000Z</time>
      </trkpt>
      <trkpt lat="45.4581" lon="5.683">
        <ele>559.664988</ele>
        <time>2023-12-12T12:33:57.000Z</time>
      </trkpt>
      <trkpt lat="45.45821" lon="5.68292">
        <ele>557.563092</ele>
        <time>2023-12-12T12:33:58.000Z</time>
      </trkpt>
      <trkpt lat="45.45833" lon="5.68284">
        <ele>555.400317</ele>
        <time>2023-12-12T12:33:59.000Z</time>
      </trkpt>
      <trkpt lat="45.45844" lon="5.68277">
        <ele>553.335596</ele>
        <time>2023-12-12T12:34:00.000Z</time>
      </trkpt>
      <trkpt lat="45.45854" lon="5.6827">
        <ele>551.327436</ele>
        <time>2023-12-12T12:34:01.000Z</time>
      </trkpt>
      <trkpt lat="45.45873" lon="5.68256">
        <ele>548.149151</ele>
        <time>2023-12-12T12:34:03.000Z</time>
      </trkpt>
      <trkpt lat="45.45881" lon="5.68251">
        <ele>546.880638</ele>
        <time>2023-12-12T12:34:04.000Z</time>
      </trkpt>
      <trkpt lat="45.45897" lon="5.68246">
        <ele>544.580203</ele>
        <time>2023-12-12T12:34:06.000Z</time>
      </trkpt>
      <trkpt lat="45.45905" lon="5.68245">
        <ele>543.414794</ele>
        <time>2023-12-12T12:34:07.000Z</time>
      </trkpt>
      <trkpt lat="45.45913" lon="5.68244">
        <ele>542.270694</ele>
        <time>2023-12-12T12:34:08.000Z</time>
      </trkpt>
      <trkpt lat="45.4592" lon="5.68241">
        <ele>541.193472</ele>
        <time>2023-12-12T12:34:09.000Z</time>
      </trkpt>
      <trkpt lat="45.45927" lon="5.68236">
        <ele>540.151808</ele>
        <time>2023-12-12T12:34:10.000Z</time>
      </trkpt>
      <trkpt lat="45.45932" lon="5.68231">
        <ele>539.22784</ele>
        <time>2023-12-12T12:34:11.000Z</time>
      </trkpt>
      <trkpt lat="45.45937" lon="5.68226">
        <ele>538.379026</ele>
        <time>2023-12-12T12:34:12.000Z</time>
      </trkpt>
      <trkpt lat="45.45944" lon="5.68219">
        <ele>537.235948</ele>
        <time>2023-12-12T12:34:14.000Z</time>
      </trkpt>
      <trkpt lat="45.45945" lon="5.68218">
        <ele>536.952063</ele>
        <time>2023-12-12T12:34:15.000Z</time>
      </trkpt>
      <trkpt lat="45.45947" lon="5.68218">
        <ele>536.781914</ele>
        <time>2023-12-12T12:34:18.000Z</time>
      </trkpt>
      <trkpt lat="45.45947" lon="5.68218">
        <ele>536.752077</ele>
        <time>2023-12-12T12:34:22.000Z</time>
      </trkpt>
      <trkpt lat="45.45947" lon="5.68218">
        <ele>536.700119</ele>
        <time>2023-12-12T12:34:29.000Z</time>
      </trkpt>
      <trkpt lat="45.45947" lon="5.68218">
        <ele>536.648161</ele>
        <time>2023-12-12T12:34:36.000Z</time>
      </trkpt>
      <trkpt lat="45.45949" lon="5.68216">
        <ele>536.324702</ele>
        <time>2023-12-12T12:34:37.000Z</time>
      </trkpt>
      <trkpt lat="45.45952" lon="5.68214">
        <ele>535.957019</ele>
        <time>2023-12-12T12:34:38.000Z</time>
      </trkpt>
      <trkpt lat="45.45958" lon="5.68214">
        <ele>535.063678</ele>
        <time>2023-12-12T12:34:40.000Z</time>
      </trkpt>
      <trkpt lat="45.45967" lon="5.68217">
        <ele>533.768933</ele>
        <time>2023-12-12T12:34:42.000Z</time>
      </trkpt>
      <trkpt lat="45.45972" lon="5.68218">
        <ele>533.002775</ele>
        <time>2023-12-12T12:34:43.000Z</time>
      </trkpt>
      <trkpt lat="45.45985" lon="5.68222">
        <ele>531.204402</ele>
        <time>2023-12-12T12:34:45.000Z</time>
      </trkpt>
      <trkpt lat="45.45991" lon="5.68224">
        <ele>530.233799</ele>
        <time>2023-12-12T12:34:46.000Z</time>
      </trkpt>
      <trkpt lat="45.45998" lon="5.68225">
        <ele>529.202059</ele>
        <time>2023-12-12T12:34:47.000Z</time>
      </trkpt>
      <trkpt lat="45.46013" lon="5.68225">
        <ele>527.089272</ele>
        <time>2023-12-12T12:34:49.000Z</time>
      </trkpt>
      <trkpt lat="45.46021" lon="5.68222">
        <ele>526.009255</ele>
        <time>2023-12-12T12:34:50.000Z</time>
      </trkpt>
      <trkpt lat="45.46027" lon="5.68217">
        <ele>524.93233</ele>
        <time>2023-12-12T12:34:51.000Z</time>
      </trkpt>
      <trkpt lat="45.46033" lon="5.6821">
        <ele>524.214749</ele>
        <time>2023-12-12T12:34:52.000Z</time>
      </trkpt>
      <trkpt lat="45.46039" lon="5.68203">
        <ele>523.743761</ele>
        <time>2023-12-12T12:34:53.000Z</time>
      </trkpt>
      <trkpt lat="45.46051" lon="5.68178">
        <ele>522.414536</ele>
        <time>2023-12-12T12:34:56.000Z</time>
      </trkpt>
      <trkpt lat="45.46054" lon="5.68169">
        <ele>521.968328</ele>
        <time>2023-12-12T12:34:57.000Z</time>
      </trkpt>
      <trkpt lat="45.46055" lon="5.68159">
        <ele>521.534553</ele>
        <time>2023-12-12T12:34:58.000Z</time>
      </trkpt>
      <trkpt lat="45.46055" lon="5.6815">
        <ele>521.109439</ele>
        <time>2023-12-12T12:34:59.000Z</time>
      </trkpt>
      <trkpt lat="45.46053" lon="5.68141">
        <ele>520.706337</ele>
        <time>2023-12-12T12:35:00.000Z</time>
      </trkpt>
      <trkpt lat="45.46049" lon="5.68133">
        <ele>520.296303</ele>
        <time>2023-12-12T12:35:01.000Z</time>
      </trkpt>
      <trkpt lat="45.46045" lon="5.68125">
        <ele>519.861284</ele>
        <time>2023-12-12T12:35:02.000Z</time>
      </trkpt>
      <trkpt lat="45.46041" lon="5.68118">
        <ele>519.444102</ele>
        <time>2023-12-12T12:35:03.000Z</time>
      </trkpt>
      <trkpt lat="45.46009" lon="5.68062">
        <ele>516.253664</ele>
        <time>2023-12-12T12:35:11.000Z</time>
      </trkpt>
      <trkpt lat="45.46006" lon="5.68054">
        <ele>515.847937</ele>
        <time>2023-12-12T12:35:12.000Z</time>
      </trkpt>
      <trkpt lat="45.45988" lon="5.68016">
        <ele>513.808</ele>
        <time>2023-12-12T12:35:17.000Z</time>
      </trkpt>
      <trkpt lat="45.45985" lon="5.68008">
        <ele>513.408242</ele>
        <time>2023-12-12T12:35:18.000Z</time>
      </trkpt>
      <trkpt lat="45.45975" lon="5.67983">
        <ele>512.570908</ele>
        <time>2023-12-12T12:35:21.000Z</time>
      </trkpt>
      <trkpt lat="45.45965" lon="5.67956">
        <ele>511.755911</ele>
        <time>2023-12-12T12:35:24.000Z</time>
      </trkpt>
      <trkpt lat="45.45956" lon="5.67939">
        <ele>511.193837</ele>
        <time>2023-12-12T12:35:26.000Z</time>
      </trkpt>
      <trkpt lat="45.45951" lon="5.67931">
        <ele>510.910848</ele>
        <time>2023-12-12T12:35:27.000Z</time>
      </trkpt>
      <trkpt lat="45.45945" lon="5.67924">
        <ele>510.620648</ele>
        <time>2023-12-12T12:35:28.000Z</time>
      </trkpt>
      <trkpt lat="45.45938" lon="5.67918">
        <ele>510.322339</ele>
        <time>2023-12-12T12:35:29.000Z</time>
      </trkpt>
      <trkpt lat="45.45931" lon="5.67914">
        <ele>510.026966</ele>
        <time>2023-12-12T12:35:30.000Z</time>
      </trkpt>
      <trkpt lat="45.45923" lon="5.67912">
        <ele>509.722324</ele>
        <time>2023-12-12T12:35:31.000Z</time>
      </trkpt>
      <trkpt lat="45.45915" lon="5.6791">
        <ele>509.404239</ele>
        <time>2023-12-12T12:35:32.000Z</time>
      </trkpt>
      <trkpt lat="45.45899" lon="5.67903">
        <ele>508.796533</ele>
        <time>2023-12-12T12:35:34.000Z</time>
      </trkpt>
      <trkpt lat="45.45893" lon="5.67897">
        <ele>508.51421</ele>
        <time>2023-12-12T12:35:35.000Z</time>
      </trkpt>
      <trkpt lat="45.4589" lon="5.6789">
        <ele>508.276279</ele>
        <time>2023-12-12T12:35:36.000Z</time>
      </trkpt>
      <trkpt lat="45.45891" lon="5.67873">
        <ele>507.844222</ele>
        <time>2023-12-12T12:35:38.000Z</time>
      </trkpt>
      <trkpt lat="45.45898" lon="5.67862">
        <ele>507.429575</ele>
        <time>2023-12-12T12:35:40.000Z</time>
      </trkpt>
      <trkpt lat="45.45906" lon="5.67859">
        <ele>507.123279</ele>
        <time>2023-12-12T12:35:41.000Z</time>
      </trkpt>
      <trkpt lat="45.45913" lon="5.67856">
        <ele>506.863282</ele>
        <time>2023-12-12T12:35:42.000Z</time>
      </trkpt>
      <trkpt lat="45.45926" lon="5.6785">
        <ele>506.45099</ele>
        <time>2023-12-12T12:35:44.000Z</time>
      </trkpt>
      <trkpt lat="45.45938" lon="5.67844">
        <ele>506.753827</ele>
        <time>2023-12-12T12:35:46.000Z</time>
      </trkpt>
      <trkpt lat="45.45948" lon="5.67834">
        <ele>507.039039</ele>
        <time>2023-12-12T12:35:48.000Z</time>
      </trkpt>
      <trkpt lat="45.45963" lon="5.67816">
        <ele>507.485806</ele>
        <time>2023-12-12T12:35:51.000Z</time>
      </trkpt>
      <trkpt lat="45.45967" lon="5.6781">
        <ele>507.628588</ele>
        <time>2023-12-12T12:35:52.000Z</time>
      </trkpt>
      <trkpt lat="45.45972" lon="5.67795">
        <ele>507.896446</ele>
        <time>2023-12-12T12:35:54.000Z</time>
      </trkpt>
      <trkpt lat="45.45973" lon="5.67787">
        <ele>508.026796</ele>
        <time>2023-12-12T12:35:55.000Z</time>
      </trkpt>
      <trkpt lat="45.45975" lon="5.67771">
        <ele>508.292582</ele>
        <time>2023-12-12T12:35:57.000Z</time>
      </trkpt>
      <trkpt lat="45.45976" lon="5.67764">
        <ele>508.419094</ele>
        <time>2023-12-12T12:35:58.000Z</time>
      </trkpt>
      <trkpt lat="45.45976" lon="5.67749">
        <ele>508.665905</ele>
        <time>2023-12-12T12:36:00.000Z</time>
      </trkpt>
      <trkpt lat="45.45977" lon="5.67726">
        <ele>509.048234</ele>
        <time>2023-12-12T12:36:04.000Z</time>
      </trkpt>
      <trkpt lat="45.45978" lon="5.6772">
        <ele>509.144543</ele>
        <time>2023-12-12T12:36:05.000Z</time>
      </trkpt>
      <trkpt lat="45.45988" lon="5.67684">
        <ele>509.776267</ele>
        <time>2023-12-12T12:36:11.000Z</time>
      </trkpt>
      <trkpt lat="45.46001" lon="5.67657">
        <ele>510.306339</ele>
        <time>2023-12-12T12:36:16.000Z</time>
      </trkpt>
      <trkpt lat="45.46009" lon="5.67634">
        <ele>510.447176</ele>
        <time>2023-12-12T12:36:20.000Z</time>
      </trkpt>
      <trkpt lat="45.46023" lon="5.67596">
        <ele>509.356895</ele>
        <time>2023-12-12T12:36:26.000Z</time>
      </trkpt>
      <trkpt lat="45.46036" lon="5.67551">
        <ele>508.159706</ele>
        <time>2023-12-12T12:36:33.000Z</time>
      </trkpt>
      <trkpt lat="45.46038" lon="5.67546">
        <ele>508.004164</ele>
        <time>2023-12-12T12:36:34.000Z</time>
      </trkpt>
      <trkpt lat="45.46042" lon="5.67543">
        <ele>507.839993</ele>
        <time>2023-12-12T12:36:35.000Z</time>
      </trkpt>
      <trkpt lat="45.46052" lon="5.67539">
        <ele>507.48877</ele>
        <time>2023-12-12T12:36:37.000Z</time>
      </trkpt>
      <trkpt lat="45.46063" lon="5.67538">
        <ele>507.084228</ele>
        <time>2023-12-12T12:36:39.000Z</time>
      </trkpt>
      <trkpt lat="45.46076" lon="5.67536">
        <ele>506.614873</ele>
        <time>2023-12-12T12:36:41.000Z</time>
      </trkpt>
      <trkpt lat="45.46083" lon="5.67535">
        <ele>506.364698</ele>
        <time>2023-12-12T12:36:42.000Z</time>
      </trkpt>
      <trkpt lat="45.46106" lon="5.67533">
        <ele>505.543311</ele>
        <time>2023-12-12T12:36:45.000Z</time>
      </trkpt>
      <trkpt lat="45.46114" lon="5.67531">
        <ele>505.259048</ele>
        <time>2023-12-12T12:36:46.000Z</time>
      </trkpt>
      <trkpt lat="45.46122" lon="5.67528">
        <ele>504.975954</ele>
        <time>2023-12-12T12:36:47.000Z</time>
      </trkpt>
      <trkpt lat="45.46129" lon="5.67524">
        <ele>504.6898</ele>
        <time>2023-12-12T12:36:48.000Z</time>
      </trkpt>
      <trkpt lat="45.46145" lon="5.67513">
        <ele>504.140036</ele>
        <time>2023-12-12T12:36:50.000Z</time>
      </trkpt>
      <trkpt lat="45.4616" lon="5.675">
        <ele>503.809128</ele>
        <time>2023-12-12T12:36:52.000Z</time>
      </trkpt>
      <trkpt lat="45.46181" lon="5.67481">
        <ele>503.345705</ele>
        <time>2023-12-12T12:36:55.000Z</time>
      </trkpt>
      <trkpt lat="45.46194" lon="5.6747">
        <ele>503.066649</ele>
        <time>2023-12-12T12:36:57.000Z</time>
      </trkpt>
      <trkpt lat="45.462" lon="5.67464">
        <ele>502.936804</ele>
        <time>2023-12-12T12:36:58.000Z</time>
      </trkpt>
      <trkpt lat="45.46209" lon="5.67451">
        <ele>502.708633</ele>
        <time>2023-12-12T12:37:00.000Z</time>
      </trkpt>
      <trkpt lat="45.46217" lon="5.67428">
        <ele>502.375215</ele>
        <time>2023-12-12T12:37:04.000Z</time>
      </trkpt>
      <trkpt lat="45.46223" lon="5.67424">
        <ele>502.263682</ele>
        <time>2023-12-12T12:37:06.000Z</time>
      </trkpt>
      <trkpt lat="45.46226" lon="5.67424">
        <ele>502.204807</ele>
        <time>2023-12-12T12:37:07.000Z</time>
      </trkpt>
      <trkpt lat="45.46238" lon="5.67426">
        <ele>501.978904</ele>
        <time>2023-12-12T12:37:12.000Z</time>
      </trkpt>
      <trkpt lat="45.46238" lon="5.67432">
        <ele>501.900403</ele>
        <time>2023-12-12T12:37:17.000Z</time>
      </trkpt>
      <trkpt lat="45.46229" lon="5.6744">
        <ele>501.692787</ele>
        <time>2023-12-12T12:37:21.000Z</time>
      </trkpt>
      <trkpt lat="45.46215" lon="5.67457">
        <ele>501.362105</ele>
        <time>2023-12-12T12:37:26.000Z</time>
      </trkpt>
      <trkpt lat="45.46212" lon="5.67459">
        <ele>501.298624</ele>
        <time>2023-12-12T12:37:27.000Z</time>
      </trkpt>
      <trkpt lat="45.46203" lon="5.67465">
        <ele>501.119414</ele>
        <time>2023-12-12T12:37:32.000Z</time>
      </trkpt>
      <trkpt lat="45.46203" lon="5.67462">
        <ele>501.089791</ele>
        <time>2023-12-12T12:37:36.000Z</time>
      </trkpt>
      <trkpt lat="45.46204" lon="5.6746">
        <ele>501.050642</ele>
        <time>2023-12-12T12:37:41.000Z</time>
      </trkpt>
      <trkpt lat="45.46209" lon="5.67451">
        <ele>500.826178</ele>
        <time>2023-12-12T12:37:45.000Z</time>
      </trkpt>
      <trkpt lat="45.46216" lon="5.67427">
        <ele>499.037758</ele>
        <time>2023-12-12T12:37:52.000Z</time>
      </trkpt>
      <trkpt lat="45.46216" lon="5.67426">
        <ele>498.961294</ele>
        <time>2023-12-12T12:37:56.000Z</time>
      </trkpt>
      <trkpt lat="45.46216" lon="5.67426">
        <ele>498.951062</ele>
        <time>2023-12-12T12:38:03.000Z</time>
      </trkpt>
      <trkpt lat="45.46216" lon="5.67426">
        <ele>498.951062</ele>
        <time>2023-12-12T12:38:14.000Z</time>
      </trkpt>
      <trkpt lat="45.46216" lon="5.67426">
        <ele>498.951062</ele>
        <time>2023-12-12T12:38:17.000Z</time>
      </trkpt>
      <trkpt lat="45.46223" lon="5.67427">
        <ele>498.2748</ele>
        <time>2023-12-12T12:38:41.000Z</time>
      </trkpt>
      <trkpt lat="45.46226" lon="5.67427">
        <ele>497.946669</ele>
        <time>2023-12-12T12:38:42.000Z</time>
      </trkpt>
      <trkpt lat="45.46234" lon="5.67427">
        <ele>497.148447</ele>
        <time>2023-12-12T12:38:46.000Z</time>
      </trkpt>
      <trkpt lat="45.46235" lon="5.67427">
        <ele>497.066277</ele>
        <time>2023-12-12T12:38:47.000Z</time>
      </trkpt>
      <trkpt lat="45.46235" lon="5.67427">
        <ele>496.993229</ele>
        <time>2023-12-12T12:39:03.000Z</time>
      </trkpt>
      <trkpt lat="45.4624" lon="5.67429">
        <ele>496.480437</ele>
        <time>2023-12-12T12:39:08.000Z</time>
      </trkpt>
      <trkpt lat="45.46251" lon="5.67432">
        <ele>495.36179</ele>
        <time>2023-12-12T12:39:13.000Z</time>
      </trkpt>
      <trkpt lat="45.46254" lon="5.67432">
        <ele>495.02383</ele>
        <time>2023-12-12T12:39:14.000Z</time>
      </trkpt>
      <trkpt lat="45.46267" lon="5.67436">
        <ele>493.650053</ele>
        <time>2023-12-12T12:39:17.000Z</time>
      </trkpt>
      <trkpt lat="45.46273" lon="5.67437">
        <ele>493.070627</ele>
        <time>2023-12-12T12:39:18.000Z</time>
      </trkpt>
      <trkpt lat="45.46279" lon="5.67438">
        <ele>492.463496</ele>
        <time>2023-12-12T12:39:19.000Z</time>
      </trkpt>
      <trkpt lat="45.46285" lon="5.67438">
        <ele>491.828951</ele>
        <time>2023-12-12T12:39:20.000Z</time>
      </trkpt>
      <trkpt lat="45.46292" lon="5.67437">
        <ele>491.141571</ele>
        <time>2023-12-12T12:39:21.000Z</time>
      </trkpt>
      <trkpt lat="45.46306" lon="5.67433">
        <ele>489.629041</ele>
        <time>2023-12-12T12:39:23.000Z</time>
      </trkpt>
      <trkpt lat="45.46314" lon="5.6743">
        <ele>488.822159</ele>
        <time>2023-12-12T12:39:24.000Z</time>
      </trkpt>
      <trkpt lat="45.46322" lon="5.67427">
        <ele>487.973909</ele>
        <time>2023-12-12T12:39:25.000Z</time>
      </trkpt>
      <trkpt lat="45.4633" lon="5.67424">
        <ele>487.117613</ele>
        <time>2023-12-12T12:39:26.000Z</time>
      </trkpt>
      <trkpt lat="45.46345" lon="5.67419">
        <ele>485.544569</ele>
        <time>2023-12-12T12:39:28.000Z</time>
      </trkpt>
      <trkpt lat="45.46366" lon="5.67413">
        <ele>483.371259</ele>
        <time>2023-12-12T12:39:31.000Z</time>
      </trkpt>
      <trkpt lat="45.46373" lon="5.67412">
        <ele>482.574008</ele>
        <time>2023-12-12T12:39:32.000Z</time>
      </trkpt>
      <trkpt lat="45.46382" lon="5.67409">
        <ele>481.5288</ele>
        <time>2023-12-12T12:39:33.000Z</time>
      </trkpt>
      <trkpt lat="45.4639" lon="5.67406">
        <ele>480.455074</ele>
        <time>2023-12-12T12:39:34.000Z</time>
      </trkpt>
      <trkpt lat="45.46405" lon="5.67398">
        <ele>478.477432</ele>
        <time>2023-12-12T12:39:36.000Z</time>
      </trkpt>
      <trkpt lat="45.46417" lon="5.67388">
        <ele>476.731615</ele>
        <time>2023-12-12T12:39:39.000Z</time>
      </trkpt>
      <trkpt lat="45.46421" lon="5.67385">
        <ele>476.119658</ele>
        <time>2023-12-12T12:39:42.000Z</time>
      </trkpt>
      <trkpt lat="45.46424" lon="5.67382">
        <ele>475.619291</ele>
        <time>2023-12-12T12:39:45.000Z</time>
      </trkpt>
      <trkpt lat="45.46426" lon="5.6738">
        <ele>475.419582</ele>
        <time>2023-12-12T12:39:46.000Z</time>
      </trkpt>
      <trkpt lat="45.46431" lon="5.67377">
        <ele>474.657895</ele>
        <time>2023-12-12T12:39:49.000Z</time>
      </trkpt>
      <trkpt lat="45.46433" lon="5.67377">
        <ele>474.431956</ele>
        <time>2023-12-12T12:39:50.000Z</time>
      </trkpt>
      <trkpt lat="45.46442" lon="5.67375">
        <ele>473.31943</ele>
        <time>2023-12-12T12:39:55.000Z</time>
      </trkpt>
      <trkpt lat="45.46445" lon="5.67374">
        <ele>472.863479</ele>
        <time>2023-12-12T12:39:57.000Z</time>
      </trkpt>
      <trkpt lat="45.46454" lon="5.6737">
        <ele>471.787154</ele>
        <time>2023-12-12T12:40:00.000Z</time>
      </trkpt>
      <trkpt lat="45.46462" lon="5.67368">
        <ele>470.784565</ele>
        <time>2023-12-12T12:40:02.000Z</time>
      </trkpt>
      <trkpt lat="45.46466" lon="5.67368">
        <ele>470.196135</ele>
        <time>2023-12-12T12:40:03.000Z</time>
      </trkpt>
      <trkpt lat="45.46477" lon="5.67368">
        <ele>468.831633</ele>
        <time>2023-12-12T12:40:05.000Z</time>
      </trkpt>
      <trkpt lat="45.46483" lon="5.67368">
        <ele>468.079499</ele>
        <time>2023-12-12T12:40:06.000Z</time>
      </trkpt>
      <trkpt lat="45.4649" lon="5.6737">
        <ele>467.270502</ele>
        <time>2023-12-12T12:40:07.000Z</time>
      </trkpt>
      <trkpt lat="45.46496" lon="5.67372">
        <ele>466.391702</ele>
        <time>2023-12-12T12:40:08.000Z</time>
      </trkpt>
      <trkpt lat="45.46503" lon="5.67375">
        <ele>465.469833</ele>
        <time>2023-12-12T12:40:09.000Z</time>
      </trkpt>
      <trkpt lat="45.46511" lon="5.67378">
        <ele>464.482978</ele>
        <time>2023-12-12T12:40:10.000Z</time>
      </trkpt>
      <trkpt lat="45.46519" lon="5.67381">
        <ele>463.514957</ele>
        <time>2023-12-12T12:40:11.000Z</time>
      </trkpt>
      <trkpt lat="45.46534" lon="5.67386">
        <ele>461.512081</ele>
        <time>2023-12-12T12:40:13.000Z</time>
      </trkpt>
      <trkpt lat="45.46542" lon="5.67388">
        <ele>460.497463</ele>
        <time>2023-12-12T12:40:14.000Z</time>
      </trkpt>
      <trkpt lat="45.46558" lon="5.67395">
        <ele>457.966915</ele>
        <time>2023-12-12T12:40:16.000Z</time>
      </trkpt>
      <trkpt lat="45.46565" lon="5.67397">
        <ele>456.80797</ele>
        <time>2023-12-12T12:40:17.000Z</time>
      </trkpt>
      <trkpt lat="45.46571" lon="5.67398">
        <ele>455.768431</ele>
        <time>2023-12-12T12:40:18.000Z</time>
      </trkpt>
      <trkpt lat="45.46577" lon="5.67398">
        <ele>454.754142</ele>
        <time>2023-12-12T12:40:19.000Z</time>
      </trkpt>
      <trkpt lat="45.46584" lon="5.67397">
        <ele>453.701135</ele>
        <time>2023-12-12T12:40:20.000Z</time>
      </trkpt>
      <trkpt lat="45.46591" lon="5.67396">
        <ele>452.539775</ele>
        <time>2023-12-12T12:40:21.000Z</time>
      </trkpt>
      <trkpt lat="45.46598" lon="5.67394">
        <ele>451.287858</ele>
        <time>2023-12-12T12:40:22.000Z</time>
      </trkpt>
      <trkpt lat="45.46606" lon="5.67394">
        <ele>450.060727</ele>
        <time>2023-12-12T12:40:23.000Z</time>
      </trkpt>
      <trkpt lat="45.4662" lon="5.67394">
        <ele>447.705309</ele>
        <time>2023-12-12T12:40:25.000Z</time>
      </trkpt>
      <trkpt lat="45.46631" lon="5.67395">
        <ele>445.888963</ele>
        <time>2023-12-12T12:40:27.000Z</time>
      </trkpt>
      <trkpt lat="45.46641" lon="5.67395">
        <ele>444.284665</ele>
        <time>2023-12-12T12:40:30.000Z</time>
      </trkpt>
      <trkpt lat="45.46644" lon="5.67396">
        <ele>443.855577</ele>
        <time>2023-12-12T12:40:31.000Z</time>
      </trkpt>
      <trkpt lat="45.46647" lon="5.67396">
        <ele>443.362776</ele>
        <time>2023-12-12T12:40:32.000Z</time>
      </trkpt>
      <trkpt lat="45.46654" lon="5.67396">
        <ele>442.152428</ele>
        <time>2023-12-12T12:40:34.000Z</time>
      </trkpt>
      <trkpt lat="45.46658" lon="5.67397">
        <ele>441.432429</ele>
        <time>2023-12-12T12:40:35.000Z</time>
      </trkpt>
      <trkpt lat="45.46663" lon="5.67396">
        <ele>440.679997</ele>
        <time>2023-12-12T12:40:36.000Z</time>
      </trkpt>
      <trkpt lat="45.46668" lon="5.67396">
        <ele>439.942578</ele>
        <time>2023-12-12T12:40:37.000Z</time>
      </trkpt>
      <trkpt lat="45.46671" lon="5.67395">
        <ele>439.281923</ele>
        <time>2023-12-12T12:40:38.000Z</time>
      </trkpt>
      <trkpt lat="45.46675" lon="5.67393">
        <ele>438.737725</ele>
        <time>2023-12-12T12:40:39.000Z</time>
      </trkpt>
      <trkpt lat="45.46677" lon="5.67392">
        <ele>438.328782</ele>
        <time>2023-12-12T12:40:40.000Z</time>
      </trkpt>
      <trkpt lat="45.46679" lon="5.67391">
        <ele>438.03599</ele>
        <time>2023-12-12T12:40:43.000Z</time>
      </trkpt>
      <trkpt lat="45.46679" lon="5.67391">
        <ele>438.019635</ele>
        <time>2023-12-12T12:40:45.000Z</time>
      </trkpt>
      <trkpt lat="45.46685" lon="5.67388">
        <ele>436.886662</ele>
        <time>2023-12-12T12:40:56.000Z</time>
      </trkpt>
      <trkpt lat="45.46691" lon="5.67387">
        <ele>436.011483</ele>
        <time>2023-12-12T12:40:58.000Z</time>
      </trkpt>
      <trkpt lat="45.46697" lon="5.67385">
        <ele>435.020557</ele>
        <time>2023-12-12T12:41:00.000Z</time>
      </trkpt>
      <trkpt lat="45.46702" lon="5.67386">
        <ele>434.185727</ele>
        <time>2023-12-12T12:41:02.000Z</time>
      </trkpt>
      <trkpt lat="45.4671" lon="5.67386">
        <ele>432.843365</ele>
        <time>2023-12-12T12:41:04.000Z</time>
      </trkpt>
      <trkpt lat="45.4672" lon="5.67386">
        <ele>431.207833</ele>
        <time>2023-12-12T12:41:06.000Z</time>
      </trkpt>
      <trkpt lat="45.46726" lon="5.67386">
        <ele>430.230902</ele>
        <time>2023-12-12T12:41:07.000Z</time>
      </trkpt>
      <trkpt lat="45.46731" lon="5.67386">
        <ele>429.216612</ele>
        <time>2023-12-12T12:41:08.000Z</time>
      </trkpt>
      <trkpt lat="45.46737" lon="5.67386">
        <ele>428.256866</ele>
        <time>2023-12-12T12:41:09.000Z</time>
      </trkpt>
      <trkpt lat="45.46742" lon="5.67386">
        <ele>427.278633</ele>
        <time>2023-12-12T12:41:10.000Z</time>
      </trkpt>
      <trkpt lat="45.46753" lon="5.67386">
        <ele>425.32165</ele>
        <time>2023-12-12T12:41:12.000Z</time>
      </trkpt>
      <trkpt lat="45.46759" lon="5.67388">
        <ele>424.369751</ele>
        <time>2023-12-12T12:41:13.000Z</time>
      </trkpt>
      <trkpt lat="45.46769" lon="5.6739">
        <ele>422.512794</ele>
        <time>2023-12-12T12:41:15.000Z</time>
      </trkpt>
      <trkpt lat="45.46781" lon="5.67393">
        <ele>420.351659</ele>
        <time>2023-12-12T12:41:17.000Z</time>
      </trkpt>
      <trkpt lat="45.46787" lon="5.67394">
        <ele>419.239624</ele>
        <time>2023-12-12T12:41:18.000Z</time>
      </trkpt>
      <trkpt lat="45.46799" lon="5.67396">
        <ele>417.143766</ele>
        <time>2023-12-12T12:41:20.000Z</time>
      </trkpt>
      <trkpt lat="45.46804" lon="5.67396">
        <ele>416.306111</ele>
        <time>2023-12-12T12:41:21.000Z</time>
      </trkpt>
      <trkpt lat="45.46807" lon="5.67394">
        <ele>415.652867</ele>
        <time>2023-12-12T12:41:22.000Z</time>
      </trkpt>
      <trkpt lat="45.4681" lon="5.67392">
        <ele>415.127814</ele>
        <time>2023-12-12T12:41:23.000Z</time>
      </trkpt>
      <trkpt lat="45.46813" lon="5.6739">
        <ele>414.533839</ele>
        <time>2023-12-12T12:41:24.000Z</time>
      </trkpt>
      <trkpt lat="45.4682" lon="5.67388">
        <ele>413.150357</ele>
        <time>2023-12-12T12:41:26.000Z</time>
      </trkpt>
      <trkpt lat="45.46831" lon="5.67392">
        <ele>411.235731</ele>
        <time>2023-12-12T12:41:28.000Z</time>
      </trkpt>
      <trkpt lat="45.46835" lon="5.67399">
        <ele>410.04911</ele>
        <time>2023-12-12T12:41:29.000Z</time>
      </trkpt>
      <trkpt lat="45.46839" lon="5.67408">
        <ele>408.730451</ele>
        <time>2023-12-12T12:41:30.000Z</time>
      </trkpt>
      <trkpt lat="45.46843" lon="5.67418">
        <ele>407.275868</ele>
        <time>2023-12-12T12:41:31.000Z</time>
      </trkpt>
      <trkpt lat="45.46848" lon="5.67429">
        <ele>405.681003</ele>
        <time>2023-12-12T12:41:32.000Z</time>
      </trkpt>
      <trkpt lat="45.46853" lon="5.6744">
        <ele>403.994493</ele>
        <time>2023-12-12T12:41:33.000Z</time>
      </trkpt>
      <trkpt lat="45.46858" lon="5.67452">
        <ele>402.254707</ele>
        <time>2023-12-12T12:41:34.000Z</time>
      </trkpt>
      <trkpt lat="45.46862" lon="5.67464">
        <ele>400.58895</ele>
        <time>2023-12-12T12:41:35.000Z</time>
      </trkpt>
      <trkpt lat="45.46871" lon="5.67483">
        <ele>398.197198</ele>
        <time>2023-12-12T12:41:37.000Z</time>
      </trkpt>
      <trkpt lat="45.46881" lon="5.67493">
        <ele>397.128131</ele>
        <time>2023-12-12T12:41:39.000Z</time>
      </trkpt>
      <trkpt lat="45.46886" lon="5.67495">
        <ele>396.666717</ele>
        <time>2023-12-12T12:41:40.000Z</time>
      </trkpt>
      <trkpt lat="45.46891" lon="5.67496">
        <ele>396.218141</ele>
        <time>2023-12-12T12:41:41.000Z</time>
      </trkpt>
      <trkpt lat="45.46896" lon="5.67494">
        <ele>395.762018</ele>
        <time>2023-12-12T12:41:43.000Z</time>
      </trkpt>
      <trkpt lat="45.46897" lon="5.67494">
        <ele>395.673979</ele>
        <time>2023-12-12T12:41:46.000Z</time>
      </trkpt>
      <trkpt lat="45.46897" lon="5.67494">
        <ele>395.665197</ele>
        <time>2023-12-12T12:41:49.000Z</time>
      </trkpt>
      <trkpt lat="45.46901" lon="5.67487">
        <ele>395.090808</ele>
        <time>2023-12-12T12:42:00.000Z</time>
      </trkpt>
      <trkpt lat="45.46904" lon="5.6748">
        <ele>394.608377</ele>
        <time>2023-12-12T12:42:02.000Z</time>
      </trkpt>
      <trkpt lat="45.46907" lon="5.6747">
        <ele>393.934157</ele>
        <time>2023-12-12T12:42:04.000Z</time>
      </trkpt>
      <trkpt lat="45.46911" lon="5.67458">
        <ele>393.130114</ele>
        <time>2023-12-12T12:42:06.000Z</time>
      </trkpt>
      <trkpt lat="45.46916" lon="5.67446">
        <ele>392.235735</ele>
        <time>2023-12-12T12:42:08.000Z</time>
      </trkpt>
      <trkpt lat="45.46919" lon="5.67441">
        <ele>391.836768</ele>
        <time>2023-12-12T12:42:09.000Z</time>
      </trkpt>
      <trkpt lat="45.46935" lon="5.67406">
        <ele>389.239677</ele>
        <time>2023-12-12T12:42:16.000Z</time>
      </trkpt>
      <trkpt lat="45.46938" lon="5.67399">
        <ele>388.775089</ele>
        <time>2023-12-12T12:42:17.000Z</time>
      </trkpt>
      <trkpt lat="45.46941" lon="5.67392">
        <ele>388.284103</ele>
        <time>2023-12-12T12:42:18.000Z</time>
      </trkpt>
      <trkpt lat="45.46947" lon="5.67377">
        <ele>387.169008</ele>
        <time>2023-12-12T12:42:20.000Z</time>
      </trkpt>
      <trkpt lat="45.46953" lon="5.67358">
        <ele>385.932162</ele>
        <time>2023-12-12T12:42:22.000Z</time>
      </trkpt>
      <trkpt lat="45.46955" lon="5.67348">
        <ele>385.278303</ele>
        <time>2023-12-12T12:42:23.000Z</time>
      </trkpt>
      <trkpt lat="45.46959" lon="5.67328">
        <ele>383.95589</ele>
        <time>2023-12-12T12:42:25.000Z</time>
      </trkpt>
      <trkpt lat="45.46962" lon="5.67307">
        <ele>382.816242</ele>
        <time>2023-12-12T12:42:27.000Z</time>
      </trkpt>
      <trkpt lat="45.46966" lon="5.67253">
        <ele>382.757873</ele>
        <time>2023-12-12T12:42:33.000Z</time>
      </trkpt>
      <trkpt lat="45.46962" lon="5.67195">
        <ele>382.694795</ele>
        <time>2023-12-12T12:42:40.000Z</time>
      </trkpt>
      <trkpt lat="45.46961" lon="5.67187">
        <ele>382.685942</ele>
        <time>2023-12-12T12:42:41.000Z</time>
      </trkpt>
      <trkpt lat="45.46959" lon="5.67138">
        <ele>382.633614</ele>
        <time>2023-12-12T12:42:47.000Z</time>
      </trkpt>
      <trkpt lat="45.46959" lon="5.671">
        <ele>382.592577</ele>
        <time>2023-12-12T12:42:52.000Z</time>
      </trkpt>
      <trkpt lat="45.4696" lon="5.67082">
        <ele>382.572515</ele>
        <time>2023-12-12T12:42:55.000Z</time>
      </trkpt>
      <trkpt lat="45.46962" lon="5.67057">
        <ele>382.546251</ele>
        <time>2023-12-12T12:42:59.000Z</time>
      </trkpt>
      <trkpt lat="45.46962" lon="5.67051">
        <ele>382.566148</ele>
        <time>2023-12-12T12:43:00.000Z</time>
      </trkpt>
      <trkpt lat="45.4696" lon="5.67026">
        <ele>382.767042</ele>
        <time>2023-12-12T12:43:04.000Z</time>
      </trkpt>
      <trkpt lat="45.46957" lon="5.67012">
        <ele>382.878833</ele>
        <time>2023-12-12T12:43:06.000Z</time>
      </trkpt>
      <trkpt lat="45.46955" lon="5.66982">
        <ele>383.118305</ele>
        <time>2023-12-12T12:43:10.000Z</time>
      </trkpt>
      <trkpt lat="45.46957" lon="5.66924">
        <ele>383.573945</ele>
        <time>2023-12-12T12:43:18.000Z</time>
      </trkpt>
      <trkpt lat="45.4696" lon="5.66883">
        <ele>383.901424</ele>
        <time>2023-12-12T12:43:24.000Z</time>
      </trkpt>
      <trkpt lat="45.4696" lon="5.66876">
        <ele>383.957704</ele>
        <time>2023-12-12T12:43:25.000Z</time>
      </trkpt>
      <trkpt lat="45.46961" lon="5.66869">
        <ele>384.013096</ele>
        <time>2023-12-12T12:43:26.000Z</time>
      </trkpt>
      <trkpt lat="45.4696" lon="5.66862">
        <ele>384.066776</ele>
        <time>2023-12-12T12:43:27.000Z</time>
      </trkpt>
      <trkpt lat="45.46957" lon="5.66842">
        <ele>384.230619</ele>
        <time>2023-12-12T12:43:30.000Z</time>
      </trkpt>
      <trkpt lat="45.46955" lon="5.66836">
        <ele>384.280643</ele>
        <time>2023-12-12T12:43:31.000Z</time>
      </trkpt>
      <trkpt lat="45.46953" lon="5.66831">
        <ele>384.328808</ele>
        <time>2023-12-12T12:43:32.000Z</time>
      </trkpt>
      <trkpt lat="45.46951" lon="5.66826">
        <ele>384.376644</ele>
        <time>2023-12-12T12:43:33.000Z</time>
      </trkpt>
      <trkpt lat="45.46947" lon="5.66822">
        <ele>384.425558</ele>
        <time>2023-12-12T12:43:34.000Z</time>
      </trkpt>
      <trkpt lat="45.46944" lon="5.66818">
        <ele>384.475514</ele>
        <time>2023-12-12T12:43:35.000Z</time>
      </trkpt>
      <trkpt lat="45.4694" lon="5.66815">
        <ele>384.526118</ele>
        <time>2023-12-12T12:43:36.000Z</time>
      </trkpt>
      <trkpt lat="45.46931" lon="5.6681">
        <ele>384.513853</ele>
        <time>2023-12-12T12:43:38.000Z</time>
      </trkpt>
      <trkpt lat="45.46925" lon="5.66808">
        <ele>384.471132</ele>
        <time>2023-12-12T12:43:39.000Z</time>
      </trkpt>
      <trkpt lat="45.4691" lon="5.66804">
        <ele>384.340953</ele>
        <time>2023-12-12T12:43:42.000Z</time>
      </trkpt>
      <trkpt lat="45.46881" lon="5.66803">
        <ele>384.111175</ele>
        <time>2023-12-12T12:43:47.000Z</time>
      </trkpt>
      <trkpt lat="45.46835" lon="5.66806">
        <ele>383.737969</ele>
        <time>2023-12-12T12:43:55.000Z</time>
      </trkpt>
      <trkpt lat="45.46829" lon="5.66807">
        <ele>383.692993</ele>
        <time>2023-12-12T12:43:56.000Z</time>
      </trkpt>
      <trkpt lat="45.46823" lon="5.66806">
        <ele>383.64881</ele>
        <time>2023-12-12T12:43:57.000Z</time>
      </trkpt>
      <trkpt lat="45.46818" lon="5.66806">
        <ele>383.607853</ele>
        <time>2023-12-12T12:43:58.000Z</time>
      </trkpt>
      <trkpt lat="45.46789" lon="5.66808">
        <ele>383.371508</ele>
        <time>2023-12-12T12:44:03.000Z</time>
      </trkpt>
      <trkpt lat="45.4677" lon="5.66808">
        <ele>383.218121</ele>
        <time>2023-12-12T12:44:06.000Z</time>
      </trkpt>
      <trkpt lat="45.46763" lon="5.66807">
        <ele>383.164021</ele>
        <time>2023-12-12T12:44:07.000Z</time>
      </trkpt>
      <trkpt lat="45.4675" lon="5.66801">
        <ele>383.157574</ele>
        <time>2023-12-12T12:44:09.000Z</time>
      </trkpt>
      <trkpt lat="45.46745" lon="5.66795">
        <ele>383.187915</ele>
        <time>2023-12-12T12:44:10.000Z</time>
      </trkpt>
      <trkpt lat="45.46741" lon="5.66788">
        <ele>383.215775</ele>
        <time>2023-12-12T12:44:11.000Z</time>
      </trkpt>
      <trkpt lat="45.46738" lon="5.66771">
        <ele>383.269765</ele>
        <time>2023-12-12T12:44:13.000Z</time>
      </trkpt>
      <trkpt lat="45.4674" lon="5.66735">
        <ele>383.381938</ele>
        <time>2023-12-12T12:44:17.000Z</time>
      </trkpt>
      <trkpt lat="45.46741" lon="5.66718">
        <ele>383.434721</ele>
        <time>2023-12-12T12:44:19.000Z</time>
      </trkpt>
      <trkpt lat="45.46743" lon="5.66704">
        <ele>383.47868</ele>
        <time>2023-12-12T12:44:21.000Z</time>
      </trkpt>
      <trkpt lat="45.46745" lon="5.6669">
        <ele>383.52223</ele>
        <time>2023-12-12T12:44:23.000Z</time>
      </trkpt>
      <trkpt lat="45.46749" lon="5.66659">
        <ele>383.621231</ele>
        <time>2023-12-12T12:44:28.000Z</time>
      </trkpt>
      <trkpt lat="45.46751" lon="5.66641">
        <ele>383.676807</ele>
        <time>2023-12-12T12:44:31.000Z</time>
      </trkpt>
      <trkpt lat="45.46752" lon="5.66635">
        <ele>383.696298</ele>
        <time>2023-12-12T12:44:32.000Z</time>
      </trkpt>
      <trkpt lat="45.4676" lon="5.66567">
        <ele>383.90858</ele>
        <time>2023-12-12T12:44:43.000Z</time>
      </trkpt>
      <trkpt lat="45.4676" lon="5.66554">
        <ele>383.744979</ele>
        <time>2023-12-12T12:44:45.000Z</time>
      </trkpt>
      <trkpt lat="45.46763" lon="5.66535">
        <ele>383.451155</ele>
        <time>2023-12-12T12:44:48.000Z</time>
      </trkpt>
      <trkpt lat="45.46765" lon="5.66517">
        <ele>383.166762</ele>
        <time>2023-12-12T12:44:51.000Z</time>
      </trkpt>
      <trkpt lat="45.46766" lon="5.66498">
        <ele>382.872954</ele>
        <time>2023-12-12T12:44:54.000Z</time>
      </trkpt>
      <trkpt lat="45.46764" lon="5.66461">
        <ele>382.308459</ele>
        <time>2023-12-12T12:45:00.000Z</time>
      </trkpt>
      <trkpt lat="45.46761" lon="5.66448">
        <ele>382.093971</ele>
        <time>2023-12-12T12:45:02.000Z</time>
      </trkpt>
      <trkpt lat="45.46753" lon="5.66429">
        <ele>381.745962</ele>
        <time>2023-12-12T12:45:05.000Z</time>
      </trkpt>
      <trkpt lat="45.46746" lon="5.66416">
        <ele>381.500156</ele>
        <time>2023-12-12T12:45:07.000Z</time>
      </trkpt>
      <trkpt lat="45.4672" lon="5.66384">
        <ele>380.750691</ele>
        <time>2023-12-12T12:45:13.000Z</time>
      </trkpt>
      <trkpt lat="45.46687" lon="5.66347">
        <ele>379.791846</ele>
        <time>2023-12-12T12:45:20.000Z</time>
      </trkpt>
      <trkpt lat="45.46682" lon="5.66341">
        <ele>379.620757</ele>
        <time>2023-12-12T12:45:21.000Z</time>
      </trkpt>
      <trkpt lat="45.46674" lon="5.66328">
        <ele>379.28544</ele>
        <time>2023-12-12T12:45:23.000Z</time>
      </trkpt>
      <trkpt lat="45.46656" lon="5.66294">
        <ele>378.476855</ele>
        <time>2023-12-12T12:45:28.000Z</time>
      </trkpt>
      <trkpt lat="45.46651" lon="5.66278">
        <ele>378.136505</ele>
        <time>2023-12-12T12:45:30.000Z</time>
      </trkpt>
      <trkpt lat="45.46649" lon="5.6627">
        <ele>377.973345</ele>
        <time>2023-12-12T12:45:31.000Z</time>
      </trkpt>
      <trkpt lat="45.46647" lon="5.66261">
        <ele>377.795793</ele>
        <time>2023-12-12T12:45:32.000Z</time>
      </trkpt>
      <trkpt lat="45.46645" lon="5.66252">
        <ele>377.617032</ele>
        <time>2023-12-12T12:45:33.000Z</time>
      </trkpt>
      <trkpt lat="45.46643" lon="5.66216">
        <ele>376.941363</ele>
        <time>2023-12-12T12:45:37.000Z</time>
      </trkpt>
      <trkpt lat="45.46644" lon="5.66208">
        <ele>376.779054</ele>
        <time>2023-12-12T12:45:38.000Z</time>
      </trkpt>
      <trkpt lat="45.46646" lon="5.66199">
        <ele>376.604216</ele>
        <time>2023-12-12T12:45:39.000Z</time>
      </trkpt>
      <trkpt lat="45.46652" lon="5.66183">
        <ele>376.255547</ele>
        <time>2023-12-12T12:45:41.000Z</time>
      </trkpt>
      <trkpt lat="45.46656" lon="5.66176">
        <ele>376.0839</ele>
        <time>2023-12-12T12:45:42.000Z</time>
      </trkpt>
      <trkpt lat="45.46677" lon="5.66144">
        <ele>375.250068</ele>
        <time>2023-12-12T12:45:47.000Z</time>
      </trkpt>
      <trkpt lat="45.46683" lon="5.66132">
        <ele>375.150224</ele>
        <time>2023-12-12T12:45:49.000Z</time>
      </trkpt>
      <trkpt lat="45.46703" lon="5.66091">
        <ele>375.719921</ele>
        <time>2023-12-12T12:45:56.000Z</time>
      </trkpt>
      <trkpt lat="45.46708" lon="5.66083">
        <ele>375.85253</ele>
        <time>2023-12-12T12:45:58.000Z</time>
      </trkpt>
      <trkpt lat="45.46721" lon="5.66071">
        <ele>376.097184</ele>
        <time>2023-12-12T12:46:02.000Z</time>
      </trkpt>
      <trkpt lat="45.46729" lon="5.66055">
        <ele>376.32676</ele>
        <time>2023-12-12T12:46:07.000Z</time>
      </trkpt>
      <trkpt lat="45.46725" lon="5.66031">
        <ele>376.615541</ele>
        <time>2023-12-12T12:46:11.000Z</time>
      </trkpt>
      <trkpt lat="45.46711" lon="5.65976">
        <ele>377.286867</ele>
        <time>2023-12-12T12:46:18.000Z</time>
      </trkpt>
      <trkpt lat="45.46702" lon="5.65917">
        <ele>377.982066</ele>
        <time>2023-12-12T12:46:25.000Z</time>
      </trkpt>
      <trkpt lat="45.46701" lon="5.65908">
        <ele>378.074172</ele>
        <time>2023-12-12T12:46:26.000Z</time>
      </trkpt>
      <trkpt lat="45.46697" lon="5.65865">
        <ele>378.484643</ele>
        <time>2023-12-12T12:46:31.000Z</time>
      </trkpt>
      <trkpt lat="45.46691" lon="5.658">
        <ele>379.112051</ele>
        <time>2023-12-12T12:46:39.000Z</time>
      </trkpt>
      <trkpt lat="45.4669" lon="5.65784">
        <ele>379.261308</ele>
        <time>2023-12-12T12:46:41.000Z</time>
      </trkpt>
      <trkpt lat="45.46689" lon="5.65769">
        <ele>379.40678</ele>
        <time>2023-12-12T12:46:43.000Z</time>
      </trkpt>
      <trkpt lat="45.46684" lon="5.65716">
        <ele>379.912295</ele>
        <time>2023-12-12T12:46:50.000Z</time>
      </trkpt>
      <trkpt lat="45.46677" lon="5.65646">
        <ele>380.601942</ele>
        <time>2023-12-12T12:46:59.000Z</time>
      </trkpt>
      <trkpt lat="45.46676" lon="5.65631">
        <ele>380.781443</ele>
        <time>2023-12-12T12:47:01.000Z</time>
      </trkpt>
      <trkpt lat="45.46669" lon="5.65564">
        <ele>381.577585</ele>
        <time>2023-12-12T12:47:10.000Z</time>
      </trkpt>
      <trkpt lat="45.46668" lon="5.65549">
        <ele>381.753126</ele>
        <time>2023-12-12T12:47:12.000Z</time>
      </trkpt>
      <trkpt lat="45.46665" lon="5.65526">
        <ele>382.027367</ele>
        <time>2023-12-12T12:47:15.000Z</time>
      </trkpt>
      <trkpt lat="45.46658" lon="5.6548">
        <ele>382.586377</ele>
        <time>2023-12-12T12:47:21.000Z</time>
      </trkpt>
      <trkpt lat="45.46656" lon="5.65472">
        <ele>382.68076</ele>
        <time>2023-12-12T12:47:22.000Z</time>
      </trkpt>
      <trkpt lat="45.4665" lon="5.6544">
        <ele>383.062028</ele>
        <time>2023-12-12T12:47:26.000Z</time>
      </trkpt>
      <trkpt lat="45.46643" lon="5.65409">
        <ele>383.454266</ele>
        <time>2023-12-12T12:47:30.000Z</time>
      </trkpt>
      <trkpt lat="45.46628" lon="5.65348">
        <ele>384.388235</ele>
        <time>2023-12-12T12:47:38.000Z</time>
      </trkpt>
      <trkpt lat="45.46621" lon="5.65319">
        <ele>384.827372</ele>
        <time>2023-12-12T12:47:42.000Z</time>
      </trkpt>
      <trkpt lat="45.4661" lon="5.65273">
        <ele>385.533385</ele>
        <time>2023-12-12T12:47:49.000Z</time>
      </trkpt>
      <trkpt lat="45.46605" lon="5.65254">
        <ele>385.832556</ele>
        <time>2023-12-12T12:47:52.000Z</time>
      </trkpt>
      <trkpt lat="45.46595" lon="5.65218">
        <ele>386.400317</ele>
        <time>2023-12-12T12:47:58.000Z</time>
      </trkpt>
      <trkpt lat="45.4658" lon="5.65175">
        <ele>387.092414</ele>
        <time>2023-12-12T12:48:05.000Z</time>
      </trkpt>
      <trkpt lat="45.46577" lon="5.65169">
        <ele>387.197214</ele>
        <time>2023-12-12T12:48:06.000Z</time>
      </trkpt>
      <trkpt lat="45.46574" lon="5.65163">
        <ele>387.422694</ele>
        <time>2023-12-12T12:48:07.000Z</time>
      </trkpt>
      <trkpt lat="45.46565" lon="5.65138">
        <ele>388.31588</ele>
        <time>2023-12-12T12:48:11.000Z</time>
      </trkpt>
      <trkpt lat="45.46563" lon="5.65132">
        <ele>388.531614</ele>
        <time>2023-12-12T12:48:12.000Z</time>
      </trkpt>
      <trkpt lat="45.46553" lon="5.65109">
        <ele>389.407749</ele>
        <time>2023-12-12T12:48:16.000Z</time>
      </trkpt>
      <trkpt lat="45.46544" lon="5.65088">
        <ele>390.203731</ele>
        <time>2023-12-12T12:48:20.000Z</time>
      </trkpt>
      <trkpt lat="45.46537" lon="5.65073">
        <ele>390.784747</ele>
        <time>2023-12-12T12:48:23.000Z</time>
      </trkpt>
      <trkpt lat="45.46532" lon="5.65063">
        <ele>391.158977</ele>
        <time>2023-12-12T12:48:25.000Z</time>
      </trkpt>
      <trkpt lat="45.46519" lon="5.65032">
        <ele>392.317362</ele>
        <time>2023-12-12T12:48:31.000Z</time>
      </trkpt>
      <trkpt lat="45.46506" lon="5.65005">
        <ele>393.35171</ele>
        <time>2023-12-12T12:48:36.000Z</time>
      </trkpt>
      <trkpt lat="45.46496" lon="5.64983">
        <ele>394.215455</ele>
        <time>2023-12-12T12:48:40.000Z</time>
      </trkpt>
      <trkpt lat="45.46485" lon="5.6496">
        <ele>395.092131</ele>
        <time>2023-12-12T12:48:44.000Z</time>
      </trkpt>
      <trkpt lat="45.46476" lon="5.64942">
        <ele>395.774621</ele>
        <time>2023-12-12T12:48:47.000Z</time>
      </trkpt>
      <trkpt lat="45.46474" lon="5.64937">
        <ele>395.99793</ele>
        <time>2023-12-12T12:48:48.000Z</time>
      </trkpt>
      <trkpt lat="45.46462" lon="5.64913">
        <ele>396.893315</ele>
        <time>2023-12-12T12:48:52.000Z</time>
      </trkpt>
      <trkpt lat="45.46451" lon="5.6489">
        <ele>397.788702</ele>
        <time>2023-12-12T12:48:56.000Z</time>
      </trkpt>
      <trkpt lat="45.46441" lon="5.64866">
        <ele>398.674879</ele>
        <time>2023-12-12T12:49:00.000Z</time>
      </trkpt>
      <trkpt lat="45.46435" lon="5.64855">
        <ele>399.110937</ele>
        <time>2023-12-12T12:49:02.000Z</time>
      </trkpt>
      <trkpt lat="45.46427" lon="5.64838">
        <ele>399.74938</ele>
        <time>2023-12-12T12:49:05.000Z</time>
      </trkpt>
      <trkpt lat="45.46417" lon="5.64816">
        <ele>400.61383</ele>
        <time>2023-12-12T12:49:09.000Z</time>
      </trkpt>
      <trkpt lat="45.46411" lon="5.64804">
        <ele>401.052673</ele>
        <time>2023-12-12T12:49:11.000Z</time>
      </trkpt>
      <trkpt lat="45.46403" lon="5.64786">
        <ele>401.74579</ele>
        <time>2023-12-12T12:49:14.000Z</time>
      </trkpt>
      <trkpt lat="45.46389" lon="5.64756">
        <ele>402.88552</ele>
        <time>2023-12-12T12:49:19.000Z</time>
      </trkpt>
      <trkpt lat="45.46386" lon="5.6475">
        <ele>403.124285</ele>
        <time>2023-12-12T12:49:20.000Z</time>
      </trkpt>
      <trkpt lat="45.46381" lon="5.64736">
        <ele>403.52856</ele>
        <time>2023-12-12T12:49:22.000Z</time>
      </trkpt>
      <trkpt lat="45.46356" lon="5.64679">
        <ele>403.601745</ele>
        <time>2023-12-12T12:49:31.000Z</time>
      </trkpt>
      <trkpt lat="45.46334" lon="5.64623">
        <ele>403.671888</ele>
        <time>2023-12-12T12:49:39.000Z</time>
      </trkpt>
      <trkpt lat="45.46323" lon="5.64595">
        <ele>403.706855</ele>
        <time>2023-12-12T12:49:43.000Z</time>
      </trkpt>
      <trkpt lat="45.463" lon="5.64545">
        <ele>403.771939</ele>
        <time>2023-12-12T12:49:51.000Z</time>
      </trkpt>
      <trkpt lat="45.46297" lon="5.64539">
        <ele>403.779711</ele>
        <time>2023-12-12T12:49:52.000Z</time>
      </trkpt>
      <trkpt lat="45.46291" lon="5.64529">
        <ele>403.794833</ele>
        <time>2023-12-12T12:49:54.000Z</time>
      </trkpt>
      <trkpt lat="45.46264" lon="5.64487">
        <ele>403.556102</ele>
        <time>2023-12-12T12:50:02.000Z</time>
      </trkpt>
      <trkpt lat="45.4625" lon="5.64465">
        <ele>403.39883</ele>
        <time>2023-12-12T12:50:06.000Z</time>
      </trkpt>
      <trkpt lat="45.46247" lon="5.64459">
        <ele>403.358015</ele>
        <time>2023-12-12T12:50:07.000Z</time>
      </trkpt>
      <trkpt lat="45.46229" lon="5.64431">
        <ele>403.155731</ele>
        <time>2023-12-12T12:50:12.000Z</time>
      </trkpt>
      <trkpt lat="45.46195" lon="5.64379">
        <ele>402.781026</ele>
        <time>2023-12-12T12:50:21.000Z</time>
      </trkpt>
      <trkpt lat="45.46191" lon="5.64373">
        <ele>402.737873</ele>
        <time>2023-12-12T12:50:22.000Z</time>
      </trkpt>
      <trkpt lat="45.46163" lon="5.64332">
        <ele>402.441144</ele>
        <time>2023-12-12T12:50:29.000Z</time>
      </trkpt>
      <trkpt lat="45.46131" lon="5.64287">
        <ele>402.350524</ele>
        <time>2023-12-12T12:50:37.000Z</time>
      </trkpt>
      <trkpt lat="45.4609" lon="5.64245">
        <ele>402.250131</ele>
        <time>2023-12-12T12:50:46.000Z</time>
      </trkpt>
      <trkpt lat="45.46048" lon="5.6421">
        <ele>402.151071</ele>
        <time>2023-12-12T12:50:55.000Z</time>
      </trkpt>
      <trkpt lat="45.46038" lon="5.64203">
        <ele>402.129215</ele>
        <time>2023-12-12T12:50:57.000Z</time>
      </trkpt>
      <trkpt lat="45.46004" lon="5.64185">
        <ele>402.204747</ele>
        <time>2023-12-12T12:51:04.000Z</time>
      </trkpt>
      <trkpt lat="45.45963" lon="5.64157">
        <ele>402.616728</ele>
        <time>2023-12-12T12:51:12.000Z</time>
      </trkpt>
      <trkpt lat="45.45942" lon="5.64141">
        <ele>402.826653</ele>
        <time>2023-12-12T12:51:16.000Z</time>
      </trkpt>
      <trkpt lat="45.45911" lon="5.6412">
        <ele>403.140641</ele>
        <time>2023-12-12T12:51:22.000Z</time>
      </trkpt>
      <trkpt lat="45.45879" lon="5.64099">
        <ele>403.455472</ele>
        <time>2023-12-12T12:51:28.000Z</time>
      </trkpt>
      <trkpt lat="45.45864" lon="5.6409">
        <ele>403.606489</ele>
        <time>2023-12-12T12:51:31.000Z</time>
      </trkpt>
      <trkpt lat="45.45824" lon="5.64065">
        <ele>405.375881</ele>
        <time>2023-12-12T12:51:39.000Z</time>
      </trkpt>
      <trkpt lat="45.45814" lon="5.64059">
        <ele>405.955085</ele>
        <time>2023-12-12T12:51:41.000Z</time>
      </trkpt>
      <trkpt lat="45.45785" lon="5.64039">
        <ele>407.650112</ele>
        <time>2023-12-12T12:51:47.000Z</time>
      </trkpt>
      <trkpt lat="45.45767" lon="5.64027">
        <ele>408.702959</ele>
        <time>2023-12-12T12:51:51.000Z</time>
      </trkpt>
      <trkpt lat="45.45751" lon="5.64015">
        <ele>409.627549</ele>
        <time>2023-12-12T12:51:55.000Z</time>
      </trkpt>
      <trkpt lat="45.45744" lon="5.6401">
        <ele>410.076008</ele>
        <time>2023-12-12T12:51:57.000Z</time>
      </trkpt>
      <trkpt lat="45.45736" lon="5.64004">
        <ele>410.524095</ele>
        <time>2023-12-12T12:51:59.000Z</time>
      </trkpt>
      <trkpt lat="45.45729" lon="5.63998">
        <ele>410.947189</ele>
        <time>2023-12-12T12:52:01.000Z</time>
      </trkpt>
      <trkpt lat="45.45722" lon="5.63996">
        <ele>411.323256</ele>
        <time>2023-12-12T12:52:03.000Z</time>
      </trkpt>
      <trkpt lat="45.45719" lon="5.63994">
        <ele>411.497678</ele>
        <time>2023-12-12T12:52:04.000Z</time>
      </trkpt>
      <trkpt lat="45.45716" lon="5.63992">
        <ele>411.671638</ele>
        <time>2023-12-12T12:52:05.000Z</time>
      </trkpt>
      <trkpt lat="45.45713" lon="5.63989">
        <ele>411.840589</ele>
        <time>2023-12-12T12:52:06.000Z</time>
      </trkpt>
      <trkpt lat="45.45709" lon="5.63983">
        <ele>412.163807</ele>
        <time>2023-12-12T12:52:08.000Z</time>
      </trkpt>
      <trkpt lat="45.45703" lon="5.63972">
        <ele>412.666672</ele>
        <time>2023-12-12T12:52:11.000Z</time>
      </trkpt>
      <trkpt lat="45.45696" lon="5.63955">
        <ele>413.48773</ele>
        <time>2023-12-12T12:52:15.000Z</time>
      </trkpt>
      <trkpt lat="45.45693" lon="5.63946">
        <ele>413.989182</ele>
        <time>2023-12-12T12:52:17.000Z</time>
      </trkpt>
      <trkpt lat="45.45692" lon="5.63941">
        <ele>414.235243</ele>
        <time>2023-12-12T12:52:18.000Z</time>
      </trkpt>
      <trkpt lat="45.45685" lon="5.63913">
        <ele>415.781158</ele>
        <time>2023-12-12T12:52:24.000Z</time>
      </trkpt>
      <trkpt lat="45.45683" lon="5.63908">
        <ele>416.047211</ele>
        <time>2023-12-12T12:52:25.000Z</time>
      </trkpt>
      <trkpt lat="45.45679" lon="5.63893">
        <ele>416.845164</ele>
        <time>2023-12-12T12:52:28.000Z</time>
      </trkpt>
      <trkpt lat="45.45673" lon="5.63862">
        <ele>418.509451</ele>
        <time>2023-12-12T12:52:34.000Z</time>
      </trkpt>
      <trkpt lat="45.45672" lon="5.63857">
        <ele>418.774763</ele>
        <time>2023-12-12T12:52:35.000Z</time>
      </trkpt>
      <trkpt lat="45.45669" lon="5.63842">
        <ele>419.544384</ele>
        <time>2023-12-12T12:52:38.000Z</time>
      </trkpt>
      <trkpt lat="45.45666" lon="5.63819">
        <ele>420.726608</ele>
        <time>2023-12-12T12:52:43.000Z</time>
      </trkpt>
      <trkpt lat="45.45664" lon="5.63806">
        <ele>421.389032</ele>
        <time>2023-12-12T12:52:46.000Z</time>
      </trkpt>
      <trkpt lat="45.4566" lon="5.63788">
        <ele>422.335897</ele>
        <time>2023-12-12T12:52:50.000Z</time>
      </trkpt>
      <trkpt lat="45.4566" lon="5.63779">
        <ele>422.789334</ele>
        <time>2023-12-12T12:52:52.000Z</time>
      </trkpt>
      <trkpt lat="45.45659" lon="5.63766">
        <ele>423.475928</ele>
        <time>2023-12-12T12:52:55.000Z</time>
      </trkpt>
      <trkpt lat="45.45656" lon="5.63739">
        <ele>424.875005</ele>
        <time>2023-12-12T12:53:01.000Z</time>
      </trkpt>
      <trkpt lat="45.45657" lon="5.63709">
        <ele>426.406378</ele>
        <time>2023-12-12T12:53:08.000Z</time>
      </trkpt>
      <trkpt lat="45.45659" lon="5.63696">
        <ele>427.091518</ele>
        <time>2023-12-12T12:53:12.000Z</time>
      </trkpt>
      <trkpt lat="45.45659" lon="5.63693">
        <ele>427.242499</ele>
        <time>2023-12-12T12:53:13.000Z</time>
      </trkpt>
      <trkpt lat="45.45658" lon="5.63684">
        <ele>427.739966</ele>
        <time>2023-12-12T12:53:16.000Z</time>
      </trkpt>
      <trkpt lat="45.45657" lon="5.63672">
        <ele>428.403722</ele>
        <time>2023-12-12T12:53:20.000Z</time>
      </trkpt>
      <trkpt lat="45.45658" lon="5.63669">
        <ele>428.566496</ele>
        <time>2023-12-12T12:53:21.000Z</time>
      </trkpt>
      <trkpt lat="45.45662" lon="5.63663">
        <ele>429.042053</ele>
        <time>2023-12-12T12:53:24.000Z</time>
      </trkpt>
      <trkpt lat="45.45664" lon="5.63663">
        <ele>429.180488</ele>
        <time>2023-12-12T12:53:25.000Z</time>
      </trkpt>
      <trkpt lat="45.45666" lon="5.63664">
        <ele>429.336304</ele>
        <time>2023-12-12T12:53:26.000Z</time>
      </trkpt>
      <trkpt lat="45.45667" lon="5.63666">
        <ele>429.492374</ele>
        <time>2023-12-12T12:53:27.000Z</time>
      </trkpt>
      <trkpt lat="45.45669" lon="5.63675">
        <ele>429.98533</ele>
        <time>2023-12-12T12:53:30.000Z</time>
      </trkpt>
      <trkpt lat="45.4567" lon="5.63678">
        <ele>430.157418</ele>
        <time>2023-12-12T12:53:31.000Z</time>
      </trkpt>
      <trkpt lat="45.45671" lon="5.6369">
        <ele>430.791401</ele>
        <time>2023-12-12T12:53:35.000Z</time>
      </trkpt>
      <trkpt lat="45.45673" lon="5.63695">
        <ele>431.106627</ele>
        <time>2023-12-12T12:53:38.000Z</time>
      </trkpt>
      <trkpt lat="45.45673" lon="5.63695">
        <ele>431.122618</ele>
        <time>2023-12-12T12:53:41.000Z</time>
      </trkpt>
      <trkpt lat="45.45673" lon="5.63695">
        <ele>431.144679</ele>
        <time>2023-12-12T12:53:42.000Z</time>
      </trkpt>
      <trkpt lat="45.45673" lon="5.63695">
        <ele>431.168091</ele>
        <time>2023-12-12T12:53:48.000Z</time>
      </trkpt>
      <trkpt lat="45.45673" lon="5.63695">
        <ele>431.189412</ele>
        <time>2023-12-12T12:53:53.000Z</time>
      </trkpt>
      <trkpt lat="45.45674" lon="5.63695">
        <ele>431.205518</ele>
        <time>2023-12-12T12:53:54.000Z</time>
      </trkpt>
      <trkpt lat="45.45673" lon="5.63695">
        <ele>431.2148</ele>
        <time>2023-12-12T12:54:13.000Z</time>
      </trkpt>
      <trkpt lat="45.45673" lon="5.63695">
        <ele>431.220131</ele>
        <time>2023-12-12T12:54:18.000Z</time>
      </trkpt>
      <trkpt lat="45.45673" lon="5.63697">
        <ele>431.279255</ele>
        <time>2023-12-12T12:54:32.000Z</time>
      </trkpt>
      <trkpt lat="45.45672" lon="5.63697">
        <ele>431.396315</ele>
        <time>2023-12-12T12:54:50.000Z</time>
      </trkpt>
      <trkpt lat="45.45671" lon="5.63697">
        <ele>431.434683</ele>
        <time>2023-12-12T12:54:55.000Z</time>
      </trkpt>
      <trkpt lat="45.45675" lon="5.63706">
        <ele>431.975861</ele>
        <time>2023-12-12T12:55:19.000Z</time>
      </trkpt>
      <trkpt lat="45.45683" lon="5.63722">
        <ele>433.036964</ele>
        <time>2023-12-12T12:55:24.000Z</time>
      </trkpt>
      <trkpt lat="45.45685" lon="5.63729">
        <ele>433.450924</ele>
        <time>2023-12-12T12:55:26.000Z</time>
      </trkpt>
      <trkpt lat="45.45688" lon="5.63735">
        <ele>433.798841</ele>
        <time>2023-12-12T12:55:28.000Z</time>
      </trkpt>
      <trkpt lat="45.45691" lon="5.63747">
        <ele>434.479853</ele>
        <time>2023-12-12T12:55:32.000Z</time>
      </trkpt>
      <trkpt lat="45.45693" lon="5.63758">
        <ele>435.091685</ele>
        <time>2023-12-12T12:55:36.000Z</time>
      </trkpt>
      <trkpt lat="45.45699" lon="5.63769">
        <ele>435.829605</ele>
        <time>2023-12-12T12:55:41.000Z</time>
      </trkpt>
      <trkpt lat="45.457" lon="5.63772">
        <ele>436.000122</ele>
        <time>2023-12-12T12:55:42.000Z</time>
      </trkpt>
      <trkpt lat="45.45704" lon="5.63778">
        <ele>436.418014</ele>
        <time>2023-12-12T12:55:45.000Z</time>
      </trkpt>
      <trkpt lat="45.4571" lon="5.63781">
        <ele>436.922811</ele>
        <time>2023-12-12T12:55:48.000Z</time>
      </trkpt>
      <trkpt lat="45.45715" lon="5.63786">
        <ele>437.394328</ele>
        <time>2023-12-12T12:55:50.000Z</time>
      </trkpt>
      <trkpt lat="45.45729" lon="5.63797">
        <ele>438.580132</ele>
        <time>2023-12-12T12:55:55.000Z</time>
      </trkpt>
      <trkpt lat="45.45745" lon="5.63815">
        <ele>439.991711</ele>
        <time>2023-12-12T12:56:01.000Z</time>
      </trkpt>
      <trkpt lat="45.45756" lon="5.63837">
        <ele>440.828782</ele>
        <time>2023-12-12T12:56:06.000Z</time>
      </trkpt>
      <trkpt lat="45.45758" lon="5.63841">
        <ele>440.988034</ele>
        <time>2023-12-12T12:56:07.000Z</time>
      </trkpt>
      <trkpt lat="45.45767" lon="5.6386">
        <ele>441.710025</ele>
        <time>2023-12-12T12:56:11.000Z</time>
      </trkpt>
      <trkpt lat="45.45771" lon="5.63863">
        <ele>441.888913</ele>
        <time>2023-12-12T12:56:12.000Z</time>
      </trkpt>
      <trkpt lat="45.45774" lon="5.63864">
        <ele>442.021901</ele>
        <time>2023-12-12T12:56:13.000Z</time>
      </trkpt>
      <trkpt lat="45.45786" lon="5.63864">
        <ele>442.561964</ele>
        <time>2023-12-12T12:56:17.000Z</time>
      </trkpt>
      <trkpt lat="45.45804" lon="5.63852">
        <ele>443.471908</ele>
        <time>2023-12-12T12:56:22.000Z</time>
      </trkpt>
      <trkpt lat="45.45833" lon="5.63824">
        <ele>445.040935</ele>
        <time>2023-12-12T12:56:29.000Z</time>
      </trkpt>
      <trkpt lat="45.45842" lon="5.63811">
        <ele>445.621818</ele>
        <time>2023-12-12T12:56:32.000Z</time>
      </trkpt>
      <trkpt lat="45.45849" lon="5.63794">
        <ele>446.228743</ele>
        <time>2023-12-12T12:56:35.000Z</time>
      </trkpt>
      <trkpt lat="45.45853" lon="5.63783">
        <ele>446.591332</ele>
        <time>2023-12-12T12:56:37.000Z</time>
      </trkpt>
      <trkpt lat="45.45854" lon="5.63779">
        <ele>446.751129</ele>
        <time>2023-12-12T12:56:38.000Z</time>
      </trkpt>
      <trkpt lat="45.45857" lon="5.63772">
        <ele>447.007598</ele>
        <time>2023-12-12T12:56:40.000Z</time>
      </trkpt>
      <trkpt lat="45.45859" lon="5.63768">
        <ele>447.141794</ele>
        <time>2023-12-12T12:56:41.000Z</time>
      </trkpt>
      <trkpt lat="45.45862" lon="5.63761">
        <ele>447.405489</ele>
        <time>2023-12-12T12:56:43.000Z</time>
      </trkpt>
      <trkpt lat="45.45864" lon="5.63757">
        <ele>447.566797</ele>
        <time>2023-12-12T12:56:44.000Z</time>
      </trkpt>
      <trkpt lat="45.45866" lon="5.63754">
        <ele>447.679452</ele>
        <time>2023-12-12T12:56:45.000Z</time>
      </trkpt>
      <trkpt lat="45.4587" lon="5.63743">
        <ele>448.724789</ele>
        <time>2023-12-12T12:56:48.000Z</time>
      </trkpt>
      <trkpt lat="45.45871" lon="5.63739">
        <ele>449.105637</ele>
        <time>2023-12-12T12:56:49.000Z</time>
      </trkpt>
      <trkpt lat="45.45872" lon="5.63734">
        <ele>449.694939</ele>
        <time>2023-12-12T12:56:51.000Z</time>
      </trkpt>
      <trkpt lat="45.45874" lon="5.63729">
        <ele>450.310198</ele>
        <time>2023-12-12T12:56:53.000Z</time>
      </trkpt>
      <trkpt lat="45.45875" lon="5.63726">
        <ele>450.652008</ele>
        <time>2023-12-12T12:56:54.000Z</time>
      </trkpt>
      <trkpt lat="45.45876" lon="5.63716">
        <ele>451.633132</ele>
        <time>2023-12-12T12:56:57.000Z</time>
      </trkpt>
      <trkpt lat="45.45878" lon="5.63707">
        <ele>452.665413</ele>
        <time>2023-12-12T12:57:00.000Z</time>
      </trkpt>
      <trkpt lat="45.45878" lon="5.63703">
        <ele>453.037605</ele>
        <time>2023-12-12T12:57:01.000Z</time>
      </trkpt>
      <trkpt lat="45.45878" lon="5.637">
        <ele>453.394771</ele>
        <time>2023-12-12T12:57:02.000Z</time>
      </trkpt>
      <trkpt lat="45.45878" lon="5.63689">
        <ele>454.517807</ele>
        <time>2023-12-12T12:57:05.000Z</time>
      </trkpt>
      <trkpt lat="45.45878" lon="5.63683">
        <ele>455.158741</ele>
        <time>2023-12-12T12:57:07.000Z</time>
      </trkpt>
      <trkpt lat="45.4588" lon="5.6367">
        <ele>456.54954</ele>
        <time>2023-12-12T12:57:11.000Z</time>
      </trkpt>
      <trkpt lat="45.4588" lon="5.63656">
        <ele>457.998019</ele>
        <time>2023-12-12T12:57:15.000Z</time>
      </trkpt>
      <trkpt lat="45.45879" lon="5.63647">
        <ele>459.029317</ele>
        <time>2023-12-12T12:57:18.000Z</time>
      </trkpt>
      <trkpt lat="45.45878" lon="5.63636">
        <ele>460.120677</ele>
        <time>2023-12-12T12:57:21.000Z</time>
      </trkpt>
      <trkpt lat="45.45878" lon="5.63626">
        <ele>461.153163</ele>
        <time>2023-12-12T12:57:24.000Z</time>
      </trkpt>
      <trkpt lat="45.45879" lon="5.63617">
        <ele>462.193203</ele>
        <time>2023-12-12T12:57:27.000Z</time>
      </trkpt>
      <trkpt lat="45.45879" lon="5.63606">
        <ele>463.288437</ele>
        <time>2023-12-12T12:57:30.000Z</time>
      </trkpt>
      <trkpt lat="45.45879" lon="5.63599">
        <ele>463.995616</ele>
        <time>2023-12-12T12:57:32.000Z</time>
      </trkpt>
      <trkpt lat="45.45879" lon="5.63589">
        <ele>465.118751</ele>
        <time>2023-12-12T12:57:35.000Z</time>
      </trkpt>
      <trkpt lat="45.45879" lon="5.63585">
        <ele>465.508242</ele>
        <time>2023-12-12T12:57:36.000Z</time>
      </trkpt>
      <trkpt lat="45.45878" lon="5.63577">
        <ele>466.349094</ele>
        <time>2023-12-12T12:57:38.000Z</time>
      </trkpt>
      <trkpt lat="45.45879" lon="5.63567">
        <ele>467.415893</ele>
        <time>2023-12-12T12:57:41.000Z</time>
      </trkpt>
      <trkpt lat="45.45881" lon="5.63558">
        <ele>468.397097</ele>
        <time>2023-12-12T12:57:44.000Z</time>
      </trkpt>
      <trkpt lat="45.45882" lon="5.63551">
        <ele>469.218998</ele>
        <time>2023-12-12T12:57:47.000Z</time>
      </trkpt>
      <trkpt lat="45.45882" lon="5.63549">
        <ele>469.418976</ele>
        <time>2023-12-12T12:57:48.000Z</time>
      </trkpt>
      <trkpt lat="45.45883" lon="5.63547">
        <ele>469.600211</ele>
        <time>2023-12-12T12:57:49.000Z</time>
      </trkpt>
      <trkpt lat="45.45891" lon="5.63542">
        <ele>470.961059</ele>
        <time>2023-12-12T12:57:54.000Z</time>
      </trkpt>
      <trkpt lat="45.45894" lon="5.63539">
        <ele>471.534138</ele>
        <time>2023-12-12T12:57:56.000Z</time>
      </trkpt>
      <trkpt lat="45.45904" lon="5.63532">
        <ele>473.192385</ele>
        <time>2023-12-12T12:58:01.000Z</time>
      </trkpt>
      <trkpt lat="45.45907" lon="5.63527">
        <ele>473.855732</ele>
        <time>2023-12-12T12:58:03.000Z</time>
      </trkpt>
      <trkpt lat="45.45908" lon="5.6352">
        <ele>474.535569</ele>
        <time>2023-12-12T12:58:05.000Z</time>
      </trkpt>
      <trkpt lat="45.45908" lon="5.63511">
        <ele>474.891497</ele>
        <time>2023-12-12T12:58:08.000Z</time>
      </trkpt>
      <trkpt lat="45.45906" lon="5.63505">
        <ele>475.038639</ele>
        <time>2023-12-12T12:58:10.000Z</time>
      </trkpt>
      <trkpt lat="45.45906" lon="5.63501">
        <ele>475.113196</ele>
        <time>2023-12-12T12:58:11.000Z</time>
      </trkpt>
      <trkpt lat="45.45903" lon="5.63488">
        <ele>475.414453</ele>
        <time>2023-12-12T12:58:15.000Z</time>
      </trkpt>
      <trkpt lat="45.45897" lon="5.63469">
        <ele>475.88056</ele>
        <time>2023-12-12T12:58:21.000Z</time>
      </trkpt>
      <trkpt lat="45.45886" lon="5.63445">
        <ele>476.500268</ele>
        <time>2023-12-12T12:58:28.000Z</time>
      </trkpt>
      <trkpt lat="45.4587" lon="5.63417">
        <ele>477.300439</ele>
        <time>2023-12-12T12:58:35.000Z</time>
      </trkpt>
      <trkpt lat="45.45866" lon="5.63389">
        <ele>477.940137</ele>
        <time>2023-12-12T12:58:40.000Z</time>
      </trkpt>
      <trkpt lat="45.45872" lon="5.63366">
        <ele>478.485138</ele>
        <time>2023-12-12T12:58:44.000Z</time>
      </trkpt>
      <trkpt lat="45.45873" lon="5.6336">
        <ele>478.613196</ele>
        <time>2023-12-12T12:58:45.000Z</time>
      </trkpt>
      <trkpt lat="45.45883" lon="5.63327">
        <ele>479.40215</ele>
        <time>2023-12-12T12:58:51.000Z</time>
      </trkpt>
      <trkpt lat="45.45885" lon="5.6331">
        <ele>479.787267</ele>
        <time>2023-12-12T12:58:54.000Z</time>
      </trkpt>
      <trkpt lat="45.45884" lon="5.63299">
        <ele>480.040676</ele>
        <time>2023-12-12T12:58:56.000Z</time>
      </trkpt>
      <trkpt lat="45.4588" lon="5.6329">
        <ele>480.27582</ele>
        <time>2023-12-12T12:58:58.000Z</time>
      </trkpt>
      <trkpt lat="45.45874" lon="5.63284">
        <ele>480.4596</ele>
        <time>2023-12-12T12:59:00.000Z</time>
      </trkpt>
      <trkpt lat="45.45866" lon="5.63281">
        <ele>480.599645</ele>
        <time>2023-12-12T12:59:02.000Z</time>
      </trkpt>
      <trkpt lat="45.45851" lon="5.63275">
        <ele>480.87971</ele>
        <time>2023-12-12T12:59:06.000Z</time>
      </trkpt>
      <trkpt lat="45.45825" lon="5.63264">
        <ele>481.378575</ele>
        <time>2023-12-12T12:59:13.000Z</time>
      </trkpt>
      <trkpt lat="45.45821" lon="5.63263">
        <ele>481.444535</ele>
        <time>2023-12-12T12:59:14.000Z</time>
      </trkpt>
      <trkpt lat="45.45816" lon="5.63253">
        <ele>481.60175</ele>
        <time>2023-12-12T12:59:17.000Z</time>
      </trkpt>
      <trkpt lat="45.45817" lon="5.63249">
        <ele>481.657901</ele>
        <time>2023-12-12T12:59:18.000Z</time>
      </trkpt>
      <trkpt lat="45.45827" lon="5.63242">
        <ele>481.859647</ele>
        <time>2023-12-12T12:59:21.000Z</time>
      </trkpt>
      <trkpt lat="45.45851" lon="5.63235">
        <ele>482.294609</ele>
        <time>2023-12-12T12:59:26.000Z</time>
      </trkpt>
      <trkpt lat="45.45886" lon="5.63222">
        <ele>482.955192</ele>
        <time>2023-12-12T12:59:33.000Z</time>
      </trkpt>
      <trkpt lat="45.45897" lon="5.63218">
        <ele>483.149673</ele>
        <time>2023-12-12T12:59:35.000Z</time>
      </trkpt>
      <trkpt lat="45.45943" lon="5.63202">
        <ele>484.1647</ele>
        <time>2023-12-12T12:59:44.000Z</time>
      </trkpt>
      <trkpt lat="45.45949" lon="5.63201">
        <ele>484.308469</ele>
        <time>2023-12-12T12:59:45.000Z</time>
      </trkpt>
      <trkpt lat="45.45995" lon="5.63184">
        <ele>485.537586</ele>
        <time>2023-12-12T12:59:53.000Z</time>
      </trkpt>
      <trkpt lat="45.46001" lon="5.63182">
        <ele>485.688815</ele>
        <time>2023-12-12T12:59:54.000Z</time>
      </trkpt>
      <trkpt lat="45.46013" lon="5.63178">
        <ele>485.994144</ele>
        <time>2023-12-12T12:59:56.000Z</time>
      </trkpt>
      <trkpt lat="45.46041" lon="5.63169">
        <ele>486.735279</ele>
        <time>2023-12-12T13:00:01.000Z</time>
      </trkpt>
      <trkpt lat="45.46047" lon="5.63166">
        <ele>486.883754</ele>
        <time>2023-12-12T13:00:02.000Z</time>
      </trkpt>
      <trkpt lat="45.46075" lon="5.63156">
        <ele>487.638642</ele>
        <time>2023-12-12T13:00:07.000Z</time>
      </trkpt>
      <trkpt lat="45.46087" lon="5.63152">
        <ele>487.937327</ele>
        <time>2023-12-12T13:00:09.000Z</time>
      </trkpt>
      <trkpt lat="45.46104" lon="5.63148">
        <ele>488.374118</ele>
        <time>2023-12-12T13:00:12.000Z</time>
      </trkpt>
      <trkpt lat="45.46132" lon="5.63142">
        <ele>489.074134</ele>
        <time>2023-12-12T13:00:17.000Z</time>
      </trkpt>
      <trkpt lat="45.46155" lon="5.6314">
        <ele>489.657741</ele>
        <time>2023-12-12T13:00:21.000Z</time>
      </trkpt>
      <trkpt lat="45.46172" lon="5.63141">
        <ele>490.086144</ele>
        <time>2023-12-12T13:00:24.000Z</time>
      </trkpt>
      <trkpt lat="45.46189" lon="5.63145">
        <ele>490.497758</ele>
        <time>2023-12-12T13:00:27.000Z</time>
      </trkpt>
      <trkpt lat="45.46235" lon="5.63164">
        <ele>491.686247</ele>
        <time>2023-12-12T13:00:36.000Z</time>
      </trkpt>
      <trkpt lat="45.46261" lon="5.63177">
        <ele>492.372509</ele>
        <time>2023-12-12T13:00:42.000Z</time>
      </trkpt>
      <trkpt lat="45.46294" lon="5.6319">
        <ele>492.856628</ele>
        <time>2023-12-12T13:00:49.000Z</time>
      </trkpt>
      <trkpt lat="45.46309" lon="5.63191">
        <ele>492.969083</ele>
        <time>2023-12-12T13:00:52.000Z</time>
      </trkpt>
      <trkpt lat="45.46323" lon="5.63187">
        <ele>493.083882</ele>
        <time>2023-12-12T13:00:55.000Z</time>
      </trkpt>
      <trkpt lat="45.46333" lon="5.63181">
        <ele>493.162229</ele>
        <time>2023-12-12T13:00:57.000Z</time>
      </trkpt>
      <trkpt lat="45.46341" lon="5.63171">
        <ele>493.24231</ele>
        <time>2023-12-12T13:00:59.000Z</time>
      </trkpt>
      <trkpt lat="45.46353" lon="5.63155">
        <ele>493.366611</ele>
        <time>2023-12-12T13:01:02.000Z</time>
      </trkpt>
      <trkpt lat="45.46384" lon="5.63109">
        <ele>493.708376</ele>
        <time>2023-12-12T13:01:10.000Z</time>
      </trkpt>
      <trkpt lat="45.46388" lon="5.63103">
        <ele>493.752363</ele>
        <time>2023-12-12T13:01:11.000Z</time>
      </trkpt>
      <trkpt lat="45.46422" lon="5.6306">
        <ele>494.109808</ele>
        <time>2023-12-12T13:01:19.000Z</time>
      </trkpt>
      <trkpt lat="45.46427" lon="5.63056">
        <ele>494.165894</ele>
        <time>2023-12-12T13:01:20.000Z</time>
      </trkpt>
      <trkpt lat="45.46437" lon="5.63049">
        <ele>494.277768</ele>
        <time>2023-12-12T13:01:22.000Z</time>
      </trkpt>
      <trkpt lat="45.46448" lon="5.63045">
        <ele>494.391303</ele>
        <time>2023-12-12T13:01:24.000Z</time>
      </trkpt>
      <trkpt lat="45.46465" lon="5.63042">
        <ele>494.567594</ele>
        <time>2023-12-12T13:01:27.000Z</time>
      </trkpt>
      <trkpt lat="45.46499" lon="5.63048">
        <ele>494.920508</ele>
        <time>2023-12-12T13:01:33.000Z</time>
      </trkpt>
      <trkpt lat="45.46544" lon="5.63065">
        <ele>495.390831</ele>
        <time>2023-12-12T13:01:41.000Z</time>
      </trkpt>
      <trkpt lat="45.46561" lon="5.63072">
        <ele>495.56574</ele>
        <time>2023-12-12T13:01:44.000Z</time>
      </trkpt>
      <trkpt lat="45.46566" lon="5.63074">
        <ele>495.623211</ele>
        <time>2023-12-12T13:01:45.000Z</time>
      </trkpt>
      <trkpt lat="45.4661" lon="5.63092">
        <ele>495.879029</ele>
        <time>2023-12-12T13:01:53.000Z</time>
      </trkpt>
      <trkpt lat="45.46616" lon="5.63094">
        <ele>495.879029</ele>
        <time>2023-12-12T13:01:54.000Z</time>
      </trkpt>
      <trkpt lat="45.46626" lon="5.63097">
        <ele>495.879029</ele>
        <time>2023-12-12T13:01:56.000Z</time>
      </trkpt>
      <trkpt lat="45.46658" lon="5.63103">
        <ele>495.879029</ele>
        <time>2023-12-12T13:02:02.000Z</time>
      </trkpt>
      <trkpt lat="45.46674" lon="5.63104">
        <ele>495.879029</ele>
        <time>2023-12-12T13:02:05.000Z</time>
      </trkpt>
      <trkpt lat="45.46711" lon="5.63105">
        <ele>495.879029</ele>
        <time>2023-12-12T13:02:12.000Z</time>
      </trkpt>
      <trkpt lat="45.46738" lon="5.63109">
        <ele>495.879029</ele>
        <time>2023-12-12T13:02:17.000Z</time>
      </trkpt>
      <trkpt lat="45.46748" lon="5.6311">
        <ele>495.879029</ele>
        <time>2023-12-12T13:02:19.000Z</time>
      </trkpt>
      <trkpt lat="45.46753" lon="5.6311">
        <ele>495.879029</ele>
        <time>2023-12-12T13:02:20.000Z</time>
      </trkpt>
      <trkpt lat="45.46763" lon="5.6311">
        <ele>495.879029</ele>
        <time>2023-12-12T13:02:22.000Z</time>
      </trkpt>
      <trkpt lat="45.46768" lon="5.63111">
        <ele>495.879029</ele>
        <time>2023-12-12T13:02:23.000Z</time>
      </trkpt>
      <trkpt lat="45.46793" lon="5.63126">
        <ele>495.879029</ele>
        <time>2023-12-12T13:02:28.000Z</time>
      </trkpt>
      <trkpt lat="45.46802" lon="5.63134">
        <ele>495.879029</ele>
        <time>2023-12-12T13:02:30.000Z</time>
      </trkpt>
      <trkpt lat="45.46816" lon="5.63145">
        <ele>495.879029</ele>
        <time>2023-12-12T13:02:33.000Z</time>
      </trkpt>
      <trkpt lat="45.46821" lon="5.63148">
        <ele>495.879029</ele>
        <time>2023-12-12T13:02:34.000Z</time>
      </trkpt>
    </trkseg>
  </trk>
</gpx>